<?xml version="1.0" encoding="UTF-8" ?>
<gpx version="1.0" xmlns:xsi="http://www.w3.org/2001/XMLSchema-instance"
	xmlns="http://www.topografix.com/GPX/1/0"
	xsi:schemaLocation="http://www.topografix.com/GPX/1/0 http://www.topografix.com/GPX/1/0/gpx.xsd"
	creator="https://www.openrunner.com">	<trk>
					<name>6484532-Trizac, Riom, Le Claux, Pas de Peyrol, Salers</name>
					<trkseg>
				<trkpt lat="45.207740" lon="2.333950">
					<ele>720</ele>
					<time>2018-06-22T10:24:04Z</time>
				</trkpt>
				<trkpt lat="45.207670" lon="2.333970">
					<ele>721</ele>
					<time>2018-06-22T10:25:04Z</time>
				</trkpt>
				<trkpt lat="45.207590" lon="2.333970">
					<ele>721</ele>
					<time>2018-06-22T10:26:04Z</time>
				</trkpt>
				<trkpt lat="45.207500" lon="2.333970">
					<ele>722</ele>
					<time>2018-06-22T10:27:04Z</time>
				</trkpt>
				<trkpt lat="45.207420" lon="2.333950">
					<ele>722</ele>
					<time>2018-06-22T10:28:04Z</time>
				</trkpt>
				<trkpt lat="45.207340" lon="2.333930">
					<ele>723</ele>
					<time>2018-06-22T10:29:04Z</time>
				</trkpt>
				<trkpt lat="45.207280" lon="2.333900">
					<ele>723</ele>
					<time>2018-06-22T10:30:04Z</time>
				</trkpt>
				<trkpt lat="45.207200" lon="2.333860">
					<ele>723</ele>
					<time>2018-06-22T10:31:04Z</time>
				</trkpt>
				<trkpt lat="45.207070" lon="2.333770">
					<ele>723</ele>
					<time>2018-06-22T10:32:04Z</time>
				</trkpt>
				<trkpt lat="45.207070" lon="2.333770">
					<ele>723</ele>
					<time>2018-06-22T10:33:04Z</time>
				</trkpt>
				<trkpt lat="45.207020" lon="2.333930">
					<ele>724</ele>
					<time>2018-06-22T10:34:04Z</time>
				</trkpt>
				<trkpt lat="45.207000" lon="2.334060">
					<ele>725</ele>
					<time>2018-06-22T10:35:04Z</time>
				</trkpt>
				<trkpt lat="45.207000" lon="2.334190">
					<ele>725</ele>
					<time>2018-06-22T10:36:04Z</time>
				</trkpt>
				<trkpt lat="45.207020" lon="2.334310">
					<ele>725</ele>
					<time>2018-06-22T10:37:04Z</time>
				</trkpt>
				<trkpt lat="45.207060" lon="2.334510">
					<ele>726</ele>
					<time>2018-06-22T10:38:04Z</time>
				</trkpt>
				<trkpt lat="45.207120" lon="2.334740">
					<ele>726</ele>
					<time>2018-06-22T10:39:04Z</time>
				</trkpt>
				<trkpt lat="45.207210" lon="2.335010">
					<ele>725</ele>
					<time>2018-06-22T10:40:04Z</time>
				</trkpt>
				<trkpt lat="45.207300" lon="2.335200">
					<ele>726</ele>
					<time>2018-06-22T10:41:04Z</time>
				</trkpt>
				<trkpt lat="45.207400" lon="2.335390">
					<ele>726</ele>
					<time>2018-06-22T10:42:04Z</time>
				</trkpt>
				<trkpt lat="45.207600" lon="2.335740">
					<ele>726</ele>
					<time>2018-06-22T10:43:04Z</time>
				</trkpt>
				<trkpt lat="45.207670" lon="2.335870">
					<ele>726</ele>
					<time>2018-06-22T10:44:04Z</time>
				</trkpt>
				<trkpt lat="45.207830" lon="2.336150">
					<ele>727</ele>
					<time>2018-06-22T10:45:04Z</time>
				</trkpt>
				<trkpt lat="45.208050" lon="2.336510">
					<ele>728</ele>
					<time>2018-06-22T10:46:04Z</time>
				</trkpt>
				<trkpt lat="45.208220" lon="2.336790">
					<ele>729</ele>
					<time>2018-06-22T10:47:04Z</time>
				</trkpt>
				<trkpt lat="45.208430" lon="2.337130">
					<ele>729</ele>
					<time>2018-06-22T10:48:04Z</time>
				</trkpt>
				<trkpt lat="45.208540" lon="2.337320">
					<ele>728</ele>
					<time>2018-06-22T10:49:04Z</time>
				</trkpt>
				<trkpt lat="45.208590" lon="2.337400">
					<ele>728</ele>
					<time>2018-06-22T10:50:04Z</time>
				</trkpt>
				<trkpt lat="45.208590" lon="2.337400">
					<ele>728</ele>
					<time>2018-06-22T10:51:04Z</time>
				</trkpt>
				<trkpt lat="45.208620" lon="2.337440">
					<ele>728</ele>
					<time>2018-06-22T10:52:04Z</time>
				</trkpt>
				<trkpt lat="45.208780" lon="2.337710">
					<ele>727</ele>
					<time>2018-06-22T10:53:04Z</time>
				</trkpt>
				<trkpt lat="45.208970" lon="2.338030">
					<ele>726</ele>
					<time>2018-06-22T10:54:04Z</time>
				</trkpt>
				<trkpt lat="45.209110" lon="2.338250">
					<ele>726</ele>
					<time>2018-06-22T10:55:04Z</time>
				</trkpt>
				<trkpt lat="45.209260" lon="2.338460">
					<ele>725</ele>
					<time>2018-06-22T10:56:04Z</time>
				</trkpt>
				<trkpt lat="45.209380" lon="2.338610">
					<ele>725</ele>
					<time>2018-06-22T10:57:04Z</time>
				</trkpt>
				<trkpt lat="45.209490" lon="2.338710">
					<ele>724</ele>
					<time>2018-06-22T10:58:04Z</time>
				</trkpt>
				<trkpt lat="45.209630" lon="2.338800">
					<ele>724</ele>
					<time>2018-06-22T10:59:04Z</time>
				</trkpt>
				<trkpt lat="45.209760" lon="2.338850">
					<ele>724</ele>
					<time>2018-06-22T11:00:04Z</time>
				</trkpt>
				<trkpt lat="45.209880" lon="2.338900">
					<ele>723</ele>
					<time>2018-06-22T11:01:04Z</time>
				</trkpt>
				<trkpt lat="45.209980" lon="2.338930">
					<ele>723</ele>
					<time>2018-06-22T11:02:04Z</time>
				</trkpt>
				<trkpt lat="45.210100" lon="2.338960">
					<ele>723</ele>
					<time>2018-06-22T11:03:04Z</time>
				</trkpt>
				<trkpt lat="45.210360" lon="2.339030">
					<ele>723</ele>
					<time>2018-06-22T11:04:04Z</time>
				</trkpt>
				<trkpt lat="45.210480" lon="2.339070">
					<ele>723</ele>
					<time>2018-06-22T11:05:04Z</time>
				</trkpt>
				<trkpt lat="45.210780" lon="2.339150">
					<ele>723</ele>
					<time>2018-06-22T11:06:04Z</time>
				</trkpt>
				<trkpt lat="45.211310" lon="2.339290">
					<ele>724</ele>
					<time>2018-06-22T11:07:04Z</time>
				</trkpt>
				<trkpt lat="45.211580" lon="2.339360">
					<ele>725</ele>
					<time>2018-06-22T11:08:04Z</time>
				</trkpt>
				<trkpt lat="45.211610" lon="2.339370">
					<ele>725</ele>
					<time>2018-06-22T11:09:04Z</time>
				</trkpt>
				<trkpt lat="45.211720" lon="2.339460">
					<ele>725</ele>
					<time>2018-06-22T11:10:04Z</time>
				</trkpt>
				<trkpt lat="45.211850" lon="2.339590">
					<ele>725</ele>
					<time>2018-06-22T11:11:04Z</time>
				</trkpt>
				<trkpt lat="45.212020" lon="2.339770">
					<ele>726</ele>
					<time>2018-06-22T11:12:04Z</time>
				</trkpt>
				<trkpt lat="45.212220" lon="2.339990">
					<ele>727</ele>
					<time>2018-06-22T11:13:04Z</time>
				</trkpt>
				<trkpt lat="45.212230" lon="2.339990">
					<ele>727</ele>
					<time>2018-06-22T11:14:04Z</time>
				</trkpt>
				<trkpt lat="45.212410" lon="2.340180">
					<ele>728</ele>
					<time>2018-06-22T11:15:04Z</time>
				</trkpt>
				<trkpt lat="45.212660" lon="2.340470">
					<ele>727</ele>
					<time>2018-06-22T11:16:04Z</time>
				</trkpt>
				<trkpt lat="45.212900" lon="2.340730">
					<ele>727</ele>
					<time>2018-06-22T11:17:04Z</time>
				</trkpt>
				<trkpt lat="45.213370" lon="2.341240">
					<ele>728</ele>
					<time>2018-06-22T11:18:04Z</time>
				</trkpt>
				<trkpt lat="45.213740" lon="2.341660">
					<ele>727</ele>
					<time>2018-06-22T11:19:04Z</time>
				</trkpt>
				<trkpt lat="45.213850" lon="2.341770">
					<ele>726</ele>
					<time>2018-06-22T11:20:04Z</time>
				</trkpt>
				<trkpt lat="45.213930" lon="2.341840">
					<ele>727</ele>
					<time>2018-06-22T11:21:04Z</time>
				</trkpt>
				<trkpt lat="45.214030" lon="2.341950">
					<ele>727</ele>
					<time>2018-06-22T11:22:04Z</time>
				</trkpt>
				<trkpt lat="45.214100" lon="2.342050">
					<ele>727</ele>
					<time>2018-06-22T11:23:04Z</time>
				</trkpt>
				<trkpt lat="45.214150" lon="2.342150">
					<ele>727</ele>
					<time>2018-06-22T11:24:04Z</time>
				</trkpt>
				<trkpt lat="45.214210" lon="2.342290">
					<ele>728</ele>
					<time>2018-06-22T11:25:04Z</time>
				</trkpt>
				<trkpt lat="45.214280" lon="2.342480">
					<ele>729</ele>
					<time>2018-06-22T11:26:04Z</time>
				</trkpt>
				<trkpt lat="45.214360" lon="2.342670">
					<ele>730</ele>
					<time>2018-06-22T11:27:04Z</time>
				</trkpt>
				<trkpt lat="45.214440" lon="2.342860">
					<ele>730</ele>
					<time>2018-06-22T11:28:04Z</time>
				</trkpt>
				<trkpt lat="45.214530" lon="2.342980">
					<ele>731</ele>
					<time>2018-06-22T11:29:04Z</time>
				</trkpt>
				<trkpt lat="45.214640" lon="2.343100">
					<ele>731</ele>
					<time>2018-06-22T11:30:04Z</time>
				</trkpt>
				<trkpt lat="45.214880" lon="2.343410">
					<ele>733</ele>
					<time>2018-06-22T11:31:04Z</time>
				</trkpt>
				<trkpt lat="45.215020" lon="2.343570">
					<ele>733</ele>
					<time>2018-06-22T11:32:04Z</time>
				</trkpt>
				<trkpt lat="45.215020" lon="2.343570">
					<ele>733</ele>
					<time>2018-06-22T11:33:04Z</time>
				</trkpt>
				<trkpt lat="45.214970" lon="2.343650">
					<ele>733</ele>
					<time>2018-06-22T11:34:04Z</time>
				</trkpt>
				<trkpt lat="45.214800" lon="2.344000">
					<ele>732</ele>
					<time>2018-06-22T11:35:04Z</time>
				</trkpt>
				<trkpt lat="45.214760" lon="2.344060">
					<ele>732</ele>
					<time>2018-06-22T11:36:04Z</time>
				</trkpt>
				<trkpt lat="45.214200" lon="2.345180">
					<ele>734</ele>
					<time>2018-06-22T11:37:04Z</time>
				</trkpt>
				<trkpt lat="45.213810" lon="2.345930">
					<ele>737</ele>
					<time>2018-06-22T11:38:04Z</time>
				</trkpt>
				<trkpt lat="45.213620" lon="2.346290">
					<ele>738</ele>
					<time>2018-06-22T11:39:04Z</time>
				</trkpt>
				<trkpt lat="45.213610" lon="2.346280">
					<ele>738</ele>
					<time>2018-06-22T11:40:04Z</time>
				</trkpt>
				<trkpt lat="45.213600" lon="2.346270">
					<ele>738</ele>
					<time>2018-06-22T11:41:04Z</time>
				</trkpt>
				<trkpt lat="45.213590" lon="2.346260">
					<ele>738</ele>
					<time>2018-06-22T11:42:04Z</time>
				</trkpt>
				<trkpt lat="45.213580" lon="2.346260">
					<ele>739</ele>
					<time>2018-06-22T11:43:04Z</time>
				</trkpt>
				<trkpt lat="45.213570" lon="2.346250">
					<ele>739</ele>
					<time>2018-06-22T11:44:04Z</time>
				</trkpt>
				<trkpt lat="45.213560" lon="2.346250">
					<ele>739</ele>
					<time>2018-06-22T11:45:04Z</time>
				</trkpt>
				<trkpt lat="45.213550" lon="2.346250">
					<ele>739</ele>
					<time>2018-06-22T11:46:04Z</time>
				</trkpt>
				<trkpt lat="45.213540" lon="2.346250">
					<ele>739</ele>
					<time>2018-06-22T11:47:04Z</time>
				</trkpt>
				<trkpt lat="45.213530" lon="2.346240">
					<ele>739</ele>
					<time>2018-06-22T11:48:04Z</time>
				</trkpt>
				<trkpt lat="45.213520" lon="2.346240">
					<ele>739</ele>
					<time>2018-06-22T11:49:04Z</time>
				</trkpt>
				<trkpt lat="45.213510" lon="2.346250">
					<ele>739</ele>
					<time>2018-06-22T11:50:04Z</time>
				</trkpt>
				<trkpt lat="45.213500" lon="2.346250">
					<ele>739</ele>
					<time>2018-06-22T11:51:04Z</time>
				</trkpt>
				<trkpt lat="45.213490" lon="2.346250">
					<ele>739</ele>
					<time>2018-06-22T11:52:04Z</time>
				</trkpt>
				<trkpt lat="45.213480" lon="2.346250">
					<ele>739</ele>
					<time>2018-06-22T11:53:04Z</time>
				</trkpt>
				<trkpt lat="45.213470" lon="2.346260">
					<ele>739</ele>
					<time>2018-06-22T11:54:04Z</time>
				</trkpt>
				<trkpt lat="45.213460" lon="2.346270">
					<ele>739</ele>
					<time>2018-06-22T11:55:04Z</time>
				</trkpt>
				<trkpt lat="45.213450" lon="2.346270">
					<ele>739</ele>
					<time>2018-06-22T11:56:04Z</time>
				</trkpt>
				<trkpt lat="45.213440" lon="2.346280">
					<ele>739</ele>
					<time>2018-06-22T11:57:04Z</time>
				</trkpt>
				<trkpt lat="45.213440" lon="2.346290">
					<ele>739</ele>
					<time>2018-06-22T11:58:04Z</time>
				</trkpt>
				<trkpt lat="45.213430" lon="2.346300">
					<ele>739</ele>
					<time>2018-06-22T11:59:04Z</time>
				</trkpt>
				<trkpt lat="45.213420" lon="2.346310">
					<ele>739</ele>
					<time>2018-06-22T12:00:04Z</time>
				</trkpt>
				<trkpt lat="45.213410" lon="2.346320">
					<ele>740</ele>
					<time>2018-06-22T12:01:04Z</time>
				</trkpt>
				<trkpt lat="45.213400" lon="2.346340">
					<ele>740</ele>
					<time>2018-06-22T12:02:04Z</time>
				</trkpt>
				<trkpt lat="45.213400" lon="2.346350">
					<ele>740</ele>
					<time>2018-06-22T12:03:04Z</time>
				</trkpt>
				<trkpt lat="45.213390" lon="2.346360">
					<ele>740</ele>
					<time>2018-06-22T12:04:04Z</time>
				</trkpt>
				<trkpt lat="45.213390" lon="2.346380">
					<ele>740</ele>
					<time>2018-06-22T12:05:04Z</time>
				</trkpt>
				<trkpt lat="45.213380" lon="2.346390">
					<ele>740</ele>
					<time>2018-06-22T12:06:04Z</time>
				</trkpt>
				<trkpt lat="45.213380" lon="2.346400">
					<ele>740</ele>
					<time>2018-06-22T12:07:04Z</time>
				</trkpt>
				<trkpt lat="45.213380" lon="2.346420">
					<ele>740</ele>
					<time>2018-06-22T12:08:04Z</time>
				</trkpt>
				<trkpt lat="45.213380" lon="2.346430">
					<ele>740</ele>
					<time>2018-06-22T12:09:04Z</time>
				</trkpt>
				<trkpt lat="45.213380" lon="2.346450">
					<ele>740</ele>
					<time>2018-06-22T12:10:04Z</time>
				</trkpt>
				<trkpt lat="45.213370" lon="2.346460">
					<ele>740</ele>
					<time>2018-06-22T12:11:04Z</time>
				</trkpt>
				<trkpt lat="45.213380" lon="2.346480">
					<ele>740</ele>
					<time>2018-06-22T12:12:04Z</time>
				</trkpt>
				<trkpt lat="45.213380" lon="2.346490">
					<ele>740</ele>
					<time>2018-06-22T12:13:04Z</time>
				</trkpt>
				<trkpt lat="45.213380" lon="2.346500">
					<ele>740</ele>
					<time>2018-06-22T12:14:04Z</time>
				</trkpt>
				<trkpt lat="45.213380" lon="2.346520">
					<ele>740</ele>
					<time>2018-06-22T12:15:04Z</time>
				</trkpt>
				<trkpt lat="45.213380" lon="2.346530">
					<ele>740</ele>
					<time>2018-06-22T12:16:04Z</time>
				</trkpt>
				<trkpt lat="45.213390" lon="2.346550">
					<ele>740</ele>
					<time>2018-06-22T12:17:04Z</time>
				</trkpt>
				<trkpt lat="45.213390" lon="2.346560">
					<ele>740</ele>
					<time>2018-06-22T12:18:04Z</time>
				</trkpt>
				<trkpt lat="45.213400" lon="2.346570">
					<ele>740</ele>
					<time>2018-06-22T12:19:04Z</time>
				</trkpt>
				<trkpt lat="45.213400" lon="2.346580">
					<ele>740</ele>
					<time>2018-06-22T12:20:04Z</time>
				</trkpt>
				<trkpt lat="45.213410" lon="2.346600">
					<ele>740</ele>
					<time>2018-06-22T12:21:04Z</time>
				</trkpt>
				<trkpt lat="45.213420" lon="2.346610">
					<ele>740</ele>
					<time>2018-06-22T12:22:04Z</time>
				</trkpt>
				<trkpt lat="45.213420" lon="2.346620">
					<ele>740</ele>
					<time>2018-06-22T12:23:04Z</time>
				</trkpt>
				<trkpt lat="45.213430" lon="2.346630">
					<ele>740</ele>
					<time>2018-06-22T12:24:04Z</time>
				</trkpt>
				<trkpt lat="45.213450" lon="2.346640">
					<ele>739</ele>
					<time>2018-06-22T12:25:04Z</time>
				</trkpt>
				<trkpt lat="45.213220" lon="2.347190">
					<ele>738</ele>
					<time>2018-06-22T12:26:04Z</time>
				</trkpt>
				<trkpt lat="45.213100" lon="2.347480">
					<ele>738</ele>
					<time>2018-06-22T12:27:04Z</time>
				</trkpt>
				<trkpt lat="45.212900" lon="2.348020">
					<ele>736</ele>
					<time>2018-06-22T12:28:04Z</time>
				</trkpt>
				<trkpt lat="45.212760" lon="2.348380">
					<ele>736</ele>
					<time>2018-06-22T12:29:04Z</time>
				</trkpt>
				<trkpt lat="45.212680" lon="2.348600">
					<ele>736</ele>
					<time>2018-06-22T12:30:04Z</time>
				</trkpt>
				<trkpt lat="45.212630" lon="2.348770">
					<ele>736</ele>
					<time>2018-06-22T12:31:04Z</time>
				</trkpt>
				<trkpt lat="45.212590" lon="2.348950">
					<ele>737</ele>
					<time>2018-06-22T12:32:04Z</time>
				</trkpt>
				<trkpt lat="45.212560" lon="2.349080">
					<ele>737</ele>
					<time>2018-06-22T12:33:04Z</time>
				</trkpt>
				<trkpt lat="45.212540" lon="2.349220">
					<ele>737</ele>
					<time>2018-06-22T12:34:04Z</time>
				</trkpt>
				<trkpt lat="45.212520" lon="2.349340">
					<ele>737</ele>
					<time>2018-06-22T12:35:04Z</time>
				</trkpt>
				<trkpt lat="45.212510" lon="2.349440">
					<ele>737</ele>
					<time>2018-06-22T12:36:04Z</time>
				</trkpt>
				<trkpt lat="45.212440" lon="2.349870">
					<ele>738</ele>
					<time>2018-06-22T12:37:04Z</time>
				</trkpt>
				<trkpt lat="45.212440" lon="2.349870">
					<ele>738</ele>
					<time>2018-06-22T12:38:04Z</time>
				</trkpt>
				<trkpt lat="45.212430" lon="2.349870">
					<ele>738</ele>
					<time>2018-06-22T12:39:04Z</time>
				</trkpt>
				<trkpt lat="45.212420" lon="2.349880">
					<ele>738</ele>
					<time>2018-06-22T12:40:04Z</time>
				</trkpt>
				<trkpt lat="45.212410" lon="2.349880">
					<ele>738</ele>
					<time>2018-06-22T12:41:04Z</time>
				</trkpt>
				<trkpt lat="45.212400" lon="2.349890">
					<ele>738</ele>
					<time>2018-06-22T12:42:04Z</time>
				</trkpt>
				<trkpt lat="45.212390" lon="2.349900">
					<ele>739</ele>
					<time>2018-06-22T12:43:04Z</time>
				</trkpt>
				<trkpt lat="45.212380" lon="2.349910">
					<ele>739</ele>
					<time>2018-06-22T12:44:04Z</time>
				</trkpt>
				<trkpt lat="45.212370" lon="2.349920">
					<ele>739</ele>
					<time>2018-06-22T12:45:04Z</time>
				</trkpt>
				<trkpt lat="45.212370" lon="2.349930">
					<ele>739</ele>
					<time>2018-06-22T12:46:04Z</time>
				</trkpt>
				<trkpt lat="45.212360" lon="2.349950">
					<ele>739</ele>
					<time>2018-06-22T12:47:04Z</time>
				</trkpt>
				<trkpt lat="45.212350" lon="2.349970">
					<ele>739</ele>
					<time>2018-06-22T12:48:04Z</time>
				</trkpt>
				<trkpt lat="45.212350" lon="2.349980">
					<ele>739</ele>
					<time>2018-06-22T12:49:04Z</time>
				</trkpt>
				<trkpt lat="45.212340" lon="2.349990">
					<ele>739</ele>
					<time>2018-06-22T12:50:04Z</time>
				</trkpt>
				<trkpt lat="45.212340" lon="2.350010">
					<ele>739</ele>
					<time>2018-06-22T12:51:04Z</time>
				</trkpt>
				<trkpt lat="45.212340" lon="2.350020">
					<ele>739</ele>
					<time>2018-06-22T12:52:04Z</time>
				</trkpt>
				<trkpt lat="45.212330" lon="2.350040">
					<ele>739</ele>
					<time>2018-06-22T12:53:04Z</time>
				</trkpt>
				<trkpt lat="45.212330" lon="2.350050">
					<ele>739</ele>
					<time>2018-06-22T12:54:04Z</time>
				</trkpt>
				<trkpt lat="45.212330" lon="2.350070">
					<ele>739</ele>
					<time>2018-06-22T12:55:04Z</time>
				</trkpt>
				<trkpt lat="45.212330" lon="2.350080">
					<ele>739</ele>
					<time>2018-06-22T12:56:04Z</time>
				</trkpt>
				<trkpt lat="45.212330" lon="2.350100">
					<ele>739</ele>
					<time>2018-06-22T12:57:04Z</time>
				</trkpt>
				<trkpt lat="45.212330" lon="2.350110">
					<ele>739</ele>
					<time>2018-06-22T12:58:04Z</time>
				</trkpt>
				<trkpt lat="45.212340" lon="2.350130">
					<ele>739</ele>
					<time>2018-06-22T12:59:04Z</time>
				</trkpt>
				<trkpt lat="45.212340" lon="2.350140">
					<ele>739</ele>
					<time>2018-06-22T13:00:04Z</time>
				</trkpt>
				<trkpt lat="45.212340" lon="2.350160">
					<ele>739</ele>
					<time>2018-06-22T13:01:04Z</time>
				</trkpt>
				<trkpt lat="45.212350" lon="2.350170">
					<ele>739</ele>
					<time>2018-06-22T13:02:04Z</time>
				</trkpt>
				<trkpt lat="45.212350" lon="2.350190">
					<ele>739</ele>
					<time>2018-06-22T13:03:04Z</time>
				</trkpt>
				<trkpt lat="45.212360" lon="2.350200">
					<ele>739</ele>
					<time>2018-06-22T13:04:04Z</time>
				</trkpt>
				<trkpt lat="45.212360" lon="2.350210">
					<ele>739</ele>
					<time>2018-06-22T13:05:04Z</time>
				</trkpt>
				<trkpt lat="45.212370" lon="2.350220">
					<ele>739</ele>
					<time>2018-06-22T13:06:04Z</time>
				</trkpt>
				<trkpt lat="45.212380" lon="2.350230">
					<ele>739</ele>
					<time>2018-06-22T13:07:04Z</time>
				</trkpt>
				<trkpt lat="45.212390" lon="2.350240">
					<ele>739</ele>
					<time>2018-06-22T13:08:04Z</time>
				</trkpt>
				<trkpt lat="45.212400" lon="2.350250">
					<ele>738</ele>
					<time>2018-06-22T13:09:04Z</time>
				</trkpt>
				<trkpt lat="45.212400" lon="2.350260">
					<ele>738</ele>
					<time>2018-06-22T13:10:04Z</time>
				</trkpt>
				<trkpt lat="45.212410" lon="2.350270">
					<ele>738</ele>
					<time>2018-06-22T13:11:04Z</time>
				</trkpt>
				<trkpt lat="45.212420" lon="2.350280">
					<ele>738</ele>
					<time>2018-06-22T13:12:04Z</time>
				</trkpt>
				<trkpt lat="45.212430" lon="2.350280">
					<ele>738</ele>
					<time>2018-06-22T13:13:04Z</time>
				</trkpt>
				<trkpt lat="45.212440" lon="2.350290">
					<ele>738</ele>
					<time>2018-06-22T13:14:04Z</time>
				</trkpt>
				<trkpt lat="45.212450" lon="2.350290">
					<ele>738</ele>
					<time>2018-06-22T13:15:04Z</time>
				</trkpt>
				<trkpt lat="45.212460" lon="2.350290">
					<ele>738</ele>
					<time>2018-06-22T13:16:04Z</time>
				</trkpt>
				<trkpt lat="45.212480" lon="2.350300">
					<ele>738</ele>
					<time>2018-06-22T13:17:04Z</time>
				</trkpt>
				<trkpt lat="45.212490" lon="2.350300">
					<ele>738</ele>
					<time>2018-06-22T13:18:04Z</time>
				</trkpt>
				<trkpt lat="45.212500" lon="2.350300">
					<ele>738</ele>
					<time>2018-06-22T13:19:04Z</time>
				</trkpt>
				<trkpt lat="45.212510" lon="2.350290">
					<ele>738</ele>
					<time>2018-06-22T13:20:04Z</time>
				</trkpt>
				<trkpt lat="45.212520" lon="2.350290">
					<ele>738</ele>
					<time>2018-06-22T13:21:04Z</time>
				</trkpt>
				<trkpt lat="45.212530" lon="2.350290">
					<ele>738</ele>
					<time>2018-06-22T13:22:04Z</time>
				</trkpt>
				<trkpt lat="45.212540" lon="2.350280">
					<ele>738</ele>
					<time>2018-06-22T13:23:04Z</time>
				</trkpt>
				<trkpt lat="45.212550" lon="2.350280">
					<ele>738</ele>
					<time>2018-06-22T13:24:04Z</time>
				</trkpt>
				<trkpt lat="45.212560" lon="2.350270">
					<ele>738</ele>
					<time>2018-06-22T13:25:04Z</time>
				</trkpt>
				<trkpt lat="45.212570" lon="2.350260">
					<ele>738</ele>
					<time>2018-06-22T13:26:04Z</time>
				</trkpt>
				<trkpt lat="45.212580" lon="2.350260">
					<ele>738</ele>
					<time>2018-06-22T13:27:04Z</time>
				</trkpt>
				<trkpt lat="45.212590" lon="2.350250">
					<ele>738</ele>
					<time>2018-06-22T13:28:04Z</time>
				</trkpt>
				<trkpt lat="45.212590" lon="2.350230">
					<ele>738</ele>
					<time>2018-06-22T13:29:04Z</time>
				</trkpt>
				<trkpt lat="45.212600" lon="2.350220">
					<ele>738</ele>
					<time>2018-06-22T13:30:04Z</time>
				</trkpt>
				<trkpt lat="45.212610" lon="2.350210">
					<ele>738</ele>
					<time>2018-06-22T13:31:04Z</time>
				</trkpt>
				<trkpt lat="45.212620" lon="2.350200">
					<ele>738</ele>
					<time>2018-06-22T13:32:04Z</time>
				</trkpt>
				<trkpt lat="45.212620" lon="2.350190">
					<ele>738</ele>
					<time>2018-06-22T13:33:04Z</time>
				</trkpt>
				<trkpt lat="45.212630" lon="2.350170">
					<ele>738</ele>
					<time>2018-06-22T13:34:04Z</time>
				</trkpt>
				<trkpt lat="45.212630" lon="2.350160">
					<ele>738</ele>
					<time>2018-06-22T13:35:04Z</time>
				</trkpt>
				<trkpt lat="45.212640" lon="2.350140">
					<ele>738</ele>
					<time>2018-06-22T13:36:04Z</time>
				</trkpt>
				<trkpt lat="45.212680" lon="2.350120">
					<ele>737</ele>
					<time>2018-06-22T13:37:04Z</time>
				</trkpt>
				<trkpt lat="45.212750" lon="2.350120">
					<ele>737</ele>
					<time>2018-06-22T13:38:04Z</time>
				</trkpt>
				<trkpt lat="45.212820" lon="2.350150">
					<ele>737</ele>
					<time>2018-06-22T13:39:04Z</time>
				</trkpt>
				<trkpt lat="45.212860" lon="2.350180">
					<ele>737</ele>
					<time>2018-06-22T13:40:04Z</time>
				</trkpt>
				<trkpt lat="45.212910" lon="2.350250">
					<ele>737</ele>
					<time>2018-06-22T13:41:04Z</time>
				</trkpt>
				<trkpt lat="45.213000" lon="2.350390">
					<ele>737</ele>
					<time>2018-06-22T13:42:04Z</time>
				</trkpt>
				<trkpt lat="45.213140" lon="2.350610">
					<ele>737</ele>
					<time>2018-06-22T13:43:04Z</time>
				</trkpt>
				<trkpt lat="45.213200" lon="2.350710">
					<ele>737</ele>
					<time>2018-06-22T13:44:04Z</time>
				</trkpt>
				<trkpt lat="45.213260" lon="2.350820">
					<ele>737</ele>
					<time>2018-06-22T13:45:04Z</time>
				</trkpt>
				<trkpt lat="45.213280" lon="2.350850">
					<ele>737</ele>
					<time>2018-06-22T13:46:04Z</time>
				</trkpt>
				<trkpt lat="45.213420" lon="2.351090">
					<ele>738</ele>
					<time>2018-06-22T13:47:04Z</time>
				</trkpt>
				<trkpt lat="45.213430" lon="2.351120">
					<ele>738</ele>
					<time>2018-06-22T13:48:04Z</time>
				</trkpt>
				<trkpt lat="45.213610" lon="2.351420">
					<ele>740</ele>
					<time>2018-06-22T13:49:04Z</time>
				</trkpt>
				<trkpt lat="45.213700" lon="2.351590">
					<ele>741</ele>
					<time>2018-06-22T13:50:04Z</time>
				</trkpt>
				<trkpt lat="45.213790" lon="2.351770">
					<ele>741</ele>
					<time>2018-06-22T13:51:04Z</time>
				</trkpt>
				<trkpt lat="45.213940" lon="2.352090">
					<ele>741</ele>
					<time>2018-06-22T13:52:04Z</time>
				</trkpt>
				<trkpt lat="45.214130" lon="2.352500">
					<ele>742</ele>
					<time>2018-06-22T13:53:04Z</time>
				</trkpt>
				<trkpt lat="45.214280" lon="2.352810">
					<ele>742</ele>
					<time>2018-06-22T13:54:04Z</time>
				</trkpt>
				<trkpt lat="45.214440" lon="2.353140">
					<ele>743</ele>
					<time>2018-06-22T13:55:04Z</time>
				</trkpt>
				<trkpt lat="45.214560" lon="2.353400">
					<ele>743</ele>
					<time>2018-06-22T13:56:04Z</time>
				</trkpt>
				<trkpt lat="45.214640" lon="2.353560">
					<ele>744</ele>
					<time>2018-06-22T13:57:04Z</time>
				</trkpt>
				<trkpt lat="45.214690" lon="2.353660">
					<ele>744</ele>
					<time>2018-06-22T13:58:04Z</time>
				</trkpt>
				<trkpt lat="45.214820" lon="2.353910">
					<ele>744</ele>
					<time>2018-06-22T13:59:04Z</time>
				</trkpt>
				<trkpt lat="45.214950" lon="2.354160">
					<ele>745</ele>
					<time>2018-06-22T14:00:04Z</time>
				</trkpt>
				<trkpt lat="45.215010" lon="2.354240">
					<ele>745</ele>
					<time>2018-06-22T14:01:04Z</time>
				</trkpt>
				<trkpt lat="45.215080" lon="2.354320">
					<ele>745</ele>
					<time>2018-06-22T14:02:04Z</time>
				</trkpt>
				<trkpt lat="45.215190" lon="2.354380">
					<ele>744</ele>
					<time>2018-06-22T14:03:04Z</time>
				</trkpt>
				<trkpt lat="45.215340" lon="2.354450">
					<ele>744</ele>
					<time>2018-06-22T14:04:04Z</time>
				</trkpt>
				<trkpt lat="45.215430" lon="2.354480">
					<ele>744</ele>
					<time>2018-06-22T14:05:04Z</time>
				</trkpt>
				<trkpt lat="45.215460" lon="2.354490">
					<ele>744</ele>
					<time>2018-06-22T14:06:04Z</time>
				</trkpt>
				<trkpt lat="45.215570" lon="2.354540">
					<ele>744</ele>
					<time>2018-06-22T14:07:04Z</time>
				</trkpt>
				<trkpt lat="45.215610" lon="2.354550">
					<ele>744</ele>
					<time>2018-06-22T14:08:04Z</time>
				</trkpt>
				<trkpt lat="45.215680" lon="2.354620">
					<ele>744</ele>
					<time>2018-06-22T14:09:04Z</time>
				</trkpt>
				<trkpt lat="45.215720" lon="2.354690">
					<ele>744</ele>
					<time>2018-06-22T14:10:04Z</time>
				</trkpt>
				<trkpt lat="45.215740" lon="2.354750">
					<ele>744</ele>
					<time>2018-06-22T14:11:04Z</time>
				</trkpt>
				<trkpt lat="45.215750" lon="2.354790">
					<ele>744</ele>
					<time>2018-06-22T14:12:04Z</time>
				</trkpt>
				<trkpt lat="45.215760" lon="2.354820">
					<ele>744</ele>
					<time>2018-06-22T14:13:04Z</time>
				</trkpt>
				<trkpt lat="45.215760" lon="2.354880">
					<ele>745</ele>
					<time>2018-06-22T14:14:04Z</time>
				</trkpt>
				<trkpt lat="45.215760" lon="2.354990">
					<ele>745</ele>
					<time>2018-06-22T14:15:04Z</time>
				</trkpt>
				<trkpt lat="45.215730" lon="2.355180">
					<ele>744</ele>
					<time>2018-06-22T14:16:04Z</time>
				</trkpt>
				<trkpt lat="45.215640" lon="2.355580">
					<ele>744</ele>
					<time>2018-06-22T14:17:04Z</time>
				</trkpt>
				<trkpt lat="45.215470" lon="2.356240">
					<ele>742</ele>
					<time>2018-06-22T14:18:04Z</time>
				</trkpt>
				<trkpt lat="45.215310" lon="2.356940">
					<ele>741</ele>
					<time>2018-06-22T14:19:04Z</time>
				</trkpt>
				<trkpt lat="45.215130" lon="2.357740">
					<ele>742</ele>
					<time>2018-06-22T14:20:04Z</time>
				</trkpt>
				<trkpt lat="45.214960" lon="2.358490">
					<ele>744</ele>
					<time>2018-06-22T14:21:04Z</time>
				</trkpt>
				<trkpt lat="45.214810" lon="2.359180">
					<ele>744</ele>
					<time>2018-06-22T14:22:04Z</time>
				</trkpt>
				<trkpt lat="45.214800" lon="2.359230">
					<ele>744</ele>
					<time>2018-06-22T14:23:04Z</time>
				</trkpt>
				<trkpt lat="45.214690" lon="2.359750">
					<ele>744</ele>
					<time>2018-06-22T14:24:04Z</time>
				</trkpt>
				<trkpt lat="45.214620" lon="2.360010">
					<ele>744</ele>
					<time>2018-06-22T14:25:04Z</time>
				</trkpt>
				<trkpt lat="45.214520" lon="2.360330">
					<ele>744</ele>
					<time>2018-06-22T14:26:04Z</time>
				</trkpt>
				<trkpt lat="45.214400" lon="2.360690">
					<ele>744</ele>
					<time>2018-06-22T14:27:04Z</time>
				</trkpt>
				<trkpt lat="45.214270" lon="2.361090">
					<ele>743</ele>
					<time>2018-06-22T14:28:04Z</time>
				</trkpt>
				<trkpt lat="45.214180" lon="2.361350">
					<ele>743</ele>
					<time>2018-06-22T14:29:04Z</time>
				</trkpt>
				<trkpt lat="45.214070" lon="2.361660">
					<ele>742</ele>
					<time>2018-06-22T14:30:04Z</time>
				</trkpt>
				<trkpt lat="45.213970" lon="2.361980">
					<ele>742</ele>
					<time>2018-06-22T14:31:04Z</time>
				</trkpt>
				<trkpt lat="45.213870" lon="2.362290">
					<ele>741</ele>
					<time>2018-06-22T14:32:04Z</time>
				</trkpt>
				<trkpt lat="45.213770" lon="2.362640">
					<ele>741</ele>
					<time>2018-06-22T14:33:04Z</time>
				</trkpt>
				<trkpt lat="45.213700" lon="2.362920">
					<ele>740</ele>
					<time>2018-06-22T14:34:04Z</time>
				</trkpt>
				<trkpt lat="45.213680" lon="2.362990">
					<ele>740</ele>
					<time>2018-06-22T14:35:04Z</time>
				</trkpt>
				<trkpt lat="45.213620" lon="2.363230">
					<ele>740</ele>
					<time>2018-06-22T14:36:04Z</time>
				</trkpt>
				<trkpt lat="45.213620" lon="2.363230">
					<ele>740</ele>
					<time>2018-06-22T14:37:04Z</time>
				</trkpt>
				<trkpt lat="45.213730" lon="2.363200">
					<ele>739</ele>
					<time>2018-06-22T14:38:04Z</time>
				</trkpt>
				<trkpt lat="45.213770" lon="2.363180">
					<ele>739</ele>
					<time>2018-06-22T14:39:04Z</time>
				</trkpt>
				<trkpt lat="45.213930" lon="2.363050">
					<ele>739</ele>
					<time>2018-06-22T14:40:04Z</time>
				</trkpt>
				<trkpt lat="45.214090" lon="2.362910">
					<ele>739</ele>
					<time>2018-06-22T14:41:04Z</time>
				</trkpt>
				<trkpt lat="45.214250" lon="2.362750">
					<ele>739</ele>
					<time>2018-06-22T14:42:04Z</time>
				</trkpt>
				<trkpt lat="45.214860" lon="2.362190">
					<ele>742</ele>
					<time>2018-06-22T14:43:04Z</time>
				</trkpt>
				<trkpt lat="45.215140" lon="2.361940">
					<ele>742</ele>
					<time>2018-06-22T14:44:04Z</time>
				</trkpt>
				<trkpt lat="45.215350" lon="2.361760">
					<ele>743</ele>
					<time>2018-06-22T14:45:04Z</time>
				</trkpt>
				<trkpt lat="45.215470" lon="2.361620">
					<ele>742</ele>
					<time>2018-06-22T14:46:04Z</time>
				</trkpt>
				<trkpt lat="45.215640" lon="2.361420">
					<ele>742</ele>
					<time>2018-06-22T14:47:04Z</time>
				</trkpt>
				<trkpt lat="45.215780" lon="2.361280">
					<ele>742</ele>
					<time>2018-06-22T14:48:04Z</time>
				</trkpt>
				<trkpt lat="45.215880" lon="2.361180">
					<ele>741</ele>
					<time>2018-06-22T14:49:04Z</time>
				</trkpt>
				<trkpt lat="45.215980" lon="2.361080">
					<ele>741</ele>
					<time>2018-06-22T14:50:04Z</time>
				</trkpt>
				<trkpt lat="45.216070" lon="2.361020">
					<ele>740</ele>
					<time>2018-06-22T14:51:04Z</time>
				</trkpt>
				<trkpt lat="45.216180" lon="2.360950">
					<ele>739</ele>
					<time>2018-06-22T14:52:04Z</time>
				</trkpt>
				<trkpt lat="45.216340" lon="2.360880">
					<ele>739</ele>
					<time>2018-06-22T14:53:04Z</time>
				</trkpt>
				<trkpt lat="45.216450" lon="2.360830">
					<ele>738</ele>
					<time>2018-06-22T14:54:04Z</time>
				</trkpt>
				<trkpt lat="45.216580" lon="2.360790">
					<ele>737</ele>
					<time>2018-06-22T14:55:04Z</time>
				</trkpt>
				<trkpt lat="45.216690" lon="2.360770">
					<ele>737</ele>
					<time>2018-06-22T14:56:04Z</time>
				</trkpt>
				<trkpt lat="45.216750" lon="2.360750">
					<ele>737</ele>
					<time>2018-06-22T14:57:04Z</time>
				</trkpt>
				<trkpt lat="45.216760" lon="2.360750">
					<ele>737</ele>
					<time>2018-06-22T14:58:04Z</time>
				</trkpt>
				<trkpt lat="45.216810" lon="2.360730">
					<ele>736</ele>
					<time>2018-06-22T14:59:04Z</time>
				</trkpt>
				<trkpt lat="45.216890" lon="2.360700">
					<ele>736</ele>
					<time>2018-06-22T15:00:04Z</time>
				</trkpt>
				<trkpt lat="45.217090" lon="2.360610">
					<ele>735</ele>
					<time>2018-06-22T15:01:04Z</time>
				</trkpt>
				<trkpt lat="45.217560" lon="2.360400">
					<ele>733</ele>
					<time>2018-06-22T15:02:04Z</time>
				</trkpt>
				<trkpt lat="45.217950" lon="2.360230">
					<ele>733</ele>
					<time>2018-06-22T15:03:04Z</time>
				</trkpt>
				<trkpt lat="45.218100" lon="2.360170">
					<ele>732</ele>
					<time>2018-06-22T15:04:04Z</time>
				</trkpt>
				<trkpt lat="45.218210" lon="2.360140">
					<ele>732</ele>
					<time>2018-06-22T15:05:04Z</time>
				</trkpt>
				<trkpt lat="45.218320" lon="2.360100">
					<ele>732</ele>
					<time>2018-06-22T15:06:04Z</time>
				</trkpt>
				<trkpt lat="45.218560" lon="2.360050">
					<ele>733</ele>
					<time>2018-06-22T15:07:04Z</time>
				</trkpt>
				<trkpt lat="45.218660" lon="2.360020">
					<ele>733</ele>
					<time>2018-06-22T15:08:04Z</time>
				</trkpt>
				<trkpt lat="45.218750" lon="2.360000">
					<ele>733</ele>
					<time>2018-06-22T15:09:04Z</time>
				</trkpt>
				<trkpt lat="45.218850" lon="2.359960">
					<ele>733</ele>
					<time>2018-06-22T15:10:04Z</time>
				</trkpt>
				<trkpt lat="45.219000" lon="2.359900">
					<ele>733</ele>
					<time>2018-06-22T15:11:04Z</time>
				</trkpt>
				<trkpt lat="45.219120" lon="2.359860">
					<ele>733</ele>
					<time>2018-06-22T15:12:04Z</time>
				</trkpt>
				<trkpt lat="45.219200" lon="2.359830">
					<ele>733</ele>
					<time>2018-06-22T15:13:04Z</time>
				</trkpt>
				<trkpt lat="45.219280" lon="2.359820">
					<ele>733</ele>
					<time>2018-06-22T15:14:04Z</time>
				</trkpt>
				<trkpt lat="45.219440" lon="2.359800">
					<ele>733</ele>
					<time>2018-06-22T15:15:04Z</time>
				</trkpt>
				<trkpt lat="45.219710" lon="2.359780">
					<ele>733</ele>
					<time>2018-06-22T15:16:04Z</time>
				</trkpt>
				<trkpt lat="45.219890" lon="2.359760">
					<ele>733</ele>
					<time>2018-06-22T15:17:04Z</time>
				</trkpt>
				<trkpt lat="45.220020" lon="2.359750">
					<ele>732</ele>
					<time>2018-06-22T15:18:04Z</time>
				</trkpt>
				<trkpt lat="45.220120" lon="2.359740">
					<ele>732</ele>
					<time>2018-06-22T15:19:04Z</time>
				</trkpt>
				<trkpt lat="45.220300" lon="2.359700">
					<ele>731</ele>
					<time>2018-06-22T15:20:04Z</time>
				</trkpt>
				<trkpt lat="45.220510" lon="2.359660">
					<ele>730</ele>
					<time>2018-06-22T15:21:04Z</time>
				</trkpt>
				<trkpt lat="45.220730" lon="2.359600">
					<ele>729</ele>
					<time>2018-06-22T15:22:04Z</time>
				</trkpt>
				<trkpt lat="45.220990" lon="2.359530">
					<ele>729</ele>
					<time>2018-06-22T15:23:04Z</time>
				</trkpt>
				<trkpt lat="45.221250" lon="2.359450">
					<ele>728</ele>
					<time>2018-06-22T15:24:04Z</time>
				</trkpt>
				<trkpt lat="45.221380" lon="2.359410">
					<ele>728</ele>
					<time>2018-06-22T15:25:04Z</time>
				</trkpt>
				<trkpt lat="45.221450" lon="2.359370">
					<ele>728</ele>
					<time>2018-06-22T15:26:04Z</time>
				</trkpt>
				<trkpt lat="45.221530" lon="2.359320">
					<ele>727</ele>
					<time>2018-06-22T15:27:04Z</time>
				</trkpt>
				<trkpt lat="45.221680" lon="2.359230">
					<ele>727</ele>
					<time>2018-06-22T15:28:04Z</time>
				</trkpt>
				<trkpt lat="45.222360" lon="2.358790">
					<ele>724</ele>
					<time>2018-06-22T15:29:04Z</time>
				</trkpt>
				<trkpt lat="45.222550" lon="2.358660">
					<ele>723</ele>
					<time>2018-06-22T15:30:04Z</time>
				</trkpt>
				<trkpt lat="45.222640" lon="2.358620">
					<ele>722</ele>
					<time>2018-06-22T15:31:04Z</time>
				</trkpt>
				<trkpt lat="45.222740" lon="2.358590">
					<ele>722</ele>
					<time>2018-06-22T15:32:04Z</time>
				</trkpt>
				<trkpt lat="45.222950" lon="2.358550">
					<ele>720</ele>
					<time>2018-06-22T15:33:04Z</time>
				</trkpt>
				<trkpt lat="45.223220" lon="2.358500">
					<ele>718</ele>
					<time>2018-06-22T15:34:04Z</time>
				</trkpt>
				<trkpt lat="45.223450" lon="2.358440">
					<ele>717</ele>
					<time>2018-06-22T15:35:04Z</time>
				</trkpt>
				<trkpt lat="45.223660" lon="2.358380">
					<ele>715</ele>
					<time>2018-06-22T15:36:04Z</time>
				</trkpt>
				<trkpt lat="45.223780" lon="2.358350">
					<ele>715</ele>
					<time>2018-06-22T15:37:04Z</time>
				</trkpt>
				<trkpt lat="45.223860" lon="2.358320">
					<ele>714</ele>
					<time>2018-06-22T15:38:04Z</time>
				</trkpt>
				<trkpt lat="45.223930" lon="2.358290">
					<ele>714</ele>
					<time>2018-06-22T15:39:04Z</time>
				</trkpt>
				<trkpt lat="45.223980" lon="2.358260">
					<ele>714</ele>
					<time>2018-06-22T15:40:04Z</time>
				</trkpt>
				<trkpt lat="45.224000" lon="2.358260">
					<ele>714</ele>
					<time>2018-06-22T15:41:04Z</time>
				</trkpt>
				<trkpt lat="45.224050" lon="2.358230">
					<ele>714</ele>
					<time>2018-06-22T15:42:04Z</time>
				</trkpt>
				<trkpt lat="45.224090" lon="2.358200">
					<ele>714</ele>
					<time>2018-06-22T15:43:04Z</time>
				</trkpt>
				<trkpt lat="45.224130" lon="2.358170">
					<ele>714</ele>
					<time>2018-06-22T15:44:04Z</time>
				</trkpt>
				<trkpt lat="45.224150" lon="2.358150">
					<ele>714</ele>
					<time>2018-06-22T15:45:04Z</time>
				</trkpt>
				<trkpt lat="45.224170" lon="2.358110">
					<ele>714</ele>
					<time>2018-06-22T15:46:04Z</time>
				</trkpt>
				<trkpt lat="45.224200" lon="2.358070">
					<ele>714</ele>
					<time>2018-06-22T15:47:04Z</time>
				</trkpt>
				<trkpt lat="45.224240" lon="2.357990">
					<ele>715</ele>
					<time>2018-06-22T15:48:04Z</time>
				</trkpt>
				<trkpt lat="45.224320" lon="2.357850">
					<ele>716</ele>
					<time>2018-06-22T15:49:04Z</time>
				</trkpt>
				<trkpt lat="45.224470" lon="2.357570">
					<ele>718</ele>
					<time>2018-06-22T15:50:04Z</time>
				</trkpt>
				<trkpt lat="45.224640" lon="2.357260">
					<ele>720</ele>
					<time>2018-06-22T15:51:04Z</time>
				</trkpt>
				<trkpt lat="45.224780" lon="2.357000">
					<ele>721</ele>
					<time>2018-06-22T15:52:04Z</time>
				</trkpt>
				<trkpt lat="45.224910" lon="2.356750">
					<ele>723</ele>
					<time>2018-06-22T15:53:04Z</time>
				</trkpt>
				<trkpt lat="45.224960" lon="2.356630">
					<ele>724</ele>
					<time>2018-06-22T15:54:04Z</time>
				</trkpt>
				<trkpt lat="45.224990" lon="2.356540">
					<ele>724</ele>
					<time>2018-06-22T15:55:04Z</time>
				</trkpt>
				<trkpt lat="45.225010" lon="2.356450">
					<ele>724</ele>
					<time>2018-06-22T15:56:04Z</time>
				</trkpt>
				<trkpt lat="45.225030" lon="2.356270">
					<ele>724</ele>
					<time>2018-06-22T15:57:04Z</time>
				</trkpt>
				<trkpt lat="45.225060" lon="2.356070">
					<ele>723</ele>
					<time>2018-06-22T15:58:04Z</time>
				</trkpt>
				<trkpt lat="45.225090" lon="2.355940">
					<ele>723</ele>
					<time>2018-06-22T15:59:04Z</time>
				</trkpt>
				<trkpt lat="45.225120" lon="2.355860">
					<ele>723</ele>
					<time>2018-06-22T16:00:04Z</time>
				</trkpt>
				<trkpt lat="45.225160" lon="2.355790">
					<ele>723</ele>
					<time>2018-06-22T16:01:04Z</time>
				</trkpt>
				<trkpt lat="45.225230" lon="2.355720">
					<ele>723</ele>
					<time>2018-06-22T16:02:04Z</time>
				</trkpt>
				<trkpt lat="45.225320" lon="2.355640">
					<ele>722</ele>
					<time>2018-06-22T16:03:04Z</time>
				</trkpt>
				<trkpt lat="45.225550" lon="2.355480">
					<ele>722</ele>
					<time>2018-06-22T16:04:04Z</time>
				</trkpt>
				<trkpt lat="45.225890" lon="2.355250">
					<ele>723</ele>
					<time>2018-06-22T16:05:04Z</time>
				</trkpt>
				<trkpt lat="45.226160" lon="2.355070">
					<ele>723</ele>
					<time>2018-06-22T16:06:04Z</time>
				</trkpt>
				<trkpt lat="45.226220" lon="2.355030">
					<ele>723</ele>
					<time>2018-06-22T16:07:04Z</time>
				</trkpt>
				<trkpt lat="45.226270" lon="2.355020">
					<ele>723</ele>
					<time>2018-06-22T16:08:04Z</time>
				</trkpt>
				<trkpt lat="45.226330" lon="2.355020">
					<ele>723</ele>
					<time>2018-06-22T16:09:04Z</time>
				</trkpt>
				<trkpt lat="45.226330" lon="2.355020">
					<ele>723</ele>
					<time>2018-06-22T16:10:04Z</time>
				</trkpt>
				<trkpt lat="45.226330" lon="2.355140">
					<ele>723</ele>
					<time>2018-06-22T16:11:04Z</time>
				</trkpt>
				<trkpt lat="45.226350" lon="2.355300">
					<ele>723</ele>
					<time>2018-06-22T16:12:04Z</time>
				</trkpt>
				<trkpt lat="45.226380" lon="2.355450">
					<ele>724</ele>
					<time>2018-06-22T16:13:04Z</time>
				</trkpt>
				<trkpt lat="45.226390" lon="2.355500">
					<ele>724</ele>
					<time>2018-06-22T16:14:04Z</time>
				</trkpt>
				<trkpt lat="45.226400" lon="2.355540">
					<ele>724</ele>
					<time>2018-06-22T16:15:04Z</time>
				</trkpt>
				<trkpt lat="45.226440" lon="2.355600">
					<ele>724</ele>
					<time>2018-06-22T16:16:04Z</time>
				</trkpt>
				<trkpt lat="45.226470" lon="2.355670">
					<ele>724</ele>
					<time>2018-06-22T16:17:04Z</time>
				</trkpt>
				<trkpt lat="45.226540" lon="2.355780">
					<ele>725</ele>
					<time>2018-06-22T16:18:04Z</time>
				</trkpt>
				<trkpt lat="45.226740" lon="2.356100">
					<ele>726</ele>
					<time>2018-06-22T16:19:04Z</time>
				</trkpt>
				<trkpt lat="45.227040" lon="2.356680">
					<ele>728</ele>
					<time>2018-06-22T16:20:04Z</time>
				</trkpt>
				<trkpt lat="45.227240" lon="2.357130">
					<ele>731</ele>
					<time>2018-06-22T16:21:04Z</time>
				</trkpt>
				<trkpt lat="45.227360" lon="2.357420">
					<ele>732</ele>
					<time>2018-06-22T16:22:04Z</time>
				</trkpt>
				<trkpt lat="45.227410" lon="2.357550">
					<ele>733</ele>
					<time>2018-06-22T16:23:04Z</time>
				</trkpt>
				<trkpt lat="45.227610" lon="2.358100">
					<ele>735</ele>
					<time>2018-06-22T16:24:04Z</time>
				</trkpt>
				<trkpt lat="45.227790" lon="2.358520">
					<ele>737</ele>
					<time>2018-06-22T16:25:04Z</time>
				</trkpt>
				<trkpt lat="45.227870" lon="2.358720">
					<ele>737</ele>
					<time>2018-06-22T16:26:04Z</time>
				</trkpt>
				<trkpt lat="45.228280" lon="2.359720">
					<ele>740</ele>
					<time>2018-06-22T16:27:04Z</time>
				</trkpt>
				<trkpt lat="45.228610" lon="2.360480">
					<ele>740</ele>
					<time>2018-06-22T16:28:04Z</time>
				</trkpt>
				<trkpt lat="45.228840" lon="2.361010">
					<ele>741</ele>
					<time>2018-06-22T16:29:04Z</time>
				</trkpt>
				<trkpt lat="45.228960" lon="2.361250">
					<ele>742</ele>
					<time>2018-06-22T16:30:04Z</time>
				</trkpt>
				<trkpt lat="45.229200" lon="2.361700">
					<ele>743</ele>
					<time>2018-06-22T16:31:04Z</time>
				</trkpt>
				<trkpt lat="45.229250" lon="2.361790">
					<ele>743</ele>
					<time>2018-06-22T16:32:04Z</time>
				</trkpt>
				<trkpt lat="45.229290" lon="2.361850">
					<ele>742</ele>
					<time>2018-06-22T16:33:04Z</time>
				</trkpt>
				<trkpt lat="45.229620" lon="2.362470">
					<ele>741</ele>
					<time>2018-06-22T16:34:04Z</time>
				</trkpt>
				<trkpt lat="45.229910" lon="2.363010">
					<ele>740</ele>
					<time>2018-06-22T16:35:04Z</time>
				</trkpt>
				<trkpt lat="45.230240" lon="2.363590">
					<ele>740</ele>
					<time>2018-06-22T16:36:04Z</time>
				</trkpt>
				<trkpt lat="45.230560" lon="2.364190">
					<ele>739</ele>
					<time>2018-06-22T16:37:04Z</time>
				</trkpt>
				<trkpt lat="45.230900" lon="2.364780">
					<ele>737</ele>
					<time>2018-06-22T16:38:04Z</time>
				</trkpt>
				<trkpt lat="45.231260" lon="2.365430">
					<ele>736</ele>
					<time>2018-06-22T16:39:04Z</time>
				</trkpt>
				<trkpt lat="45.231540" lon="2.365950">
					<ele>736</ele>
					<time>2018-06-22T16:40:04Z</time>
				</trkpt>
				<trkpt lat="45.231960" lon="2.366720">
					<ele>738</ele>
					<time>2018-06-22T16:41:04Z</time>
				</trkpt>
				<trkpt lat="45.232320" lon="2.367380">
					<ele>738</ele>
					<time>2018-06-22T16:42:04Z</time>
				</trkpt>
				<trkpt lat="45.232720" lon="2.368130">
					<ele>740</ele>
					<time>2018-06-22T16:43:04Z</time>
				</trkpt>
				<trkpt lat="45.233100" lon="2.368820">
					<ele>741</ele>
					<time>2018-06-22T16:44:04Z</time>
				</trkpt>
				<trkpt lat="45.233230" lon="2.369050">
					<ele>742</ele>
					<time>2018-06-22T16:45:04Z</time>
				</trkpt>
				<trkpt lat="45.233380" lon="2.369330">
					<ele>742</ele>
					<time>2018-06-22T16:46:04Z</time>
				</trkpt>
				<trkpt lat="45.233670" lon="2.369890">
					<ele>743</ele>
					<time>2018-06-22T16:47:04Z</time>
				</trkpt>
				<trkpt lat="45.233710" lon="2.369980">
					<ele>743</ele>
					<time>2018-06-22T16:48:04Z</time>
				</trkpt>
				<trkpt lat="45.233770" lon="2.370100">
					<ele>743</ele>
					<time>2018-06-22T16:49:04Z</time>
				</trkpt>
				<trkpt lat="45.233820" lon="2.370270">
					<ele>743</ele>
					<time>2018-06-22T16:50:04Z</time>
				</trkpt>
				<trkpt lat="45.233870" lon="2.370490">
					<ele>743</ele>
					<time>2018-06-22T16:51:04Z</time>
				</trkpt>
				<trkpt lat="45.233920" lon="2.370750">
					<ele>743</ele>
					<time>2018-06-22T16:52:04Z</time>
				</trkpt>
				<trkpt lat="45.234040" lon="2.371390">
					<ele>743</ele>
					<time>2018-06-22T16:53:04Z</time>
				</trkpt>
				<trkpt lat="45.234250" lon="2.372490">
					<ele>742</ele>
					<time>2018-06-22T16:54:04Z</time>
				</trkpt>
				<trkpt lat="45.234470" lon="2.373600">
					<ele>741</ele>
					<time>2018-06-22T16:55:04Z</time>
				</trkpt>
				<trkpt lat="45.234830" lon="2.375460">
					<ele>741</ele>
					<time>2018-06-22T16:56:04Z</time>
				</trkpt>
				<trkpt lat="45.234920" lon="2.375940">
					<ele>741</ele>
					<time>2018-06-22T16:57:04Z</time>
				</trkpt>
				<trkpt lat="45.234990" lon="2.376280">
					<ele>741</ele>
					<time>2018-06-22T16:58:04Z</time>
				</trkpt>
				<trkpt lat="45.235070" lon="2.376760">
					<ele>742</ele>
					<time>2018-06-22T16:59:04Z</time>
				</trkpt>
				<trkpt lat="45.235200" lon="2.377400">
					<ele>743</ele>
					<time>2018-06-22T17:00:04Z</time>
				</trkpt>
				<trkpt lat="45.235290" lon="2.377880">
					<ele>744</ele>
					<time>2018-06-22T17:01:04Z</time>
				</trkpt>
				<trkpt lat="45.235390" lon="2.378390">
					<ele>744</ele>
					<time>2018-06-22T17:02:04Z</time>
				</trkpt>
				<trkpt lat="45.235470" lon="2.378800">
					<ele>745</ele>
					<time>2018-06-22T17:03:04Z</time>
				</trkpt>
				<trkpt lat="45.235500" lon="2.378970">
					<ele>745</ele>
					<time>2018-06-22T17:04:04Z</time>
				</trkpt>
				<trkpt lat="45.235610" lon="2.379550">
					<ele>744</ele>
					<time>2018-06-22T17:05:04Z</time>
				</trkpt>
				<trkpt lat="45.235700" lon="2.380010">
					<ele>744</ele>
					<time>2018-06-22T17:06:04Z</time>
				</trkpt>
				<trkpt lat="45.235830" lon="2.380680">
					<ele>743</ele>
					<time>2018-06-22T17:07:04Z</time>
				</trkpt>
				<trkpt lat="45.235900" lon="2.381050">
					<ele>743</ele>
					<time>2018-06-22T17:08:04Z</time>
				</trkpt>
				<trkpt lat="45.235940" lon="2.381290">
					<ele>743</ele>
					<time>2018-06-22T17:09:04Z</time>
				</trkpt>
				<trkpt lat="45.235950" lon="2.381550">
					<ele>743</ele>
					<time>2018-06-22T17:10:04Z</time>
				</trkpt>
				<trkpt lat="45.235960" lon="2.381760">
					<ele>743</ele>
					<time>2018-06-22T17:11:04Z</time>
				</trkpt>
				<trkpt lat="45.235950" lon="2.382040">
					<ele>743</ele>
					<time>2018-06-22T17:12:04Z</time>
				</trkpt>
				<trkpt lat="45.235930" lon="2.382320">
					<ele>743</ele>
					<time>2018-06-22T17:13:04Z</time>
				</trkpt>
				<trkpt lat="45.235930" lon="2.382520">
					<ele>742</ele>
					<time>2018-06-22T17:14:04Z</time>
				</trkpt>
				<trkpt lat="45.235930" lon="2.382640">
					<ele>742</ele>
					<time>2018-06-22T17:15:04Z</time>
				</trkpt>
				<trkpt lat="45.235950" lon="2.382750">
					<ele>742</ele>
					<time>2018-06-22T17:16:04Z</time>
				</trkpt>
				<trkpt lat="45.235960" lon="2.382840">
					<ele>742</ele>
					<time>2018-06-22T17:17:04Z</time>
				</trkpt>
				<trkpt lat="45.235990" lon="2.382940">
					<ele>742</ele>
					<time>2018-06-22T17:18:04Z</time>
				</trkpt>
				<trkpt lat="45.236060" lon="2.383120">
					<ele>742</ele>
					<time>2018-06-22T17:19:04Z</time>
				</trkpt>
				<trkpt lat="45.236210" lon="2.383380">
					<ele>741</ele>
					<time>2018-06-22T17:20:04Z</time>
				</trkpt>
				<trkpt lat="45.236330" lon="2.383630">
					<ele>740</ele>
					<time>2018-06-22T17:21:04Z</time>
				</trkpt>
				<trkpt lat="45.236490" lon="2.383980">
					<ele>740</ele>
					<time>2018-06-22T17:22:04Z</time>
				</trkpt>
				<trkpt lat="45.236620" lon="2.384230">
					<ele>739</ele>
					<time>2018-06-22T17:23:04Z</time>
				</trkpt>
				<trkpt lat="45.236690" lon="2.384370">
					<ele>739</ele>
					<time>2018-06-22T17:24:04Z</time>
				</trkpt>
				<trkpt lat="45.236840" lon="2.384680">
					<ele>740</ele>
					<time>2018-06-22T17:25:04Z</time>
				</trkpt>
				<trkpt lat="45.237130" lon="2.385290">
					<ele>741</ele>
					<time>2018-06-22T17:26:04Z</time>
				</trkpt>
				<trkpt lat="45.237280" lon="2.385590">
					<ele>741</ele>
					<time>2018-06-22T17:27:04Z</time>
				</trkpt>
				<trkpt lat="45.237300" lon="2.385650">
					<ele>741</ele>
					<time>2018-06-22T17:28:04Z</time>
				</trkpt>
				<trkpt lat="45.237410" lon="2.385930">
					<ele>740</ele>
					<time>2018-06-22T17:29:04Z</time>
				</trkpt>
				<trkpt lat="45.237450" lon="2.386060">
					<ele>740</ele>
					<time>2018-06-22T17:30:04Z</time>
				</trkpt>
				<trkpt lat="45.237530" lon="2.386280">
					<ele>739</ele>
					<time>2018-06-22T17:31:04Z</time>
				</trkpt>
				<trkpt lat="45.237630" lon="2.386580">
					<ele>738</ele>
					<time>2018-06-22T17:32:04Z</time>
				</trkpt>
				<trkpt lat="45.237710" lon="2.386820">
					<ele>737</ele>
					<time>2018-06-22T17:33:04Z</time>
				</trkpt>
				<trkpt lat="45.237780" lon="2.387070">
					<ele>736</ele>
					<time>2018-06-22T17:34:04Z</time>
				</trkpt>
				<trkpt lat="45.237900" lon="2.387570">
					<ele>735</ele>
					<time>2018-06-22T17:35:04Z</time>
				</trkpt>
				<trkpt lat="45.237990" lon="2.388010">
					<ele>735</ele>
					<time>2018-06-22T17:36:04Z</time>
				</trkpt>
				<trkpt lat="45.238000" lon="2.388160">
					<ele>736</ele>
					<time>2018-06-22T17:37:04Z</time>
				</trkpt>
				<trkpt lat="45.238010" lon="2.388300">
					<ele>736</ele>
					<time>2018-06-22T17:38:04Z</time>
				</trkpt>
				<trkpt lat="45.237990" lon="2.388460">
					<ele>736</ele>
					<time>2018-06-22T17:39:04Z</time>
				</trkpt>
				<trkpt lat="45.237970" lon="2.388600">
					<ele>736</ele>
					<time>2018-06-22T17:40:04Z</time>
				</trkpt>
				<trkpt lat="45.237930" lon="2.388740">
					<ele>737</ele>
					<time>2018-06-22T17:41:04Z</time>
				</trkpt>
				<trkpt lat="45.237850" lon="2.388970">
					<ele>737</ele>
					<time>2018-06-22T17:42:04Z</time>
				</trkpt>
				<trkpt lat="45.237640" lon="2.389410">
					<ele>738</ele>
					<time>2018-06-22T17:43:04Z</time>
				</trkpt>
				<trkpt lat="45.237420" lon="2.389700">
					<ele>739</ele>
					<time>2018-06-22T17:44:04Z</time>
				</trkpt>
				<trkpt lat="45.237190" lon="2.390040">
					<ele>740</ele>
					<time>2018-06-22T17:45:04Z</time>
				</trkpt>
				<trkpt lat="45.236940" lon="2.390390">
					<ele>741</ele>
					<time>2018-06-22T17:46:04Z</time>
				</trkpt>
				<trkpt lat="45.236820" lon="2.390590">
					<ele>741</ele>
					<time>2018-06-22T17:47:04Z</time>
				</trkpt>
				<trkpt lat="45.236750" lon="2.390740">
					<ele>741</ele>
					<time>2018-06-22T17:48:04Z</time>
				</trkpt>
				<trkpt lat="45.236680" lon="2.390910">
					<ele>740</ele>
					<time>2018-06-22T17:49:04Z</time>
				</trkpt>
				<trkpt lat="45.236600" lon="2.391200">
					<ele>740</ele>
					<time>2018-06-22T17:50:04Z</time>
				</trkpt>
				<trkpt lat="45.236520" lon="2.391560">
					<ele>738</ele>
					<time>2018-06-22T17:51:04Z</time>
				</trkpt>
				<trkpt lat="45.236450" lon="2.391890">
					<ele>738</ele>
					<time>2018-06-22T17:52:04Z</time>
				</trkpt>
				<trkpt lat="45.236400" lon="2.392200">
					<ele>737</ele>
					<time>2018-06-22T17:53:04Z</time>
				</trkpt>
				<trkpt lat="45.236370" lon="2.392500">
					<ele>736</ele>
					<time>2018-06-22T17:54:04Z</time>
				</trkpt>
				<trkpt lat="45.236340" lon="2.392790">
					<ele>737</ele>
					<time>2018-06-22T17:55:04Z</time>
				</trkpt>
				<trkpt lat="45.236320" lon="2.393100">
					<ele>736</ele>
					<time>2018-06-22T17:56:04Z</time>
				</trkpt>
				<trkpt lat="45.236300" lon="2.393220">
					<ele>736</ele>
					<time>2018-06-22T17:57:04Z</time>
				</trkpt>
				<trkpt lat="45.236310" lon="2.393380">
					<ele>736</ele>
					<time>2018-06-22T17:58:04Z</time>
				</trkpt>
				<trkpt lat="45.236290" lon="2.393480">
					<ele>736</ele>
					<time>2018-06-22T17:59:04Z</time>
				</trkpt>
				<trkpt lat="45.236230" lon="2.393580">
					<ele>736</ele>
					<time>2018-06-22T18:00:04Z</time>
				</trkpt>
				<trkpt lat="45.236170" lon="2.393630">
					<ele>736</ele>
					<time>2018-06-22T18:01:04Z</time>
				</trkpt>
				<trkpt lat="45.236050" lon="2.393700">
					<ele>736</ele>
					<time>2018-06-22T18:02:04Z</time>
				</trkpt>
				<trkpt lat="45.236000" lon="2.393720">
					<ele>736</ele>
					<time>2018-06-22T18:03:04Z</time>
				</trkpt>
				<trkpt lat="45.235950" lon="2.393750">
					<ele>736</ele>
					<time>2018-06-22T18:04:04Z</time>
				</trkpt>
				<trkpt lat="45.235910" lon="2.393770">
					<ele>736</ele>
					<time>2018-06-22T18:05:04Z</time>
				</trkpt>
				<trkpt lat="45.235860" lon="2.393810">
					<ele>735</ele>
					<time>2018-06-22T18:06:04Z</time>
				</trkpt>
				<trkpt lat="45.235820" lon="2.393840">
					<ele>735</ele>
					<time>2018-06-22T18:07:04Z</time>
				</trkpt>
				<trkpt lat="45.235770" lon="2.393870">
					<ele>735</ele>
					<time>2018-06-22T18:08:04Z</time>
				</trkpt>
				<trkpt lat="45.235730" lon="2.393930">
					<ele>735</ele>
					<time>2018-06-22T18:09:04Z</time>
				</trkpt>
				<trkpt lat="45.235680" lon="2.394050">
					<ele>735</ele>
					<time>2018-06-22T18:10:04Z</time>
				</trkpt>
				<trkpt lat="45.235650" lon="2.394170">
					<ele>734</ele>
					<time>2018-06-22T18:11:04Z</time>
				</trkpt>
				<trkpt lat="45.235640" lon="2.394320">
					<ele>734</ele>
					<time>2018-06-22T18:12:04Z</time>
				</trkpt>
				<trkpt lat="45.235640" lon="2.394460">
					<ele>733</ele>
					<time>2018-06-22T18:13:04Z</time>
				</trkpt>
				<trkpt lat="45.235660" lon="2.394650">
					<ele>732</ele>
					<time>2018-06-22T18:14:04Z</time>
				</trkpt>
				<trkpt lat="45.235660" lon="2.394770">
					<ele>732</ele>
					<time>2018-06-22T18:15:04Z</time>
				</trkpt>
				<trkpt lat="45.235630" lon="2.394950">
					<ele>731</ele>
					<time>2018-06-22T18:16:04Z</time>
				</trkpt>
				<trkpt lat="45.235590" lon="2.395090">
					<ele>730</ele>
					<time>2018-06-22T18:17:04Z</time>
				</trkpt>
				<trkpt lat="45.235520" lon="2.395260">
					<ele>728</ele>
					<time>2018-06-22T18:18:04Z</time>
				</trkpt>
				<trkpt lat="45.235430" lon="2.395420">
					<ele>726</ele>
					<time>2018-06-22T18:19:04Z</time>
				</trkpt>
				<trkpt lat="45.235170" lon="2.395830">
					<ele>723</ele>
					<time>2018-06-22T18:20:04Z</time>
				</trkpt>
				<trkpt lat="45.234860" lon="2.396310">
					<ele>720</ele>
					<time>2018-06-22T18:21:04Z</time>
				</trkpt>
				<trkpt lat="45.234530" lon="2.396810">
					<ele>718</ele>
					<time>2018-06-22T18:22:04Z</time>
				</trkpt>
				<trkpt lat="45.234170" lon="2.397350">
					<ele>716</ele>
					<time>2018-06-22T18:23:04Z</time>
				</trkpt>
				<trkpt lat="45.233870" lon="2.397820">
					<ele>716</ele>
					<time>2018-06-22T18:24:04Z</time>
				</trkpt>
				<trkpt lat="45.233500" lon="2.398390">
					<ele>716</ele>
					<time>2018-06-22T18:25:04Z</time>
				</trkpt>
				<trkpt lat="45.233350" lon="2.398670">
					<ele>716</ele>
					<time>2018-06-22T18:26:04Z</time>
				</trkpt>
				<trkpt lat="45.233240" lon="2.398860">
					<ele>714</ele>
					<time>2018-06-22T18:27:04Z</time>
				</trkpt>
				<trkpt lat="45.233180" lon="2.399000">
					<ele>713</ele>
					<time>2018-06-22T18:28:04Z</time>
				</trkpt>
				<trkpt lat="45.233140" lon="2.399130">
					<ele>712</ele>
					<time>2018-06-22T18:29:04Z</time>
				</trkpt>
				<trkpt lat="45.233090" lon="2.399280">
					<ele>711</ele>
					<time>2018-06-22T18:30:04Z</time>
				</trkpt>
				<trkpt lat="45.233030" lon="2.399510">
					<ele>708</ele>
					<time>2018-06-22T18:31:04Z</time>
				</trkpt>
				<trkpt lat="45.232950" lon="2.399860">
					<ele>705</ele>
					<time>2018-06-22T18:32:04Z</time>
				</trkpt>
				<trkpt lat="45.232910" lon="2.400090">
					<ele>703</ele>
					<time>2018-06-22T18:33:04Z</time>
				</trkpt>
				<trkpt lat="45.232860" lon="2.400330">
					<ele>701</ele>
					<time>2018-06-22T18:34:04Z</time>
				</trkpt>
				<trkpt lat="45.232750" lon="2.400850">
					<ele>697</ele>
					<time>2018-06-22T18:35:04Z</time>
				</trkpt>
				<trkpt lat="45.232650" lon="2.401390">
					<ele>694</ele>
					<time>2018-06-22T18:36:04Z</time>
				</trkpt>
				<trkpt lat="45.232630" lon="2.401540">
					<ele>693</ele>
					<time>2018-06-22T18:37:04Z</time>
				</trkpt>
				<trkpt lat="45.232620" lon="2.401670">
					<ele>692</ele>
					<time>2018-06-22T18:38:04Z</time>
				</trkpt>
				<trkpt lat="45.232620" lon="2.401810">
					<ele>692</ele>
					<time>2018-06-22T18:39:04Z</time>
				</trkpt>
				<trkpt lat="45.232630" lon="2.401970">
					<ele>691</ele>
					<time>2018-06-22T18:40:04Z</time>
				</trkpt>
				<trkpt lat="45.232650" lon="2.402120">
					<ele>690</ele>
					<time>2018-06-22T18:41:04Z</time>
				</trkpt>
				<trkpt lat="45.232670" lon="2.402260">
					<ele>689</ele>
					<time>2018-06-22T18:42:04Z</time>
				</trkpt>
				<trkpt lat="45.232740" lon="2.402590">
					<ele>687</ele>
					<time>2018-06-22T18:43:04Z</time>
				</trkpt>
				<trkpt lat="45.232840" lon="2.403040">
					<ele>685</ele>
					<time>2018-06-22T18:44:04Z</time>
				</trkpt>
				<trkpt lat="45.232880" lon="2.403290">
					<ele>684</ele>
					<time>2018-06-22T18:45:04Z</time>
				</trkpt>
				<trkpt lat="45.232910" lon="2.403520">
					<ele>683</ele>
					<time>2018-06-22T18:46:04Z</time>
				</trkpt>
				<trkpt lat="45.232930" lon="2.403690">
					<ele>681</ele>
					<time>2018-06-22T18:47:04Z</time>
				</trkpt>
				<trkpt lat="45.232940" lon="2.403860">
					<ele>680</ele>
					<time>2018-06-22T18:48:04Z</time>
				</trkpt>
				<trkpt lat="45.232930" lon="2.404030">
					<ele>679</ele>
					<time>2018-06-22T18:49:04Z</time>
				</trkpt>
				<trkpt lat="45.232910" lon="2.404250">
					<ele>678</ele>
					<time>2018-06-22T18:50:04Z</time>
				</trkpt>
				<trkpt lat="45.232870" lon="2.404460">
					<ele>677</ele>
					<time>2018-06-22T18:51:04Z</time>
				</trkpt>
				<trkpt lat="45.232810" lon="2.404650">
					<ele>676</ele>
					<time>2018-06-22T18:52:04Z</time>
				</trkpt>
				<trkpt lat="45.232740" lon="2.404850">
					<ele>676</ele>
					<time>2018-06-22T18:53:04Z</time>
				</trkpt>
				<trkpt lat="45.232650" lon="2.405040">
					<ele>676</ele>
					<time>2018-06-22T18:54:04Z</time>
				</trkpt>
				<trkpt lat="45.232540" lon="2.405190">
					<ele>676</ele>
					<time>2018-06-22T18:55:04Z</time>
				</trkpt>
				<trkpt lat="45.232450" lon="2.405310">
					<ele>676</ele>
					<time>2018-06-22T18:56:04Z</time>
				</trkpt>
				<trkpt lat="45.232380" lon="2.405390">
					<ele>676</ele>
					<time>2018-06-22T18:57:04Z</time>
				</trkpt>
				<trkpt lat="45.232290" lon="2.405480">
					<ele>676</ele>
					<time>2018-06-22T18:58:04Z</time>
				</trkpt>
				<trkpt lat="45.232180" lon="2.405570">
					<ele>676</ele>
					<time>2018-06-22T18:59:04Z</time>
				</trkpt>
				<trkpt lat="45.231930" lon="2.405790">
					<ele>676</ele>
					<time>2018-06-22T19:00:04Z</time>
				</trkpt>
				<trkpt lat="45.231770" lon="2.405940">
					<ele>676</ele>
					<time>2018-06-22T19:01:04Z</time>
				</trkpt>
				<trkpt lat="45.231650" lon="2.406070">
					<ele>676</ele>
					<time>2018-06-22T19:02:04Z</time>
				</trkpt>
				<trkpt lat="45.231540" lon="2.406240">
					<ele>675</ele>
					<time>2018-06-22T19:03:04Z</time>
				</trkpt>
				<trkpt lat="45.231430" lon="2.406410">
					<ele>674</ele>
					<time>2018-06-22T19:04:04Z</time>
				</trkpt>
				<trkpt lat="45.231320" lon="2.406610">
					<ele>674</ele>
					<time>2018-06-22T19:05:04Z</time>
				</trkpt>
				<trkpt lat="45.231180" lon="2.406900">
					<ele>673</ele>
					<time>2018-06-22T19:06:04Z</time>
				</trkpt>
				<trkpt lat="45.231020" lon="2.407240">
					<ele>672</ele>
					<time>2018-06-22T19:07:04Z</time>
				</trkpt>
				<trkpt lat="45.230810" lon="2.407660">
					<ele>670</ele>
					<time>2018-06-22T19:08:04Z</time>
				</trkpt>
				<trkpt lat="45.230600" lon="2.408120">
					<ele>662</ele>
					<time>2018-06-22T19:09:04Z</time>
				</trkpt>
				<trkpt lat="45.230470" lon="2.408460">
					<ele>658</ele>
					<time>2018-06-22T19:10:04Z</time>
				</trkpt>
				<trkpt lat="45.230380" lon="2.408710">
					<ele>656</ele>
					<time>2018-06-22T19:11:04Z</time>
				</trkpt>
				<trkpt lat="45.230280" lon="2.408960">
					<ele>654</ele>
					<time>2018-06-22T19:12:04Z</time>
				</trkpt>
				<trkpt lat="45.230110" lon="2.409450">
					<ele>651</ele>
					<time>2018-06-22T19:13:04Z</time>
				</trkpt>
				<trkpt lat="45.229920" lon="2.409960">
					<ele>648</ele>
					<time>2018-06-22T19:14:04Z</time>
				</trkpt>
				<trkpt lat="45.229700" lon="2.410540">
					<ele>645</ele>
					<time>2018-06-22T19:15:04Z</time>
				</trkpt>
				<trkpt lat="45.229530" lon="2.411020">
					<ele>643</ele>
					<time>2018-06-22T19:16:04Z</time>
				</trkpt>
				<trkpt lat="45.229420" lon="2.411350">
					<ele>642</ele>
					<time>2018-06-22T19:17:04Z</time>
				</trkpt>
				<trkpt lat="45.229380" lon="2.411510">
					<ele>641</ele>
					<time>2018-06-22T19:18:04Z</time>
				</trkpt>
				<trkpt lat="45.229360" lon="2.411660">
					<ele>640</ele>
					<time>2018-06-22T19:19:04Z</time>
				</trkpt>
				<trkpt lat="45.229350" lon="2.411830">
					<ele>640</ele>
					<time>2018-06-22T19:20:04Z</time>
				</trkpt>
				<trkpt lat="45.229350" lon="2.412060">
					<ele>639</ele>
					<time>2018-06-22T19:21:04Z</time>
				</trkpt>
				<trkpt lat="45.229350" lon="2.412350">
					<ele>639</ele>
					<time>2018-06-22T19:22:04Z</time>
				</trkpt>
				<trkpt lat="45.229370" lon="2.412690">
					<ele>637</ele>
					<time>2018-06-22T19:23:04Z</time>
				</trkpt>
				<trkpt lat="45.229390" lon="2.413010">
					<ele>635</ele>
					<time>2018-06-22T19:24:04Z</time>
				</trkpt>
				<trkpt lat="45.229400" lon="2.413240">
					<ele>634</ele>
					<time>2018-06-22T19:25:04Z</time>
				</trkpt>
				<trkpt lat="45.229400" lon="2.413420">
					<ele>633</ele>
					<time>2018-06-22T19:26:04Z</time>
				</trkpt>
				<trkpt lat="45.229400" lon="2.413620">
					<ele>632</ele>
					<time>2018-06-22T19:27:04Z</time>
				</trkpt>
				<trkpt lat="45.229370" lon="2.413970">
					<ele>630</ele>
					<time>2018-06-22T19:28:04Z</time>
				</trkpt>
				<trkpt lat="45.229330" lon="2.414540">
					<ele>626</ele>
					<time>2018-06-22T19:29:04Z</time>
				</trkpt>
				<trkpt lat="45.229290" lon="2.415110">
					<ele>623</ele>
					<time>2018-06-22T19:30:04Z</time>
				</trkpt>
				<trkpt lat="45.229250" lon="2.415500">
					<ele>624</ele>
					<time>2018-06-22T19:31:04Z</time>
				</trkpt>
				<trkpt lat="45.229200" lon="2.415920">
					<ele>625</ele>
					<time>2018-06-22T19:32:04Z</time>
				</trkpt>
				<trkpt lat="45.229170" lon="2.416080">
					<ele>624</ele>
					<time>2018-06-22T19:33:04Z</time>
				</trkpt>
				<trkpt lat="45.229140" lon="2.416290">
					<ele>624</ele>
					<time>2018-06-22T19:34:04Z</time>
				</trkpt>
				<trkpt lat="45.229100" lon="2.416630">
					<ele>623</ele>
					<time>2018-06-22T19:35:04Z</time>
				</trkpt>
				<trkpt lat="45.229070" lon="2.416880">
					<ele>622</ele>
					<time>2018-06-22T19:36:04Z</time>
				</trkpt>
				<trkpt lat="45.229070" lon="2.417000">
					<ele>621</ele>
					<time>2018-06-22T19:37:04Z</time>
				</trkpt>
				<trkpt lat="45.229070" lon="2.417090">
					<ele>620</ele>
					<time>2018-06-22T19:38:04Z</time>
				</trkpt>
				<trkpt lat="45.229080" lon="2.417170">
					<ele>619</ele>
					<time>2018-06-22T19:39:04Z</time>
				</trkpt>
				<trkpt lat="45.229120" lon="2.417300">
					<ele>617</ele>
					<time>2018-06-22T19:40:04Z</time>
				</trkpt>
				<trkpt lat="45.229160" lon="2.417390">
					<ele>615</ele>
					<time>2018-06-22T19:41:04Z</time>
				</trkpt>
				<trkpt lat="45.229210" lon="2.417460">
					<ele>614</ele>
					<time>2018-06-22T19:42:04Z</time>
				</trkpt>
				<trkpt lat="45.229290" lon="2.417540">
					<ele>614</ele>
					<time>2018-06-22T19:43:04Z</time>
				</trkpt>
				<trkpt lat="45.229380" lon="2.417590">
					<ele>614</ele>
					<time>2018-06-22T19:44:04Z</time>
				</trkpt>
				<trkpt lat="45.229480" lon="2.417620">
					<ele>614</ele>
					<time>2018-06-22T19:45:04Z</time>
				</trkpt>
				<trkpt lat="45.229520" lon="2.417620">
					<ele>613</ele>
					<time>2018-06-22T19:46:04Z</time>
				</trkpt>
				<trkpt lat="45.229560" lon="2.417610">
					<ele>613</ele>
					<time>2018-06-22T19:47:04Z</time>
				</trkpt>
				<trkpt lat="45.229620" lon="2.417590">
					<ele>613</ele>
					<time>2018-06-22T19:48:04Z</time>
				</trkpt>
				<trkpt lat="45.229670" lon="2.417560">
					<ele>612</ele>
					<time>2018-06-22T19:49:04Z</time>
				</trkpt>
				<trkpt lat="45.229750" lon="2.417490">
					<ele>611</ele>
					<time>2018-06-22T19:50:04Z</time>
				</trkpt>
				<trkpt lat="45.229820" lon="2.417410">
					<ele>611</ele>
					<time>2018-06-22T19:51:04Z</time>
				</trkpt>
				<trkpt lat="45.229890" lon="2.417280">
					<ele>610</ele>
					<time>2018-06-22T19:52:04Z</time>
				</trkpt>
				<trkpt lat="45.229950" lon="2.417130">
					<ele>608</ele>
					<time>2018-06-22T19:53:04Z</time>
				</trkpt>
				<trkpt lat="45.230060" lon="2.416850">
					<ele>606</ele>
					<time>2018-06-22T19:54:04Z</time>
				</trkpt>
				<trkpt lat="45.230140" lon="2.416710">
					<ele>604</ele>
					<time>2018-06-22T19:55:04Z</time>
				</trkpt>
				<trkpt lat="45.230230" lon="2.416550">
					<ele>602</ele>
					<time>2018-06-22T19:56:04Z</time>
				</trkpt>
				<trkpt lat="45.230280" lon="2.416510">
					<ele>601</ele>
					<time>2018-06-22T19:57:04Z</time>
				</trkpt>
				<trkpt lat="45.230360" lon="2.416430">
					<ele>600</ele>
					<time>2018-06-22T19:58:04Z</time>
				</trkpt>
				<trkpt lat="45.230440" lon="2.416380">
					<ele>598</ele>
					<time>2018-06-22T19:59:04Z</time>
				</trkpt>
				<trkpt lat="45.230520" lon="2.416340">
					<ele>597</ele>
					<time>2018-06-22T20:00:04Z</time>
				</trkpt>
				<trkpt lat="45.230630" lon="2.416320">
					<ele>595</ele>
					<time>2018-06-22T20:01:04Z</time>
				</trkpt>
				<trkpt lat="45.230740" lon="2.416320">
					<ele>593</ele>
					<time>2018-06-22T20:02:04Z</time>
				</trkpt>
				<trkpt lat="45.230860" lon="2.416350">
					<ele>592</ele>
					<time>2018-06-22T20:03:04Z</time>
				</trkpt>
				<trkpt lat="45.230980" lon="2.416390">
					<ele>590</ele>
					<time>2018-06-22T20:04:04Z</time>
				</trkpt>
				<trkpt lat="45.231090" lon="2.416490">
					<ele>589</ele>
					<time>2018-06-22T20:05:04Z</time>
				</trkpt>
				<trkpt lat="45.231170" lon="2.416580">
					<ele>588</ele>
					<time>2018-06-22T20:06:04Z</time>
				</trkpt>
				<trkpt lat="45.231260" lon="2.416740">
					<ele>587</ele>
					<time>2018-06-22T20:07:04Z</time>
				</trkpt>
				<trkpt lat="45.231320" lon="2.416880">
					<ele>585</ele>
					<time>2018-06-22T20:08:04Z</time>
				</trkpt>
				<trkpt lat="45.231370" lon="2.417060">
					<ele>583</ele>
					<time>2018-06-22T20:09:04Z</time>
				</trkpt>
				<trkpt lat="45.231380" lon="2.417260">
					<ele>582</ele>
					<time>2018-06-22T20:10:04Z</time>
				</trkpt>
				<trkpt lat="45.231380" lon="2.417390">
					<ele>582</ele>
					<time>2018-06-22T20:11:04Z</time>
				</trkpt>
				<trkpt lat="45.231350" lon="2.417590">
					<ele>581</ele>
					<time>2018-06-22T20:12:04Z</time>
				</trkpt>
				<trkpt lat="45.231300" lon="2.417750">
					<ele>581</ele>
					<time>2018-06-22T20:13:04Z</time>
				</trkpt>
				<trkpt lat="45.231210" lon="2.417920">
					<ele>582</ele>
					<time>2018-06-22T20:14:04Z</time>
				</trkpt>
				<trkpt lat="45.231070" lon="2.418100">
					<ele>585</ele>
					<time>2018-06-22T20:15:04Z</time>
				</trkpt>
				<trkpt lat="45.230970" lon="2.418200">
					<ele>586</ele>
					<time>2018-06-22T20:16:04Z</time>
				</trkpt>
				<trkpt lat="45.230840" lon="2.418310">
					<ele>589</ele>
					<time>2018-06-22T20:17:04Z</time>
				</trkpt>
				<trkpt lat="45.230740" lon="2.418430">
					<ele>591</ele>
					<time>2018-06-22T20:18:04Z</time>
				</trkpt>
				<trkpt lat="45.230690" lon="2.418480">
					<ele>591</ele>
					<time>2018-06-22T20:19:04Z</time>
				</trkpt>
				<trkpt lat="45.230620" lon="2.418650">
					<ele>591</ele>
					<time>2018-06-22T20:20:04Z</time>
				</trkpt>
				<trkpt lat="45.230560" lon="2.418810">
					<ele>591</ele>
					<time>2018-06-22T20:21:04Z</time>
				</trkpt>
				<trkpt lat="45.230490" lon="2.419020">
					<ele>591</ele>
					<time>2018-06-22T20:22:04Z</time>
				</trkpt>
				<trkpt lat="45.230380" lon="2.419280">
					<ele>591</ele>
					<time>2018-06-22T20:23:04Z</time>
				</trkpt>
				<trkpt lat="45.230250" lon="2.419690">
					<ele>588</ele>
					<time>2018-06-22T20:24:04Z</time>
				</trkpt>
				<trkpt lat="45.230140" lon="2.420060">
					<ele>585</ele>
					<time>2018-06-22T20:25:04Z</time>
				</trkpt>
				<trkpt lat="45.230050" lon="2.420320">
					<ele>584</ele>
					<time>2018-06-22T20:26:04Z</time>
				</trkpt>
				<trkpt lat="45.229940" lon="2.420670">
					<ele>580</ele>
					<time>2018-06-22T20:27:04Z</time>
				</trkpt>
				<trkpt lat="45.229870" lon="2.420920">
					<ele>578</ele>
					<time>2018-06-22T20:28:04Z</time>
				</trkpt>
				<trkpt lat="45.229830" lon="2.421190">
					<ele>574</ele>
					<time>2018-06-22T20:29:04Z</time>
				</trkpt>
				<trkpt lat="45.229810" lon="2.421450">
					<ele>570</ele>
					<time>2018-06-22T20:30:04Z</time>
				</trkpt>
				<trkpt lat="45.229810" lon="2.421640">
					<ele>566</ele>
					<time>2018-06-22T20:31:04Z</time>
				</trkpt>
				<trkpt lat="45.229800" lon="2.421810">
					<ele>564</ele>
					<time>2018-06-22T20:32:04Z</time>
				</trkpt>
				<trkpt lat="45.229760" lon="2.422010">
					<ele>562</ele>
					<time>2018-06-22T20:33:04Z</time>
				</trkpt>
				<trkpt lat="45.229680" lon="2.422190">
					<ele>562</ele>
					<time>2018-06-22T20:34:04Z</time>
				</trkpt>
				<trkpt lat="45.229560" lon="2.422410">
					<ele>562</ele>
					<time>2018-06-22T20:35:04Z</time>
				</trkpt>
				<trkpt lat="45.229420" lon="2.422630">
					<ele>563</ele>
					<time>2018-06-22T20:36:04Z</time>
				</trkpt>
				<trkpt lat="45.229280" lon="2.422830">
					<ele>564</ele>
					<time>2018-06-22T20:37:04Z</time>
				</trkpt>
				<trkpt lat="45.229180" lon="2.423020">
					<ele>562</ele>
					<time>2018-06-22T20:38:04Z</time>
				</trkpt>
				<trkpt lat="45.229110" lon="2.423150">
					<ele>561</ele>
					<time>2018-06-22T20:39:04Z</time>
				</trkpt>
				<trkpt lat="45.229070" lon="2.423280">
					<ele>559</ele>
					<time>2018-06-22T20:40:04Z</time>
				</trkpt>
				<trkpt lat="45.229000" lon="2.423530">
					<ele>557</ele>
					<time>2018-06-22T20:41:04Z</time>
				</trkpt>
				<trkpt lat="45.228910" lon="2.423990">
					<ele>553</ele>
					<time>2018-06-22T20:42:04Z</time>
				</trkpt>
				<trkpt lat="45.228800" lon="2.424540">
					<ele>549</ele>
					<time>2018-06-22T20:43:04Z</time>
				</trkpt>
				<trkpt lat="45.228720" lon="2.424810">
					<ele>547</ele>
					<time>2018-06-22T20:44:04Z</time>
				</trkpt>
				<trkpt lat="45.228670" lon="2.424980">
					<ele>547</ele>
					<time>2018-06-22T20:45:04Z</time>
				</trkpt>
				<trkpt lat="45.228590" lon="2.425180">
					<ele>545</ele>
					<time>2018-06-22T20:46:04Z</time>
				</trkpt>
				<trkpt lat="45.228560" lon="2.425310">
					<ele>545</ele>
					<time>2018-06-22T20:47:04Z</time>
				</trkpt>
				<trkpt lat="45.228540" lon="2.425420">
					<ele>544</ele>
					<time>2018-06-22T20:48:04Z</time>
				</trkpt>
				<trkpt lat="45.228550" lon="2.425520">
					<ele>543</ele>
					<time>2018-06-22T20:49:04Z</time>
				</trkpt>
				<trkpt lat="45.228600" lon="2.425740">
					<ele>541</ele>
					<time>2018-06-22T20:50:04Z</time>
				</trkpt>
				<trkpt lat="45.228680" lon="2.426030">
					<ele>540</ele>
					<time>2018-06-22T20:51:04Z</time>
				</trkpt>
				<trkpt lat="45.228720" lon="2.426170">
					<ele>539</ele>
					<time>2018-06-22T20:52:04Z</time>
				</trkpt>
				<trkpt lat="45.228730" lon="2.426310">
					<ele>539</ele>
					<time>2018-06-22T20:53:04Z</time>
				</trkpt>
				<trkpt lat="45.228740" lon="2.426620">
					<ele>539</ele>
					<time>2018-06-22T20:54:04Z</time>
				</trkpt>
				<trkpt lat="45.228720" lon="2.426920">
					<ele>538</ele>
					<time>2018-06-22T20:55:04Z</time>
				</trkpt>
				<trkpt lat="45.228700" lon="2.427240">
					<ele>538</ele>
					<time>2018-06-22T20:56:04Z</time>
				</trkpt>
				<trkpt lat="45.228700" lon="2.427550">
					<ele>538</ele>
					<time>2018-06-22T20:57:04Z</time>
				</trkpt>
				<trkpt lat="45.228710" lon="2.427740">
					<ele>538</ele>
					<time>2018-06-22T20:58:04Z</time>
				</trkpt>
				<trkpt lat="45.228750" lon="2.427910">
					<ele>537</ele>
					<time>2018-06-22T20:59:04Z</time>
				</trkpt>
				<trkpt lat="45.228800" lon="2.428070">
					<ele>537</ele>
					<time>2018-06-22T21:00:04Z</time>
				</trkpt>
				<trkpt lat="45.228830" lon="2.428150">
					<ele>537</ele>
					<time>2018-06-22T21:01:04Z</time>
				</trkpt>
				<trkpt lat="45.228900" lon="2.428220">
					<ele>536</ele>
					<time>2018-06-22T21:02:04Z</time>
				</trkpt>
				<trkpt lat="45.228960" lon="2.428250">
					<ele>535</ele>
					<time>2018-06-22T21:03:04Z</time>
				</trkpt>
				<trkpt lat="45.229050" lon="2.428290">
					<ele>534</ele>
					<time>2018-06-22T21:04:04Z</time>
				</trkpt>
				<trkpt lat="45.229170" lon="2.428300">
					<ele>532</ele>
					<time>2018-06-22T21:05:04Z</time>
				</trkpt>
				<trkpt lat="45.229300" lon="2.428310">
					<ele>532</ele>
					<time>2018-06-22T21:06:04Z</time>
				</trkpt>
				<trkpt lat="45.229410" lon="2.428320">
					<ele>533</ele>
					<time>2018-06-22T21:07:04Z</time>
				</trkpt>
				<trkpt lat="45.229580" lon="2.428340">
					<ele>534</ele>
					<time>2018-06-22T21:08:04Z</time>
				</trkpt>
				<trkpt lat="45.229670" lon="2.428320">
					<ele>534</ele>
					<time>2018-06-22T21:09:04Z</time>
				</trkpt>
				<trkpt lat="45.229790" lon="2.428300">
					<ele>534</ele>
					<time>2018-06-22T21:10:04Z</time>
				</trkpt>
				<trkpt lat="45.229900" lon="2.428260">
					<ele>534</ele>
					<time>2018-06-22T21:11:04Z</time>
				</trkpt>
				<trkpt lat="45.229990" lon="2.428190">
					<ele>534</ele>
					<time>2018-06-22T21:12:04Z</time>
				</trkpt>
				<trkpt lat="45.230140" lon="2.428080">
					<ele>535</ele>
					<time>2018-06-22T21:13:04Z</time>
				</trkpt>
				<trkpt lat="45.230280" lon="2.427910">
					<ele>535</ele>
					<time>2018-06-22T21:14:04Z</time>
				</trkpt>
				<trkpt lat="45.230530" lon="2.427590">
					<ele>536</ele>
					<time>2018-06-22T21:15:04Z</time>
				</trkpt>
				<trkpt lat="45.230720" lon="2.427320">
					<ele>537</ele>
					<time>2018-06-22T21:16:04Z</time>
				</trkpt>
				<trkpt lat="45.230940" lon="2.426970">
					<ele>538</ele>
					<time>2018-06-22T21:17:04Z</time>
				</trkpt>
				<trkpt lat="45.231210" lon="2.426580">
					<ele>539</ele>
					<time>2018-06-22T21:18:04Z</time>
				</trkpt>
				<trkpt lat="45.231220" lon="2.426560">
					<ele>539</ele>
					<time>2018-06-22T21:19:04Z</time>
				</trkpt>
				<trkpt lat="45.231430" lon="2.426330">
					<ele>541</ele>
					<time>2018-06-22T21:20:04Z</time>
				</trkpt>
				<trkpt lat="45.231630" lon="2.426120">
					<ele>541</ele>
					<time>2018-06-22T21:21:04Z</time>
				</trkpt>
				<trkpt lat="45.231900" lon="2.425880">
					<ele>544</ele>
					<time>2018-06-22T21:22:04Z</time>
				</trkpt>
				<trkpt lat="45.232090" lon="2.425700">
					<ele>547</ele>
					<time>2018-06-22T21:23:04Z</time>
				</trkpt>
				<trkpt lat="45.232240" lon="2.425540">
					<ele>549</ele>
					<time>2018-06-22T21:24:04Z</time>
				</trkpt>
				<trkpt lat="45.232290" lon="2.425470">
					<ele>550</ele>
					<time>2018-06-22T21:25:04Z</time>
				</trkpt>
				<trkpt lat="45.232330" lon="2.425390">
					<ele>550</ele>
					<time>2018-06-22T21:26:04Z</time>
				</trkpt>
				<trkpt lat="45.232360" lon="2.425310">
					<ele>551</ele>
					<time>2018-06-22T21:27:04Z</time>
				</trkpt>
				<trkpt lat="45.232470" lon="2.425040">
					<ele>552</ele>
					<time>2018-06-22T21:28:04Z</time>
				</trkpt>
				<trkpt lat="45.232590" lon="2.424820">
					<ele>554</ele>
					<time>2018-06-22T21:29:04Z</time>
				</trkpt>
				<trkpt lat="45.232730" lon="2.424560">
					<ele>556</ele>
					<time>2018-06-22T21:30:04Z</time>
				</trkpt>
				<trkpt lat="45.232790" lon="2.424450">
					<ele>557</ele>
					<time>2018-06-22T21:31:04Z</time>
				</trkpt>
				<trkpt lat="45.232870" lon="2.424300">
					<ele>558</ele>
					<time>2018-06-22T21:32:04Z</time>
				</trkpt>
				<trkpt lat="45.232950" lon="2.424150">
					<ele>559</ele>
					<time>2018-06-22T21:33:04Z</time>
				</trkpt>
				<trkpt lat="45.233040" lon="2.423990">
					<ele>560</ele>
					<time>2018-06-22T21:34:04Z</time>
				</trkpt>
				<trkpt lat="45.233140" lon="2.423800">
					<ele>561</ele>
					<time>2018-06-22T21:35:04Z</time>
				</trkpt>
				<trkpt lat="45.233280" lon="2.423590">
					<ele>563</ele>
					<time>2018-06-22T21:36:04Z</time>
				</trkpt>
				<trkpt lat="45.233420" lon="2.423370">
					<ele>566</ele>
					<time>2018-06-22T21:37:04Z</time>
				</trkpt>
				<trkpt lat="45.233510" lon="2.423190">
					<ele>568</ele>
					<time>2018-06-22T21:38:04Z</time>
				</trkpt>
				<trkpt lat="45.233590" lon="2.423040">
					<ele>570</ele>
					<time>2018-06-22T21:39:04Z</time>
				</trkpt>
				<trkpt lat="45.233630" lon="2.422960">
					<ele>571</ele>
					<time>2018-06-22T21:40:04Z</time>
				</trkpt>
				<trkpt lat="45.233650" lon="2.422900">
					<ele>571</ele>
					<time>2018-06-22T21:41:04Z</time>
				</trkpt>
				<trkpt lat="45.233720" lon="2.422690">
					<ele>572</ele>
					<time>2018-06-22T21:42:04Z</time>
				</trkpt>
				<trkpt lat="45.233780" lon="2.422490">
					<ele>573</ele>
					<time>2018-06-22T21:43:04Z</time>
				</trkpt>
				<trkpt lat="45.233830" lon="2.422250">
					<ele>572</ele>
					<time>2018-06-22T21:44:04Z</time>
				</trkpt>
				<trkpt lat="45.233870" lon="2.422120">
					<ele>573</ele>
					<time>2018-06-22T21:45:04Z</time>
				</trkpt>
				<trkpt lat="45.233910" lon="2.422010">
					<ele>573</ele>
					<time>2018-06-22T21:46:04Z</time>
				</trkpt>
				<trkpt lat="45.233960" lon="2.421900">
					<ele>574</ele>
					<time>2018-06-22T21:47:04Z</time>
				</trkpt>
				<trkpt lat="45.234020" lon="2.421770">
					<ele>575</ele>
					<time>2018-06-22T21:48:04Z</time>
				</trkpt>
				<trkpt lat="45.234110" lon="2.421640">
					<ele>576</ele>
					<time>2018-06-22T21:49:04Z</time>
				</trkpt>
				<trkpt lat="45.234240" lon="2.421490">
					<ele>578</ele>
					<time>2018-06-22T21:50:04Z</time>
				</trkpt>
				<trkpt lat="45.234340" lon="2.421370">
					<ele>580</ele>
					<time>2018-06-22T21:51:04Z</time>
				</trkpt>
				<trkpt lat="45.234450" lon="2.421230">
					<ele>582</ele>
					<time>2018-06-22T21:52:04Z</time>
				</trkpt>
				<trkpt lat="45.234550" lon="2.421080">
					<ele>584</ele>
					<time>2018-06-22T21:53:04Z</time>
				</trkpt>
				<trkpt lat="45.234630" lon="2.420920">
					<ele>585</ele>
					<time>2018-06-22T21:54:04Z</time>
				</trkpt>
				<trkpt lat="45.234700" lon="2.420760">
					<ele>587</ele>
					<time>2018-06-22T21:55:04Z</time>
				</trkpt>
				<trkpt lat="45.234750" lon="2.420600">
					<ele>588</ele>
					<time>2018-06-22T21:56:04Z</time>
				</trkpt>
				<trkpt lat="45.234780" lon="2.420470">
					<ele>589</ele>
					<time>2018-06-22T21:57:04Z</time>
				</trkpt>
				<trkpt lat="45.234810" lon="2.420310">
					<ele>589</ele>
					<time>2018-06-22T21:58:04Z</time>
				</trkpt>
				<trkpt lat="45.234820" lon="2.420120">
					<ele>588</ele>
					<time>2018-06-22T21:59:04Z</time>
				</trkpt>
				<trkpt lat="45.234840" lon="2.419890">
					<ele>587</ele>
					<time>2018-06-22T22:00:04Z</time>
				</trkpt>
				<trkpt lat="45.234860" lon="2.419730">
					<ele>587</ele>
					<time>2018-06-22T22:01:04Z</time>
				</trkpt>
				<trkpt lat="45.234870" lon="2.419620">
					<ele>586</ele>
					<time>2018-06-22T22:02:04Z</time>
				</trkpt>
				<trkpt lat="45.234900" lon="2.419540">
					<ele>586</ele>
					<time>2018-06-22T22:03:04Z</time>
				</trkpt>
				<trkpt lat="45.234930" lon="2.419470">
					<ele>587</ele>
					<time>2018-06-22T22:04:04Z</time>
				</trkpt>
				<trkpt lat="45.234960" lon="2.419420">
					<ele>588</ele>
					<time>2018-06-22T22:05:04Z</time>
				</trkpt>
				<trkpt lat="45.235000" lon="2.419370">
					<ele>589</ele>
					<time>2018-06-22T22:06:04Z</time>
				</trkpt>
				<trkpt lat="45.235080" lon="2.419300">
					<ele>590</ele>
					<time>2018-06-22T22:07:04Z</time>
				</trkpt>
				<trkpt lat="45.235240" lon="2.419200">
					<ele>592</ele>
					<time>2018-06-22T22:08:04Z</time>
				</trkpt>
				<trkpt lat="45.235410" lon="2.419130">
					<ele>594</ele>
					<time>2018-06-22T22:09:04Z</time>
				</trkpt>
				<trkpt lat="45.235570" lon="2.419030">
					<ele>596</ele>
					<time>2018-06-22T22:10:04Z</time>
				</trkpt>
				<trkpt lat="45.235740" lon="2.418910">
					<ele>598</ele>
					<time>2018-06-22T22:11:04Z</time>
				</trkpt>
				<trkpt lat="45.235930" lon="2.418780">
					<ele>599</ele>
					<time>2018-06-22T22:12:04Z</time>
				</trkpt>
				<trkpt lat="45.236040" lon="2.418710">
					<ele>599</ele>
					<time>2018-06-22T22:13:04Z</time>
				</trkpt>
				<trkpt lat="45.236110" lon="2.418690">
					<ele>600</ele>
					<time>2018-06-22T22:14:04Z</time>
				</trkpt>
				<trkpt lat="45.236180" lon="2.418690">
					<ele>600</ele>
					<time>2018-06-22T22:15:04Z</time>
				</trkpt>
				<trkpt lat="45.236260" lon="2.418710">
					<ele>601</ele>
					<time>2018-06-22T22:16:04Z</time>
				</trkpt>
				<trkpt lat="45.236310" lon="2.418740">
					<ele>602</ele>
					<time>2018-06-22T22:17:04Z</time>
				</trkpt>
				<trkpt lat="45.236380" lon="2.418810">
					<ele>603</ele>
					<time>2018-06-22T22:18:04Z</time>
				</trkpt>
				<trkpt lat="45.236440" lon="2.418910">
					<ele>605</ele>
					<time>2018-06-22T22:19:04Z</time>
				</trkpt>
				<trkpt lat="45.236500" lon="2.419010">
					<ele>606</ele>
					<time>2018-06-22T22:20:04Z</time>
				</trkpt>
				<trkpt lat="45.236560" lon="2.419130">
					<ele>607</ele>
					<time>2018-06-22T22:21:04Z</time>
				</trkpt>
				<trkpt lat="45.236650" lon="2.419250">
					<ele>609</ele>
					<time>2018-06-22T22:22:04Z</time>
				</trkpt>
				<trkpt lat="45.236730" lon="2.419320">
					<ele>611</ele>
					<time>2018-06-22T22:23:04Z</time>
				</trkpt>
				<trkpt lat="45.236800" lon="2.419360">
					<ele>612</ele>
					<time>2018-06-22T22:24:04Z</time>
				</trkpt>
				<trkpt lat="45.236870" lon="2.419380">
					<ele>613</ele>
					<time>2018-06-22T22:25:04Z</time>
				</trkpt>
				<trkpt lat="45.236950" lon="2.419380">
					<ele>615</ele>
					<time>2018-06-22T22:26:04Z</time>
				</trkpt>
				<trkpt lat="45.237030" lon="2.419350">
					<ele>616</ele>
					<time>2018-06-22T22:27:04Z</time>
				</trkpt>
				<trkpt lat="45.237080" lon="2.419320">
					<ele>616</ele>
					<time>2018-06-22T22:28:04Z</time>
				</trkpt>
				<trkpt lat="45.237120" lon="2.419300">
					<ele>617</ele>
					<time>2018-06-22T22:29:04Z</time>
				</trkpt>
				<trkpt lat="45.237170" lon="2.419230">
					<ele>617</ele>
					<time>2018-06-22T22:30:04Z</time>
				</trkpt>
				<trkpt lat="45.237230" lon="2.419130">
					<ele>617</ele>
					<time>2018-06-22T22:31:04Z</time>
				</trkpt>
				<trkpt lat="45.237270" lon="2.419060">
					<ele>618</ele>
					<time>2018-06-22T22:32:04Z</time>
				</trkpt>
				<trkpt lat="45.237300" lon="2.418980">
					<ele>618</ele>
					<time>2018-06-22T22:33:04Z</time>
				</trkpt>
				<trkpt lat="45.237360" lon="2.418730">
					<ele>618</ele>
					<time>2018-06-22T22:34:04Z</time>
				</trkpt>
				<trkpt lat="45.237420" lon="2.418530">
					<ele>619</ele>
					<time>2018-06-22T22:35:04Z</time>
				</trkpt>
				<trkpt lat="45.237480" lon="2.418380">
					<ele>620</ele>
					<time>2018-06-22T22:36:04Z</time>
				</trkpt>
				<trkpt lat="45.237530" lon="2.418280">
					<ele>620</ele>
					<time>2018-06-22T22:37:04Z</time>
				</trkpt>
				<trkpt lat="45.237590" lon="2.418190">
					<ele>620</ele>
					<time>2018-06-22T22:38:04Z</time>
				</trkpt>
				<trkpt lat="45.237680" lon="2.418090">
					<ele>620</ele>
					<time>2018-06-22T22:39:04Z</time>
				</trkpt>
				<trkpt lat="45.237760" lon="2.418030">
					<ele>620</ele>
					<time>2018-06-22T22:40:04Z</time>
				</trkpt>
				<trkpt lat="45.237840" lon="2.417970">
					<ele>621</ele>
					<time>2018-06-22T22:41:04Z</time>
				</trkpt>
				<trkpt lat="45.237960" lon="2.417920">
					<ele>621</ele>
					<time>2018-06-22T22:42:04Z</time>
				</trkpt>
				<trkpt lat="45.238060" lon="2.417900">
					<ele>622</ele>
					<time>2018-06-22T22:43:04Z</time>
				</trkpt>
				<trkpt lat="45.238170" lon="2.417900">
					<ele>623</ele>
					<time>2018-06-22T22:44:04Z</time>
				</trkpt>
				<trkpt lat="45.238280" lon="2.417930">
					<ele>624</ele>
					<time>2018-06-22T22:45:04Z</time>
				</trkpt>
				<trkpt lat="45.238380" lon="2.417970">
					<ele>625</ele>
					<time>2018-06-22T22:46:04Z</time>
				</trkpt>
				<trkpt lat="45.238490" lon="2.418040">
					<ele>627</ele>
					<time>2018-06-22T22:47:04Z</time>
				</trkpt>
				<trkpt lat="45.238600" lon="2.418160">
					<ele>628</ele>
					<time>2018-06-22T22:48:04Z</time>
				</trkpt>
				<trkpt lat="45.238690" lon="2.418290">
					<ele>630</ele>
					<time>2018-06-22T22:49:04Z</time>
				</trkpt>
				<trkpt lat="45.238740" lon="2.418380">
					<ele>631</ele>
					<time>2018-06-22T22:50:04Z</time>
				</trkpt>
				<trkpt lat="45.238790" lon="2.418510">
					<ele>633</ele>
					<time>2018-06-22T22:51:04Z</time>
				</trkpt>
				<trkpt lat="45.238830" lon="2.418630">
					<ele>634</ele>
					<time>2018-06-22T22:52:04Z</time>
				</trkpt>
				<trkpt lat="45.238850" lon="2.418770">
					<ele>635</ele>
					<time>2018-06-22T22:53:04Z</time>
				</trkpt>
				<trkpt lat="45.238870" lon="2.418910">
					<ele>636</ele>
					<time>2018-06-22T22:54:04Z</time>
				</trkpt>
				<trkpt lat="45.238870" lon="2.419060">
					<ele>637</ele>
					<time>2018-06-22T22:55:04Z</time>
				</trkpt>
				<trkpt lat="45.238860" lon="2.419180">
					<ele>638</ele>
					<time>2018-06-22T22:56:04Z</time>
				</trkpt>
				<trkpt lat="45.238830" lon="2.419320">
					<ele>639</ele>
					<time>2018-06-22T22:57:04Z</time>
				</trkpt>
				<trkpt lat="45.238790" lon="2.419450">
					<ele>640</ele>
					<time>2018-06-22T22:58:04Z</time>
				</trkpt>
				<trkpt lat="45.238760" lon="2.419550">
					<ele>641</ele>
					<time>2018-06-22T22:59:04Z</time>
				</trkpt>
				<trkpt lat="45.238720" lon="2.419640">
					<ele>641</ele>
					<time>2018-06-22T23:00:04Z</time>
				</trkpt>
				<trkpt lat="45.238640" lon="2.419780">
					<ele>642</ele>
					<time>2018-06-22T23:01:04Z</time>
				</trkpt>
				<trkpt lat="45.238500" lon="2.420020">
					<ele>643</ele>
					<time>2018-06-22T23:02:04Z</time>
				</trkpt>
				<trkpt lat="45.238320" lon="2.420320">
					<ele>643</ele>
					<time>2018-06-22T23:03:04Z</time>
				</trkpt>
				<trkpt lat="45.238230" lon="2.420490">
					<ele>643</ele>
					<time>2018-06-22T23:04:04Z</time>
				</trkpt>
				<trkpt lat="45.238170" lon="2.420630">
					<ele>643</ele>
					<time>2018-06-22T23:05:04Z</time>
				</trkpt>
				<trkpt lat="45.238130" lon="2.420740">
					<ele>644</ele>
					<time>2018-06-22T23:06:04Z</time>
				</trkpt>
				<trkpt lat="45.238090" lon="2.420890">
					<ele>644</ele>
					<time>2018-06-22T23:07:04Z</time>
				</trkpt>
				<trkpt lat="45.238070" lon="2.421040">
					<ele>645</ele>
					<time>2018-06-22T23:08:04Z</time>
				</trkpt>
				<trkpt lat="45.238060" lon="2.421160">
					<ele>646</ele>
					<time>2018-06-22T23:09:04Z</time>
				</trkpt>
				<trkpt lat="45.238040" lon="2.421360">
					<ele>648</ele>
					<time>2018-06-22T23:10:04Z</time>
				</trkpt>
				<trkpt lat="45.238020" lon="2.421550">
					<ele>649</ele>
					<time>2018-06-22T23:11:04Z</time>
				</trkpt>
				<trkpt lat="45.238010" lon="2.421790">
					<ele>651</ele>
					<time>2018-06-22T23:12:04Z</time>
				</trkpt>
				<trkpt lat="45.238000" lon="2.422050">
					<ele>652</ele>
					<time>2018-06-22T23:13:04Z</time>
				</trkpt>
				<trkpt lat="45.237990" lon="2.422340">
					<ele>654</ele>
					<time>2018-06-22T23:14:04Z</time>
				</trkpt>
				<trkpt lat="45.237990" lon="2.422620">
					<ele>655</ele>
					<time>2018-06-22T23:15:04Z</time>
				</trkpt>
				<trkpt lat="45.238010" lon="2.422920">
					<ele>657</ele>
					<time>2018-06-22T23:16:04Z</time>
				</trkpt>
				<trkpt lat="45.238030" lon="2.423290">
					<ele>658</ele>
					<time>2018-06-22T23:17:04Z</time>
				</trkpt>
				<trkpt lat="45.238070" lon="2.423790">
					<ele>663</ele>
					<time>2018-06-22T23:18:04Z</time>
				</trkpt>
				<trkpt lat="45.238100" lon="2.424280">
					<ele>666</ele>
					<time>2018-06-22T23:19:04Z</time>
				</trkpt>
				<trkpt lat="45.238100" lon="2.424510">
					<ele>668</ele>
					<time>2018-06-22T23:20:04Z</time>
				</trkpt>
				<trkpt lat="45.238100" lon="2.424750">
					<ele>669</ele>
					<time>2018-06-22T23:21:04Z</time>
				</trkpt>
				<trkpt lat="45.238110" lon="2.424970">
					<ele>670</ele>
					<time>2018-06-22T23:22:04Z</time>
				</trkpt>
				<trkpt lat="45.238140" lon="2.425220">
					<ele>673</ele>
					<time>2018-06-22T23:23:04Z</time>
				</trkpt>
				<trkpt lat="45.238180" lon="2.425430">
					<ele>675</ele>
					<time>2018-06-22T23:24:04Z</time>
				</trkpt>
				<trkpt lat="45.238260" lon="2.425860">
					<ele>680</ele>
					<time>2018-06-22T23:25:04Z</time>
				</trkpt>
				<trkpt lat="45.238270" lon="2.425900">
					<ele>681</ele>
					<time>2018-06-22T23:26:04Z</time>
				</trkpt>
				<trkpt lat="45.238370" lon="2.426380">
					<ele>685</ele>
					<time>2018-06-22T23:27:04Z</time>
				</trkpt>
				<trkpt lat="45.238410" lon="2.426670">
					<ele>687</ele>
					<time>2018-06-22T23:28:04Z</time>
				</trkpt>
				<trkpt lat="45.238450" lon="2.426980">
					<ele>689</ele>
					<time>2018-06-22T23:29:04Z</time>
				</trkpt>
				<trkpt lat="45.238460" lon="2.427270">
					<ele>690</ele>
					<time>2018-06-22T23:30:04Z</time>
				</trkpt>
				<trkpt lat="45.238460" lon="2.427600">
					<ele>692</ele>
					<time>2018-06-22T23:31:04Z</time>
				</trkpt>
				<trkpt lat="45.238440" lon="2.427870">
					<ele>694</ele>
					<time>2018-06-22T23:32:04Z</time>
				</trkpt>
				<trkpt lat="45.238400" lon="2.428180">
					<ele>695</ele>
					<time>2018-06-22T23:33:04Z</time>
				</trkpt>
				<trkpt lat="45.238360" lon="2.428490">
					<ele>697</ele>
					<time>2018-06-22T23:34:04Z</time>
				</trkpt>
				<trkpt lat="45.238310" lon="2.428820">
					<ele>700</ele>
					<time>2018-06-22T23:35:04Z</time>
				</trkpt>
				<trkpt lat="45.238240" lon="2.429200">
					<ele>704</ele>
					<time>2018-06-22T23:36:04Z</time>
				</trkpt>
				<trkpt lat="45.238160" lon="2.429570">
					<ele>705</ele>
					<time>2018-06-22T23:37:04Z</time>
				</trkpt>
				<trkpt lat="45.238150" lon="2.429640">
					<ele>706</ele>
					<time>2018-06-22T23:38:04Z</time>
				</trkpt>
				<trkpt lat="45.238090" lon="2.429930">
					<ele>707</ele>
					<time>2018-06-22T23:39:04Z</time>
				</trkpt>
				<trkpt lat="45.238030" lon="2.430210">
					<ele>708</ele>
					<time>2018-06-22T23:40:04Z</time>
				</trkpt>
				<trkpt lat="45.237990" lon="2.430440">
					<ele>709</ele>
					<time>2018-06-22T23:41:04Z</time>
				</trkpt>
				<trkpt lat="45.237990" lon="2.430650">
					<ele>711</ele>
					<time>2018-06-22T23:42:04Z</time>
				</trkpt>
				<trkpt lat="45.237990" lon="2.430900">
					<ele>712</ele>
					<time>2018-06-22T23:43:04Z</time>
				</trkpt>
				<trkpt lat="45.238010" lon="2.431150">
					<ele>714</ele>
					<time>2018-06-22T23:44:04Z</time>
				</trkpt>
				<trkpt lat="45.238010" lon="2.431220">
					<ele>714</ele>
					<time>2018-06-22T23:45:04Z</time>
				</trkpt>
				<trkpt lat="45.238080" lon="2.431480">
					<ele>718</ele>
					<time>2018-06-22T23:46:04Z</time>
				</trkpt>
				<trkpt lat="45.238130" lon="2.431790">
					<ele>721</ele>
					<time>2018-06-22T23:47:04Z</time>
				</trkpt>
				<trkpt lat="45.238160" lon="2.431940">
					<ele>723</ele>
					<time>2018-06-22T23:48:04Z</time>
				</trkpt>
				<trkpt lat="45.238160" lon="2.432060">
					<ele>723</ele>
					<time>2018-06-22T23:49:04Z</time>
				</trkpt>
				<trkpt lat="45.238160" lon="2.432300">
					<ele>724</ele>
					<time>2018-06-22T23:50:04Z</time>
				</trkpt>
				<trkpt lat="45.238140" lon="2.432580">
					<ele>726</ele>
					<time>2018-06-22T23:51:04Z</time>
				</trkpt>
				<trkpt lat="45.238060" lon="2.432990">
					<ele>728</ele>
					<time>2018-06-22T23:52:04Z</time>
				</trkpt>
				<trkpt lat="45.238050" lon="2.433130">
					<ele>729</ele>
					<time>2018-06-22T23:53:04Z</time>
				</trkpt>
				<trkpt lat="45.238030" lon="2.433550">
					<ele>733</ele>
					<time>2018-06-22T23:54:04Z</time>
				</trkpt>
				<trkpt lat="45.238010" lon="2.433810">
					<ele>735</ele>
					<time>2018-06-22T23:55:04Z</time>
				</trkpt>
				<trkpt lat="45.238000" lon="2.434510">
					<ele>739</ele>
					<time>2018-06-22T23:56:04Z</time>
				</trkpt>
				<trkpt lat="45.237980" lon="2.434900">
					<ele>739</ele>
					<time>2018-06-22T23:57:04Z</time>
				</trkpt>
				<trkpt lat="45.237950" lon="2.435110">
					<ele>738</ele>
					<time>2018-06-22T23:58:04Z</time>
				</trkpt>
				<trkpt lat="45.237880" lon="2.435420">
					<ele>737</ele>
					<time>2018-06-22T23:59:04Z</time>
				</trkpt>
				<trkpt lat="45.237830" lon="2.435690">
					<ele>736</ele>
					<time>2018-06-23T00:00:04Z</time>
				</trkpt>
				<trkpt lat="45.237800" lon="2.435870">
					<ele>736</ele>
					<time>2018-06-23T00:01:04Z</time>
				</trkpt>
				<trkpt lat="45.237790" lon="2.436100">
					<ele>736</ele>
					<time>2018-06-23T00:02:04Z</time>
				</trkpt>
				<trkpt lat="45.237790" lon="2.436390">
					<ele>736</ele>
					<time>2018-06-23T00:03:04Z</time>
				</trkpt>
				<trkpt lat="45.237790" lon="2.436670">
					<ele>737</ele>
					<time>2018-06-23T00:04:04Z</time>
				</trkpt>
				<trkpt lat="45.237790" lon="2.436850">
					<ele>737</ele>
					<time>2018-06-23T00:05:04Z</time>
				</trkpt>
				<trkpt lat="45.237800" lon="2.437100">
					<ele>738</ele>
					<time>2018-06-23T00:06:04Z</time>
				</trkpt>
				<trkpt lat="45.237900" lon="2.437530">
					<ele>742</ele>
					<time>2018-06-23T00:07:04Z</time>
				</trkpt>
				<trkpt lat="45.237990" lon="2.437900">
					<ele>747</ele>
					<time>2018-06-23T00:08:04Z</time>
				</trkpt>
				<trkpt lat="45.238040" lon="2.438160">
					<ele>749</ele>
					<time>2018-06-23T00:09:04Z</time>
				</trkpt>
				<trkpt lat="45.238050" lon="2.438390">
					<ele>750</ele>
					<time>2018-06-23T00:10:04Z</time>
				</trkpt>
				<trkpt lat="45.238040" lon="2.438720">
					<ele>753</ele>
					<time>2018-06-23T00:11:04Z</time>
				</trkpt>
				<trkpt lat="45.238030" lon="2.438920">
					<ele>754</ele>
					<time>2018-06-23T00:12:04Z</time>
				</trkpt>
				<trkpt lat="45.238020" lon="2.439180">
					<ele>756</ele>
					<time>2018-06-23T00:13:04Z</time>
				</trkpt>
				<trkpt lat="45.237960" lon="2.439490">
					<ele>757</ele>
					<time>2018-06-23T00:14:04Z</time>
				</trkpt>
				<trkpt lat="45.237880" lon="2.439780">
					<ele>757</ele>
					<time>2018-06-23T00:15:04Z</time>
				</trkpt>
				<trkpt lat="45.237730" lon="2.440230">
					<ele>758</ele>
					<time>2018-06-23T00:16:04Z</time>
				</trkpt>
				<trkpt lat="45.237680" lon="2.440380">
					<ele>758</ele>
					<time>2018-06-23T00:17:04Z</time>
				</trkpt>
				<trkpt lat="45.237630" lon="2.440600">
					<ele>760</ele>
					<time>2018-06-23T00:18:04Z</time>
				</trkpt>
				<trkpt lat="45.237600" lon="2.440760">
					<ele>761</ele>
					<time>2018-06-23T00:19:04Z</time>
				</trkpt>
				<trkpt lat="45.237580" lon="2.440940">
					<ele>762</ele>
					<time>2018-06-23T00:20:04Z</time>
				</trkpt>
				<trkpt lat="45.237580" lon="2.441100">
					<ele>762</ele>
					<time>2018-06-23T00:21:04Z</time>
				</trkpt>
				<trkpt lat="45.237600" lon="2.441400">
					<ele>764</ele>
					<time>2018-06-23T00:22:04Z</time>
				</trkpt>
				<trkpt lat="45.237600" lon="2.441530">
					<ele>764</ele>
					<time>2018-06-23T00:23:04Z</time>
				</trkpt>
				<trkpt lat="45.237600" lon="2.441720">
					<ele>765</ele>
					<time>2018-06-23T00:24:04Z</time>
				</trkpt>
				<trkpt lat="45.237580" lon="2.441860">
					<ele>765</ele>
					<time>2018-06-23T00:25:04Z</time>
				</trkpt>
				<trkpt lat="45.237560" lon="2.442020">
					<ele>765</ele>
					<time>2018-06-23T00:26:04Z</time>
				</trkpt>
				<trkpt lat="45.237490" lon="2.442360">
					<ele>766</ele>
					<time>2018-06-23T00:27:04Z</time>
				</trkpt>
				<trkpt lat="45.237440" lon="2.442620">
					<ele>769</ele>
					<time>2018-06-23T00:28:04Z</time>
				</trkpt>
				<trkpt lat="45.237420" lon="2.442750">
					<ele>770</ele>
					<time>2018-06-23T00:29:04Z</time>
				</trkpt>
				<trkpt lat="45.237410" lon="2.442940">
					<ele>773</ele>
					<time>2018-06-23T00:30:04Z</time>
				</trkpt>
				<trkpt lat="45.237390" lon="2.443270">
					<ele>777</ele>
					<time>2018-06-23T00:31:04Z</time>
				</trkpt>
				<trkpt lat="45.237360" lon="2.443850">
					<ele>782</ele>
					<time>2018-06-23T00:32:04Z</time>
				</trkpt>
				<trkpt lat="45.237350" lon="2.443990">
					<ele>783</ele>
					<time>2018-06-23T00:33:04Z</time>
				</trkpt>
				<trkpt lat="45.237310" lon="2.444210">
					<ele>785</ele>
					<time>2018-06-23T00:34:04Z</time>
				</trkpt>
				<trkpt lat="45.237260" lon="2.444450">
					<ele>787</ele>
					<time>2018-06-23T00:35:04Z</time>
				</trkpt>
				<trkpt lat="45.237210" lon="2.444710">
					<ele>788</ele>
					<time>2018-06-23T00:36:04Z</time>
				</trkpt>
				<trkpt lat="45.237190" lon="2.444960">
					<ele>789</ele>
					<time>2018-06-23T00:37:04Z</time>
				</trkpt>
				<trkpt lat="45.237180" lon="2.445180">
					<ele>789</ele>
					<time>2018-06-23T00:38:04Z</time>
				</trkpt>
				<trkpt lat="45.237180" lon="2.445280">
					<ele>789</ele>
					<time>2018-06-23T00:39:04Z</time>
				</trkpt>
				<trkpt lat="45.237210" lon="2.445570">
					<ele>789</ele>
					<time>2018-06-23T00:40:04Z</time>
				</trkpt>
				<trkpt lat="45.237250" lon="2.446290">
					<ele>790</ele>
					<time>2018-06-23T00:41:04Z</time>
				</trkpt>
				<trkpt lat="45.237280" lon="2.446640">
					<ele>790</ele>
					<time>2018-06-23T00:42:04Z</time>
				</trkpt>
				<trkpt lat="45.237310" lon="2.446910">
					<ele>790</ele>
					<time>2018-06-23T00:43:04Z</time>
				</trkpt>
				<trkpt lat="45.237350" lon="2.447050">
					<ele>790</ele>
					<time>2018-06-23T00:44:04Z</time>
				</trkpt>
				<trkpt lat="45.237430" lon="2.447250">
					<ele>790</ele>
					<time>2018-06-23T00:45:04Z</time>
				</trkpt>
				<trkpt lat="45.237640" lon="2.447780">
					<ele>793</ele>
					<time>2018-06-23T00:46:04Z</time>
				</trkpt>
				<trkpt lat="45.237740" lon="2.448070">
					<ele>795</ele>
					<time>2018-06-23T00:47:04Z</time>
				</trkpt>
				<trkpt lat="45.237760" lon="2.448180">
					<ele>796</ele>
					<time>2018-06-23T00:48:04Z</time>
				</trkpt>
				<trkpt lat="45.237780" lon="2.448320">
					<ele>796</ele>
					<time>2018-06-23T00:49:04Z</time>
				</trkpt>
				<trkpt lat="45.237770" lon="2.448510">
					<ele>797</ele>
					<time>2018-06-23T00:50:04Z</time>
				</trkpt>
				<trkpt lat="45.237720" lon="2.448840">
					<ele>798</ele>
					<time>2018-06-23T00:51:04Z</time>
				</trkpt>
				<trkpt lat="45.237700" lon="2.448980">
					<ele>798</ele>
					<time>2018-06-23T00:52:04Z</time>
				</trkpt>
				<trkpt lat="45.237660" lon="2.449120">
					<ele>798</ele>
					<time>2018-06-23T00:53:04Z</time>
				</trkpt>
				<trkpt lat="45.237610" lon="2.449340">
					<ele>799</ele>
					<time>2018-06-23T00:54:04Z</time>
				</trkpt>
				<trkpt lat="45.237590" lon="2.449460">
					<ele>799</ele>
					<time>2018-06-23T00:55:04Z</time>
				</trkpt>
				<trkpt lat="45.237570" lon="2.449560">
					<ele>799</ele>
					<time>2018-06-23T00:56:04Z</time>
				</trkpt>
				<trkpt lat="45.237550" lon="2.449780">
					<ele>800</ele>
					<time>2018-06-23T00:57:04Z</time>
				</trkpt>
				<trkpt lat="45.237550" lon="2.449990">
					<ele>801</ele>
					<time>2018-06-23T00:58:04Z</time>
				</trkpt>
				<trkpt lat="45.237540" lon="2.450290">
					<ele>802</ele>
					<time>2018-06-23T00:59:04Z</time>
				</trkpt>
				<trkpt lat="45.237560" lon="2.450520">
					<ele>803</ele>
					<time>2018-06-23T01:00:04Z</time>
				</trkpt>
				<trkpt lat="45.237610" lon="2.450840">
					<ele>804</ele>
					<time>2018-06-23T01:01:04Z</time>
				</trkpt>
				<trkpt lat="45.237690" lon="2.451280">
					<ele>804</ele>
					<time>2018-06-23T01:02:04Z</time>
				</trkpt>
				<trkpt lat="45.237710" lon="2.451460">
					<ele>804</ele>
					<time>2018-06-23T01:03:04Z</time>
				</trkpt>
				<trkpt lat="45.237720" lon="2.451570">
					<ele>805</ele>
					<time>2018-06-23T01:04:04Z</time>
				</trkpt>
				<trkpt lat="45.237720" lon="2.451880">
					<ele>805</ele>
					<time>2018-06-23T01:05:04Z</time>
				</trkpt>
				<trkpt lat="45.237700" lon="2.452340">
					<ele>806</ele>
					<time>2018-06-23T01:06:04Z</time>
				</trkpt>
				<trkpt lat="45.237680" lon="2.452830">
					<ele>807</ele>
					<time>2018-06-23T01:07:04Z</time>
				</trkpt>
				<trkpt lat="45.237660" lon="2.454210">
					<ele>816</ele>
					<time>2018-06-23T01:08:04Z</time>
				</trkpt>
				<trkpt lat="45.237660" lon="2.454640">
					<ele>818</ele>
					<time>2018-06-23T01:09:04Z</time>
				</trkpt>
				<trkpt lat="45.237670" lon="2.454850">
					<ele>819</ele>
					<time>2018-06-23T01:10:04Z</time>
				</trkpt>
				<trkpt lat="45.237690" lon="2.455070">
					<ele>820</ele>
					<time>2018-06-23T01:11:04Z</time>
				</trkpt>
				<trkpt lat="45.237720" lon="2.455250">
					<ele>820</ele>
					<time>2018-06-23T01:12:04Z</time>
				</trkpt>
				<trkpt lat="45.237770" lon="2.455490">
					<ele>820</ele>
					<time>2018-06-23T01:13:04Z</time>
				</trkpt>
				<trkpt lat="45.237830" lon="2.455670">
					<ele>821</ele>
					<time>2018-06-23T01:14:04Z</time>
				</trkpt>
				<trkpt lat="45.237910" lon="2.455890">
					<ele>821</ele>
					<time>2018-06-23T01:15:04Z</time>
				</trkpt>
				<trkpt lat="45.237980" lon="2.456060">
					<ele>822</ele>
					<time>2018-06-23T01:16:04Z</time>
				</trkpt>
				<trkpt lat="45.238070" lon="2.456240">
					<ele>822</ele>
					<time>2018-06-23T01:17:04Z</time>
				</trkpt>
				<trkpt lat="45.238190" lon="2.456430">
					<ele>822</ele>
					<time>2018-06-23T01:18:04Z</time>
				</trkpt>
				<trkpt lat="45.238340" lon="2.456650">
					<ele>823</ele>
					<time>2018-06-23T01:19:04Z</time>
				</trkpt>
				<trkpt lat="45.238510" lon="2.456840">
					<ele>824</ele>
					<time>2018-06-23T01:20:04Z</time>
				</trkpt>
				<trkpt lat="45.238700" lon="2.457070">
					<ele>826</ele>
					<time>2018-06-23T01:21:04Z</time>
				</trkpt>
				<trkpt lat="45.238830" lon="2.457240">
					<ele>827</ele>
					<time>2018-06-23T01:22:04Z</time>
				</trkpt>
				<trkpt lat="45.238890" lon="2.457340">
					<ele>828</ele>
					<time>2018-06-23T01:23:04Z</time>
				</trkpt>
				<trkpt lat="45.238980" lon="2.457600">
					<ele>829</ele>
					<time>2018-06-23T01:24:04Z</time>
				</trkpt>
				<trkpt lat="45.239040" lon="2.457760">
					<ele>829</ele>
					<time>2018-06-23T01:25:04Z</time>
				</trkpt>
				<trkpt lat="45.239090" lon="2.457990">
					<ele>830</ele>
					<time>2018-06-23T01:26:04Z</time>
				</trkpt>
				<trkpt lat="45.239140" lon="2.458380">
					<ele>830</ele>
					<time>2018-06-23T01:27:04Z</time>
				</trkpt>
				<trkpt lat="45.239150" lon="2.458530">
					<ele>831</ele>
					<time>2018-06-23T01:28:04Z</time>
				</trkpt>
				<trkpt lat="45.239160" lon="2.458820">
					<ele>831</ele>
					<time>2018-06-23T01:29:04Z</time>
				</trkpt>
				<trkpt lat="45.239160" lon="2.458910">
					<ele>831</ele>
					<time>2018-06-23T01:30:04Z</time>
				</trkpt>
				<trkpt lat="45.239160" lon="2.458970">
					<ele>832</ele>
					<time>2018-06-23T01:31:04Z</time>
				</trkpt>
				<trkpt lat="45.239150" lon="2.459050">
					<ele>832</ele>
					<time>2018-06-23T01:32:04Z</time>
				</trkpt>
				<trkpt lat="45.239100" lon="2.459360">
					<ele>832</ele>
					<time>2018-06-23T01:33:04Z</time>
				</trkpt>
				<trkpt lat="45.239050" lon="2.459560">
					<ele>833</ele>
					<time>2018-06-23T01:34:04Z</time>
				</trkpt>
				<trkpt lat="45.239020" lon="2.459710">
					<ele>833</ele>
					<time>2018-06-23T01:35:04Z</time>
				</trkpt>
				<trkpt lat="45.238900" lon="2.460180">
					<ele>834</ele>
					<time>2018-06-23T01:36:04Z</time>
				</trkpt>
				<trkpt lat="45.238880" lon="2.460240">
					<ele>834</ele>
					<time>2018-06-23T01:37:04Z</time>
				</trkpt>
				<trkpt lat="45.238820" lon="2.460410">
					<ele>834</ele>
					<time>2018-06-23T01:38:04Z</time>
				</trkpt>
				<trkpt lat="45.238750" lon="2.460580">
					<ele>834</ele>
					<time>2018-06-23T01:39:04Z</time>
				</trkpt>
				<trkpt lat="45.238610" lon="2.460880">
					<ele>833</ele>
					<time>2018-06-23T01:40:04Z</time>
				</trkpt>
				<trkpt lat="45.238360" lon="2.461350">
					<ele>833</ele>
					<time>2018-06-23T01:41:04Z</time>
				</trkpt>
				<trkpt lat="45.238260" lon="2.461580">
					<ele>833</ele>
					<time>2018-06-23T01:42:04Z</time>
				</trkpt>
				<trkpt lat="45.238190" lon="2.461810">
					<ele>833</ele>
					<time>2018-06-23T01:43:04Z</time>
				</trkpt>
				<trkpt lat="45.238120" lon="2.462060">
					<ele>834</ele>
					<time>2018-06-23T01:44:04Z</time>
				</trkpt>
				<trkpt lat="45.238060" lon="2.462380">
					<ele>834</ele>
					<time>2018-06-23T01:45:04Z</time>
				</trkpt>
				<trkpt lat="45.238010" lon="2.462630">
					<ele>834</ele>
					<time>2018-06-23T01:46:04Z</time>
				</trkpt>
				<trkpt lat="45.237970" lon="2.462800">
					<ele>834</ele>
					<time>2018-06-23T01:47:04Z</time>
				</trkpt>
				<trkpt lat="45.237920" lon="2.462950">
					<ele>834</ele>
					<time>2018-06-23T01:48:04Z</time>
				</trkpt>
				<trkpt lat="45.237880" lon="2.463080">
					<ele>834</ele>
					<time>2018-06-23T01:49:04Z</time>
				</trkpt>
				<trkpt lat="45.237830" lon="2.463190">
					<ele>834</ele>
					<time>2018-06-23T01:50:04Z</time>
				</trkpt>
				<trkpt lat="45.237750" lon="2.463320">
					<ele>834</ele>
					<time>2018-06-23T01:51:04Z</time>
				</trkpt>
				<trkpt lat="45.237630" lon="2.463480">
					<ele>834</ele>
					<time>2018-06-23T01:52:04Z</time>
				</trkpt>
				<trkpt lat="45.237430" lon="2.463690">
					<ele>833</ele>
					<time>2018-06-23T01:53:04Z</time>
				</trkpt>
				<trkpt lat="45.237190" lon="2.463920">
					<ele>832</ele>
					<time>2018-06-23T01:54:04Z</time>
				</trkpt>
				<trkpt lat="45.236950" lon="2.464180">
					<ele>832</ele>
					<time>2018-06-23T01:55:04Z</time>
				</trkpt>
				<trkpt lat="45.236830" lon="2.464310">
					<ele>833</ele>
					<time>2018-06-23T01:56:04Z</time>
				</trkpt>
				<trkpt lat="45.236800" lon="2.464350">
					<ele>833</ele>
					<time>2018-06-23T01:57:04Z</time>
				</trkpt>
				<trkpt lat="45.236700" lon="2.464470">
					<ele>834</ele>
					<time>2018-06-23T01:58:04Z</time>
				</trkpt>
				<trkpt lat="45.236630" lon="2.464580">
					<ele>834</ele>
					<time>2018-06-23T01:59:04Z</time>
				</trkpt>
				<trkpt lat="45.236560" lon="2.464720">
					<ele>834</ele>
					<time>2018-06-23T02:00:04Z</time>
				</trkpt>
				<trkpt lat="45.236380" lon="2.465200">
					<ele>833</ele>
					<time>2018-06-23T02:01:04Z</time>
				</trkpt>
				<trkpt lat="45.235970" lon="2.466240">
					<ele>835</ele>
					<time>2018-06-23T02:02:04Z</time>
				</trkpt>
				<trkpt lat="45.235930" lon="2.466350">
					<ele>835</ele>
					<time>2018-06-23T02:03:04Z</time>
				</trkpt>
				<trkpt lat="45.235870" lon="2.466530">
					<ele>836</ele>
					<time>2018-06-23T02:04:04Z</time>
				</trkpt>
				<trkpt lat="45.235840" lon="2.466640">
					<ele>836</ele>
					<time>2018-06-23T02:05:04Z</time>
				</trkpt>
				<trkpt lat="45.235820" lon="2.466740">
					<ele>836</ele>
					<time>2018-06-23T02:06:04Z</time>
				</trkpt>
				<trkpt lat="45.235800" lon="2.466820">
					<ele>836</ele>
					<time>2018-06-23T02:07:04Z</time>
				</trkpt>
				<trkpt lat="45.235780" lon="2.466960">
					<ele>835</ele>
					<time>2018-06-23T02:08:04Z</time>
				</trkpt>
				<trkpt lat="45.235740" lon="2.467260">
					<ele>834</ele>
					<time>2018-06-23T02:09:04Z</time>
				</trkpt>
				<trkpt lat="45.235710" lon="2.467600">
					<ele>834</ele>
					<time>2018-06-23T02:10:04Z</time>
				</trkpt>
				<trkpt lat="45.235690" lon="2.467980">
					<ele>834</ele>
					<time>2018-06-23T02:11:04Z</time>
				</trkpt>
				<trkpt lat="45.235680" lon="2.468300">
					<ele>834</ele>
					<time>2018-06-23T02:12:04Z</time>
				</trkpt>
				<trkpt lat="45.235660" lon="2.468500">
					<ele>835</ele>
					<time>2018-06-23T02:13:04Z</time>
				</trkpt>
				<trkpt lat="45.235670" lon="2.468640">
					<ele>835</ele>
					<time>2018-06-23T02:14:04Z</time>
				</trkpt>
				<trkpt lat="45.235680" lon="2.468750">
					<ele>835</ele>
					<time>2018-06-23T02:15:04Z</time>
				</trkpt>
				<trkpt lat="45.235700" lon="2.468890">
					<ele>835</ele>
					<time>2018-06-23T02:16:04Z</time>
				</trkpt>
				<trkpt lat="45.235750" lon="2.469050">
					<ele>834</ele>
					<time>2018-06-23T02:17:04Z</time>
				</trkpt>
				<trkpt lat="45.235840" lon="2.469360">
					<ele>834</ele>
					<time>2018-06-23T02:18:04Z</time>
				</trkpt>
				<trkpt lat="45.235900" lon="2.469590">
					<ele>835</ele>
					<time>2018-06-23T02:19:04Z</time>
				</trkpt>
				<trkpt lat="45.235920" lon="2.469760">
					<ele>836</ele>
					<time>2018-06-23T02:20:04Z</time>
				</trkpt>
				<trkpt lat="45.235950" lon="2.469990">
					<ele>837</ele>
					<time>2018-06-23T02:21:04Z</time>
				</trkpt>
				<trkpt lat="45.235990" lon="2.470450">
					<ele>839</ele>
					<time>2018-06-23T02:22:04Z</time>
				</trkpt>
				<trkpt lat="45.236010" lon="2.470570">
					<ele>839</ele>
					<time>2018-06-23T02:23:04Z</time>
				</trkpt>
				<trkpt lat="45.236030" lon="2.470650">
					<ele>839</ele>
					<time>2018-06-23T02:24:04Z</time>
				</trkpt>
				<trkpt lat="45.236050" lon="2.470800">
					<ele>840</ele>
					<time>2018-06-23T02:25:04Z</time>
				</trkpt>
				<trkpt lat="45.236140" lon="2.471430">
					<ele>842</ele>
					<time>2018-06-23T02:26:04Z</time>
				</trkpt>
				<trkpt lat="45.236200" lon="2.471770">
					<ele>842</ele>
					<time>2018-06-23T02:27:04Z</time>
				</trkpt>
				<trkpt lat="45.236230" lon="2.472120">
					<ele>842</ele>
					<time>2018-06-23T02:28:04Z</time>
				</trkpt>
				<trkpt lat="45.236240" lon="2.472440">
					<ele>843</ele>
					<time>2018-06-23T02:29:04Z</time>
				</trkpt>
				<trkpt lat="45.236240" lon="2.472460">
					<ele>843</ele>
					<time>2018-06-23T02:30:04Z</time>
				</trkpt>
				<trkpt lat="45.236240" lon="2.472830">
					<ele>843</ele>
					<time>2018-06-23T02:31:04Z</time>
				</trkpt>
				<trkpt lat="45.236240" lon="2.473040">
					<ele>843</ele>
					<time>2018-06-23T02:32:04Z</time>
				</trkpt>
				<trkpt lat="45.236230" lon="2.473250">
					<ele>843</ele>
					<time>2018-06-23T02:33:04Z</time>
				</trkpt>
				<trkpt lat="45.236210" lon="2.473400">
					<ele>844</ele>
					<time>2018-06-23T02:34:04Z</time>
				</trkpt>
				<trkpt lat="45.236180" lon="2.473590">
					<ele>844</ele>
					<time>2018-06-23T02:35:04Z</time>
				</trkpt>
				<trkpt lat="45.236150" lon="2.473770">
					<ele>844</ele>
					<time>2018-06-23T02:36:04Z</time>
				</trkpt>
				<trkpt lat="45.236140" lon="2.473890">
					<ele>844</ele>
					<time>2018-06-23T02:37:04Z</time>
				</trkpt>
				<trkpt lat="45.236150" lon="2.473950">
					<ele>844</ele>
					<time>2018-06-23T02:38:04Z</time>
				</trkpt>
				<trkpt lat="45.236170" lon="2.473980">
					<ele>844</ele>
					<time>2018-06-23T02:39:04Z</time>
				</trkpt>
				<trkpt lat="45.236200" lon="2.474020">
					<ele>844</ele>
					<time>2018-06-23T02:40:04Z</time>
				</trkpt>
				<trkpt lat="45.236260" lon="2.474060">
					<ele>843</ele>
					<time>2018-06-23T02:41:04Z</time>
				</trkpt>
				<trkpt lat="45.236350" lon="2.474070">
					<ele>843</ele>
					<time>2018-06-23T02:42:04Z</time>
				</trkpt>
				<trkpt lat="45.236440" lon="2.474050">
					<ele>843</ele>
					<time>2018-06-23T02:43:04Z</time>
				</trkpt>
				<trkpt lat="45.236470" lon="2.474040">
					<ele>843</ele>
					<time>2018-06-23T02:44:04Z</time>
				</trkpt>
				<trkpt lat="45.236500" lon="2.474020">
					<ele>843</ele>
					<time>2018-06-23T02:45:04Z</time>
				</trkpt>
				<trkpt lat="45.236550" lon="2.473970">
					<ele>843</ele>
					<time>2018-06-23T02:46:04Z</time>
				</trkpt>
				<trkpt lat="45.236600" lon="2.473910">
					<ele>843</ele>
					<time>2018-06-23T02:47:04Z</time>
				</trkpt>
				<trkpt lat="45.236860" lon="2.473380">
					<ele>844</ele>
					<time>2018-06-23T02:48:04Z</time>
				</trkpt>
				<trkpt lat="45.236960" lon="2.473170">
					<ele>845</ele>
					<time>2018-06-23T02:49:04Z</time>
				</trkpt>
				<trkpt lat="45.237060" lon="2.472880">
					<ele>845</ele>
					<time>2018-06-23T02:50:04Z</time>
				</trkpt>
				<trkpt lat="45.237080" lon="2.472810">
					<ele>845</ele>
					<time>2018-06-23T02:51:04Z</time>
				</trkpt>
				<trkpt lat="45.237190" lon="2.472270">
					<ele>846</ele>
					<time>2018-06-23T02:52:04Z</time>
				</trkpt>
				<trkpt lat="45.237300" lon="2.471940">
					<ele>847</ele>
					<time>2018-06-23T02:53:04Z</time>
				</trkpt>
				<trkpt lat="45.237380" lon="2.471730">
					<ele>848</ele>
					<time>2018-06-23T02:54:04Z</time>
				</trkpt>
				<trkpt lat="45.237440" lon="2.471570">
					<ele>849</ele>
					<time>2018-06-23T02:55:04Z</time>
				</trkpt>
				<trkpt lat="45.237460" lon="2.471550">
					<ele>850</ele>
					<time>2018-06-23T02:56:04Z</time>
				</trkpt>
				<trkpt lat="45.237540" lon="2.471480">
					<ele>851</ele>
					<time>2018-06-23T02:57:04Z</time>
				</trkpt>
				<trkpt lat="45.237610" lon="2.471440">
					<ele>852</ele>
					<time>2018-06-23T02:58:04Z</time>
				</trkpt>
				<trkpt lat="45.237690" lon="2.471430">
					<ele>852</ele>
					<time>2018-06-23T02:59:04Z</time>
				</trkpt>
				<trkpt lat="45.237730" lon="2.471430">
					<ele>853</ele>
					<time>2018-06-23T03:00:04Z</time>
				</trkpt>
				<trkpt lat="45.237740" lon="2.471440">
					<ele>853</ele>
					<time>2018-06-23T03:01:04Z</time>
				</trkpt>
				<trkpt lat="45.237750" lon="2.471450">
					<ele>853</ele>
					<time>2018-06-23T03:02:04Z</time>
				</trkpt>
				<trkpt lat="45.237770" lon="2.471480">
					<ele>853</ele>
					<time>2018-06-23T03:03:04Z</time>
				</trkpt>
				<trkpt lat="45.237840" lon="2.471590">
					<ele>854</ele>
					<time>2018-06-23T03:04:04Z</time>
				</trkpt>
				<trkpt lat="45.237940" lon="2.471800">
					<ele>855</ele>
					<time>2018-06-23T03:05:04Z</time>
				</trkpt>
				<trkpt lat="45.237950" lon="2.471820">
					<ele>855</ele>
					<time>2018-06-23T03:06:04Z</time>
				</trkpt>
				<trkpt lat="45.238030" lon="2.472030">
					<ele>856</ele>
					<time>2018-06-23T03:07:04Z</time>
				</trkpt>
				<trkpt lat="45.238130" lon="2.472260">
					<ele>857</ele>
					<time>2018-06-23T03:08:04Z</time>
				</trkpt>
				<trkpt lat="45.238270" lon="2.472610">
					<ele>858</ele>
					<time>2018-06-23T03:09:04Z</time>
				</trkpt>
				<trkpt lat="45.238360" lon="2.472870">
					<ele>859</ele>
					<time>2018-06-23T03:10:04Z</time>
				</trkpt>
				<trkpt lat="45.238430" lon="2.473190">
					<ele>859</ele>
					<time>2018-06-23T03:11:04Z</time>
				</trkpt>
				<trkpt lat="45.238550" lon="2.473760">
					<ele>860</ele>
					<time>2018-06-23T03:12:04Z</time>
				</trkpt>
				<trkpt lat="45.238650" lon="2.474220">
					<ele>860</ele>
					<time>2018-06-23T03:13:04Z</time>
				</trkpt>
				<trkpt lat="45.238890" lon="2.475220">
					<ele>860</ele>
					<time>2018-06-23T03:14:04Z</time>
				</trkpt>
				<trkpt lat="45.238980" lon="2.475610">
					<ele>859</ele>
					<time>2018-06-23T03:15:04Z</time>
				</trkpt>
				<trkpt lat="45.239070" lon="2.476000">
					<ele>858</ele>
					<time>2018-06-23T03:16:04Z</time>
				</trkpt>
				<trkpt lat="45.239160" lon="2.476440">
					<ele>858</ele>
					<time>2018-06-23T03:17:04Z</time>
				</trkpt>
				<trkpt lat="45.239240" lon="2.476850">
					<ele>857</ele>
					<time>2018-06-23T03:18:04Z</time>
				</trkpt>
				<trkpt lat="45.239300" lon="2.477210">
					<ele>855</ele>
					<time>2018-06-23T03:19:04Z</time>
				</trkpt>
				<trkpt lat="45.239310" lon="2.477240">
					<ele>855</ele>
					<time>2018-06-23T03:20:04Z</time>
				</trkpt>
				<trkpt lat="45.239310" lon="2.477240">
					<ele>855</ele>
					<time>2018-06-23T03:21:04Z</time>
				</trkpt>
				<trkpt lat="45.239320" lon="2.477400">
					<ele>854</ele>
					<time>2018-06-23T03:22:04Z</time>
				</trkpt>
				<trkpt lat="45.239330" lon="2.477500">
					<ele>853</ele>
					<time>2018-06-23T03:23:04Z</time>
				</trkpt>
				<trkpt lat="45.239330" lon="2.477610">
					<ele>853</ele>
					<time>2018-06-23T03:24:04Z</time>
				</trkpt>
				<trkpt lat="45.239320" lon="2.477680">
					<ele>852</ele>
					<time>2018-06-23T03:25:04Z</time>
				</trkpt>
				<trkpt lat="45.239310" lon="2.477730">
					<ele>852</ele>
					<time>2018-06-23T03:26:04Z</time>
				</trkpt>
				<trkpt lat="45.239300" lon="2.477880">
					<ele>852</ele>
					<time>2018-06-23T03:27:04Z</time>
				</trkpt>
				<trkpt lat="45.239300" lon="2.477990">
					<ele>851</ele>
					<time>2018-06-23T03:28:04Z</time>
				</trkpt>
				<trkpt lat="45.239310" lon="2.478100">
					<ele>851</ele>
					<time>2018-06-23T03:29:04Z</time>
				</trkpt>
				<trkpt lat="45.239320" lon="2.478190">
					<ele>850</ele>
					<time>2018-06-23T03:30:04Z</time>
				</trkpt>
				<trkpt lat="45.239340" lon="2.478270">
					<ele>849</ele>
					<time>2018-06-23T03:31:04Z</time>
				</trkpt>
				<trkpt lat="45.239490" lon="2.478910">
					<ele>844</ele>
					<time>2018-06-23T03:32:04Z</time>
				</trkpt>
				<trkpt lat="45.239550" lon="2.479190">
					<ele>842</ele>
					<time>2018-06-23T03:33:04Z</time>
				</trkpt>
				<trkpt lat="45.239610" lon="2.479500">
					<ele>839</ele>
					<time>2018-06-23T03:34:04Z</time>
				</trkpt>
				<trkpt lat="45.239630" lon="2.479610">
					<ele>838</ele>
					<time>2018-06-23T03:35:04Z</time>
				</trkpt>
				<trkpt lat="45.239640" lon="2.479700">
					<ele>837</ele>
					<time>2018-06-23T03:36:04Z</time>
				</trkpt>
				<trkpt lat="45.239650" lon="2.479790">
					<ele>837</ele>
					<time>2018-06-23T03:37:04Z</time>
				</trkpt>
				<trkpt lat="45.239650" lon="2.479890">
					<ele>836</ele>
					<time>2018-06-23T03:38:04Z</time>
				</trkpt>
				<trkpt lat="45.239640" lon="2.479990">
					<ele>836</ele>
					<time>2018-06-23T03:39:04Z</time>
				</trkpt>
				<trkpt lat="45.239630" lon="2.480080">
					<ele>836</ele>
					<time>2018-06-23T03:40:04Z</time>
				</trkpt>
				<trkpt lat="45.239610" lon="2.480190">
					<ele>836</ele>
					<time>2018-06-23T03:41:04Z</time>
				</trkpt>
				<trkpt lat="45.239550" lon="2.480390">
					<ele>838</ele>
					<time>2018-06-23T03:42:04Z</time>
				</trkpt>
				<trkpt lat="45.239490" lon="2.480560">
					<ele>839</ele>
					<time>2018-06-23T03:43:04Z</time>
				</trkpt>
				<trkpt lat="45.239450" lon="2.480720">
					<ele>840</ele>
					<time>2018-06-23T03:44:04Z</time>
				</trkpt>
				<trkpt lat="45.239420" lon="2.480920">
					<ele>840</ele>
					<time>2018-06-23T03:45:04Z</time>
				</trkpt>
				<trkpt lat="45.239400" lon="2.481080">
					<ele>841</ele>
					<time>2018-06-23T03:46:04Z</time>
				</trkpt>
				<trkpt lat="45.239400" lon="2.481260">
					<ele>841</ele>
					<time>2018-06-23T03:47:04Z</time>
				</trkpt>
				<trkpt lat="45.239400" lon="2.481440">
					<ele>840</ele>
					<time>2018-06-23T03:48:04Z</time>
				</trkpt>
				<trkpt lat="45.239440" lon="2.481950">
					<ele>840</ele>
					<time>2018-06-23T03:49:04Z</time>
				</trkpt>
				<trkpt lat="45.239490" lon="2.482300">
					<ele>839</ele>
					<time>2018-06-23T03:50:04Z</time>
				</trkpt>
				<trkpt lat="45.239560" lon="2.482710">
					<ele>836</ele>
					<time>2018-06-23T03:51:04Z</time>
				</trkpt>
				<trkpt lat="45.239610" lon="2.483020">
					<ele>834</ele>
					<time>2018-06-23T03:52:04Z</time>
				</trkpt>
				<trkpt lat="45.239620" lon="2.483100">
					<ele>833</ele>
					<time>2018-06-23T03:53:04Z</time>
				</trkpt>
				<trkpt lat="45.239610" lon="2.483180">
					<ele>834</ele>
					<time>2018-06-23T03:54:04Z</time>
				</trkpt>
				<trkpt lat="45.239580" lon="2.483410">
					<ele>834</ele>
					<time>2018-06-23T03:55:04Z</time>
				</trkpt>
				<trkpt lat="45.239540" lon="2.483620">
					<ele>834</ele>
					<time>2018-06-23T03:56:04Z</time>
				</trkpt>
				<trkpt lat="45.239520" lon="2.483740">
					<ele>834</ele>
					<time>2018-06-23T03:57:04Z</time>
				</trkpt>
				<trkpt lat="45.239510" lon="2.483880">
					<ele>833</ele>
					<time>2018-06-23T03:58:04Z</time>
				</trkpt>
				<trkpt lat="45.239470" lon="2.484090">
					<ele>833</ele>
					<time>2018-06-23T03:59:04Z</time>
				</trkpt>
				<trkpt lat="45.239450" lon="2.484210">
					<ele>833</ele>
					<time>2018-06-23T04:00:04Z</time>
				</trkpt>
				<trkpt lat="45.239410" lon="2.484380">
					<ele>835</ele>
					<time>2018-06-23T04:01:04Z</time>
				</trkpt>
				<trkpt lat="45.239400" lon="2.484480">
					<ele>835</ele>
					<time>2018-06-23T04:02:04Z</time>
				</trkpt>
				<trkpt lat="45.239400" lon="2.484590">
					<ele>835</ele>
					<time>2018-06-23T04:03:04Z</time>
				</trkpt>
				<trkpt lat="45.239420" lon="2.484690">
					<ele>833</ele>
					<time>2018-06-23T04:04:04Z</time>
				</trkpt>
				<trkpt lat="45.239460" lon="2.484800">
					<ele>831</ele>
					<time>2018-06-23T04:05:04Z</time>
				</trkpt>
				<trkpt lat="45.239540" lon="2.484960">
					<ele>826</ele>
					<time>2018-06-23T04:06:04Z</time>
				</trkpt>
				<trkpt lat="45.239570" lon="2.485030">
					<ele>824</ele>
					<time>2018-06-23T04:07:04Z</time>
				</trkpt>
				<trkpt lat="45.239610" lon="2.485120">
					<ele>822</ele>
					<time>2018-06-23T04:08:04Z</time>
				</trkpt>
				<trkpt lat="45.239640" lon="2.485220">
					<ele>821</ele>
					<time>2018-06-23T04:09:04Z</time>
				</trkpt>
				<trkpt lat="45.239730" lon="2.485530">
					<ele>819</ele>
					<time>2018-06-23T04:10:04Z</time>
				</trkpt>
				<trkpt lat="45.239780" lon="2.485740">
					<ele>819</ele>
					<time>2018-06-23T04:11:04Z</time>
				</trkpt>
				<trkpt lat="45.239890" lon="2.486080">
					<ele>818</ele>
					<time>2018-06-23T04:12:04Z</time>
				</trkpt>
				<trkpt lat="45.239960" lon="2.486350">
					<ele>817</ele>
					<time>2018-06-23T04:13:04Z</time>
				</trkpt>
				<trkpt lat="45.240020" lon="2.486540">
					<ele>817</ele>
					<time>2018-06-23T04:14:04Z</time>
				</trkpt>
				<trkpt lat="45.240090" lon="2.486680">
					<ele>816</ele>
					<time>2018-06-23T04:15:04Z</time>
				</trkpt>
				<trkpt lat="45.240170" lon="2.486770">
					<ele>815</ele>
					<time>2018-06-23T04:16:04Z</time>
				</trkpt>
				<trkpt lat="45.240240" lon="2.486860">
					<ele>813</ele>
					<time>2018-06-23T04:17:04Z</time>
				</trkpt>
				<trkpt lat="45.240340" lon="2.486990">
					<ele>812</ele>
					<time>2018-06-23T04:18:04Z</time>
				</trkpt>
				<trkpt lat="45.240460" lon="2.487120">
					<ele>810</ele>
					<time>2018-06-23T04:19:04Z</time>
				</trkpt>
				<trkpt lat="45.240530" lon="2.487220">
					<ele>808</ele>
					<time>2018-06-23T04:20:04Z</time>
				</trkpt>
				<trkpt lat="45.240600" lon="2.487350">
					<ele>808</ele>
					<time>2018-06-23T04:21:04Z</time>
				</trkpt>
				<trkpt lat="45.240700" lon="2.487580">
					<ele>807</ele>
					<time>2018-06-23T04:22:04Z</time>
				</trkpt>
				<trkpt lat="45.240770" lon="2.487840">
					<ele>807</ele>
					<time>2018-06-23T04:23:04Z</time>
				</trkpt>
				<trkpt lat="45.240850" lon="2.488120">
					<ele>806</ele>
					<time>2018-06-23T04:24:04Z</time>
				</trkpt>
				<trkpt lat="45.240910" lon="2.488350">
					<ele>805</ele>
					<time>2018-06-23T04:25:04Z</time>
				</trkpt>
				<trkpt lat="45.240990" lon="2.488590">
					<ele>803</ele>
					<time>2018-06-23T04:26:04Z</time>
				</trkpt>
				<trkpt lat="45.241060" lon="2.488910">
					<ele>800</ele>
					<time>2018-06-23T04:27:04Z</time>
				</trkpt>
				<trkpt lat="45.241120" lon="2.489250">
					<ele>797</ele>
					<time>2018-06-23T04:28:04Z</time>
				</trkpt>
				<trkpt lat="45.241150" lon="2.489510">
					<ele>795</ele>
					<time>2018-06-23T04:29:04Z</time>
				</trkpt>
				<trkpt lat="45.241140" lon="2.489710">
					<ele>794</ele>
					<time>2018-06-23T04:30:04Z</time>
				</trkpt>
				<trkpt lat="45.241120" lon="2.489860">
					<ele>795</ele>
					<time>2018-06-23T04:31:04Z</time>
				</trkpt>
				<trkpt lat="45.241090" lon="2.490070">
					<ele>794</ele>
					<time>2018-06-23T04:32:04Z</time>
				</trkpt>
				<trkpt lat="45.241080" lon="2.490380">
					<ele>791</ele>
					<time>2018-06-23T04:33:04Z</time>
				</trkpt>
				<trkpt lat="45.240760" lon="2.491430">
					<ele>794</ele>
					<time>2018-06-23T04:34:04Z</time>
				</trkpt>
				<trkpt lat="45.240770" lon="2.491600">
					<ele>792</ele>
					<time>2018-06-23T04:35:04Z</time>
				</trkpt>
				<trkpt lat="45.240790" lon="2.491820">
					<ele>789</ele>
					<time>2018-06-23T04:36:04Z</time>
				</trkpt>
				<trkpt lat="45.240750" lon="2.492100">
					<ele>786</ele>
					<time>2018-06-23T04:37:04Z</time>
				</trkpt>
				<trkpt lat="45.240770" lon="2.492240">
					<ele>784</ele>
					<time>2018-06-23T04:38:04Z</time>
				</trkpt>
				<trkpt lat="45.240750" lon="2.492380">
					<ele>783</ele>
					<time>2018-06-23T04:39:04Z</time>
				</trkpt>
				<trkpt lat="45.240700" lon="2.492510">
					<ele>782</ele>
					<time>2018-06-23T04:40:04Z</time>
				</trkpt>
				<trkpt lat="45.240620" lon="2.492640">
					<ele>782</ele>
					<time>2018-06-23T04:41:04Z</time>
				</trkpt>
				<trkpt lat="45.240580" lon="2.492690">
					<ele>782</ele>
					<time>2018-06-23T04:42:04Z</time>
				</trkpt>
				<trkpt lat="45.240500" lon="2.492790">
					<ele>782</ele>
					<time>2018-06-23T04:43:04Z</time>
				</trkpt>
				<trkpt lat="45.240400" lon="2.492880">
					<ele>783</ele>
					<time>2018-06-23T04:44:04Z</time>
				</trkpt>
				<trkpt lat="45.240340" lon="2.492980">
					<ele>783</ele>
					<time>2018-06-23T04:45:04Z</time>
				</trkpt>
				<trkpt lat="45.240300" lon="2.493070">
					<ele>783</ele>
					<time>2018-06-23T04:46:04Z</time>
				</trkpt>
				<trkpt lat="45.240270" lon="2.493170">
					<ele>783</ele>
					<time>2018-06-23T04:47:04Z</time>
				</trkpt>
				<trkpt lat="45.240250" lon="2.493300">
					<ele>783</ele>
					<time>2018-06-23T04:48:04Z</time>
				</trkpt>
				<trkpt lat="45.240260" lon="2.493460">
					<ele>781</ele>
					<time>2018-06-23T04:49:04Z</time>
				</trkpt>
				<trkpt lat="45.240270" lon="2.493600">
					<ele>780</ele>
					<time>2018-06-23T04:50:04Z</time>
				</trkpt>
				<trkpt lat="45.240270" lon="2.493760">
					<ele>778</ele>
					<time>2018-06-23T04:51:04Z</time>
				</trkpt>
				<trkpt lat="45.240260" lon="2.493910">
					<ele>777</ele>
					<time>2018-06-23T04:52:04Z</time>
				</trkpt>
				<trkpt lat="45.240240" lon="2.494010">
					<ele>776</ele>
					<time>2018-06-23T04:53:04Z</time>
				</trkpt>
				<trkpt lat="45.240210" lon="2.494100">
					<ele>777</ele>
					<time>2018-06-23T04:54:04Z</time>
				</trkpt>
				<trkpt lat="45.240190" lon="2.494170">
					<ele>777</ele>
					<time>2018-06-23T04:55:04Z</time>
				</trkpt>
				<trkpt lat="45.240150" lon="2.494260">
					<ele>777</ele>
					<time>2018-06-23T04:56:04Z</time>
				</trkpt>
				<trkpt lat="45.240100" lon="2.494320">
					<ele>778</ele>
					<time>2018-06-23T04:57:04Z</time>
				</trkpt>
				<trkpt lat="45.240040" lon="2.494410">
					<ele>778</ele>
					<time>2018-06-23T04:58:04Z</time>
				</trkpt>
				<trkpt lat="45.239990" lon="2.494490">
					<ele>779</ele>
					<time>2018-06-23T04:59:04Z</time>
				</trkpt>
				<trkpt lat="45.239920" lon="2.494590">
					<ele>780</ele>
					<time>2018-06-23T05:00:04Z</time>
				</trkpt>
				<trkpt lat="45.239870" lon="2.494690">
					<ele>781</ele>
					<time>2018-06-23T05:01:04Z</time>
				</trkpt>
				<trkpt lat="45.239830" lon="2.494820">
					<ele>781</ele>
					<time>2018-06-23T05:02:04Z</time>
				</trkpt>
				<trkpt lat="45.239810" lon="2.494890">
					<ele>781</ele>
					<time>2018-06-23T05:03:04Z</time>
				</trkpt>
				<trkpt lat="45.239800" lon="2.495030">
					<ele>780</ele>
					<time>2018-06-23T05:04:04Z</time>
				</trkpt>
				<trkpt lat="45.239790" lon="2.495160">
					<ele>779</ele>
					<time>2018-06-23T05:05:04Z</time>
				</trkpt>
				<trkpt lat="45.239800" lon="2.495270">
					<ele>777</ele>
					<time>2018-06-23T05:06:04Z</time>
				</trkpt>
				<trkpt lat="45.239810" lon="2.495390">
					<ele>775</ele>
					<time>2018-06-23T05:07:04Z</time>
				</trkpt>
				<trkpt lat="45.239820" lon="2.495540">
					<ele>773</ele>
					<time>2018-06-23T05:08:04Z</time>
				</trkpt>
				<trkpt lat="45.239840" lon="2.495660">
					<ele>770</ele>
					<time>2018-06-23T05:09:04Z</time>
				</trkpt>
				<trkpt lat="45.239840" lon="2.495780">
					<ele>769</ele>
					<time>2018-06-23T05:10:04Z</time>
				</trkpt>
				<trkpt lat="45.239840" lon="2.495900">
					<ele>768</ele>
					<time>2018-06-23T05:11:04Z</time>
				</trkpt>
				<trkpt lat="45.239830" lon="2.495990">
					<ele>767</ele>
					<time>2018-06-23T05:12:04Z</time>
				</trkpt>
				<trkpt lat="45.239820" lon="2.496110">
					<ele>766</ele>
					<time>2018-06-23T05:13:04Z</time>
				</trkpt>
				<trkpt lat="45.239800" lon="2.496200">
					<ele>766</ele>
					<time>2018-06-23T05:14:04Z</time>
				</trkpt>
				<trkpt lat="45.239790" lon="2.496310">
					<ele>765</ele>
					<time>2018-06-23T05:15:04Z</time>
				</trkpt>
				<trkpt lat="45.239760" lon="2.496420">
					<ele>766</ele>
					<time>2018-06-23T05:16:04Z</time>
				</trkpt>
				<trkpt lat="45.239740" lon="2.496520">
					<ele>765</ele>
					<time>2018-06-23T05:17:04Z</time>
				</trkpt>
				<trkpt lat="45.239680" lon="2.496700">
					<ele>766</ele>
					<time>2018-06-23T05:18:04Z</time>
				</trkpt>
				<trkpt lat="45.239650" lon="2.496810">
					<ele>766</ele>
					<time>2018-06-23T05:19:04Z</time>
				</trkpt>
				<trkpt lat="45.239610" lon="2.496910">
					<ele>766</ele>
					<time>2018-06-23T05:20:04Z</time>
				</trkpt>
				<trkpt lat="45.239570" lon="2.497010">
					<ele>767</ele>
					<time>2018-06-23T05:21:04Z</time>
				</trkpt>
				<trkpt lat="45.239530" lon="2.497120">
					<ele>767</ele>
					<time>2018-06-23T05:22:04Z</time>
				</trkpt>
				<trkpt lat="45.239500" lon="2.497250">
					<ele>767</ele>
					<time>2018-06-23T05:23:04Z</time>
				</trkpt>
				<trkpt lat="45.239480" lon="2.497370">
					<ele>766</ele>
					<time>2018-06-23T05:24:04Z</time>
				</trkpt>
				<trkpt lat="45.239470" lon="2.497510">
					<ele>765</ele>
					<time>2018-06-23T05:25:04Z</time>
				</trkpt>
				<trkpt lat="45.239460" lon="2.497630">
					<ele>764</ele>
					<time>2018-06-23T05:26:04Z</time>
				</trkpt>
				<trkpt lat="45.239450" lon="2.497760">
					<ele>762</ele>
					<time>2018-06-23T05:27:04Z</time>
				</trkpt>
				<trkpt lat="45.239420" lon="2.497960">
					<ele>761</ele>
					<time>2018-06-23T05:28:04Z</time>
				</trkpt>
				<trkpt lat="45.239400" lon="2.498080">
					<ele>760</ele>
					<time>2018-06-23T05:29:04Z</time>
				</trkpt>
				<trkpt lat="45.239350" lon="2.498270">
					<ele>759</ele>
					<time>2018-06-23T05:30:04Z</time>
				</trkpt>
				<trkpt lat="45.239300" lon="2.498460">
					<ele>759</ele>
					<time>2018-06-23T05:31:04Z</time>
				</trkpt>
				<trkpt lat="45.239230" lon="2.498760">
					<ele>757</ele>
					<time>2018-06-23T05:32:04Z</time>
				</trkpt>
				<trkpt lat="45.239210" lon="2.498840">
					<ele>756</ele>
					<time>2018-06-23T05:33:04Z</time>
				</trkpt>
				<trkpt lat="45.239180" lon="2.498920">
					<ele>756</ele>
					<time>2018-06-23T05:34:04Z</time>
				</trkpt>
				<trkpt lat="45.239150" lon="2.499010">
					<ele>755</ele>
					<time>2018-06-23T05:35:04Z</time>
				</trkpt>
				<trkpt lat="45.239110" lon="2.499070">
					<ele>755</ele>
					<time>2018-06-23T05:36:04Z</time>
				</trkpt>
				<trkpt lat="45.239070" lon="2.499130">
					<ele>756</ele>
					<time>2018-06-23T05:37:04Z</time>
				</trkpt>
				<trkpt lat="45.239010" lon="2.499280">
					<ele>757</ele>
					<time>2018-06-23T05:38:04Z</time>
				</trkpt>
				<trkpt lat="45.239000" lon="2.499310">
					<ele>757</ele>
					<time>2018-06-23T05:39:04Z</time>
				</trkpt>
				<trkpt lat="45.238980" lon="2.499350">
					<ele>758</ele>
					<time>2018-06-23T05:40:04Z</time>
				</trkpt>
				<trkpt lat="45.238980" lon="2.499420">
					<ele>758</ele>
					<time>2018-06-23T05:41:04Z</time>
				</trkpt>
				<trkpt lat="45.238980" lon="2.499470">
					<ele>758</ele>
					<time>2018-06-23T05:42:04Z</time>
				</trkpt>
				<trkpt lat="45.238990" lon="2.499530">
					<ele>757</ele>
					<time>2018-06-23T05:43:04Z</time>
				</trkpt>
				<trkpt lat="45.239000" lon="2.499590">
					<ele>757</ele>
					<time>2018-06-23T05:44:04Z</time>
				</trkpt>
				<trkpt lat="45.239010" lon="2.499630">
					<ele>756</ele>
					<time>2018-06-23T05:45:04Z</time>
				</trkpt>
				<trkpt lat="45.239020" lon="2.499670">
					<ele>756</ele>
					<time>2018-06-23T05:46:04Z</time>
				</trkpt>
				<trkpt lat="45.239060" lon="2.499740">
					<ele>755</ele>
					<time>2018-06-23T05:47:04Z</time>
				</trkpt>
				<trkpt lat="45.239100" lon="2.499780">
					<ele>755</ele>
					<time>2018-06-23T05:48:04Z</time>
				</trkpt>
				<trkpt lat="45.239140" lon="2.499810">
					<ele>754</ele>
					<time>2018-06-23T05:49:04Z</time>
				</trkpt>
				<trkpt lat="45.239180" lon="2.499820">
					<ele>754</ele>
					<time>2018-06-23T05:50:04Z</time>
				</trkpt>
				<trkpt lat="45.239230" lon="2.499830">
					<ele>753</ele>
					<time>2018-06-23T05:51:04Z</time>
				</trkpt>
				<trkpt lat="45.239280" lon="2.499830">
					<ele>753</ele>
					<time>2018-06-23T05:52:04Z</time>
				</trkpt>
				<trkpt lat="45.239330" lon="2.499810">
					<ele>753</ele>
					<time>2018-06-23T05:53:04Z</time>
				</trkpt>
				<trkpt lat="45.239390" lon="2.499790">
					<ele>752</ele>
					<time>2018-06-23T05:54:04Z</time>
				</trkpt>
				<trkpt lat="45.239470" lon="2.499770">
					<ele>752</ele>
					<time>2018-06-23T05:55:04Z</time>
				</trkpt>
				<trkpt lat="45.239540" lon="2.499750">
					<ele>751</ele>
					<time>2018-06-23T05:56:04Z</time>
				</trkpt>
				<trkpt lat="45.239600" lon="2.499740">
					<ele>751</ele>
					<time>2018-06-23T05:57:04Z</time>
				</trkpt>
				<trkpt lat="45.239670" lon="2.499740">
					<ele>751</ele>
					<time>2018-06-23T05:58:04Z</time>
				</trkpt>
				<trkpt lat="45.239760" lon="2.499750">
					<ele>750</ele>
					<time>2018-06-23T05:59:04Z</time>
				</trkpt>
				<trkpt lat="45.239870" lon="2.499760">
					<ele>750</ele>
					<time>2018-06-23T06:00:04Z</time>
				</trkpt>
				<trkpt lat="45.240000" lon="2.499790">
					<ele>749</ele>
					<time>2018-06-23T06:01:04Z</time>
				</trkpt>
				<trkpt lat="45.240120" lon="2.499840">
					<ele>749</ele>
					<time>2018-06-23T06:02:04Z</time>
				</trkpt>
				<trkpt lat="45.240210" lon="2.499910">
					<ele>748</ele>
					<time>2018-06-23T06:03:04Z</time>
				</trkpt>
				<trkpt lat="45.240280" lon="2.500020">
					<ele>749</ele>
					<time>2018-06-23T06:04:04Z</time>
				</trkpt>
				<trkpt lat="45.240330" lon="2.500160">
					<ele>750</ele>
					<time>2018-06-23T06:05:04Z</time>
				</trkpt>
				<trkpt lat="45.240370" lon="2.500300">
					<ele>751</ele>
					<time>2018-06-23T06:06:04Z</time>
				</trkpt>
				<trkpt lat="45.240390" lon="2.500470">
					<ele>753</ele>
					<time>2018-06-23T06:07:04Z</time>
				</trkpt>
				<trkpt lat="45.240440" lon="2.500720">
					<ele>756</ele>
					<time>2018-06-23T06:08:04Z</time>
				</trkpt>
				<trkpt lat="45.240490" lon="2.501030">
					<ele>758</ele>
					<time>2018-06-23T06:09:04Z</time>
				</trkpt>
				<trkpt lat="45.240530" lon="2.501320">
					<ele>759</ele>
					<time>2018-06-23T06:10:04Z</time>
				</trkpt>
				<trkpt lat="45.240580" lon="2.501540">
					<ele>759</ele>
					<time>2018-06-23T06:11:04Z</time>
				</trkpt>
				<trkpt lat="45.240640" lon="2.501770">
					<ele>758</ele>
					<time>2018-06-23T06:12:04Z</time>
				</trkpt>
				<trkpt lat="45.240750" lon="2.502080">
					<ele>756</ele>
					<time>2018-06-23T06:13:04Z</time>
				</trkpt>
				<trkpt lat="45.240880" lon="2.502410">
					<ele>754</ele>
					<time>2018-06-23T06:14:04Z</time>
				</trkpt>
				<trkpt lat="45.240990" lon="2.502760">
					<ele>759</ele>
					<time>2018-06-23T06:15:04Z</time>
				</trkpt>
				<trkpt lat="45.241070" lon="2.503100">
					<ele>764</ele>
					<time>2018-06-23T06:16:04Z</time>
				</trkpt>
				<trkpt lat="45.241120" lon="2.503330">
					<ele>766</ele>
					<time>2018-06-23T06:17:04Z</time>
				</trkpt>
				<trkpt lat="45.241160" lon="2.503480">
					<ele>766</ele>
					<time>2018-06-23T06:18:04Z</time>
				</trkpt>
				<trkpt lat="45.241210" lon="2.503630">
					<ele>766</ele>
					<time>2018-06-23T06:19:04Z</time>
				</trkpt>
				<trkpt lat="45.241240" lon="2.503680">
					<ele>766</ele>
					<time>2018-06-23T06:20:04Z</time>
				</trkpt>
				<trkpt lat="45.241280" lon="2.503740">
					<ele>765</ele>
					<time>2018-06-23T06:21:04Z</time>
				</trkpt>
				<trkpt lat="45.241330" lon="2.503780">
					<ele>764</ele>
					<time>2018-06-23T06:22:04Z</time>
				</trkpt>
				<trkpt lat="45.241380" lon="2.503820">
					<ele>763</ele>
					<time>2018-06-23T06:23:04Z</time>
				</trkpt>
				<trkpt lat="45.241460" lon="2.503840">
					<ele>761</ele>
					<time>2018-06-23T06:24:04Z</time>
				</trkpt>
				<trkpt lat="45.241590" lon="2.503870">
					<ele>758</ele>
					<time>2018-06-23T06:25:04Z</time>
				</trkpt>
				<trkpt lat="45.241640" lon="2.503890">
					<ele>756</ele>
					<time>2018-06-23T06:26:04Z</time>
				</trkpt>
				<trkpt lat="45.241750" lon="2.503940">
					<ele>759</ele>
					<time>2018-06-23T06:27:04Z</time>
				</trkpt>
				<trkpt lat="45.241830" lon="2.504010">
					<ele>761</ele>
					<time>2018-06-23T06:28:04Z</time>
				</trkpt>
				<trkpt lat="45.241860" lon="2.504080">
					<ele>762</ele>
					<time>2018-06-23T06:29:04Z</time>
				</trkpt>
				<trkpt lat="45.241890" lon="2.504150">
					<ele>763</ele>
					<time>2018-06-23T06:30:04Z</time>
				</trkpt>
				<trkpt lat="45.241900" lon="2.504210">
					<ele>764</ele>
					<time>2018-06-23T06:31:04Z</time>
				</trkpt>
				<trkpt lat="45.241920" lon="2.504270">
					<ele>765</ele>
					<time>2018-06-23T06:32:04Z</time>
				</trkpt>
				<trkpt lat="45.241920" lon="2.504380">
					<ele>765</ele>
					<time>2018-06-23T06:33:04Z</time>
				</trkpt>
				<trkpt lat="45.241900" lon="2.504510">
					<ele>765</ele>
					<time>2018-06-23T06:34:04Z</time>
				</trkpt>
				<trkpt lat="45.241860" lon="2.504730">
					<ele>764</ele>
					<time>2018-06-23T06:35:04Z</time>
				</trkpt>
				<trkpt lat="45.241810" lon="2.505010">
					<ele>763</ele>
					<time>2018-06-23T06:36:04Z</time>
				</trkpt>
				<trkpt lat="45.241780" lon="2.505240">
					<ele>764</ele>
					<time>2018-06-23T06:37:04Z</time>
				</trkpt>
				<trkpt lat="45.241760" lon="2.505380">
					<ele>765</ele>
					<time>2018-06-23T06:38:04Z</time>
				</trkpt>
				<trkpt lat="45.241750" lon="2.505550">
					<ele>766</ele>
					<time>2018-06-23T06:39:04Z</time>
				</trkpt>
				<trkpt lat="45.241740" lon="2.505740">
					<ele>767</ele>
					<time>2018-06-23T06:40:04Z</time>
				</trkpt>
				<trkpt lat="45.241740" lon="2.505820">
					<ele>768</ele>
					<time>2018-06-23T06:41:04Z</time>
				</trkpt>
				<trkpt lat="45.241740" lon="2.505950">
					<ele>769</ele>
					<time>2018-06-23T06:42:04Z</time>
				</trkpt>
				<trkpt lat="45.241770" lon="2.506300">
					<ele>771</ele>
					<time>2018-06-23T06:43:04Z</time>
				</trkpt>
				<trkpt lat="45.241830" lon="2.506770">
					<ele>775</ele>
					<time>2018-06-23T06:44:04Z</time>
				</trkpt>
				<trkpt lat="45.241880" lon="2.507210">
					<ele>778</ele>
					<time>2018-06-23T06:45:04Z</time>
				</trkpt>
				<trkpt lat="45.241940" lon="2.507580">
					<ele>781</ele>
					<time>2018-06-23T06:46:04Z</time>
				</trkpt>
				<trkpt lat="45.241980" lon="2.507820">
					<ele>782</ele>
					<time>2018-06-23T06:47:04Z</time>
				</trkpt>
				<trkpt lat="45.242020" lon="2.507990">
					<ele>783</ele>
					<time>2018-06-23T06:48:04Z</time>
				</trkpt>
				<trkpt lat="45.242100" lon="2.508240">
					<ele>785</ele>
					<time>2018-06-23T06:49:04Z</time>
				</trkpt>
				<trkpt lat="45.242230" lon="2.508650">
					<ele>788</ele>
					<time>2018-06-23T06:50:04Z</time>
				</trkpt>
				<trkpt lat="45.242360" lon="2.509160">
					<ele>789</ele>
					<time>2018-06-23T06:51:04Z</time>
				</trkpt>
				<trkpt lat="45.242580" lon="2.509970">
					<ele>790</ele>
					<time>2018-06-23T06:52:04Z</time>
				</trkpt>
				<trkpt lat="45.242710" lon="2.510460">
					<ele>794</ele>
					<time>2018-06-23T06:53:04Z</time>
				</trkpt>
				<trkpt lat="45.242870" lon="2.511110">
					<ele>798</ele>
					<time>2018-06-23T06:54:04Z</time>
				</trkpt>
				<trkpt lat="45.243010" lon="2.511820">
					<ele>803</ele>
					<time>2018-06-23T06:55:04Z</time>
				</trkpt>
				<trkpt lat="45.243140" lon="2.512430">
					<ele>807</ele>
					<time>2018-06-23T06:56:04Z</time>
				</trkpt>
				<trkpt lat="45.243230" lon="2.512880">
					<ele>808</ele>
					<time>2018-06-23T06:57:04Z</time>
				</trkpt>
				<trkpt lat="45.243360" lon="2.513400">
					<ele>810</ele>
					<time>2018-06-23T06:58:04Z</time>
				</trkpt>
				<trkpt lat="45.243470" lon="2.513820">
					<ele>811</ele>
					<time>2018-06-23T06:59:04Z</time>
				</trkpt>
				<trkpt lat="45.243580" lon="2.514250">
					<ele>812</ele>
					<time>2018-06-23T07:00:04Z</time>
				</trkpt>
				<trkpt lat="45.243690" lon="2.514720">
					<ele>816</ele>
					<time>2018-06-23T07:01:04Z</time>
				</trkpt>
				<trkpt lat="45.243750" lon="2.515060">
					<ele>818</ele>
					<time>2018-06-23T07:02:04Z</time>
				</trkpt>
				<trkpt lat="45.243780" lon="2.515290">
					<ele>819</ele>
					<time>2018-06-23T07:03:04Z</time>
				</trkpt>
				<trkpt lat="45.243800" lon="2.515470">
					<ele>820</ele>
					<time>2018-06-23T07:04:04Z</time>
				</trkpt>
				<trkpt lat="45.243800" lon="2.515660">
					<ele>820</ele>
					<time>2018-06-23T07:05:04Z</time>
				</trkpt>
				<trkpt lat="45.243810" lon="2.515870">
					<ele>820</ele>
					<time>2018-06-23T07:06:04Z</time>
				</trkpt>
				<trkpt lat="45.243820" lon="2.515990">
					<ele>821</ele>
					<time>2018-06-23T07:07:04Z</time>
				</trkpt>
				<trkpt lat="45.243830" lon="2.516130">
					<ele>822</ele>
					<time>2018-06-23T07:08:04Z</time>
				</trkpt>
				<trkpt lat="45.243870" lon="2.516370">
					<ele>824</ele>
					<time>2018-06-23T07:09:04Z</time>
				</trkpt>
				<trkpt lat="45.243920" lon="2.516640">
					<ele>827</ele>
					<time>2018-06-23T07:10:04Z</time>
				</trkpt>
				<trkpt lat="45.243990" lon="2.517050">
					<ele>830</ele>
					<time>2018-06-23T07:11:04Z</time>
				</trkpt>
				<trkpt lat="45.244020" lon="2.517280">
					<ele>831</ele>
					<time>2018-06-23T07:12:04Z</time>
				</trkpt>
				<trkpt lat="45.244040" lon="2.517480">
					<ele>831</ele>
					<time>2018-06-23T07:13:04Z</time>
				</trkpt>
				<trkpt lat="45.244100" lon="2.518090">
					<ele>832</ele>
					<time>2018-06-23T07:14:04Z</time>
				</trkpt>
				<trkpt lat="45.244150" lon="2.518620">
					<ele>835</ele>
					<time>2018-06-23T07:15:04Z</time>
				</trkpt>
				<trkpt lat="45.244150" lon="2.518770">
					<ele>835</ele>
					<time>2018-06-23T07:16:04Z</time>
				</trkpt>
				<trkpt lat="45.244130" lon="2.518920">
					<ele>835</ele>
					<time>2018-06-23T07:17:04Z</time>
				</trkpt>
				<trkpt lat="45.244100" lon="2.519050">
					<ele>834</ele>
					<time>2018-06-23T07:18:04Z</time>
				</trkpt>
				<trkpt lat="45.244070" lon="2.519180">
					<ele>834</ele>
					<time>2018-06-23T07:19:04Z</time>
				</trkpt>
				<trkpt lat="45.244060" lon="2.519290">
					<ele>834</ele>
					<time>2018-06-23T07:20:04Z</time>
				</trkpt>
				<trkpt lat="45.244050" lon="2.519410">
					<ele>835</ele>
					<time>2018-06-23T07:21:04Z</time>
				</trkpt>
				<trkpt lat="45.244060" lon="2.519570">
					<ele>837</ele>
					<time>2018-06-23T07:22:04Z</time>
				</trkpt>
				<trkpt lat="45.244060" lon="2.519720">
					<ele>838</ele>
					<time>2018-06-23T07:23:04Z</time>
				</trkpt>
				<trkpt lat="45.244080" lon="2.519980">
					<ele>841</ele>
					<time>2018-06-23T07:24:04Z</time>
				</trkpt>
				<trkpt lat="45.244080" lon="2.520100">
					<ele>842</ele>
					<time>2018-06-23T07:25:04Z</time>
				</trkpt>
				<trkpt lat="45.244060" lon="2.520220">
					<ele>842</ele>
					<time>2018-06-23T07:26:04Z</time>
				</trkpt>
				<trkpt lat="45.244040" lon="2.520370">
					<ele>843</ele>
					<time>2018-06-23T07:27:04Z</time>
				</trkpt>
				<trkpt lat="45.243990" lon="2.520520">
					<ele>843</ele>
					<time>2018-06-23T07:28:04Z</time>
				</trkpt>
				<trkpt lat="45.243940" lon="2.520710">
					<ele>843</ele>
					<time>2018-06-23T07:29:04Z</time>
				</trkpt>
				<trkpt lat="45.243840" lon="2.521010">
					<ele>842</ele>
					<time>2018-06-23T07:30:04Z</time>
				</trkpt>
				<trkpt lat="45.243760" lon="2.521230">
					<ele>842</ele>
					<time>2018-06-23T07:31:04Z</time>
				</trkpt>
				<trkpt lat="45.243710" lon="2.521450">
					<ele>843</ele>
					<time>2018-06-23T07:32:04Z</time>
				</trkpt>
				<trkpt lat="45.243670" lon="2.521690">
					<ele>844</ele>
					<time>2018-06-23T07:33:04Z</time>
				</trkpt>
				<trkpt lat="45.243620" lon="2.522150">
					<ele>846</ele>
					<time>2018-06-23T07:34:04Z</time>
				</trkpt>
				<trkpt lat="45.243590" lon="2.522500">
					<ele>848</ele>
					<time>2018-06-23T07:35:04Z</time>
				</trkpt>
				<trkpt lat="45.243570" lon="2.522810">
					<ele>850</ele>
					<time>2018-06-23T07:36:04Z</time>
				</trkpt>
				<trkpt lat="45.243560" lon="2.523010">
					<ele>851</ele>
					<time>2018-06-23T07:37:04Z</time>
				</trkpt>
				<trkpt lat="45.243550" lon="2.523170">
					<ele>852</ele>
					<time>2018-06-23T07:38:04Z</time>
				</trkpt>
				<trkpt lat="45.243550" lon="2.523360">
					<ele>854</ele>
					<time>2018-06-23T07:39:04Z</time>
				</trkpt>
				<trkpt lat="45.243530" lon="2.523520">
					<ele>855</ele>
					<time>2018-06-23T07:40:04Z</time>
				</trkpt>
				<trkpt lat="45.243500" lon="2.523670">
					<ele>855</ele>
					<time>2018-06-23T07:41:04Z</time>
				</trkpt>
				<trkpt lat="45.243460" lon="2.523870">
					<ele>855</ele>
					<time>2018-06-23T07:42:04Z</time>
				</trkpt>
				<trkpt lat="45.243430" lon="2.523990">
					<ele>855</ele>
					<time>2018-06-23T07:43:04Z</time>
				</trkpt>
				<trkpt lat="45.243350" lon="2.524350">
					<ele>855</ele>
					<time>2018-06-23T07:44:04Z</time>
				</trkpt>
				<trkpt lat="45.243310" lon="2.524560">
					<ele>856</ele>
					<time>2018-06-23T07:45:04Z</time>
				</trkpt>
				<trkpt lat="45.243290" lon="2.524760">
					<ele>857</ele>
					<time>2018-06-23T07:46:04Z</time>
				</trkpt>
				<trkpt lat="45.243280" lon="2.524900">
					<ele>857</ele>
					<time>2018-06-23T07:47:04Z</time>
				</trkpt>
				<trkpt lat="45.243290" lon="2.525050">
					<ele>859</ele>
					<time>2018-06-23T07:48:04Z</time>
				</trkpt>
				<trkpt lat="45.243310" lon="2.525180">
					<ele>859</ele>
					<time>2018-06-23T07:49:04Z</time>
				</trkpt>
				<trkpt lat="45.243320" lon="2.525320">
					<ele>860</ele>
					<time>2018-06-23T07:50:04Z</time>
				</trkpt>
				<trkpt lat="45.243350" lon="2.525440">
					<ele>861</ele>
					<time>2018-06-23T07:51:04Z</time>
				</trkpt>
				<trkpt lat="45.243370" lon="2.525530">
					<ele>862</ele>
					<time>2018-06-23T07:52:04Z</time>
				</trkpt>
				<trkpt lat="45.243400" lon="2.525630">
					<ele>863</ele>
					<time>2018-06-23T07:53:04Z</time>
				</trkpt>
				<trkpt lat="45.243450" lon="2.525760">
					<ele>864</ele>
					<time>2018-06-23T07:54:04Z</time>
				</trkpt>
				<trkpt lat="45.243530" lon="2.525930">
					<ele>867</ele>
					<time>2018-06-23T07:55:04Z</time>
				</trkpt>
				<trkpt lat="45.243600" lon="2.526030">
					<ele>868</ele>
					<time>2018-06-23T07:56:04Z</time>
				</trkpt>
				<trkpt lat="45.243670" lon="2.526150">
					<ele>870</ele>
					<time>2018-06-23T07:57:04Z</time>
				</trkpt>
				<trkpt lat="45.243720" lon="2.526230">
					<ele>871</ele>
					<time>2018-06-23T07:58:04Z</time>
				</trkpt>
				<trkpt lat="45.243790" lon="2.526410">
					<ele>872</ele>
					<time>2018-06-23T07:59:04Z</time>
				</trkpt>
				<trkpt lat="45.243840" lon="2.526530">
					<ele>873</ele>
					<time>2018-06-23T08:00:04Z</time>
				</trkpt>
				<trkpt lat="45.243900" lon="2.526730">
					<ele>874</ele>
					<time>2018-06-23T08:01:04Z</time>
				</trkpt>
				<trkpt lat="45.243980" lon="2.526960">
					<ele>877</ele>
					<time>2018-06-23T08:02:04Z</time>
				</trkpt>
				<trkpt lat="45.244000" lon="2.527060">
					<ele>877</ele>
					<time>2018-06-23T08:03:04Z</time>
				</trkpt>
				<trkpt lat="45.244030" lon="2.527200">
					<ele>879</ele>
					<time>2018-06-23T08:04:04Z</time>
				</trkpt>
				<trkpt lat="45.244040" lon="2.527280">
					<ele>879</ele>
					<time>2018-06-23T08:05:04Z</time>
				</trkpt>
				<trkpt lat="45.244040" lon="2.527390">
					<ele>879</ele>
					<time>2018-06-23T08:06:04Z</time>
				</trkpt>
				<trkpt lat="45.244040" lon="2.527490">
					<ele>880</ele>
					<time>2018-06-23T08:07:04Z</time>
				</trkpt>
				<trkpt lat="45.244030" lon="2.527620">
					<ele>880</ele>
					<time>2018-06-23T08:08:04Z</time>
				</trkpt>
				<trkpt lat="45.244020" lon="2.527750">
					<ele>881</ele>
					<time>2018-06-23T08:09:04Z</time>
				</trkpt>
				<trkpt lat="45.244000" lon="2.527940">
					<ele>882</ele>
					<time>2018-06-23T08:10:04Z</time>
				</trkpt>
				<trkpt lat="45.243980" lon="2.528040">
					<ele>882</ele>
					<time>2018-06-23T08:11:04Z</time>
				</trkpt>
				<trkpt lat="45.243970" lon="2.528170">
					<ele>882</ele>
					<time>2018-06-23T08:12:04Z</time>
				</trkpt>
				<trkpt lat="45.243960" lon="2.528280">
					<ele>883</ele>
					<time>2018-06-23T08:13:04Z</time>
				</trkpt>
				<trkpt lat="45.243970" lon="2.528570">
					<ele>884</ele>
					<time>2018-06-23T08:14:04Z</time>
				</trkpt>
				<trkpt lat="45.243980" lon="2.528820">
					<ele>885</ele>
					<time>2018-06-23T08:15:04Z</time>
				</trkpt>
				<trkpt lat="45.243980" lon="2.529080">
					<ele>885</ele>
					<time>2018-06-23T08:16:04Z</time>
				</trkpt>
				<trkpt lat="45.244000" lon="2.529280">
					<ele>886</ele>
					<time>2018-06-23T08:17:04Z</time>
				</trkpt>
				<trkpt lat="45.244010" lon="2.529390">
					<ele>886</ele>
					<time>2018-06-23T08:18:04Z</time>
				</trkpt>
				<trkpt lat="45.244020" lon="2.529480">
					<ele>887</ele>
					<time>2018-06-23T08:19:04Z</time>
				</trkpt>
				<trkpt lat="45.244040" lon="2.529580">
					<ele>887</ele>
					<time>2018-06-23T08:20:04Z</time>
				</trkpt>
				<trkpt lat="45.244070" lon="2.529670">
					<ele>888</ele>
					<time>2018-06-23T08:21:04Z</time>
				</trkpt>
				<trkpt lat="45.244150" lon="2.529870">
					<ele>890</ele>
					<time>2018-06-23T08:22:04Z</time>
				</trkpt>
				<trkpt lat="45.244260" lon="2.530110">
					<ele>896</ele>
					<time>2018-06-23T08:23:04Z</time>
				</trkpt>
				<trkpt lat="45.244310" lon="2.530280">
					<ele>899</ele>
					<time>2018-06-23T08:24:04Z</time>
				</trkpt>
				<trkpt lat="45.244330" lon="2.530370">
					<ele>901</ele>
					<time>2018-06-23T08:25:04Z</time>
				</trkpt>
				<trkpt lat="45.244340" lon="2.530490">
					<ele>902</ele>
					<time>2018-06-23T08:26:04Z</time>
				</trkpt>
				<trkpt lat="45.244330" lon="2.530580">
					<ele>902</ele>
					<time>2018-06-23T08:27:04Z</time>
				</trkpt>
				<trkpt lat="45.244310" lon="2.530680">
					<ele>902</ele>
					<time>2018-06-23T08:28:04Z</time>
				</trkpt>
				<trkpt lat="45.244280" lon="2.530780">
					<ele>901</ele>
					<time>2018-06-23T08:29:04Z</time>
				</trkpt>
				<trkpt lat="45.244220" lon="2.530890">
					<ele>900</ele>
					<time>2018-06-23T08:30:04Z</time>
				</trkpt>
				<trkpt lat="45.244160" lon="2.531010">
					<ele>899</ele>
					<time>2018-06-23T08:31:04Z</time>
				</trkpt>
				<trkpt lat="45.244070" lon="2.531150">
					<ele>899</ele>
					<time>2018-06-23T08:32:04Z</time>
				</trkpt>
				<trkpt lat="45.243950" lon="2.531330">
					<ele>898</ele>
					<time>2018-06-23T08:33:04Z</time>
				</trkpt>
				<trkpt lat="45.243850" lon="2.531500">
					<ele>898</ele>
					<time>2018-06-23T08:34:04Z</time>
				</trkpt>
				<trkpt lat="45.243770" lon="2.531620">
					<ele>897</ele>
					<time>2018-06-23T08:35:04Z</time>
				</trkpt>
				<trkpt lat="45.243690" lon="2.531790">
					<ele>896</ele>
					<time>2018-06-23T08:36:04Z</time>
				</trkpt>
				<trkpt lat="45.243640" lon="2.531960">
					<ele>896</ele>
					<time>2018-06-23T08:37:04Z</time>
				</trkpt>
				<trkpt lat="45.243610" lon="2.532120">
					<ele>896</ele>
					<time>2018-06-23T08:38:04Z</time>
				</trkpt>
				<trkpt lat="45.243610" lon="2.532250">
					<ele>898</ele>
					<time>2018-06-23T08:39:04Z</time>
				</trkpt>
				<trkpt lat="45.243600" lon="2.532380">
					<ele>899</ele>
					<time>2018-06-23T08:40:04Z</time>
				</trkpt>
				<trkpt lat="45.243610" lon="2.532490">
					<ele>901</ele>
					<time>2018-06-23T08:41:04Z</time>
				</trkpt>
				<trkpt lat="45.243620" lon="2.532630">
					<ele>901</ele>
					<time>2018-06-23T08:42:04Z</time>
				</trkpt>
				<trkpt lat="45.243630" lon="2.532840">
					<ele>902</ele>
					<time>2018-06-23T08:43:04Z</time>
				</trkpt>
				<trkpt lat="45.243660" lon="2.533140">
					<ele>904</ele>
					<time>2018-06-23T08:44:04Z</time>
				</trkpt>
				<trkpt lat="45.243680" lon="2.533350">
					<ele>906</ele>
					<time>2018-06-23T08:45:04Z</time>
				</trkpt>
				<trkpt lat="45.243700" lon="2.533610">
					<ele>908</ele>
					<time>2018-06-23T08:46:04Z</time>
				</trkpt>
				<trkpt lat="45.243720" lon="2.533880">
					<ele>909</ele>
					<time>2018-06-23T08:47:04Z</time>
				</trkpt>
				<trkpt lat="45.243710" lon="2.534230">
					<ele>910</ele>
					<time>2018-06-23T08:48:04Z</time>
				</trkpt>
				<trkpt lat="45.243700" lon="2.534490">
					<ele>912</ele>
					<time>2018-06-23T08:49:04Z</time>
				</trkpt>
				<trkpt lat="45.243670" lon="2.534700">
					<ele>912</ele>
					<time>2018-06-23T08:50:04Z</time>
				</trkpt>
				<trkpt lat="45.243640" lon="2.534910">
					<ele>912</ele>
					<time>2018-06-23T08:51:04Z</time>
				</trkpt>
				<trkpt lat="45.243570" lon="2.535230">
					<ele>914</ele>
					<time>2018-06-23T08:52:04Z</time>
				</trkpt>
				<trkpt lat="45.243500" lon="2.535580">
					<ele>916</ele>
					<time>2018-06-23T08:53:04Z</time>
				</trkpt>
				<trkpt lat="45.243420" lon="2.535910">
					<ele>919</ele>
					<time>2018-06-23T08:54:04Z</time>
				</trkpt>
				<trkpt lat="45.243280" lon="2.536410">
					<ele>922</ele>
					<time>2018-06-23T08:55:04Z</time>
				</trkpt>
				<trkpt lat="45.243190" lon="2.536780">
					<ele>925</ele>
					<time>2018-06-23T08:56:04Z</time>
				</trkpt>
				<trkpt lat="45.243130" lon="2.536940">
					<ele>926</ele>
					<time>2018-06-23T08:57:04Z</time>
				</trkpt>
				<trkpt lat="45.243080" lon="2.537060">
					<ele>926</ele>
					<time>2018-06-23T08:58:04Z</time>
				</trkpt>
				<trkpt lat="45.243020" lon="2.537210">
					<ele>926</ele>
					<time>2018-06-23T08:59:04Z</time>
				</trkpt>
				<trkpt lat="45.242940" lon="2.537340">
					<ele>926</ele>
					<time>2018-06-23T09:00:04Z</time>
				</trkpt>
				<trkpt lat="45.242850" lon="2.537460">
					<ele>925</ele>
					<time>2018-06-23T09:01:04Z</time>
				</trkpt>
				<trkpt lat="45.242760" lon="2.537560">
					<ele>924</ele>
					<time>2018-06-23T09:02:04Z</time>
				</trkpt>
				<trkpt lat="45.242670" lon="2.537660">
					<ele>923</ele>
					<time>2018-06-23T09:03:04Z</time>
				</trkpt>
				<trkpt lat="45.242610" lon="2.537760">
					<ele>923</ele>
					<time>2018-06-23T09:04:04Z</time>
				</trkpt>
				<trkpt lat="45.242580" lon="2.537860">
					<ele>924</ele>
					<time>2018-06-23T09:05:04Z</time>
				</trkpt>
				<trkpt lat="45.242550" lon="2.537960">
					<ele>924</ele>
					<time>2018-06-23T09:06:04Z</time>
				</trkpt>
				<trkpt lat="45.242530" lon="2.538100">
					<ele>926</ele>
					<time>2018-06-23T09:07:04Z</time>
				</trkpt>
				<trkpt lat="45.242520" lon="2.538230">
					<ele>928</ele>
					<time>2018-06-23T09:08:04Z</time>
				</trkpt>
				<trkpt lat="45.242500" lon="2.538370">
					<ele>930</ele>
					<time>2018-06-23T09:09:04Z</time>
				</trkpt>
				<trkpt lat="45.242480" lon="2.538550">
					<ele>932</ele>
					<time>2018-06-23T09:10:04Z</time>
				</trkpt>
				<trkpt lat="45.242450" lon="2.538730">
					<ele>933</ele>
					<time>2018-06-23T09:11:04Z</time>
				</trkpt>
				<trkpt lat="45.242430" lon="2.538820">
					<ele>934</ele>
					<time>2018-06-23T09:12:04Z</time>
				</trkpt>
				<trkpt lat="45.242400" lon="2.538970">
					<ele>935</ele>
					<time>2018-06-23T09:13:04Z</time>
				</trkpt>
				<trkpt lat="45.242320" lon="2.539250">
					<ele>937</ele>
					<time>2018-06-23T09:14:04Z</time>
				</trkpt>
				<trkpt lat="45.242260" lon="2.539390">
					<ele>938</ele>
					<time>2018-06-23T09:15:04Z</time>
				</trkpt>
				<trkpt lat="45.242220" lon="2.539480">
					<ele>938</ele>
					<time>2018-06-23T09:16:04Z</time>
				</trkpt>
				<trkpt lat="45.242170" lon="2.539580">
					<ele>939</ele>
					<time>2018-06-23T09:17:04Z</time>
				</trkpt>
				<trkpt lat="45.242070" lon="2.539720">
					<ele>939</ele>
					<time>2018-06-23T09:18:04Z</time>
				</trkpt>
				<trkpt lat="45.241970" lon="2.539850">
					<ele>939</ele>
					<time>2018-06-23T09:19:04Z</time>
				</trkpt>
				<trkpt lat="45.241880" lon="2.539960">
					<ele>940</ele>
					<time>2018-06-23T09:20:04Z</time>
				</trkpt>
				<trkpt lat="45.241810" lon="2.540070">
					<ele>940</ele>
					<time>2018-06-23T09:21:04Z</time>
				</trkpt>
				<trkpt lat="45.241770" lon="2.540130">
					<ele>939</ele>
					<time>2018-06-23T09:22:04Z</time>
				</trkpt>
				<trkpt lat="45.241700" lon="2.540280">
					<ele>939</ele>
					<time>2018-06-23T09:23:04Z</time>
				</trkpt>
				<trkpt lat="45.241670" lon="2.540360">
					<ele>939</ele>
					<time>2018-06-23T09:24:04Z</time>
				</trkpt>
				<trkpt lat="45.241660" lon="2.540440">
					<ele>939</ele>
					<time>2018-06-23T09:25:04Z</time>
				</trkpt>
				<trkpt lat="45.241640" lon="2.540510">
					<ele>939</ele>
					<time>2018-06-23T09:26:04Z</time>
				</trkpt>
				<trkpt lat="45.241640" lon="2.540600">
					<ele>940</ele>
					<time>2018-06-23T09:27:04Z</time>
				</trkpt>
				<trkpt lat="45.241640" lon="2.540670">
					<ele>940</ele>
					<time>2018-06-23T09:28:04Z</time>
				</trkpt>
				<trkpt lat="45.241650" lon="2.540750">
					<ele>941</ele>
					<time>2018-06-23T09:29:04Z</time>
				</trkpt>
				<trkpt lat="45.241660" lon="2.540820">
					<ele>942</ele>
					<time>2018-06-23T09:30:04Z</time>
				</trkpt>
				<trkpt lat="45.241680" lon="2.540870">
					<ele>942</ele>
					<time>2018-06-23T09:31:04Z</time>
				</trkpt>
				<trkpt lat="45.241690" lon="2.540920">
					<ele>943</ele>
					<time>2018-06-23T09:32:04Z</time>
				</trkpt>
				<trkpt lat="45.241720" lon="2.540990">
					<ele>943</ele>
					<time>2018-06-23T09:33:04Z</time>
				</trkpt>
				<trkpt lat="45.241760" lon="2.541060">
					<ele>944</ele>
					<time>2018-06-23T09:34:04Z</time>
				</trkpt>
				<trkpt lat="45.241820" lon="2.541120">
					<ele>945</ele>
					<time>2018-06-23T09:35:04Z</time>
				</trkpt>
				<trkpt lat="45.241870" lon="2.541170">
					<ele>946</ele>
					<time>2018-06-23T09:36:04Z</time>
				</trkpt>
				<trkpt lat="45.241920" lon="2.541200">
					<ele>947</ele>
					<time>2018-06-23T09:37:04Z</time>
				</trkpt>
				<trkpt lat="45.241970" lon="2.541230">
					<ele>948</ele>
					<time>2018-06-23T09:38:04Z</time>
				</trkpt>
				<trkpt lat="45.242030" lon="2.541250">
					<ele>949</ele>
					<time>2018-06-23T09:39:04Z</time>
				</trkpt>
				<trkpt lat="45.242090" lon="2.541260">
					<ele>950</ele>
					<time>2018-06-23T09:40:04Z</time>
				</trkpt>
				<trkpt lat="45.242140" lon="2.541260">
					<ele>950</ele>
					<time>2018-06-23T09:41:04Z</time>
				</trkpt>
				<trkpt lat="45.242210" lon="2.541240">
					<ele>951</ele>
					<time>2018-06-23T09:42:04Z</time>
				</trkpt>
				<trkpt lat="45.242250" lon="2.541220">
					<ele>952</ele>
					<time>2018-06-23T09:43:04Z</time>
				</trkpt>
				<trkpt lat="45.242310" lon="2.541190">
					<ele>952</ele>
					<time>2018-06-23T09:44:04Z</time>
				</trkpt>
				<trkpt lat="45.242370" lon="2.541140">
					<ele>953</ele>
					<time>2018-06-23T09:45:04Z</time>
				</trkpt>
				<trkpt lat="45.242530" lon="2.541000">
					<ele>955</ele>
					<time>2018-06-23T09:46:04Z</time>
				</trkpt>
				<trkpt lat="45.242700" lon="2.540860">
					<ele>955</ele>
					<time>2018-06-23T09:47:04Z</time>
				</trkpt>
				<trkpt lat="45.242840" lon="2.540760">
					<ele>956</ele>
					<time>2018-06-23T09:48:04Z</time>
				</trkpt>
				<trkpt lat="45.242950" lon="2.540700">
					<ele>956</ele>
					<time>2018-06-23T09:49:04Z</time>
				</trkpt>
				<trkpt lat="45.243040" lon="2.540670">
					<ele>957</ele>
					<time>2018-06-23T09:50:04Z</time>
				</trkpt>
				<trkpt lat="45.243110" lon="2.540660">
					<ele>957</ele>
					<time>2018-06-23T09:51:04Z</time>
				</trkpt>
				<trkpt lat="45.243180" lon="2.540650">
					<ele>957</ele>
					<time>2018-06-23T09:52:04Z</time>
				</trkpt>
				<trkpt lat="45.243250" lon="2.540650">
					<ele>958</ele>
					<time>2018-06-23T09:53:04Z</time>
				</trkpt>
				<trkpt lat="45.243390" lon="2.540650">
					<ele>958</ele>
					<time>2018-06-23T09:54:04Z</time>
				</trkpt>
				<trkpt lat="45.243590" lon="2.540690">
					<ele>958</ele>
					<time>2018-06-23T09:55:04Z</time>
				</trkpt>
				<trkpt lat="45.243710" lon="2.540720">
					<ele>959</ele>
					<time>2018-06-23T09:56:04Z</time>
				</trkpt>
				<trkpt lat="45.243900" lon="2.540770">
					<ele>959</ele>
					<time>2018-06-23T09:57:04Z</time>
				</trkpt>
				<trkpt lat="45.244080" lon="2.540810">
					<ele>959</ele>
					<time>2018-06-23T09:58:04Z</time>
				</trkpt>
				<trkpt lat="45.244270" lon="2.540860">
					<ele>959</ele>
					<time>2018-06-23T09:59:04Z</time>
				</trkpt>
				<trkpt lat="45.244300" lon="2.540860">
					<ele>959</ele>
					<time>2018-06-23T10:00:04Z</time>
				</trkpt>
				<trkpt lat="45.244350" lon="2.540880">
					<ele>959</ele>
					<time>2018-06-23T10:01:04Z</time>
				</trkpt>
				<trkpt lat="45.244360" lon="2.540880">
					<ele>959</ele>
					<time>2018-06-23T10:02:04Z</time>
				</trkpt>
				<trkpt lat="45.244470" lon="2.540900">
					<ele>959</ele>
					<time>2018-06-23T10:03:04Z</time>
				</trkpt>
				<trkpt lat="45.244670" lon="2.540940">
					<ele>959</ele>
					<time>2018-06-23T10:04:04Z</time>
				</trkpt>
				<trkpt lat="45.244820" lon="2.540990">
					<ele>959</ele>
					<time>2018-06-23T10:05:04Z</time>
				</trkpt>
				<trkpt lat="45.245020" lon="2.541050">
					<ele>959</ele>
					<time>2018-06-23T10:06:04Z</time>
				</trkpt>
				<trkpt lat="45.245250" lon="2.541110">
					<ele>960</ele>
					<time>2018-06-23T10:07:04Z</time>
				</trkpt>
				<trkpt lat="45.245640" lon="2.541200">
					<ele>960</ele>
					<time>2018-06-23T10:08:04Z</time>
				</trkpt>
				<trkpt lat="45.245720" lon="2.541210">
					<ele>960</ele>
					<time>2018-06-23T10:09:04Z</time>
				</trkpt>
				<trkpt lat="45.245780" lon="2.541220">
					<ele>960</ele>
					<time>2018-06-23T10:10:04Z</time>
				</trkpt>
				<trkpt lat="45.245860" lon="2.541220">
					<ele>961</ele>
					<time>2018-06-23T10:11:04Z</time>
				</trkpt>
				<trkpt lat="45.245930" lon="2.541210">
					<ele>961</ele>
					<time>2018-06-23T10:12:04Z</time>
				</trkpt>
				<trkpt lat="45.246010" lon="2.541170">
					<ele>962</ele>
					<time>2018-06-23T10:13:04Z</time>
				</trkpt>
				<trkpt lat="45.246070" lon="2.541140">
					<ele>962</ele>
					<time>2018-06-23T10:14:04Z</time>
				</trkpt>
				<trkpt lat="45.246140" lon="2.541090">
					<ele>962</ele>
					<time>2018-06-23T10:15:04Z</time>
				</trkpt>
				<trkpt lat="45.246200" lon="2.541030">
					<ele>963</ele>
					<time>2018-06-23T10:16:04Z</time>
				</trkpt>
				<trkpt lat="45.246250" lon="2.540970">
					<ele>963</ele>
					<time>2018-06-23T10:17:04Z</time>
				</trkpt>
				<trkpt lat="45.246300" lon="2.540900">
					<ele>963</ele>
					<time>2018-06-23T10:18:04Z</time>
				</trkpt>
				<trkpt lat="45.246340" lon="2.540830">
					<ele>963</ele>
					<time>2018-06-23T10:19:04Z</time>
				</trkpt>
				<trkpt lat="45.246390" lon="2.540750">
					<ele>963</ele>
					<time>2018-06-23T10:20:04Z</time>
				</trkpt>
				<trkpt lat="45.246450" lon="2.540620">
					<ele>963</ele>
					<time>2018-06-23T10:21:04Z</time>
				</trkpt>
				<trkpt lat="45.246560" lon="2.540340">
					<ele>962</ele>
					<time>2018-06-23T10:22:04Z</time>
				</trkpt>
				<trkpt lat="45.246700" lon="2.540010">
					<ele>961</ele>
					<time>2018-06-23T10:23:04Z</time>
				</trkpt>
				<trkpt lat="45.246900" lon="2.539530">
					<ele>961</ele>
					<time>2018-06-23T10:24:04Z</time>
				</trkpt>
				<trkpt lat="45.246990" lon="2.539330">
					<ele>961</ele>
					<time>2018-06-23T10:25:04Z</time>
				</trkpt>
				<trkpt lat="45.247080" lon="2.539140">
					<ele>961</ele>
					<time>2018-06-23T10:26:04Z</time>
				</trkpt>
				<trkpt lat="45.247160" lon="2.538970">
					<ele>961</ele>
					<time>2018-06-23T10:27:04Z</time>
				</trkpt>
				<trkpt lat="45.247250" lon="2.538800">
					<ele>962</ele>
					<time>2018-06-23T10:28:04Z</time>
				</trkpt>
				<trkpt lat="45.247400" lon="2.538510">
					<ele>962</ele>
					<time>2018-06-23T10:29:04Z</time>
				</trkpt>
				<trkpt lat="45.247580" lon="2.538170">
					<ele>962</ele>
					<time>2018-06-23T10:30:04Z</time>
				</trkpt>
				<trkpt lat="45.247760" lon="2.537860">
					<ele>961</ele>
					<time>2018-06-23T10:31:04Z</time>
				</trkpt>
				<trkpt lat="45.247900" lon="2.537690">
					<ele>962</ele>
					<time>2018-06-23T10:32:04Z</time>
				</trkpt>
				<trkpt lat="45.248020" lon="2.537590">
					<ele>962</ele>
					<time>2018-06-23T10:33:04Z</time>
				</trkpt>
				<trkpt lat="45.248090" lon="2.537550">
					<ele>963</ele>
					<time>2018-06-23T10:34:04Z</time>
				</trkpt>
				<trkpt lat="45.248160" lon="2.537520">
					<ele>963</ele>
					<time>2018-06-23T10:35:04Z</time>
				</trkpt>
				<trkpt lat="45.248240" lon="2.537490">
					<ele>964</ele>
					<time>2018-06-23T10:36:04Z</time>
				</trkpt>
				<trkpt lat="45.248340" lon="2.537460">
					<ele>965</ele>
					<time>2018-06-23T10:37:04Z</time>
				</trkpt>
				<trkpt lat="45.248490" lon="2.537410">
					<ele>965</ele>
					<time>2018-06-23T10:38:04Z</time>
				</trkpt>
				<trkpt lat="45.248570" lon="2.537380">
					<ele>965</ele>
					<time>2018-06-23T10:39:04Z</time>
				</trkpt>
				<trkpt lat="45.248640" lon="2.537350">
					<ele>965</ele>
					<time>2018-06-23T10:40:04Z</time>
				</trkpt>
				<trkpt lat="45.248740" lon="2.537300">
					<ele>965</ele>
					<time>2018-06-23T10:41:04Z</time>
				</trkpt>
				<trkpt lat="45.248820" lon="2.537250">
					<ele>965</ele>
					<time>2018-06-23T10:42:04Z</time>
				</trkpt>
				<trkpt lat="45.248890" lon="2.537210">
					<ele>965</ele>
					<time>2018-06-23T10:43:04Z</time>
				</trkpt>
				<trkpt lat="45.248960" lon="2.537150">
					<ele>965</ele>
					<time>2018-06-23T10:44:04Z</time>
				</trkpt>
				<trkpt lat="45.249020" lon="2.537110">
					<ele>964</ele>
					<time>2018-06-23T10:45:04Z</time>
				</trkpt>
				<trkpt lat="45.249090" lon="2.537070">
					<ele>964</ele>
					<time>2018-06-23T10:46:04Z</time>
				</trkpt>
				<trkpt lat="45.249200" lon="2.537010">
					<ele>964</ele>
					<time>2018-06-23T10:47:04Z</time>
				</trkpt>
				<trkpt lat="45.249270" lon="2.536980">
					<ele>964</ele>
					<time>2018-06-23T10:48:04Z</time>
				</trkpt>
				<trkpt lat="45.249340" lon="2.536960">
					<ele>964</ele>
					<time>2018-06-23T10:49:04Z</time>
				</trkpt>
				<trkpt lat="45.249410" lon="2.536960">
					<ele>964</ele>
					<time>2018-06-23T10:50:04Z</time>
				</trkpt>
				<trkpt lat="45.249460" lon="2.536960">
					<ele>964</ele>
					<time>2018-06-23T10:51:04Z</time>
				</trkpt>
				<trkpt lat="45.249510" lon="2.536960">
					<ele>964</ele>
					<time>2018-06-23T10:52:04Z</time>
				</trkpt>
				<trkpt lat="45.249580" lon="2.536970">
					<ele>964</ele>
					<time>2018-06-23T10:53:04Z</time>
				</trkpt>
				<trkpt lat="45.249650" lon="2.536990">
					<ele>964</ele>
					<time>2018-06-23T10:54:04Z</time>
				</trkpt>
				<trkpt lat="45.249710" lon="2.537020">
					<ele>965</ele>
					<time>2018-06-23T10:55:04Z</time>
				</trkpt>
				<trkpt lat="45.249840" lon="2.537090">
					<ele>966</ele>
					<time>2018-06-23T10:56:04Z</time>
				</trkpt>
				<trkpt lat="45.249960" lon="2.537170">
					<ele>967</ele>
					<time>2018-06-23T10:57:04Z</time>
				</trkpt>
				<trkpt lat="45.250130" lon="2.537290">
					<ele>967</ele>
					<time>2018-06-23T10:58:04Z</time>
				</trkpt>
				<trkpt lat="45.250360" lon="2.537460">
					<ele>967</ele>
					<time>2018-06-23T10:59:04Z</time>
				</trkpt>
				<trkpt lat="45.250710" lon="2.537720">
					<ele>966</ele>
					<time>2018-06-23T11:00:04Z</time>
				</trkpt>
				<trkpt lat="45.250790" lon="2.537780">
					<ele>966</ele>
					<time>2018-06-23T11:01:04Z</time>
				</trkpt>
				<trkpt lat="45.251090" lon="2.538010">
					<ele>967</ele>
					<time>2018-06-23T11:02:04Z</time>
				</trkpt>
				<trkpt lat="45.251230" lon="2.538130">
					<ele>967</ele>
					<time>2018-06-23T11:03:04Z</time>
				</trkpt>
				<trkpt lat="45.251300" lon="2.538200">
					<ele>967</ele>
					<time>2018-06-23T11:04:04Z</time>
				</trkpt>
				<trkpt lat="45.251360" lon="2.538290">
					<ele>967</ele>
					<time>2018-06-23T11:05:04Z</time>
				</trkpt>
				<trkpt lat="45.251470" lon="2.538470">
					<ele>968</ele>
					<time>2018-06-23T11:06:04Z</time>
				</trkpt>
				<trkpt lat="45.251570" lon="2.538660">
					<ele>969</ele>
					<time>2018-06-23T11:07:04Z</time>
				</trkpt>
				<trkpt lat="45.251670" lon="2.538860">
					<ele>970</ele>
					<time>2018-06-23T11:08:04Z</time>
				</trkpt>
				<trkpt lat="45.251770" lon="2.539070">
					<ele>971</ele>
					<time>2018-06-23T11:09:04Z</time>
				</trkpt>
				<trkpt lat="45.251820" lon="2.539170">
					<ele>972</ele>
					<time>2018-06-23T11:10:04Z</time>
				</trkpt>
				<trkpt lat="45.251870" lon="2.539260">
					<ele>972</ele>
					<time>2018-06-23T11:11:04Z</time>
				</trkpt>
				<trkpt lat="45.251910" lon="2.539310">
					<ele>972</ele>
					<time>2018-06-23T11:12:04Z</time>
				</trkpt>
				<trkpt lat="45.252000" lon="2.539390">
					<ele>972</ele>
					<time>2018-06-23T11:13:04Z</time>
				</trkpt>
				<trkpt lat="45.252040" lon="2.539430">
					<ele>972</ele>
					<time>2018-06-23T11:14:04Z</time>
				</trkpt>
				<trkpt lat="45.252090" lon="2.539460">
					<ele>972</ele>
					<time>2018-06-23T11:15:04Z</time>
				</trkpt>
				<trkpt lat="45.252140" lon="2.539490">
					<ele>972</ele>
					<time>2018-06-23T11:16:04Z</time>
				</trkpt>
				<trkpt lat="45.252330" lon="2.539600">
					<ele>971</ele>
					<time>2018-06-23T11:17:04Z</time>
				</trkpt>
				<trkpt lat="45.252530" lon="2.539710">
					<ele>971</ele>
					<time>2018-06-23T11:18:04Z</time>
				</trkpt>
				<trkpt lat="45.252670" lon="2.539790">
					<ele>972</ele>
					<time>2018-06-23T11:19:04Z</time>
				</trkpt>
				<trkpt lat="45.252770" lon="2.539830">
					<ele>972</ele>
					<time>2018-06-23T11:20:04Z</time>
				</trkpt>
				<trkpt lat="45.252820" lon="2.539840">
					<ele>973</ele>
					<time>2018-06-23T11:21:04Z</time>
				</trkpt>
				<trkpt lat="45.252860" lon="2.539840">
					<ele>973</ele>
					<time>2018-06-23T11:22:04Z</time>
				</trkpt>
				<trkpt lat="45.252910" lon="2.539830">
					<ele>973</ele>
					<time>2018-06-23T11:23:04Z</time>
				</trkpt>
				<trkpt lat="45.252950" lon="2.539810">
					<ele>973</ele>
					<time>2018-06-23T11:24:04Z</time>
				</trkpt>
				<trkpt lat="45.253000" lon="2.539780">
					<ele>973</ele>
					<time>2018-06-23T11:25:04Z</time>
				</trkpt>
				<trkpt lat="45.253100" lon="2.539710">
					<ele>973</ele>
					<time>2018-06-23T11:26:04Z</time>
				</trkpt>
				<trkpt lat="45.253150" lon="2.539670">
					<ele>974</ele>
					<time>2018-06-23T11:27:04Z</time>
				</trkpt>
				<trkpt lat="45.253230" lon="2.539630">
					<ele>974</ele>
					<time>2018-06-23T11:28:04Z</time>
				</trkpt>
				<trkpt lat="45.253280" lon="2.539610">
					<ele>974</ele>
					<time>2018-06-23T11:29:04Z</time>
				</trkpt>
				<trkpt lat="45.253330" lon="2.539600">
					<ele>974</ele>
					<time>2018-06-23T11:30:04Z</time>
				</trkpt>
				<trkpt lat="45.253390" lon="2.539590">
					<ele>974</ele>
					<time>2018-06-23T11:31:04Z</time>
				</trkpt>
				<trkpt lat="45.253440" lon="2.539600">
					<ele>974</ele>
					<time>2018-06-23T11:32:04Z</time>
				</trkpt>
				<trkpt lat="45.253540" lon="2.539640">
					<ele>975</ele>
					<time>2018-06-23T11:33:04Z</time>
				</trkpt>
				<trkpt lat="45.253690" lon="2.539690">
					<ele>976</ele>
					<time>2018-06-23T11:34:04Z</time>
				</trkpt>
				<trkpt lat="45.253970" lon="2.539780">
					<ele>977</ele>
					<time>2018-06-23T11:35:04Z</time>
				</trkpt>
				<trkpt lat="45.254010" lon="2.539800">
					<ele>978</ele>
					<time>2018-06-23T11:36:04Z</time>
				</trkpt>
				<trkpt lat="45.254200" lon="2.539870">
					<ele>979</ele>
					<time>2018-06-23T11:37:04Z</time>
				</trkpt>
				<trkpt lat="45.254450" lon="2.539960">
					<ele>979</ele>
					<time>2018-06-23T11:38:04Z</time>
				</trkpt>
				<trkpt lat="45.254710" lon="2.540050">
					<ele>979</ele>
					<time>2018-06-23T11:39:04Z</time>
				</trkpt>
				<trkpt lat="45.254970" lon="2.540150">
					<ele>980</ele>
					<time>2018-06-23T11:40:04Z</time>
				</trkpt>
				<trkpt lat="45.255170" lon="2.540260">
					<ele>981</ele>
					<time>2018-06-23T11:41:04Z</time>
				</trkpt>
				<trkpt lat="45.255380" lon="2.540390">
					<ele>983</ele>
					<time>2018-06-23T11:42:04Z</time>
				</trkpt>
				<trkpt lat="45.255660" lon="2.540590">
					<ele>984</ele>
					<time>2018-06-23T11:43:04Z</time>
				</trkpt>
				<trkpt lat="45.256180" lon="2.540980">
					<ele>988</ele>
					<time>2018-06-23T11:44:04Z</time>
				</trkpt>
				<trkpt lat="45.256410" lon="2.541150">
					<ele>990</ele>
					<time>2018-06-23T11:45:04Z</time>
				</trkpt>
				<trkpt lat="45.256710" lon="2.541380">
					<ele>992</ele>
					<time>2018-06-23T11:46:04Z</time>
				</trkpt>
				<trkpt lat="45.256860" lon="2.541500">
					<ele>993</ele>
					<time>2018-06-23T11:47:04Z</time>
				</trkpt>
				<trkpt lat="45.257050" lon="2.541710">
					<ele>994</ele>
					<time>2018-06-23T11:48:04Z</time>
				</trkpt>
				<trkpt lat="45.257180" lon="2.541850">
					<ele>994</ele>
					<time>2018-06-23T11:49:04Z</time>
				</trkpt>
				<trkpt lat="45.257280" lon="2.542010">
					<ele>995</ele>
					<time>2018-06-23T11:50:04Z</time>
				</trkpt>
				<trkpt lat="45.257370" lon="2.542180">
					<ele>996</ele>
					<time>2018-06-23T11:51:04Z</time>
				</trkpt>
				<trkpt lat="45.257430" lon="2.542320">
					<ele>996</ele>
					<time>2018-06-23T11:52:04Z</time>
				</trkpt>
				<trkpt lat="45.257480" lon="2.542470">
					<ele>997</ele>
					<time>2018-06-23T11:53:04Z</time>
				</trkpt>
				<trkpt lat="45.257560" lon="2.542780">
					<ele>998</ele>
					<time>2018-06-23T11:54:04Z</time>
				</trkpt>
				<trkpt lat="45.257610" lon="2.542990">
					<ele>999</ele>
					<time>2018-06-23T11:55:04Z</time>
				</trkpt>
				<trkpt lat="45.257660" lon="2.543330">
					<ele>1000</ele>
					<time>2018-06-23T11:56:04Z</time>
				</trkpt>
				<trkpt lat="45.257710" lon="2.543630">
					<ele>1000</ele>
					<time>2018-06-23T11:57:04Z</time>
				</trkpt>
				<trkpt lat="45.257770" lon="2.543930">
					<ele>1001</ele>
					<time>2018-06-23T11:58:04Z</time>
				</trkpt>
				<trkpt lat="45.257820" lon="2.544170">
					<ele>1001</ele>
					<time>2018-06-23T11:59:04Z</time>
				</trkpt>
				<trkpt lat="45.257880" lon="2.544420">
					<ele>1001</ele>
					<time>2018-06-23T12:00:04Z</time>
				</trkpt>
				<trkpt lat="45.257950" lon="2.544680">
					<ele>1001</ele>
					<time>2018-06-23T12:01:04Z</time>
				</trkpt>
				<trkpt lat="45.257990" lon="2.544840">
					<ele>1001</ele>
					<time>2018-06-23T12:02:04Z</time>
				</trkpt>
				<trkpt lat="45.258050" lon="2.545100">
					<ele>1002</ele>
					<time>2018-06-23T12:03:04Z</time>
				</trkpt>
				<trkpt lat="45.258100" lon="2.545350">
					<ele>1002</ele>
					<time>2018-06-23T12:04:04Z</time>
				</trkpt>
				<trkpt lat="45.258140" lon="2.545600">
					<ele>1003</ele>
					<time>2018-06-23T12:05:04Z</time>
				</trkpt>
				<trkpt lat="45.258160" lon="2.545860">
					<ele>1004</ele>
					<time>2018-06-23T12:06:04Z</time>
				</trkpt>
				<trkpt lat="45.258180" lon="2.546240">
					<ele>1005</ele>
					<time>2018-06-23T12:07:04Z</time>
				</trkpt>
				<trkpt lat="45.258230" lon="2.547080">
					<ele>1007</ele>
					<time>2018-06-23T12:08:04Z</time>
				</trkpt>
				<trkpt lat="45.258290" lon="2.548060">
					<ele>1009</ele>
					<time>2018-06-23T12:09:04Z</time>
				</trkpt>
				<trkpt lat="45.258330" lon="2.549090">
					<ele>1010</ele>
					<time>2018-06-23T12:10:04Z</time>
				</trkpt>
				<trkpt lat="45.258370" lon="2.549550">
					<ele>1011</ele>
					<time>2018-06-23T12:11:04Z</time>
				</trkpt>
				<trkpt lat="45.258390" lon="2.549780">
					<ele>1011</ele>
					<time>2018-06-23T12:12:04Z</time>
				</trkpt>
				<trkpt lat="45.258440" lon="2.550010">
					<ele>1012</ele>
					<time>2018-06-23T12:13:04Z</time>
				</trkpt>
				<trkpt lat="45.258500" lon="2.550200">
					<ele>1012</ele>
					<time>2018-06-23T12:14:04Z</time>
				</trkpt>
				<trkpt lat="45.258590" lon="2.550400">
					<ele>1012</ele>
					<time>2018-06-23T12:15:04Z</time>
				</trkpt>
				<trkpt lat="45.258710" lon="2.550610">
					<ele>1012</ele>
					<time>2018-06-23T12:16:04Z</time>
				</trkpt>
				<trkpt lat="45.258830" lon="2.550790">
					<ele>1012</ele>
					<time>2018-06-23T12:17:04Z</time>
				</trkpt>
				<trkpt lat="45.258950" lon="2.550980">
					<ele>1012</ele>
					<time>2018-06-23T12:18:04Z</time>
				</trkpt>
				<trkpt lat="45.259290" lon="2.551340">
					<ele>1013</ele>
					<time>2018-06-23T12:19:04Z</time>
				</trkpt>
				<trkpt lat="45.259450" lon="2.551520">
					<ele>1014</ele>
					<time>2018-06-23T12:20:04Z</time>
				</trkpt>
				<trkpt lat="45.259550" lon="2.551650">
					<ele>1014</ele>
					<time>2018-06-23T12:21:04Z</time>
				</trkpt>
				<trkpt lat="45.259610" lon="2.551780">
					<ele>1014</ele>
					<time>2018-06-23T12:22:04Z</time>
				</trkpt>
				<trkpt lat="45.259690" lon="2.551960">
					<ele>1015</ele>
					<time>2018-06-23T12:23:04Z</time>
				</trkpt>
				<trkpt lat="45.259790" lon="2.552290">
					<ele>1015</ele>
					<time>2018-06-23T12:24:04Z</time>
				</trkpt>
				<trkpt lat="45.259870" lon="2.552560">
					<ele>1016</ele>
					<time>2018-06-23T12:25:04Z</time>
				</trkpt>
				<trkpt lat="45.259950" lon="2.552980">
					<ele>1015</ele>
					<time>2018-06-23T12:26:04Z</time>
				</trkpt>
				<trkpt lat="45.260020" lon="2.553420">
					<ele>1015</ele>
					<time>2018-06-23T12:27:04Z</time>
				</trkpt>
				<trkpt lat="45.260090" lon="2.553860">
					<ele>1015</ele>
					<time>2018-06-23T12:28:04Z</time>
				</trkpt>
				<trkpt lat="45.260110" lon="2.554040">
					<ele>1014</ele>
					<time>2018-06-23T12:29:04Z</time>
				</trkpt>
				<trkpt lat="45.260120" lon="2.554180">
					<ele>1014</ele>
					<time>2018-06-23T12:30:04Z</time>
				</trkpt>
				<trkpt lat="45.260140" lon="2.554340">
					<ele>1014</ele>
					<time>2018-06-23T12:31:04Z</time>
				</trkpt>
				<trkpt lat="45.260150" lon="2.554550">
					<ele>1014</ele>
					<time>2018-06-23T12:32:04Z</time>
				</trkpt>
				<trkpt lat="45.260150" lon="2.554770">
					<ele>1014</ele>
					<time>2018-06-23T12:33:04Z</time>
				</trkpt>
				<trkpt lat="45.260160" lon="2.554990">
					<ele>1014</ele>
					<time>2018-06-23T12:34:04Z</time>
				</trkpt>
				<trkpt lat="45.260190" lon="2.555120">
					<ele>1013</ele>
					<time>2018-06-23T12:35:04Z</time>
				</trkpt>
				<trkpt lat="45.260220" lon="2.555230">
					<ele>1013</ele>
					<time>2018-06-23T12:36:04Z</time>
				</trkpt>
				<trkpt lat="45.260290" lon="2.555410">
					<ele>1013</ele>
					<time>2018-06-23T12:37:04Z</time>
				</trkpt>
				<trkpt lat="45.260410" lon="2.555640">
					<ele>1012</ele>
					<time>2018-06-23T12:38:04Z</time>
				</trkpt>
				<trkpt lat="45.260610" lon="2.556040">
					<ele>1012</ele>
					<time>2018-06-23T12:39:04Z</time>
				</trkpt>
				<trkpt lat="45.260890" lon="2.556620">
					<ele>1015</ele>
					<time>2018-06-23T12:40:04Z</time>
				</trkpt>
				<trkpt lat="45.261090" lon="2.557000">
					<ele>1016</ele>
					<time>2018-06-23T12:41:04Z</time>
				</trkpt>
				<trkpt lat="45.261290" lon="2.557430">
					<ele>1019</ele>
					<time>2018-06-23T12:42:04Z</time>
				</trkpt>
				<trkpt lat="45.261450" lon="2.557770">
					<ele>1021</ele>
					<time>2018-06-23T12:43:04Z</time>
				</trkpt>
				<trkpt lat="45.261530" lon="2.557940">
					<ele>1022</ele>
					<time>2018-06-23T12:44:04Z</time>
				</trkpt>
				<trkpt lat="45.261610" lon="2.558120">
					<ele>1024</ele>
					<time>2018-06-23T12:45:04Z</time>
				</trkpt>
				<trkpt lat="45.261710" lon="2.558340">
					<ele>1025</ele>
					<time>2018-06-23T12:46:04Z</time>
				</trkpt>
				<trkpt lat="45.261840" lon="2.558680">
					<ele>1026</ele>
					<time>2018-06-23T12:47:04Z</time>
				</trkpt>
				<trkpt lat="45.261910" lon="2.558920">
					<ele>1026</ele>
					<time>2018-06-23T12:48:04Z</time>
				</trkpt>
				<trkpt lat="45.261980" lon="2.559160">
					<ele>1027</ele>
					<time>2018-06-23T12:49:04Z</time>
				</trkpt>
				<trkpt lat="45.262030" lon="2.559410">
					<ele>1027</ele>
					<time>2018-06-23T12:50:04Z</time>
				</trkpt>
				<trkpt lat="45.262080" lon="2.559670">
					<ele>1028</ele>
					<time>2018-06-23T12:51:04Z</time>
				</trkpt>
				<trkpt lat="45.262090" lon="2.559800">
					<ele>1028</ele>
					<time>2018-06-23T12:52:04Z</time>
				</trkpt>
				<trkpt lat="45.262110" lon="2.559920">
					<ele>1028</ele>
					<time>2018-06-23T12:53:04Z</time>
				</trkpt>
				<trkpt lat="45.262120" lon="2.560040">
					<ele>1029</ele>
					<time>2018-06-23T12:54:04Z</time>
				</trkpt>
				<trkpt lat="45.262120" lon="2.560150">
					<ele>1029</ele>
					<time>2018-06-23T12:55:04Z</time>
				</trkpt>
				<trkpt lat="45.262110" lon="2.560260">
					<ele>1030</ele>
					<time>2018-06-23T12:56:04Z</time>
				</trkpt>
				<trkpt lat="45.262090" lon="2.560370">
					<ele>1030</ele>
					<time>2018-06-23T12:57:04Z</time>
				</trkpt>
				<trkpt lat="45.262070" lon="2.560470">
					<ele>1031</ele>
					<time>2018-06-23T12:58:04Z</time>
				</trkpt>
				<trkpt lat="45.262050" lon="2.560570">
					<ele>1031</ele>
					<time>2018-06-23T12:59:04Z</time>
				</trkpt>
				<trkpt lat="45.262030" lon="2.560670">
					<ele>1032</ele>
					<time>2018-06-23T13:00:04Z</time>
				</trkpt>
				<trkpt lat="45.262010" lon="2.560760">
					<ele>1032</ele>
					<time>2018-06-23T13:01:04Z</time>
				</trkpt>
				<trkpt lat="45.262010" lon="2.560850">
					<ele>1033</ele>
					<time>2018-06-23T13:02:04Z</time>
				</trkpt>
				<trkpt lat="45.262010" lon="2.560930">
					<ele>1033</ele>
					<time>2018-06-23T13:03:04Z</time>
				</trkpt>
				<trkpt lat="45.262030" lon="2.561010">
					<ele>1033</ele>
					<time>2018-06-23T13:04:04Z</time>
				</trkpt>
				<trkpt lat="45.262050" lon="2.561080">
					<ele>1033</ele>
					<time>2018-06-23T13:05:04Z</time>
				</trkpt>
				<trkpt lat="45.262080" lon="2.561140">
					<ele>1034</ele>
					<time>2018-06-23T13:06:04Z</time>
				</trkpt>
				<trkpt lat="45.262120" lon="2.561200">
					<ele>1034</ele>
					<time>2018-06-23T13:07:04Z</time>
				</trkpt>
				<trkpt lat="45.262160" lon="2.561260">
					<ele>1034</ele>
					<time>2018-06-23T13:08:04Z</time>
				</trkpt>
				<trkpt lat="45.262260" lon="2.561340">
					<ele>1034</ele>
					<time>2018-06-23T13:09:04Z</time>
				</trkpt>
				<trkpt lat="45.262430" lon="2.561470">
					<ele>1034</ele>
					<time>2018-06-23T13:10:04Z</time>
				</trkpt>
				<trkpt lat="45.262610" lon="2.561610">
					<ele>1035</ele>
					<time>2018-06-23T13:11:04Z</time>
				</trkpt>
				<trkpt lat="45.262730" lon="2.561690">
					<ele>1036</ele>
					<time>2018-06-23T13:12:04Z</time>
				</trkpt>
				<trkpt lat="45.262790" lon="2.561710">
					<ele>1037</ele>
					<time>2018-06-23T13:13:04Z</time>
				</trkpt>
				<trkpt lat="45.262860" lon="2.561720">
					<ele>1037</ele>
					<time>2018-06-23T13:14:04Z</time>
				</trkpt>
				<trkpt lat="45.262880" lon="2.561730">
					<ele>1037</ele>
					<time>2018-06-23T13:15:04Z</time>
				</trkpt>
				<trkpt lat="45.263000" lon="2.561700">
					<ele>1038</ele>
					<time>2018-06-23T13:16:04Z</time>
				</trkpt>
				<trkpt lat="45.263090" lon="2.561660">
					<ele>1038</ele>
					<time>2018-06-23T13:17:04Z</time>
				</trkpt>
				<trkpt lat="45.263230" lon="2.561610">
					<ele>1038</ele>
					<time>2018-06-23T13:18:04Z</time>
				</trkpt>
				<trkpt lat="45.263360" lon="2.561570">
					<ele>1038</ele>
					<time>2018-06-23T13:19:04Z</time>
				</trkpt>
				<trkpt lat="45.263490" lon="2.561570">
					<ele>1039</ele>
					<time>2018-06-23T13:20:04Z</time>
				</trkpt>
				<trkpt lat="45.263610" lon="2.561630">
					<ele>1040</ele>
					<time>2018-06-23T13:21:04Z</time>
				</trkpt>
				<trkpt lat="45.263720" lon="2.561730">
					<ele>1042</ele>
					<time>2018-06-23T13:22:04Z</time>
				</trkpt>
				<trkpt lat="45.263830" lon="2.561840">
					<ele>1042</ele>
					<time>2018-06-23T13:23:04Z</time>
				</trkpt>
				<trkpt lat="45.263920" lon="2.561970">
					<ele>1043</ele>
					<time>2018-06-23T13:24:04Z</time>
				</trkpt>
				<trkpt lat="45.264080" lon="2.562190">
					<ele>1043</ele>
					<time>2018-06-23T13:25:04Z</time>
				</trkpt>
				<trkpt lat="45.264160" lon="2.562320">
					<ele>1043</ele>
					<time>2018-06-23T13:26:04Z</time>
				</trkpt>
				<trkpt lat="45.264190" lon="2.562390">
					<ele>1043</ele>
					<time>2018-06-23T13:27:04Z</time>
				</trkpt>
				<trkpt lat="45.264220" lon="2.562480">
					<ele>1043</ele>
					<time>2018-06-23T13:28:04Z</time>
				</trkpt>
				<trkpt lat="45.264240" lon="2.562560">
					<ele>1042</ele>
					<time>2018-06-23T13:29:04Z</time>
				</trkpt>
				<trkpt lat="45.264250" lon="2.562650">
					<ele>1042</ele>
					<time>2018-06-23T13:30:04Z</time>
				</trkpt>
				<trkpt lat="45.264250" lon="2.562740">
					<ele>1042</ele>
					<time>2018-06-23T13:31:04Z</time>
				</trkpt>
				<trkpt lat="45.264250" lon="2.562840">
					<ele>1041</ele>
					<time>2018-06-23T13:32:04Z</time>
				</trkpt>
				<trkpt lat="45.264210" lon="2.563030">
					<ele>1041</ele>
					<time>2018-06-23T13:33:04Z</time>
				</trkpt>
				<trkpt lat="45.264150" lon="2.563320">
					<ele>1041</ele>
					<time>2018-06-23T13:34:04Z</time>
				</trkpt>
				<trkpt lat="45.264120" lon="2.563460">
					<ele>1041</ele>
					<time>2018-06-23T13:35:04Z</time>
				</trkpt>
				<trkpt lat="45.264100" lon="2.563610">
					<ele>1041</ele>
					<time>2018-06-23T13:36:04Z</time>
				</trkpt>
				<trkpt lat="45.264100" lon="2.563720">
					<ele>1041</ele>
					<time>2018-06-23T13:37:04Z</time>
				</trkpt>
				<trkpt lat="45.264100" lon="2.563820">
					<ele>1041</ele>
					<time>2018-06-23T13:38:04Z</time>
				</trkpt>
				<trkpt lat="45.264130" lon="2.564150">
					<ele>1040</ele>
					<time>2018-06-23T13:39:04Z</time>
				</trkpt>
				<trkpt lat="45.264150" lon="2.564360">
					<ele>1039</ele>
					<time>2018-06-23T13:40:04Z</time>
				</trkpt>
				<trkpt lat="45.264150" lon="2.564580">
					<ele>1038</ele>
					<time>2018-06-23T13:41:04Z</time>
				</trkpt>
				<trkpt lat="45.264140" lon="2.564790">
					<ele>1037</ele>
					<time>2018-06-23T13:42:04Z</time>
				</trkpt>
				<trkpt lat="45.264140" lon="2.564990">
					<ele>1036</ele>
					<time>2018-06-23T13:43:04Z</time>
				</trkpt>
				<trkpt lat="45.264160" lon="2.565170">
					<ele>1036</ele>
					<time>2018-06-23T13:44:04Z</time>
				</trkpt>
				<trkpt lat="45.264210" lon="2.565340">
					<ele>1035</ele>
					<time>2018-06-23T13:45:04Z</time>
				</trkpt>
				<trkpt lat="45.264240" lon="2.565430">
					<ele>1035</ele>
					<time>2018-06-23T13:46:04Z</time>
				</trkpt>
				<trkpt lat="45.264280" lon="2.565510">
					<ele>1034</ele>
					<time>2018-06-23T13:47:04Z</time>
				</trkpt>
				<trkpt lat="45.264360" lon="2.565630">
					<ele>1034</ele>
					<time>2018-06-23T13:48:04Z</time>
				</trkpt>
				<trkpt lat="45.264420" lon="2.565720">
					<ele>1033</ele>
					<time>2018-06-23T13:49:04Z</time>
				</trkpt>
				<trkpt lat="45.264720" lon="2.566100">
					<ele>1030</ele>
					<time>2018-06-23T13:50:04Z</time>
				</trkpt>
				<trkpt lat="45.264880" lon="2.566310">
					<ele>1029</ele>
					<time>2018-06-23T13:51:04Z</time>
				</trkpt>
				<trkpt lat="45.264970" lon="2.566450">
					<ele>1028</ele>
					<time>2018-06-23T13:52:04Z</time>
				</trkpt>
				<trkpt lat="45.264970" lon="2.566470">
					<ele>1028</ele>
					<time>2018-06-23T13:53:04Z</time>
				</trkpt>
				<trkpt lat="45.265070" lon="2.566710">
					<ele>1026</ele>
					<time>2018-06-23T13:54:04Z</time>
				</trkpt>
				<trkpt lat="45.265120" lon="2.566900">
					<ele>1024</ele>
					<time>2018-06-23T13:55:04Z</time>
				</trkpt>
				<trkpt lat="45.265130" lon="2.567080">
					<ele>1023</ele>
					<time>2018-06-23T13:56:04Z</time>
				</trkpt>
				<trkpt lat="45.265130" lon="2.567260">
					<ele>1022</ele>
					<time>2018-06-23T13:57:04Z</time>
				</trkpt>
				<trkpt lat="45.265100" lon="2.567480">
					<ele>1021</ele>
					<time>2018-06-23T13:58:04Z</time>
				</trkpt>
				<trkpt lat="45.265040" lon="2.567690">
					<ele>1018</ele>
					<time>2018-06-23T13:59:04Z</time>
				</trkpt>
				<trkpt lat="45.264960" lon="2.567850">
					<ele>1017</ele>
					<time>2018-06-23T14:00:04Z</time>
				</trkpt>
				<trkpt lat="45.264870" lon="2.567980">
					<ele>1016</ele>
					<time>2018-06-23T14:01:04Z</time>
				</trkpt>
				<trkpt lat="45.264740" lon="2.568130">
					<ele>1016</ele>
					<time>2018-06-23T14:02:04Z</time>
				</trkpt>
				<trkpt lat="45.264460" lon="2.568360">
					<ele>1016</ele>
					<time>2018-06-23T14:03:04Z</time>
				</trkpt>
				<trkpt lat="45.264200" lon="2.568530">
					<ele>1016</ele>
					<time>2018-06-23T14:04:04Z</time>
				</trkpt>
				<trkpt lat="45.264000" lon="2.568640">
					<ele>1016</ele>
					<time>2018-06-23T14:05:04Z</time>
				</trkpt>
				<trkpt lat="45.263830" lon="2.568720">
					<ele>1016</ele>
					<time>2018-06-23T14:06:04Z</time>
				</trkpt>
				<trkpt lat="45.263540" lon="2.568780">
					<ele>1017</ele>
					<time>2018-06-23T14:07:04Z</time>
				</trkpt>
				<trkpt lat="45.263270" lon="2.568810">
					<ele>1019</ele>
					<time>2018-06-23T14:08:04Z</time>
				</trkpt>
				<trkpt lat="45.263120" lon="2.568880">
					<ele>1019</ele>
					<time>2018-06-23T14:09:04Z</time>
				</trkpt>
				<trkpt lat="45.263010" lon="2.568950">
					<ele>1018</ele>
					<time>2018-06-23T14:10:04Z</time>
				</trkpt>
				<trkpt lat="45.262940" lon="2.568990">
					<ele>1018</ele>
					<time>2018-06-23T14:11:04Z</time>
				</trkpt>
				<trkpt lat="45.262580" lon="2.569320">
					<ele>1014</ele>
					<time>2018-06-23T14:12:04Z</time>
				</trkpt>
				<trkpt lat="45.262270" lon="2.569600">
					<ele>1011</ele>
					<time>2018-06-23T14:13:04Z</time>
				</trkpt>
				<trkpt lat="45.262110" lon="2.569760">
					<ele>1010</ele>
					<time>2018-06-23T14:14:04Z</time>
				</trkpt>
				<trkpt lat="45.262010" lon="2.569890">
					<ele>1009</ele>
					<time>2018-06-23T14:15:04Z</time>
				</trkpt>
				<trkpt lat="45.261940" lon="2.570040">
					<ele>1008</ele>
					<time>2018-06-23T14:16:04Z</time>
				</trkpt>
				<trkpt lat="45.261880" lon="2.570230">
					<ele>1006</ele>
					<time>2018-06-23T14:17:04Z</time>
				</trkpt>
				<trkpt lat="45.261850" lon="2.570380">
					<ele>1004</ele>
					<time>2018-06-23T14:18:04Z</time>
				</trkpt>
				<trkpt lat="45.261840" lon="2.570540">
					<ele>1003</ele>
					<time>2018-06-23T14:19:04Z</time>
				</trkpt>
				<trkpt lat="45.261840" lon="2.570720">
					<ele>1000</ele>
					<time>2018-06-23T14:20:04Z</time>
				</trkpt>
				<trkpt lat="45.261890" lon="2.570940">
					<ele>999</ele>
					<time>2018-06-23T14:21:04Z</time>
				</trkpt>
				<trkpt lat="45.261910" lon="2.571020">
					<ele>1000</ele>
					<time>2018-06-23T14:22:04Z</time>
				</trkpt>
				<trkpt lat="45.261950" lon="2.571120">
					<ele>1000</ele>
					<time>2018-06-23T14:23:04Z</time>
				</trkpt>
				<trkpt lat="45.261970" lon="2.571150">
					<ele>1000</ele>
					<time>2018-06-23T14:24:04Z</time>
				</trkpt>
				<trkpt lat="45.262040" lon="2.571280">
					<ele>1001</ele>
					<time>2018-06-23T14:25:04Z</time>
				</trkpt>
				<trkpt lat="45.262150" lon="2.571400">
					<ele>1001</ele>
					<time>2018-06-23T14:26:04Z</time>
				</trkpt>
				<trkpt lat="45.262240" lon="2.571470">
					<ele>1001</ele>
					<time>2018-06-23T14:27:04Z</time>
				</trkpt>
				<trkpt lat="45.262430" lon="2.571560">
					<ele>1000</ele>
					<time>2018-06-23T14:28:04Z</time>
				</trkpt>
				<trkpt lat="45.262910" lon="2.571760">
					<ele>996</ele>
					<time>2018-06-23T14:29:04Z</time>
				</trkpt>
				<trkpt lat="45.263270" lon="2.571910">
					<ele>993</ele>
					<time>2018-06-23T14:30:04Z</time>
				</trkpt>
				<trkpt lat="45.263440" lon="2.571990">
					<ele>992</ele>
					<time>2018-06-23T14:31:04Z</time>
				</trkpt>
				<trkpt lat="45.263580" lon="2.572070">
					<ele>991</ele>
					<time>2018-06-23T14:32:04Z</time>
				</trkpt>
				<trkpt lat="45.263710" lon="2.572190">
					<ele>991</ele>
					<time>2018-06-23T14:33:04Z</time>
				</trkpt>
				<trkpt lat="45.263830" lon="2.572300">
					<ele>991</ele>
					<time>2018-06-23T14:34:04Z</time>
				</trkpt>
				<trkpt lat="45.263980" lon="2.572410">
					<ele>990</ele>
					<time>2018-06-23T14:35:04Z</time>
				</trkpt>
				<trkpt lat="45.264140" lon="2.572500">
					<ele>989</ele>
					<time>2018-06-23T14:36:04Z</time>
				</trkpt>
				<trkpt lat="45.264360" lon="2.572560">
					<ele>988</ele>
					<time>2018-06-23T14:37:04Z</time>
				</trkpt>
				<trkpt lat="45.264690" lon="2.572650">
					<ele>987</ele>
					<time>2018-06-23T14:38:04Z</time>
				</trkpt>
				<trkpt lat="45.264860" lon="2.572690">
					<ele>987</ele>
					<time>2018-06-23T14:39:04Z</time>
				</trkpt>
				<trkpt lat="45.265050" lon="2.572700">
					<ele>985</ele>
					<time>2018-06-23T14:40:04Z</time>
				</trkpt>
				<trkpt lat="45.265300" lon="2.572670">
					<ele>984</ele>
					<time>2018-06-23T14:41:04Z</time>
				</trkpt>
				<trkpt lat="45.265420" lon="2.572660">
					<ele>983</ele>
					<time>2018-06-23T14:42:04Z</time>
				</trkpt>
				<trkpt lat="45.265550" lon="2.572670">
					<ele>982</ele>
					<time>2018-06-23T14:43:04Z</time>
				</trkpt>
				<trkpt lat="45.265690" lon="2.572720">
					<ele>982</ele>
					<time>2018-06-23T14:44:04Z</time>
				</trkpt>
				<trkpt lat="45.265830" lon="2.572800">
					<ele>982</ele>
					<time>2018-06-23T14:45:04Z</time>
				</trkpt>
				<trkpt lat="45.266140" lon="2.573030">
					<ele>980</ele>
					<time>2018-06-23T14:46:04Z</time>
				</trkpt>
				<trkpt lat="45.266540" lon="2.573350">
					<ele>977</ele>
					<time>2018-06-23T14:47:04Z</time>
				</trkpt>
				<trkpt lat="45.266780" lon="2.573550">
					<ele>976</ele>
					<time>2018-06-23T14:48:04Z</time>
				</trkpt>
				<trkpt lat="45.266850" lon="2.573620">
					<ele>976</ele>
					<time>2018-06-23T14:49:04Z</time>
				</trkpt>
				<trkpt lat="45.266940" lon="2.573700">
					<ele>975</ele>
					<time>2018-06-23T14:50:04Z</time>
				</trkpt>
				<trkpt lat="45.267120" lon="2.573840">
					<ele>974</ele>
					<time>2018-06-23T14:51:04Z</time>
				</trkpt>
				<trkpt lat="45.267290" lon="2.574030">
					<ele>973</ele>
					<time>2018-06-23T14:52:04Z</time>
				</trkpt>
				<trkpt lat="45.267400" lon="2.574230">
					<ele>973</ele>
					<time>2018-06-23T14:53:04Z</time>
				</trkpt>
				<trkpt lat="45.267480" lon="2.574430">
					<ele>973</ele>
					<time>2018-06-23T14:54:04Z</time>
				</trkpt>
				<trkpt lat="45.267550" lon="2.574670">
					<ele>972</ele>
					<time>2018-06-23T14:55:04Z</time>
				</trkpt>
				<trkpt lat="45.267550" lon="2.574690">
					<ele>972</ele>
					<time>2018-06-23T14:56:04Z</time>
				</trkpt>
				<trkpt lat="45.267590" lon="2.575000">
					<ele>972</ele>
					<time>2018-06-23T14:57:04Z</time>
				</trkpt>
				<trkpt lat="45.267630" lon="2.575560">
					<ele>973</ele>
					<time>2018-06-23T14:58:04Z</time>
				</trkpt>
				<trkpt lat="45.267680" lon="2.575990">
					<ele>974</ele>
					<time>2018-06-23T14:59:04Z</time>
				</trkpt>
				<trkpt lat="45.267740" lon="2.576380">
					<ele>974</ele>
					<time>2018-06-23T15:00:04Z</time>
				</trkpt>
				<trkpt lat="45.267850" lon="2.576920">
					<ele>973</ele>
					<time>2018-06-23T15:01:04Z</time>
				</trkpt>
				<trkpt lat="45.267910" lon="2.577220">
					<ele>973</ele>
					<time>2018-06-23T15:02:04Z</time>
				</trkpt>
				<trkpt lat="45.267970" lon="2.577500">
					<ele>972</ele>
					<time>2018-06-23T15:03:04Z</time>
				</trkpt>
				<trkpt lat="45.268050" lon="2.577890">
					<ele>969</ele>
					<time>2018-06-23T15:04:04Z</time>
				</trkpt>
				<trkpt lat="45.268090" lon="2.578170">
					<ele>967</ele>
					<time>2018-06-23T15:05:04Z</time>
				</trkpt>
				<trkpt lat="45.268110" lon="2.578380">
					<ele>966</ele>
					<time>2018-06-23T15:06:04Z</time>
				</trkpt>
				<trkpt lat="45.268120" lon="2.578570">
					<ele>964</ele>
					<time>2018-06-23T15:07:04Z</time>
				</trkpt>
				<trkpt lat="45.268120" lon="2.578720">
					<ele>964</ele>
					<time>2018-06-23T15:08:04Z</time>
				</trkpt>
				<trkpt lat="45.268110" lon="2.578860">
					<ele>963</ele>
					<time>2018-06-23T15:09:04Z</time>
				</trkpt>
				<trkpt lat="45.268080" lon="2.579010">
					<ele>964</ele>
					<time>2018-06-23T15:10:04Z</time>
				</trkpt>
				<trkpt lat="45.268000" lon="2.579390">
					<ele>966</ele>
					<time>2018-06-23T15:11:04Z</time>
				</trkpt>
				<trkpt lat="45.267900" lon="2.579780">
					<ele>969</ele>
					<time>2018-06-23T15:12:04Z</time>
				</trkpt>
				<trkpt lat="45.267800" lon="2.580220">
					<ele>969</ele>
					<time>2018-06-23T15:13:04Z</time>
				</trkpt>
				<trkpt lat="45.267740" lon="2.580480">
					<ele>967</ele>
					<time>2018-06-23T15:14:04Z</time>
				</trkpt>
				<trkpt lat="45.267650" lon="2.580770">
					<ele>965</ele>
					<time>2018-06-23T15:15:04Z</time>
				</trkpt>
				<trkpt lat="45.267640" lon="2.580780">
					<ele>965</ele>
					<time>2018-06-23T15:16:04Z</time>
				</trkpt>
				<trkpt lat="45.267550" lon="2.581040">
					<ele>962</ele>
					<time>2018-06-23T15:17:04Z</time>
				</trkpt>
				<trkpt lat="45.267430" lon="2.581330">
					<ele>960</ele>
					<time>2018-06-23T15:18:04Z</time>
				</trkpt>
				<trkpt lat="45.267280" lon="2.581640">
					<ele>958</ele>
					<time>2018-06-23T15:19:04Z</time>
				</trkpt>
				<trkpt lat="45.267100" lon="2.581970">
					<ele>956</ele>
					<time>2018-06-23T15:20:04Z</time>
				</trkpt>
				<trkpt lat="45.266860" lon="2.582380">
					<ele>952</ele>
					<time>2018-06-23T15:21:04Z</time>
				</trkpt>
				<trkpt lat="45.266740" lon="2.582610">
					<ele>950</ele>
					<time>2018-06-23T15:22:04Z</time>
				</trkpt>
				<trkpt lat="45.266670" lon="2.582800">
					<ele>948</ele>
					<time>2018-06-23T15:23:04Z</time>
				</trkpt>
				<trkpt lat="45.266610" lon="2.582990">
					<ele>947</ele>
					<time>2018-06-23T15:24:04Z</time>
				</trkpt>
				<trkpt lat="45.266570" lon="2.583140">
					<ele>945</ele>
					<time>2018-06-23T15:25:04Z</time>
				</trkpt>
				<trkpt lat="45.266530" lon="2.583360">
					<ele>943</ele>
					<time>2018-06-23T15:26:04Z</time>
				</trkpt>
				<trkpt lat="45.266520" lon="2.583630">
					<ele>943</ele>
					<time>2018-06-23T15:27:04Z</time>
				</trkpt>
				<trkpt lat="45.266520" lon="2.583920">
					<ele>943</ele>
					<time>2018-06-23T15:28:04Z</time>
				</trkpt>
				<trkpt lat="45.266540" lon="2.584130">
					<ele>942</ele>
					<time>2018-06-23T15:29:04Z</time>
				</trkpt>
				<trkpt lat="45.266600" lon="2.584460">
					<ele>941</ele>
					<time>2018-06-23T15:30:04Z</time>
				</trkpt>
				<trkpt lat="45.266630" lon="2.584700">
					<ele>940</ele>
					<time>2018-06-23T15:31:04Z</time>
				</trkpt>
				<trkpt lat="45.266650" lon="2.584890">
					<ele>940</ele>
					<time>2018-06-23T15:32:04Z</time>
				</trkpt>
				<trkpt lat="45.266660" lon="2.585030">
					<ele>939</ele>
					<time>2018-06-23T15:33:04Z</time>
				</trkpt>
				<trkpt lat="45.266650" lon="2.585250">
					<ele>937</ele>
					<time>2018-06-23T15:34:04Z</time>
				</trkpt>
				<trkpt lat="45.266630" lon="2.585430">
					<ele>936</ele>
					<time>2018-06-23T15:35:04Z</time>
				</trkpt>
				<trkpt lat="45.266590" lon="2.585660">
					<ele>935</ele>
					<time>2018-06-23T15:36:04Z</time>
				</trkpt>
				<trkpt lat="45.266470" lon="2.586120">
					<ele>935</ele>
					<time>2018-06-23T15:37:04Z</time>
				</trkpt>
				<trkpt lat="45.266400" lon="2.586480">
					<ele>934</ele>
					<time>2018-06-23T15:38:04Z</time>
				</trkpt>
				<trkpt lat="45.266330" lon="2.586770">
					<ele>934</ele>
					<time>2018-06-23T15:39:04Z</time>
				</trkpt>
				<trkpt lat="45.266290" lon="2.586980">
					<ele>933</ele>
					<time>2018-06-23T15:40:04Z</time>
				</trkpt>
				<trkpt lat="45.266250" lon="2.587160">
					<ele>932</ele>
					<time>2018-06-23T15:41:04Z</time>
				</trkpt>
				<trkpt lat="45.266220" lon="2.587340">
					<ele>931</ele>
					<time>2018-06-23T15:42:04Z</time>
				</trkpt>
				<trkpt lat="45.266220" lon="2.587520">
					<ele>929</ele>
					<time>2018-06-23T15:43:04Z</time>
				</trkpt>
				<trkpt lat="45.266210" lon="2.587790">
					<ele>929</ele>
					<time>2018-06-23T15:44:04Z</time>
				</trkpt>
				<trkpt lat="45.266210" lon="2.588280">
					<ele>929</ele>
					<time>2018-06-23T15:45:04Z</time>
				</trkpt>
				<trkpt lat="45.266210" lon="2.588320">
					<ele>929</ele>
					<time>2018-06-23T15:46:04Z</time>
				</trkpt>
				<trkpt lat="45.266210" lon="2.589010">
					<ele>930</ele>
					<time>2018-06-23T15:47:04Z</time>
				</trkpt>
				<trkpt lat="45.266220" lon="2.589330">
					<ele>929</ele>
					<time>2018-06-23T15:48:04Z</time>
				</trkpt>
				<trkpt lat="45.266230" lon="2.589560">
					<ele>929</ele>
					<time>2018-06-23T15:49:04Z</time>
				</trkpt>
				<trkpt lat="45.266250" lon="2.589730">
					<ele>928</ele>
					<time>2018-06-23T15:50:04Z</time>
				</trkpt>
				<trkpt lat="45.266280" lon="2.589930">
					<ele>927</ele>
					<time>2018-06-23T15:51:04Z</time>
				</trkpt>
				<trkpt lat="45.266360" lon="2.590430">
					<ele>924</ele>
					<time>2018-06-23T15:52:04Z</time>
				</trkpt>
				<trkpt lat="45.266490" lon="2.591230">
					<ele>920</ele>
					<time>2018-06-23T15:53:04Z</time>
				</trkpt>
				<trkpt lat="45.266610" lon="2.591970">
					<ele>918</ele>
					<time>2018-06-23T15:54:04Z</time>
				</trkpt>
				<trkpt lat="45.266680" lon="2.592400">
					<ele>917</ele>
					<time>2018-06-23T15:55:04Z</time>
				</trkpt>
				<trkpt lat="45.266680" lon="2.592440">
					<ele>917</ele>
					<time>2018-06-23T15:56:04Z</time>
				</trkpt>
				<trkpt lat="45.266690" lon="2.592520">
					<ele>917</ele>
					<time>2018-06-23T15:57:04Z</time>
				</trkpt>
				<trkpt lat="45.266710" lon="2.592690">
					<ele>916</ele>
					<time>2018-06-23T15:58:04Z</time>
				</trkpt>
				<trkpt lat="45.266720" lon="2.592820">
					<ele>915</ele>
					<time>2018-06-23T15:59:04Z</time>
				</trkpt>
				<trkpt lat="45.266720" lon="2.592850">
					<ele>915</ele>
					<time>2018-06-23T16:00:04Z</time>
				</trkpt>
				<trkpt lat="45.266720" lon="2.593020">
					<ele>915</ele>
					<time>2018-06-23T16:01:04Z</time>
				</trkpt>
				<trkpt lat="45.266720" lon="2.593050">
					<ele>915</ele>
					<time>2018-06-23T16:02:04Z</time>
				</trkpt>
				<trkpt lat="45.266710" lon="2.593140">
					<ele>914</ele>
					<time>2018-06-23T16:03:04Z</time>
				</trkpt>
				<trkpt lat="45.266680" lon="2.593350">
					<ele>914</ele>
					<time>2018-06-23T16:04:04Z</time>
				</trkpt>
				<trkpt lat="45.266620" lon="2.593600">
					<ele>914</ele>
					<time>2018-06-23T16:05:04Z</time>
				</trkpt>
				<trkpt lat="45.266580" lon="2.593860">
					<ele>913</ele>
					<time>2018-06-23T16:06:04Z</time>
				</trkpt>
				<trkpt lat="45.266560" lon="2.594080">
					<ele>913</ele>
					<time>2018-06-23T16:07:04Z</time>
				</trkpt>
				<trkpt lat="45.266560" lon="2.594230">
					<ele>913</ele>
					<time>2018-06-23T16:08:04Z</time>
				</trkpt>
				<trkpt lat="45.266580" lon="2.594380">
					<ele>912</ele>
					<time>2018-06-23T16:09:04Z</time>
				</trkpt>
				<trkpt lat="45.266620" lon="2.594540">
					<ele>912</ele>
					<time>2018-06-23T16:10:04Z</time>
				</trkpt>
				<trkpt lat="45.266670" lon="2.594760">
					<ele>911</ele>
					<time>2018-06-23T16:11:04Z</time>
				</trkpt>
				<trkpt lat="45.266790" lon="2.595110">
					<ele>910</ele>
					<time>2018-06-23T16:12:04Z</time>
				</trkpt>
				<trkpt lat="45.266970" lon="2.595610">
					<ele>909</ele>
					<time>2018-06-23T16:13:04Z</time>
				</trkpt>
				<trkpt lat="45.267100" lon="2.595980">
					<ele>907</ele>
					<time>2018-06-23T16:14:04Z</time>
				</trkpt>
				<trkpt lat="45.267130" lon="2.596100">
					<ele>907</ele>
					<time>2018-06-23T16:15:04Z</time>
				</trkpt>
				<trkpt lat="45.267180" lon="2.596250">
					<ele>906</ele>
					<time>2018-06-23T16:16:04Z</time>
				</trkpt>
				<trkpt lat="45.267210" lon="2.596400">
					<ele>905</ele>
					<time>2018-06-23T16:17:04Z</time>
				</trkpt>
				<trkpt lat="45.267230" lon="2.596570">
					<ele>905</ele>
					<time>2018-06-23T16:18:04Z</time>
				</trkpt>
				<trkpt lat="45.267230" lon="2.596700">
					<ele>904</ele>
					<time>2018-06-23T16:19:04Z</time>
				</trkpt>
				<trkpt lat="45.267210" lon="2.596940">
					<ele>903</ele>
					<time>2018-06-23T16:20:04Z</time>
				</trkpt>
				<trkpt lat="45.267140" lon="2.597440">
					<ele>901</ele>
					<time>2018-06-23T16:21:04Z</time>
				</trkpt>
				<trkpt lat="45.267080" lon="2.598000">
					<ele>899</ele>
					<time>2018-06-23T16:22:04Z</time>
				</trkpt>
				<trkpt lat="45.267050" lon="2.598270">
					<ele>899</ele>
					<time>2018-06-23T16:23:04Z</time>
				</trkpt>
				<trkpt lat="45.267020" lon="2.598400">
					<ele>899</ele>
					<time>2018-06-23T16:24:04Z</time>
				</trkpt>
				<trkpt lat="45.266980" lon="2.598550">
					<ele>898</ele>
					<time>2018-06-23T16:25:04Z</time>
				</trkpt>
				<trkpt lat="45.266900" lon="2.598720">
					<ele>898</ele>
					<time>2018-06-23T16:26:04Z</time>
				</trkpt>
				<trkpt lat="45.266780" lon="2.598960">
					<ele>899</ele>
					<time>2018-06-23T16:27:04Z</time>
				</trkpt>
				<trkpt lat="45.266710" lon="2.599130">
					<ele>899</ele>
					<time>2018-06-23T16:28:04Z</time>
				</trkpt>
				<trkpt lat="45.266670" lon="2.599310">
					<ele>898</ele>
					<time>2018-06-23T16:29:04Z</time>
				</trkpt>
				<trkpt lat="45.266620" lon="2.599620">
					<ele>896</ele>
					<time>2018-06-23T16:30:04Z</time>
				</trkpt>
				<trkpt lat="45.266540" lon="2.600040">
					<ele>895</ele>
					<time>2018-06-23T16:31:04Z</time>
				</trkpt>
				<trkpt lat="45.266530" lon="2.600090">
					<ele>895</ele>
					<time>2018-06-23T16:32:04Z</time>
				</trkpt>
				<trkpt lat="45.266480" lon="2.600420">
					<ele>895</ele>
					<time>2018-06-23T16:33:04Z</time>
				</trkpt>
				<trkpt lat="45.266460" lon="2.600640">
					<ele>895</ele>
					<time>2018-06-23T16:34:04Z</time>
				</trkpt>
				<trkpt lat="45.266450" lon="2.600830">
					<ele>896</ele>
					<time>2018-06-23T16:35:04Z</time>
				</trkpt>
				<trkpt lat="45.266440" lon="2.601100">
					<ele>896</ele>
					<time>2018-06-23T16:36:04Z</time>
				</trkpt>
				<trkpt lat="45.266450" lon="2.601480">
					<ele>895</ele>
					<time>2018-06-23T16:37:04Z</time>
				</trkpt>
				<trkpt lat="45.266450" lon="2.601730">
					<ele>895</ele>
					<time>2018-06-23T16:38:04Z</time>
				</trkpt>
				<trkpt lat="45.266440" lon="2.601810">
					<ele>895</ele>
					<time>2018-06-23T16:39:04Z</time>
				</trkpt>
				<trkpt lat="45.266430" lon="2.601960">
					<ele>895</ele>
					<time>2018-06-23T16:40:04Z</time>
				</trkpt>
				<trkpt lat="45.266390" lon="2.602210">
					<ele>894</ele>
					<time>2018-06-23T16:41:04Z</time>
				</trkpt>
				<trkpt lat="45.266320" lon="2.602580">
					<ele>894</ele>
					<time>2018-06-23T16:42:04Z</time>
				</trkpt>
				<trkpt lat="45.266300" lon="2.602750">
					<ele>894</ele>
					<time>2018-06-23T16:43:04Z</time>
				</trkpt>
				<trkpt lat="45.266300" lon="2.602830">
					<ele>894</ele>
					<time>2018-06-23T16:44:04Z</time>
				</trkpt>
				<trkpt lat="45.266310" lon="2.602870">
					<ele>894</ele>
					<time>2018-06-23T16:45:04Z</time>
				</trkpt>
				<trkpt lat="45.266320" lon="2.602920">
					<ele>894</ele>
					<time>2018-06-23T16:46:04Z</time>
				</trkpt>
				<trkpt lat="45.266380" lon="2.603020">
					<ele>893</ele>
					<time>2018-06-23T16:47:04Z</time>
				</trkpt>
				<trkpt lat="45.266490" lon="2.603140">
					<ele>893</ele>
					<time>2018-06-23T16:48:04Z</time>
				</trkpt>
				<trkpt lat="45.266520" lon="2.603160">
					<ele>893</ele>
					<time>2018-06-23T16:49:04Z</time>
				</trkpt>
				<trkpt lat="45.266550" lon="2.603160">
					<ele>893</ele>
					<time>2018-06-23T16:50:04Z</time>
				</trkpt>
				<trkpt lat="45.266630" lon="2.603140">
					<ele>893</ele>
					<time>2018-06-23T16:51:04Z</time>
				</trkpt>
				<trkpt lat="45.266680" lon="2.603100">
					<ele>892</ele>
					<time>2018-06-23T16:52:04Z</time>
				</trkpt>
				<trkpt lat="45.266730" lon="2.603020">
					<ele>892</ele>
					<time>2018-06-23T16:53:04Z</time>
				</trkpt>
				<trkpt lat="45.266780" lon="2.602930">
					<ele>892</ele>
					<time>2018-06-23T16:54:04Z</time>
				</trkpt>
				<trkpt lat="45.266860" lon="2.602770">
					<ele>892</ele>
					<time>2018-06-23T16:55:04Z</time>
				</trkpt>
				<trkpt lat="45.266930" lon="2.602660">
					<ele>892</ele>
					<time>2018-06-23T16:56:04Z</time>
				</trkpt>
				<trkpt lat="45.267020" lon="2.602580">
					<ele>892</ele>
					<time>2018-06-23T16:57:04Z</time>
				</trkpt>
				<trkpt lat="45.267100" lon="2.602530">
					<ele>892</ele>
					<time>2018-06-23T16:58:04Z</time>
				</trkpt>
				<trkpt lat="45.267230" lon="2.602500">
					<ele>892</ele>
					<time>2018-06-23T16:59:04Z</time>
				</trkpt>
				<trkpt lat="45.267380" lon="2.602500">
					<ele>893</ele>
					<time>2018-06-23T17:00:04Z</time>
				</trkpt>
				<trkpt lat="45.267560" lon="2.602520">
					<ele>893</ele>
					<time>2018-06-23T17:01:04Z</time>
				</trkpt>
				<trkpt lat="45.267660" lon="2.602560">
					<ele>893</ele>
					<time>2018-06-23T17:02:04Z</time>
				</trkpt>
				<trkpt lat="45.267750" lon="2.602630">
					<ele>893</ele>
					<time>2018-06-23T17:03:04Z</time>
				</trkpt>
				<trkpt lat="45.267820" lon="2.602690">
					<ele>894</ele>
					<time>2018-06-23T17:04:04Z</time>
				</trkpt>
				<trkpt lat="45.267940" lon="2.602850">
					<ele>894</ele>
					<time>2018-06-23T17:05:04Z</time>
				</trkpt>
				<trkpt lat="45.268090" lon="2.603100">
					<ele>896</ele>
					<time>2018-06-23T17:06:04Z</time>
				</trkpt>
				<trkpt lat="45.268150" lon="2.603210">
					<ele>896</ele>
					<time>2018-06-23T17:07:04Z</time>
				</trkpt>
				<trkpt lat="45.268220" lon="2.603310">
					<ele>897</ele>
					<time>2018-06-23T17:08:04Z</time>
				</trkpt>
				<trkpt lat="45.268300" lon="2.603430">
					<ele>898</ele>
					<time>2018-06-23T17:09:04Z</time>
				</trkpt>
				<trkpt lat="45.268370" lon="2.603550">
					<ele>898</ele>
					<time>2018-06-23T17:10:04Z</time>
				</trkpt>
				<trkpt lat="45.268620" lon="2.603940">
					<ele>899</ele>
					<time>2018-06-23T17:11:04Z</time>
				</trkpt>
				<trkpt lat="45.268820" lon="2.604250">
					<ele>900</ele>
					<time>2018-06-23T17:12:04Z</time>
				</trkpt>
				<trkpt lat="45.268920" lon="2.604410">
					<ele>900</ele>
					<time>2018-06-23T17:13:04Z</time>
				</trkpt>
				<trkpt lat="45.268940" lon="2.604440">
					<ele>900</ele>
					<time>2018-06-23T17:14:04Z</time>
				</trkpt>
				<trkpt lat="45.269020" lon="2.604580">
					<ele>901</ele>
					<time>2018-06-23T17:15:04Z</time>
				</trkpt>
				<trkpt lat="45.269100" lon="2.604740">
					<ele>901</ele>
					<time>2018-06-23T17:16:04Z</time>
				</trkpt>
				<trkpt lat="45.269160" lon="2.604880">
					<ele>901</ele>
					<time>2018-06-23T17:17:04Z</time>
				</trkpt>
				<trkpt lat="45.269250" lon="2.605150">
					<ele>903</ele>
					<time>2018-06-23T17:18:04Z</time>
				</trkpt>
				<trkpt lat="45.269290" lon="2.605250">
					<ele>903</ele>
					<time>2018-06-23T17:19:04Z</time>
				</trkpt>
				<trkpt lat="45.269350" lon="2.605310">
					<ele>904</ele>
					<time>2018-06-23T17:20:04Z</time>
				</trkpt>
				<trkpt lat="45.269410" lon="2.605330">
					<ele>904</ele>
					<time>2018-06-23T17:21:04Z</time>
				</trkpt>
				<trkpt lat="45.269500" lon="2.605340">
					<ele>904</ele>
					<time>2018-06-23T17:22:04Z</time>
				</trkpt>
				<trkpt lat="45.269600" lon="2.605330">
					<ele>904</ele>
					<time>2018-06-23T17:23:04Z</time>
				</trkpt>
				<trkpt lat="45.269770" lon="2.605290">
					<ele>903</ele>
					<time>2018-06-23T17:24:04Z</time>
				</trkpt>
				<trkpt lat="45.269910" lon="2.605280">
					<ele>903</ele>
					<time>2018-06-23T17:25:04Z</time>
				</trkpt>
				<trkpt lat="45.270010" lon="2.605290">
					<ele>903</ele>
					<time>2018-06-23T17:26:04Z</time>
				</trkpt>
				<trkpt lat="45.270160" lon="2.605340">
					<ele>903</ele>
					<time>2018-06-23T17:27:04Z</time>
				</trkpt>
				<trkpt lat="45.270330" lon="2.605400">
					<ele>904</ele>
					<time>2018-06-23T17:28:04Z</time>
				</trkpt>
				<trkpt lat="45.270450" lon="2.605420">
					<ele>904</ele>
					<time>2018-06-23T17:29:04Z</time>
				</trkpt>
				<trkpt lat="45.270620" lon="2.605410">
					<ele>904</ele>
					<time>2018-06-23T17:30:04Z</time>
				</trkpt>
				<trkpt lat="45.270740" lon="2.605360">
					<ele>903</ele>
					<time>2018-06-23T17:31:04Z</time>
				</trkpt>
				<trkpt lat="45.270840" lon="2.605300">
					<ele>903</ele>
					<time>2018-06-23T17:32:04Z</time>
				</trkpt>
				<trkpt lat="45.270930" lon="2.605230">
					<ele>903</ele>
					<time>2018-06-23T17:33:04Z</time>
				</trkpt>
				<trkpt lat="45.271010" lon="2.605150">
					<ele>903</ele>
					<time>2018-06-23T17:34:04Z</time>
				</trkpt>
				<trkpt lat="45.271110" lon="2.605040">
					<ele>902</ele>
					<time>2018-06-23T17:35:04Z</time>
				</trkpt>
				<trkpt lat="45.271460" lon="2.604620">
					<ele>902</ele>
					<time>2018-06-23T17:36:04Z</time>
				</trkpt>
				<trkpt lat="45.271600" lon="2.604450">
					<ele>901</ele>
					<time>2018-06-23T17:37:04Z</time>
				</trkpt>
				<trkpt lat="45.271740" lon="2.604280">
					<ele>901</ele>
					<time>2018-06-23T17:38:04Z</time>
				</trkpt>
				<trkpt lat="45.271890" lon="2.604110">
					<ele>901</ele>
					<time>2018-06-23T17:39:04Z</time>
				</trkpt>
				<trkpt lat="45.271980" lon="2.604030">
					<ele>901</ele>
					<time>2018-06-23T17:40:04Z</time>
				</trkpt>
				<trkpt lat="45.272060" lon="2.603980">
					<ele>900</ele>
					<time>2018-06-23T17:41:04Z</time>
				</trkpt>
				<trkpt lat="45.272220" lon="2.603910">
					<ele>901</ele>
					<time>2018-06-23T17:42:04Z</time>
				</trkpt>
				<trkpt lat="45.272380" lon="2.603850">
					<ele>901</ele>
					<time>2018-06-23T17:43:04Z</time>
				</trkpt>
				<trkpt lat="45.272500" lon="2.603830">
					<ele>901</ele>
					<time>2018-06-23T17:44:04Z</time>
				</trkpt>
				<trkpt lat="45.272590" lon="2.603840">
					<ele>901</ele>
					<time>2018-06-23T17:45:04Z</time>
				</trkpt>
				<trkpt lat="45.272690" lon="2.603900">
					<ele>901</ele>
					<time>2018-06-23T17:46:04Z</time>
				</trkpt>
				<trkpt lat="45.272750" lon="2.603950">
					<ele>901</ele>
					<time>2018-06-23T17:47:04Z</time>
				</trkpt>
				<trkpt lat="45.272790" lon="2.604000">
					<ele>901</ele>
					<time>2018-06-23T17:48:04Z</time>
				</trkpt>
				<trkpt lat="45.272830" lon="2.604080">
					<ele>901</ele>
					<time>2018-06-23T17:49:04Z</time>
				</trkpt>
				<trkpt lat="45.272850" lon="2.604150">
					<ele>902</ele>
					<time>2018-06-23T17:50:04Z</time>
				</trkpt>
				<trkpt lat="45.272870" lon="2.604240">
					<ele>902</ele>
					<time>2018-06-23T17:51:04Z</time>
				</trkpt>
				<trkpt lat="45.272880" lon="2.604320">
					<ele>902</ele>
					<time>2018-06-23T17:52:04Z</time>
				</trkpt>
				<trkpt lat="45.272890" lon="2.604410">
					<ele>903</ele>
					<time>2018-06-23T17:53:04Z</time>
				</trkpt>
				<trkpt lat="45.272890" lon="2.604500">
					<ele>903</ele>
					<time>2018-06-23T17:54:04Z</time>
				</trkpt>
				<trkpt lat="45.272890" lon="2.604600">
					<ele>904</ele>
					<time>2018-06-23T17:55:04Z</time>
				</trkpt>
				<trkpt lat="45.272900" lon="2.604700">
					<ele>904</ele>
					<time>2018-06-23T17:56:04Z</time>
				</trkpt>
				<trkpt lat="45.272900" lon="2.604880">
					<ele>905</ele>
					<time>2018-06-23T17:57:04Z</time>
				</trkpt>
				<trkpt lat="45.272900" lon="2.604980">
					<ele>905</ele>
					<time>2018-06-23T17:58:04Z</time>
				</trkpt>
				<trkpt lat="45.272910" lon="2.605080">
					<ele>905</ele>
					<time>2018-06-23T17:59:04Z</time>
				</trkpt>
				<trkpt lat="45.272920" lon="2.605180">
					<ele>906</ele>
					<time>2018-06-23T18:00:04Z</time>
				</trkpt>
				<trkpt lat="45.272930" lon="2.605280">
					<ele>906</ele>
					<time>2018-06-23T18:01:04Z</time>
				</trkpt>
				<trkpt lat="45.272950" lon="2.605380">
					<ele>907</ele>
					<time>2018-06-23T18:02:04Z</time>
				</trkpt>
				<trkpt lat="45.272980" lon="2.605470">
					<ele>907</ele>
					<time>2018-06-23T18:03:04Z</time>
				</trkpt>
				<trkpt lat="45.273020" lon="2.605570">
					<ele>907</ele>
					<time>2018-06-23T18:04:04Z</time>
				</trkpt>
				<trkpt lat="45.273060" lon="2.605650">
					<ele>908</ele>
					<time>2018-06-23T18:05:04Z</time>
				</trkpt>
				<trkpt lat="45.273110" lon="2.605740">
					<ele>908</ele>
					<time>2018-06-23T18:06:04Z</time>
				</trkpt>
				<trkpt lat="45.273150" lon="2.605830">
					<ele>908</ele>
					<time>2018-06-23T18:07:04Z</time>
				</trkpt>
				<trkpt lat="45.273230" lon="2.606010">
					<ele>909</ele>
					<time>2018-06-23T18:08:04Z</time>
				</trkpt>
				<trkpt lat="45.273260" lon="2.606110">
					<ele>909</ele>
					<time>2018-06-23T18:09:04Z</time>
				</trkpt>
				<trkpt lat="45.273290" lon="2.606210">
					<ele>909</ele>
					<time>2018-06-23T18:10:04Z</time>
				</trkpt>
				<trkpt lat="45.273320" lon="2.606310">
					<ele>909</ele>
					<time>2018-06-23T18:11:04Z</time>
				</trkpt>
				<trkpt lat="45.273340" lon="2.606420">
					<ele>909</ele>
					<time>2018-06-23T18:12:04Z</time>
				</trkpt>
				<trkpt lat="45.273360" lon="2.606520">
					<ele>910</ele>
					<time>2018-06-23T18:13:04Z</time>
				</trkpt>
				<trkpt lat="45.273360" lon="2.606640">
					<ele>910</ele>
					<time>2018-06-23T18:14:04Z</time>
				</trkpt>
				<trkpt lat="45.273370" lon="2.606750">
					<ele>910</ele>
					<time>2018-06-23T18:15:04Z</time>
				</trkpt>
				<trkpt lat="45.273370" lon="2.606860">
					<ele>910</ele>
					<time>2018-06-23T18:16:04Z</time>
				</trkpt>
				<trkpt lat="45.273370" lon="2.606980">
					<ele>910</ele>
					<time>2018-06-23T18:17:04Z</time>
				</trkpt>
				<trkpt lat="45.273370" lon="2.607090">
					<ele>909</ele>
					<time>2018-06-23T18:18:04Z</time>
				</trkpt>
				<trkpt lat="45.273360" lon="2.607210">
					<ele>909</ele>
					<time>2018-06-23T18:19:04Z</time>
				</trkpt>
				<trkpt lat="45.273340" lon="2.607330">
					<ele>909</ele>
					<time>2018-06-23T18:20:04Z</time>
				</trkpt>
				<trkpt lat="45.273330" lon="2.607450">
					<ele>909</ele>
					<time>2018-06-23T18:21:04Z</time>
				</trkpt>
				<trkpt lat="45.273310" lon="2.607570">
					<ele>909</ele>
					<time>2018-06-23T18:22:04Z</time>
				</trkpt>
				<trkpt lat="45.273290" lon="2.607690">
					<ele>910</ele>
					<time>2018-06-23T18:23:04Z</time>
				</trkpt>
				<trkpt lat="45.273270" lon="2.607810">
					<ele>910</ele>
					<time>2018-06-23T18:24:04Z</time>
				</trkpt>
				<trkpt lat="45.273240" lon="2.607930">
					<ele>910</ele>
					<time>2018-06-23T18:25:04Z</time>
				</trkpt>
				<trkpt lat="45.273220" lon="2.608040">
					<ele>911</ele>
					<time>2018-06-23T18:26:04Z</time>
				</trkpt>
				<trkpt lat="45.273200" lon="2.608170">
					<ele>911</ele>
					<time>2018-06-23T18:27:04Z</time>
				</trkpt>
				<trkpt lat="45.273170" lon="2.608290">
					<ele>911</ele>
					<time>2018-06-23T18:28:04Z</time>
				</trkpt>
				<trkpt lat="45.273160" lon="2.608420">
					<ele>911</ele>
					<time>2018-06-23T18:29:04Z</time>
				</trkpt>
				<trkpt lat="45.273150" lon="2.608550">
					<ele>912</ele>
					<time>2018-06-23T18:30:04Z</time>
				</trkpt>
				<trkpt lat="45.273140" lon="2.608680">
					<ele>913</ele>
					<time>2018-06-23T18:31:04Z</time>
				</trkpt>
				<trkpt lat="45.273140" lon="2.608820">
					<ele>913</ele>
					<time>2018-06-23T18:32:04Z</time>
				</trkpt>
				<trkpt lat="45.273140" lon="2.608940">
					<ele>914</ele>
					<time>2018-06-23T18:33:04Z</time>
				</trkpt>
				<trkpt lat="45.273140" lon="2.609070">
					<ele>915</ele>
					<time>2018-06-23T18:34:04Z</time>
				</trkpt>
				<trkpt lat="45.273140" lon="2.609870">
					<ele>916</ele>
					<time>2018-06-23T18:35:04Z</time>
				</trkpt>
				<trkpt lat="45.273140" lon="2.610010">
					<ele>916</ele>
					<time>2018-06-23T18:36:04Z</time>
				</trkpt>
				<trkpt lat="45.273140" lon="2.610270">
					<ele>917</ele>
					<time>2018-06-23T18:37:04Z</time>
				</trkpt>
				<trkpt lat="45.273130" lon="2.610650">
					<ele>918</ele>
					<time>2018-06-23T18:38:04Z</time>
				</trkpt>
				<trkpt lat="45.273130" lon="2.611120">
					<ele>919</ele>
					<time>2018-06-23T18:39:04Z</time>
				</trkpt>
				<trkpt lat="45.273140" lon="2.611220">
					<ele>919</ele>
					<time>2018-06-23T18:40:04Z</time>
				</trkpt>
				<trkpt lat="45.273160" lon="2.611320">
					<ele>919</ele>
					<time>2018-06-23T18:41:04Z</time>
				</trkpt>
				<trkpt lat="45.273180" lon="2.611420">
					<ele>919</ele>
					<time>2018-06-23T18:42:04Z</time>
				</trkpt>
				<trkpt lat="45.273210" lon="2.611520">
					<ele>919</ele>
					<time>2018-06-23T18:43:04Z</time>
				</trkpt>
				<trkpt lat="45.273250" lon="2.611600">
					<ele>920</ele>
					<time>2018-06-23T18:44:04Z</time>
				</trkpt>
				<trkpt lat="45.273290" lon="2.611690">
					<ele>920</ele>
					<time>2018-06-23T18:45:04Z</time>
				</trkpt>
				<trkpt lat="45.273330" lon="2.611770">
					<ele>920</ele>
					<time>2018-06-23T18:46:04Z</time>
				</trkpt>
				<trkpt lat="45.273380" lon="2.611860">
					<ele>921</ele>
					<time>2018-06-23T18:47:04Z</time>
				</trkpt>
				<trkpt lat="45.273420" lon="2.611940">
					<ele>921</ele>
					<time>2018-06-23T18:48:04Z</time>
				</trkpt>
				<trkpt lat="45.273460" lon="2.612030">
					<ele>921</ele>
					<time>2018-06-23T18:49:04Z</time>
				</trkpt>
				<trkpt lat="45.273550" lon="2.612210">
					<ele>922</ele>
					<time>2018-06-23T18:50:04Z</time>
				</trkpt>
				<trkpt lat="45.273590" lon="2.612300">
					<ele>922</ele>
					<time>2018-06-23T18:51:04Z</time>
				</trkpt>
				<trkpt lat="45.273680" lon="2.612480">
					<ele>922</ele>
					<time>2018-06-23T18:52:04Z</time>
				</trkpt>
				<trkpt lat="45.273770" lon="2.612660">
					<ele>923</ele>
					<time>2018-06-23T18:53:04Z</time>
				</trkpt>
				<trkpt lat="45.273850" lon="2.612840">
					<ele>923</ele>
					<time>2018-06-23T18:54:04Z</time>
				</trkpt>
				<trkpt lat="45.273890" lon="2.612950">
					<ele>923</ele>
					<time>2018-06-23T18:55:04Z</time>
				</trkpt>
				<trkpt lat="45.273910" lon="2.613030">
					<ele>923</ele>
					<time>2018-06-23T18:56:04Z</time>
				</trkpt>
				<trkpt lat="45.273950" lon="2.613140">
					<ele>923</ele>
					<time>2018-06-23T18:57:04Z</time>
				</trkpt>
				<trkpt lat="45.273970" lon="2.613240">
					<ele>923</ele>
					<time>2018-06-23T18:58:04Z</time>
				</trkpt>
				<trkpt lat="45.273990" lon="2.613350">
					<ele>923</ele>
					<time>2018-06-23T18:59:04Z</time>
				</trkpt>
				<trkpt lat="45.274010" lon="2.613460">
					<ele>923</ele>
					<time>2018-06-23T19:00:04Z</time>
				</trkpt>
				<trkpt lat="45.274030" lon="2.613580">
					<ele>923</ele>
					<time>2018-06-23T19:01:04Z</time>
				</trkpt>
				<trkpt lat="45.274060" lon="2.613810">
					<ele>923</ele>
					<time>2018-06-23T19:02:04Z</time>
				</trkpt>
				<trkpt lat="45.274100" lon="2.614060">
					<ele>922</ele>
					<time>2018-06-23T19:03:04Z</time>
				</trkpt>
				<trkpt lat="45.274140" lon="2.614310">
					<ele>922</ele>
					<time>2018-06-23T19:04:04Z</time>
				</trkpt>
				<trkpt lat="45.274160" lon="2.614440">
					<ele>922</ele>
					<time>2018-06-23T19:05:04Z</time>
				</trkpt>
				<trkpt lat="45.274170" lon="2.614570">
					<ele>922</ele>
					<time>2018-06-23T19:06:04Z</time>
				</trkpt>
				<trkpt lat="45.274230" lon="2.614980">
					<ele>922</ele>
					<time>2018-06-23T19:07:04Z</time>
				</trkpt>
				<trkpt lat="45.274280" lon="2.615260">
					<ele>922</ele>
					<time>2018-06-23T19:08:04Z</time>
				</trkpt>
				<trkpt lat="45.274320" lon="2.615530">
					<ele>922</ele>
					<time>2018-06-23T19:09:04Z</time>
				</trkpt>
				<trkpt lat="45.274380" lon="2.615960">
					<ele>922</ele>
					<time>2018-06-23T19:10:04Z</time>
				</trkpt>
				<trkpt lat="45.274380" lon="2.615970">
					<ele>922</ele>
					<time>2018-06-23T19:11:04Z</time>
				</trkpt>
				<trkpt lat="45.274440" lon="2.616380">
					<ele>922</ele>
					<time>2018-06-23T19:12:04Z</time>
				</trkpt>
				<trkpt lat="45.274500" lon="2.616820">
					<ele>921</ele>
					<time>2018-06-23T19:13:04Z</time>
				</trkpt>
				<trkpt lat="45.274540" lon="2.617120">
					<ele>920</ele>
					<time>2018-06-23T19:14:04Z</time>
				</trkpt>
				<trkpt lat="45.274600" lon="2.617570">
					<ele>919</ele>
					<time>2018-06-23T19:15:04Z</time>
				</trkpt>
				<trkpt lat="45.274640" lon="2.618020">
					<ele>918</ele>
					<time>2018-06-23T19:16:04Z</time>
				</trkpt>
				<trkpt lat="45.274700" lon="2.618470">
					<ele>918</ele>
					<time>2018-06-23T19:17:04Z</time>
				</trkpt>
				<trkpt lat="45.274730" lon="2.618750">
					<ele>918</ele>
					<time>2018-06-23T19:18:04Z</time>
				</trkpt>
				<trkpt lat="45.274770" lon="2.619010">
					<ele>919</ele>
					<time>2018-06-23T19:19:04Z</time>
				</trkpt>
				<trkpt lat="45.274780" lon="2.619140">
					<ele>919</ele>
					<time>2018-06-23T19:20:04Z</time>
				</trkpt>
				<trkpt lat="45.274800" lon="2.619370">
					<ele>919</ele>
					<time>2018-06-23T19:21:04Z</time>
				</trkpt>
				<trkpt lat="45.274820" lon="2.619600">
					<ele>918</ele>
					<time>2018-06-23T19:22:04Z</time>
				</trkpt>
				<trkpt lat="45.274850" lon="2.619810">
					<ele>918</ele>
					<time>2018-06-23T19:23:04Z</time>
				</trkpt>
				<trkpt lat="45.274890" lon="2.620010">
					<ele>917</ele>
					<time>2018-06-23T19:24:04Z</time>
				</trkpt>
				<trkpt lat="45.274920" lon="2.620110">
					<ele>917</ele>
					<time>2018-06-23T19:25:04Z</time>
				</trkpt>
				<trkpt lat="45.274950" lon="2.620200">
					<ele>917</ele>
					<time>2018-06-23T19:26:04Z</time>
				</trkpt>
				<trkpt lat="45.274980" lon="2.620290">
					<ele>917</ele>
					<time>2018-06-23T19:27:04Z</time>
				</trkpt>
				<trkpt lat="45.275030" lon="2.620410">
					<ele>917</ele>
					<time>2018-06-23T19:28:04Z</time>
				</trkpt>
				<trkpt lat="45.275100" lon="2.620550">
					<ele>917</ele>
					<time>2018-06-23T19:29:04Z</time>
				</trkpt>
				<trkpt lat="45.275190" lon="2.620730">
					<ele>916</ele>
					<time>2018-06-23T19:30:04Z</time>
				</trkpt>
				<trkpt lat="45.275280" lon="2.620910">
					<ele>915</ele>
					<time>2018-06-23T19:31:04Z</time>
				</trkpt>
				<trkpt lat="45.275430" lon="2.621240">
					<ele>913</ele>
					<time>2018-06-23T19:32:04Z</time>
				</trkpt>
				<trkpt lat="45.275560" lon="2.621530">
					<ele>912</ele>
					<time>2018-06-23T19:33:04Z</time>
				</trkpt>
				<trkpt lat="45.275690" lon="2.621800">
					<ele>910</ele>
					<time>2018-06-23T19:34:04Z</time>
				</trkpt>
				<trkpt lat="45.275740" lon="2.621880">
					<ele>909</ele>
					<time>2018-06-23T19:35:04Z</time>
				</trkpt>
				<trkpt lat="45.275820" lon="2.622050">
					<ele>908</ele>
					<time>2018-06-23T19:36:04Z</time>
				</trkpt>
				<trkpt lat="45.275890" lon="2.622200">
					<ele>907</ele>
					<time>2018-06-23T19:37:04Z</time>
				</trkpt>
				<trkpt lat="45.275930" lon="2.622290">
					<ele>907</ele>
					<time>2018-06-23T19:38:04Z</time>
				</trkpt>
				<trkpt lat="45.275990" lon="2.622400">
					<ele>907</ele>
					<time>2018-06-23T19:39:04Z</time>
				</trkpt>
				<trkpt lat="45.276020" lon="2.622440">
					<ele>907</ele>
					<time>2018-06-23T19:40:04Z</time>
				</trkpt>
				<trkpt lat="45.276090" lon="2.622500">
					<ele>907</ele>
					<time>2018-06-23T19:41:04Z</time>
				</trkpt>
				<trkpt lat="45.276150" lon="2.622540">
					<ele>907</ele>
					<time>2018-06-23T19:42:04Z</time>
				</trkpt>
				<trkpt lat="45.276200" lon="2.622560">
					<ele>907</ele>
					<time>2018-06-23T19:43:04Z</time>
				</trkpt>
				<trkpt lat="45.276250" lon="2.622580">
					<ele>907</ele>
					<time>2018-06-23T19:44:04Z</time>
				</trkpt>
				<trkpt lat="45.276300" lon="2.622590">
					<ele>908</ele>
					<time>2018-06-23T19:45:04Z</time>
				</trkpt>
				<trkpt lat="45.276350" lon="2.622600">
					<ele>908</ele>
					<time>2018-06-23T19:46:04Z</time>
				</trkpt>
				<trkpt lat="45.276530" lon="2.622620">
					<ele>908</ele>
					<time>2018-06-23T19:47:04Z</time>
				</trkpt>
				<trkpt lat="45.276690" lon="2.622630">
					<ele>908</ele>
					<time>2018-06-23T19:48:04Z</time>
				</trkpt>
				<trkpt lat="45.276780" lon="2.622620">
					<ele>908</ele>
					<time>2018-06-23T19:49:04Z</time>
				</trkpt>
				<trkpt lat="45.276860" lon="2.622610">
					<ele>907</ele>
					<time>2018-06-23T19:50:04Z</time>
				</trkpt>
				<trkpt lat="45.276940" lon="2.622590">
					<ele>907</ele>
					<time>2018-06-23T19:51:04Z</time>
				</trkpt>
				<trkpt lat="45.277040" lon="2.622540">
					<ele>905</ele>
					<time>2018-06-23T19:52:04Z</time>
				</trkpt>
				<trkpt lat="45.277120" lon="2.622500">
					<ele>904</ele>
					<time>2018-06-23T19:53:04Z</time>
				</trkpt>
				<trkpt lat="45.277280" lon="2.622440">
					<ele>903</ele>
					<time>2018-06-23T19:54:04Z</time>
				</trkpt>
				<trkpt lat="45.277320" lon="2.622430">
					<ele>902</ele>
					<time>2018-06-23T19:55:04Z</time>
				</trkpt>
				<trkpt lat="45.277410" lon="2.622410">
					<ele>902</ele>
					<time>2018-06-23T19:56:04Z</time>
				</trkpt>
				<trkpt lat="45.277460" lon="2.622410">
					<ele>901</ele>
					<time>2018-06-23T19:57:04Z</time>
				</trkpt>
				<trkpt lat="45.277530" lon="2.622420">
					<ele>901</ele>
					<time>2018-06-23T19:58:04Z</time>
				</trkpt>
				<trkpt lat="45.277590" lon="2.622440">
					<ele>901</ele>
					<time>2018-06-23T19:59:04Z</time>
				</trkpt>
				<trkpt lat="45.277650" lon="2.622470">
					<ele>901</ele>
					<time>2018-06-23T20:00:04Z</time>
				</trkpt>
				<trkpt lat="45.277710" lon="2.622510">
					<ele>901</ele>
					<time>2018-06-23T20:01:04Z</time>
				</trkpt>
				<trkpt lat="45.277830" lon="2.622600">
					<ele>902</ele>
					<time>2018-06-23T20:02:04Z</time>
				</trkpt>
				<trkpt lat="45.277950" lon="2.622670">
					<ele>903</ele>
					<time>2018-06-23T20:03:04Z</time>
				</trkpt>
				<trkpt lat="45.278010" lon="2.622700">
					<ele>903</ele>
					<time>2018-06-23T20:04:04Z</time>
				</trkpt>
				<trkpt lat="45.278080" lon="2.622720">
					<ele>903</ele>
					<time>2018-06-23T20:05:04Z</time>
				</trkpt>
				<trkpt lat="45.278150" lon="2.622730">
					<ele>903</ele>
					<time>2018-06-23T20:06:04Z</time>
				</trkpt>
				<trkpt lat="45.278220" lon="2.622740">
					<ele>902</ele>
					<time>2018-06-23T20:07:04Z</time>
				</trkpt>
				<trkpt lat="45.278290" lon="2.622740">
					<ele>902</ele>
					<time>2018-06-23T20:08:04Z</time>
				</trkpt>
				<trkpt lat="45.278360" lon="2.622750">
					<ele>902</ele>
					<time>2018-06-23T20:09:04Z</time>
				</trkpt>
				<trkpt lat="45.278430" lon="2.622740">
					<ele>901</ele>
					<time>2018-06-23T20:10:04Z</time>
				</trkpt>
				<trkpt lat="45.278500" lon="2.622740">
					<ele>900</ele>
					<time>2018-06-23T20:11:04Z</time>
				</trkpt>
				<trkpt lat="45.278580" lon="2.622740">
					<ele>900</ele>
					<time>2018-06-23T20:12:04Z</time>
				</trkpt>
				<trkpt lat="45.278660" lon="2.622730">
					<ele>899</ele>
					<time>2018-06-23T20:13:04Z</time>
				</trkpt>
				<trkpt lat="45.278730" lon="2.622730">
					<ele>899</ele>
					<time>2018-06-23T20:14:04Z</time>
				</trkpt>
				<trkpt lat="45.278810" lon="2.622720">
					<ele>898</ele>
					<time>2018-06-23T20:15:04Z</time>
				</trkpt>
				<trkpt lat="45.278880" lon="2.622720">
					<ele>898</ele>
					<time>2018-06-23T20:16:04Z</time>
				</trkpt>
				<trkpt lat="45.278970" lon="2.622720">
					<ele>897</ele>
					<time>2018-06-23T20:17:04Z</time>
				</trkpt>
				<trkpt lat="45.279030" lon="2.622730">
					<ele>897</ele>
					<time>2018-06-23T20:18:04Z</time>
				</trkpt>
				<trkpt lat="45.279100" lon="2.622740">
					<ele>897</ele>
					<time>2018-06-23T20:19:04Z</time>
				</trkpt>
				<trkpt lat="45.279160" lon="2.622760">
					<ele>897</ele>
					<time>2018-06-23T20:20:04Z</time>
				</trkpt>
				<trkpt lat="45.279220" lon="2.622800">
					<ele>897</ele>
					<time>2018-06-23T20:21:04Z</time>
				</trkpt>
				<trkpt lat="45.279290" lon="2.622830">
					<ele>897</ele>
					<time>2018-06-23T20:22:04Z</time>
				</trkpt>
				<trkpt lat="45.279340" lon="2.622890">
					<ele>897</ele>
					<time>2018-06-23T20:23:04Z</time>
				</trkpt>
				<trkpt lat="45.279390" lon="2.622950">
					<ele>897</ele>
					<time>2018-06-23T20:24:04Z</time>
				</trkpt>
				<trkpt lat="45.279440" lon="2.623020">
					<ele>898</ele>
					<time>2018-06-23T20:25:04Z</time>
				</trkpt>
				<trkpt lat="45.279480" lon="2.623090">
					<ele>898</ele>
					<time>2018-06-23T20:26:04Z</time>
				</trkpt>
				<trkpt lat="45.279530" lon="2.623180">
					<ele>899</ele>
					<time>2018-06-23T20:27:04Z</time>
				</trkpt>
				<trkpt lat="45.279570" lon="2.623260">
					<ele>899</ele>
					<time>2018-06-23T20:28:04Z</time>
				</trkpt>
				<trkpt lat="45.279610" lon="2.623340">
					<ele>900</ele>
					<time>2018-06-23T20:29:04Z</time>
				</trkpt>
				<trkpt lat="45.279660" lon="2.623430">
					<ele>899</ele>
					<time>2018-06-23T20:30:04Z</time>
				</trkpt>
				<trkpt lat="45.279700" lon="2.623520">
					<ele>899</ele>
					<time>2018-06-23T20:31:04Z</time>
				</trkpt>
				<trkpt lat="45.279750" lon="2.623600">
					<ele>899</ele>
					<time>2018-06-23T20:32:04Z</time>
				</trkpt>
				<trkpt lat="45.279800" lon="2.623690">
					<ele>898</ele>
					<time>2018-06-23T20:33:04Z</time>
				</trkpt>
				<trkpt lat="45.279840" lon="2.623780">
					<ele>898</ele>
					<time>2018-06-23T20:34:04Z</time>
				</trkpt>
				<trkpt lat="45.279890" lon="2.623860">
					<ele>898</ele>
					<time>2018-06-23T20:35:04Z</time>
				</trkpt>
				<trkpt lat="45.279930" lon="2.623950">
					<ele>897</ele>
					<time>2018-06-23T20:36:04Z</time>
				</trkpt>
				<trkpt lat="45.279980" lon="2.624030">
					<ele>897</ele>
					<time>2018-06-23T20:37:04Z</time>
				</trkpt>
				<trkpt lat="45.280050" lon="2.624210">
					<ele>898</ele>
					<time>2018-06-23T20:38:04Z</time>
				</trkpt>
				<trkpt lat="45.280090" lon="2.624300">
					<ele>899</ele>
					<time>2018-06-23T20:39:04Z</time>
				</trkpt>
				<trkpt lat="45.280120" lon="2.624390">
					<ele>900</ele>
					<time>2018-06-23T20:40:04Z</time>
				</trkpt>
				<trkpt lat="45.280150" lon="2.624480">
					<ele>900</ele>
					<time>2018-06-23T20:41:04Z</time>
				</trkpt>
				<trkpt lat="45.280180" lon="2.624570">
					<ele>901</ele>
					<time>2018-06-23T20:42:04Z</time>
				</trkpt>
				<trkpt lat="45.280210" lon="2.624660">
					<ele>902</ele>
					<time>2018-06-23T20:43:04Z</time>
				</trkpt>
				<trkpt lat="45.280240" lon="2.624810">
					<ele>903</ele>
					<time>2018-06-23T20:44:04Z</time>
				</trkpt>
				<trkpt lat="45.280260" lon="2.624860">
					<ele>903</ele>
					<time>2018-06-23T20:45:04Z</time>
				</trkpt>
				<trkpt lat="45.280300" lon="2.625060">
					<ele>904</ele>
					<time>2018-06-23T20:46:04Z</time>
				</trkpt>
				<trkpt lat="45.280370" lon="2.625360">
					<ele>905</ele>
					<time>2018-06-23T20:47:04Z</time>
				</trkpt>
				<trkpt lat="45.280430" lon="2.625640">
					<ele>905</ele>
					<time>2018-06-23T20:48:04Z</time>
				</trkpt>
				<trkpt lat="45.280510" lon="2.626000">
					<ele>903</ele>
					<time>2018-06-23T20:49:04Z</time>
				</trkpt>
				<trkpt lat="45.280560" lon="2.626320">
					<ele>902</ele>
					<time>2018-06-23T20:50:04Z</time>
				</trkpt>
				<trkpt lat="45.280570" lon="2.626410">
					<ele>901</ele>
					<time>2018-06-23T20:51:04Z</time>
				</trkpt>
				<trkpt lat="45.280570" lon="2.626500">
					<ele>901</ele>
					<time>2018-06-23T20:52:04Z</time>
				</trkpt>
				<trkpt lat="45.280580" lon="2.626620">
					<ele>901</ele>
					<time>2018-06-23T20:53:04Z</time>
				</trkpt>
				<trkpt lat="45.280580" lon="2.626710">
					<ele>901</ele>
					<time>2018-06-23T20:54:04Z</time>
				</trkpt>
				<trkpt lat="45.280580" lon="2.626810">
					<ele>900</ele>
					<time>2018-06-23T20:55:04Z</time>
				</trkpt>
				<trkpt lat="45.280570" lon="2.626920">
					<ele>900</ele>
					<time>2018-06-23T20:56:04Z</time>
				</trkpt>
				<trkpt lat="45.280570" lon="2.627020">
					<ele>899</ele>
					<time>2018-06-23T20:57:04Z</time>
				</trkpt>
				<trkpt lat="45.280550" lon="2.627120">
					<ele>899</ele>
					<time>2018-06-23T20:58:04Z</time>
				</trkpt>
				<trkpt lat="45.280540" lon="2.627220">
					<ele>898</ele>
					<time>2018-06-23T20:59:04Z</time>
				</trkpt>
				<trkpt lat="45.280520" lon="2.627320">
					<ele>898</ele>
					<time>2018-06-23T21:00:04Z</time>
				</trkpt>
				<trkpt lat="45.280500" lon="2.627430">
					<ele>898</ele>
					<time>2018-06-23T21:01:04Z</time>
				</trkpt>
				<trkpt lat="45.280480" lon="2.627520">
					<ele>898</ele>
					<time>2018-06-23T21:02:04Z</time>
				</trkpt>
				<trkpt lat="45.280460" lon="2.627620">
					<ele>898</ele>
					<time>2018-06-23T21:03:04Z</time>
				</trkpt>
				<trkpt lat="45.280440" lon="2.627720">
					<ele>897</ele>
					<time>2018-06-23T21:04:04Z</time>
				</trkpt>
				<trkpt lat="45.280430" lon="2.627810">
					<ele>897</ele>
					<time>2018-06-23T21:05:04Z</time>
				</trkpt>
				<trkpt lat="45.280420" lon="2.627910">
					<ele>896</ele>
					<time>2018-06-23T21:06:04Z</time>
				</trkpt>
				<trkpt lat="45.280420" lon="2.628010">
					<ele>895</ele>
					<time>2018-06-23T21:07:04Z</time>
				</trkpt>
				<trkpt lat="45.280420" lon="2.628110">
					<ele>894</ele>
					<time>2018-06-23T21:08:04Z</time>
				</trkpt>
				<trkpt lat="45.280430" lon="2.628210">
					<ele>893</ele>
					<time>2018-06-23T21:09:04Z</time>
				</trkpt>
				<trkpt lat="45.280440" lon="2.628310">
					<ele>892</ele>
					<time>2018-06-23T21:10:04Z</time>
				</trkpt>
				<trkpt lat="45.280450" lon="2.628410">
					<ele>890</ele>
					<time>2018-06-23T21:11:04Z</time>
				</trkpt>
				<trkpt lat="45.280460" lon="2.628510">
					<ele>889</ele>
					<time>2018-06-23T21:12:04Z</time>
				</trkpt>
				<trkpt lat="45.280470" lon="2.628610">
					<ele>888</ele>
					<time>2018-06-23T21:13:04Z</time>
				</trkpt>
				<trkpt lat="45.280500" lon="2.628920">
					<ele>885</ele>
					<time>2018-06-23T21:14:04Z</time>
				</trkpt>
				<trkpt lat="45.280520" lon="2.629130">
					<ele>883</ele>
					<time>2018-06-23T21:15:04Z</time>
				</trkpt>
				<trkpt lat="45.280550" lon="2.629340">
					<ele>882</ele>
					<time>2018-06-23T21:16:04Z</time>
				</trkpt>
				<trkpt lat="45.280580" lon="2.629590">
					<ele>880</ele>
					<time>2018-06-23T21:17:04Z</time>
				</trkpt>
				<trkpt lat="45.280610" lon="2.629860">
					<ele>878</ele>
					<time>2018-06-23T21:18:04Z</time>
				</trkpt>
				<trkpt lat="45.280640" lon="2.630060">
					<ele>877</ele>
					<time>2018-06-23T21:19:04Z</time>
				</trkpt>
				<trkpt lat="45.280660" lon="2.630160">
					<ele>877</ele>
					<time>2018-06-23T21:20:04Z</time>
				</trkpt>
				<trkpt lat="45.280680" lon="2.630250">
					<ele>877</ele>
					<time>2018-06-23T21:21:04Z</time>
				</trkpt>
				<trkpt lat="45.280710" lon="2.630350">
					<ele>876</ele>
					<time>2018-06-23T21:22:04Z</time>
				</trkpt>
				<trkpt lat="45.280740" lon="2.630450">
					<ele>876</ele>
					<time>2018-06-23T21:23:04Z</time>
				</trkpt>
				<trkpt lat="45.280780" lon="2.630540">
					<ele>876</ele>
					<time>2018-06-23T21:24:04Z</time>
				</trkpt>
				<trkpt lat="45.280820" lon="2.630620">
					<ele>876</ele>
					<time>2018-06-23T21:25:04Z</time>
				</trkpt>
				<trkpt lat="45.280870" lon="2.630700">
					<ele>876</ele>
					<time>2018-06-23T21:26:04Z</time>
				</trkpt>
				<trkpt lat="45.280930" lon="2.630780">
					<ele>876</ele>
					<time>2018-06-23T21:27:04Z</time>
				</trkpt>
				<trkpt lat="45.280980" lon="2.630840">
					<ele>875</ele>
					<time>2018-06-23T21:28:04Z</time>
				</trkpt>
				<trkpt lat="45.281040" lon="2.630900">
					<ele>875</ele>
					<time>2018-06-23T21:29:04Z</time>
				</trkpt>
				<trkpt lat="45.281110" lon="2.630950">
					<ele>875</ele>
					<time>2018-06-23T21:30:04Z</time>
				</trkpt>
				<trkpt lat="45.281180" lon="2.630990">
					<ele>875</ele>
					<time>2018-06-23T21:31:04Z</time>
				</trkpt>
				<trkpt lat="45.281250" lon="2.631020">
					<ele>875</ele>
					<time>2018-06-23T21:32:04Z</time>
				</trkpt>
				<trkpt lat="45.281320" lon="2.631050">
					<ele>875</ele>
					<time>2018-06-23T21:33:04Z</time>
				</trkpt>
				<trkpt lat="45.281390" lon="2.631060">
					<ele>875</ele>
					<time>2018-06-23T21:34:04Z</time>
				</trkpt>
				<trkpt lat="45.281460" lon="2.631080">
					<ele>875</ele>
					<time>2018-06-23T21:35:04Z</time>
				</trkpt>
				<trkpt lat="45.281540" lon="2.631090">
					<ele>875</ele>
					<time>2018-06-23T21:36:04Z</time>
				</trkpt>
				<trkpt lat="45.281620" lon="2.631090">
					<ele>875</ele>
					<time>2018-06-23T21:37:04Z</time>
				</trkpt>
				<trkpt lat="45.281690" lon="2.631100">
					<ele>875</ele>
					<time>2018-06-23T21:38:04Z</time>
				</trkpt>
				<trkpt lat="45.281890" lon="2.631110">
					<ele>875</ele>
					<time>2018-06-23T21:39:04Z</time>
				</trkpt>
				<trkpt lat="45.282030" lon="2.631120">
					<ele>875</ele>
					<time>2018-06-23T21:40:04Z</time>
				</trkpt>
				<trkpt lat="45.282190" lon="2.631140">
					<ele>875</ele>
					<time>2018-06-23T21:41:04Z</time>
				</trkpt>
				<trkpt lat="45.282300" lon="2.631150">
					<ele>874</ele>
					<time>2018-06-23T21:42:04Z</time>
				</trkpt>
				<trkpt lat="45.282430" lon="2.631180">
					<ele>874</ele>
					<time>2018-06-23T21:43:04Z</time>
				</trkpt>
				<trkpt lat="45.282490" lon="2.631200">
					<ele>874</ele>
					<time>2018-06-23T21:44:04Z</time>
				</trkpt>
				<trkpt lat="45.282580" lon="2.631230">
					<ele>874</ele>
					<time>2018-06-23T21:45:04Z</time>
				</trkpt>
				<trkpt lat="45.282890" lon="2.631350">
					<ele>874</ele>
					<time>2018-06-23T21:46:04Z</time>
				</trkpt>
				<trkpt lat="45.283010" lon="2.631390">
					<ele>874</ele>
					<time>2018-06-23T21:47:04Z</time>
				</trkpt>
				<trkpt lat="45.283160" lon="2.631440">
					<ele>874</ele>
					<time>2018-06-23T21:48:04Z</time>
				</trkpt>
				<trkpt lat="45.283310" lon="2.631490">
					<ele>873</ele>
					<time>2018-06-23T21:49:04Z</time>
				</trkpt>
				<trkpt lat="45.283450" lon="2.631540">
					<ele>874</ele>
					<time>2018-06-23T21:50:04Z</time>
				</trkpt>
				<trkpt lat="45.283600" lon="2.631590">
					<ele>874</ele>
					<time>2018-06-23T21:51:04Z</time>
				</trkpt>
				<trkpt lat="45.283740" lon="2.631630">
					<ele>874</ele>
					<time>2018-06-23T21:52:04Z</time>
				</trkpt>
				<trkpt lat="45.283870" lon="2.631690">
					<ele>875</ele>
					<time>2018-06-23T21:53:04Z</time>
				</trkpt>
				<trkpt lat="45.283990" lon="2.631750">
					<ele>875</ele>
					<time>2018-06-23T21:54:04Z</time>
				</trkpt>
				<trkpt lat="45.284050" lon="2.631780">
					<ele>875</ele>
					<time>2018-06-23T21:55:04Z</time>
				</trkpt>
				<trkpt lat="45.284110" lon="2.631830">
					<ele>875</ele>
					<time>2018-06-23T21:56:04Z</time>
				</trkpt>
				<trkpt lat="45.284160" lon="2.631880">
					<ele>875</ele>
					<time>2018-06-23T21:57:04Z</time>
				</trkpt>
				<trkpt lat="45.284210" lon="2.631940">
					<ele>875</ele>
					<time>2018-06-23T21:58:04Z</time>
				</trkpt>
				<trkpt lat="45.284270" lon="2.631990">
					<ele>876</ele>
					<time>2018-06-23T21:59:04Z</time>
				</trkpt>
				<trkpt lat="45.284310" lon="2.632060">
					<ele>876</ele>
					<time>2018-06-23T22:00:04Z</time>
				</trkpt>
				<trkpt lat="45.284360" lon="2.632130">
					<ele>876</ele>
					<time>2018-06-23T22:01:04Z</time>
				</trkpt>
				<trkpt lat="45.284410" lon="2.632200">
					<ele>876</ele>
					<time>2018-06-23T22:02:04Z</time>
				</trkpt>
				<trkpt lat="45.284450" lon="2.632280">
					<ele>876</ele>
					<time>2018-06-23T22:03:04Z</time>
				</trkpt>
				<trkpt lat="45.284500" lon="2.632360">
					<ele>877</ele>
					<time>2018-06-23T22:04:04Z</time>
				</trkpt>
				<trkpt lat="45.284540" lon="2.632440">
					<ele>877</ele>
					<time>2018-06-23T22:05:04Z</time>
				</trkpt>
				<trkpt lat="45.284580" lon="2.632530">
					<ele>877</ele>
					<time>2018-06-23T22:06:04Z</time>
				</trkpt>
				<trkpt lat="45.284620" lon="2.632620">
					<ele>877</ele>
					<time>2018-06-23T22:07:04Z</time>
				</trkpt>
				<trkpt lat="45.284660" lon="2.632710">
					<ele>877</ele>
					<time>2018-06-23T22:08:04Z</time>
				</trkpt>
				<trkpt lat="45.284690" lon="2.632800">
					<ele>877</ele>
					<time>2018-06-23T22:09:04Z</time>
				</trkpt>
				<trkpt lat="45.284750" lon="2.632960">
					<ele>877</ele>
					<time>2018-06-23T22:10:04Z</time>
				</trkpt>
				<trkpt lat="45.285070" lon="2.633880">
					<ele>875</ele>
					<time>2018-06-23T22:11:04Z</time>
				</trkpt>
				<trkpt lat="45.285090" lon="2.633940">
					<ele>875</ele>
					<time>2018-06-23T22:12:04Z</time>
				</trkpt>
				<trkpt lat="45.285330" lon="2.634630">
					<ele>873</ele>
					<time>2018-06-23T22:13:04Z</time>
				</trkpt>
				<trkpt lat="45.285520" lon="2.635210">
					<ele>871</ele>
					<time>2018-06-23T22:14:04Z</time>
				</trkpt>
				<trkpt lat="45.285590" lon="2.635420">
					<ele>869</ele>
					<time>2018-06-23T22:15:04Z</time>
				</trkpt>
				<trkpt lat="45.285750" lon="2.635950">
					<ele>867</ele>
					<time>2018-06-23T22:16:04Z</time>
				</trkpt>
				<trkpt lat="45.285860" lon="2.636310">
					<ele>865</ele>
					<time>2018-06-23T22:17:04Z</time>
				</trkpt>
				<trkpt lat="45.285940" lon="2.636580">
					<ele>864</ele>
					<time>2018-06-23T22:18:04Z</time>
				</trkpt>
				<trkpt lat="45.286020" lon="2.636780">
					<ele>863</ele>
					<time>2018-06-23T22:19:04Z</time>
				</trkpt>
				<trkpt lat="45.286070" lon="2.636930">
					<ele>862</ele>
					<time>2018-06-23T22:20:04Z</time>
				</trkpt>
				<trkpt lat="45.286120" lon="2.637040">
					<ele>862</ele>
					<time>2018-06-23T22:21:04Z</time>
				</trkpt>
				<trkpt lat="45.286160" lon="2.637130">
					<ele>861</ele>
					<time>2018-06-23T22:22:04Z</time>
				</trkpt>
				<trkpt lat="45.286200" lon="2.637220">
					<ele>861</ele>
					<time>2018-06-23T22:23:04Z</time>
				</trkpt>
				<trkpt lat="45.286200" lon="2.637220">
					<ele>861</ele>
					<time>2018-06-23T22:24:04Z</time>
				</trkpt>
				<trkpt lat="45.286040" lon="2.637610">
					<ele>860</ele>
					<time>2018-06-23T22:25:04Z</time>
				</trkpt>
				<trkpt lat="45.285840" lon="2.638180">
					<ele>859</ele>
					<time>2018-06-23T22:26:04Z</time>
				</trkpt>
				<trkpt lat="45.285720" lon="2.638480">
					<ele>860</ele>
					<time>2018-06-23T22:27:04Z</time>
				</trkpt>
				<trkpt lat="45.285710" lon="2.638570">
					<ele>860</ele>
					<time>2018-06-23T22:28:04Z</time>
				</trkpt>
				<trkpt lat="45.285650" lon="2.638730">
					<ele>860</ele>
					<time>2018-06-23T22:29:04Z</time>
				</trkpt>
				<trkpt lat="45.285560" lon="2.638960">
					<ele>860</ele>
					<time>2018-06-23T22:30:04Z</time>
				</trkpt>
				<trkpt lat="45.285510" lon="2.639120">
					<ele>860</ele>
					<time>2018-06-23T22:31:04Z</time>
				</trkpt>
				<trkpt lat="45.285450" lon="2.639300">
					<ele>859</ele>
					<time>2018-06-23T22:32:04Z</time>
				</trkpt>
				<trkpt lat="45.285420" lon="2.639430">
					<ele>859</ele>
					<time>2018-06-23T22:33:04Z</time>
				</trkpt>
				<trkpt lat="45.285400" lon="2.639550">
					<ele>858</ele>
					<time>2018-06-23T22:34:04Z</time>
				</trkpt>
				<trkpt lat="45.285400" lon="2.639690">
					<ele>857</ele>
					<time>2018-06-23T22:35:04Z</time>
				</trkpt>
				<trkpt lat="45.285390" lon="2.639770">
					<ele>857</ele>
					<time>2018-06-23T22:36:04Z</time>
				</trkpt>
				<trkpt lat="45.285400" lon="2.639860">
					<ele>857</ele>
					<time>2018-06-23T22:37:04Z</time>
				</trkpt>
				<trkpt lat="45.285410" lon="2.640080">
					<ele>856</ele>
					<time>2018-06-23T22:38:04Z</time>
				</trkpt>
				<trkpt lat="45.285450" lon="2.640400">
					<ele>855</ele>
					<time>2018-06-23T22:39:04Z</time>
				</trkpt>
				<trkpt lat="45.285500" lon="2.640800">
					<ele>854</ele>
					<time>2018-06-23T22:40:04Z</time>
				</trkpt>
				<trkpt lat="45.285520" lon="2.641050">
					<ele>854</ele>
					<time>2018-06-23T22:41:04Z</time>
				</trkpt>
				<trkpt lat="45.285540" lon="2.641280">
					<ele>854</ele>
					<time>2018-06-23T22:42:04Z</time>
				</trkpt>
				<trkpt lat="45.285540" lon="2.641410">
					<ele>854</ele>
					<time>2018-06-23T22:43:04Z</time>
				</trkpt>
				<trkpt lat="45.285550" lon="2.641530">
					<ele>854</ele>
					<time>2018-06-23T22:44:04Z</time>
				</trkpt>
				<trkpt lat="45.285540" lon="2.641800">
					<ele>854</ele>
					<time>2018-06-23T22:45:04Z</time>
				</trkpt>
				<trkpt lat="45.285530" lon="2.641970">
					<ele>853</ele>
					<time>2018-06-23T22:46:04Z</time>
				</trkpt>
				<trkpt lat="45.285510" lon="2.642180">
					<ele>853</ele>
					<time>2018-06-23T22:47:04Z</time>
				</trkpt>
				<trkpt lat="45.285480" lon="2.642440">
					<ele>853</ele>
					<time>2018-06-23T22:48:04Z</time>
				</trkpt>
				<trkpt lat="45.285450" lon="2.642650">
					<ele>852</ele>
					<time>2018-06-23T22:49:04Z</time>
				</trkpt>
				<trkpt lat="45.285420" lon="2.642790">
					<ele>852</ele>
					<time>2018-06-23T22:50:04Z</time>
				</trkpt>
				<trkpt lat="45.285330" lon="2.643210">
					<ele>852</ele>
					<time>2018-06-23T22:51:04Z</time>
				</trkpt>
				<trkpt lat="45.285310" lon="2.643330">
					<ele>852</ele>
					<time>2018-06-23T22:52:04Z</time>
				</trkpt>
				<trkpt lat="45.285290" lon="2.643450">
					<ele>852</ele>
					<time>2018-06-23T22:53:04Z</time>
				</trkpt>
				<trkpt lat="45.285270" lon="2.643550">
					<ele>852</ele>
					<time>2018-06-23T22:54:04Z</time>
				</trkpt>
				<trkpt lat="45.285260" lon="2.643700">
					<ele>852</ele>
					<time>2018-06-23T22:55:04Z</time>
				</trkpt>
				<trkpt lat="45.285250" lon="2.643850">
					<ele>852</ele>
					<time>2018-06-23T22:56:04Z</time>
				</trkpt>
				<trkpt lat="45.285260" lon="2.643990">
					<ele>852</ele>
					<time>2018-06-23T22:57:04Z</time>
				</trkpt>
				<trkpt lat="45.285280" lon="2.644370">
					<ele>851</ele>
					<time>2018-06-23T22:58:04Z</time>
				</trkpt>
				<trkpt lat="45.285280" lon="2.644490">
					<ele>851</ele>
					<time>2018-06-23T22:59:04Z</time>
				</trkpt>
				<trkpt lat="45.285280" lon="2.644650">
					<ele>850</ele>
					<time>2018-06-23T23:00:04Z</time>
				</trkpt>
				<trkpt lat="45.285270" lon="2.644760">
					<ele>850</ele>
					<time>2018-06-23T23:01:04Z</time>
				</trkpt>
				<trkpt lat="45.285260" lon="2.644940">
					<ele>850</ele>
					<time>2018-06-23T23:02:04Z</time>
				</trkpt>
				<trkpt lat="45.285230" lon="2.645490">
					<ele>850</ele>
					<time>2018-06-23T23:03:04Z</time>
				</trkpt>
				<trkpt lat="45.285210" lon="2.645810">
					<ele>850</ele>
					<time>2018-06-23T23:04:04Z</time>
				</trkpt>
				<trkpt lat="45.285210" lon="2.646020">
					<ele>850</ele>
					<time>2018-06-23T23:05:04Z</time>
				</trkpt>
				<trkpt lat="45.285200" lon="2.646290">
					<ele>851</ele>
					<time>2018-06-23T23:06:04Z</time>
				</trkpt>
				<trkpt lat="45.285210" lon="2.646410">
					<ele>851</ele>
					<time>2018-06-23T23:07:04Z</time>
				</trkpt>
				<trkpt lat="45.285210" lon="2.646490">
					<ele>851</ele>
					<time>2018-06-23T23:08:04Z</time>
				</trkpt>
				<trkpt lat="45.285220" lon="2.646620">
					<ele>851</ele>
					<time>2018-06-23T23:09:04Z</time>
				</trkpt>
				<trkpt lat="45.285220" lon="2.646830">
					<ele>851</ele>
					<time>2018-06-23T23:10:04Z</time>
				</trkpt>
				<trkpt lat="45.285220" lon="2.646920">
					<ele>851</ele>
					<time>2018-06-23T23:11:04Z</time>
				</trkpt>
				<trkpt lat="45.285220" lon="2.646980">
					<ele>851</ele>
					<time>2018-06-23T23:12:04Z</time>
				</trkpt>
				<trkpt lat="45.285210" lon="2.647040">
					<ele>851</ele>
					<time>2018-06-23T23:13:04Z</time>
				</trkpt>
				<trkpt lat="45.285210" lon="2.647040">
					<ele>851</ele>
					<time>2018-06-23T23:14:04Z</time>
				</trkpt>
				<trkpt lat="45.285200" lon="2.647050">
					<ele>851</ele>
					<time>2018-06-23T23:15:04Z</time>
				</trkpt>
				<trkpt lat="45.285200" lon="2.647060">
					<ele>851</ele>
					<time>2018-06-23T23:16:04Z</time>
				</trkpt>
				<trkpt lat="45.285190" lon="2.647070">
					<ele>851</ele>
					<time>2018-06-23T23:17:04Z</time>
				</trkpt>
				<trkpt lat="45.285190" lon="2.647080">
					<ele>851</ele>
					<time>2018-06-23T23:18:04Z</time>
				</trkpt>
				<trkpt lat="45.285180" lon="2.647090">
					<ele>851</ele>
					<time>2018-06-23T23:19:04Z</time>
				</trkpt>
				<trkpt lat="45.285180" lon="2.647100">
					<ele>851</ele>
					<time>2018-06-23T23:20:04Z</time>
				</trkpt>
				<trkpt lat="45.285180" lon="2.647110">
					<ele>851</ele>
					<time>2018-06-23T23:21:04Z</time>
				</trkpt>
				<trkpt lat="45.285170" lon="2.647120">
					<ele>851</ele>
					<time>2018-06-23T23:22:04Z</time>
				</trkpt>
				<trkpt lat="45.285170" lon="2.647140">
					<ele>851</ele>
					<time>2018-06-23T23:23:04Z</time>
				</trkpt>
				<trkpt lat="45.285170" lon="2.647150">
					<ele>851</ele>
					<time>2018-06-23T23:24:04Z</time>
				</trkpt>
				<trkpt lat="45.285170" lon="2.647160">
					<ele>851</ele>
					<time>2018-06-23T23:25:04Z</time>
				</trkpt>
				<trkpt lat="45.285170" lon="2.647170">
					<ele>851</ele>
					<time>2018-06-23T23:26:04Z</time>
				</trkpt>
				<trkpt lat="45.285170" lon="2.647190">
					<ele>851</ele>
					<time>2018-06-23T23:27:04Z</time>
				</trkpt>
				<trkpt lat="45.285170" lon="2.647200">
					<ele>851</ele>
					<time>2018-06-23T23:28:04Z</time>
				</trkpt>
				<trkpt lat="45.285170" lon="2.647210">
					<ele>851</ele>
					<time>2018-06-23T23:29:04Z</time>
				</trkpt>
				<trkpt lat="45.285120" lon="2.647340">
					<ele>852</ele>
					<time>2018-06-23T23:30:04Z</time>
				</trkpt>
				<trkpt lat="45.285090" lon="2.647440">
					<ele>852</ele>
					<time>2018-06-23T23:31:04Z</time>
				</trkpt>
				<trkpt lat="45.285060" lon="2.647510">
					<ele>852</ele>
					<time>2018-06-23T23:32:04Z</time>
				</trkpt>
				<trkpt lat="45.285040" lon="2.647590">
					<ele>852</ele>
					<time>2018-06-23T23:33:04Z</time>
				</trkpt>
				<trkpt lat="45.285020" lon="2.647680">
					<ele>852</ele>
					<time>2018-06-23T23:34:04Z</time>
				</trkpt>
				<trkpt lat="45.284930" lon="2.648070">
					<ele>852</ele>
					<time>2018-06-23T23:35:04Z</time>
				</trkpt>
				<trkpt lat="45.284870" lon="2.648350">
					<ele>851</ele>
					<time>2018-06-23T23:36:04Z</time>
				</trkpt>
				<trkpt lat="45.284820" lon="2.648570">
					<ele>851</ele>
					<time>2018-06-23T23:37:04Z</time>
				</trkpt>
				<trkpt lat="45.284770" lon="2.648750">
					<ele>851</ele>
					<time>2018-06-23T23:38:04Z</time>
				</trkpt>
				<trkpt lat="45.284720" lon="2.648940">
					<ele>851</ele>
					<time>2018-06-23T23:39:04Z</time>
				</trkpt>
				<trkpt lat="45.284660" lon="2.649150">
					<ele>850</ele>
					<time>2018-06-23T23:40:04Z</time>
				</trkpt>
				<trkpt lat="45.284600" lon="2.649310">
					<ele>850</ele>
					<time>2018-06-23T23:41:04Z</time>
				</trkpt>
				<trkpt lat="45.284500" lon="2.649590">
					<ele>851</ele>
					<time>2018-06-23T23:42:04Z</time>
				</trkpt>
				<trkpt lat="45.284410" lon="2.649800">
					<ele>851</ele>
					<time>2018-06-23T23:43:04Z</time>
				</trkpt>
				<trkpt lat="45.284320" lon="2.650010">
					<ele>851</ele>
					<time>2018-06-23T23:44:04Z</time>
				</trkpt>
				<trkpt lat="45.284240" lon="2.650170">
					<ele>852</ele>
					<time>2018-06-23T23:45:04Z</time>
				</trkpt>
				<trkpt lat="45.284190" lon="2.650280">
					<ele>852</ele>
					<time>2018-06-23T23:46:04Z</time>
				</trkpt>
				<trkpt lat="45.284080" lon="2.650480">
					<ele>852</ele>
					<time>2018-06-23T23:47:04Z</time>
				</trkpt>
				<trkpt lat="45.284080" lon="2.650480">
					<ele>852</ele>
					<time>2018-06-23T23:48:04Z</time>
				</trkpt>
				<trkpt lat="45.283910" lon="2.650820">
					<ele>853</ele>
					<time>2018-06-23T23:49:04Z</time>
				</trkpt>
				<trkpt lat="45.283760" lon="2.651140">
					<ele>854</ele>
					<time>2018-06-23T23:50:04Z</time>
				</trkpt>
				<trkpt lat="45.283690" lon="2.651300">
					<ele>854</ele>
					<time>2018-06-23T23:51:04Z</time>
				</trkpt>
				<trkpt lat="45.283650" lon="2.651420">
					<ele>854</ele>
					<time>2018-06-23T23:52:04Z</time>
				</trkpt>
				<trkpt lat="45.283620" lon="2.651620">
					<ele>854</ele>
					<time>2018-06-23T23:53:04Z</time>
				</trkpt>
				<trkpt lat="45.283560" lon="2.651960">
					<ele>853</ele>
					<time>2018-06-23T23:54:04Z</time>
				</trkpt>
				<trkpt lat="45.283480" lon="2.652450">
					<ele>852</ele>
					<time>2018-06-23T23:55:04Z</time>
				</trkpt>
				<trkpt lat="45.283380" lon="2.652930">
					<ele>852</ele>
					<time>2018-06-23T23:56:04Z</time>
				</trkpt>
				<trkpt lat="45.283310" lon="2.653240">
					<ele>853</ele>
					<time>2018-06-23T23:57:04Z</time>
				</trkpt>
				<trkpt lat="45.283280" lon="2.653380">
					<ele>853</ele>
					<time>2018-06-23T23:58:04Z</time>
				</trkpt>
				<trkpt lat="45.283240" lon="2.653600">
					<ele>852</ele>
					<time>2018-06-23T23:59:04Z</time>
				</trkpt>
				<trkpt lat="45.283160" lon="2.654040">
					<ele>851</ele>
					<time>2018-06-24T00:00:04Z</time>
				</trkpt>
				<trkpt lat="45.283110" lon="2.654300">
					<ele>851</ele>
					<time>2018-06-24T00:01:04Z</time>
				</trkpt>
				<trkpt lat="45.283040" lon="2.654560">
					<ele>851</ele>
					<time>2018-06-24T00:02:04Z</time>
				</trkpt>
				<trkpt lat="45.282910" lon="2.655000">
					<ele>850</ele>
					<time>2018-06-24T00:03:04Z</time>
				</trkpt>
				<trkpt lat="45.282790" lon="2.655340">
					<ele>850</ele>
					<time>2018-06-24T00:04:04Z</time>
				</trkpt>
				<trkpt lat="45.282730" lon="2.655510">
					<ele>850</ele>
					<time>2018-06-24T00:05:04Z</time>
				</trkpt>
				<trkpt lat="45.282660" lon="2.655700">
					<ele>849</ele>
					<time>2018-06-24T00:06:04Z</time>
				</trkpt>
				<trkpt lat="45.282500" lon="2.656100">
					<ele>848</ele>
					<time>2018-06-24T00:07:04Z</time>
				</trkpt>
				<trkpt lat="45.282400" lon="2.656340">
					<ele>849</ele>
					<time>2018-06-24T00:08:04Z</time>
				</trkpt>
				<trkpt lat="45.282120" lon="2.657020">
					<ele>849</ele>
					<time>2018-06-24T00:09:04Z</time>
				</trkpt>
				<trkpt lat="45.282100" lon="2.657090">
					<ele>849</ele>
					<time>2018-06-24T00:10:04Z</time>
				</trkpt>
				<trkpt lat="45.281910" lon="2.657530">
					<ele>848</ele>
					<time>2018-06-24T00:11:04Z</time>
				</trkpt>
				<trkpt lat="45.281890" lon="2.657590">
					<ele>847</ele>
					<time>2018-06-24T00:12:04Z</time>
				</trkpt>
				<trkpt lat="45.281710" lon="2.657980">
					<ele>846</ele>
					<time>2018-06-24T00:13:04Z</time>
				</trkpt>
				<trkpt lat="45.281610" lon="2.658170">
					<ele>846</ele>
					<time>2018-06-24T00:14:04Z</time>
				</trkpt>
				<trkpt lat="45.281520" lon="2.658390">
					<ele>845</ele>
					<time>2018-06-24T00:15:04Z</time>
				</trkpt>
				<trkpt lat="45.281460" lon="2.658580">
					<ele>846</ele>
					<time>2018-06-24T00:16:04Z</time>
				</trkpt>
				<trkpt lat="45.281430" lon="2.658650">
					<ele>846</ele>
					<time>2018-06-24T00:17:04Z</time>
				</trkpt>
				<trkpt lat="45.281430" lon="2.658650">
					<ele>846</ele>
					<time>2018-06-24T00:18:04Z</time>
				</trkpt>
				<trkpt lat="45.281420" lon="2.658680">
					<ele>846</ele>
					<time>2018-06-24T00:19:04Z</time>
				</trkpt>
				<trkpt lat="45.281410" lon="2.658700">
					<ele>846</ele>
					<time>2018-06-24T00:20:04Z</time>
				</trkpt>
				<trkpt lat="45.281400" lon="2.658800">
					<ele>846</ele>
					<time>2018-06-24T00:21:04Z</time>
				</trkpt>
				<trkpt lat="45.281390" lon="2.658890">
					<ele>846</ele>
					<time>2018-06-24T00:22:04Z</time>
				</trkpt>
				<trkpt lat="45.281370" lon="2.658960">
					<ele>846</ele>
					<time>2018-06-24T00:23:04Z</time>
				</trkpt>
				<trkpt lat="45.281310" lon="2.659010">
					<ele>846</ele>
					<time>2018-06-24T00:24:04Z</time>
				</trkpt>
				<trkpt lat="45.281270" lon="2.659050">
					<ele>846</ele>
					<time>2018-06-24T00:25:04Z</time>
				</trkpt>
				<trkpt lat="45.281230" lon="2.659120">
					<ele>846</ele>
					<time>2018-06-24T00:26:04Z</time>
				</trkpt>
				<trkpt lat="45.281200" lon="2.659170">
					<ele>846</ele>
					<time>2018-06-24T00:27:04Z</time>
				</trkpt>
				<trkpt lat="45.281190" lon="2.659240">
					<ele>846</ele>
					<time>2018-06-24T00:28:04Z</time>
				</trkpt>
				<trkpt lat="45.281180" lon="2.659290">
					<ele>846</ele>
					<time>2018-06-24T00:29:04Z</time>
				</trkpt>
				<trkpt lat="45.281170" lon="2.659350">
					<ele>846</ele>
					<time>2018-06-24T00:30:04Z</time>
				</trkpt>
				<trkpt lat="45.281150" lon="2.659640">
					<ele>845</ele>
					<time>2018-06-24T00:31:04Z</time>
				</trkpt>
				<trkpt lat="45.281130" lon="2.659770">
					<ele>845</ele>
					<time>2018-06-24T00:32:04Z</time>
				</trkpt>
				<trkpt lat="45.281120" lon="2.659820">
					<ele>845</ele>
					<time>2018-06-24T00:33:04Z</time>
				</trkpt>
				<trkpt lat="45.281110" lon="2.659860">
					<ele>845</ele>
					<time>2018-06-24T00:34:04Z</time>
				</trkpt>
				<trkpt lat="45.281110" lon="2.659860">
					<ele>845</ele>
					<time>2018-06-24T00:35:04Z</time>
				</trkpt>
				<trkpt lat="45.281010" lon="2.659930">
					<ele>845</ele>
					<time>2018-06-24T00:36:04Z</time>
				</trkpt>
				<trkpt lat="45.280900" lon="2.660020">
					<ele>845</ele>
					<time>2018-06-24T00:37:04Z</time>
				</trkpt>
				<trkpt lat="45.280860" lon="2.660050">
					<ele>845</ele>
					<time>2018-06-24T00:38:04Z</time>
				</trkpt>
				<trkpt lat="45.280760" lon="2.660160">
					<ele>845</ele>
					<time>2018-06-24T00:39:04Z</time>
				</trkpt>
				<trkpt lat="45.280610" lon="2.660350">
					<ele>844</ele>
					<time>2018-06-24T00:40:04Z</time>
				</trkpt>
				<trkpt lat="45.280330" lon="2.660710">
					<ele>843</ele>
					<time>2018-06-24T00:41:04Z</time>
				</trkpt>
				<trkpt lat="45.280030" lon="2.661110">
					<ele>842</ele>
					<time>2018-06-24T00:42:04Z</time>
				</trkpt>
				<trkpt lat="45.280030" lon="2.661110">
					<ele>842</ele>
					<time>2018-06-24T00:43:04Z</time>
				</trkpt>
				<trkpt lat="45.280000" lon="2.661250">
					<ele>841</ele>
					<time>2018-06-24T00:44:04Z</time>
				</trkpt>
				<trkpt lat="45.279990" lon="2.661600">
					<ele>839</ele>
					<time>2018-06-24T00:45:04Z</time>
				</trkpt>
				<trkpt lat="45.279990" lon="2.662060">
					<ele>837</ele>
					<time>2018-06-24T00:46:04Z</time>
				</trkpt>
				<trkpt lat="45.279990" lon="2.662140">
					<ele>837</ele>
					<time>2018-06-24T00:47:04Z</time>
				</trkpt>
				<trkpt lat="45.279990" lon="2.662170">
					<ele>837</ele>
					<time>2018-06-24T00:48:04Z</time>
				</trkpt>
				<trkpt lat="45.279990" lon="2.662370">
					<ele>836</ele>
					<time>2018-06-24T00:49:04Z</time>
				</trkpt>
				<trkpt lat="45.279990" lon="2.662430">
					<ele>836</ele>
					<time>2018-06-24T00:50:04Z</time>
				</trkpt>
				<trkpt lat="45.279990" lon="2.662520">
					<ele>836</ele>
					<time>2018-06-24T00:51:04Z</time>
				</trkpt>
				<trkpt lat="45.279990" lon="2.662820">
					<ele>835</ele>
					<time>2018-06-24T00:52:04Z</time>
				</trkpt>
				<trkpt lat="45.279990" lon="2.662920">
					<ele>835</ele>
					<time>2018-06-24T00:53:04Z</time>
				</trkpt>
				<trkpt lat="45.279980" lon="2.663010">
					<ele>835</ele>
					<time>2018-06-24T00:54:04Z</time>
				</trkpt>
				<trkpt lat="45.279990" lon="2.663120">
					<ele>835</ele>
					<time>2018-06-24T00:55:04Z</time>
				</trkpt>
				<trkpt lat="45.279980" lon="2.663300">
					<ele>834</ele>
					<time>2018-06-24T00:56:04Z</time>
				</trkpt>
				<trkpt lat="45.279980" lon="2.663810">
					<ele>835</ele>
					<time>2018-06-24T00:57:04Z</time>
				</trkpt>
				<trkpt lat="45.279960" lon="2.663910">
					<ele>835</ele>
					<time>2018-06-24T00:58:04Z</time>
				</trkpt>
				<trkpt lat="45.279950" lon="2.663980">
					<ele>835</ele>
					<time>2018-06-24T00:59:04Z</time>
				</trkpt>
				<trkpt lat="45.279920" lon="2.664040">
					<ele>835</ele>
					<time>2018-06-24T01:00:04Z</time>
				</trkpt>
				<trkpt lat="45.279920" lon="2.664040">
					<ele>835</ele>
					<time>2018-06-24T01:01:04Z</time>
				</trkpt>
				<trkpt lat="45.279910" lon="2.664040">
					<ele>835</ele>
					<time>2018-06-24T01:02:04Z</time>
				</trkpt>
				<trkpt lat="45.279890" lon="2.664040">
					<ele>835</ele>
					<time>2018-06-24T01:03:04Z</time>
				</trkpt>
				<trkpt lat="45.279880" lon="2.664040">
					<ele>835</ele>
					<time>2018-06-24T01:04:04Z</time>
				</trkpt>
				<trkpt lat="45.279870" lon="2.664050">
					<ele>835</ele>
					<time>2018-06-24T01:05:04Z</time>
				</trkpt>
				<trkpt lat="45.279860" lon="2.664050">
					<ele>835</ele>
					<time>2018-06-24T01:06:04Z</time>
				</trkpt>
				<trkpt lat="45.279840" lon="2.664050">
					<ele>835</ele>
					<time>2018-06-24T01:07:04Z</time>
				</trkpt>
				<trkpt lat="45.279830" lon="2.664060">
					<ele>835</ele>
					<time>2018-06-24T01:08:04Z</time>
				</trkpt>
				<trkpt lat="45.279820" lon="2.664070">
					<ele>835</ele>
					<time>2018-06-24T01:09:04Z</time>
				</trkpt>
				<trkpt lat="45.279810" lon="2.664080">
					<ele>835</ele>
					<time>2018-06-24T01:10:04Z</time>
				</trkpt>
				<trkpt lat="45.279800" lon="2.664090">
					<ele>835</ele>
					<time>2018-06-24T01:11:04Z</time>
				</trkpt>
				<trkpt lat="45.279800" lon="2.664100">
					<ele>835</ele>
					<time>2018-06-24T01:12:04Z</time>
				</trkpt>
				<trkpt lat="45.279790" lon="2.664110">
					<ele>835</ele>
					<time>2018-06-24T01:13:04Z</time>
				</trkpt>
				<trkpt lat="45.279780" lon="2.664120">
					<ele>835</ele>
					<time>2018-06-24T01:14:04Z</time>
				</trkpt>
				<trkpt lat="45.279780" lon="2.664140">
					<ele>835</ele>
					<time>2018-06-24T01:15:04Z</time>
				</trkpt>
				<trkpt lat="45.279770" lon="2.664150">
					<ele>835</ele>
					<time>2018-06-24T01:16:04Z</time>
				</trkpt>
				<trkpt lat="45.279770" lon="2.664170">
					<ele>835</ele>
					<time>2018-06-24T01:17:04Z</time>
				</trkpt>
				<trkpt lat="45.279760" lon="2.664180">
					<ele>835</ele>
					<time>2018-06-24T01:18:04Z</time>
				</trkpt>
				<trkpt lat="45.279760" lon="2.664200">
					<ele>835</ele>
					<time>2018-06-24T01:19:04Z</time>
				</trkpt>
				<trkpt lat="45.279760" lon="2.664210">
					<ele>835</ele>
					<time>2018-06-24T01:20:04Z</time>
				</trkpt>
				<trkpt lat="45.279760" lon="2.664230">
					<ele>835</ele>
					<time>2018-06-24T01:21:04Z</time>
				</trkpt>
				<trkpt lat="45.279760" lon="2.664240">
					<ele>835</ele>
					<time>2018-06-24T01:22:04Z</time>
				</trkpt>
				<trkpt lat="45.279760" lon="2.664260">
					<ele>835</ele>
					<time>2018-06-24T01:23:04Z</time>
				</trkpt>
				<trkpt lat="45.279760" lon="2.664270">
					<ele>835</ele>
					<time>2018-06-24T01:24:04Z</time>
				</trkpt>
				<trkpt lat="45.279760" lon="2.664290">
					<ele>835</ele>
					<time>2018-06-24T01:25:04Z</time>
				</trkpt>
				<trkpt lat="45.279770" lon="2.664310">
					<ele>835</ele>
					<time>2018-06-24T01:26:04Z</time>
				</trkpt>
				<trkpt lat="45.279750" lon="2.664350">
					<ele>835</ele>
					<time>2018-06-24T01:27:04Z</time>
				</trkpt>
				<trkpt lat="45.279720" lon="2.664400">
					<ele>835</ele>
					<time>2018-06-24T01:28:04Z</time>
				</trkpt>
				<trkpt lat="45.279680" lon="2.664470">
					<ele>835</ele>
					<time>2018-06-24T01:29:04Z</time>
				</trkpt>
				<trkpt lat="45.279640" lon="2.664500">
					<ele>835</ele>
					<time>2018-06-24T01:30:04Z</time>
				</trkpt>
				<trkpt lat="45.279620" lon="2.664540">
					<ele>835</ele>
					<time>2018-06-24T01:31:04Z</time>
				</trkpt>
				<trkpt lat="45.279600" lon="2.664570">
					<ele>835</ele>
					<time>2018-06-24T01:32:04Z</time>
				</trkpt>
				<trkpt lat="45.279580" lon="2.664600">
					<ele>835</ele>
					<time>2018-06-24T01:33:04Z</time>
				</trkpt>
				<trkpt lat="45.279570" lon="2.664640">
					<ele>835</ele>
					<time>2018-06-24T01:34:04Z</time>
				</trkpt>
				<trkpt lat="45.279560" lon="2.664680">
					<ele>835</ele>
					<time>2018-06-24T01:35:04Z</time>
				</trkpt>
				<trkpt lat="45.279550" lon="2.664760">
					<ele>836</ele>
					<time>2018-06-24T01:36:04Z</time>
				</trkpt>
				<trkpt lat="45.279540" lon="2.664870">
					<ele>836</ele>
					<time>2018-06-24T01:37:04Z</time>
				</trkpt>
				<trkpt lat="45.279530" lon="2.664950">
					<ele>836</ele>
					<time>2018-06-24T01:38:04Z</time>
				</trkpt>
				<trkpt lat="45.279510" lon="2.665050">
					<ele>836</ele>
					<time>2018-06-24T01:39:04Z</time>
				</trkpt>
				<trkpt lat="45.279490" lon="2.665160">
					<ele>837</ele>
					<time>2018-06-24T01:40:04Z</time>
				</trkpt>
				<trkpt lat="45.279450" lon="2.665280">
					<ele>837</ele>
					<time>2018-06-24T01:41:04Z</time>
				</trkpt>
				<trkpt lat="45.279420" lon="2.665370">
					<ele>837</ele>
					<time>2018-06-24T01:42:04Z</time>
				</trkpt>
				<trkpt lat="45.279370" lon="2.665500">
					<ele>838</ele>
					<time>2018-06-24T01:43:04Z</time>
				</trkpt>
				<trkpt lat="45.279300" lon="2.665650">
					<ele>838</ele>
					<time>2018-06-24T01:44:04Z</time>
				</trkpt>
				<trkpt lat="45.279190" lon="2.665920">
					<ele>839</ele>
					<time>2018-06-24T01:45:04Z</time>
				</trkpt>
				<trkpt lat="45.279060" lon="2.666220">
					<ele>841</ele>
					<time>2018-06-24T01:46:04Z</time>
				</trkpt>
				<trkpt lat="45.278920" lon="2.666550">
					<ele>843</ele>
					<time>2018-06-24T01:47:04Z</time>
				</trkpt>
				<trkpt lat="45.278810" lon="2.666820">
					<ele>844</ele>
					<time>2018-06-24T01:48:04Z</time>
				</trkpt>
				<trkpt lat="45.278750" lon="2.666940">
					<ele>845</ele>
					<time>2018-06-24T01:49:04Z</time>
				</trkpt>
				<trkpt lat="45.278710" lon="2.667000">
					<ele>846</ele>
					<time>2018-06-24T01:50:04Z</time>
				</trkpt>
				<trkpt lat="45.278660" lon="2.667070">
					<ele>846</ele>
					<time>2018-06-24T01:51:04Z</time>
				</trkpt>
				<trkpt lat="45.278600" lon="2.667150">
					<ele>847</ele>
					<time>2018-06-24T01:52:04Z</time>
				</trkpt>
				<trkpt lat="45.278510" lon="2.667210">
					<ele>848</ele>
					<time>2018-06-24T01:53:04Z</time>
				</trkpt>
				<trkpt lat="45.278390" lon="2.667290">
					<ele>850</ele>
					<time>2018-06-24T01:54:04Z</time>
				</trkpt>
				<trkpt lat="45.278340" lon="2.667320">
					<ele>850</ele>
					<time>2018-06-24T01:55:04Z</time>
				</trkpt>
				<trkpt lat="45.278220" lon="2.667380">
					<ele>851</ele>
					<time>2018-06-24T01:56:04Z</time>
				</trkpt>
				<trkpt lat="45.278120" lon="2.667430">
					<ele>851</ele>
					<time>2018-06-24T01:57:04Z</time>
				</trkpt>
				<trkpt lat="45.278000" lon="2.667490">
					<ele>852</ele>
					<time>2018-06-24T01:58:04Z</time>
				</trkpt>
				<trkpt lat="45.277840" lon="2.667590">
					<ele>853</ele>
					<time>2018-06-24T01:59:04Z</time>
				</trkpt>
				<trkpt lat="45.277690" lon="2.667690">
					<ele>855</ele>
					<time>2018-06-24T02:00:04Z</time>
				</trkpt>
				<trkpt lat="45.277490" lon="2.667840">
					<ele>859</ele>
					<time>2018-06-24T02:01:04Z</time>
				</trkpt>
				<trkpt lat="45.277250" lon="2.668030">
					<ele>861</ele>
					<time>2018-06-24T02:02:04Z</time>
				</trkpt>
				<trkpt lat="45.277120" lon="2.668110">
					<ele>862</ele>
					<time>2018-06-24T02:03:04Z</time>
				</trkpt>
				<trkpt lat="45.277080" lon="2.668150">
					<ele>863</ele>
					<time>2018-06-24T02:04:04Z</time>
				</trkpt>
				<trkpt lat="45.276960" lon="2.668220">
					<ele>863</ele>
					<time>2018-06-24T02:05:04Z</time>
				</trkpt>
				<trkpt lat="45.276850" lon="2.668270">
					<ele>864</ele>
					<time>2018-06-24T02:06:04Z</time>
				</trkpt>
				<trkpt lat="45.276780" lon="2.668300">
					<ele>864</ele>
					<time>2018-06-24T02:07:04Z</time>
				</trkpt>
				<trkpt lat="45.276700" lon="2.668330">
					<ele>864</ele>
					<time>2018-06-24T02:08:04Z</time>
				</trkpt>
				<trkpt lat="45.276560" lon="2.668360">
					<ele>865</ele>
					<time>2018-06-24T02:09:04Z</time>
				</trkpt>
				<trkpt lat="45.276450" lon="2.668390">
					<ele>865</ele>
					<time>2018-06-24T02:10:04Z</time>
				</trkpt>
				<trkpt lat="45.276260" lon="2.668430">
					<ele>866</ele>
					<time>2018-06-24T02:11:04Z</time>
				</trkpt>
				<trkpt lat="45.276140" lon="2.668460">
					<ele>866</ele>
					<time>2018-06-24T02:12:04Z</time>
				</trkpt>
				<trkpt lat="45.276030" lon="2.668490">
					<ele>867</ele>
					<time>2018-06-24T02:13:04Z</time>
				</trkpt>
				<trkpt lat="45.275900" lon="2.668500">
					<ele>867</ele>
					<time>2018-06-24T02:14:04Z</time>
				</trkpt>
				<trkpt lat="45.275840" lon="2.668490">
					<ele>866</ele>
					<time>2018-06-24T02:15:04Z</time>
				</trkpt>
				<trkpt lat="45.275770" lon="2.668490">
					<ele>867</ele>
					<time>2018-06-24T02:16:04Z</time>
				</trkpt>
				<trkpt lat="45.275720" lon="2.668480">
					<ele>868</ele>
					<time>2018-06-24T02:17:04Z</time>
				</trkpt>
				<trkpt lat="45.275650" lon="2.668450">
					<ele>869</ele>
					<time>2018-06-24T02:18:04Z</time>
				</trkpt>
				<trkpt lat="45.275570" lon="2.668400">
					<ele>870</ele>
					<time>2018-06-24T02:19:04Z</time>
				</trkpt>
				<trkpt lat="45.275510" lon="2.668370">
					<ele>871</ele>
					<time>2018-06-24T02:20:04Z</time>
				</trkpt>
				<trkpt lat="45.275460" lon="2.668330">
					<ele>872</ele>
					<time>2018-06-24T02:21:04Z</time>
				</trkpt>
				<trkpt lat="45.275410" lon="2.668280">
					<ele>873</ele>
					<time>2018-06-24T02:22:04Z</time>
				</trkpt>
				<trkpt lat="45.275350" lon="2.668210">
					<ele>874</ele>
					<time>2018-06-24T02:23:04Z</time>
				</trkpt>
				<trkpt lat="45.275310" lon="2.668160">
					<ele>875</ele>
					<time>2018-06-24T02:24:04Z</time>
				</trkpt>
				<trkpt lat="45.275260" lon="2.668080">
					<ele>876</ele>
					<time>2018-06-24T02:25:04Z</time>
				</trkpt>
				<trkpt lat="45.275210" lon="2.667970">
					<ele>877</ele>
					<time>2018-06-24T02:26:04Z</time>
				</trkpt>
				<trkpt lat="45.275170" lon="2.667880">
					<ele>877</ele>
					<time>2018-06-24T02:27:04Z</time>
				</trkpt>
				<trkpt lat="45.275120" lon="2.667750">
					<ele>878</ele>
					<time>2018-06-24T02:28:04Z</time>
				</trkpt>
				<trkpt lat="45.274990" lon="2.667430">
					<ele>881</ele>
					<time>2018-06-24T02:29:04Z</time>
				</trkpt>
				<trkpt lat="45.274890" lon="2.667190">
					<ele>880</ele>
					<time>2018-06-24T02:30:04Z</time>
				</trkpt>
				<trkpt lat="45.274810" lon="2.667030">
					<ele>880</ele>
					<time>2018-06-24T02:31:04Z</time>
				</trkpt>
				<trkpt lat="45.274750" lon="2.666940">
					<ele>880</ele>
					<time>2018-06-24T02:32:04Z</time>
				</trkpt>
				<trkpt lat="45.274680" lon="2.666840">
					<ele>880</ele>
					<time>2018-06-24T02:33:04Z</time>
				</trkpt>
				<trkpt lat="45.274610" lon="2.666750">
					<ele>881</ele>
					<time>2018-06-24T02:34:04Z</time>
				</trkpt>
				<trkpt lat="45.274530" lon="2.666670">
					<ele>881</ele>
					<time>2018-06-24T02:35:04Z</time>
				</trkpt>
				<trkpt lat="45.274430" lon="2.666580">
					<ele>881</ele>
					<time>2018-06-24T02:36:04Z</time>
				</trkpt>
				<trkpt lat="45.274300" lon="2.666500">
					<ele>882</ele>
					<time>2018-06-24T02:37:04Z</time>
				</trkpt>
				<trkpt lat="45.274180" lon="2.666440">
					<ele>883</ele>
					<time>2018-06-24T02:38:04Z</time>
				</trkpt>
				<trkpt lat="45.274080" lon="2.666400">
					<ele>883</ele>
					<time>2018-06-24T02:39:04Z</time>
				</trkpt>
				<trkpt lat="45.273990" lon="2.666380">
					<ele>883</ele>
					<time>2018-06-24T02:40:04Z</time>
				</trkpt>
				<trkpt lat="45.273910" lon="2.666370">
					<ele>883</ele>
					<time>2018-06-24T02:41:04Z</time>
				</trkpt>
				<trkpt lat="45.273790" lon="2.666360">
					<ele>884</ele>
					<time>2018-06-24T02:42:04Z</time>
				</trkpt>
				<trkpt lat="45.273700" lon="2.666370">
					<ele>885</ele>
					<time>2018-06-24T02:43:04Z</time>
				</trkpt>
				<trkpt lat="45.272980" lon="2.666450">
					<ele>892</ele>
					<time>2018-06-24T02:44:04Z</time>
				</trkpt>
				<trkpt lat="45.272840" lon="2.666460">
					<ele>893</ele>
					<time>2018-06-24T02:45:04Z</time>
				</trkpt>
				<trkpt lat="45.272750" lon="2.666460">
					<ele>894</ele>
					<time>2018-06-24T02:46:04Z</time>
				</trkpt>
				<trkpt lat="45.272660" lon="2.666440">
					<ele>895</ele>
					<time>2018-06-24T02:47:04Z</time>
				</trkpt>
				<trkpt lat="45.272600" lon="2.666410">
					<ele>895</ele>
					<time>2018-06-24T02:48:04Z</time>
				</trkpt>
				<trkpt lat="45.272390" lon="2.666290">
					<ele>896</ele>
					<time>2018-06-24T02:49:04Z</time>
				</trkpt>
				<trkpt lat="45.272240" lon="2.666180">
					<ele>897</ele>
					<time>2018-06-24T02:50:04Z</time>
				</trkpt>
				<trkpt lat="45.271910" lon="2.665960">
					<ele>898</ele>
					<time>2018-06-24T02:51:04Z</time>
				</trkpt>
				<trkpt lat="45.271790" lon="2.665900">
					<ele>899</ele>
					<time>2018-06-24T02:52:04Z</time>
				</trkpt>
				<trkpt lat="45.271700" lon="2.665860">
					<ele>899</ele>
					<time>2018-06-24T02:53:04Z</time>
				</trkpt>
				<trkpt lat="45.271600" lon="2.665830">
					<ele>899</ele>
					<time>2018-06-24T02:54:04Z</time>
				</trkpt>
				<trkpt lat="45.271490" lon="2.665810">
					<ele>900</ele>
					<time>2018-06-24T02:55:04Z</time>
				</trkpt>
				<trkpt lat="45.271340" lon="2.665800">
					<ele>901</ele>
					<time>2018-06-24T02:56:04Z</time>
				</trkpt>
				<trkpt lat="45.270890" lon="2.665800">
					<ele>904</ele>
					<time>2018-06-24T02:57:04Z</time>
				</trkpt>
				<trkpt lat="45.270630" lon="2.665800">
					<ele>904</ele>
					<time>2018-06-24T02:58:04Z</time>
				</trkpt>
				<trkpt lat="45.270370" lon="2.665810">
					<ele>904</ele>
					<time>2018-06-24T02:59:04Z</time>
				</trkpt>
				<trkpt lat="45.270310" lon="2.665820">
					<ele>905</ele>
					<time>2018-06-24T03:00:04Z</time>
				</trkpt>
				<trkpt lat="45.270220" lon="2.665840">
					<ele>905</ele>
					<time>2018-06-24T03:01:04Z</time>
				</trkpt>
				<trkpt lat="45.270070" lon="2.665900">
					<ele>906</ele>
					<time>2018-06-24T03:02:04Z</time>
				</trkpt>
				<trkpt lat="45.269910" lon="2.665980">
					<ele>906</ele>
					<time>2018-06-24T03:03:04Z</time>
				</trkpt>
				<trkpt lat="45.269850" lon="2.666030">
					<ele>906</ele>
					<time>2018-06-24T03:04:04Z</time>
				</trkpt>
				<trkpt lat="45.269750" lon="2.666110">
					<ele>906</ele>
					<time>2018-06-24T03:05:04Z</time>
				</trkpt>
				<trkpt lat="45.269650" lon="2.666210">
					<ele>907</ele>
					<time>2018-06-24T03:06:04Z</time>
				</trkpt>
				<trkpt lat="45.269580" lon="2.666310">
					<ele>908</ele>
					<time>2018-06-24T03:07:04Z</time>
				</trkpt>
				<trkpt lat="45.269530" lon="2.666390">
					<ele>908</ele>
					<time>2018-06-24T03:08:04Z</time>
				</trkpt>
				<trkpt lat="45.269460" lon="2.666500">
					<ele>909</ele>
					<time>2018-06-24T03:09:04Z</time>
				</trkpt>
				<trkpt lat="45.269400" lon="2.666610">
					<ele>911</ele>
					<time>2018-06-24T03:10:04Z</time>
				</trkpt>
				<trkpt lat="45.269320" lon="2.666810">
					<ele>912</ele>
					<time>2018-06-24T03:11:04Z</time>
				</trkpt>
				<trkpt lat="45.269250" lon="2.667050">
					<ele>913</ele>
					<time>2018-06-24T03:12:04Z</time>
				</trkpt>
				<trkpt lat="45.269100" lon="2.667560">
					<ele>917</ele>
					<time>2018-06-24T03:13:04Z</time>
				</trkpt>
				<trkpt lat="45.269040" lon="2.667740">
					<ele>918</ele>
					<time>2018-06-24T03:14:04Z</time>
				</trkpt>
				<trkpt lat="45.268970" lon="2.667940">
					<ele>919</ele>
					<time>2018-06-24T03:15:04Z</time>
				</trkpt>
				<trkpt lat="45.268900" lon="2.668100">
					<ele>920</ele>
					<time>2018-06-24T03:16:04Z</time>
				</trkpt>
				<trkpt lat="45.268800" lon="2.668290">
					<ele>921</ele>
					<time>2018-06-24T03:17:04Z</time>
				</trkpt>
				<trkpt lat="45.268690" lon="2.668490">
					<ele>923</ele>
					<time>2018-06-24T03:18:04Z</time>
				</trkpt>
				<trkpt lat="45.268560" lon="2.668670">
					<ele>924</ele>
					<time>2018-06-24T03:19:04Z</time>
				</trkpt>
				<trkpt lat="45.268470" lon="2.668780">
					<ele>925</ele>
					<time>2018-06-24T03:20:04Z</time>
				</trkpt>
				<trkpt lat="45.268400" lon="2.668850">
					<ele>925</ele>
					<time>2018-06-24T03:21:04Z</time>
				</trkpt>
				<trkpt lat="45.267700" lon="2.669520">
					<ele>935</ele>
					<time>2018-06-24T03:22:04Z</time>
				</trkpt>
				<trkpt lat="45.266810" lon="2.670380">
					<ele>942</ele>
					<time>2018-06-24T03:23:04Z</time>
				</trkpt>
				<trkpt lat="45.266600" lon="2.670570">
					<ele>942</ele>
					<time>2018-06-24T03:24:04Z</time>
				</trkpt>
				<trkpt lat="45.266480" lon="2.670670">
					<ele>943</ele>
					<time>2018-06-24T03:25:04Z</time>
				</trkpt>
				<trkpt lat="45.266290" lon="2.670800">
					<ele>945</ele>
					<time>2018-06-24T03:26:04Z</time>
				</trkpt>
				<trkpt lat="45.265900" lon="2.671060">
					<ele>948</ele>
					<time>2018-06-24T03:27:04Z</time>
				</trkpt>
				<trkpt lat="45.265300" lon="2.671510">
					<ele>950</ele>
					<time>2018-06-24T03:28:04Z</time>
				</trkpt>
				<trkpt lat="45.265160" lon="2.671620">
					<ele>951</ele>
					<time>2018-06-24T03:29:04Z</time>
				</trkpt>
				<trkpt lat="45.265030" lon="2.671720">
					<ele>953</ele>
					<time>2018-06-24T03:30:04Z</time>
				</trkpt>
				<trkpt lat="45.264940" lon="2.671820">
					<ele>953</ele>
					<time>2018-06-24T03:31:04Z</time>
				</trkpt>
				<trkpt lat="45.264860" lon="2.671920">
					<ele>953</ele>
					<time>2018-06-24T03:32:04Z</time>
				</trkpt>
				<trkpt lat="45.264810" lon="2.671980">
					<ele>953</ele>
					<time>2018-06-24T03:33:04Z</time>
				</trkpt>
				<trkpt lat="45.264770" lon="2.672050">
					<ele>954</ele>
					<time>2018-06-24T03:34:04Z</time>
				</trkpt>
				<trkpt lat="45.264690" lon="2.672190">
					<ele>954</ele>
					<time>2018-06-24T03:35:04Z</time>
				</trkpt>
				<trkpt lat="45.264650" lon="2.672280">
					<ele>955</ele>
					<time>2018-06-24T03:36:04Z</time>
				</trkpt>
				<trkpt lat="45.264610" lon="2.672410">
					<ele>955</ele>
					<time>2018-06-24T03:37:04Z</time>
				</trkpt>
				<trkpt lat="45.264580" lon="2.672530">
					<ele>956</ele>
					<time>2018-06-24T03:38:04Z</time>
				</trkpt>
				<trkpt lat="45.264520" lon="2.672780">
					<ele>957</ele>
					<time>2018-06-24T03:39:04Z</time>
				</trkpt>
				<trkpt lat="45.264440" lon="2.673320">
					<ele>959</ele>
					<time>2018-06-24T03:40:04Z</time>
				</trkpt>
				<trkpt lat="45.264440" lon="2.673320">
					<ele>959</ele>
					<time>2018-06-24T03:41:04Z</time>
				</trkpt>
				<trkpt lat="45.264380" lon="2.673340">
					<ele>959</ele>
					<time>2018-06-24T03:42:04Z</time>
				</trkpt>
				<trkpt lat="45.264250" lon="2.673430">
					<ele>961</ele>
					<time>2018-06-24T03:43:04Z</time>
				</trkpt>
				<trkpt lat="45.264150" lon="2.673520">
					<ele>962</ele>
					<time>2018-06-24T03:44:04Z</time>
				</trkpt>
				<trkpt lat="45.264050" lon="2.673660">
					<ele>963</ele>
					<time>2018-06-24T03:45:04Z</time>
				</trkpt>
				<trkpt lat="45.263790" lon="2.674010">
					<ele>964</ele>
					<time>2018-06-24T03:46:04Z</time>
				</trkpt>
				<trkpt lat="45.263450" lon="2.674470">
					<ele>969</ele>
					<time>2018-06-24T03:47:04Z</time>
				</trkpt>
				<trkpt lat="45.263170" lon="2.674870">
					<ele>970</ele>
					<time>2018-06-24T03:48:04Z</time>
				</trkpt>
				<trkpt lat="45.262860" lon="2.675330">
					<ele>971</ele>
					<time>2018-06-24T03:49:04Z</time>
				</trkpt>
				<trkpt lat="45.262550" lon="2.675800">
					<ele>972</ele>
					<time>2018-06-24T03:50:04Z</time>
				</trkpt>
				<trkpt lat="45.262120" lon="2.676430">
					<ele>974</ele>
					<time>2018-06-24T03:51:04Z</time>
				</trkpt>
				<trkpt lat="45.261660" lon="2.677150">
					<ele>976</ele>
					<time>2018-06-24T03:52:04Z</time>
				</trkpt>
				<trkpt lat="45.261230" lon="2.677840">
					<ele>978</ele>
					<time>2018-06-24T03:53:04Z</time>
				</trkpt>
				<trkpt lat="45.261110" lon="2.678060">
					<ele>979</ele>
					<time>2018-06-24T03:54:04Z</time>
				</trkpt>
				<trkpt lat="45.260990" lon="2.678350">
					<ele>981</ele>
					<time>2018-06-24T03:55:04Z</time>
				</trkpt>
				<trkpt lat="45.260820" lon="2.678750">
					<ele>981</ele>
					<time>2018-06-24T03:56:04Z</time>
				</trkpt>
				<trkpt lat="45.260730" lon="2.679020">
					<ele>982</ele>
					<time>2018-06-24T03:57:04Z</time>
				</trkpt>
				<trkpt lat="45.260670" lon="2.679230">
					<ele>983</ele>
					<time>2018-06-24T03:58:04Z</time>
				</trkpt>
				<trkpt lat="45.260650" lon="2.679390">
					<ele>983</ele>
					<time>2018-06-24T03:59:04Z</time>
				</trkpt>
				<trkpt lat="45.260660" lon="2.679580">
					<ele>984</ele>
					<time>2018-06-24T04:00:04Z</time>
				</trkpt>
				<trkpt lat="45.260700" lon="2.679870">
					<ele>986</ele>
					<time>2018-06-24T04:01:04Z</time>
				</trkpt>
				<trkpt lat="45.260710" lon="2.680080">
					<ele>987</ele>
					<time>2018-06-24T04:02:04Z</time>
				</trkpt>
				<trkpt lat="45.260680" lon="2.680270">
					<ele>988</ele>
					<time>2018-06-24T04:03:04Z</time>
				</trkpt>
				<trkpt lat="45.260600" lon="2.680480">
					<ele>989</ele>
					<time>2018-06-24T04:04:04Z</time>
				</trkpt>
				<trkpt lat="45.260490" lon="2.680680">
					<ele>988</ele>
					<time>2018-06-24T04:05:04Z</time>
				</trkpt>
				<trkpt lat="45.260380" lon="2.680870">
					<ele>988</ele>
					<time>2018-06-24T04:06:04Z</time>
				</trkpt>
				<trkpt lat="45.260150" lon="2.681250">
					<ele>989</ele>
					<time>2018-06-24T04:07:04Z</time>
				</trkpt>
				<trkpt lat="45.259940" lon="2.681640">
					<ele>992</ele>
					<time>2018-06-24T04:08:04Z</time>
				</trkpt>
				<trkpt lat="45.259850" lon="2.681860">
					<ele>993</ele>
					<time>2018-06-24T04:09:04Z</time>
				</trkpt>
				<trkpt lat="45.259820" lon="2.682060">
					<ele>995</ele>
					<time>2018-06-24T04:10:04Z</time>
				</trkpt>
				<trkpt lat="45.259800" lon="2.682440">
					<ele>998</ele>
					<time>2018-06-24T04:11:04Z</time>
				</trkpt>
				<trkpt lat="45.259740" lon="2.682710">
					<ele>1000</ele>
					<time>2018-06-24T04:12:04Z</time>
				</trkpt>
				<trkpt lat="45.259620" lon="2.683000">
					<ele>1000</ele>
					<time>2018-06-24T04:13:04Z</time>
				</trkpt>
				<trkpt lat="45.259380" lon="2.683470">
					<ele>1000</ele>
					<time>2018-06-24T04:14:04Z</time>
				</trkpt>
				<trkpt lat="45.259250" lon="2.683790">
					<ele>1000</ele>
					<time>2018-06-24T04:15:04Z</time>
				</trkpt>
				<trkpt lat="45.259190" lon="2.684010">
					<ele>1001</ele>
					<time>2018-06-24T04:16:04Z</time>
				</trkpt>
				<trkpt lat="45.259100" lon="2.684510">
					<ele>1004</ele>
					<time>2018-06-24T04:17:04Z</time>
				</trkpt>
				<trkpt lat="45.259090" lon="2.684560">
					<ele>1004</ele>
					<time>2018-06-24T04:18:04Z</time>
				</trkpt>
				<trkpt lat="45.259020" lon="2.685080">
					<ele>1007</ele>
					<time>2018-06-24T04:19:04Z</time>
				</trkpt>
				<trkpt lat="45.258990" lon="2.685470">
					<ele>1008</ele>
					<time>2018-06-24T04:20:04Z</time>
				</trkpt>
				<trkpt lat="45.258970" lon="2.686010">
					<ele>1008</ele>
					<time>2018-06-24T04:21:04Z</time>
				</trkpt>
				<trkpt lat="45.258930" lon="2.686720">
					<ele>1010</ele>
					<time>2018-06-24T04:22:04Z</time>
				</trkpt>
				<trkpt lat="45.258850" lon="2.687750">
					<ele>1013</ele>
					<time>2018-06-24T04:23:04Z</time>
				</trkpt>
				<trkpt lat="45.258770" lon="2.688770">
					<ele>1017</ele>
					<time>2018-06-24T04:24:04Z</time>
				</trkpt>
				<trkpt lat="45.258730" lon="2.689060">
					<ele>1018</ele>
					<time>2018-06-24T04:25:04Z</time>
				</trkpt>
				<trkpt lat="45.258630" lon="2.689340">
					<ele>1018</ele>
					<time>2018-06-24T04:26:04Z</time>
				</trkpt>
				<trkpt lat="45.258550" lon="2.689530">
					<ele>1018</ele>
					<time>2018-06-24T04:27:04Z</time>
				</trkpt>
				<trkpt lat="45.258390" lon="2.689720">
					<ele>1018</ele>
					<time>2018-06-24T04:28:04Z</time>
				</trkpt>
				<trkpt lat="45.258090" lon="2.690050">
					<ele>1022</ele>
					<time>2018-06-24T04:29:04Z</time>
				</trkpt>
				<trkpt lat="45.257910" lon="2.690270">
					<ele>1024</ele>
					<time>2018-06-24T04:30:04Z</time>
				</trkpt>
				<trkpt lat="45.257850" lon="2.690370">
					<ele>1025</ele>
					<time>2018-06-24T04:31:04Z</time>
				</trkpt>
				<trkpt lat="45.257770" lon="2.690510">
					<ele>1025</ele>
					<time>2018-06-24T04:32:04Z</time>
				</trkpt>
				<trkpt lat="45.257630" lon="2.690850">
					<ele>1026</ele>
					<time>2018-06-24T04:33:04Z</time>
				</trkpt>
				<trkpt lat="45.257550" lon="2.691160">
					<ele>1025</ele>
					<time>2018-06-24T04:34:04Z</time>
				</trkpt>
				<trkpt lat="45.257480" lon="2.691520">
					<ele>1025</ele>
					<time>2018-06-24T04:35:04Z</time>
				</trkpt>
				<trkpt lat="45.257400" lon="2.691720">
					<ele>1025</ele>
					<time>2018-06-24T04:36:04Z</time>
				</trkpt>
				<trkpt lat="45.257210" lon="2.692060">
					<ele>1026</ele>
					<time>2018-06-24T04:37:04Z</time>
				</trkpt>
				<trkpt lat="45.256920" lon="2.692550">
					<ele>1029</ele>
					<time>2018-06-24T04:38:04Z</time>
				</trkpt>
				<trkpt lat="45.256790" lon="2.692760">
					<ele>1030</ele>
					<time>2018-06-24T04:39:04Z</time>
				</trkpt>
				<trkpt lat="45.256680" lon="2.692950">
					<ele>1030</ele>
					<time>2018-06-24T04:40:04Z</time>
				</trkpt>
				<trkpt lat="45.256630" lon="2.693090">
					<ele>1030</ele>
					<time>2018-06-24T04:41:04Z</time>
				</trkpt>
				<trkpt lat="45.256590" lon="2.693270">
					<ele>1028</ele>
					<time>2018-06-24T04:42:04Z</time>
				</trkpt>
				<trkpt lat="45.256530" lon="2.693480">
					<ele>1027</ele>
					<time>2018-06-24T04:43:04Z</time>
				</trkpt>
				<trkpt lat="45.256480" lon="2.693700">
					<ele>1027</ele>
					<time>2018-06-24T04:44:04Z</time>
				</trkpt>
				<trkpt lat="45.256440" lon="2.693890">
					<ele>1026</ele>
					<time>2018-06-24T04:45:04Z</time>
				</trkpt>
				<trkpt lat="45.256380" lon="2.694060">
					<ele>1026</ele>
					<time>2018-06-24T04:46:04Z</time>
				</trkpt>
				<trkpt lat="45.256310" lon="2.694220">
					<ele>1027</ele>
					<time>2018-06-24T04:47:04Z</time>
				</trkpt>
				<trkpt lat="45.256230" lon="2.694340">
					<ele>1027</ele>
					<time>2018-06-24T04:48:04Z</time>
				</trkpt>
				<trkpt lat="45.256160" lon="2.694450">
					<ele>1027</ele>
					<time>2018-06-24T04:49:04Z</time>
				</trkpt>
				<trkpt lat="45.256090" lon="2.694530">
					<ele>1028</ele>
					<time>2018-06-24T04:50:04Z</time>
				</trkpt>
				<trkpt lat="45.256010" lon="2.694600">
					<ele>1029</ele>
					<time>2018-06-24T04:51:04Z</time>
				</trkpt>
				<trkpt lat="45.255910" lon="2.694650">
					<ele>1031</ele>
					<time>2018-06-24T04:52:04Z</time>
				</trkpt>
				<trkpt lat="45.255830" lon="2.694690">
					<ele>1033</ele>
					<time>2018-06-24T04:53:04Z</time>
				</trkpt>
				<trkpt lat="45.255520" lon="2.694760">
					<ele>1035</ele>
					<time>2018-06-24T04:54:04Z</time>
				</trkpt>
				<trkpt lat="45.255170" lon="2.694810">
					<ele>1038</ele>
					<time>2018-06-24T04:55:04Z</time>
				</trkpt>
				<trkpt lat="45.255010" lon="2.694840">
					<ele>1039</ele>
					<time>2018-06-24T04:56:04Z</time>
				</trkpt>
				<trkpt lat="45.254910" lon="2.694870">
					<ele>1039</ele>
					<time>2018-06-24T04:57:04Z</time>
				</trkpt>
				<trkpt lat="45.254830" lon="2.694920">
					<ele>1038</ele>
					<time>2018-06-24T04:58:04Z</time>
				</trkpt>
				<trkpt lat="45.254750" lon="2.694980">
					<ele>1037</ele>
					<time>2018-06-24T04:59:04Z</time>
				</trkpt>
				<trkpt lat="45.254630" lon="2.695070">
					<ele>1035</ele>
					<time>2018-06-24T05:00:04Z</time>
				</trkpt>
				<trkpt lat="45.254540" lon="2.695110">
					<ele>1034</ele>
					<time>2018-06-24T05:01:04Z</time>
				</trkpt>
				<trkpt lat="45.254480" lon="2.695130">
					<ele>1034</ele>
					<time>2018-06-24T05:02:04Z</time>
				</trkpt>
				<trkpt lat="45.254410" lon="2.695150">
					<ele>1034</ele>
					<time>2018-06-24T05:03:04Z</time>
				</trkpt>
				<trkpt lat="45.254350" lon="2.695130">
					<ele>1035</ele>
					<time>2018-06-24T05:04:04Z</time>
				</trkpt>
				<trkpt lat="45.254300" lon="2.695110">
					<ele>1036</ele>
					<time>2018-06-24T05:05:04Z</time>
				</trkpt>
				<trkpt lat="45.254130" lon="2.695010">
					<ele>1039</ele>
					<time>2018-06-24T05:06:04Z</time>
				</trkpt>
				<trkpt lat="45.253880" lon="2.694850">
					<ele>1041</ele>
					<time>2018-06-24T05:07:04Z</time>
				</trkpt>
				<trkpt lat="45.253510" lon="2.694690">
					<ele>1043</ele>
					<time>2018-06-24T05:08:04Z</time>
				</trkpt>
				<trkpt lat="45.253280" lon="2.694610">
					<ele>1044</ele>
					<time>2018-06-24T05:09:04Z</time>
				</trkpt>
				<trkpt lat="45.253010" lon="2.694500">
					<ele>1046</ele>
					<time>2018-06-24T05:10:04Z</time>
				</trkpt>
				<trkpt lat="45.252850" lon="2.694450">
					<ele>1047</ele>
					<time>2018-06-24T05:11:04Z</time>
				</trkpt>
				<trkpt lat="45.252760" lon="2.694450">
					<ele>1047</ele>
					<time>2018-06-24T05:12:04Z</time>
				</trkpt>
				<trkpt lat="45.252680" lon="2.694450">
					<ele>1047</ele>
					<time>2018-06-24T05:13:04Z</time>
				</trkpt>
				<trkpt lat="45.252410" lon="2.694510">
					<ele>1048</ele>
					<time>2018-06-24T05:14:04Z</time>
				</trkpt>
				<trkpt lat="45.252050" lon="2.694590">
					<ele>1049</ele>
					<time>2018-06-24T05:15:04Z</time>
				</trkpt>
				<trkpt lat="45.251550" lon="2.694680">
					<ele>1051</ele>
					<time>2018-06-24T05:16:04Z</time>
				</trkpt>
				<trkpt lat="45.251390" lon="2.694700">
					<ele>1052</ele>
					<time>2018-06-24T05:17:04Z</time>
				</trkpt>
				<trkpt lat="45.251340" lon="2.694700">
					<ele>1053</ele>
					<time>2018-06-24T05:18:04Z</time>
				</trkpt>
				<trkpt lat="45.251160" lon="2.694760">
					<ele>1054</ele>
					<time>2018-06-24T05:19:04Z</time>
				</trkpt>
				<trkpt lat="45.251010" lon="2.694820">
					<ele>1054</ele>
					<time>2018-06-24T05:20:04Z</time>
				</trkpt>
				<trkpt lat="45.250800" lon="2.694930">
					<ele>1054</ele>
					<time>2018-06-24T05:21:04Z</time>
				</trkpt>
				<trkpt lat="45.250440" lon="2.695120">
					<ele>1059</ele>
					<time>2018-06-24T05:22:04Z</time>
				</trkpt>
				<trkpt lat="45.249980" lon="2.695360">
					<ele>1061</ele>
					<time>2018-06-24T05:23:04Z</time>
				</trkpt>
				<trkpt lat="45.249740" lon="2.695470">
					<ele>1056</ele>
					<time>2018-06-24T05:24:04Z</time>
				</trkpt>
				<trkpt lat="45.249620" lon="2.695500">
					<ele>1055</ele>
					<time>2018-06-24T05:25:04Z</time>
				</trkpt>
				<trkpt lat="45.249580" lon="2.695500">
					<ele>1055</ele>
					<time>2018-06-24T05:26:04Z</time>
				</trkpt>
				<trkpt lat="45.249520" lon="2.695490">
					<ele>1055</ele>
					<time>2018-06-24T05:27:04Z</time>
				</trkpt>
				<trkpt lat="45.249460" lon="2.695460">
					<ele>1055</ele>
					<time>2018-06-24T05:28:04Z</time>
				</trkpt>
				<trkpt lat="45.249340" lon="2.695350">
					<ele>1056</ele>
					<time>2018-06-24T05:29:04Z</time>
				</trkpt>
				<trkpt lat="45.249300" lon="2.695300">
					<ele>1057</ele>
					<time>2018-06-24T05:30:04Z</time>
				</trkpt>
				<trkpt lat="45.249200" lon="2.695200">
					<ele>1058</ele>
					<time>2018-06-24T05:31:04Z</time>
				</trkpt>
				<trkpt lat="45.249140" lon="2.695090">
					<ele>1059</ele>
					<time>2018-06-24T05:32:04Z</time>
				</trkpt>
				<trkpt lat="45.249100" lon="2.695000">
					<ele>1060</ele>
					<time>2018-06-24T05:33:04Z</time>
				</trkpt>
				<trkpt lat="45.249060" lon="2.694870">
					<ele>1059</ele>
					<time>2018-06-24T05:34:04Z</time>
				</trkpt>
				<trkpt lat="45.249030" lon="2.694720">
					<ele>1060</ele>
					<time>2018-06-24T05:35:04Z</time>
				</trkpt>
				<trkpt lat="45.248990" lon="2.694560">
					<ele>1060</ele>
					<time>2018-06-24T05:36:04Z</time>
				</trkpt>
				<trkpt lat="45.248950" lon="2.694360">
					<ele>1060</ele>
					<time>2018-06-24T05:37:04Z</time>
				</trkpt>
				<trkpt lat="45.248920" lon="2.694200">
					<ele>1061</ele>
					<time>2018-06-24T05:38:04Z</time>
				</trkpt>
				<trkpt lat="45.248860" lon="2.693990">
					<ele>1061</ele>
					<time>2018-06-24T05:39:04Z</time>
				</trkpt>
				<trkpt lat="45.248790" lon="2.693810">
					<ele>1061</ele>
					<time>2018-06-24T05:40:04Z</time>
				</trkpt>
				<trkpt lat="45.248780" lon="2.693770">
					<ele>1061</ele>
					<time>2018-06-24T05:41:04Z</time>
				</trkpt>
				<trkpt lat="45.248740" lon="2.693700">
					<ele>1062</ele>
					<time>2018-06-24T05:42:04Z</time>
				</trkpt>
				<trkpt lat="45.248680" lon="2.693630">
					<ele>1061</ele>
					<time>2018-06-24T05:43:04Z</time>
				</trkpt>
				<trkpt lat="45.248650" lon="2.693600">
					<ele>1061</ele>
					<time>2018-06-24T05:44:04Z</time>
				</trkpt>
				<trkpt lat="45.248530" lon="2.693520">
					<ele>1061</ele>
					<time>2018-06-24T05:45:04Z</time>
				</trkpt>
				<trkpt lat="45.248330" lon="2.693440">
					<ele>1061</ele>
					<time>2018-06-24T05:46:04Z</time>
				</trkpt>
				<trkpt lat="45.248140" lon="2.693380">
					<ele>1060</ele>
					<time>2018-06-24T05:47:04Z</time>
				</trkpt>
				<trkpt lat="45.247970" lon="2.693340">
					<ele>1059</ele>
					<time>2018-06-24T05:48:04Z</time>
				</trkpt>
				<trkpt lat="45.247880" lon="2.693320">
					<ele>1059</ele>
					<time>2018-06-24T05:49:04Z</time>
				</trkpt>
				<trkpt lat="45.247840" lon="2.693310">
					<ele>1059</ele>
					<time>2018-06-24T05:50:04Z</time>
				</trkpt>
				<trkpt lat="45.247760" lon="2.693290">
					<ele>1058</ele>
					<time>2018-06-24T05:51:04Z</time>
				</trkpt>
				<trkpt lat="45.247720" lon="2.693280">
					<ele>1058</ele>
					<time>2018-06-24T05:52:04Z</time>
				</trkpt>
				<trkpt lat="45.247660" lon="2.693260">
					<ele>1058</ele>
					<time>2018-06-24T05:53:04Z</time>
				</trkpt>
				<trkpt lat="45.247510" lon="2.693210">
					<ele>1057</ele>
					<time>2018-06-24T05:54:04Z</time>
				</trkpt>
				<trkpt lat="45.247280" lon="2.693120">
					<ele>1057</ele>
					<time>2018-06-24T05:55:04Z</time>
				</trkpt>
				<trkpt lat="45.247020" lon="2.692990">
					<ele>1055</ele>
					<time>2018-06-24T05:56:04Z</time>
				</trkpt>
				<trkpt lat="45.246820" lon="2.692850">
					<ele>1054</ele>
					<time>2018-06-24T05:57:04Z</time>
				</trkpt>
				<trkpt lat="45.246790" lon="2.692830">
					<ele>1054</ele>
					<time>2018-06-24T05:58:04Z</time>
				</trkpt>
				<trkpt lat="45.246640" lon="2.692720">
					<ele>1052</ele>
					<time>2018-06-24T05:59:04Z</time>
				</trkpt>
				<trkpt lat="45.246510" lon="2.692610">
					<ele>1052</ele>
					<time>2018-06-24T06:00:04Z</time>
				</trkpt>
				<trkpt lat="45.246510" lon="2.692610">
					<ele>1052</ele>
					<time>2018-06-24T06:01:04Z</time>
				</trkpt>
				<trkpt lat="45.246370" lon="2.692770">
					<ele>1051</ele>
					<time>2018-06-24T06:02:04Z</time>
				</trkpt>
				<trkpt lat="45.246290" lon="2.692880">
					<ele>1050</ele>
					<time>2018-06-24T06:03:04Z</time>
				</trkpt>
				<trkpt lat="45.246250" lon="2.692990">
					<ele>1050</ele>
					<time>2018-06-24T06:04:04Z</time>
				</trkpt>
				<trkpt lat="45.246240" lon="2.693120">
					<ele>1049</ele>
					<time>2018-06-24T06:05:04Z</time>
				</trkpt>
				<trkpt lat="45.246260" lon="2.693230">
					<ele>1049</ele>
					<time>2018-06-24T06:06:04Z</time>
				</trkpt>
				<trkpt lat="45.246320" lon="2.693380">
					<ele>1048</ele>
					<time>2018-06-24T06:07:04Z</time>
				</trkpt>
				<trkpt lat="45.246420" lon="2.693570">
					<ele>1047</ele>
					<time>2018-06-24T06:08:04Z</time>
				</trkpt>
				<trkpt lat="45.246460" lon="2.693640">
					<ele>1047</ele>
					<time>2018-06-24T06:09:04Z</time>
				</trkpt>
				<trkpt lat="45.246580" lon="2.693870">
					<ele>1045</ele>
					<time>2018-06-24T06:10:04Z</time>
				</trkpt>
				<trkpt lat="45.246750" lon="2.694150">
					<ele>1042</ele>
					<time>2018-06-24T06:11:04Z</time>
				</trkpt>
				<trkpt lat="45.246820" lon="2.694270">
					<ele>1041</ele>
					<time>2018-06-24T06:12:04Z</time>
				</trkpt>
				<trkpt lat="45.246980" lon="2.694580">
					<ele>1039</ele>
					<time>2018-06-24T06:13:04Z</time>
				</trkpt>
				<trkpt lat="45.247000" lon="2.694670">
					<ele>1038</ele>
					<time>2018-06-24T06:14:04Z</time>
				</trkpt>
				<trkpt lat="45.247000" lon="2.694700">
					<ele>1038</ele>
					<time>2018-06-24T06:15:04Z</time>
				</trkpt>
				<trkpt lat="45.247000" lon="2.694760">
					<ele>1037</ele>
					<time>2018-06-24T06:16:04Z</time>
				</trkpt>
				<trkpt lat="45.246980" lon="2.694830">
					<ele>1036</ele>
					<time>2018-06-24T06:17:04Z</time>
				</trkpt>
				<trkpt lat="45.246920" lon="2.694950">
					<ele>1035</ele>
					<time>2018-06-24T06:18:04Z</time>
				</trkpt>
				<trkpt lat="45.246860" lon="2.695030">
					<ele>1034</ele>
					<time>2018-06-24T06:19:04Z</time>
				</trkpt>
				<trkpt lat="45.246710" lon="2.695150">
					<ele>1032</ele>
					<time>2018-06-24T06:20:04Z</time>
				</trkpt>
				<trkpt lat="45.246610" lon="2.695230">
					<ele>1031</ele>
					<time>2018-06-24T06:21:04Z</time>
				</trkpt>
				<trkpt lat="45.246520" lon="2.695310">
					<ele>1029</ele>
					<time>2018-06-24T06:22:04Z</time>
				</trkpt>
				<trkpt lat="45.246400" lon="2.695410">
					<ele>1028</ele>
					<time>2018-06-24T06:23:04Z</time>
				</trkpt>
				<trkpt lat="45.246060" lon="2.695680">
					<ele>1023</ele>
					<time>2018-06-24T06:24:04Z</time>
				</trkpt>
				<trkpt lat="45.245840" lon="2.695850">
					<ele>1021</ele>
					<time>2018-06-24T06:25:04Z</time>
				</trkpt>
				<trkpt lat="45.245710" lon="2.695930">
					<ele>1020</ele>
					<time>2018-06-24T06:26:04Z</time>
				</trkpt>
				<trkpt lat="45.245520" lon="2.696020">
					<ele>1019</ele>
					<time>2018-06-24T06:27:04Z</time>
				</trkpt>
				<trkpt lat="45.245350" lon="2.696090">
					<ele>1018</ele>
					<time>2018-06-24T06:28:04Z</time>
				</trkpt>
				<trkpt lat="45.245190" lon="2.696120">
					<ele>1018</ele>
					<time>2018-06-24T06:29:04Z</time>
				</trkpt>
				<trkpt lat="45.244950" lon="2.696120">
					<ele>1018</ele>
					<time>2018-06-24T06:30:04Z</time>
				</trkpt>
				<trkpt lat="45.244720" lon="2.696150">
					<ele>1020</ele>
					<time>2018-06-24T06:31:04Z</time>
				</trkpt>
				<trkpt lat="45.244610" lon="2.696180">
					<ele>1020</ele>
					<time>2018-06-24T06:32:04Z</time>
				</trkpt>
				<trkpt lat="45.244500" lon="2.696240">
					<ele>1021</ele>
					<time>2018-06-24T06:33:04Z</time>
				</trkpt>
				<trkpt lat="45.244380" lon="2.696330">
					<ele>1020</ele>
					<time>2018-06-24T06:34:04Z</time>
				</trkpt>
				<trkpt lat="45.244170" lon="2.696530">
					<ele>1020</ele>
					<time>2018-06-24T06:35:04Z</time>
				</trkpt>
				<trkpt lat="45.243930" lon="2.696720">
					<ele>1019</ele>
					<time>2018-06-24T06:36:04Z</time>
				</trkpt>
				<trkpt lat="45.243700" lon="2.696900">
					<ele>1019</ele>
					<time>2018-06-24T06:37:04Z</time>
				</trkpt>
				<trkpt lat="45.243500" lon="2.697040">
					<ele>1019</ele>
					<time>2018-06-24T06:38:04Z</time>
				</trkpt>
				<trkpt lat="45.243290" lon="2.697170">
					<ele>1019</ele>
					<time>2018-06-24T06:39:04Z</time>
				</trkpt>
				<trkpt lat="45.243160" lon="2.697290">
					<ele>1019</ele>
					<time>2018-06-24T06:40:04Z</time>
				</trkpt>
				<trkpt lat="45.243010" lon="2.697450">
					<ele>1019</ele>
					<time>2018-06-24T06:41:04Z</time>
				</trkpt>
				<trkpt lat="45.242920" lon="2.697530">
					<ele>1019</ele>
					<time>2018-06-24T06:42:04Z</time>
				</trkpt>
				<trkpt lat="45.242820" lon="2.697570">
					<ele>1019</ele>
					<time>2018-06-24T06:43:04Z</time>
				</trkpt>
				<trkpt lat="45.242690" lon="2.697610">
					<ele>1020</ele>
					<time>2018-06-24T06:44:04Z</time>
				</trkpt>
				<trkpt lat="45.242480" lon="2.697680">
					<ele>1020</ele>
					<time>2018-06-24T06:45:04Z</time>
				</trkpt>
				<trkpt lat="45.242290" lon="2.697790">
					<ele>1019</ele>
					<time>2018-06-24T06:46:04Z</time>
				</trkpt>
				<trkpt lat="45.242270" lon="2.697800">
					<ele>1019</ele>
					<time>2018-06-24T06:47:04Z</time>
				</trkpt>
				<trkpt lat="45.242270" lon="2.697800">
					<ele>1019</ele>
					<time>2018-06-24T06:48:04Z</time>
				</trkpt>
				<trkpt lat="45.242130" lon="2.697900">
					<ele>1018</ele>
					<time>2018-06-24T06:49:04Z</time>
				</trkpt>
				<trkpt lat="45.241990" lon="2.698040">
					<ele>1016</ele>
					<time>2018-06-24T06:50:04Z</time>
				</trkpt>
				<trkpt lat="45.241910" lon="2.698140">
					<ele>1015</ele>
					<time>2018-06-24T06:51:04Z</time>
				</trkpt>
				<trkpt lat="45.241820" lon="2.698290">
					<ele>1012</ele>
					<time>2018-06-24T06:52:04Z</time>
				</trkpt>
				<trkpt lat="45.241680" lon="2.698510">
					<ele>1009</ele>
					<time>2018-06-24T06:53:04Z</time>
				</trkpt>
				<trkpt lat="45.241550" lon="2.698670">
					<ele>1008</ele>
					<time>2018-06-24T06:54:04Z</time>
				</trkpt>
				<trkpt lat="45.241440" lon="2.698780">
					<ele>1007</ele>
					<time>2018-06-24T06:55:04Z</time>
				</trkpt>
				<trkpt lat="45.241280" lon="2.698910">
					<ele>1007</ele>
					<time>2018-06-24T06:56:04Z</time>
				</trkpt>
				<trkpt lat="45.241160" lon="2.699020">
					<ele>1006</ele>
					<time>2018-06-24T06:57:04Z</time>
				</trkpt>
				<trkpt lat="45.241080" lon="2.699140">
					<ele>1005</ele>
					<time>2018-06-24T06:58:04Z</time>
				</trkpt>
				<trkpt lat="45.241010" lon="2.699270">
					<ele>1004</ele>
					<time>2018-06-24T06:59:04Z</time>
				</trkpt>
				<trkpt lat="45.240940" lon="2.699400">
					<ele>1002</ele>
					<time>2018-06-24T07:00:04Z</time>
				</trkpt>
				<trkpt lat="45.240850" lon="2.699530">
					<ele>1000</ele>
					<time>2018-06-24T07:01:04Z</time>
				</trkpt>
				<trkpt lat="45.240730" lon="2.699640">
					<ele>997</ele>
					<time>2018-06-24T07:02:04Z</time>
				</trkpt>
				<trkpt lat="45.240630" lon="2.699690">
					<ele>996</ele>
					<time>2018-06-24T07:03:04Z</time>
				</trkpt>
				<trkpt lat="45.240530" lon="2.699720">
					<ele>995</ele>
					<time>2018-06-24T07:04:04Z</time>
				</trkpt>
				<trkpt lat="45.240410" lon="2.699730">
					<ele>994</ele>
					<time>2018-06-24T07:05:04Z</time>
				</trkpt>
				<trkpt lat="45.240330" lon="2.699720">
					<ele>994</ele>
					<time>2018-06-24T07:06:04Z</time>
				</trkpt>
				<trkpt lat="45.240210" lon="2.699690">
					<ele>994</ele>
					<time>2018-06-24T07:07:04Z</time>
				</trkpt>
				<trkpt lat="45.240060" lon="2.699620">
					<ele>994</ele>
					<time>2018-06-24T07:08:04Z</time>
				</trkpt>
				<trkpt lat="45.239820" lon="2.699450">
					<ele>994</ele>
					<time>2018-06-24T07:09:04Z</time>
				</trkpt>
				<trkpt lat="45.239600" lon="2.699270">
					<ele>994</ele>
					<time>2018-06-24T07:10:04Z</time>
				</trkpt>
				<trkpt lat="45.239390" lon="2.699140">
					<ele>993</ele>
					<time>2018-06-24T07:11:04Z</time>
				</trkpt>
				<trkpt lat="45.239230" lon="2.699060">
					<ele>992</ele>
					<time>2018-06-24T07:12:04Z</time>
				</trkpt>
				<trkpt lat="45.239190" lon="2.699040">
					<ele>992</ele>
					<time>2018-06-24T07:13:04Z</time>
				</trkpt>
				<trkpt lat="45.239020" lon="2.698990">
					<ele>991</ele>
					<time>2018-06-24T07:14:04Z</time>
				</trkpt>
				<trkpt lat="45.238910" lon="2.698990">
					<ele>990</ele>
					<time>2018-06-24T07:15:04Z</time>
				</trkpt>
				<trkpt lat="45.238770" lon="2.699020">
					<ele>988</ele>
					<time>2018-06-24T07:16:04Z</time>
				</trkpt>
				<trkpt lat="45.238640" lon="2.699100">
					<ele>985</ele>
					<time>2018-06-24T07:17:04Z</time>
				</trkpt>
				<trkpt lat="45.238500" lon="2.699230">
					<ele>982</ele>
					<time>2018-06-24T07:18:04Z</time>
				</trkpt>
				<trkpt lat="45.238350" lon="2.699400">
					<ele>979</ele>
					<time>2018-06-24T07:19:04Z</time>
				</trkpt>
				<trkpt lat="45.238200" lon="2.699600">
					<ele>976</ele>
					<time>2018-06-24T07:20:04Z</time>
				</trkpt>
				<trkpt lat="45.238070" lon="2.699730">
					<ele>974</ele>
					<time>2018-06-24T07:21:04Z</time>
				</trkpt>
				<trkpt lat="45.237960" lon="2.699790">
					<ele>973</ele>
					<time>2018-06-24T07:22:04Z</time>
				</trkpt>
				<trkpt lat="45.237850" lon="2.699820">
					<ele>972</ele>
					<time>2018-06-24T07:23:04Z</time>
				</trkpt>
				<trkpt lat="45.237710" lon="2.699840">
					<ele>971</ele>
					<time>2018-06-24T07:24:04Z</time>
				</trkpt>
				<trkpt lat="45.237580" lon="2.699820">
					<ele>970</ele>
					<time>2018-06-24T07:25:04Z</time>
				</trkpt>
				<trkpt lat="45.237400" lon="2.699800">
					<ele>970</ele>
					<time>2018-06-24T07:26:04Z</time>
				</trkpt>
				<trkpt lat="45.237250" lon="2.699770">
					<ele>970</ele>
					<time>2018-06-24T07:27:04Z</time>
				</trkpt>
				<trkpt lat="45.237100" lon="2.699750">
					<ele>971</ele>
					<time>2018-06-24T07:28:04Z</time>
				</trkpt>
				<trkpt lat="45.236940" lon="2.699770">
					<ele>971</ele>
					<time>2018-06-24T07:29:04Z</time>
				</trkpt>
				<trkpt lat="45.236740" lon="2.699840">
					<ele>971</ele>
					<time>2018-06-24T07:30:04Z</time>
				</trkpt>
				<trkpt lat="45.236540" lon="2.699940">
					<ele>971</ele>
					<time>2018-06-24T07:31:04Z</time>
				</trkpt>
				<trkpt lat="45.236280" lon="2.700130">
					<ele>973</ele>
					<time>2018-06-24T07:32:04Z</time>
				</trkpt>
				<trkpt lat="45.236000" lon="2.700320">
					<ele>974</ele>
					<time>2018-06-24T07:33:04Z</time>
				</trkpt>
				<trkpt lat="45.235820" lon="2.700410">
					<ele>975</ele>
					<time>2018-06-24T07:34:04Z</time>
				</trkpt>
				<trkpt lat="45.235690" lon="2.700460">
					<ele>975</ele>
					<time>2018-06-24T07:35:04Z</time>
				</trkpt>
				<trkpt lat="45.235540" lon="2.700500">
					<ele>976</ele>
					<time>2018-06-24T07:36:04Z</time>
				</trkpt>
				<trkpt lat="45.235410" lon="2.700500">
					<ele>977</ele>
					<time>2018-06-24T07:37:04Z</time>
				</trkpt>
				<trkpt lat="45.235300" lon="2.700510">
					<ele>978</ele>
					<time>2018-06-24T07:38:04Z</time>
				</trkpt>
				<trkpt lat="45.235200" lon="2.700560">
					<ele>978</ele>
					<time>2018-06-24T07:39:04Z</time>
				</trkpt>
				<trkpt lat="45.235080" lon="2.700610">
					<ele>979</ele>
					<time>2018-06-24T07:40:04Z</time>
				</trkpt>
				<trkpt lat="45.234940" lon="2.700730">
					<ele>979</ele>
					<time>2018-06-24T07:41:04Z</time>
				</trkpt>
				<trkpt lat="45.234730" lon="2.700910">
					<ele>978</ele>
					<time>2018-06-24T07:42:04Z</time>
				</trkpt>
				<trkpt lat="45.234390" lon="2.701150">
					<ele>977</ele>
					<time>2018-06-24T07:43:04Z</time>
				</trkpt>
				<trkpt lat="45.234090" lon="2.701350">
					<ele>976</ele>
					<time>2018-06-24T07:44:04Z</time>
				</trkpt>
				<trkpt lat="45.233800" lon="2.701500">
					<ele>976</ele>
					<time>2018-06-24T07:45:04Z</time>
				</trkpt>
				<trkpt lat="45.233600" lon="2.701590">
					<ele>976</ele>
					<time>2018-06-24T07:46:04Z</time>
				</trkpt>
				<trkpt lat="45.233430" lon="2.701650">
					<ele>977</ele>
					<time>2018-06-24T07:47:04Z</time>
				</trkpt>
				<trkpt lat="45.233180" lon="2.701730">
					<ele>977</ele>
					<time>2018-06-24T07:48:04Z</time>
				</trkpt>
				<trkpt lat="45.232760" lon="2.701870">
					<ele>976</ele>
					<time>2018-06-24T07:49:04Z</time>
				</trkpt>
				<trkpt lat="45.232330" lon="2.702000">
					<ele>975</ele>
					<time>2018-06-24T07:50:04Z</time>
				</trkpt>
				<trkpt lat="45.231850" lon="2.702130">
					<ele>974</ele>
					<time>2018-06-24T07:51:04Z</time>
				</trkpt>
				<trkpt lat="45.231510" lon="2.702230">
					<ele>974</ele>
					<time>2018-06-24T07:52:04Z</time>
				</trkpt>
				<trkpt lat="45.231210" lon="2.702320">
					<ele>973</ele>
					<time>2018-06-24T07:53:04Z</time>
				</trkpt>
				<trkpt lat="45.231020" lon="2.702370">
					<ele>973</ele>
					<time>2018-06-24T07:54:04Z</time>
				</trkpt>
				<trkpt lat="45.230910" lon="2.702370">
					<ele>973</ele>
					<time>2018-06-24T07:55:04Z</time>
				</trkpt>
				<trkpt lat="45.230790" lon="2.702340">
					<ele>972</ele>
					<time>2018-06-24T07:56:04Z</time>
				</trkpt>
				<trkpt lat="45.230660" lon="2.702260">
					<ele>972</ele>
					<time>2018-06-24T07:57:04Z</time>
				</trkpt>
				<trkpt lat="45.230530" lon="2.702140">
					<ele>972</ele>
					<time>2018-06-24T07:58:04Z</time>
				</trkpt>
				<trkpt lat="45.230390" lon="2.701970">
					<ele>974</ele>
					<time>2018-06-24T07:59:04Z</time>
				</trkpt>
				<trkpt lat="45.230290" lon="2.701870">
					<ele>975</ele>
					<time>2018-06-24T08:00:04Z</time>
				</trkpt>
				<trkpt lat="45.230200" lon="2.701820">
					<ele>976</ele>
					<time>2018-06-24T08:01:04Z</time>
				</trkpt>
				<trkpt lat="45.230070" lon="2.701770">
					<ele>978</ele>
					<time>2018-06-24T08:02:04Z</time>
				</trkpt>
				<trkpt lat="45.230050" lon="2.701760">
					<ele>978</ele>
					<time>2018-06-24T08:03:04Z</time>
				</trkpt>
				<trkpt lat="45.229850" lon="2.701700">
					<ele>980</ele>
					<time>2018-06-24T08:04:04Z</time>
				</trkpt>
				<trkpt lat="45.229650" lon="2.701620">
					<ele>983</ele>
					<time>2018-06-24T08:05:04Z</time>
				</trkpt>
				<trkpt lat="45.229490" lon="2.701570">
					<ele>984</ele>
					<time>2018-06-24T08:06:04Z</time>
				</trkpt>
				<trkpt lat="45.229320" lon="2.701570">
					<ele>985</ele>
					<time>2018-06-24T08:07:04Z</time>
				</trkpt>
				<trkpt lat="45.229110" lon="2.701610">
					<ele>986</ele>
					<time>2018-06-24T08:08:04Z</time>
				</trkpt>
				<trkpt lat="45.228930" lon="2.701650">
					<ele>987</ele>
					<time>2018-06-24T08:09:04Z</time>
				</trkpt>
				<trkpt lat="45.228740" lon="2.701740">
					<ele>987</ele>
					<time>2018-06-24T08:10:04Z</time>
				</trkpt>
				<trkpt lat="45.228610" lon="2.701830">
					<ele>987</ele>
					<time>2018-06-24T08:11:04Z</time>
				</trkpt>
				<trkpt lat="45.228480" lon="2.701960">
					<ele>986</ele>
					<time>2018-06-24T08:12:04Z</time>
				</trkpt>
				<trkpt lat="45.228320" lon="2.702100">
					<ele>986</ele>
					<time>2018-06-24T08:13:04Z</time>
				</trkpt>
				<trkpt lat="45.228200" lon="2.702180">
					<ele>987</ele>
					<time>2018-06-24T08:14:04Z</time>
				</trkpt>
				<trkpt lat="45.228040" lon="2.702250">
					<ele>988</ele>
					<time>2018-06-24T08:15:04Z</time>
				</trkpt>
				<trkpt lat="45.227760" lon="2.702370">
					<ele>990</ele>
					<time>2018-06-24T08:16:04Z</time>
				</trkpt>
				<trkpt lat="45.227480" lon="2.702490">
					<ele>992</ele>
					<time>2018-06-24T08:17:04Z</time>
				</trkpt>
				<trkpt lat="45.227170" lon="2.702690">
					<ele>993</ele>
					<time>2018-06-24T08:18:04Z</time>
				</trkpt>
				<trkpt lat="45.226960" lon="2.702830">
					<ele>994</ele>
					<time>2018-06-24T08:19:04Z</time>
				</trkpt>
				<trkpt lat="45.226810" lon="2.702950">
					<ele>995</ele>
					<time>2018-06-24T08:20:04Z</time>
				</trkpt>
				<trkpt lat="45.226710" lon="2.703090">
					<ele>994</ele>
					<time>2018-06-24T08:21:04Z</time>
				</trkpt>
				<trkpt lat="45.226630" lon="2.703230">
					<ele>994</ele>
					<time>2018-06-24T08:22:04Z</time>
				</trkpt>
				<trkpt lat="45.226550" lon="2.703320">
					<ele>994</ele>
					<time>2018-06-24T08:23:04Z</time>
				</trkpt>
				<trkpt lat="45.226470" lon="2.703390">
					<ele>994</ele>
					<time>2018-06-24T08:24:04Z</time>
				</trkpt>
				<trkpt lat="45.226310" lon="2.703460">
					<ele>996</ele>
					<time>2018-06-24T08:25:04Z</time>
				</trkpt>
				<trkpt lat="45.225890" lon="2.703620">
					<ele>999</ele>
					<time>2018-06-24T08:26:04Z</time>
				</trkpt>
				<trkpt lat="45.225750" lon="2.703670">
					<ele>1000</ele>
					<time>2018-06-24T08:27:04Z</time>
				</trkpt>
				<trkpt lat="45.225480" lon="2.703780">
					<ele>1001</ele>
					<time>2018-06-24T08:28:04Z</time>
				</trkpt>
				<trkpt lat="45.225310" lon="2.703840">
					<ele>1002</ele>
					<time>2018-06-24T08:29:04Z</time>
				</trkpt>
				<trkpt lat="45.225120" lon="2.703900">
					<ele>1004</ele>
					<time>2018-06-24T08:30:04Z</time>
				</trkpt>
				<trkpt lat="45.224960" lon="2.703990">
					<ele>1005</ele>
					<time>2018-06-24T08:31:04Z</time>
				</trkpt>
				<trkpt lat="45.224850" lon="2.704090">
					<ele>1005</ele>
					<time>2018-06-24T08:32:04Z</time>
				</trkpt>
				<trkpt lat="45.224720" lon="2.704200">
					<ele>1005</ele>
					<time>2018-06-24T08:33:04Z</time>
				</trkpt>
				<trkpt lat="45.224600" lon="2.704270">
					<ele>1006</ele>
					<time>2018-06-24T08:34:04Z</time>
				</trkpt>
				<trkpt lat="45.224480" lon="2.704290">
					<ele>1007</ele>
					<time>2018-06-24T08:35:04Z</time>
				</trkpt>
				<trkpt lat="45.224350" lon="2.704310">
					<ele>1008</ele>
					<time>2018-06-24T08:36:04Z</time>
				</trkpt>
				<trkpt lat="45.224280" lon="2.704330">
					<ele>1009</ele>
					<time>2018-06-24T08:37:04Z</time>
				</trkpt>
				<trkpt lat="45.224230" lon="2.704370">
					<ele>1009</ele>
					<time>2018-06-24T08:38:04Z</time>
				</trkpt>
				<trkpt lat="45.224060" lon="2.704460">
					<ele>1010</ele>
					<time>2018-06-24T08:39:04Z</time>
				</trkpt>
				<trkpt lat="45.223780" lon="2.704570">
					<ele>1010</ele>
					<time>2018-06-24T08:40:04Z</time>
				</trkpt>
				<trkpt lat="45.223550" lon="2.704680">
					<ele>1009</ele>
					<time>2018-06-24T08:41:04Z</time>
				</trkpt>
				<trkpt lat="45.223380" lon="2.704770">
					<ele>1009</ele>
					<time>2018-06-24T08:42:04Z</time>
				</trkpt>
				<trkpt lat="45.223240" lon="2.704810">
					<ele>1009</ele>
					<time>2018-06-24T08:43:04Z</time>
				</trkpt>
				<trkpt lat="45.223100" lon="2.704810">
					<ele>1009</ele>
					<time>2018-06-24T08:44:04Z</time>
				</trkpt>
				<trkpt lat="45.223040" lon="2.704820">
					<ele>1009</ele>
					<time>2018-06-24T08:45:04Z</time>
				</trkpt>
				<trkpt lat="45.222990" lon="2.704870">
					<ele>1009</ele>
					<time>2018-06-24T08:46:04Z</time>
				</trkpt>
				<trkpt lat="45.222920" lon="2.704970">
					<ele>1008</ele>
					<time>2018-06-24T08:47:04Z</time>
				</trkpt>
				<trkpt lat="45.222880" lon="2.705010">
					<ele>1008</ele>
					<time>2018-06-24T08:48:04Z</time>
				</trkpt>
				<trkpt lat="45.222820" lon="2.705060">
					<ele>1007</ele>
					<time>2018-06-24T08:49:04Z</time>
				</trkpt>
				<trkpt lat="45.222630" lon="2.705150">
					<ele>1006</ele>
					<time>2018-06-24T08:50:04Z</time>
				</trkpt>
				<trkpt lat="45.222440" lon="2.705220">
					<ele>1005</ele>
					<time>2018-06-24T08:51:04Z</time>
				</trkpt>
				<trkpt lat="45.222340" lon="2.705230">
					<ele>1004</ele>
					<time>2018-06-24T08:52:04Z</time>
				</trkpt>
				<trkpt lat="45.222170" lon="2.705170">
					<ele>1004</ele>
					<time>2018-06-24T08:53:04Z</time>
				</trkpt>
				<trkpt lat="45.221950" lon="2.705090">
					<ele>1003</ele>
					<time>2018-06-24T08:54:04Z</time>
				</trkpt>
				<trkpt lat="45.221750" lon="2.705050">
					<ele>1002</ele>
					<time>2018-06-24T08:55:04Z</time>
				</trkpt>
				<trkpt lat="45.221610" lon="2.705060">
					<ele>1001</ele>
					<time>2018-06-24T08:56:04Z</time>
				</trkpt>
				<trkpt lat="45.221490" lon="2.705100">
					<ele>1001</ele>
					<time>2018-06-24T08:57:04Z</time>
				</trkpt>
				<trkpt lat="45.221420" lon="2.705190">
					<ele>1000</ele>
					<time>2018-06-24T08:58:04Z</time>
				</trkpt>
				<trkpt lat="45.221260" lon="2.705440">
					<ele>998</ele>
					<time>2018-06-24T08:59:04Z</time>
				</trkpt>
				<trkpt lat="45.221080" lon="2.705700">
					<ele>996</ele>
					<time>2018-06-24T09:00:04Z</time>
				</trkpt>
				<trkpt lat="45.220960" lon="2.705850">
					<ele>995</ele>
					<time>2018-06-24T09:01:04Z</time>
				</trkpt>
				<trkpt lat="45.220860" lon="2.705930">
					<ele>994</ele>
					<time>2018-06-24T09:02:04Z</time>
				</trkpt>
				<trkpt lat="45.220720" lon="2.705970">
					<ele>992</ele>
					<time>2018-06-24T09:03:04Z</time>
				</trkpt>
				<trkpt lat="45.220540" lon="2.706010">
					<ele>990</ele>
					<time>2018-06-24T09:04:04Z</time>
				</trkpt>
				<trkpt lat="45.220310" lon="2.705990">
					<ele>990</ele>
					<time>2018-06-24T09:05:04Z</time>
				</trkpt>
				<trkpt lat="45.220060" lon="2.705930">
					<ele>990</ele>
					<time>2018-06-24T09:06:04Z</time>
				</trkpt>
				<trkpt lat="45.219830" lon="2.705880">
					<ele>990</ele>
					<time>2018-06-24T09:07:04Z</time>
				</trkpt>
				<trkpt lat="45.219650" lon="2.705880">
					<ele>989</ele>
					<time>2018-06-24T09:08:04Z</time>
				</trkpt>
				<trkpt lat="45.219470" lon="2.705890">
					<ele>988</ele>
					<time>2018-06-24T09:09:04Z</time>
				</trkpt>
				<trkpt lat="45.218710" lon="2.705980">
					<ele>982</ele>
					<time>2018-06-24T09:10:04Z</time>
				</trkpt>
				<trkpt lat="45.218390" lon="2.706020">
					<ele>980</ele>
					<time>2018-06-24T09:11:04Z</time>
				</trkpt>
				<trkpt lat="45.218190" lon="2.706060">
					<ele>979</ele>
					<time>2018-06-24T09:12:04Z</time>
				</trkpt>
				<trkpt lat="45.218060" lon="2.706120">
					<ele>978</ele>
					<time>2018-06-24T09:13:04Z</time>
				</trkpt>
				<trkpt lat="45.217970" lon="2.706200">
					<ele>977</ele>
					<time>2018-06-24T09:14:04Z</time>
				</trkpt>
				<trkpt lat="45.217870" lon="2.706330">
					<ele>974</ele>
					<time>2018-06-24T09:15:04Z</time>
				</trkpt>
				<trkpt lat="45.217720" lon="2.706590">
					<ele>969</ele>
					<time>2018-06-24T09:16:04Z</time>
				</trkpt>
				<trkpt lat="45.217490" lon="2.706910">
					<ele>966</ele>
					<time>2018-06-24T09:17:04Z</time>
				</trkpt>
				<trkpt lat="45.217450" lon="2.706970">
					<ele>965</ele>
					<time>2018-06-24T09:18:04Z</time>
				</trkpt>
				<trkpt lat="45.217220" lon="2.707300">
					<ele>962</ele>
					<time>2018-06-24T09:19:04Z</time>
				</trkpt>
				<trkpt lat="45.216990" lon="2.707640">
					<ele>958</ele>
					<time>2018-06-24T09:20:04Z</time>
				</trkpt>
				<trkpt lat="45.216820" lon="2.707890">
					<ele>957</ele>
					<time>2018-06-24T09:21:04Z</time>
				</trkpt>
				<trkpt lat="45.216650" lon="2.708150">
					<ele>955</ele>
					<time>2018-06-24T09:22:04Z</time>
				</trkpt>
				<trkpt lat="45.216470" lon="2.708410">
					<ele>952</ele>
					<time>2018-06-24T09:23:04Z</time>
				</trkpt>
				<trkpt lat="45.216260" lon="2.708710">
					<ele>948</ele>
					<time>2018-06-24T09:24:04Z</time>
				</trkpt>
				<trkpt lat="45.216150" lon="2.708850">
					<ele>946</ele>
					<time>2018-06-24T09:25:04Z</time>
				</trkpt>
				<trkpt lat="45.216020" lon="2.708970">
					<ele>945</ele>
					<time>2018-06-24T09:26:04Z</time>
				</trkpt>
				<trkpt lat="45.215860" lon="2.709070">
					<ele>943</ele>
					<time>2018-06-24T09:27:04Z</time>
				</trkpt>
				<trkpt lat="45.215600" lon="2.709260">
					<ele>941</ele>
					<time>2018-06-24T09:28:04Z</time>
				</trkpt>
				<trkpt lat="45.215130" lon="2.709590">
					<ele>938</ele>
					<time>2018-06-24T09:29:04Z</time>
				</trkpt>
				<trkpt lat="45.214890" lon="2.709760">
					<ele>937</ele>
					<time>2018-06-24T09:30:04Z</time>
				</trkpt>
				<trkpt lat="45.214870" lon="2.709770">
					<ele>937</ele>
					<time>2018-06-24T09:31:04Z</time>
				</trkpt>
				<trkpt lat="45.214760" lon="2.709870">
					<ele>936</ele>
					<time>2018-06-24T09:32:04Z</time>
				</trkpt>
				<trkpt lat="45.214610" lon="2.710050">
					<ele>935</ele>
					<time>2018-06-24T09:33:04Z</time>
				</trkpt>
				<trkpt lat="45.214500" lon="2.710150">
					<ele>934</ele>
					<time>2018-06-24T09:34:04Z</time>
				</trkpt>
				<trkpt lat="45.214380" lon="2.710230">
					<ele>933</ele>
					<time>2018-06-24T09:35:04Z</time>
				</trkpt>
				<trkpt lat="45.214100" lon="2.710350">
					<ele>931</ele>
					<time>2018-06-24T09:36:04Z</time>
				</trkpt>
				<trkpt lat="45.213940" lon="2.710450">
					<ele>929</ele>
					<time>2018-06-24T09:37:04Z</time>
				</trkpt>
				<trkpt lat="45.213750" lon="2.710580">
					<ele>927</ele>
					<time>2018-06-24T09:38:04Z</time>
				</trkpt>
				<trkpt lat="45.213610" lon="2.710690">
					<ele>925</ele>
					<time>2018-06-24T09:39:04Z</time>
				</trkpt>
				<trkpt lat="45.213600" lon="2.710700">
					<ele>925</ele>
					<time>2018-06-24T09:40:04Z</time>
				</trkpt>
				<trkpt lat="45.213510" lon="2.710820">
					<ele>923</ele>
					<time>2018-06-24T09:41:04Z</time>
				</trkpt>
				<trkpt lat="45.213460" lon="2.710900">
					<ele>923</ele>
					<time>2018-06-24T09:42:04Z</time>
				</trkpt>
				<trkpt lat="45.213440" lon="2.710940">
					<ele>923</ele>
					<time>2018-06-24T09:43:04Z</time>
				</trkpt>
				<trkpt lat="45.213420" lon="2.711010">
					<ele>923</ele>
					<time>2018-06-24T09:44:04Z</time>
				</trkpt>
				<trkpt lat="45.213380" lon="2.711190">
					<ele>922</ele>
					<time>2018-06-24T09:45:04Z</time>
				</trkpt>
				<trkpt lat="45.213340" lon="2.711390">
					<ele>922</ele>
					<time>2018-06-24T09:46:04Z</time>
				</trkpt>
				<trkpt lat="45.213300" lon="2.711580">
					<ele>921</ele>
					<time>2018-06-24T09:47:04Z</time>
				</trkpt>
				<trkpt lat="45.213250" lon="2.711750">
					<ele>922</ele>
					<time>2018-06-24T09:48:04Z</time>
				</trkpt>
				<trkpt lat="45.213240" lon="2.711780">
					<ele>923</ele>
					<time>2018-06-24T09:49:04Z</time>
				</trkpt>
				<trkpt lat="45.213220" lon="2.711810">
					<ele>923</ele>
					<time>2018-06-24T09:50:04Z</time>
				</trkpt>
				<trkpt lat="45.213150" lon="2.711880">
					<ele>925</ele>
					<time>2018-06-24T09:51:04Z</time>
				</trkpt>
				<trkpt lat="45.213070" lon="2.711930">
					<ele>926</ele>
					<time>2018-06-24T09:52:04Z</time>
				</trkpt>
				<trkpt lat="45.212970" lon="2.711960">
					<ele>926</ele>
					<time>2018-06-24T09:53:04Z</time>
				</trkpt>
				<trkpt lat="45.212700" lon="2.711960">
					<ele>927</ele>
					<time>2018-06-24T09:54:04Z</time>
				</trkpt>
				<trkpt lat="45.212320" lon="2.711980">
					<ele>927</ele>
					<time>2018-06-24T09:55:04Z</time>
				</trkpt>
				<trkpt lat="45.211970" lon="2.712040">
					<ele>927</ele>
					<time>2018-06-24T09:56:04Z</time>
				</trkpt>
				<trkpt lat="45.211760" lon="2.712080">
					<ele>927</ele>
					<time>2018-06-24T09:57:04Z</time>
				</trkpt>
				<trkpt lat="45.211510" lon="2.712160">
					<ele>927</ele>
					<time>2018-06-24T09:58:04Z</time>
				</trkpt>
				<trkpt lat="45.211360" lon="2.712250">
					<ele>926</ele>
					<time>2018-06-24T09:59:04Z</time>
				</trkpt>
				<trkpt lat="45.211230" lon="2.712350">
					<ele>926</ele>
					<time>2018-06-24T10:00:04Z</time>
				</trkpt>
				<trkpt lat="45.211100" lon="2.712480">
					<ele>926</ele>
					<time>2018-06-24T10:01:04Z</time>
				</trkpt>
				<trkpt lat="45.210980" lon="2.712650">
					<ele>926</ele>
					<time>2018-06-24T10:02:04Z</time>
				</trkpt>
				<trkpt lat="45.210870" lon="2.712860">
					<ele>928</ele>
					<time>2018-06-24T10:03:04Z</time>
				</trkpt>
				<trkpt lat="45.210700" lon="2.713250">
					<ele>932</ele>
					<time>2018-06-24T10:04:04Z</time>
				</trkpt>
				<trkpt lat="45.210600" lon="2.713450">
					<ele>934</ele>
					<time>2018-06-24T10:05:04Z</time>
				</trkpt>
				<trkpt lat="45.210530" lon="2.713580">
					<ele>935</ele>
					<time>2018-06-24T10:06:04Z</time>
				</trkpt>
				<trkpt lat="45.210410" lon="2.713770">
					<ele>936</ele>
					<time>2018-06-24T10:07:04Z</time>
				</trkpt>
				<trkpt lat="45.210210" lon="2.714100">
					<ele>939</ele>
					<time>2018-06-24T10:08:04Z</time>
				</trkpt>
				<trkpt lat="45.209990" lon="2.714460">
					<ele>942</ele>
					<time>2018-06-24T10:09:04Z</time>
				</trkpt>
				<trkpt lat="45.209840" lon="2.714730">
					<ele>944</ele>
					<time>2018-06-24T10:10:04Z</time>
				</trkpt>
				<trkpt lat="45.209800" lon="2.714790">
					<ele>945</ele>
					<time>2018-06-24T10:11:04Z</time>
				</trkpt>
				<trkpt lat="45.209750" lon="2.714840">
					<ele>945</ele>
					<time>2018-06-24T10:12:04Z</time>
				</trkpt>
				<trkpt lat="45.209560" lon="2.714990">
					<ele>946</ele>
					<time>2018-06-24T10:13:04Z</time>
				</trkpt>
				<trkpt lat="45.209350" lon="2.715140">
					<ele>947</ele>
					<time>2018-06-24T10:14:04Z</time>
				</trkpt>
				<trkpt lat="45.209280" lon="2.715220">
					<ele>948</ele>
					<time>2018-06-24T10:15:04Z</time>
				</trkpt>
				<trkpt lat="45.209230" lon="2.715310">
					<ele>949</ele>
					<time>2018-06-24T10:16:04Z</time>
				</trkpt>
				<trkpt lat="45.209200" lon="2.715380">
					<ele>950</ele>
					<time>2018-06-24T10:17:04Z</time>
				</trkpt>
				<trkpt lat="45.209120" lon="2.715570">
					<ele>952</ele>
					<time>2018-06-24T10:18:04Z</time>
				</trkpt>
				<trkpt lat="45.209040" lon="2.715760">
					<ele>955</ele>
					<time>2018-06-24T10:19:04Z</time>
				</trkpt>
				<trkpt lat="45.208980" lon="2.715840">
					<ele>956</ele>
					<time>2018-06-24T10:20:04Z</time>
				</trkpt>
				<trkpt lat="45.208910" lon="2.715910">
					<ele>957</ele>
					<time>2018-06-24T10:21:04Z</time>
				</trkpt>
				<trkpt lat="45.208830" lon="2.715960">
					<ele>958</ele>
					<time>2018-06-24T10:22:04Z</time>
				</trkpt>
				<trkpt lat="45.208720" lon="2.715990">
					<ele>959</ele>
					<time>2018-06-24T10:23:04Z</time>
				</trkpt>
				<trkpt lat="45.208640" lon="2.716010">
					<ele>959</ele>
					<time>2018-06-24T10:24:04Z</time>
				</trkpt>
				<trkpt lat="45.208520" lon="2.716030">
					<ele>960</ele>
					<time>2018-06-24T10:25:04Z</time>
				</trkpt>
				<trkpt lat="45.208360" lon="2.716080">
					<ele>961</ele>
					<time>2018-06-24T10:26:04Z</time>
				</trkpt>
				<trkpt lat="45.208250" lon="2.716140">
					<ele>962</ele>
					<time>2018-06-24T10:27:04Z</time>
				</trkpt>
				<trkpt lat="45.208240" lon="2.716140">
					<ele>962</ele>
					<time>2018-06-24T10:28:04Z</time>
				</trkpt>
				<trkpt lat="45.208180" lon="2.716210">
					<ele>963</ele>
					<time>2018-06-24T10:29:04Z</time>
				</trkpt>
				<trkpt lat="45.208180" lon="2.716210">
					<ele>963</ele>
					<time>2018-06-24T10:30:04Z</time>
				</trkpt>
				<trkpt lat="45.208100" lon="2.716200">
					<ele>964</ele>
					<time>2018-06-24T10:31:04Z</time>
				</trkpt>
				<trkpt lat="45.207980" lon="2.716190">
					<ele>964</ele>
					<time>2018-06-24T10:32:04Z</time>
				</trkpt>
				<trkpt lat="45.207820" lon="2.716210">
					<ele>965</ele>
					<time>2018-06-24T10:33:04Z</time>
				</trkpt>
				<trkpt lat="45.207630" lon="2.716230">
					<ele>967</ele>
					<time>2018-06-24T10:34:04Z</time>
				</trkpt>
				<trkpt lat="45.207480" lon="2.716260">
					<ele>968</ele>
					<time>2018-06-24T10:35:04Z</time>
				</trkpt>
				<trkpt lat="45.207340" lon="2.716250">
					<ele>970</ele>
					<time>2018-06-24T10:36:04Z</time>
				</trkpt>
				<trkpt lat="45.207210" lon="2.716220">
					<ele>971</ele>
					<time>2018-06-24T10:37:04Z</time>
				</trkpt>
				<trkpt lat="45.206980" lon="2.716160">
					<ele>973</ele>
					<time>2018-06-24T10:38:04Z</time>
				</trkpt>
				<trkpt lat="45.206810" lon="2.716120">
					<ele>974</ele>
					<time>2018-06-24T10:39:04Z</time>
				</trkpt>
				<trkpt lat="45.206730" lon="2.716080">
					<ele>974</ele>
					<time>2018-06-24T10:40:04Z</time>
				</trkpt>
				<trkpt lat="45.206700" lon="2.716070">
					<ele>974</ele>
					<time>2018-06-24T10:41:04Z</time>
				</trkpt>
				<trkpt lat="45.206570" lon="2.715970">
					<ele>973</ele>
					<time>2018-06-24T10:42:04Z</time>
				</trkpt>
				<trkpt lat="45.206440" lon="2.715870">
					<ele>972</ele>
					<time>2018-06-24T10:43:04Z</time>
				</trkpt>
				<trkpt lat="45.206240" lon="2.715730">
					<ele>969</ele>
					<time>2018-06-24T10:44:04Z</time>
				</trkpt>
				<trkpt lat="45.206140" lon="2.715680">
					<ele>968</ele>
					<time>2018-06-24T10:45:04Z</time>
				</trkpt>
				<trkpt lat="45.206060" lon="2.715650">
					<ele>967</ele>
					<time>2018-06-24T10:46:04Z</time>
				</trkpt>
				<trkpt lat="45.205970" lon="2.715640">
					<ele>968</ele>
					<time>2018-06-24T10:47:04Z</time>
				</trkpt>
				<trkpt lat="45.205850" lon="2.715650">
					<ele>969</ele>
					<time>2018-06-24T10:48:04Z</time>
				</trkpt>
				<trkpt lat="45.205620" lon="2.715710">
					<ele>970</ele>
					<time>2018-06-24T10:49:04Z</time>
				</trkpt>
				<trkpt lat="45.205330" lon="2.715810">
					<ele>973</ele>
					<time>2018-06-24T10:50:04Z</time>
				</trkpt>
				<trkpt lat="45.205180" lon="2.715830">
					<ele>973</ele>
					<time>2018-06-24T10:51:04Z</time>
				</trkpt>
				<trkpt lat="45.205000" lon="2.715830">
					<ele>973</ele>
					<time>2018-06-24T10:52:04Z</time>
				</trkpt>
				<trkpt lat="45.204740" lon="2.715810">
					<ele>971</ele>
					<time>2018-06-24T10:53:04Z</time>
				</trkpt>
				<trkpt lat="45.204470" lon="2.715780">
					<ele>969</ele>
					<time>2018-06-24T10:54:04Z</time>
				</trkpt>
				<trkpt lat="45.204280" lon="2.715760">
					<ele>968</ele>
					<time>2018-06-24T10:55:04Z</time>
				</trkpt>
				<trkpt lat="45.204140" lon="2.715770">
					<ele>968</ele>
					<time>2018-06-24T10:56:04Z</time>
				</trkpt>
				<trkpt lat="45.204080" lon="2.715780">
					<ele>968</ele>
					<time>2018-06-24T10:57:04Z</time>
				</trkpt>
				<trkpt lat="45.204030" lon="2.715780">
					<ele>968</ele>
					<time>2018-06-24T10:58:04Z</time>
				</trkpt>
				<trkpt lat="45.203910" lon="2.715820">
					<ele>969</ele>
					<time>2018-06-24T10:59:04Z</time>
				</trkpt>
				<trkpt lat="45.203840" lon="2.715860">
					<ele>970</ele>
					<time>2018-06-24T11:00:04Z</time>
				</trkpt>
				<trkpt lat="45.203720" lon="2.715920">
					<ele>971</ele>
					<time>2018-06-24T11:01:04Z</time>
				</trkpt>
				<trkpt lat="45.203370" lon="2.716100">
					<ele>975</ele>
					<time>2018-06-24T11:02:04Z</time>
				</trkpt>
				<trkpt lat="45.203150" lon="2.716220">
					<ele>975</ele>
					<time>2018-06-24T11:03:04Z</time>
				</trkpt>
				<trkpt lat="45.203000" lon="2.716290">
					<ele>975</ele>
					<time>2018-06-24T11:04:04Z</time>
				</trkpt>
				<trkpt lat="45.202890" lon="2.716320">
					<ele>974</ele>
					<time>2018-06-24T11:05:04Z</time>
				</trkpt>
				<trkpt lat="45.202750" lon="2.716380">
					<ele>973</ele>
					<time>2018-06-24T11:06:04Z</time>
				</trkpt>
				<trkpt lat="45.202660" lon="2.716440">
					<ele>974</ele>
					<time>2018-06-24T11:07:04Z</time>
				</trkpt>
				<trkpt lat="45.202510" lon="2.716550">
					<ele>974</ele>
					<time>2018-06-24T11:08:04Z</time>
				</trkpt>
				<trkpt lat="45.202290" lon="2.716730">
					<ele>976</ele>
					<time>2018-06-24T11:09:04Z</time>
				</trkpt>
				<trkpt lat="45.202140" lon="2.716830">
					<ele>977</ele>
					<time>2018-06-24T11:10:04Z</time>
				</trkpt>
				<trkpt lat="45.201980" lon="2.716900">
					<ele>977</ele>
					<time>2018-06-24T11:11:04Z</time>
				</trkpt>
				<trkpt lat="45.201810" lon="2.716960">
					<ele>977</ele>
					<time>2018-06-24T11:12:04Z</time>
				</trkpt>
				<trkpt lat="45.201700" lon="2.716970">
					<ele>976</ele>
					<time>2018-06-24T11:13:04Z</time>
				</trkpt>
				<trkpt lat="45.201500" lon="2.716960">
					<ele>975</ele>
					<time>2018-06-24T11:14:04Z</time>
				</trkpt>
				<trkpt lat="45.201320" lon="2.716940">
					<ele>975</ele>
					<time>2018-06-24T11:15:04Z</time>
				</trkpt>
				<trkpt lat="45.201160" lon="2.716950">
					<ele>975</ele>
					<time>2018-06-24T11:16:04Z</time>
				</trkpt>
				<trkpt lat="45.201040" lon="2.716970">
					<ele>976</ele>
					<time>2018-06-24T11:17:04Z</time>
				</trkpt>
				<trkpt lat="45.200900" lon="2.716960">
					<ele>976</ele>
					<time>2018-06-24T11:18:04Z</time>
				</trkpt>
				<trkpt lat="45.200800" lon="2.716940">
					<ele>976</ele>
					<time>2018-06-24T11:19:04Z</time>
				</trkpt>
				<trkpt lat="45.200710" lon="2.716880">
					<ele>974</ele>
					<time>2018-06-24T11:20:04Z</time>
				</trkpt>
				<trkpt lat="45.200600" lon="2.716780">
					<ele>972</ele>
					<time>2018-06-24T11:21:04Z</time>
				</trkpt>
				<trkpt lat="45.200470" lon="2.716730">
					<ele>972</ele>
					<time>2018-06-24T11:22:04Z</time>
				</trkpt>
				<trkpt lat="45.200360" lon="2.716720">
					<ele>972</ele>
					<time>2018-06-24T11:23:04Z</time>
				</trkpt>
				<trkpt lat="45.200260" lon="2.716740">
					<ele>973</ele>
					<time>2018-06-24T11:24:04Z</time>
				</trkpt>
				<trkpt lat="45.200170" lon="2.716800">
					<ele>974</ele>
					<time>2018-06-24T11:25:04Z</time>
				</trkpt>
				<trkpt lat="45.200050" lon="2.716910">
					<ele>977</ele>
					<time>2018-06-24T11:26:04Z</time>
				</trkpt>
				<trkpt lat="45.199900" lon="2.717070">
					<ele>979</ele>
					<time>2018-06-24T11:27:04Z</time>
				</trkpt>
				<trkpt lat="45.199760" lon="2.717210">
					<ele>981</ele>
					<time>2018-06-24T11:28:04Z</time>
				</trkpt>
				<trkpt lat="45.199620" lon="2.717320">
					<ele>982</ele>
					<time>2018-06-24T11:29:04Z</time>
				</trkpt>
				<trkpt lat="45.199420" lon="2.717450">
					<ele>984</ele>
					<time>2018-06-24T11:30:04Z</time>
				</trkpt>
				<trkpt lat="45.199380" lon="2.717470">
					<ele>984</ele>
					<time>2018-06-24T11:31:04Z</time>
				</trkpt>
				<trkpt lat="45.199280" lon="2.717530">
					<ele>986</ele>
					<time>2018-06-24T11:32:04Z</time>
				</trkpt>
				<trkpt lat="45.199210" lon="2.717550">
					<ele>986</ele>
					<time>2018-06-24T11:33:04Z</time>
				</trkpt>
				<trkpt lat="45.199160" lon="2.717560">
					<ele>986</ele>
					<time>2018-06-24T11:34:04Z</time>
				</trkpt>
				<trkpt lat="45.199050" lon="2.717550">
					<ele>987</ele>
					<time>2018-06-24T11:35:04Z</time>
				</trkpt>
				<trkpt lat="45.198930" lon="2.717500">
					<ele>986</ele>
					<time>2018-06-24T11:36:04Z</time>
				</trkpt>
				<trkpt lat="45.198740" lon="2.717400">
					<ele>984</ele>
					<time>2018-06-24T11:37:04Z</time>
				</trkpt>
				<trkpt lat="45.198540" lon="2.717270">
					<ele>982</ele>
					<time>2018-06-24T11:38:04Z</time>
				</trkpt>
				<trkpt lat="45.198400" lon="2.717190">
					<ele>980</ele>
					<time>2018-06-24T11:39:04Z</time>
				</trkpt>
				<trkpt lat="45.198300" lon="2.717160">
					<ele>980</ele>
					<time>2018-06-24T11:40:04Z</time>
				</trkpt>
				<trkpt lat="45.198190" lon="2.717170">
					<ele>980</ele>
					<time>2018-06-24T11:41:04Z</time>
				</trkpt>
				<trkpt lat="45.198040" lon="2.717230">
					<ele>982</ele>
					<time>2018-06-24T11:42:04Z</time>
				</trkpt>
				<trkpt lat="45.197860" lon="2.717330">
					<ele>985</ele>
					<time>2018-06-24T11:43:04Z</time>
				</trkpt>
				<trkpt lat="45.197740" lon="2.717400">
					<ele>987</ele>
					<time>2018-06-24T11:44:04Z</time>
				</trkpt>
				<trkpt lat="45.197640" lon="2.717420">
					<ele>987</ele>
					<time>2018-06-24T11:45:04Z</time>
				</trkpt>
				<trkpt lat="45.197510" lon="2.717420">
					<ele>987</ele>
					<time>2018-06-24T11:46:04Z</time>
				</trkpt>
				<trkpt lat="45.197420" lon="2.717370">
					<ele>987</ele>
					<time>2018-06-24T11:47:04Z</time>
				</trkpt>
				<trkpt lat="45.197280" lon="2.717280">
					<ele>985</ele>
					<time>2018-06-24T11:48:04Z</time>
				</trkpt>
				<trkpt lat="45.197160" lon="2.717220">
					<ele>985</ele>
					<time>2018-06-24T11:49:04Z</time>
				</trkpt>
				<trkpt lat="45.197060" lon="2.717190">
					<ele>985</ele>
					<time>2018-06-24T11:50:04Z</time>
				</trkpt>
				<trkpt lat="45.196790" lon="2.717170">
					<ele>986</ele>
					<time>2018-06-24T11:51:04Z</time>
				</trkpt>
				<trkpt lat="45.196760" lon="2.717170">
					<ele>986</ele>
					<time>2018-06-24T11:52:04Z</time>
				</trkpt>
				<trkpt lat="45.196490" lon="2.717150">
					<ele>988</ele>
					<time>2018-06-24T11:53:04Z</time>
				</trkpt>
				<trkpt lat="45.196280" lon="2.717110">
					<ele>988</ele>
					<time>2018-06-24T11:54:04Z</time>
				</trkpt>
				<trkpt lat="45.196160" lon="2.717070">
					<ele>988</ele>
					<time>2018-06-24T11:55:04Z</time>
				</trkpt>
				<trkpt lat="45.196070" lon="2.716990">
					<ele>988</ele>
					<time>2018-06-24T11:56:04Z</time>
				</trkpt>
				<trkpt lat="45.196010" lon="2.716880">
					<ele>986</ele>
					<time>2018-06-24T11:57:04Z</time>
				</trkpt>
				<trkpt lat="45.195930" lon="2.716760">
					<ele>984</ele>
					<time>2018-06-24T11:58:04Z</time>
				</trkpt>
				<trkpt lat="45.195840" lon="2.716700">
					<ele>984</ele>
					<time>2018-06-24T11:59:04Z</time>
				</trkpt>
				<trkpt lat="45.195770" lon="2.716680">
					<ele>984</ele>
					<time>2018-06-24T12:00:04Z</time>
				</trkpt>
				<trkpt lat="45.195600" lon="2.716670">
					<ele>986</ele>
					<time>2018-06-24T12:01:04Z</time>
				</trkpt>
				<trkpt lat="45.195450" lon="2.716640">
					<ele>987</ele>
					<time>2018-06-24T12:02:04Z</time>
				</trkpt>
				<trkpt lat="45.195200" lon="2.716550">
					<ele>989</ele>
					<time>2018-06-24T12:03:04Z</time>
				</trkpt>
				<trkpt lat="45.195010" lon="2.716460">
					<ele>990</ele>
					<time>2018-06-24T12:04:04Z</time>
				</trkpt>
				<trkpt lat="45.194880" lon="2.716360">
					<ele>989</ele>
					<time>2018-06-24T12:05:04Z</time>
				</trkpt>
				<trkpt lat="45.194710" lon="2.716240">
					<ele>989</ele>
					<time>2018-06-24T12:06:04Z</time>
				</trkpt>
				<trkpt lat="45.194550" lon="2.716150">
					<ele>988</ele>
					<time>2018-06-24T12:07:04Z</time>
				</trkpt>
				<trkpt lat="45.194370" lon="2.716090">
					<ele>988</ele>
					<time>2018-06-24T12:08:04Z</time>
				</trkpt>
				<trkpt lat="45.194020" lon="2.716000">
					<ele>988</ele>
					<time>2018-06-24T12:09:04Z</time>
				</trkpt>
				<trkpt lat="45.193750" lon="2.715920">
					<ele>987</ele>
					<time>2018-06-24T12:10:04Z</time>
				</trkpt>
				<trkpt lat="45.193550" lon="2.715870">
					<ele>986</ele>
					<time>2018-06-24T12:11:04Z</time>
				</trkpt>
				<trkpt lat="45.193360" lon="2.715870">
					<ele>986</ele>
					<time>2018-06-24T12:12:04Z</time>
				</trkpt>
				<trkpt lat="45.193150" lon="2.715880">
					<ele>985</ele>
					<time>2018-06-24T12:13:04Z</time>
				</trkpt>
				<trkpt lat="45.192910" lon="2.715890">
					<ele>985</ele>
					<time>2018-06-24T12:14:04Z</time>
				</trkpt>
				<trkpt lat="45.192750" lon="2.715890">
					<ele>984</ele>
					<time>2018-06-24T12:15:04Z</time>
				</trkpt>
				<trkpt lat="45.192580" lon="2.715900">
					<ele>984</ele>
					<time>2018-06-24T12:16:04Z</time>
				</trkpt>
				<trkpt lat="45.192380" lon="2.715950">
					<ele>985</ele>
					<time>2018-06-24T12:17:04Z</time>
				</trkpt>
				<trkpt lat="45.192220" lon="2.715960">
					<ele>985</ele>
					<time>2018-06-24T12:18:04Z</time>
				</trkpt>
				<trkpt lat="45.192110" lon="2.715960">
					<ele>986</ele>
					<time>2018-06-24T12:19:04Z</time>
				</trkpt>
				<trkpt lat="45.191980" lon="2.715910">
					<ele>985</ele>
					<time>2018-06-24T12:20:04Z</time>
				</trkpt>
				<trkpt lat="45.191750" lon="2.715800">
					<ele>983</ele>
					<time>2018-06-24T12:21:04Z</time>
				</trkpt>
				<trkpt lat="45.191470" lon="2.715710">
					<ele>984</ele>
					<time>2018-06-24T12:22:04Z</time>
				</trkpt>
				<trkpt lat="45.191300" lon="2.715690">
					<ele>985</ele>
					<time>2018-06-24T12:23:04Z</time>
				</trkpt>
				<trkpt lat="45.191130" lon="2.715700">
					<ele>987</ele>
					<time>2018-06-24T12:24:04Z</time>
				</trkpt>
				<trkpt lat="45.191010" lon="2.715710">
					<ele>988</ele>
					<time>2018-06-24T12:25:04Z</time>
				</trkpt>
				<trkpt lat="45.190890" lon="2.715690">
					<ele>988</ele>
					<time>2018-06-24T12:26:04Z</time>
				</trkpt>
				<trkpt lat="45.190780" lon="2.715630">
					<ele>988</ele>
					<time>2018-06-24T12:27:04Z</time>
				</trkpt>
				<trkpt lat="45.190630" lon="2.715520">
					<ele>986</ele>
					<time>2018-06-24T12:28:04Z</time>
				</trkpt>
				<trkpt lat="45.190440" lon="2.715390">
					<ele>984</ele>
					<time>2018-06-24T12:29:04Z</time>
				</trkpt>
				<trkpt lat="45.190220" lon="2.715300">
					<ele>983</ele>
					<time>2018-06-24T12:30:04Z</time>
				</trkpt>
				<trkpt lat="45.189800" lon="2.715190">
					<ele>981</ele>
					<time>2018-06-24T12:31:04Z</time>
				</trkpt>
				<trkpt lat="45.189730" lon="2.715180">
					<ele>981</ele>
					<time>2018-06-24T12:32:04Z</time>
				</trkpt>
				<trkpt lat="45.189440" lon="2.715130">
					<ele>980</ele>
					<time>2018-06-24T12:33:04Z</time>
				</trkpt>
				<trkpt lat="45.189150" lon="2.715120">
					<ele>980</ele>
					<time>2018-06-24T12:34:04Z</time>
				</trkpt>
				<trkpt lat="45.188740" lon="2.715150">
					<ele>979</ele>
					<time>2018-06-24T12:35:04Z</time>
				</trkpt>
				<trkpt lat="45.188480" lon="2.715170">
					<ele>978</ele>
					<time>2018-06-24T12:36:04Z</time>
				</trkpt>
				<trkpt lat="45.188250" lon="2.715190">
					<ele>978</ele>
					<time>2018-06-24T12:37:04Z</time>
				</trkpt>
				<trkpt lat="45.188100" lon="2.715220">
					<ele>978</ele>
					<time>2018-06-24T12:38:04Z</time>
				</trkpt>
				<trkpt lat="45.187990" lon="2.715270">
					<ele>977</ele>
					<time>2018-06-24T12:39:04Z</time>
				</trkpt>
				<trkpt lat="45.187990" lon="2.715270">
					<ele>977</ele>
					<time>2018-06-24T12:40:04Z</time>
				</trkpt>
				<trkpt lat="45.187970" lon="2.715140">
					<ele>977</ele>
					<time>2018-06-24T12:41:04Z</time>
				</trkpt>
				<trkpt lat="45.187870" lon="2.714840">
					<ele>975</ele>
					<time>2018-06-24T12:42:04Z</time>
				</trkpt>
				<trkpt lat="45.187710" lon="2.714390">
					<ele>973</ele>
					<time>2018-06-24T12:43:04Z</time>
				</trkpt>
				<trkpt lat="45.187590" lon="2.714090">
					<ele>973</ele>
					<time>2018-06-24T12:44:04Z</time>
				</trkpt>
				<trkpt lat="45.187530" lon="2.713900">
					<ele>972</ele>
					<time>2018-06-24T12:45:04Z</time>
				</trkpt>
				<trkpt lat="45.187510" lon="2.713720">
					<ele>972</ele>
					<time>2018-06-24T12:46:04Z</time>
				</trkpt>
				<trkpt lat="45.187510" lon="2.713520">
					<ele>971</ele>
					<time>2018-06-24T12:47:04Z</time>
				</trkpt>
				<trkpt lat="45.187530" lon="2.713390">
					<ele>971</ele>
					<time>2018-06-24T12:48:04Z</time>
				</trkpt>
				<trkpt lat="45.187610" lon="2.713150">
					<ele>970</ele>
					<time>2018-06-24T12:49:04Z</time>
				</trkpt>
				<trkpt lat="45.187720" lon="2.712840">
					<ele>969</ele>
					<time>2018-06-24T12:50:04Z</time>
				</trkpt>
				<trkpt lat="45.187780" lon="2.712620">
					<ele>968</ele>
					<time>2018-06-24T12:51:04Z</time>
				</trkpt>
				<trkpt lat="45.187790" lon="2.712550">
					<ele>968</ele>
					<time>2018-06-24T12:52:04Z</time>
				</trkpt>
				<trkpt lat="45.187810" lon="2.712460">
					<ele>968</ele>
					<time>2018-06-24T12:53:04Z</time>
				</trkpt>
				<trkpt lat="45.187850" lon="2.712150">
					<ele>967</ele>
					<time>2018-06-24T12:54:04Z</time>
				</trkpt>
				<trkpt lat="45.187870" lon="2.711960">
					<ele>967</ele>
					<time>2018-06-24T12:55:04Z</time>
				</trkpt>
				<trkpt lat="45.187920" lon="2.711730">
					<ele>966</ele>
					<time>2018-06-24T12:56:04Z</time>
				</trkpt>
				<trkpt lat="45.187950" lon="2.711650">
					<ele>966</ele>
					<time>2018-06-24T12:57:04Z</time>
				</trkpt>
				<trkpt lat="45.187970" lon="2.711560">
					<ele>966</ele>
					<time>2018-06-24T12:58:04Z</time>
				</trkpt>
				<trkpt lat="45.187990" lon="2.711480">
					<ele>966</ele>
					<time>2018-06-24T12:59:04Z</time>
				</trkpt>
				<trkpt lat="45.187990" lon="2.711370">
					<ele>965</ele>
					<time>2018-06-24T13:00:04Z</time>
				</trkpt>
				<trkpt lat="45.187990" lon="2.711200">
					<ele>965</ele>
					<time>2018-06-24T13:01:04Z</time>
				</trkpt>
				<trkpt lat="45.187980" lon="2.711080">
					<ele>964</ele>
					<time>2018-06-24T13:02:04Z</time>
				</trkpt>
				<trkpt lat="45.187970" lon="2.711040">
					<ele>964</ele>
					<time>2018-06-24T13:03:04Z</time>
				</trkpt>
				<trkpt lat="45.187960" lon="2.711010">
					<ele>964</ele>
					<time>2018-06-24T13:04:04Z</time>
				</trkpt>
				<trkpt lat="45.187950" lon="2.710970">
					<ele>964</ele>
					<time>2018-06-24T13:05:04Z</time>
				</trkpt>
				<trkpt lat="45.187930" lon="2.710900">
					<ele>964</ele>
					<time>2018-06-24T13:06:04Z</time>
				</trkpt>
				<trkpt lat="45.187900" lon="2.710830">
					<ele>964</ele>
					<time>2018-06-24T13:07:04Z</time>
				</trkpt>
				<trkpt lat="45.187890" lon="2.710780">
					<ele>963</ele>
					<time>2018-06-24T13:08:04Z</time>
				</trkpt>
				<trkpt lat="45.187880" lon="2.710760">
					<ele>963</ele>
					<time>2018-06-24T13:09:04Z</time>
				</trkpt>
				<trkpt lat="45.187870" lon="2.710710">
					<ele>963</ele>
					<time>2018-06-24T13:10:04Z</time>
				</trkpt>
				<trkpt lat="45.187860" lon="2.710650">
					<ele>963</ele>
					<time>2018-06-24T13:11:04Z</time>
				</trkpt>
				<trkpt lat="45.187860" lon="2.710570">
					<ele>963</ele>
					<time>2018-06-24T13:12:04Z</time>
				</trkpt>
				<trkpt lat="45.187860" lon="2.710510">
					<ele>963</ele>
					<time>2018-06-24T13:13:04Z</time>
				</trkpt>
				<trkpt lat="45.187870" lon="2.710470">
					<ele>963</ele>
					<time>2018-06-24T13:14:04Z</time>
				</trkpt>
				<trkpt lat="45.187900" lon="2.710390">
					<ele>963</ele>
					<time>2018-06-24T13:15:04Z</time>
				</trkpt>
				<trkpt lat="45.187930" lon="2.710340">
					<ele>963</ele>
					<time>2018-06-24T13:16:04Z</time>
				</trkpt>
				<trkpt lat="45.187990" lon="2.710260">
					<ele>963</ele>
					<time>2018-06-24T13:17:04Z</time>
				</trkpt>
				<trkpt lat="45.188020" lon="2.710220">
					<ele>962</ele>
					<time>2018-06-24T13:18:04Z</time>
				</trkpt>
				<trkpt lat="45.188200" lon="2.710030">
					<ele>962</ele>
					<time>2018-06-24T13:19:04Z</time>
				</trkpt>
				<trkpt lat="45.188290" lon="2.709920">
					<ele>961</ele>
					<time>2018-06-24T13:20:04Z</time>
				</trkpt>
				<trkpt lat="45.188340" lon="2.709850">
					<ele>961</ele>
					<time>2018-06-24T13:21:04Z</time>
				</trkpt>
				<trkpt lat="45.188350" lon="2.709820">
					<ele>961</ele>
					<time>2018-06-24T13:22:04Z</time>
				</trkpt>
				<trkpt lat="45.188360" lon="2.709800">
					<ele>960</ele>
					<time>2018-06-24T13:23:04Z</time>
				</trkpt>
				<trkpt lat="45.188370" lon="2.709750">
					<ele>960</ele>
					<time>2018-06-24T13:24:04Z</time>
				</trkpt>
				<trkpt lat="45.188370" lon="2.709700">
					<ele>960</ele>
					<time>2018-06-24T13:25:04Z</time>
				</trkpt>
				<trkpt lat="45.188380" lon="2.709430">
					<ele>960</ele>
					<time>2018-06-24T13:26:04Z</time>
				</trkpt>
				<trkpt lat="45.188400" lon="2.709140">
					<ele>960</ele>
					<time>2018-06-24T13:27:04Z</time>
				</trkpt>
				<trkpt lat="45.188390" lon="2.708980">
					<ele>960</ele>
					<time>2018-06-24T13:28:04Z</time>
				</trkpt>
				<trkpt lat="45.188360" lon="2.708840">
					<ele>961</ele>
					<time>2018-06-24T13:29:04Z</time>
				</trkpt>
				<trkpt lat="45.188300" lon="2.708640">
					<ele>961</ele>
					<time>2018-06-24T13:30:04Z</time>
				</trkpt>
				<trkpt lat="45.188260" lon="2.708430">
					<ele>961</ele>
					<time>2018-06-24T13:31:04Z</time>
				</trkpt>
				<trkpt lat="45.188220" lon="2.708170">
					<ele>962</ele>
					<time>2018-06-24T13:32:04Z</time>
				</trkpt>
				<trkpt lat="45.188220" lon="2.708110">
					<ele>962</ele>
					<time>2018-06-24T13:33:04Z</time>
				</trkpt>
				<trkpt lat="45.188220" lon="2.708010">
					<ele>963</ele>
					<time>2018-06-24T13:34:04Z</time>
				</trkpt>
				<trkpt lat="45.188230" lon="2.707950">
					<ele>963</ele>
					<time>2018-06-24T13:35:04Z</time>
				</trkpt>
				<trkpt lat="45.188240" lon="2.707900">
					<ele>963</ele>
					<time>2018-06-24T13:36:04Z</time>
				</trkpt>
				<trkpt lat="45.188290" lon="2.707820">
					<ele>964</ele>
					<time>2018-06-24T13:37:04Z</time>
				</trkpt>
				<trkpt lat="45.188360" lon="2.707770">
					<ele>964</ele>
					<time>2018-06-24T13:38:04Z</time>
				</trkpt>
				<trkpt lat="45.188430" lon="2.707750">
					<ele>963</ele>
					<time>2018-06-24T13:39:04Z</time>
				</trkpt>
				<trkpt lat="45.188490" lon="2.707710">
					<ele>964</ele>
					<time>2018-06-24T13:40:04Z</time>
				</trkpt>
				<trkpt lat="45.188540" lon="2.707630">
					<ele>964</ele>
					<time>2018-06-24T13:41:04Z</time>
				</trkpt>
				<trkpt lat="45.188580" lon="2.707520">
					<ele>964</ele>
					<time>2018-06-24T13:42:04Z</time>
				</trkpt>
				<trkpt lat="45.188610" lon="2.707440">
					<ele>965</ele>
					<time>2018-06-24T13:43:04Z</time>
				</trkpt>
				<trkpt lat="45.188650" lon="2.707310">
					<ele>965</ele>
					<time>2018-06-24T13:44:04Z</time>
				</trkpt>
				<trkpt lat="45.188700" lon="2.707080">
					<ele>967</ele>
					<time>2018-06-24T13:45:04Z</time>
				</trkpt>
				<trkpt lat="45.188730" lon="2.706990">
					<ele>967</ele>
					<time>2018-06-24T13:46:04Z</time>
				</trkpt>
				<trkpt lat="45.188750" lon="2.706960">
					<ele>967</ele>
					<time>2018-06-24T13:47:04Z</time>
				</trkpt>
				<trkpt lat="45.188780" lon="2.706900">
					<ele>968</ele>
					<time>2018-06-24T13:48:04Z</time>
				</trkpt>
				<trkpt lat="45.188890" lon="2.706780">
					<ele>968</ele>
					<time>2018-06-24T13:49:04Z</time>
				</trkpt>
				<trkpt lat="45.189010" lon="2.706650">
					<ele>969</ele>
					<time>2018-06-24T13:50:04Z</time>
				</trkpt>
				<trkpt lat="45.189070" lon="2.706560">
					<ele>969</ele>
					<time>2018-06-24T13:51:04Z</time>
				</trkpt>
				<trkpt lat="45.189100" lon="2.706470">
					<ele>969</ele>
					<time>2018-06-24T13:52:04Z</time>
				</trkpt>
				<trkpt lat="45.189120" lon="2.706320">
					<ele>969</ele>
					<time>2018-06-24T13:53:04Z</time>
				</trkpt>
				<trkpt lat="45.189150" lon="2.706120">
					<ele>970</ele>
					<time>2018-06-24T13:54:04Z</time>
				</trkpt>
				<trkpt lat="45.189180" lon="2.706020">
					<ele>970</ele>
					<time>2018-06-24T13:55:04Z</time>
				</trkpt>
				<trkpt lat="45.189230" lon="2.705910">
					<ele>969</ele>
					<time>2018-06-24T13:56:04Z</time>
				</trkpt>
				<trkpt lat="45.189340" lon="2.705790">
					<ele>968</ele>
					<time>2018-06-24T13:57:04Z</time>
				</trkpt>
				<trkpt lat="45.189460" lon="2.705670">
					<ele>967</ele>
					<time>2018-06-24T13:58:04Z</time>
				</trkpt>
				<trkpt lat="45.189510" lon="2.705580">
					<ele>966</ele>
					<time>2018-06-24T13:59:04Z</time>
				</trkpt>
				<trkpt lat="45.189530" lon="2.705510">
					<ele>966</ele>
					<time>2018-06-24T14:00:04Z</time>
				</trkpt>
				<trkpt lat="45.189530" lon="2.705400">
					<ele>965</ele>
					<time>2018-06-24T14:01:04Z</time>
				</trkpt>
				<trkpt lat="45.189510" lon="2.705310">
					<ele>965</ele>
					<time>2018-06-24T14:02:04Z</time>
				</trkpt>
				<trkpt lat="45.189460" lon="2.705170">
					<ele>965</ele>
					<time>2018-06-24T14:03:04Z</time>
				</trkpt>
				<trkpt lat="45.189440" lon="2.705070">
					<ele>965</ele>
					<time>2018-06-24T14:04:04Z</time>
				</trkpt>
				<trkpt lat="45.189440" lon="2.704980">
					<ele>965</ele>
					<time>2018-06-24T14:05:04Z</time>
				</trkpt>
				<trkpt lat="45.189470" lon="2.704890">
					<ele>965</ele>
					<time>2018-06-24T14:06:04Z</time>
				</trkpt>
				<trkpt lat="45.189510" lon="2.704840">
					<ele>965</ele>
					<time>2018-06-24T14:07:04Z</time>
				</trkpt>
				<trkpt lat="45.189590" lon="2.704820">
					<ele>965</ele>
					<time>2018-06-24T14:08:04Z</time>
				</trkpt>
				<trkpt lat="45.189660" lon="2.704840">
					<ele>965</ele>
					<time>2018-06-24T14:09:04Z</time>
				</trkpt>
				<trkpt lat="45.189760" lon="2.704850">
					<ele>964</ele>
					<time>2018-06-24T14:10:04Z</time>
				</trkpt>
				<trkpt lat="45.189890" lon="2.704850">
					<ele>964</ele>
					<time>2018-06-24T14:11:04Z</time>
				</trkpt>
				<trkpt lat="45.189960" lon="2.704830">
					<ele>964</ele>
					<time>2018-06-24T14:12:04Z</time>
				</trkpt>
				<trkpt lat="45.190040" lon="2.704790">
					<ele>965</ele>
					<time>2018-06-24T14:13:04Z</time>
				</trkpt>
				<trkpt lat="45.190040" lon="2.704790">
					<ele>965</ele>
					<time>2018-06-24T14:14:04Z</time>
				</trkpt>
				<trkpt lat="45.189920" lon="2.704700">
					<ele>966</ele>
					<time>2018-06-24T14:15:04Z</time>
				</trkpt>
				<trkpt lat="45.189830" lon="2.704610">
					<ele>967</ele>
					<time>2018-06-24T14:16:04Z</time>
				</trkpt>
				<trkpt lat="45.189760" lon="2.704480">
					<ele>968</ele>
					<time>2018-06-24T14:17:04Z</time>
				</trkpt>
				<trkpt lat="45.189690" lon="2.704270">
					<ele>969</ele>
					<time>2018-06-24T14:18:04Z</time>
				</trkpt>
				<trkpt lat="45.189600" lon="2.704060">
					<ele>970</ele>
					<time>2018-06-24T14:19:04Z</time>
				</trkpt>
				<trkpt lat="45.189500" lon="2.703900">
					<ele>971</ele>
					<time>2018-06-24T14:20:04Z</time>
				</trkpt>
				<trkpt lat="45.189380" lon="2.703760">
					<ele>971</ele>
					<time>2018-06-24T14:21:04Z</time>
				</trkpt>
				<trkpt lat="45.189260" lon="2.703640">
					<ele>970</ele>
					<time>2018-06-24T14:22:04Z</time>
				</trkpt>
				<trkpt lat="45.189000" lon="2.703400">
					<ele>970</ele>
					<time>2018-06-24T14:23:04Z</time>
				</trkpt>
				<trkpt lat="45.188710" lon="2.703100">
					<ele>971</ele>
					<time>2018-06-24T14:24:04Z</time>
				</trkpt>
				<trkpt lat="45.188480" lon="2.702880">
					<ele>971</ele>
					<time>2018-06-24T14:25:04Z</time>
				</trkpt>
				<trkpt lat="45.188180" lon="2.702590">
					<ele>970</ele>
					<time>2018-06-24T14:26:04Z</time>
				</trkpt>
				<trkpt lat="45.188080" lon="2.702500">
					<ele>970</ele>
					<time>2018-06-24T14:27:04Z</time>
				</trkpt>
				<trkpt lat="45.187920" lon="2.702390">
					<ele>971</ele>
					<time>2018-06-24T14:28:04Z</time>
				</trkpt>
				<trkpt lat="45.187630" lon="2.702210">
					<ele>971</ele>
					<time>2018-06-24T14:29:04Z</time>
				</trkpt>
				<trkpt lat="45.187520" lon="2.702110">
					<ele>971</ele>
					<time>2018-06-24T14:30:04Z</time>
				</trkpt>
				<trkpt lat="45.187350" lon="2.701950">
					<ele>972</ele>
					<time>2018-06-24T14:31:04Z</time>
				</trkpt>
				<trkpt lat="45.187230" lon="2.701840">
					<ele>972</ele>
					<time>2018-06-24T14:32:04Z</time>
				</trkpt>
				<trkpt lat="45.186990" lon="2.701650">
					<ele>972</ele>
					<time>2018-06-24T14:33:04Z</time>
				</trkpt>
				<trkpt lat="45.186820" lon="2.701550">
					<ele>973</ele>
					<time>2018-06-24T14:34:04Z</time>
				</trkpt>
				<trkpt lat="45.186640" lon="2.701470">
					<ele>973</ele>
					<time>2018-06-24T14:35:04Z</time>
				</trkpt>
				<trkpt lat="45.186390" lon="2.701380">
					<ele>973</ele>
					<time>2018-06-24T14:36:04Z</time>
				</trkpt>
				<trkpt lat="45.186200" lon="2.701300">
					<ele>974</ele>
					<time>2018-06-24T14:37:04Z</time>
				</trkpt>
				<trkpt lat="45.186120" lon="2.701240">
					<ele>974</ele>
					<time>2018-06-24T14:38:04Z</time>
				</trkpt>
				<trkpt lat="45.186050" lon="2.701170">
					<ele>974</ele>
					<time>2018-06-24T14:39:04Z</time>
				</trkpt>
				<trkpt lat="45.185970" lon="2.701040">
					<ele>975</ele>
					<time>2018-06-24T14:40:04Z</time>
				</trkpt>
				<trkpt lat="45.185830" lon="2.700830">
					<ele>975</ele>
					<time>2018-06-24T14:41:04Z</time>
				</trkpt>
				<trkpt lat="45.185700" lon="2.700670">
					<ele>977</ele>
					<time>2018-06-24T14:42:04Z</time>
				</trkpt>
				<trkpt lat="45.185570" lon="2.700540">
					<ele>978</ele>
					<time>2018-06-24T14:43:04Z</time>
				</trkpt>
				<trkpt lat="45.185380" lon="2.700400">
					<ele>978</ele>
					<time>2018-06-24T14:44:04Z</time>
				</trkpt>
				<trkpt lat="45.185020" lon="2.700170">
					<ele>979</ele>
					<time>2018-06-24T14:45:04Z</time>
				</trkpt>
				<trkpt lat="45.184690" lon="2.700000">
					<ele>980</ele>
					<time>2018-06-24T14:46:04Z</time>
				</trkpt>
				<trkpt lat="45.184510" lon="2.699880">
					<ele>981</ele>
					<time>2018-06-24T14:47:04Z</time>
				</trkpt>
				<trkpt lat="45.184460" lon="2.699830">
					<ele>981</ele>
					<time>2018-06-24T14:48:04Z</time>
				</trkpt>
				<trkpt lat="45.184390" lon="2.699780">
					<ele>981</ele>
					<time>2018-06-24T14:49:04Z</time>
				</trkpt>
				<trkpt lat="45.184290" lon="2.699670">
					<ele>982</ele>
					<time>2018-06-24T14:50:04Z</time>
				</trkpt>
				<trkpt lat="45.184160" lon="2.699500">
					<ele>983</ele>
					<time>2018-06-24T14:51:04Z</time>
				</trkpt>
				<trkpt lat="45.184050" lon="2.699320">
					<ele>983</ele>
					<time>2018-06-24T14:52:04Z</time>
				</trkpt>
				<trkpt lat="45.183980" lon="2.699200">
					<ele>984</ele>
					<time>2018-06-24T14:53:04Z</time>
				</trkpt>
				<trkpt lat="45.183800" lon="2.698920">
					<ele>984</ele>
					<time>2018-06-24T14:54:04Z</time>
				</trkpt>
				<trkpt lat="45.183630" lon="2.698650">
					<ele>983</ele>
					<time>2018-06-24T14:55:04Z</time>
				</trkpt>
				<trkpt lat="45.183550" lon="2.698550">
					<ele>983</ele>
					<time>2018-06-24T14:56:04Z</time>
				</trkpt>
				<trkpt lat="45.183520" lon="2.698520">
					<ele>983</ele>
					<time>2018-06-24T14:57:04Z</time>
				</trkpt>
				<trkpt lat="45.183430" lon="2.698630">
					<ele>982</ele>
					<time>2018-06-24T14:58:04Z</time>
				</trkpt>
				<trkpt lat="45.183380" lon="2.698680">
					<ele>981</ele>
					<time>2018-06-24T14:59:04Z</time>
				</trkpt>
				<trkpt lat="45.183350" lon="2.698720">
					<ele>981</ele>
					<time>2018-06-24T15:00:04Z</time>
				</trkpt>
				<trkpt lat="45.183290" lon="2.698780">
					<ele>980</ele>
					<time>2018-06-24T15:01:04Z</time>
				</trkpt>
				<trkpt lat="45.183200" lon="2.698830">
					<ele>980</ele>
					<time>2018-06-24T15:02:04Z</time>
				</trkpt>
				<trkpt lat="45.183050" lon="2.698910">
					<ele>981</ele>
					<time>2018-06-24T15:03:04Z</time>
				</trkpt>
				<trkpt lat="45.182760" lon="2.699020">
					<ele>981</ele>
					<time>2018-06-24T15:04:04Z</time>
				</trkpt>
				<trkpt lat="45.182250" lon="2.699230">
					<ele>982</ele>
					<time>2018-06-24T15:05:04Z</time>
				</trkpt>
				<trkpt lat="45.181700" lon="2.699450">
					<ele>985</ele>
					<time>2018-06-24T15:06:04Z</time>
				</trkpt>
				<trkpt lat="45.181090" lon="2.699680">
					<ele>987</ele>
					<time>2018-06-24T15:07:04Z</time>
				</trkpt>
				<trkpt lat="45.180840" lon="2.699780">
					<ele>988</ele>
					<time>2018-06-24T15:08:04Z</time>
				</trkpt>
				<trkpt lat="45.180720" lon="2.699850">
					<ele>988</ele>
					<time>2018-06-24T15:09:04Z</time>
				</trkpt>
				<trkpt lat="45.180630" lon="2.699920">
					<ele>988</ele>
					<time>2018-06-24T15:10:04Z</time>
				</trkpt>
				<trkpt lat="45.180580" lon="2.699960">
					<ele>989</ele>
					<time>2018-06-24T15:11:04Z</time>
				</trkpt>
				<trkpt lat="45.180500" lon="2.700080">
					<ele>989</ele>
					<time>2018-06-24T15:12:04Z</time>
				</trkpt>
				<trkpt lat="45.180430" lon="2.700260">
					<ele>989</ele>
					<time>2018-06-24T15:13:04Z</time>
				</trkpt>
				<trkpt lat="45.180350" lon="2.700450">
					<ele>990</ele>
					<time>2018-06-24T15:14:04Z</time>
				</trkpt>
				<trkpt lat="45.180280" lon="2.700540">
					<ele>990</ele>
					<time>2018-06-24T15:15:04Z</time>
				</trkpt>
				<trkpt lat="45.180200" lon="2.700580">
					<ele>990</ele>
					<time>2018-06-24T15:16:04Z</time>
				</trkpt>
				<trkpt lat="45.180140" lon="2.700580">
					<ele>990</ele>
					<time>2018-06-24T15:17:04Z</time>
				</trkpt>
				<trkpt lat="45.179990" lon="2.700550">
					<ele>989</ele>
					<time>2018-06-24T15:18:04Z</time>
				</trkpt>
				<trkpt lat="45.179760" lon="2.700500">
					<ele>990</ele>
					<time>2018-06-24T15:19:04Z</time>
				</trkpt>
				<trkpt lat="45.179590" lon="2.700480">
					<ele>991</ele>
					<time>2018-06-24T15:20:04Z</time>
				</trkpt>
				<trkpt lat="45.179370" lon="2.700480">
					<ele>992</ele>
					<time>2018-06-24T15:21:04Z</time>
				</trkpt>
				<trkpt lat="45.179330" lon="2.700480">
					<ele>992</ele>
					<time>2018-06-24T15:22:04Z</time>
				</trkpt>
				<trkpt lat="45.179190" lon="2.700470">
					<ele>993</ele>
					<time>2018-06-24T15:23:04Z</time>
				</trkpt>
				<trkpt lat="45.179100" lon="2.700450">
					<ele>993</ele>
					<time>2018-06-24T15:24:04Z</time>
				</trkpt>
				<trkpt lat="45.178960" lon="2.700390">
					<ele>993</ele>
					<time>2018-06-24T15:25:04Z</time>
				</trkpt>
				<trkpt lat="45.178760" lon="2.700270">
					<ele>993</ele>
					<time>2018-06-24T15:26:04Z</time>
				</trkpt>
				<trkpt lat="45.178640" lon="2.700200">
					<ele>993</ele>
					<time>2018-06-24T15:27:04Z</time>
				</trkpt>
				<trkpt lat="45.178550" lon="2.700180">
					<ele>994</ele>
					<time>2018-06-24T15:28:04Z</time>
				</trkpt>
				<trkpt lat="45.178230" lon="2.700130">
					<ele>994</ele>
					<time>2018-06-24T15:29:04Z</time>
				</trkpt>
				<trkpt lat="45.177970" lon="2.700110">
					<ele>994</ele>
					<time>2018-06-24T15:30:04Z</time>
				</trkpt>
				<trkpt lat="45.177670" lon="2.700100">
					<ele>993</ele>
					<time>2018-06-24T15:31:04Z</time>
				</trkpt>
				<trkpt lat="45.177550" lon="2.700100">
					<ele>993</ele>
					<time>2018-06-24T15:32:04Z</time>
				</trkpt>
				<trkpt lat="45.177390" lon="2.700120">
					<ele>993</ele>
					<time>2018-06-24T15:33:04Z</time>
				</trkpt>
				<trkpt lat="45.177330" lon="2.700120">
					<ele>993</ele>
					<time>2018-06-24T15:34:04Z</time>
				</trkpt>
				<trkpt lat="45.177240" lon="2.700130">
					<ele>993</ele>
					<time>2018-06-24T15:35:04Z</time>
				</trkpt>
				<trkpt lat="45.177160" lon="2.700120">
					<ele>993</ele>
					<time>2018-06-24T15:36:04Z</time>
				</trkpt>
				<trkpt lat="45.177090" lon="2.700110">
					<ele>993</ele>
					<time>2018-06-24T15:37:04Z</time>
				</trkpt>
				<trkpt lat="45.177020" lon="2.700100">
					<ele>993</ele>
					<time>2018-06-24T15:38:04Z</time>
				</trkpt>
				<trkpt lat="45.176910" lon="2.700060">
					<ele>992</ele>
					<time>2018-06-24T15:39:04Z</time>
				</trkpt>
				<trkpt lat="45.176850" lon="2.700040">
					<ele>992</ele>
					<time>2018-06-24T15:40:04Z</time>
				</trkpt>
				<trkpt lat="45.176780" lon="2.700030">
					<ele>992</ele>
					<time>2018-06-24T15:41:04Z</time>
				</trkpt>
				<trkpt lat="45.176730" lon="2.700010">
					<ele>992</ele>
					<time>2018-06-24T15:42:04Z</time>
				</trkpt>
				<trkpt lat="45.176670" lon="2.699990">
					<ele>992</ele>
					<time>2018-06-24T15:43:04Z</time>
				</trkpt>
				<trkpt lat="45.176530" lon="2.699920">
					<ele>992</ele>
					<time>2018-06-24T15:44:04Z</time>
				</trkpt>
				<trkpt lat="45.176380" lon="2.699840">
					<ele>993</ele>
					<time>2018-06-24T15:45:04Z</time>
				</trkpt>
				<trkpt lat="45.176290" lon="2.699750">
					<ele>993</ele>
					<time>2018-06-24T15:46:04Z</time>
				</trkpt>
				<trkpt lat="45.176180" lon="2.699590">
					<ele>992</ele>
					<time>2018-06-24T15:47:04Z</time>
				</trkpt>
				<trkpt lat="45.176110" lon="2.699460">
					<ele>992</ele>
					<time>2018-06-24T15:48:04Z</time>
				</trkpt>
				<trkpt lat="45.176020" lon="2.699320">
					<ele>992</ele>
					<time>2018-06-24T15:49:04Z</time>
				</trkpt>
				<trkpt lat="45.175910" lon="2.699190">
					<ele>992</ele>
					<time>2018-06-24T15:50:04Z</time>
				</trkpt>
				<trkpt lat="45.175780" lon="2.699080">
					<ele>991</ele>
					<time>2018-06-24T15:51:04Z</time>
				</trkpt>
				<trkpt lat="45.175640" lon="2.699000">
					<ele>991</ele>
					<time>2018-06-24T15:52:04Z</time>
				</trkpt>
				<trkpt lat="45.175440" lon="2.698890">
					<ele>991</ele>
					<time>2018-06-24T15:53:04Z</time>
				</trkpt>
				<trkpt lat="45.175170" lon="2.698770">
					<ele>990</ele>
					<time>2018-06-24T15:54:04Z</time>
				</trkpt>
				<trkpt lat="45.175080" lon="2.698710">
					<ele>990</ele>
					<time>2018-06-24T15:55:04Z</time>
				</trkpt>
				<trkpt lat="45.175030" lon="2.698680">
					<ele>990</ele>
					<time>2018-06-24T15:56:04Z</time>
				</trkpt>
				<trkpt lat="45.174820" lon="2.698510">
					<ele>990</ele>
					<time>2018-06-24T15:57:04Z</time>
				</trkpt>
				<trkpt lat="45.174700" lon="2.698410">
					<ele>991</ele>
					<time>2018-06-24T15:58:04Z</time>
				</trkpt>
				<trkpt lat="45.174580" lon="2.698310">
					<ele>991</ele>
					<time>2018-06-24T15:59:04Z</time>
				</trkpt>
				<trkpt lat="45.174450" lon="2.698200">
					<ele>991</ele>
					<time>2018-06-24T16:00:04Z</time>
				</trkpt>
				<trkpt lat="45.174170" lon="2.697960">
					<ele>992</ele>
					<time>2018-06-24T16:01:04Z</time>
				</trkpt>
				<trkpt lat="45.174000" lon="2.697820">
					<ele>992</ele>
					<time>2018-06-24T16:02:04Z</time>
				</trkpt>
				<trkpt lat="45.173880" lon="2.697760">
					<ele>992</ele>
					<time>2018-06-24T16:03:04Z</time>
				</trkpt>
				<trkpt lat="45.173760" lon="2.697720">
					<ele>992</ele>
					<time>2018-06-24T16:04:04Z</time>
				</trkpt>
				<trkpt lat="45.173560" lon="2.697670">
					<ele>993</ele>
					<time>2018-06-24T16:05:04Z</time>
				</trkpt>
				<trkpt lat="45.173130" lon="2.697610">
					<ele>993</ele>
					<time>2018-06-24T16:06:04Z</time>
				</trkpt>
				<trkpt lat="45.172740" lon="2.697560">
					<ele>992</ele>
					<time>2018-06-24T16:07:04Z</time>
				</trkpt>
				<trkpt lat="45.172540" lon="2.697530">
					<ele>992</ele>
					<time>2018-06-24T16:08:04Z</time>
				</trkpt>
				<trkpt lat="45.172100" lon="2.697470">
					<ele>992</ele>
					<time>2018-06-24T16:09:04Z</time>
				</trkpt>
				<trkpt lat="45.171860" lon="2.697440">
					<ele>993</ele>
					<time>2018-06-24T16:10:04Z</time>
				</trkpt>
				<trkpt lat="45.171350" lon="2.697370">
					<ele>993</ele>
					<time>2018-06-24T16:11:04Z</time>
				</trkpt>
				<trkpt lat="45.171240" lon="2.697350">
					<ele>993</ele>
					<time>2018-06-24T16:12:04Z</time>
				</trkpt>
				<trkpt lat="45.170850" lon="2.697300">
					<ele>994</ele>
					<time>2018-06-24T16:13:04Z</time>
				</trkpt>
				<trkpt lat="45.170540" lon="2.697260">
					<ele>995</ele>
					<time>2018-06-24T16:14:04Z</time>
				</trkpt>
				<trkpt lat="45.170220" lon="2.697200">
					<ele>996</ele>
					<time>2018-06-24T16:15:04Z</time>
				</trkpt>
				<trkpt lat="45.170000" lon="2.697150">
					<ele>996</ele>
					<time>2018-06-24T16:16:04Z</time>
				</trkpt>
				<trkpt lat="45.169840" lon="2.697090">
					<ele>996</ele>
					<time>2018-06-24T16:17:04Z</time>
				</trkpt>
				<trkpt lat="45.169780" lon="2.697060">
					<ele>997</ele>
					<time>2018-06-24T16:18:04Z</time>
				</trkpt>
				<trkpt lat="45.169670" lon="2.696990">
					<ele>997</ele>
					<time>2018-06-24T16:19:04Z</time>
				</trkpt>
				<trkpt lat="45.169440" lon="2.696850">
					<ele>997</ele>
					<time>2018-06-24T16:20:04Z</time>
				</trkpt>
				<trkpt lat="45.169370" lon="2.696810">
					<ele>997</ele>
					<time>2018-06-24T16:21:04Z</time>
				</trkpt>
				<trkpt lat="45.168850" lon="2.696500">
					<ele>999</ele>
					<time>2018-06-24T16:22:04Z</time>
				</trkpt>
				<trkpt lat="45.168240" lon="2.696140">
					<ele>1001</ele>
					<time>2018-06-24T16:23:04Z</time>
				</trkpt>
				<trkpt lat="45.167660" lon="2.695790">
					<ele>1003</ele>
					<time>2018-06-24T16:24:04Z</time>
				</trkpt>
				<trkpt lat="45.167100" lon="2.695460">
					<ele>1005</ele>
					<time>2018-06-24T16:25:04Z</time>
				</trkpt>
				<trkpt lat="45.166740" lon="2.695250">
					<ele>1006</ele>
					<time>2018-06-24T16:26:04Z</time>
				</trkpt>
				<trkpt lat="45.166450" lon="2.695090">
					<ele>1007</ele>
					<time>2018-06-24T16:27:04Z</time>
				</trkpt>
				<trkpt lat="45.166350" lon="2.695020">
					<ele>1008</ele>
					<time>2018-06-24T16:28:04Z</time>
				</trkpt>
				<trkpt lat="45.166300" lon="2.694960">
					<ele>1008</ele>
					<time>2018-06-24T16:29:04Z</time>
				</trkpt>
				<trkpt lat="45.166250" lon="2.694880">
					<ele>1009</ele>
					<time>2018-06-24T16:30:04Z</time>
				</trkpt>
				<trkpt lat="45.166210" lon="2.694750">
					<ele>1009</ele>
					<time>2018-06-24T16:31:04Z</time>
				</trkpt>
				<trkpt lat="45.166150" lon="2.694500">
					<ele>1010</ele>
					<time>2018-06-24T16:32:04Z</time>
				</trkpt>
				<trkpt lat="45.166100" lon="2.694220">
					<ele>1011</ele>
					<time>2018-06-24T16:33:04Z</time>
				</trkpt>
				<trkpt lat="45.166040" lon="2.693960">
					<ele>1011</ele>
					<time>2018-06-24T16:34:04Z</time>
				</trkpt>
				<trkpt lat="45.166000" lon="2.693860">
					<ele>1012</ele>
					<time>2018-06-24T16:35:04Z</time>
				</trkpt>
				<trkpt lat="45.165960" lon="2.693780">
					<ele>1012</ele>
					<time>2018-06-24T16:36:04Z</time>
				</trkpt>
				<trkpt lat="45.165900" lon="2.693720">
					<ele>1012</ele>
					<time>2018-06-24T16:37:04Z</time>
				</trkpt>
				<trkpt lat="45.165820" lon="2.693690">
					<ele>1012</ele>
					<time>2018-06-24T16:38:04Z</time>
				</trkpt>
				<trkpt lat="45.165640" lon="2.693650">
					<ele>1013</ele>
					<time>2018-06-24T16:39:04Z</time>
				</trkpt>
				<trkpt lat="45.165260" lon="2.693600">
					<ele>1015</ele>
					<time>2018-06-24T16:40:04Z</time>
				</trkpt>
				<trkpt lat="45.164910" lon="2.693520">
					<ele>1018</ele>
					<time>2018-06-24T16:41:04Z</time>
				</trkpt>
				<trkpt lat="45.164460" lon="2.693440">
					<ele>1021</ele>
					<time>2018-06-24T16:42:04Z</time>
				</trkpt>
				<trkpt lat="45.164170" lon="2.693390">
					<ele>1024</ele>
					<time>2018-06-24T16:43:04Z</time>
				</trkpt>
				<trkpt lat="45.164130" lon="2.693380">
					<ele>1024</ele>
					<time>2018-06-24T16:44:04Z</time>
				</trkpt>
				<trkpt lat="45.164040" lon="2.693370">
					<ele>1025</ele>
					<time>2018-06-24T16:45:04Z</time>
				</trkpt>
				<trkpt lat="45.163890" lon="2.693330">
					<ele>1025</ele>
					<time>2018-06-24T16:46:04Z</time>
				</trkpt>
				<trkpt lat="45.163690" lon="2.693300">
					<ele>1026</ele>
					<time>2018-06-24T16:47:04Z</time>
				</trkpt>
				<trkpt lat="45.163570" lon="2.693280">
					<ele>1027</ele>
					<time>2018-06-24T16:48:04Z</time>
				</trkpt>
				<trkpt lat="45.163480" lon="2.693290">
					<ele>1027</ele>
					<time>2018-06-24T16:49:04Z</time>
				</trkpt>
				<trkpt lat="45.163400" lon="2.693320">
					<ele>1028</ele>
					<time>2018-06-24T16:50:04Z</time>
				</trkpt>
				<trkpt lat="45.163300" lon="2.693400">
					<ele>1028</ele>
					<time>2018-06-24T16:51:04Z</time>
				</trkpt>
				<trkpt lat="45.163230" lon="2.693480">
					<ele>1029</ele>
					<time>2018-06-24T16:52:04Z</time>
				</trkpt>
				<trkpt lat="45.163160" lon="2.693590">
					<ele>1029</ele>
					<time>2018-06-24T16:53:04Z</time>
				</trkpt>
				<trkpt lat="45.163150" lon="2.693610">
					<ele>1029</ele>
					<time>2018-06-24T16:54:04Z</time>
				</trkpt>
				<trkpt lat="45.163110" lon="2.693710">
					<ele>1029</ele>
					<time>2018-06-24T16:55:04Z</time>
				</trkpt>
				<trkpt lat="45.163080" lon="2.693780">
					<ele>1030</ele>
					<time>2018-06-24T16:56:04Z</time>
				</trkpt>
				<trkpt lat="45.163030" lon="2.693990">
					<ele>1030</ele>
					<time>2018-06-24T16:57:04Z</time>
				</trkpt>
				<trkpt lat="45.162940" lon="2.694370">
					<ele>1031</ele>
					<time>2018-06-24T16:58:04Z</time>
				</trkpt>
				<trkpt lat="45.162870" lon="2.694760">
					<ele>1033</ele>
					<time>2018-06-24T16:59:04Z</time>
				</trkpt>
				<trkpt lat="45.162850" lon="2.694920">
					<ele>1034</ele>
					<time>2018-06-24T17:00:04Z</time>
				</trkpt>
				<trkpt lat="45.162860" lon="2.695070">
					<ele>1034</ele>
					<time>2018-06-24T17:01:04Z</time>
				</trkpt>
				<trkpt lat="45.162890" lon="2.695280">
					<ele>1036</ele>
					<time>2018-06-24T17:02:04Z</time>
				</trkpt>
				<trkpt lat="45.163040" lon="2.696080">
					<ele>1042</ele>
					<time>2018-06-24T17:03:04Z</time>
				</trkpt>
				<trkpt lat="45.163050" lon="2.696120">
					<ele>1042</ele>
					<time>2018-06-24T17:04:04Z</time>
				</trkpt>
				<trkpt lat="45.163090" lon="2.696370">
					<ele>1045</ele>
					<time>2018-06-24T17:05:04Z</time>
				</trkpt>
				<trkpt lat="45.163090" lon="2.696400">
					<ele>1045</ele>
					<time>2018-06-24T17:06:04Z</time>
				</trkpt>
				<trkpt lat="45.163140" lon="2.696660">
					<ele>1047</ele>
					<time>2018-06-24T17:07:04Z</time>
				</trkpt>
				<trkpt lat="45.163140" lon="2.696690">
					<ele>1048</ele>
					<time>2018-06-24T17:08:04Z</time>
				</trkpt>
				<trkpt lat="45.163170" lon="2.696930">
					<ele>1050</ele>
					<time>2018-06-24T17:09:04Z</time>
				</trkpt>
				<trkpt lat="45.163200" lon="2.697040">
					<ele>1051</ele>
					<time>2018-06-24T17:10:04Z</time>
				</trkpt>
				<trkpt lat="45.163270" lon="2.697150">
					<ele>1050</ele>
					<time>2018-06-24T17:11:04Z</time>
				</trkpt>
				<trkpt lat="45.163370" lon="2.697290">
					<ele>1049</ele>
					<time>2018-06-24T17:12:04Z</time>
				</trkpt>
				<trkpt lat="45.163550" lon="2.697510">
					<ele>1047</ele>
					<time>2018-06-24T17:13:04Z</time>
				</trkpt>
				<trkpt lat="45.163950" lon="2.697950">
					<ele>1049</ele>
					<time>2018-06-24T17:14:04Z</time>
				</trkpt>
				<trkpt lat="45.164300" lon="2.698370">
					<ele>1050</ele>
					<time>2018-06-24T17:15:04Z</time>
				</trkpt>
				<trkpt lat="45.164530" lon="2.698600">
					<ele>1056</ele>
					<time>2018-06-24T17:16:04Z</time>
				</trkpt>
				<trkpt lat="45.164660" lon="2.698710">
					<ele>1058</ele>
					<time>2018-06-24T17:17:04Z</time>
				</trkpt>
				<trkpt lat="45.164820" lon="2.698800">
					<ele>1059</ele>
					<time>2018-06-24T17:18:04Z</time>
				</trkpt>
				<trkpt lat="45.164880" lon="2.698820">
					<ele>1059</ele>
					<time>2018-06-24T17:19:04Z</time>
				</trkpt>
				<trkpt lat="45.165100" lon="2.698920">
					<ele>1059</ele>
					<time>2018-06-24T17:20:04Z</time>
				</trkpt>
				<trkpt lat="45.165440" lon="2.699060">
					<ele>1058</ele>
					<time>2018-06-24T17:21:04Z</time>
				</trkpt>
				<trkpt lat="45.165630" lon="2.699150">
					<ele>1058</ele>
					<time>2018-06-24T17:22:04Z</time>
				</trkpt>
				<trkpt lat="45.165850" lon="2.699270">
					<ele>1059</ele>
					<time>2018-06-24T17:23:04Z</time>
				</trkpt>
				<trkpt lat="45.166080" lon="2.699420">
					<ele>1064</ele>
					<time>2018-06-24T17:24:04Z</time>
				</trkpt>
				<trkpt lat="45.166370" lon="2.699590">
					<ele>1068</ele>
					<time>2018-06-24T17:25:04Z</time>
				</trkpt>
				<trkpt lat="45.166620" lon="2.699710">
					<ele>1071</ele>
					<time>2018-06-24T17:26:04Z</time>
				</trkpt>
				<trkpt lat="45.166830" lon="2.699790">
					<ele>1072</ele>
					<time>2018-06-24T17:27:04Z</time>
				</trkpt>
				<trkpt lat="45.167040" lon="2.699810">
					<ele>1071</ele>
					<time>2018-06-24T17:28:04Z</time>
				</trkpt>
				<trkpt lat="45.167250" lon="2.699820">
					<ele>1069</ele>
					<time>2018-06-24T17:29:04Z</time>
				</trkpt>
				<trkpt lat="45.167460" lon="2.699820">
					<ele>1067</ele>
					<time>2018-06-24T17:30:04Z</time>
				</trkpt>
				<trkpt lat="45.167620" lon="2.699850">
					<ele>1065</ele>
					<time>2018-06-24T17:31:04Z</time>
				</trkpt>
				<trkpt lat="45.167740" lon="2.699910">
					<ele>1065</ele>
					<time>2018-06-24T17:32:04Z</time>
				</trkpt>
				<trkpt lat="45.167830" lon="2.699980">
					<ele>1066</ele>
					<time>2018-06-24T17:33:04Z</time>
				</trkpt>
				<trkpt lat="45.167910" lon="2.700080">
					<ele>1067</ele>
					<time>2018-06-24T17:34:04Z</time>
				</trkpt>
				<trkpt lat="45.168110" lon="2.700390">
					<ele>1071</ele>
					<time>2018-06-24T17:35:04Z</time>
				</trkpt>
				<trkpt lat="45.168340" lon="2.700740">
					<ele>1075</ele>
					<time>2018-06-24T17:36:04Z</time>
				</trkpt>
				<trkpt lat="45.168450" lon="2.700930">
					<ele>1078</ele>
					<time>2018-06-24T17:37:04Z</time>
				</trkpt>
				<trkpt lat="45.168490" lon="2.701020">
					<ele>1080</ele>
					<time>2018-06-24T17:38:04Z</time>
				</trkpt>
				<trkpt lat="45.168530" lon="2.701120">
					<ele>1082</ele>
					<time>2018-06-24T17:39:04Z</time>
				</trkpt>
				<trkpt lat="45.168620" lon="2.701290">
					<ele>1086</ele>
					<time>2018-06-24T17:40:04Z</time>
				</trkpt>
				<trkpt lat="45.168740" lon="2.701430">
					<ele>1089</ele>
					<time>2018-06-24T17:41:04Z</time>
				</trkpt>
				<trkpt lat="45.168900" lon="2.701550">
					<ele>1091</ele>
					<time>2018-06-24T17:42:04Z</time>
				</trkpt>
				<trkpt lat="45.169110" lon="2.701640">
					<ele>1092</ele>
					<time>2018-06-24T17:43:04Z</time>
				</trkpt>
				<trkpt lat="45.169270" lon="2.701670">
					<ele>1094</ele>
					<time>2018-06-24T17:44:04Z</time>
				</trkpt>
				<trkpt lat="45.169370" lon="2.701660">
					<ele>1094</ele>
					<time>2018-06-24T17:45:04Z</time>
				</trkpt>
				<trkpt lat="45.169470" lon="2.701620">
					<ele>1093</ele>
					<time>2018-06-24T17:46:04Z</time>
				</trkpt>
				<trkpt lat="45.169640" lon="2.701530">
					<ele>1092</ele>
					<time>2018-06-24T17:47:04Z</time>
				</trkpt>
				<trkpt lat="45.169790" lon="2.701440">
					<ele>1090</ele>
					<time>2018-06-24T17:48:04Z</time>
				</trkpt>
				<trkpt lat="45.169880" lon="2.701410">
					<ele>1089</ele>
					<time>2018-06-24T17:49:04Z</time>
				</trkpt>
				<trkpt lat="45.169950" lon="2.701400">
					<ele>1089</ele>
					<time>2018-06-24T17:50:04Z</time>
				</trkpt>
				<trkpt lat="45.170020" lon="2.701420">
					<ele>1090</ele>
					<time>2018-06-24T17:51:04Z</time>
				</trkpt>
				<trkpt lat="45.170080" lon="2.701440">
					<ele>1090</ele>
					<time>2018-06-24T17:52:04Z</time>
				</trkpt>
				<trkpt lat="45.170170" lon="2.701490">
					<ele>1091</ele>
					<time>2018-06-24T17:53:04Z</time>
				</trkpt>
				<trkpt lat="45.170910" lon="2.701850">
					<ele>1096</ele>
					<time>2018-06-24T17:54:04Z</time>
				</trkpt>
				<trkpt lat="45.171060" lon="2.701930">
					<ele>1096</ele>
					<time>2018-06-24T17:55:04Z</time>
				</trkpt>
				<trkpt lat="45.171180" lon="2.702030">
					<ele>1097</ele>
					<time>2018-06-24T17:56:04Z</time>
				</trkpt>
				<trkpt lat="45.171260" lon="2.702120">
					<ele>1098</ele>
					<time>2018-06-24T17:57:04Z</time>
				</trkpt>
				<trkpt lat="45.171380" lon="2.702260">
					<ele>1099</ele>
					<time>2018-06-24T17:58:04Z</time>
				</trkpt>
				<trkpt lat="45.171580" lon="2.702540">
					<ele>1103</ele>
					<time>2018-06-24T17:59:04Z</time>
				</trkpt>
				<trkpt lat="45.171800" lon="2.702820">
					<ele>1106</ele>
					<time>2018-06-24T18:00:04Z</time>
				</trkpt>
				<trkpt lat="45.172080" lon="2.703190">
					<ele>1111</ele>
					<time>2018-06-24T18:01:04Z</time>
				</trkpt>
				<trkpt lat="45.172190" lon="2.703350">
					<ele>1112</ele>
					<time>2018-06-24T18:02:04Z</time>
				</trkpt>
				<trkpt lat="45.172230" lon="2.703470">
					<ele>1113</ele>
					<time>2018-06-24T18:03:04Z</time>
				</trkpt>
				<trkpt lat="45.172240" lon="2.703580">
					<ele>1113</ele>
					<time>2018-06-24T18:04:04Z</time>
				</trkpt>
				<trkpt lat="45.172250" lon="2.703730">
					<ele>1114</ele>
					<time>2018-06-24T18:05:04Z</time>
				</trkpt>
				<trkpt lat="45.172220" lon="2.704050">
					<ele>1117</ele>
					<time>2018-06-24T18:06:04Z</time>
				</trkpt>
				<trkpt lat="45.172180" lon="2.704410">
					<ele>1118</ele>
					<time>2018-06-24T18:07:04Z</time>
				</trkpt>
				<trkpt lat="45.172130" lon="2.705070">
					<ele>1119</ele>
					<time>2018-06-24T18:08:04Z</time>
				</trkpt>
				<trkpt lat="45.172090" lon="2.705590">
					<ele>1120</ele>
					<time>2018-06-24T18:09:04Z</time>
				</trkpt>
				<trkpt lat="45.172080" lon="2.705650">
					<ele>1120</ele>
					<time>2018-06-24T18:10:04Z</time>
				</trkpt>
				<trkpt lat="45.172070" lon="2.705830">
					<ele>1120</ele>
					<time>2018-06-24T18:11:04Z</time>
				</trkpt>
				<trkpt lat="45.172060" lon="2.705980">
					<ele>1119</ele>
					<time>2018-06-24T18:12:04Z</time>
				</trkpt>
				<trkpt lat="45.172020" lon="2.706230">
					<ele>1117</ele>
					<time>2018-06-24T18:13:04Z</time>
				</trkpt>
				<trkpt lat="45.172000" lon="2.706400">
					<ele>1116</ele>
					<time>2018-06-24T18:14:04Z</time>
				</trkpt>
				<trkpt lat="45.171970" lon="2.706530">
					<ele>1115</ele>
					<time>2018-06-24T18:15:04Z</time>
				</trkpt>
				<trkpt lat="45.171930" lon="2.706620">
					<ele>1114</ele>
					<time>2018-06-24T18:16:04Z</time>
				</trkpt>
				<trkpt lat="45.171870" lon="2.706690">
					<ele>1113</ele>
					<time>2018-06-24T18:17:04Z</time>
				</trkpt>
				<trkpt lat="45.171780" lon="2.706750">
					<ele>1111</ele>
					<time>2018-06-24T18:18:04Z</time>
				</trkpt>
				<trkpt lat="45.171680" lon="2.706770">
					<ele>1111</ele>
					<time>2018-06-24T18:19:04Z</time>
				</trkpt>
				<trkpt lat="45.171520" lon="2.706770">
					<ele>1109</ele>
					<time>2018-06-24T18:20:04Z</time>
				</trkpt>
				<trkpt lat="45.171350" lon="2.706750">
					<ele>1108</ele>
					<time>2018-06-24T18:21:04Z</time>
				</trkpt>
				<trkpt lat="45.171190" lon="2.706700">
					<ele>1108</ele>
					<time>2018-06-24T18:22:04Z</time>
				</trkpt>
				<trkpt lat="45.171060" lon="2.706650">
					<ele>1108</ele>
					<time>2018-06-24T18:23:04Z</time>
				</trkpt>
				<trkpt lat="45.170910" lon="2.706570">
					<ele>1108</ele>
					<time>2018-06-24T18:24:04Z</time>
				</trkpt>
				<trkpt lat="45.170800" lon="2.706510">
					<ele>1108</ele>
					<time>2018-06-24T18:25:04Z</time>
				</trkpt>
				<trkpt lat="45.170680" lon="2.706500">
					<ele>1108</ele>
					<time>2018-06-24T18:26:04Z</time>
				</trkpt>
				<trkpt lat="45.170600" lon="2.706510">
					<ele>1107</ele>
					<time>2018-06-24T18:27:04Z</time>
				</trkpt>
				<trkpt lat="45.170520" lon="2.706540">
					<ele>1106</ele>
					<time>2018-06-24T18:28:04Z</time>
				</trkpt>
				<trkpt lat="45.170420" lon="2.706620">
					<ele>1104</ele>
					<time>2018-06-24T18:29:04Z</time>
				</trkpt>
				<trkpt lat="45.170280" lon="2.706730">
					<ele>1101</ele>
					<time>2018-06-24T18:30:04Z</time>
				</trkpt>
				<trkpt lat="45.170220" lon="2.706780">
					<ele>1099</ele>
					<time>2018-06-24T18:31:04Z</time>
				</trkpt>
				<trkpt lat="45.170150" lon="2.706810">
					<ele>1098</ele>
					<time>2018-06-24T18:32:04Z</time>
				</trkpt>
				<trkpt lat="45.170100" lon="2.706800">
					<ele>1098</ele>
					<time>2018-06-24T18:33:04Z</time>
				</trkpt>
				<trkpt lat="45.169990" lon="2.706760">
					<ele>1098</ele>
					<time>2018-06-24T18:34:04Z</time>
				</trkpt>
				<trkpt lat="45.169870" lon="2.706690">
					<ele>1099</ele>
					<time>2018-06-24T18:35:04Z</time>
				</trkpt>
				<trkpt lat="45.169700" lon="2.706590">
					<ele>1100</ele>
					<time>2018-06-24T18:36:04Z</time>
				</trkpt>
				<trkpt lat="45.169560" lon="2.706530">
					<ele>1100</ele>
					<time>2018-06-24T18:37:04Z</time>
				</trkpt>
				<trkpt lat="45.169490" lon="2.706510">
					<ele>1100</ele>
					<time>2018-06-24T18:38:04Z</time>
				</trkpt>
				<trkpt lat="45.169380" lon="2.706470">
					<ele>1100</ele>
					<time>2018-06-24T18:39:04Z</time>
				</trkpt>
				<trkpt lat="45.169260" lon="2.706450">
					<ele>1100</ele>
					<time>2018-06-24T18:40:04Z</time>
				</trkpt>
				<trkpt lat="45.169180" lon="2.706460">
					<ele>1099</ele>
					<time>2018-06-24T18:41:04Z</time>
				</trkpt>
				<trkpt lat="45.169110" lon="2.706500">
					<ele>1098</ele>
					<time>2018-06-24T18:42:04Z</time>
				</trkpt>
				<trkpt lat="45.169040" lon="2.706560">
					<ele>1095</ele>
					<time>2018-06-24T18:43:04Z</time>
				</trkpt>
				<trkpt lat="45.168960" lon="2.706650">
					<ele>1092</ele>
					<time>2018-06-24T18:44:04Z</time>
				</trkpt>
				<trkpt lat="45.168910" lon="2.706710">
					<ele>1090</ele>
					<time>2018-06-24T18:45:04Z</time>
				</trkpt>
				<trkpt lat="45.168860" lon="2.706730">
					<ele>1089</ele>
					<time>2018-06-24T18:46:04Z</time>
				</trkpt>
				<trkpt lat="45.168800" lon="2.706740">
					<ele>1088</ele>
					<time>2018-06-24T18:47:04Z</time>
				</trkpt>
				<trkpt lat="45.168690" lon="2.706710">
					<ele>1088</ele>
					<time>2018-06-24T18:48:04Z</time>
				</trkpt>
				<trkpt lat="45.168460" lon="2.706620">
					<ele>1088</ele>
					<time>2018-06-24T18:49:04Z</time>
				</trkpt>
				<trkpt lat="45.168330" lon="2.706550">
					<ele>1089</ele>
					<time>2018-06-24T18:50:04Z</time>
				</trkpt>
				<trkpt lat="45.168200" lon="2.706450">
					<ele>1089</ele>
					<time>2018-06-24T18:51:04Z</time>
				</trkpt>
				<trkpt lat="45.168070" lon="2.706380">
					<ele>1088</ele>
					<time>2018-06-24T18:52:04Z</time>
				</trkpt>
				<trkpt lat="45.167890" lon="2.706300">
					<ele>1086</ele>
					<time>2018-06-24T18:53:04Z</time>
				</trkpt>
				<trkpt lat="45.167720" lon="2.706240">
					<ele>1084</ele>
					<time>2018-06-24T18:54:04Z</time>
				</trkpt>
				<trkpt lat="45.167600" lon="2.706180">
					<ele>1083</ele>
					<time>2018-06-24T18:55:04Z</time>
				</trkpt>
				<trkpt lat="45.167510" lon="2.706110">
					<ele>1082</ele>
					<time>2018-06-24T18:56:04Z</time>
				</trkpt>
				<trkpt lat="45.167400" lon="2.705990">
					<ele>1083</ele>
					<time>2018-06-24T18:57:04Z</time>
				</trkpt>
				<trkpt lat="45.167290" lon="2.705870">
					<ele>1084</ele>
					<time>2018-06-24T18:58:04Z</time>
				</trkpt>
				<trkpt lat="45.167190" lon="2.705800">
					<ele>1085</ele>
					<time>2018-06-24T18:59:04Z</time>
				</trkpt>
				<trkpt lat="45.167090" lon="2.705770">
					<ele>1085</ele>
					<time>2018-06-24T19:00:04Z</time>
				</trkpt>
				<trkpt lat="45.167020" lon="2.705780">
					<ele>1084</ele>
					<time>2018-06-24T19:01:04Z</time>
				</trkpt>
				<trkpt lat="45.166940" lon="2.705820">
					<ele>1082</ele>
					<time>2018-06-24T19:02:04Z</time>
				</trkpt>
				<trkpt lat="45.166860" lon="2.705920">
					<ele>1079</ele>
					<time>2018-06-24T19:03:04Z</time>
				</trkpt>
				<trkpt lat="45.166770" lon="2.706080">
					<ele>1075</ele>
					<time>2018-06-24T19:04:04Z</time>
				</trkpt>
				<trkpt lat="45.166690" lon="2.706170">
					<ele>1072</ele>
					<time>2018-06-24T19:05:04Z</time>
				</trkpt>
				<trkpt lat="45.166600" lon="2.706220">
					<ele>1069</ele>
					<time>2018-06-24T19:06:04Z</time>
				</trkpt>
				<trkpt lat="45.166480" lon="2.706230">
					<ele>1068</ele>
					<time>2018-06-24T19:07:04Z</time>
				</trkpt>
				<trkpt lat="45.166320" lon="2.706190">
					<ele>1067</ele>
					<time>2018-06-24T19:08:04Z</time>
				</trkpt>
				<trkpt lat="45.166150" lon="2.706120">
					<ele>1067</ele>
					<time>2018-06-24T19:09:04Z</time>
				</trkpt>
				<trkpt lat="45.165970" lon="2.705990">
					<ele>1067</ele>
					<time>2018-06-24T19:10:04Z</time>
				</trkpt>
				<trkpt lat="45.165800" lon="2.705830">
					<ele>1069</ele>
					<time>2018-06-24T19:11:04Z</time>
				</trkpt>
				<trkpt lat="45.165670" lon="2.705730">
					<ele>1069</ele>
					<time>2018-06-24T19:12:04Z</time>
				</trkpt>
				<trkpt lat="45.165550" lon="2.705670">
					<ele>1069</ele>
					<time>2018-06-24T19:13:04Z</time>
				</trkpt>
				<trkpt lat="45.165400" lon="2.705620">
					<ele>1068</ele>
					<time>2018-06-24T19:14:04Z</time>
				</trkpt>
				<trkpt lat="45.165250" lon="2.705590">
					<ele>1067</ele>
					<time>2018-06-24T19:15:04Z</time>
				</trkpt>
				<trkpt lat="45.165120" lon="2.705590">
					<ele>1065</ele>
					<time>2018-06-24T19:16:04Z</time>
				</trkpt>
				<trkpt lat="45.164980" lon="2.705590">
					<ele>1064</ele>
					<time>2018-06-24T19:17:04Z</time>
				</trkpt>
				<trkpt lat="45.164750" lon="2.705600">
					<ele>1062</ele>
					<time>2018-06-24T19:18:04Z</time>
				</trkpt>
				<trkpt lat="45.164500" lon="2.705640">
					<ele>1058</ele>
					<time>2018-06-24T19:19:04Z</time>
				</trkpt>
				<trkpt lat="45.164310" lon="2.705660">
					<ele>1056</ele>
					<time>2018-06-24T19:20:04Z</time>
				</trkpt>
				<trkpt lat="45.164110" lon="2.705660">
					<ele>1055</ele>
					<time>2018-06-24T19:21:04Z</time>
				</trkpt>
				<trkpt lat="45.163880" lon="2.705650">
					<ele>1053</ele>
					<time>2018-06-24T19:22:04Z</time>
				</trkpt>
				<trkpt lat="45.163560" lon="2.705620">
					<ele>1052</ele>
					<time>2018-06-24T19:23:04Z</time>
				</trkpt>
				<trkpt lat="45.163370" lon="2.705600">
					<ele>1051</ele>
					<time>2018-06-24T19:24:04Z</time>
				</trkpt>
				<trkpt lat="45.163120" lon="2.705620">
					<ele>1048</ele>
					<time>2018-06-24T19:25:04Z</time>
				</trkpt>
				<trkpt lat="45.162880" lon="2.705630">
					<ele>1046</ele>
					<time>2018-06-24T19:26:04Z</time>
				</trkpt>
				<trkpt lat="45.162720" lon="2.705640">
					<ele>1044</ele>
					<time>2018-06-24T19:27:04Z</time>
				</trkpt>
				<trkpt lat="45.162640" lon="2.705660">
					<ele>1043</ele>
					<time>2018-06-24T19:28:04Z</time>
				</trkpt>
				<trkpt lat="45.162590" lon="2.705700">
					<ele>1042</ele>
					<time>2018-06-24T19:29:04Z</time>
				</trkpt>
				<trkpt lat="45.162530" lon="2.705760">
					<ele>1040</ele>
					<time>2018-06-24T19:30:04Z</time>
				</trkpt>
				<trkpt lat="45.162480" lon="2.705870">
					<ele>1039</ele>
					<time>2018-06-24T19:31:04Z</time>
				</trkpt>
				<trkpt lat="45.162450" lon="2.705930">
					<ele>1038</ele>
					<time>2018-06-24T19:32:04Z</time>
				</trkpt>
				<trkpt lat="45.162450" lon="2.705960">
					<ele>1038</ele>
					<time>2018-06-24T19:33:04Z</time>
				</trkpt>
				<trkpt lat="45.162440" lon="2.706050">
					<ele>1038</ele>
					<time>2018-06-24T19:34:04Z</time>
				</trkpt>
				<trkpt lat="45.162440" lon="2.706180">
					<ele>1037</ele>
					<time>2018-06-24T19:35:04Z</time>
				</trkpt>
				<trkpt lat="45.162450" lon="2.706280">
					<ele>1036</ele>
					<time>2018-06-24T19:36:04Z</time>
				</trkpt>
				<trkpt lat="45.162460" lon="2.706410">
					<ele>1036</ele>
					<time>2018-06-24T19:37:04Z</time>
				</trkpt>
				<trkpt lat="45.162480" lon="2.706540">
					<ele>1035</ele>
					<time>2018-06-24T19:38:04Z</time>
				</trkpt>
				<trkpt lat="45.162480" lon="2.706660">
					<ele>1034</ele>
					<time>2018-06-24T19:39:04Z</time>
				</trkpt>
				<trkpt lat="45.162470" lon="2.706790">
					<ele>1034</ele>
					<time>2018-06-24T19:40:04Z</time>
				</trkpt>
				<trkpt lat="45.162460" lon="2.706910">
					<ele>1033</ele>
					<time>2018-06-24T19:41:04Z</time>
				</trkpt>
				<trkpt lat="45.162430" lon="2.707090">
					<ele>1033</ele>
					<time>2018-06-24T19:42:04Z</time>
				</trkpt>
				<trkpt lat="45.162410" lon="2.707220">
					<ele>1033</ele>
					<time>2018-06-24T19:43:04Z</time>
				</trkpt>
				<trkpt lat="45.162410" lon="2.707220">
					<ele>1033</ele>
					<time>2018-06-24T19:44:04Z</time>
				</trkpt>
				<trkpt lat="45.162150" lon="2.707070">
					<ele>1033</ele>
					<time>2018-06-24T19:45:04Z</time>
				</trkpt>
				<trkpt lat="45.162060" lon="2.707020">
					<ele>1034</ele>
					<time>2018-06-24T19:46:04Z</time>
				</trkpt>
				<trkpt lat="45.161940" lon="2.706990">
					<ele>1034</ele>
					<time>2018-06-24T19:47:04Z</time>
				</trkpt>
				<trkpt lat="45.161800" lon="2.707000">
					<ele>1034</ele>
					<time>2018-06-24T19:48:04Z</time>
				</trkpt>
				<trkpt lat="45.161440" lon="2.707080">
					<ele>1034</ele>
					<time>2018-06-24T19:49:04Z</time>
				</trkpt>
				<trkpt lat="45.161050" lon="2.707150">
					<ele>1034</ele>
					<time>2018-06-24T19:50:04Z</time>
				</trkpt>
				<trkpt lat="45.160930" lon="2.707140">
					<ele>1034</ele>
					<time>2018-06-24T19:51:04Z</time>
				</trkpt>
				<trkpt lat="45.160810" lon="2.707070">
					<ele>1035</ele>
					<time>2018-06-24T19:52:04Z</time>
				</trkpt>
				<trkpt lat="45.160720" lon="2.706980">
					<ele>1036</ele>
					<time>2018-06-24T19:53:04Z</time>
				</trkpt>
				<trkpt lat="45.160650" lon="2.706870">
					<ele>1037</ele>
					<time>2018-06-24T19:54:04Z</time>
				</trkpt>
				<trkpt lat="45.160600" lon="2.706750">
					<ele>1038</ele>
					<time>2018-06-24T19:55:04Z</time>
				</trkpt>
				<trkpt lat="45.160550" lon="2.706630">
					<ele>1038</ele>
					<time>2018-06-24T19:56:04Z</time>
				</trkpt>
				<trkpt lat="45.160490" lon="2.706430">
					<ele>1038</ele>
					<time>2018-06-24T19:57:04Z</time>
				</trkpt>
				<trkpt lat="45.160470" lon="2.706400">
					<ele>1038</ele>
					<time>2018-06-24T19:58:04Z</time>
				</trkpt>
				<trkpt lat="45.160410" lon="2.706280">
					<ele>1038</ele>
					<time>2018-06-24T19:59:04Z</time>
				</trkpt>
				<trkpt lat="45.160330" lon="2.706210">
					<ele>1038</ele>
					<time>2018-06-24T20:00:04Z</time>
				</trkpt>
				<trkpt lat="45.160240" lon="2.706160">
					<ele>1038</ele>
					<time>2018-06-24T20:01:04Z</time>
				</trkpt>
				<trkpt lat="45.160010" lon="2.706090">
					<ele>1038</ele>
					<time>2018-06-24T20:02:04Z</time>
				</trkpt>
				<trkpt lat="45.159550" lon="2.705970">
					<ele>1038</ele>
					<time>2018-06-24T20:03:04Z</time>
				</trkpt>
				<trkpt lat="45.159160" lon="2.705860">
					<ele>1038</ele>
					<time>2018-06-24T20:04:04Z</time>
				</trkpt>
				<trkpt lat="45.158970" lon="2.705800">
					<ele>1038</ele>
					<time>2018-06-24T20:05:04Z</time>
				</trkpt>
				<trkpt lat="45.158840" lon="2.705740">
					<ele>1039</ele>
					<time>2018-06-24T20:06:04Z</time>
				</trkpt>
				<trkpt lat="45.158580" lon="2.705620">
					<ele>1039</ele>
					<time>2018-06-24T20:07:04Z</time>
				</trkpt>
				<trkpt lat="45.158350" lon="2.705520">
					<ele>1039</ele>
					<time>2018-06-24T20:08:04Z</time>
				</trkpt>
				<trkpt lat="45.158200" lon="2.705430">
					<ele>1039</ele>
					<time>2018-06-24T20:09:04Z</time>
				</trkpt>
				<trkpt lat="45.157930" lon="2.705200">
					<ele>1038</ele>
					<time>2018-06-24T20:10:04Z</time>
				</trkpt>
				<trkpt lat="45.157860" lon="2.705130">
					<ele>1038</ele>
					<time>2018-06-24T20:11:04Z</time>
				</trkpt>
				<trkpt lat="45.157670" lon="2.704940">
					<ele>1037</ele>
					<time>2018-06-24T20:12:04Z</time>
				</trkpt>
				<trkpt lat="45.157540" lon="2.704760">
					<ele>1036</ele>
					<time>2018-06-24T20:13:04Z</time>
				</trkpt>
				<trkpt lat="45.157490" lon="2.704660">
					<ele>1036</ele>
					<time>2018-06-24T20:14:04Z</time>
				</trkpt>
				<trkpt lat="45.157430" lon="2.704420">
					<ele>1037</ele>
					<time>2018-06-24T20:15:04Z</time>
				</trkpt>
				<trkpt lat="45.157330" lon="2.703990">
					<ele>1038</ele>
					<time>2018-06-24T20:16:04Z</time>
				</trkpt>
				<trkpt lat="45.157250" lon="2.703640">
					<ele>1039</ele>
					<time>2018-06-24T20:17:04Z</time>
				</trkpt>
				<trkpt lat="45.157210" lon="2.703520">
					<ele>1039</ele>
					<time>2018-06-24T20:18:04Z</time>
				</trkpt>
				<trkpt lat="45.157180" lon="2.703450">
					<ele>1040</ele>
					<time>2018-06-24T20:19:04Z</time>
				</trkpt>
				<trkpt lat="45.157130" lon="2.703340">
					<ele>1040</ele>
					<time>2018-06-24T20:20:04Z</time>
				</trkpt>
				<trkpt lat="45.157050" lon="2.703250">
					<ele>1040</ele>
					<time>2018-06-24T20:21:04Z</time>
				</trkpt>
				<trkpt lat="45.156960" lon="2.703180">
					<ele>1040</ele>
					<time>2018-06-24T20:22:04Z</time>
				</trkpt>
				<trkpt lat="45.156690" lon="2.703040">
					<ele>1039</ele>
					<time>2018-06-24T20:23:04Z</time>
				</trkpt>
				<trkpt lat="45.156300" lon="2.702850">
					<ele>1039</ele>
					<time>2018-06-24T20:24:04Z</time>
				</trkpt>
				<trkpt lat="45.156000" lon="2.702690">
					<ele>1040</ele>
					<time>2018-06-24T20:25:04Z</time>
				</trkpt>
				<trkpt lat="45.155850" lon="2.702630">
					<ele>1040</ele>
					<time>2018-06-24T20:26:04Z</time>
				</trkpt>
				<trkpt lat="45.155740" lon="2.702600">
					<ele>1040</ele>
					<time>2018-06-24T20:27:04Z</time>
				</trkpt>
				<trkpt lat="45.155650" lon="2.702600">
					<ele>1040</ele>
					<time>2018-06-24T20:28:04Z</time>
				</trkpt>
				<trkpt lat="45.155450" lon="2.702630">
					<ele>1040</ele>
					<time>2018-06-24T20:29:04Z</time>
				</trkpt>
				<trkpt lat="45.155230" lon="2.702670">
					<ele>1039</ele>
					<time>2018-06-24T20:30:04Z</time>
				</trkpt>
				<trkpt lat="45.155100" lon="2.702700">
					<ele>1039</ele>
					<time>2018-06-24T20:31:04Z</time>
				</trkpt>
				<trkpt lat="45.155030" lon="2.702700">
					<ele>1039</ele>
					<time>2018-06-24T20:32:04Z</time>
				</trkpt>
				<trkpt lat="45.154940" lon="2.702680">
					<ele>1039</ele>
					<time>2018-06-24T20:33:04Z</time>
				</trkpt>
				<trkpt lat="45.154880" lon="2.702660">
					<ele>1039</ele>
					<time>2018-06-24T20:34:04Z</time>
				</trkpt>
				<trkpt lat="45.154750" lon="2.702570">
					<ele>1039</ele>
					<time>2018-06-24T20:35:04Z</time>
				</trkpt>
				<trkpt lat="45.154620" lon="2.702470">
					<ele>1040</ele>
					<time>2018-06-24T20:36:04Z</time>
				</trkpt>
				<trkpt lat="45.154470" lon="2.702400">
					<ele>1040</ele>
					<time>2018-06-24T20:37:04Z</time>
				</trkpt>
				<trkpt lat="45.154310" lon="2.702340">
					<ele>1041</ele>
					<time>2018-06-24T20:38:04Z</time>
				</trkpt>
				<trkpt lat="45.154110" lon="2.702300">
					<ele>1041</ele>
					<time>2018-06-24T20:39:04Z</time>
				</trkpt>
				<trkpt lat="45.153880" lon="2.702280">
					<ele>1040</ele>
					<time>2018-06-24T20:40:04Z</time>
				</trkpt>
				<trkpt lat="45.153710" lon="2.702240">
					<ele>1040</ele>
					<time>2018-06-24T20:41:04Z</time>
				</trkpt>
				<trkpt lat="45.153600" lon="2.702190">
					<ele>1041</ele>
					<time>2018-06-24T20:42:04Z</time>
				</trkpt>
				<trkpt lat="45.153500" lon="2.702140">
					<ele>1041</ele>
					<time>2018-06-24T20:43:04Z</time>
				</trkpt>
				<trkpt lat="45.153370" lon="2.702040">
					<ele>1041</ele>
					<time>2018-06-24T20:44:04Z</time>
				</trkpt>
				<trkpt lat="45.153160" lon="2.701860">
					<ele>1041</ele>
					<time>2018-06-24T20:45:04Z</time>
				</trkpt>
				<trkpt lat="45.152890" lon="2.701610">
					<ele>1042</ele>
					<time>2018-06-24T20:46:04Z</time>
				</trkpt>
				<trkpt lat="45.152680" lon="2.701440">
					<ele>1043</ele>
					<time>2018-06-24T20:47:04Z</time>
				</trkpt>
				<trkpt lat="45.152530" lon="2.701340">
					<ele>1043</ele>
					<time>2018-06-24T20:48:04Z</time>
				</trkpt>
				<trkpt lat="45.152340" lon="2.701230">
					<ele>1043</ele>
					<time>2018-06-24T20:49:04Z</time>
				</trkpt>
				<trkpt lat="45.152110" lon="2.701070">
					<ele>1044</ele>
					<time>2018-06-24T20:50:04Z</time>
				</trkpt>
				<trkpt lat="45.151930" lon="2.700930">
					<ele>1044</ele>
					<time>2018-06-24T20:51:04Z</time>
				</trkpt>
				<trkpt lat="45.151750" lon="2.700770">
					<ele>1044</ele>
					<time>2018-06-24T20:52:04Z</time>
				</trkpt>
				<trkpt lat="45.151490" lon="2.700520">
					<ele>1045</ele>
					<time>2018-06-24T20:53:04Z</time>
				</trkpt>
				<trkpt lat="45.151260" lon="2.700320">
					<ele>1047</ele>
					<time>2018-06-24T20:54:04Z</time>
				</trkpt>
				<trkpt lat="45.151070" lon="2.700170">
					<ele>1047</ele>
					<time>2018-06-24T20:55:04Z</time>
				</trkpt>
				<trkpt lat="45.150920" lon="2.700090">
					<ele>1047</ele>
					<time>2018-06-24T20:56:04Z</time>
				</trkpt>
				<trkpt lat="45.150630" lon="2.699960">
					<ele>1049</ele>
					<time>2018-06-24T20:57:04Z</time>
				</trkpt>
				<trkpt lat="45.150150" lon="2.699760">
					<ele>1051</ele>
					<time>2018-06-24T20:58:04Z</time>
				</trkpt>
				<trkpt lat="45.149810" lon="2.699610">
					<ele>1051</ele>
					<time>2018-06-24T20:59:04Z</time>
				</trkpt>
				<trkpt lat="45.149650" lon="2.699540">
					<ele>1051</ele>
					<time>2018-06-24T21:00:04Z</time>
				</trkpt>
				<trkpt lat="45.149510" lon="2.699450">
					<ele>1050</ele>
					<time>2018-06-24T21:01:04Z</time>
				</trkpt>
				<trkpt lat="45.149390" lon="2.699340">
					<ele>1050</ele>
					<time>2018-06-24T21:02:04Z</time>
				</trkpt>
				<trkpt lat="45.149180" lon="2.699110">
					<ele>1050</ele>
					<time>2018-06-24T21:03:04Z</time>
				</trkpt>
				<trkpt lat="45.148980" lon="2.698910">
					<ele>1052</ele>
					<time>2018-06-24T21:04:04Z</time>
				</trkpt>
				<trkpt lat="45.148820" lon="2.698780">
					<ele>1053</ele>
					<time>2018-06-24T21:05:04Z</time>
				</trkpt>
				<trkpt lat="45.148660" lon="2.698700">
					<ele>1053</ele>
					<time>2018-06-24T21:06:04Z</time>
				</trkpt>
				<trkpt lat="45.148440" lon="2.698620">
					<ele>1051</ele>
					<time>2018-06-24T21:07:04Z</time>
				</trkpt>
				<trkpt lat="45.148220" lon="2.698530">
					<ele>1050</ele>
					<time>2018-06-24T21:08:04Z</time>
				</trkpt>
				<trkpt lat="45.148060" lon="2.698440">
					<ele>1050</ele>
					<time>2018-06-24T21:09:04Z</time>
				</trkpt>
				<trkpt lat="45.147930" lon="2.698340">
					<ele>1049</ele>
					<time>2018-06-24T21:10:04Z</time>
				</trkpt>
				<trkpt lat="45.147710" lon="2.698190">
					<ele>1049</ele>
					<time>2018-06-24T21:11:04Z</time>
				</trkpt>
				<trkpt lat="45.147610" lon="2.698140">
					<ele>1048</ele>
					<time>2018-06-24T21:12:04Z</time>
				</trkpt>
				<trkpt lat="45.147500" lon="2.698120">
					<ele>1047</ele>
					<time>2018-06-24T21:13:04Z</time>
				</trkpt>
				<trkpt lat="45.147430" lon="2.698120">
					<ele>1046</ele>
					<time>2018-06-24T21:14:04Z</time>
				</trkpt>
				<trkpt lat="45.147390" lon="2.698130">
					<ele>1046</ele>
					<time>2018-06-24T21:15:04Z</time>
				</trkpt>
				<trkpt lat="45.147330" lon="2.698150">
					<ele>1046</ele>
					<time>2018-06-24T21:16:04Z</time>
				</trkpt>
				<trkpt lat="45.147260" lon="2.698180">
					<ele>1045</ele>
					<time>2018-06-24T21:17:04Z</time>
				</trkpt>
				<trkpt lat="45.147130" lon="2.698260">
					<ele>1043</ele>
					<time>2018-06-24T21:18:04Z</time>
				</trkpt>
				<trkpt lat="45.146970" lon="2.698340">
					<ele>1042</ele>
					<time>2018-06-24T21:19:04Z</time>
				</trkpt>
				<trkpt lat="45.146940" lon="2.698360">
					<ele>1042</ele>
					<time>2018-06-24T21:20:04Z</time>
				</trkpt>
				<trkpt lat="45.146750" lon="2.698450">
					<ele>1041</ele>
					<time>2018-06-24T21:21:04Z</time>
				</trkpt>
				<trkpt lat="45.146620" lon="2.698490">
					<ele>1041</ele>
					<time>2018-06-24T21:22:04Z</time>
				</trkpt>
				<trkpt lat="45.146520" lon="2.698500">
					<ele>1041</ele>
					<time>2018-06-24T21:23:04Z</time>
				</trkpt>
				<trkpt lat="45.146450" lon="2.698500">
					<ele>1041</ele>
					<time>2018-06-24T21:24:04Z</time>
				</trkpt>
				<trkpt lat="45.146320" lon="2.698510">
					<ele>1041</ele>
					<time>2018-06-24T21:25:04Z</time>
				</trkpt>
				<trkpt lat="45.146160" lon="2.698510">
					<ele>1041</ele>
					<time>2018-06-24T21:26:04Z</time>
				</trkpt>
				<trkpt lat="45.146010" lon="2.698510">
					<ele>1041</ele>
					<time>2018-06-24T21:27:04Z</time>
				</trkpt>
				<trkpt lat="45.145550" lon="2.698540">
					<ele>1042</ele>
					<time>2018-06-24T21:28:04Z</time>
				</trkpt>
				<trkpt lat="45.144960" lon="2.698570">
					<ele>1043</ele>
					<time>2018-06-24T21:29:04Z</time>
				</trkpt>
				<trkpt lat="45.144660" lon="2.698580">
					<ele>1042</ele>
					<time>2018-06-24T21:30:04Z</time>
				</trkpt>
				<trkpt lat="45.144550" lon="2.698580">
					<ele>1042</ele>
					<time>2018-06-24T21:31:04Z</time>
				</trkpt>
				<trkpt lat="45.144430" lon="2.698570">
					<ele>1042</ele>
					<time>2018-06-24T21:32:04Z</time>
				</trkpt>
				<trkpt lat="45.144280" lon="2.698560">
					<ele>1042</ele>
					<time>2018-06-24T21:33:04Z</time>
				</trkpt>
				<trkpt lat="45.144130" lon="2.698530">
					<ele>1042</ele>
					<time>2018-06-24T21:34:04Z</time>
				</trkpt>
				<trkpt lat="45.144030" lon="2.698490">
					<ele>1042</ele>
					<time>2018-06-24T21:35:04Z</time>
				</trkpt>
				<trkpt lat="45.143970" lon="2.698460">
					<ele>1042</ele>
					<time>2018-06-24T21:36:04Z</time>
				</trkpt>
				<trkpt lat="45.143890" lon="2.698430">
					<ele>1042</ele>
					<time>2018-06-24T21:37:04Z</time>
				</trkpt>
				<trkpt lat="45.143830" lon="2.698410">
					<ele>1042</ele>
					<time>2018-06-24T21:38:04Z</time>
				</trkpt>
				<trkpt lat="45.143390" lon="2.698230">
					<ele>1044</ele>
					<time>2018-06-24T21:39:04Z</time>
				</trkpt>
				<trkpt lat="45.142980" lon="2.698070">
					<ele>1044</ele>
					<time>2018-06-24T21:40:04Z</time>
				</trkpt>
				<trkpt lat="45.142800" lon="2.697970">
					<ele>1044</ele>
					<time>2018-06-24T21:41:04Z</time>
				</trkpt>
				<trkpt lat="45.142660" lon="2.697880">
					<ele>1044</ele>
					<time>2018-06-24T21:42:04Z</time>
				</trkpt>
				<trkpt lat="45.142330" lon="2.697570">
					<ele>1045</ele>
					<time>2018-06-24T21:43:04Z</time>
				</trkpt>
				<trkpt lat="45.141980" lon="2.697270">
					<ele>1046</ele>
					<time>2018-06-24T21:44:04Z</time>
				</trkpt>
				<trkpt lat="45.141540" lon="2.696880">
					<ele>1047</ele>
					<time>2018-06-24T21:45:04Z</time>
				</trkpt>
				<trkpt lat="45.141420" lon="2.696780">
					<ele>1047</ele>
					<time>2018-06-24T21:46:04Z</time>
				</trkpt>
				<trkpt lat="45.141380" lon="2.696740">
					<ele>1047</ele>
					<time>2018-06-24T21:47:04Z</time>
				</trkpt>
				<trkpt lat="45.141310" lon="2.696690">
					<ele>1047</ele>
					<time>2018-06-24T21:48:04Z</time>
				</trkpt>
				<trkpt lat="45.141270" lon="2.696680">
					<ele>1047</ele>
					<time>2018-06-24T21:49:04Z</time>
				</trkpt>
				<trkpt lat="45.141230" lon="2.696680">
					<ele>1048</ele>
					<time>2018-06-24T21:50:04Z</time>
				</trkpt>
				<trkpt lat="45.140980" lon="2.696740">
					<ele>1048</ele>
					<time>2018-06-24T21:51:04Z</time>
				</trkpt>
				<trkpt lat="45.138640" lon="2.697310">
					<ele>1062</ele>
					<time>2018-06-24T21:52:04Z</time>
				</trkpt>
				<trkpt lat="45.138350" lon="2.697390">
					<ele>1064</ele>
					<time>2018-06-24T21:53:04Z</time>
				</trkpt>
				<trkpt lat="45.138230" lon="2.697420">
					<ele>1066</ele>
					<time>2018-06-24T21:54:04Z</time>
				</trkpt>
				<trkpt lat="45.138160" lon="2.697460">
					<ele>1067</ele>
					<time>2018-06-24T21:55:04Z</time>
				</trkpt>
				<trkpt lat="45.138080" lon="2.697550">
					<ele>1068</ele>
					<time>2018-06-24T21:56:04Z</time>
				</trkpt>
				<trkpt lat="45.137990" lon="2.697710">
					<ele>1069</ele>
					<time>2018-06-24T21:57:04Z</time>
				</trkpt>
				<trkpt lat="45.137860" lon="2.698100">
					<ele>1072</ele>
					<time>2018-06-24T21:58:04Z</time>
				</trkpt>
				<trkpt lat="45.137760" lon="2.698420">
					<ele>1075</ele>
					<time>2018-06-24T21:59:04Z</time>
				</trkpt>
				<trkpt lat="45.137710" lon="2.698550">
					<ele>1077</ele>
					<time>2018-06-24T22:00:04Z</time>
				</trkpt>
				<trkpt lat="45.137660" lon="2.698620">
					<ele>1078</ele>
					<time>2018-06-24T22:01:04Z</time>
				</trkpt>
				<trkpt lat="45.137630" lon="2.698640">
					<ele>1078</ele>
					<time>2018-06-24T22:02:04Z</time>
				</trkpt>
				<trkpt lat="45.137560" lon="2.698660">
					<ele>1079</ele>
					<time>2018-06-24T22:03:04Z</time>
				</trkpt>
				<trkpt lat="45.137440" lon="2.698630">
					<ele>1080</ele>
					<time>2018-06-24T22:04:04Z</time>
				</trkpt>
				<trkpt lat="45.137350" lon="2.698560">
					<ele>1081</ele>
					<time>2018-06-24T22:05:04Z</time>
				</trkpt>
				<trkpt lat="45.137240" lon="2.698370">
					<ele>1080</ele>
					<time>2018-06-24T22:06:04Z</time>
				</trkpt>
				<trkpt lat="45.137220" lon="2.698350">
					<ele>1080</ele>
					<time>2018-06-24T22:07:04Z</time>
				</trkpt>
				<trkpt lat="45.137070" lon="2.698010">
					<ele>1081</ele>
					<time>2018-06-24T22:08:04Z</time>
				</trkpt>
				<trkpt lat="45.137000" lon="2.697920">
					<ele>1082</ele>
					<time>2018-06-24T22:09:04Z</time>
				</trkpt>
				<trkpt lat="45.136910" lon="2.697850">
					<ele>1083</ele>
					<time>2018-06-24T22:10:04Z</time>
				</trkpt>
				<trkpt lat="45.136780" lon="2.697810">
					<ele>1084</ele>
					<time>2018-06-24T22:11:04Z</time>
				</trkpt>
				<trkpt lat="45.136480" lon="2.697760">
					<ele>1087</ele>
					<time>2018-06-24T22:12:04Z</time>
				</trkpt>
				<trkpt lat="45.136290" lon="2.697740">
					<ele>1089</ele>
					<time>2018-06-24T22:13:04Z</time>
				</trkpt>
				<trkpt lat="45.136210" lon="2.697700">
					<ele>1089</ele>
					<time>2018-06-24T22:14:04Z</time>
				</trkpt>
				<trkpt lat="45.136120" lon="2.697650">
					<ele>1090</ele>
					<time>2018-06-24T22:15:04Z</time>
				</trkpt>
				<trkpt lat="45.136020" lon="2.697600">
					<ele>1090</ele>
					<time>2018-06-24T22:16:04Z</time>
				</trkpt>
				<trkpt lat="45.135690" lon="2.697450">
					<ele>1092</ele>
					<time>2018-06-24T22:17:04Z</time>
				</trkpt>
				<trkpt lat="45.135450" lon="2.697290">
					<ele>1093</ele>
					<time>2018-06-24T22:18:04Z</time>
				</trkpt>
				<trkpt lat="45.135350" lon="2.697280">
					<ele>1094</ele>
					<time>2018-06-24T22:19:04Z</time>
				</trkpt>
				<trkpt lat="45.135300" lon="2.697290">
					<ele>1094</ele>
					<time>2018-06-24T22:20:04Z</time>
				</trkpt>
				<trkpt lat="45.135270" lon="2.697340">
					<ele>1095</ele>
					<time>2018-06-24T22:21:04Z</time>
				</trkpt>
				<trkpt lat="45.135230" lon="2.697430">
					<ele>1096</ele>
					<time>2018-06-24T22:22:04Z</time>
				</trkpt>
				<trkpt lat="45.135210" lon="2.697490">
					<ele>1096</ele>
					<time>2018-06-24T22:23:04Z</time>
				</trkpt>
				<trkpt lat="45.135200" lon="2.697760">
					<ele>1098</ele>
					<time>2018-06-24T22:24:04Z</time>
				</trkpt>
				<trkpt lat="45.135160" lon="2.698650">
					<ele>1105</ele>
					<time>2018-06-24T22:25:04Z</time>
				</trkpt>
				<trkpt lat="45.135130" lon="2.699010">
					<ele>1108</ele>
					<time>2018-06-24T22:26:04Z</time>
				</trkpt>
				<trkpt lat="45.135110" lon="2.699100">
					<ele>1109</ele>
					<time>2018-06-24T22:27:04Z</time>
				</trkpt>
				<trkpt lat="45.135060" lon="2.699220">
					<ele>1111</ele>
					<time>2018-06-24T22:28:04Z</time>
				</trkpt>
				<trkpt lat="45.135020" lon="2.699390">
					<ele>1114</ele>
					<time>2018-06-24T22:29:04Z</time>
				</trkpt>
				<trkpt lat="45.135010" lon="2.699520">
					<ele>1116</ele>
					<time>2018-06-24T22:30:04Z</time>
				</trkpt>
				<trkpt lat="45.135020" lon="2.699640">
					<ele>1117</ele>
					<time>2018-06-24T22:31:04Z</time>
				</trkpt>
				<trkpt lat="45.135070" lon="2.699780">
					<ele>1119</ele>
					<time>2018-06-24T22:32:04Z</time>
				</trkpt>
				<trkpt lat="45.135190" lon="2.700070">
					<ele>1121</ele>
					<time>2018-06-24T22:33:04Z</time>
				</trkpt>
				<trkpt lat="45.135200" lon="2.700180">
					<ele>1123</ele>
					<time>2018-06-24T22:34:04Z</time>
				</trkpt>
				<trkpt lat="45.135200" lon="2.700230">
					<ele>1124</ele>
					<time>2018-06-24T22:35:04Z</time>
				</trkpt>
				<trkpt lat="45.135170" lon="2.700270">
					<ele>1125</ele>
					<time>2018-06-24T22:36:04Z</time>
				</trkpt>
				<trkpt lat="45.135120" lon="2.700280">
					<ele>1127</ele>
					<time>2018-06-24T22:37:04Z</time>
				</trkpt>
				<trkpt lat="45.135080" lon="2.700260">
					<ele>1127</ele>
					<time>2018-06-24T22:38:04Z</time>
				</trkpt>
				<trkpt lat="45.135060" lon="2.700220">
					<ele>1127</ele>
					<time>2018-06-24T22:39:04Z</time>
				</trkpt>
				<trkpt lat="45.135010" lon="2.700160">
					<ele>1126</ele>
					<time>2018-06-24T22:40:04Z</time>
				</trkpt>
				<trkpt lat="45.134830" lon="2.699890">
					<ele>1128</ele>
					<time>2018-06-24T22:41:04Z</time>
				</trkpt>
				<trkpt lat="45.134390" lon="2.699170">
					<ele>1129</ele>
					<time>2018-06-24T22:42:04Z</time>
				</trkpt>
				<trkpt lat="45.134150" lon="2.698810">
					<ele>1130</ele>
					<time>2018-06-24T22:43:04Z</time>
				</trkpt>
				<trkpt lat="45.134080" lon="2.698730">
					<ele>1130</ele>
					<time>2018-06-24T22:44:04Z</time>
				</trkpt>
				<trkpt lat="45.134010" lon="2.698680">
					<ele>1130</ele>
					<time>2018-06-24T22:45:04Z</time>
				</trkpt>
				<trkpt lat="45.133890" lon="2.698650">
					<ele>1132</ele>
					<time>2018-06-24T22:46:04Z</time>
				</trkpt>
				<trkpt lat="45.133390" lon="2.698530">
					<ele>1139</ele>
					<time>2018-06-24T22:47:04Z</time>
				</trkpt>
				<trkpt lat="45.133120" lon="2.698490">
					<ele>1145</ele>
					<time>2018-06-24T22:48:04Z</time>
				</trkpt>
				<trkpt lat="45.132980" lon="2.698470">
					<ele>1148</ele>
					<time>2018-06-24T22:49:04Z</time>
				</trkpt>
				<trkpt lat="45.132850" lon="2.698440">
					<ele>1151</ele>
					<time>2018-06-24T22:50:04Z</time>
				</trkpt>
				<trkpt lat="45.132640" lon="2.698360">
					<ele>1154</ele>
					<time>2018-06-24T22:51:04Z</time>
				</trkpt>
				<trkpt lat="45.132430" lon="2.698270">
					<ele>1159</ele>
					<time>2018-06-24T22:52:04Z</time>
				</trkpt>
				<trkpt lat="45.132250" lon="2.698160">
					<ele>1163</ele>
					<time>2018-06-24T22:53:04Z</time>
				</trkpt>
				<trkpt lat="45.132050" lon="2.698010">
					<ele>1167</ele>
					<time>2018-06-24T22:54:04Z</time>
				</trkpt>
				<trkpt lat="45.131800" lon="2.697760">
					<ele>1169</ele>
					<time>2018-06-24T22:55:04Z</time>
				</trkpt>
				<trkpt lat="45.131650" lon="2.697560">
					<ele>1168</ele>
					<time>2018-06-24T22:56:04Z</time>
				</trkpt>
				<trkpt lat="45.131590" lon="2.697500">
					<ele>1169</ele>
					<time>2018-06-24T22:57:04Z</time>
				</trkpt>
				<trkpt lat="45.131550" lon="2.697500">
					<ele>1170</ele>
					<time>2018-06-24T22:58:04Z</time>
				</trkpt>
				<trkpt lat="45.131540" lon="2.697530">
					<ele>1171</ele>
					<time>2018-06-24T22:59:04Z</time>
				</trkpt>
				<trkpt lat="45.131540" lon="2.697530">
					<ele>1171</ele>
					<time>2018-06-24T23:00:04Z</time>
				</trkpt>
				<trkpt lat="45.131530" lon="2.697620">
					<ele>1174</ele>
					<time>2018-06-24T23:01:04Z</time>
				</trkpt>
				<trkpt lat="45.131540" lon="2.697730">
					<ele>1177</ele>
					<time>2018-06-24T23:02:04Z</time>
				</trkpt>
				<trkpt lat="45.131720" lon="2.698260">
					<ele>1186</ele>
					<time>2018-06-24T23:03:04Z</time>
				</trkpt>
				<trkpt lat="45.131910" lon="2.698640">
					<ele>1189</ele>
					<time>2018-06-24T23:04:04Z</time>
				</trkpt>
				<trkpt lat="45.132180" lon="2.698850">
					<ele>1183</ele>
					<time>2018-06-24T23:05:04Z</time>
				</trkpt>
				<trkpt lat="45.132290" lon="2.698960">
					<ele>1181</ele>
					<time>2018-06-24T23:06:04Z</time>
				</trkpt>
				<trkpt lat="45.132310" lon="2.699000">
					<ele>1182</ele>
					<time>2018-06-24T23:07:04Z</time>
				</trkpt>
				<trkpt lat="45.132330" lon="2.699110">
					<ele>1184</ele>
					<time>2018-06-24T23:08:04Z</time>
				</trkpt>
				<trkpt lat="45.132330" lon="2.699470">
					<ele>1192</ele>
					<time>2018-06-24T23:09:04Z</time>
				</trkpt>
				<trkpt lat="45.132350" lon="2.699660">
					<ele>1195</ele>
					<time>2018-06-24T23:10:04Z</time>
				</trkpt>
				<trkpt lat="45.132400" lon="2.699820">
					<ele>1197</ele>
					<time>2018-06-24T23:11:04Z</time>
				</trkpt>
				<trkpt lat="45.132460" lon="2.699910">
					<ele>1197</ele>
					<time>2018-06-24T23:12:04Z</time>
				</trkpt>
				<trkpt lat="45.132830" lon="2.700290">
					<ele>1195</ele>
					<time>2018-06-24T23:13:04Z</time>
				</trkpt>
				<trkpt lat="45.133160" lon="2.700730">
					<ele>1198</ele>
					<time>2018-06-24T23:14:04Z</time>
				</trkpt>
				<trkpt lat="45.133270" lon="2.700920">
					<ele>1199</ele>
					<time>2018-06-24T23:15:04Z</time>
				</trkpt>
				<trkpt lat="45.133330" lon="2.701040">
					<ele>1199</ele>
					<time>2018-06-24T23:16:04Z</time>
				</trkpt>
				<trkpt lat="45.133350" lon="2.701180">
					<ele>1201</ele>
					<time>2018-06-24T23:17:04Z</time>
				</trkpt>
				<trkpt lat="45.133340" lon="2.701320">
					<ele>1203</ele>
					<time>2018-06-24T23:18:04Z</time>
				</trkpt>
				<trkpt lat="45.133320" lon="2.701370">
					<ele>1205</ele>
					<time>2018-06-24T23:19:04Z</time>
				</trkpt>
				<trkpt lat="45.133220" lon="2.701610">
					<ele>1211</ele>
					<time>2018-06-24T23:20:04Z</time>
				</trkpt>
				<trkpt lat="45.133190" lon="2.701720">
					<ele>1214</ele>
					<time>2018-06-24T23:21:04Z</time>
				</trkpt>
				<trkpt lat="45.133190" lon="2.701790">
					<ele>1215</ele>
					<time>2018-06-24T23:22:04Z</time>
				</trkpt>
				<trkpt lat="45.133220" lon="2.701940">
					<ele>1216</ele>
					<time>2018-06-24T23:23:04Z</time>
				</trkpt>
				<trkpt lat="45.133220" lon="2.701950">
					<ele>1216</ele>
					<time>2018-06-24T23:24:04Z</time>
				</trkpt>
				<trkpt lat="45.133320" lon="2.702350">
					<ele>1219</ele>
					<time>2018-06-24T23:25:04Z</time>
				</trkpt>
				<trkpt lat="45.133400" lon="2.702540">
					<ele>1220</ele>
					<time>2018-06-24T23:26:04Z</time>
				</trkpt>
				<trkpt lat="45.133510" lon="2.702730">
					<ele>1221</ele>
					<time>2018-06-24T23:27:04Z</time>
				</trkpt>
				<trkpt lat="45.133910" lon="2.703150">
					<ele>1218</ele>
					<time>2018-06-24T23:28:04Z</time>
				</trkpt>
				<trkpt lat="45.134020" lon="2.703300">
					<ele>1217</ele>
					<time>2018-06-24T23:29:04Z</time>
				</trkpt>
				<trkpt lat="45.134070" lon="2.703420">
					<ele>1218</ele>
					<time>2018-06-24T23:30:04Z</time>
				</trkpt>
				<trkpt lat="45.134070" lon="2.703520">
					<ele>1221</ele>
					<time>2018-06-24T23:31:04Z</time>
				</trkpt>
				<trkpt lat="45.134040" lon="2.703590">
					<ele>1224</ele>
					<time>2018-06-24T23:32:04Z</time>
				</trkpt>
				<trkpt lat="45.134000" lon="2.703610">
					<ele>1226</ele>
					<time>2018-06-24T23:33:04Z</time>
				</trkpt>
				<trkpt lat="45.133980" lon="2.703600">
					<ele>1227</ele>
					<time>2018-06-24T23:34:04Z</time>
				</trkpt>
				<trkpt lat="45.133950" lon="2.703540">
					<ele>1227</ele>
					<time>2018-06-24T23:35:04Z</time>
				</trkpt>
				<trkpt lat="45.133930" lon="2.703460">
					<ele>1226</ele>
					<time>2018-06-24T23:36:04Z</time>
				</trkpt>
				<trkpt lat="45.133900" lon="2.703400">
					<ele>1225</ele>
					<time>2018-06-24T23:37:04Z</time>
				</trkpt>
				<trkpt lat="45.133820" lon="2.703290">
					<ele>1226</ele>
					<time>2018-06-24T23:38:04Z</time>
				</trkpt>
				<trkpt lat="45.133700" lon="2.703220">
					<ele>1229</ele>
					<time>2018-06-24T23:39:04Z</time>
				</trkpt>
				<trkpt lat="45.132890" lon="2.702850">
					<ele>1247</ele>
					<time>2018-06-24T23:40:04Z</time>
				</trkpt>
				<trkpt lat="45.132760" lon="2.702800">
					<ele>1249</ele>
					<time>2018-06-24T23:41:04Z</time>
				</trkpt>
				<trkpt lat="45.132670" lon="2.702750">
					<ele>1250</ele>
					<time>2018-06-24T23:42:04Z</time>
				</trkpt>
				<trkpt lat="45.132570" lon="2.702670">
					<ele>1250</ele>
					<time>2018-06-24T23:43:04Z</time>
				</trkpt>
				<trkpt lat="45.132260" lon="2.702220">
					<ele>1252</ele>
					<time>2018-06-24T23:44:04Z</time>
				</trkpt>
				<trkpt lat="45.132050" lon="2.701880">
					<ele>1255</ele>
					<time>2018-06-24T23:45:04Z</time>
				</trkpt>
				<trkpt lat="45.131640" lon="2.700970">
					<ele>1254</ele>
					<time>2018-06-24T23:46:04Z</time>
				</trkpt>
				<trkpt lat="45.131480" lon="2.700670">
					<ele>1258</ele>
					<time>2018-06-24T23:47:04Z</time>
				</trkpt>
				<trkpt lat="45.131260" lon="2.700140">
					<ele>1258</ele>
					<time>2018-06-24T23:48:04Z</time>
				</trkpt>
				<trkpt lat="45.131190" lon="2.699980">
					<ele>1257</ele>
					<time>2018-06-24T23:49:04Z</time>
				</trkpt>
				<trkpt lat="45.131010" lon="2.699770">
					<ele>1260</ele>
					<time>2018-06-24T23:50:04Z</time>
				</trkpt>
				<trkpt lat="45.130350" lon="2.699210">
					<ele>1265</ele>
					<time>2018-06-24T23:51:04Z</time>
				</trkpt>
				<trkpt lat="45.130220" lon="2.699150">
					<ele>1267</ele>
					<time>2018-06-24T23:52:04Z</time>
				</trkpt>
				<trkpt lat="45.130120" lon="2.699140">
					<ele>1270</ele>
					<time>2018-06-24T23:53:04Z</time>
				</trkpt>
				<trkpt lat="45.129890" lon="2.699090">
					<ele>1275</ele>
					<time>2018-06-24T23:54:04Z</time>
				</trkpt>
				<trkpt lat="45.129650" lon="2.699000">
					<ele>1278</ele>
					<time>2018-06-24T23:55:04Z</time>
				</trkpt>
				<trkpt lat="45.129360" lon="2.698870">
					<ele>1281</ele>
					<time>2018-06-24T23:56:04Z</time>
				</trkpt>
				<trkpt lat="45.129140" lon="2.698740">
					<ele>1282</ele>
					<time>2018-06-24T23:57:04Z</time>
				</trkpt>
				<trkpt lat="45.129010" lon="2.698610">
					<ele>1283</ele>
					<time>2018-06-24T23:58:04Z</time>
				</trkpt>
				<trkpt lat="45.128890" lon="2.698440">
					<ele>1282</ele>
					<time>2018-06-24T23:59:04Z</time>
				</trkpt>
				<trkpt lat="45.128750" lon="2.698310">
					<ele>1285</ele>
					<time>2018-06-25T00:00:04Z</time>
				</trkpt>
				<trkpt lat="45.128600" lon="2.698230">
					<ele>1289</ele>
					<time>2018-06-25T00:01:04Z</time>
				</trkpt>
				<trkpt lat="45.128520" lon="2.698200">
					<ele>1292</ele>
					<time>2018-06-25T00:02:04Z</time>
				</trkpt>
				<trkpt lat="45.128410" lon="2.698100">
					<ele>1293</ele>
					<time>2018-06-25T00:03:04Z</time>
				</trkpt>
				<trkpt lat="45.128220" lon="2.697800">
					<ele>1290</ele>
					<time>2018-06-25T00:04:04Z</time>
				</trkpt>
				<trkpt lat="45.128090" lon="2.697660">
					<ele>1290</ele>
					<time>2018-06-25T00:05:04Z</time>
				</trkpt>
				<trkpt lat="45.127740" lon="2.697400">
					<ele>1295</ele>
					<time>2018-06-25T00:06:04Z</time>
				</trkpt>
				<trkpt lat="45.127630" lon="2.697370">
					<ele>1298</ele>
					<time>2018-06-25T00:07:04Z</time>
				</trkpt>
				<trkpt lat="45.127600" lon="2.697400">
					<ele>1300</ele>
					<time>2018-06-25T00:08:04Z</time>
				</trkpt>
				<trkpt lat="45.127580" lon="2.697470">
					<ele>1304</ele>
					<time>2018-06-25T00:09:04Z</time>
				</trkpt>
				<trkpt lat="45.127590" lon="2.697530">
					<ele>1305</ele>
					<time>2018-06-25T00:10:04Z</time>
				</trkpt>
				<trkpt lat="45.127610" lon="2.697560">
					<ele>1306</ele>
					<time>2018-06-25T00:11:04Z</time>
				</trkpt>
				<trkpt lat="45.127720" lon="2.697660">
					<ele>1305</ele>
					<time>2018-06-25T00:12:04Z</time>
				</trkpt>
				<trkpt lat="45.127790" lon="2.697710">
					<ele>1304</ele>
					<time>2018-06-25T00:13:04Z</time>
				</trkpt>
				<trkpt lat="45.127950" lon="2.697820">
					<ele>1301</ele>
					<time>2018-06-25T00:14:04Z</time>
				</trkpt>
				<trkpt lat="45.128040" lon="2.697940">
					<ele>1302</ele>
					<time>2018-06-25T00:15:04Z</time>
				</trkpt>
				<trkpt lat="45.128180" lon="2.698310">
					<ele>1311</ele>
					<time>2018-06-25T00:16:04Z</time>
				</trkpt>
				<trkpt lat="45.128240" lon="2.698440">
					<ele>1312</ele>
					<time>2018-06-25T00:17:04Z</time>
				</trkpt>
				<trkpt lat="45.128270" lon="2.698490">
					<ele>1313</ele>
					<time>2018-06-25T00:18:04Z</time>
				</trkpt>
				<trkpt lat="45.128360" lon="2.698590">
					<ele>1312</ele>
					<time>2018-06-25T00:19:04Z</time>
				</trkpt>
				<trkpt lat="45.128450" lon="2.698720">
					<ele>1312</ele>
					<time>2018-06-25T00:20:04Z</time>
				</trkpt>
				<trkpt lat="45.128470" lon="2.698770">
					<ele>1312</ele>
					<time>2018-06-25T00:21:04Z</time>
				</trkpt>
				<trkpt lat="45.128550" lon="2.698940">
					<ele>1314</ele>
					<time>2018-06-25T00:22:04Z</time>
				</trkpt>
				<trkpt lat="45.128650" lon="2.699150">
					<ele>1317</ele>
					<time>2018-06-25T00:23:04Z</time>
				</trkpt>
				<trkpt lat="45.128820" lon="2.699450">
					<ele>1320</ele>
					<time>2018-06-25T00:24:04Z</time>
				</trkpt>
				<trkpt lat="45.129100" lon="2.699730">
					<ele>1321</ele>
					<time>2018-06-25T00:25:04Z</time>
				</trkpt>
				<trkpt lat="45.129470" lon="2.700070">
					<ele>1324</ele>
					<time>2018-06-25T00:26:04Z</time>
				</trkpt>
				<trkpt lat="45.129820" lon="2.700340">
					<ele>1323</ele>
					<time>2018-06-25T00:27:04Z</time>
				</trkpt>
				<trkpt lat="45.129940" lon="2.700470">
					<ele>1324</ele>
					<time>2018-06-25T00:28:04Z</time>
				</trkpt>
				<trkpt lat="45.130040" lon="2.700640">
					<ele>1326</ele>
					<time>2018-06-25T00:29:04Z</time>
				</trkpt>
				<trkpt lat="45.130110" lon="2.700780">
					<ele>1327</ele>
					<time>2018-06-25T00:30:04Z</time>
				</trkpt>
				<trkpt lat="45.130220" lon="2.700920">
					<ele>1326</ele>
					<time>2018-06-25T00:31:04Z</time>
				</trkpt>
				<trkpt lat="45.130370" lon="2.701040">
					<ele>1324</ele>
					<time>2018-06-25T00:32:04Z</time>
				</trkpt>
				<trkpt lat="45.130490" lon="2.701170">
					<ele>1323</ele>
					<time>2018-06-25T00:33:04Z</time>
				</trkpt>
				<trkpt lat="45.130540" lon="2.701260">
					<ele>1323</ele>
					<time>2018-06-25T00:34:04Z</time>
				</trkpt>
				<trkpt lat="45.130550" lon="2.701270">
					<ele>1323</ele>
					<time>2018-06-25T00:35:04Z</time>
				</trkpt>
				<trkpt lat="45.130580" lon="2.701340">
					<ele>1323</ele>
					<time>2018-06-25T00:36:04Z</time>
				</trkpt>
				<trkpt lat="45.130600" lon="2.701410">
					<ele>1324</ele>
					<time>2018-06-25T00:37:04Z</time>
				</trkpt>
				<trkpt lat="45.130610" lon="2.701500">
					<ele>1325</ele>
					<time>2018-06-25T00:38:04Z</time>
				</trkpt>
				<trkpt lat="45.130600" lon="2.701630">
					<ele>1327</ele>
					<time>2018-06-25T00:39:04Z</time>
				</trkpt>
				<trkpt lat="45.130580" lon="2.701730">
					<ele>1328</ele>
					<time>2018-06-25T00:40:04Z</time>
				</trkpt>
				<trkpt lat="45.130580" lon="2.701730">
					<ele>1328</ele>
					<time>2018-06-25T00:41:04Z</time>
				</trkpt>
				<trkpt lat="45.130440" lon="2.701890">
					<ele>1329</ele>
					<time>2018-06-25T00:42:04Z</time>
				</trkpt>
				<trkpt lat="45.130220" lon="2.702060">
					<ele>1331</ele>
					<time>2018-06-25T00:43:04Z</time>
				</trkpt>
				<trkpt lat="45.130040" lon="2.702160">
					<ele>1332</ele>
					<time>2018-06-25T00:44:04Z</time>
				</trkpt>
				<trkpt lat="45.129700" lon="2.702330">
					<ele>1329</ele>
					<time>2018-06-25T00:45:04Z</time>
				</trkpt>
				<trkpt lat="45.129630" lon="2.702360">
					<ele>1328</ele>
					<time>2018-06-25T00:46:04Z</time>
				</trkpt>
				<trkpt lat="45.129570" lon="2.702360">
					<ele>1328</ele>
					<time>2018-06-25T00:47:04Z</time>
				</trkpt>
				<trkpt lat="45.129510" lon="2.702370">
					<ele>1327</ele>
					<time>2018-06-25T00:48:04Z</time>
				</trkpt>
				<trkpt lat="45.129410" lon="2.702350">
					<ele>1327</ele>
					<time>2018-06-25T00:49:04Z</time>
				</trkpt>
				<trkpt lat="45.129290" lon="2.702290">
					<ele>1328</ele>
					<time>2018-06-25T00:50:04Z</time>
				</trkpt>
				<trkpt lat="45.129090" lon="2.702150">
					<ele>1329</ele>
					<time>2018-06-25T00:51:04Z</time>
				</trkpt>
				<trkpt lat="45.128810" lon="2.701930">
					<ele>1331</ele>
					<time>2018-06-25T00:52:04Z</time>
				</trkpt>
				<trkpt lat="45.128680" lon="2.701850">
					<ele>1332</ele>
					<time>2018-06-25T00:53:04Z</time>
				</trkpt>
				<trkpt lat="45.128600" lon="2.701820">
					<ele>1331</ele>
					<time>2018-06-25T00:54:04Z</time>
				</trkpt>
				<trkpt lat="45.128470" lon="2.701800">
					<ele>1330</ele>
					<time>2018-06-25T00:55:04Z</time>
				</trkpt>
				<trkpt lat="45.128250" lon="2.701770">
					<ele>1328</ele>
					<time>2018-06-25T00:56:04Z</time>
				</trkpt>
				<trkpt lat="45.128160" lon="2.701730">
					<ele>1328</ele>
					<time>2018-06-25T00:57:04Z</time>
				</trkpt>
				<trkpt lat="45.128100" lon="2.701710">
					<ele>1328</ele>
					<time>2018-06-25T00:58:04Z</time>
				</trkpt>
				<trkpt lat="45.128020" lon="2.701660">
					<ele>1328</ele>
					<time>2018-06-25T00:59:04Z</time>
				</trkpt>
				<trkpt lat="45.127960" lon="2.701650">
					<ele>1327</ele>
					<time>2018-06-25T01:00:04Z</time>
				</trkpt>
				<trkpt lat="45.127950" lon="2.701650">
					<ele>1327</ele>
					<time>2018-06-25T01:01:04Z</time>
				</trkpt>
				<trkpt lat="45.127930" lon="2.701660">
					<ele>1326</ele>
					<time>2018-06-25T01:02:04Z</time>
				</trkpt>
				<trkpt lat="45.127910" lon="2.701690">
					<ele>1325</ele>
					<time>2018-06-25T01:03:04Z</time>
				</trkpt>
				<trkpt lat="45.127910" lon="2.701690">
					<ele>1325</ele>
					<time>2018-06-25T01:04:04Z</time>
				</trkpt>
				<trkpt lat="45.127650" lon="2.701440">
					<ele>1328</ele>
					<time>2018-06-25T01:05:04Z</time>
				</trkpt>
				<trkpt lat="45.127450" lon="2.701220">
					<ele>1330</ele>
					<time>2018-06-25T01:06:04Z</time>
				</trkpt>
				<trkpt lat="45.127130" lon="2.700790">
					<ele>1332</ele>
					<time>2018-06-25T01:07:04Z</time>
				</trkpt>
				<trkpt lat="45.126930" lon="2.700500">
					<ele>1333</ele>
					<time>2018-06-25T01:08:04Z</time>
				</trkpt>
				<trkpt lat="45.126840" lon="2.700350">
					<ele>1334</ele>
					<time>2018-06-25T01:09:04Z</time>
				</trkpt>
				<trkpt lat="45.126740" lon="2.700130">
					<ele>1337</ele>
					<time>2018-06-25T01:10:04Z</time>
				</trkpt>
				<trkpt lat="45.126600" lon="2.699850">
					<ele>1338</ele>
					<time>2018-06-25T01:11:04Z</time>
				</trkpt>
				<trkpt lat="45.126460" lon="2.699610">
					<ele>1338</ele>
					<time>2018-06-25T01:12:04Z</time>
				</trkpt>
				<trkpt lat="45.126170" lon="2.699160">
					<ele>1337</ele>
					<time>2018-06-25T01:13:04Z</time>
				</trkpt>
				<trkpt lat="45.125990" lon="2.698870">
					<ele>1336</ele>
					<time>2018-06-25T01:14:04Z</time>
				</trkpt>
				<trkpt lat="45.125770" lon="2.698510">
					<ele>1338</ele>
					<time>2018-06-25T01:15:04Z</time>
				</trkpt>
				<trkpt lat="45.125680" lon="2.698410">
					<ele>1339</ele>
					<time>2018-06-25T01:16:04Z</time>
				</trkpt>
				<trkpt lat="45.125610" lon="2.698320">
					<ele>1339</ele>
					<time>2018-06-25T01:17:04Z</time>
				</trkpt>
				<trkpt lat="45.125480" lon="2.698210">
					<ele>1339</ele>
					<time>2018-06-25T01:18:04Z</time>
				</trkpt>
				<trkpt lat="45.125110" lon="2.697880">
					<ele>1342</ele>
					<time>2018-06-25T01:19:04Z</time>
				</trkpt>
				<trkpt lat="45.124960" lon="2.697760">
					<ele>1344</ele>
					<time>2018-06-25T01:20:04Z</time>
				</trkpt>
				<trkpt lat="45.124830" lon="2.697680">
					<ele>1346</ele>
					<time>2018-06-25T01:21:04Z</time>
				</trkpt>
				<trkpt lat="45.124740" lon="2.697630">
					<ele>1346</ele>
					<time>2018-06-25T01:22:04Z</time>
				</trkpt>
				<trkpt lat="45.124600" lon="2.697580">
					<ele>1347</ele>
					<time>2018-06-25T01:23:04Z</time>
				</trkpt>
				<trkpt lat="45.124170" lon="2.697460">
					<ele>1348</ele>
					<time>2018-06-25T01:24:04Z</time>
				</trkpt>
				<trkpt lat="45.123840" lon="2.697360">
					<ele>1349</ele>
					<time>2018-06-25T01:25:04Z</time>
				</trkpt>
				<trkpt lat="45.123520" lon="2.697270">
					<ele>1349</ele>
					<time>2018-06-25T01:26:04Z</time>
				</trkpt>
				<trkpt lat="45.123350" lon="2.697200">
					<ele>1351</ele>
					<time>2018-06-25T01:27:04Z</time>
				</trkpt>
				<trkpt lat="45.123060" lon="2.697060">
					<ele>1351</ele>
					<time>2018-06-25T01:28:04Z</time>
				</trkpt>
				<trkpt lat="45.122750" lon="2.696900">
					<ele>1351</ele>
					<time>2018-06-25T01:29:04Z</time>
				</trkpt>
				<trkpt lat="45.122560" lon="2.696780">
					<ele>1352</ele>
					<time>2018-06-25T01:30:04Z</time>
				</trkpt>
				<trkpt lat="45.122320" lon="2.696620">
					<ele>1354</ele>
					<time>2018-06-25T01:31:04Z</time>
				</trkpt>
				<trkpt lat="45.122120" lon="2.696520">
					<ele>1354</ele>
					<time>2018-06-25T01:32:04Z</time>
				</trkpt>
				<trkpt lat="45.121970" lon="2.696450">
					<ele>1354</ele>
					<time>2018-06-25T01:33:04Z</time>
				</trkpt>
				<trkpt lat="45.121780" lon="2.696320">
					<ele>1355</ele>
					<time>2018-06-25T01:34:04Z</time>
				</trkpt>
				<trkpt lat="45.121520" lon="2.696160">
					<ele>1355</ele>
					<time>2018-06-25T01:35:04Z</time>
				</trkpt>
				<trkpt lat="45.121280" lon="2.695960">
					<ele>1357</ele>
					<time>2018-06-25T01:36:04Z</time>
				</trkpt>
				<trkpt lat="45.121110" lon="2.695780">
					<ele>1358</ele>
					<time>2018-06-25T01:37:04Z</time>
				</trkpt>
				<trkpt lat="45.120930" lon="2.695530">
					<ele>1362</ele>
					<time>2018-06-25T01:38:04Z</time>
				</trkpt>
				<trkpt lat="45.120780" lon="2.695380">
					<ele>1363</ele>
					<time>2018-06-25T01:39:04Z</time>
				</trkpt>
				<trkpt lat="45.120650" lon="2.695260">
					<ele>1364</ele>
					<time>2018-06-25T01:40:04Z</time>
				</trkpt>
				<trkpt lat="45.120480" lon="2.695180">
					<ele>1363</ele>
					<time>2018-06-25T01:41:04Z</time>
				</trkpt>
				<trkpt lat="45.120300" lon="2.695070">
					<ele>1363</ele>
					<time>2018-06-25T01:42:04Z</time>
				</trkpt>
				<trkpt lat="45.120160" lon="2.694980">
					<ele>1363</ele>
					<time>2018-06-25T01:43:04Z</time>
				</trkpt>
				<trkpt lat="45.120030" lon="2.694850">
					<ele>1362</ele>
					<time>2018-06-25T01:44:04Z</time>
				</trkpt>
				<trkpt lat="45.119850" lon="2.694670">
					<ele>1363</ele>
					<time>2018-06-25T01:45:04Z</time>
				</trkpt>
				<trkpt lat="45.119730" lon="2.694550">
					<ele>1363</ele>
					<time>2018-06-25T01:46:04Z</time>
				</trkpt>
				<trkpt lat="45.119640" lon="2.694480">
					<ele>1363</ele>
					<time>2018-06-25T01:47:04Z</time>
				</trkpt>
				<trkpt lat="45.119510" lon="2.694390">
					<ele>1363</ele>
					<time>2018-06-25T01:48:04Z</time>
				</trkpt>
				<trkpt lat="45.119300" lon="2.694250">
					<ele>1364</ele>
					<time>2018-06-25T01:49:04Z</time>
				</trkpt>
				<trkpt lat="45.119080" lon="2.694110">
					<ele>1363</ele>
					<time>2018-06-25T01:50:04Z</time>
				</trkpt>
				<trkpt lat="45.118830" lon="2.693920">
					<ele>1361</ele>
					<time>2018-06-25T01:51:04Z</time>
				</trkpt>
				<trkpt lat="45.118680" lon="2.693790">
					<ele>1361</ele>
					<time>2018-06-25T01:52:04Z</time>
				</trkpt>
				<trkpt lat="45.118520" lon="2.693610">
					<ele>1363</ele>
					<time>2018-06-25T01:53:04Z</time>
				</trkpt>
				<trkpt lat="45.118280" lon="2.693400">
					<ele>1365</ele>
					<time>2018-06-25T01:54:04Z</time>
				</trkpt>
				<trkpt lat="45.117960" lon="2.693090">
					<ele>1365</ele>
					<time>2018-06-25T01:55:04Z</time>
				</trkpt>
				<trkpt lat="45.117710" lon="2.692860">
					<ele>1367</ele>
					<time>2018-06-25T01:56:04Z</time>
				</trkpt>
				<trkpt lat="45.117560" lon="2.692760">
					<ele>1368</ele>
					<time>2018-06-25T01:57:04Z</time>
				</trkpt>
				<trkpt lat="45.117320" lon="2.692610">
					<ele>1370</ele>
					<time>2018-06-25T01:58:04Z</time>
				</trkpt>
				<trkpt lat="45.117060" lon="2.692460">
					<ele>1372</ele>
					<time>2018-06-25T01:59:04Z</time>
				</trkpt>
				<trkpt lat="45.116770" lon="2.692280">
					<ele>1371</ele>
					<time>2018-06-25T02:00:04Z</time>
				</trkpt>
				<trkpt lat="45.116610" lon="2.692170">
					<ele>1371</ele>
					<time>2018-06-25T02:01:04Z</time>
				</trkpt>
				<trkpt lat="45.116470" lon="2.692070">
					<ele>1370</ele>
					<time>2018-06-25T02:02:04Z</time>
				</trkpt>
				<trkpt lat="45.116330" lon="2.691910">
					<ele>1371</ele>
					<time>2018-06-25T02:03:04Z</time>
				</trkpt>
				<trkpt lat="45.116200" lon="2.691720">
					<ele>1372</ele>
					<time>2018-06-25T02:04:04Z</time>
				</trkpt>
				<trkpt lat="45.116030" lon="2.691480">
					<ele>1373</ele>
					<time>2018-06-25T02:05:04Z</time>
				</trkpt>
				<trkpt lat="45.115890" lon="2.691280">
					<ele>1374</ele>
					<time>2018-06-25T02:06:04Z</time>
				</trkpt>
				<trkpt lat="45.115830" lon="2.691190">
					<ele>1375</ele>
					<time>2018-06-25T02:07:04Z</time>
				</trkpt>
				<trkpt lat="45.115630" lon="2.690970">
					<ele>1377</ele>
					<time>2018-06-25T02:08:04Z</time>
				</trkpt>
				<trkpt lat="45.115540" lon="2.690880">
					<ele>1378</ele>
					<time>2018-06-25T02:09:04Z</time>
				</trkpt>
				<trkpt lat="45.115480" lon="2.690830">
					<ele>1378</ele>
					<time>2018-06-25T02:10:04Z</time>
				</trkpt>
				<trkpt lat="45.115310" lon="2.690680">
					<ele>1377</ele>
					<time>2018-06-25T02:11:04Z</time>
				</trkpt>
				<trkpt lat="45.115100" lon="2.690550">
					<ele>1377</ele>
					<time>2018-06-25T02:12:04Z</time>
				</trkpt>
				<trkpt lat="45.114580" lon="2.690200">
					<ele>1380</ele>
					<time>2018-06-25T02:13:04Z</time>
				</trkpt>
				<trkpt lat="45.114350" lon="2.690050">
					<ele>1384</ele>
					<time>2018-06-25T02:14:04Z</time>
				</trkpt>
				<trkpt lat="45.114230" lon="2.689940">
					<ele>1386</ele>
					<time>2018-06-25T02:15:04Z</time>
				</trkpt>
				<trkpt lat="45.114140" lon="2.689820">
					<ele>1386</ele>
					<time>2018-06-25T02:16:04Z</time>
				</trkpt>
				<trkpt lat="45.114030" lon="2.689650">
					<ele>1387</ele>
					<time>2018-06-25T02:17:04Z</time>
				</trkpt>
				<trkpt lat="45.113960" lon="2.689470">
					<ele>1389</ele>
					<time>2018-06-25T02:18:04Z</time>
				</trkpt>
				<trkpt lat="45.113900" lon="2.689280">
					<ele>1391</ele>
					<time>2018-06-25T02:19:04Z</time>
				</trkpt>
				<trkpt lat="45.113870" lon="2.689050">
					<ele>1392</ele>
					<time>2018-06-25T02:20:04Z</time>
				</trkpt>
				<trkpt lat="45.113850" lon="2.688790">
					<ele>1393</ele>
					<time>2018-06-25T02:21:04Z</time>
				</trkpt>
				<trkpt lat="45.113830" lon="2.688400">
					<ele>1396</ele>
					<time>2018-06-25T02:22:04Z</time>
				</trkpt>
				<trkpt lat="45.113800" lon="2.687530">
					<ele>1397</ele>
					<time>2018-06-25T02:23:04Z</time>
				</trkpt>
				<trkpt lat="45.113780" lon="2.687280">
					<ele>1397</ele>
					<time>2018-06-25T02:24:04Z</time>
				</trkpt>
				<trkpt lat="45.113760" lon="2.687160">
					<ele>1398</ele>
					<time>2018-06-25T02:25:04Z</time>
				</trkpt>
				<trkpt lat="45.113720" lon="2.687020">
					<ele>1399</ele>
					<time>2018-06-25T02:26:04Z</time>
				</trkpt>
				<trkpt lat="45.113660" lon="2.686870">
					<ele>1400</ele>
					<time>2018-06-25T02:27:04Z</time>
				</trkpt>
				<trkpt lat="45.113590" lon="2.686750">
					<ele>1402</ele>
					<time>2018-06-25T02:28:04Z</time>
				</trkpt>
				<trkpt lat="45.113520" lon="2.686650">
					<ele>1404</ele>
					<time>2018-06-25T02:29:04Z</time>
				</trkpt>
				<trkpt lat="45.113430" lon="2.686560">
					<ele>1406</ele>
					<time>2018-06-25T02:30:04Z</time>
				</trkpt>
				<trkpt lat="45.113300" lon="2.686480">
					<ele>1409</ele>
					<time>2018-06-25T02:31:04Z</time>
				</trkpt>
				<trkpt lat="45.113160" lon="2.686430">
					<ele>1410</ele>
					<time>2018-06-25T02:32:04Z</time>
				</trkpt>
				<trkpt lat="45.113020" lon="2.686420">
					<ele>1412</ele>
					<time>2018-06-25T02:33:04Z</time>
				</trkpt>
				<trkpt lat="45.112960" lon="2.686420">
					<ele>1413</ele>
					<time>2018-06-25T02:34:04Z</time>
				</trkpt>
				<trkpt lat="45.112770" lon="2.686410">
					<ele>1415</ele>
					<time>2018-06-25T02:35:04Z</time>
				</trkpt>
				<trkpt lat="45.112760" lon="2.686410">
					<ele>1415</ele>
					<time>2018-06-25T02:36:04Z</time>
				</trkpt>
				<trkpt lat="45.112630" lon="2.686390">
					<ele>1417</ele>
					<time>2018-06-25T02:37:04Z</time>
				</trkpt>
				<trkpt lat="45.112510" lon="2.686360">
					<ele>1418</ele>
					<time>2018-06-25T02:38:04Z</time>
				</trkpt>
				<trkpt lat="45.112400" lon="2.686330">
					<ele>1419</ele>
					<time>2018-06-25T02:39:04Z</time>
				</trkpt>
				<trkpt lat="45.112370" lon="2.686320">
					<ele>1419</ele>
					<time>2018-06-25T02:40:04Z</time>
				</trkpt>
				<trkpt lat="45.112230" lon="2.686240">
					<ele>1420</ele>
					<time>2018-06-25T02:41:04Z</time>
				</trkpt>
				<trkpt lat="45.112030" lon="2.686130">
					<ele>1422</ele>
					<time>2018-06-25T02:42:04Z</time>
				</trkpt>
				<trkpt lat="45.111640" lon="2.685900">
					<ele>1426</ele>
					<time>2018-06-25T02:43:04Z</time>
				</trkpt>
				<trkpt lat="45.111230" lon="2.685620">
					<ele>1426</ele>
					<time>2018-06-25T02:44:04Z</time>
				</trkpt>
				<trkpt lat="45.111020" lon="2.685450">
					<ele>1429</ele>
					<time>2018-06-25T02:45:04Z</time>
				</trkpt>
				<trkpt lat="45.110910" lon="2.685310">
					<ele>1432</ele>
					<time>2018-06-25T02:46:04Z</time>
				</trkpt>
				<trkpt lat="45.110880" lon="2.685230">
					<ele>1434</ele>
					<time>2018-06-25T02:47:04Z</time>
				</trkpt>
				<trkpt lat="45.110850" lon="2.685110">
					<ele>1437</ele>
					<time>2018-06-25T02:48:04Z</time>
				</trkpt>
				<trkpt lat="45.110850" lon="2.684990">
					<ele>1440</ele>
					<time>2018-06-25T02:49:04Z</time>
				</trkpt>
				<trkpt lat="45.110850" lon="2.684960">
					<ele>1442</ele>
					<time>2018-06-25T02:50:04Z</time>
				</trkpt>
				<trkpt lat="45.110850" lon="2.684850">
					<ele>1446</ele>
					<time>2018-06-25T02:51:04Z</time>
				</trkpt>
				<trkpt lat="45.110830" lon="2.684740">
					<ele>1451</ele>
					<time>2018-06-25T02:52:04Z</time>
				</trkpt>
				<trkpt lat="45.110790" lon="2.684670">
					<ele>1454</ele>
					<time>2018-06-25T02:53:04Z</time>
				</trkpt>
				<trkpt lat="45.110730" lon="2.684610">
					<ele>1455</ele>
					<time>2018-06-25T02:54:04Z</time>
				</trkpt>
				<trkpt lat="45.110500" lon="2.684410">
					<ele>1459</ele>
					<time>2018-06-25T02:55:04Z</time>
				</trkpt>
				<trkpt lat="45.110300" lon="2.684220">
					<ele>1462</ele>
					<time>2018-06-25T02:56:04Z</time>
				</trkpt>
				<trkpt lat="45.110040" lon="2.683950">
					<ele>1467</ele>
					<time>2018-06-25T02:57:04Z</time>
				</trkpt>
				<trkpt lat="45.109620" lon="2.683500">
					<ele>1475</ele>
					<time>2018-06-25T02:58:04Z</time>
				</trkpt>
				<trkpt lat="45.109460" lon="2.683370">
					<ele>1476</ele>
					<time>2018-06-25T02:59:04Z</time>
				</trkpt>
				<trkpt lat="45.109270" lon="2.683230">
					<ele>1477</ele>
					<time>2018-06-25T03:00:04Z</time>
				</trkpt>
				<trkpt lat="45.109110" lon="2.683120">
					<ele>1479</ele>
					<time>2018-06-25T03:01:04Z</time>
				</trkpt>
				<trkpt lat="45.109080" lon="2.683080">
					<ele>1481</ele>
					<time>2018-06-25T03:02:04Z</time>
				</trkpt>
				<trkpt lat="45.109070" lon="2.683030">
					<ele>1483</ele>
					<time>2018-06-25T03:03:04Z</time>
				</trkpt>
				<trkpt lat="45.109080" lon="2.683000">
					<ele>1485</ele>
					<time>2018-06-25T03:04:04Z</time>
				</trkpt>
				<trkpt lat="45.109100" lon="2.682970">
					<ele>1487</ele>
					<time>2018-06-25T03:05:04Z</time>
				</trkpt>
				<trkpt lat="45.109130" lon="2.682950">
					<ele>1488</ele>
					<time>2018-06-25T03:06:04Z</time>
				</trkpt>
				<trkpt lat="45.109170" lon="2.682960">
					<ele>1488</ele>
					<time>2018-06-25T03:07:04Z</time>
				</trkpt>
				<trkpt lat="45.109260" lon="2.683010">
					<ele>1488</ele>
					<time>2018-06-25T03:08:04Z</time>
				</trkpt>
				<trkpt lat="45.109310" lon="2.683050">
					<ele>1487</ele>
					<time>2018-06-25T03:09:04Z</time>
				</trkpt>
				<trkpt lat="45.109400" lon="2.683100">
					<ele>1487</ele>
					<time>2018-06-25T03:10:04Z</time>
				</trkpt>
				<trkpt lat="45.109640" lon="2.683200">
					<ele>1489</ele>
					<time>2018-06-25T03:11:04Z</time>
				</trkpt>
				<trkpt lat="45.109960" lon="2.683350">
					<ele>1490</ele>
					<time>2018-06-25T03:12:04Z</time>
				</trkpt>
				<trkpt lat="45.110030" lon="2.683380">
					<ele>1491</ele>
					<time>2018-06-25T03:13:04Z</time>
				</trkpt>
				<trkpt lat="45.110140" lon="2.683470">
					<ele>1489</ele>
					<time>2018-06-25T03:14:04Z</time>
				</trkpt>
				<trkpt lat="45.110300" lon="2.683630">
					<ele>1485</ele>
					<time>2018-06-25T03:15:04Z</time>
				</trkpt>
				<trkpt lat="45.110450" lon="2.683740">
					<ele>1484</ele>
					<time>2018-06-25T03:16:04Z</time>
				</trkpt>
				<trkpt lat="45.110770" lon="2.683860">
					<ele>1486</ele>
					<time>2018-06-25T03:17:04Z</time>
				</trkpt>
				<trkpt lat="45.110840" lon="2.683870">
					<ele>1487</ele>
					<time>2018-06-25T03:18:04Z</time>
				</trkpt>
				<trkpt lat="45.110930" lon="2.683860">
					<ele>1484</ele>
					<time>2018-06-25T03:19:04Z</time>
				</trkpt>
				<trkpt lat="45.111150" lon="2.683750">
					<ele>1481</ele>
					<time>2018-06-25T03:20:04Z</time>
				</trkpt>
				<trkpt lat="45.111270" lon="2.683660">
					<ele>1480</ele>
					<time>2018-06-25T03:21:04Z</time>
				</trkpt>
				<trkpt lat="45.111310" lon="2.683610">
					<ele>1480</ele>
					<time>2018-06-25T03:22:04Z</time>
				</trkpt>
				<trkpt lat="45.111360" lon="2.683490">
					<ele>1483</ele>
					<time>2018-06-25T03:23:04Z</time>
				</trkpt>
				<trkpt lat="45.111380" lon="2.683400">
					<ele>1486</ele>
					<time>2018-06-25T03:24:04Z</time>
				</trkpt>
				<trkpt lat="45.111420" lon="2.683240">
					<ele>1489</ele>
					<time>2018-06-25T03:25:04Z</time>
				</trkpt>
				<trkpt lat="45.111520" lon="2.682900">
					<ele>1493</ele>
					<time>2018-06-25T03:26:04Z</time>
				</trkpt>
				<trkpt lat="45.111540" lon="2.682750">
					<ele>1495</ele>
					<time>2018-06-25T03:27:04Z</time>
				</trkpt>
				<trkpt lat="45.111540" lon="2.682660">
					<ele>1497</ele>
					<time>2018-06-25T03:28:04Z</time>
				</trkpt>
				<trkpt lat="45.111520" lon="2.682520">
					<ele>1501</ele>
					<time>2018-06-25T03:29:04Z</time>
				</trkpt>
				<trkpt lat="45.111460" lon="2.682360">
					<ele>1508</ele>
					<time>2018-06-25T03:30:04Z</time>
				</trkpt>
				<trkpt lat="45.111460" lon="2.682290">
					<ele>1510</ele>
					<time>2018-06-25T03:31:04Z</time>
				</trkpt>
				<trkpt lat="45.111460" lon="2.682280">
					<ele>1510</ele>
					<time>2018-06-25T03:32:04Z</time>
				</trkpt>
				<trkpt lat="45.111480" lon="2.682180">
					<ele>1512</ele>
					<time>2018-06-25T03:33:04Z</time>
				</trkpt>
				<trkpt lat="45.111520" lon="2.682100">
					<ele>1512</ele>
					<time>2018-06-25T03:34:04Z</time>
				</trkpt>
				<trkpt lat="45.111630" lon="2.682020">
					<ele>1510</ele>
					<time>2018-06-25T03:35:04Z</time>
				</trkpt>
				<trkpt lat="45.111790" lon="2.681960">
					<ele>1503</ele>
					<time>2018-06-25T03:36:04Z</time>
				</trkpt>
				<trkpt lat="45.111870" lon="2.681920">
					<ele>1500</ele>
					<time>2018-06-25T03:37:04Z</time>
				</trkpt>
				<trkpt lat="45.111910" lon="2.681870">
					<ele>1499</ele>
					<time>2018-06-25T03:38:04Z</time>
				</trkpt>
				<trkpt lat="45.111930" lon="2.681820">
					<ele>1499</ele>
					<time>2018-06-25T03:39:04Z</time>
				</trkpt>
				<trkpt lat="45.111950" lon="2.681710">
					<ele>1501</ele>
					<time>2018-06-25T03:40:04Z</time>
				</trkpt>
				<trkpt lat="45.111960" lon="2.681470">
					<ele>1504</ele>
					<time>2018-06-25T03:41:04Z</time>
				</trkpt>
				<trkpt lat="45.111950" lon="2.681320">
					<ele>1507</ele>
					<time>2018-06-25T03:42:04Z</time>
				</trkpt>
				<trkpt lat="45.111920" lon="2.681190">
					<ele>1511</ele>
					<time>2018-06-25T03:43:04Z</time>
				</trkpt>
				<trkpt lat="45.111910" lon="2.681090">
					<ele>1513</ele>
					<time>2018-06-25T03:44:04Z</time>
				</trkpt>
				<trkpt lat="45.111900" lon="2.681030">
					<ele>1514</ele>
					<time>2018-06-25T03:45:04Z</time>
				</trkpt>
				<trkpt lat="45.111920" lon="2.680930">
					<ele>1515</ele>
					<time>2018-06-25T03:46:04Z</time>
				</trkpt>
				<trkpt lat="45.111960" lon="2.680800">
					<ele>1514</ele>
					<time>2018-06-25T03:47:04Z</time>
				</trkpt>
				<trkpt lat="45.112130" lon="2.680460">
					<ele>1505</ele>
					<time>2018-06-25T03:48:04Z</time>
				</trkpt>
				<trkpt lat="45.112170" lon="2.680360">
					<ele>1503</ele>
					<time>2018-06-25T03:49:04Z</time>
				</trkpt>
				<trkpt lat="45.112190" lon="2.680250">
					<ele>1503</ele>
					<time>2018-06-25T03:50:04Z</time>
				</trkpt>
				<trkpt lat="45.112180" lon="2.680130">
					<ele>1505</ele>
					<time>2018-06-25T03:51:04Z</time>
				</trkpt>
				<trkpt lat="45.112160" lon="2.679980">
					<ele>1507</ele>
					<time>2018-06-25T03:52:04Z</time>
				</trkpt>
				<trkpt lat="45.112150" lon="2.679880">
					<ele>1509</ele>
					<time>2018-06-25T03:53:04Z</time>
				</trkpt>
				<trkpt lat="45.112130" lon="2.679640">
					<ele>1512</ele>
					<time>2018-06-25T03:54:04Z</time>
				</trkpt>
				<trkpt lat="45.112120" lon="2.679600">
					<ele>1512</ele>
					<time>2018-06-25T03:55:04Z</time>
				</trkpt>
				<trkpt lat="45.112090" lon="2.679520">
					<ele>1515</ele>
					<time>2018-06-25T03:56:04Z</time>
				</trkpt>
				<trkpt lat="45.112050" lon="2.679450">
					<ele>1518</ele>
					<time>2018-06-25T03:57:04Z</time>
				</trkpt>
				<trkpt lat="45.111990" lon="2.679360">
					<ele>1522</ele>
					<time>2018-06-25T03:58:04Z</time>
				</trkpt>
				<trkpt lat="45.111930" lon="2.679250">
					<ele>1526</ele>
					<time>2018-06-25T03:59:04Z</time>
				</trkpt>
				<trkpt lat="45.111880" lon="2.679160">
					<ele>1529</ele>
					<time>2018-06-25T04:00:04Z</time>
				</trkpt>
				<trkpt lat="45.111840" lon="2.679060">
					<ele>1532</ele>
					<time>2018-06-25T04:01:04Z</time>
				</trkpt>
				<trkpt lat="45.111820" lon="2.678970">
					<ele>1534</ele>
					<time>2018-06-25T04:02:04Z</time>
				</trkpt>
				<trkpt lat="45.111800" lon="2.678880">
					<ele>1535</ele>
					<time>2018-06-25T04:03:04Z</time>
				</trkpt>
				<trkpt lat="45.111780" lon="2.678790">
					<ele>1537</ele>
					<time>2018-06-25T04:04:04Z</time>
				</trkpt>
				<trkpt lat="45.111780" lon="2.678680">
					<ele>1537</ele>
					<time>2018-06-25T04:05:04Z</time>
				</trkpt>
				<trkpt lat="45.111770" lon="2.678460">
					<ele>1538</ele>
					<time>2018-06-25T04:06:04Z</time>
				</trkpt>
				<trkpt lat="45.111790" lon="2.678110">
					<ele>1540</ele>
					<time>2018-06-25T04:07:04Z</time>
				</trkpt>
				<trkpt lat="45.111830" lon="2.677460">
					<ele>1546</ele>
					<time>2018-06-25T04:08:04Z</time>
				</trkpt>
				<trkpt lat="45.111850" lon="2.677140">
					<ele>1549</ele>
					<time>2018-06-25T04:09:04Z</time>
				</trkpt>
				<trkpt lat="45.111860" lon="2.677010">
					<ele>1551</ele>
					<time>2018-06-25T04:10:04Z</time>
				</trkpt>
				<trkpt lat="45.111890" lon="2.676860">
					<ele>1552</ele>
					<time>2018-06-25T04:11:04Z</time>
				</trkpt>
				<trkpt lat="45.111910" lon="2.676730">
					<ele>1553</ele>
					<time>2018-06-25T04:12:04Z</time>
				</trkpt>
				<trkpt lat="45.111970" lon="2.676570">
					<ele>1554</ele>
					<time>2018-06-25T04:13:04Z</time>
				</trkpt>
				<trkpt lat="45.112050" lon="2.676370">
					<ele>1556</ele>
					<time>2018-06-25T04:14:04Z</time>
				</trkpt>
				<trkpt lat="45.112130" lon="2.676170">
					<ele>1558</ele>
					<time>2018-06-25T04:15:04Z</time>
				</trkpt>
				<trkpt lat="45.112210" lon="2.676000">
					<ele>1558</ele>
					<time>2018-06-25T04:16:04Z</time>
				</trkpt>
				<trkpt lat="45.112300" lon="2.675810">
					<ele>1558</ele>
					<time>2018-06-25T04:17:04Z</time>
				</trkpt>
				<trkpt lat="45.112360" lon="2.675700">
					<ele>1557</ele>
					<time>2018-06-25T04:18:04Z</time>
				</trkpt>
				<trkpt lat="45.112430" lon="2.675550">
					<ele>1557</ele>
					<time>2018-06-25T04:19:04Z</time>
				</trkpt>
				<trkpt lat="45.112470" lon="2.675430">
					<ele>1558</ele>
					<time>2018-06-25T04:20:04Z</time>
				</trkpt>
				<trkpt lat="45.112520" lon="2.675260">
					<ele>1559</ele>
					<time>2018-06-25T04:21:04Z</time>
				</trkpt>
				<trkpt lat="45.112560" lon="2.675070">
					<ele>1561</ele>
					<time>2018-06-25T04:22:04Z</time>
				</trkpt>
				<trkpt lat="45.112610" lon="2.674860">
					<ele>1565</ele>
					<time>2018-06-25T04:23:04Z</time>
				</trkpt>
				<trkpt lat="45.112620" lon="2.674830">
					<ele>1565</ele>
					<time>2018-06-25T04:24:04Z</time>
				</trkpt>
				<trkpt lat="45.112660" lon="2.674650">
					<ele>1568</ele>
					<time>2018-06-25T04:25:04Z</time>
				</trkpt>
				<trkpt lat="45.112740" lon="2.674440">
					<ele>1570</ele>
					<time>2018-06-25T04:26:04Z</time>
				</trkpt>
				<trkpt lat="45.112810" lon="2.674220">
					<ele>1572</ele>
					<time>2018-06-25T04:27:04Z</time>
				</trkpt>
				<trkpt lat="45.112870" lon="2.674060">
					<ele>1573</ele>
					<time>2018-06-25T04:28:04Z</time>
				</trkpt>
				<trkpt lat="45.112960" lon="2.673880">
					<ele>1574</ele>
					<time>2018-06-25T04:29:04Z</time>
				</trkpt>
				<trkpt lat="45.113040" lon="2.673700">
					<ele>1574</ele>
					<time>2018-06-25T04:30:04Z</time>
				</trkpt>
				<trkpt lat="45.113120" lon="2.673510">
					<ele>1576</ele>
					<time>2018-06-25T04:31:04Z</time>
				</trkpt>
				<trkpt lat="45.113190" lon="2.673280">
					<ele>1578</ele>
					<time>2018-06-25T04:32:04Z</time>
				</trkpt>
				<trkpt lat="45.113280" lon="2.673010">
					<ele>1579</ele>
					<time>2018-06-25T04:33:04Z</time>
				</trkpt>
				<trkpt lat="45.113370" lon="2.672830">
					<ele>1580</ele>
					<time>2018-06-25T04:34:04Z</time>
				</trkpt>
				<trkpt lat="45.113410" lon="2.672730">
					<ele>1581</ele>
					<time>2018-06-25T04:35:04Z</time>
				</trkpt>
				<trkpt lat="45.113460" lon="2.672650">
					<ele>1582</ele>
					<time>2018-06-25T04:36:04Z</time>
				</trkpt>
				<trkpt lat="45.113560" lon="2.672510">
					<ele>1583</ele>
					<time>2018-06-25T04:37:04Z</time>
				</trkpt>
				<trkpt lat="45.113650" lon="2.672400">
					<ele>1580</ele>
					<time>2018-06-25T04:38:04Z</time>
				</trkpt>
				<trkpt lat="45.113780" lon="2.672250">
					<ele>1577</ele>
					<time>2018-06-25T04:39:04Z</time>
				</trkpt>
				<trkpt lat="45.113880" lon="2.672150">
					<ele>1576</ele>
					<time>2018-06-25T04:40:04Z</time>
				</trkpt>
				<trkpt lat="45.113960" lon="2.672070">
					<ele>1576</ele>
					<time>2018-06-25T04:41:04Z</time>
				</trkpt>
				<trkpt lat="45.114030" lon="2.671990">
					<ele>1576</ele>
					<time>2018-06-25T04:42:04Z</time>
				</trkpt>
				<trkpt lat="45.114070" lon="2.671930">
					<ele>1576</ele>
					<time>2018-06-25T04:43:04Z</time>
				</trkpt>
				<trkpt lat="45.114090" lon="2.671890">
					<ele>1576</ele>
					<time>2018-06-25T04:44:04Z</time>
				</trkpt>
				<trkpt lat="45.114110" lon="2.671840">
					<ele>1577</ele>
					<time>2018-06-25T04:45:04Z</time>
				</trkpt>
				<trkpt lat="45.114130" lon="2.671780">
					<ele>1578</ele>
					<time>2018-06-25T04:46:04Z</time>
				</trkpt>
				<trkpt lat="45.114140" lon="2.671740">
					<ele>1578</ele>
					<time>2018-06-25T04:47:04Z</time>
				</trkpt>
				<trkpt lat="45.114190" lon="2.671680">
					<ele>1579</ele>
					<time>2018-06-25T04:48:04Z</time>
				</trkpt>
				<trkpt lat="45.114310" lon="2.671580">
					<ele>1575</ele>
					<time>2018-06-25T04:49:04Z</time>
				</trkpt>
				<trkpt lat="45.114460" lon="2.671440">
					<ele>1572</ele>
					<time>2018-06-25T04:50:04Z</time>
				</trkpt>
				<trkpt lat="45.114610" lon="2.671290">
					<ele>1569</ele>
					<time>2018-06-25T04:51:04Z</time>
				</trkpt>
				<trkpt lat="45.114790" lon="2.671110">
					<ele>1569</ele>
					<time>2018-06-25T04:52:04Z</time>
				</trkpt>
				<trkpt lat="45.115060" lon="2.670830">
					<ele>1573</ele>
					<time>2018-06-25T04:53:04Z</time>
				</trkpt>
				<trkpt lat="45.115150" lon="2.670730">
					<ele>1573</ele>
					<time>2018-06-25T04:54:04Z</time>
				</trkpt>
				<trkpt lat="45.115220" lon="2.670630">
					<ele>1572</ele>
					<time>2018-06-25T04:55:04Z</time>
				</trkpt>
				<trkpt lat="45.115420" lon="2.670310">
					<ele>1568</ele>
					<time>2018-06-25T04:56:04Z</time>
				</trkpt>
				<trkpt lat="45.115600" lon="2.669990">
					<ele>1566</ele>
					<time>2018-06-25T04:57:04Z</time>
				</trkpt>
				<trkpt lat="45.115620" lon="2.669950">
					<ele>1566</ele>
					<time>2018-06-25T04:58:04Z</time>
				</trkpt>
				<trkpt lat="45.115620" lon="2.669950">
					<ele>1566</ele>
					<time>2018-06-25T04:59:04Z</time>
				</trkpt>
				<trkpt lat="45.115740" lon="2.669710">
					<ele>1564</ele>
					<time>2018-06-25T05:00:04Z</time>
				</trkpt>
				<trkpt lat="45.115840" lon="2.669490">
					<ele>1561</ele>
					<time>2018-06-25T05:01:04Z</time>
				</trkpt>
				<trkpt lat="45.115910" lon="2.669280">
					<ele>1559</ele>
					<time>2018-06-25T05:02:04Z</time>
				</trkpt>
				<trkpt lat="45.115930" lon="2.669190">
					<ele>1557</ele>
					<time>2018-06-25T05:03:04Z</time>
				</trkpt>
				<trkpt lat="45.115940" lon="2.669110">
					<ele>1555</ele>
					<time>2018-06-25T05:04:04Z</time>
				</trkpt>
				<trkpt lat="45.115940" lon="2.669010">
					<ele>1553</ele>
					<time>2018-06-25T05:05:04Z</time>
				</trkpt>
				<trkpt lat="45.115950" lon="2.668940">
					<ele>1552</ele>
					<time>2018-06-25T05:06:04Z</time>
				</trkpt>
				<trkpt lat="45.116070" lon="2.668760">
					<ele>1553</ele>
					<time>2018-06-25T05:07:04Z</time>
				</trkpt>
				<trkpt lat="45.116130" lon="2.668680">
					<ele>1553</ele>
					<time>2018-06-25T05:08:04Z</time>
				</trkpt>
				<trkpt lat="45.116160" lon="2.668590">
					<ele>1553</ele>
					<time>2018-06-25T05:09:04Z</time>
				</trkpt>
				<trkpt lat="45.116190" lon="2.668500">
					<ele>1552</ele>
					<time>2018-06-25T05:10:04Z</time>
				</trkpt>
				<trkpt lat="45.116220" lon="2.668420">
					<ele>1551</ele>
					<time>2018-06-25T05:11:04Z</time>
				</trkpt>
				<trkpt lat="45.116260" lon="2.668250">
					<ele>1549</ele>
					<time>2018-06-25T05:12:04Z</time>
				</trkpt>
				<trkpt lat="45.116310" lon="2.668030">
					<ele>1547</ele>
					<time>2018-06-25T05:13:04Z</time>
				</trkpt>
				<trkpt lat="45.116360" lon="2.667750">
					<ele>1543</ele>
					<time>2018-06-25T05:14:04Z</time>
				</trkpt>
				<trkpt lat="45.116390" lon="2.667520">
					<ele>1539</ele>
					<time>2018-06-25T05:15:04Z</time>
				</trkpt>
				<trkpt lat="45.116410" lon="2.667350">
					<ele>1535</ele>
					<time>2018-06-25T05:16:04Z</time>
				</trkpt>
				<trkpt lat="45.116440" lon="2.667150">
					<ele>1531</ele>
					<time>2018-06-25T05:17:04Z</time>
				</trkpt>
				<trkpt lat="45.116490" lon="2.666940">
					<ele>1527</ele>
					<time>2018-06-25T05:18:04Z</time>
				</trkpt>
				<trkpt lat="45.116530" lon="2.666740">
					<ele>1523</ele>
					<time>2018-06-25T05:19:04Z</time>
				</trkpt>
				<trkpt lat="45.116590" lon="2.666570">
					<ele>1520</ele>
					<time>2018-06-25T05:20:04Z</time>
				</trkpt>
				<trkpt lat="45.116630" lon="2.666460">
					<ele>1518</ele>
					<time>2018-06-25T05:21:04Z</time>
				</trkpt>
				<trkpt lat="45.116680" lon="2.666360">
					<ele>1515</ele>
					<time>2018-06-25T05:22:04Z</time>
				</trkpt>
				<trkpt lat="45.116700" lon="2.666310">
					<ele>1514</ele>
					<time>2018-06-25T05:23:04Z</time>
				</trkpt>
				<trkpt lat="45.116820" lon="2.666170">
					<ele>1510</ele>
					<time>2018-06-25T05:24:04Z</time>
				</trkpt>
				<trkpt lat="45.116870" lon="2.666110">
					<ele>1508</ele>
					<time>2018-06-25T05:25:04Z</time>
				</trkpt>
				<trkpt lat="45.116930" lon="2.666060">
					<ele>1507</ele>
					<time>2018-06-25T05:26:04Z</time>
				</trkpt>
				<trkpt lat="45.116960" lon="2.666030">
					<ele>1506</ele>
					<time>2018-06-25T05:27:04Z</time>
				</trkpt>
				<trkpt lat="45.117040" lon="2.665980">
					<ele>1505</ele>
					<time>2018-06-25T05:28:04Z</time>
				</trkpt>
				<trkpt lat="45.117110" lon="2.665950">
					<ele>1505</ele>
					<time>2018-06-25T05:29:04Z</time>
				</trkpt>
				<trkpt lat="45.117160" lon="2.665930">
					<ele>1505</ele>
					<time>2018-06-25T05:30:04Z</time>
				</trkpt>
				<trkpt lat="45.117220" lon="2.665930">
					<ele>1505</ele>
					<time>2018-06-25T05:31:04Z</time>
				</trkpt>
				<trkpt lat="45.117300" lon="2.665920">
					<ele>1506</ele>
					<time>2018-06-25T05:32:04Z</time>
				</trkpt>
				<trkpt lat="45.117400" lon="2.665940">
					<ele>1508</ele>
					<time>2018-06-25T05:33:04Z</time>
				</trkpt>
				<trkpt lat="45.117480" lon="2.665970">
					<ele>1510</ele>
					<time>2018-06-25T05:34:04Z</time>
				</trkpt>
				<trkpt lat="45.117610" lon="2.666040">
					<ele>1511</ele>
					<time>2018-06-25T05:35:04Z</time>
				</trkpt>
				<trkpt lat="45.117680" lon="2.666100">
					<ele>1513</ele>
					<time>2018-06-25T05:36:04Z</time>
				</trkpt>
				<trkpt lat="45.117700" lon="2.666100">
					<ele>1512</ele>
					<time>2018-06-25T05:37:04Z</time>
				</trkpt>
				<trkpt lat="45.117800" lon="2.666150">
					<ele>1513</ele>
					<time>2018-06-25T05:38:04Z</time>
				</trkpt>
				<trkpt lat="45.117900" lon="2.666190">
					<ele>1512</ele>
					<time>2018-06-25T05:39:04Z</time>
				</trkpt>
				<trkpt lat="45.118000" lon="2.666210">
					<ele>1511</ele>
					<time>2018-06-25T05:40:04Z</time>
				</trkpt>
				<trkpt lat="45.118090" lon="2.666220">
					<ele>1510</ele>
					<time>2018-06-25T05:41:04Z</time>
				</trkpt>
				<trkpt lat="45.118180" lon="2.666230">
					<ele>1508</ele>
					<time>2018-06-25T05:42:04Z</time>
				</trkpt>
				<trkpt lat="45.118250" lon="2.666240">
					<ele>1507</ele>
					<time>2018-06-25T05:43:04Z</time>
				</trkpt>
				<trkpt lat="45.118370" lon="2.666230">
					<ele>1505</ele>
					<time>2018-06-25T05:44:04Z</time>
				</trkpt>
				<trkpt lat="45.118540" lon="2.666200">
					<ele>1502</ele>
					<time>2018-06-25T05:45:04Z</time>
				</trkpt>
				<trkpt lat="45.118670" lon="2.666180">
					<ele>1499</ele>
					<time>2018-06-25T05:46:04Z</time>
				</trkpt>
				<trkpt lat="45.118830" lon="2.666170">
					<ele>1497</ele>
					<time>2018-06-25T05:47:04Z</time>
				</trkpt>
				<trkpt lat="45.118930" lon="2.666160">
					<ele>1496</ele>
					<time>2018-06-25T05:48:04Z</time>
				</trkpt>
				<trkpt lat="45.119140" lon="2.666170">
					<ele>1495</ele>
					<time>2018-06-25T05:49:04Z</time>
				</trkpt>
				<trkpt lat="45.119290" lon="2.666160">
					<ele>1494</ele>
					<time>2018-06-25T05:50:04Z</time>
				</trkpt>
				<trkpt lat="45.119340" lon="2.666140">
					<ele>1493</ele>
					<time>2018-06-25T05:51:04Z</time>
				</trkpt>
				<trkpt lat="45.119360" lon="2.666130">
					<ele>1492</ele>
					<time>2018-06-25T05:52:04Z</time>
				</trkpt>
				<trkpt lat="45.119370" lon="2.666130">
					<ele>1492</ele>
					<time>2018-06-25T05:53:04Z</time>
				</trkpt>
				<trkpt lat="45.119380" lon="2.666120">
					<ele>1492</ele>
					<time>2018-06-25T05:54:04Z</time>
				</trkpt>
				<trkpt lat="45.119380" lon="2.666110">
					<ele>1491</ele>
					<time>2018-06-25T05:55:04Z</time>
				</trkpt>
				<trkpt lat="45.119390" lon="2.666100">
					<ele>1491</ele>
					<time>2018-06-25T05:56:04Z</time>
				</trkpt>
				<trkpt lat="45.119390" lon="2.666090">
					<ele>1490</ele>
					<time>2018-06-25T05:57:04Z</time>
				</trkpt>
				<trkpt lat="45.119390" lon="2.666080">
					<ele>1490</ele>
					<time>2018-06-25T05:58:04Z</time>
				</trkpt>
				<trkpt lat="45.119390" lon="2.666060">
					<ele>1489</ele>
					<time>2018-06-25T05:59:04Z</time>
				</trkpt>
				<trkpt lat="45.119390" lon="2.666040">
					<ele>1488</ele>
					<time>2018-06-25T06:00:04Z</time>
				</trkpt>
				<trkpt lat="45.119380" lon="2.666020">
					<ele>1487</ele>
					<time>2018-06-25T06:01:04Z</time>
				</trkpt>
				<trkpt lat="45.119370" lon="2.666010">
					<ele>1486</ele>
					<time>2018-06-25T06:02:04Z</time>
				</trkpt>
				<trkpt lat="45.119360" lon="2.665990">
					<ele>1485</ele>
					<time>2018-06-25T06:03:04Z</time>
				</trkpt>
				<trkpt lat="45.119340" lon="2.665980">
					<ele>1485</ele>
					<time>2018-06-25T06:04:04Z</time>
				</trkpt>
				<trkpt lat="45.119320" lon="2.665970">
					<ele>1484</ele>
					<time>2018-06-25T06:05:04Z</time>
				</trkpt>
				<trkpt lat="45.119270" lon="2.665960">
					<ele>1484</ele>
					<time>2018-06-25T06:06:04Z</time>
				</trkpt>
				<trkpt lat="45.118950" lon="2.665890">
					<ele>1482</ele>
					<time>2018-06-25T06:07:04Z</time>
				</trkpt>
				<trkpt lat="45.118830" lon="2.665840">
					<ele>1481</ele>
					<time>2018-06-25T06:08:04Z</time>
				</trkpt>
				<trkpt lat="45.118670" lon="2.665760">
					<ele>1479</ele>
					<time>2018-06-25T06:09:04Z</time>
				</trkpt>
				<trkpt lat="45.118440" lon="2.665620">
					<ele>1475</ele>
					<time>2018-06-25T06:10:04Z</time>
				</trkpt>
				<trkpt lat="45.118300" lon="2.665520">
					<ele>1473</ele>
					<time>2018-06-25T06:11:04Z</time>
				</trkpt>
				<trkpt lat="45.118170" lon="2.665400">
					<ele>1470</ele>
					<time>2018-06-25T06:12:04Z</time>
				</trkpt>
				<trkpt lat="45.118020" lon="2.665260">
					<ele>1467</ele>
					<time>2018-06-25T06:13:04Z</time>
				</trkpt>
				<trkpt lat="45.117860" lon="2.665100">
					<ele>1463</ele>
					<time>2018-06-25T06:14:04Z</time>
				</trkpt>
				<trkpt lat="45.117830" lon="2.665060">
					<ele>1462</ele>
					<time>2018-06-25T06:15:04Z</time>
				</trkpt>
				<trkpt lat="45.117690" lon="2.664910">
					<ele>1459</ele>
					<time>2018-06-25T06:16:04Z</time>
				</trkpt>
				<trkpt lat="45.117580" lon="2.664780">
					<ele>1456</ele>
					<time>2018-06-25T06:17:04Z</time>
				</trkpt>
				<trkpt lat="45.117510" lon="2.664730">
					<ele>1455</ele>
					<time>2018-06-25T06:18:04Z</time>
				</trkpt>
				<trkpt lat="45.117460" lon="2.664690">
					<ele>1454</ele>
					<time>2018-06-25T06:19:04Z</time>
				</trkpt>
				<trkpt lat="45.117380" lon="2.664640">
					<ele>1452</ele>
					<time>2018-06-25T06:20:04Z</time>
				</trkpt>
				<trkpt lat="45.117290" lon="2.664580">
					<ele>1450</ele>
					<time>2018-06-25T06:21:04Z</time>
				</trkpt>
				<trkpt lat="45.117250" lon="2.664540">
					<ele>1448</ele>
					<time>2018-06-25T06:22:04Z</time>
				</trkpt>
				<trkpt lat="45.117140" lon="2.664400">
					<ele>1443</ele>
					<time>2018-06-25T06:23:04Z</time>
				</trkpt>
				<trkpt lat="45.117100" lon="2.664340">
					<ele>1440</ele>
					<time>2018-06-25T06:24:04Z</time>
				</trkpt>
				<trkpt lat="45.117040" lon="2.664270">
					<ele>1438</ele>
					<time>2018-06-25T06:25:04Z</time>
				</trkpt>
				<trkpt lat="45.116890" lon="2.664130">
					<ele>1433</ele>
					<time>2018-06-25T06:26:04Z</time>
				</trkpt>
				<trkpt lat="45.116760" lon="2.664020">
					<ele>1430</ele>
					<time>2018-06-25T06:27:04Z</time>
				</trkpt>
				<trkpt lat="45.116730" lon="2.664000">
					<ele>1430</ele>
					<time>2018-06-25T06:28:04Z</time>
				</trkpt>
				<trkpt lat="45.116700" lon="2.663990">
					<ele>1430</ele>
					<time>2018-06-25T06:29:04Z</time>
				</trkpt>
				<trkpt lat="45.116670" lon="2.663970">
					<ele>1429</ele>
					<time>2018-06-25T06:30:04Z</time>
				</trkpt>
				<trkpt lat="45.116620" lon="2.663960">
					<ele>1428</ele>
					<time>2018-06-25T06:31:04Z</time>
				</trkpt>
				<trkpt lat="45.116560" lon="2.663950">
					<ele>1426</ele>
					<time>2018-06-25T06:32:04Z</time>
				</trkpt>
				<trkpt lat="45.116500" lon="2.663950">
					<ele>1425</ele>
					<time>2018-06-25T06:33:04Z</time>
				</trkpt>
				<trkpt lat="45.116440" lon="2.663970">
					<ele>1424</ele>
					<time>2018-06-25T06:34:04Z</time>
				</trkpt>
				<trkpt lat="45.116390" lon="2.663990">
					<ele>1423</ele>
					<time>2018-06-25T06:35:04Z</time>
				</trkpt>
				<trkpt lat="45.116280" lon="2.664050">
					<ele>1423</ele>
					<time>2018-06-25T06:36:04Z</time>
				</trkpt>
				<trkpt lat="45.116130" lon="2.664150">
					<ele>1422</ele>
					<time>2018-06-25T06:37:04Z</time>
				</trkpt>
				<trkpt lat="45.116000" lon="2.664260">
					<ele>1422</ele>
					<time>2018-06-25T06:38:04Z</time>
				</trkpt>
				<trkpt lat="45.115630" lon="2.664460">
					<ele>1420</ele>
					<time>2018-06-25T06:39:04Z</time>
				</trkpt>
				<trkpt lat="45.115290" lon="2.664640">
					<ele>1417</ele>
					<time>2018-06-25T06:40:04Z</time>
				</trkpt>
				<trkpt lat="45.115090" lon="2.664770">
					<ele>1416</ele>
					<time>2018-06-25T06:41:04Z</time>
				</trkpt>
				<trkpt lat="45.115000" lon="2.664830">
					<ele>1416</ele>
					<time>2018-06-25T06:42:04Z</time>
				</trkpt>
				<trkpt lat="45.114870" lon="2.664900">
					<ele>1412</ele>
					<time>2018-06-25T06:43:04Z</time>
				</trkpt>
				<trkpt lat="45.114750" lon="2.664930">
					<ele>1408</ele>
					<time>2018-06-25T06:44:04Z</time>
				</trkpt>
				<trkpt lat="45.114550" lon="2.665020">
					<ele>1403</ele>
					<time>2018-06-25T06:45:04Z</time>
				</trkpt>
				<trkpt lat="45.114410" lon="2.665120">
					<ele>1400</ele>
					<time>2018-06-25T06:46:04Z</time>
				</trkpt>
				<trkpt lat="45.113840" lon="2.665610">
					<ele>1392</ele>
					<time>2018-06-25T06:47:04Z</time>
				</trkpt>
				<trkpt lat="45.113620" lon="2.665790">
					<ele>1390</ele>
					<time>2018-06-25T06:48:04Z</time>
				</trkpt>
				<trkpt lat="45.113240" lon="2.666060">
					<ele>1388</ele>
					<time>2018-06-25T06:49:04Z</time>
				</trkpt>
				<trkpt lat="45.113020" lon="2.666190">
					<ele>1387</ele>
					<time>2018-06-25T06:50:04Z</time>
				</trkpt>
				<trkpt lat="45.112810" lon="2.666280">
					<ele>1385</ele>
					<time>2018-06-25T06:51:04Z</time>
				</trkpt>
				<trkpt lat="45.112580" lon="2.666340">
					<ele>1382</ele>
					<time>2018-06-25T06:52:04Z</time>
				</trkpt>
				<trkpt lat="45.112370" lon="2.666380">
					<ele>1378</ele>
					<time>2018-06-25T06:53:04Z</time>
				</trkpt>
				<trkpt lat="45.112250" lon="2.666420">
					<ele>1375</ele>
					<time>2018-06-25T06:54:04Z</time>
				</trkpt>
				<trkpt lat="45.112100" lon="2.666520">
					<ele>1375</ele>
					<time>2018-06-25T06:55:04Z</time>
				</trkpt>
				<trkpt lat="45.111840" lon="2.666680">
					<ele>1373</ele>
					<time>2018-06-25T06:56:04Z</time>
				</trkpt>
				<trkpt lat="45.111690" lon="2.666750">
					<ele>1371</ele>
					<time>2018-06-25T06:57:04Z</time>
				</trkpt>
				<trkpt lat="45.111550" lon="2.666760">
					<ele>1368</ele>
					<time>2018-06-25T06:58:04Z</time>
				</trkpt>
				<trkpt lat="45.111410" lon="2.666770">
					<ele>1365</ele>
					<time>2018-06-25T06:59:04Z</time>
				</trkpt>
				<trkpt lat="45.111300" lon="2.666810">
					<ele>1365</ele>
					<time>2018-06-25T07:00:04Z</time>
				</trkpt>
				<trkpt lat="45.111110" lon="2.666900">
					<ele>1364</ele>
					<time>2018-06-25T07:01:04Z</time>
				</trkpt>
				<trkpt lat="45.110950" lon="2.666950">
					<ele>1362</ele>
					<time>2018-06-25T07:02:04Z</time>
				</trkpt>
				<trkpt lat="45.110770" lon="2.667000">
					<ele>1360</ele>
					<time>2018-06-25T07:03:04Z</time>
				</trkpt>
				<trkpt lat="45.110510" lon="2.667040">
					<ele>1355</ele>
					<time>2018-06-25T07:04:04Z</time>
				</trkpt>
				<trkpt lat="45.110350" lon="2.667060">
					<ele>1353</ele>
					<time>2018-06-25T07:05:04Z</time>
				</trkpt>
				<trkpt lat="45.110210" lon="2.667100">
					<ele>1351</ele>
					<time>2018-06-25T07:06:04Z</time>
				</trkpt>
				<trkpt lat="45.110120" lon="2.667160">
					<ele>1351</ele>
					<time>2018-06-25T07:07:04Z</time>
				</trkpt>
				<trkpt lat="45.110050" lon="2.667190">
					<ele>1351</ele>
					<time>2018-06-25T07:08:04Z</time>
				</trkpt>
				<trkpt lat="45.109970" lon="2.667190">
					<ele>1350</ele>
					<time>2018-06-25T07:09:04Z</time>
				</trkpt>
				<trkpt lat="45.109920" lon="2.667170">
					<ele>1350</ele>
					<time>2018-06-25T07:10:04Z</time>
				</trkpt>
				<trkpt lat="45.109850" lon="2.667110">
					<ele>1348</ele>
					<time>2018-06-25T07:11:04Z</time>
				</trkpt>
				<trkpt lat="45.109780" lon="2.667010">
					<ele>1345</ele>
					<time>2018-06-25T07:12:04Z</time>
				</trkpt>
				<trkpt lat="45.109710" lon="2.666930">
					<ele>1343</ele>
					<time>2018-06-25T07:13:04Z</time>
				</trkpt>
				<trkpt lat="45.109580" lon="2.666830">
					<ele>1341</ele>
					<time>2018-06-25T07:14:04Z</time>
				</trkpt>
				<trkpt lat="45.109460" lon="2.666760">
					<ele>1339</ele>
					<time>2018-06-25T07:15:04Z</time>
				</trkpt>
				<trkpt lat="45.109370" lon="2.666690">
					<ele>1338</ele>
					<time>2018-06-25T07:16:04Z</time>
				</trkpt>
				<trkpt lat="45.109310" lon="2.666620">
					<ele>1336</ele>
					<time>2018-06-25T07:17:04Z</time>
				</trkpt>
				<trkpt lat="45.109240" lon="2.666520">
					<ele>1335</ele>
					<time>2018-06-25T07:18:04Z</time>
				</trkpt>
				<trkpt lat="45.109110" lon="2.666270">
					<ele>1332</ele>
					<time>2018-06-25T07:19:04Z</time>
				</trkpt>
				<trkpt lat="45.109050" lon="2.666170">
					<ele>1332</ele>
					<time>2018-06-25T07:20:04Z</time>
				</trkpt>
				<trkpt lat="45.108950" lon="2.665970">
					<ele>1331</ele>
					<time>2018-06-25T07:21:04Z</time>
				</trkpt>
				<trkpt lat="45.108860" lon="2.665800">
					<ele>1330</ele>
					<time>2018-06-25T07:22:04Z</time>
				</trkpt>
				<trkpt lat="45.108660" lon="2.665500">
					<ele>1330</ele>
					<time>2018-06-25T07:23:04Z</time>
				</trkpt>
				<trkpt lat="45.108540" lon="2.665320">
					<ele>1331</ele>
					<time>2018-06-25T07:24:04Z</time>
				</trkpt>
				<trkpt lat="45.108430" lon="2.665130">
					<ele>1331</ele>
					<time>2018-06-25T07:25:04Z</time>
				</trkpt>
				<trkpt lat="45.108380" lon="2.665010">
					<ele>1331</ele>
					<time>2018-06-25T07:26:04Z</time>
				</trkpt>
				<trkpt lat="45.108380" lon="2.664920">
					<ele>1330</ele>
					<time>2018-06-25T07:27:04Z</time>
				</trkpt>
				<trkpt lat="45.108370" lon="2.664730">
					<ele>1330</ele>
					<time>2018-06-25T07:28:04Z</time>
				</trkpt>
				<trkpt lat="45.108370" lon="2.664590">
					<ele>1329</ele>
					<time>2018-06-25T07:29:04Z</time>
				</trkpt>
				<trkpt lat="45.108400" lon="2.664460">
					<ele>1328</ele>
					<time>2018-06-25T07:30:04Z</time>
				</trkpt>
				<trkpt lat="45.108430" lon="2.664310">
					<ele>1326</ele>
					<time>2018-06-25T07:31:04Z</time>
				</trkpt>
				<trkpt lat="45.108480" lon="2.664150">
					<ele>1324</ele>
					<time>2018-06-25T07:32:04Z</time>
				</trkpt>
				<trkpt lat="45.108540" lon="2.664000">
					<ele>1324</ele>
					<time>2018-06-25T07:33:04Z</time>
				</trkpt>
				<trkpt lat="45.108590" lon="2.663860">
					<ele>1325</ele>
					<time>2018-06-25T07:34:04Z</time>
				</trkpt>
				<trkpt lat="45.108660" lon="2.663690">
					<ele>1325</ele>
					<time>2018-06-25T07:35:04Z</time>
				</trkpt>
				<trkpt lat="45.108710" lon="2.663580">
					<ele>1324</ele>
					<time>2018-06-25T07:36:04Z</time>
				</trkpt>
				<trkpt lat="45.108760" lon="2.663500">
					<ele>1324</ele>
					<time>2018-06-25T07:37:04Z</time>
				</trkpt>
				<trkpt lat="45.108940" lon="2.663180">
					<ele>1323</ele>
					<time>2018-06-25T07:38:04Z</time>
				</trkpt>
				<trkpt lat="45.108990" lon="2.663090">
					<ele>1323</ele>
					<time>2018-06-25T07:39:04Z</time>
				</trkpt>
				<trkpt lat="45.109070" lon="2.662990">
					<ele>1321</ele>
					<time>2018-06-25T07:40:04Z</time>
				</trkpt>
				<trkpt lat="45.109170" lon="2.662860">
					<ele>1320</ele>
					<time>2018-06-25T07:41:04Z</time>
				</trkpt>
				<trkpt lat="45.109260" lon="2.662740">
					<ele>1319</ele>
					<time>2018-06-25T07:42:04Z</time>
				</trkpt>
				<trkpt lat="45.109360" lon="2.662610">
					<ele>1318</ele>
					<time>2018-06-25T07:43:04Z</time>
				</trkpt>
				<trkpt lat="45.109480" lon="2.662460">
					<ele>1316</ele>
					<time>2018-06-25T07:44:04Z</time>
				</trkpt>
				<trkpt lat="45.109550" lon="2.662360">
					<ele>1315</ele>
					<time>2018-06-25T07:45:04Z</time>
				</trkpt>
				<trkpt lat="45.109770" lon="2.662100">
					<ele>1312</ele>
					<time>2018-06-25T07:46:04Z</time>
				</trkpt>
				<trkpt lat="45.110010" lon="2.661790">
					<ele>1308</ele>
					<time>2018-06-25T07:47:04Z</time>
				</trkpt>
				<trkpt lat="45.110080" lon="2.661650">
					<ele>1307</ele>
					<time>2018-06-25T07:48:04Z</time>
				</trkpt>
				<trkpt lat="45.110120" lon="2.661450">
					<ele>1308</ele>
					<time>2018-06-25T07:49:04Z</time>
				</trkpt>
				<trkpt lat="45.110160" lon="2.661140">
					<ele>1309</ele>
					<time>2018-06-25T07:50:04Z</time>
				</trkpt>
				<trkpt lat="45.110180" lon="2.660760">
					<ele>1311</ele>
					<time>2018-06-25T07:51:04Z</time>
				</trkpt>
				<trkpt lat="45.110200" lon="2.660430">
					<ele>1310</ele>
					<time>2018-06-25T07:52:04Z</time>
				</trkpt>
				<trkpt lat="45.110190" lon="2.659900">
					<ele>1311</ele>
					<time>2018-06-25T07:53:04Z</time>
				</trkpt>
				<trkpt lat="45.110140" lon="2.659350">
					<ele>1310</ele>
					<time>2018-06-25T07:54:04Z</time>
				</trkpt>
				<trkpt lat="45.110130" lon="2.659090">
					<ele>1309</ele>
					<time>2018-06-25T07:55:04Z</time>
				</trkpt>
				<trkpt lat="45.110120" lon="2.658840">
					<ele>1308</ele>
					<time>2018-06-25T07:56:04Z</time>
				</trkpt>
				<trkpt lat="45.110160" lon="2.658270">
					<ele>1302</ele>
					<time>2018-06-25T07:57:04Z</time>
				</trkpt>
				<trkpt lat="45.110170" lon="2.657750">
					<ele>1299</ele>
					<time>2018-06-25T07:58:04Z</time>
				</trkpt>
				<trkpt lat="45.110170" lon="2.657480">
					<ele>1298</ele>
					<time>2018-06-25T07:59:04Z</time>
				</trkpt>
				<trkpt lat="45.110160" lon="2.657320">
					<ele>1298</ele>
					<time>2018-06-25T08:00:04Z</time>
				</trkpt>
				<trkpt lat="45.110130" lon="2.656930">
					<ele>1298</ele>
					<time>2018-06-25T08:01:04Z</time>
				</trkpt>
				<trkpt lat="45.110120" lon="2.656760">
					<ele>1297</ele>
					<time>2018-06-25T08:02:04Z</time>
				</trkpt>
				<trkpt lat="45.110130" lon="2.656560">
					<ele>1296</ele>
					<time>2018-06-25T08:03:04Z</time>
				</trkpt>
				<trkpt lat="45.110170" lon="2.656290">
					<ele>1295</ele>
					<time>2018-06-25T08:04:04Z</time>
				</trkpt>
				<trkpt lat="45.110190" lon="2.656020">
					<ele>1294</ele>
					<time>2018-06-25T08:05:04Z</time>
				</trkpt>
				<trkpt lat="45.110230" lon="2.655680">
					<ele>1293</ele>
					<time>2018-06-25T08:06:04Z</time>
				</trkpt>
				<trkpt lat="45.110340" lon="2.654920">
					<ele>1289</ele>
					<time>2018-06-25T08:07:04Z</time>
				</trkpt>
				<trkpt lat="45.110350" lon="2.654830">
					<ele>1288</ele>
					<time>2018-06-25T08:08:04Z</time>
				</trkpt>
				<trkpt lat="45.110350" lon="2.654810">
					<ele>1288</ele>
					<time>2018-06-25T08:09:04Z</time>
				</trkpt>
				<trkpt lat="45.110360" lon="2.654670">
					<ele>1287</ele>
					<time>2018-06-25T08:10:04Z</time>
				</trkpt>
				<trkpt lat="45.110370" lon="2.654650">
					<ele>1287</ele>
					<time>2018-06-25T08:11:04Z</time>
				</trkpt>
				<trkpt lat="45.110450" lon="2.654420">
					<ele>1282</ele>
					<time>2018-06-25T08:12:04Z</time>
				</trkpt>
				<trkpt lat="45.110490" lon="2.654160">
					<ele>1280</ele>
					<time>2018-06-25T08:13:04Z</time>
				</trkpt>
				<trkpt lat="45.110540" lon="2.653800">
					<ele>1279</ele>
					<time>2018-06-25T08:14:04Z</time>
				</trkpt>
				<trkpt lat="45.110560" lon="2.653600">
					<ele>1280</ele>
					<time>2018-06-25T08:15:04Z</time>
				</trkpt>
				<trkpt lat="45.110560" lon="2.653520">
					<ele>1280</ele>
					<time>2018-06-25T08:16:04Z</time>
				</trkpt>
				<trkpt lat="45.110570" lon="2.653450">
					<ele>1280</ele>
					<time>2018-06-25T08:17:04Z</time>
				</trkpt>
				<trkpt lat="45.110570" lon="2.653420">
					<ele>1280</ele>
					<time>2018-06-25T08:18:04Z</time>
				</trkpt>
				<trkpt lat="45.110580" lon="2.653380">
					<ele>1280</ele>
					<time>2018-06-25T08:19:04Z</time>
				</trkpt>
				<trkpt lat="45.110590" lon="2.653340">
					<ele>1280</ele>
					<time>2018-06-25T08:20:04Z</time>
				</trkpt>
				<trkpt lat="45.110600" lon="2.653320">
					<ele>1280</ele>
					<time>2018-06-25T08:21:04Z</time>
				</trkpt>
				<trkpt lat="45.110610" lon="2.653300">
					<ele>1280</ele>
					<time>2018-06-25T08:22:04Z</time>
				</trkpt>
				<trkpt lat="45.110640" lon="2.653230">
					<ele>1280</ele>
					<time>2018-06-25T08:23:04Z</time>
				</trkpt>
				<trkpt lat="45.110660" lon="2.653200">
					<ele>1279</ele>
					<time>2018-06-25T08:24:04Z</time>
				</trkpt>
				<trkpt lat="45.110690" lon="2.653160">
					<ele>1278</ele>
					<time>2018-06-25T08:25:04Z</time>
				</trkpt>
				<trkpt lat="45.110730" lon="2.653130">
					<ele>1277</ele>
					<time>2018-06-25T08:26:04Z</time>
				</trkpt>
				<trkpt lat="45.110770" lon="2.653090">
					<ele>1276</ele>
					<time>2018-06-25T08:27:04Z</time>
				</trkpt>
				<trkpt lat="45.110810" lon="2.653060">
					<ele>1274</ele>
					<time>2018-06-25T08:28:04Z</time>
				</trkpt>
				<trkpt lat="45.110850" lon="2.653040">
					<ele>1273</ele>
					<time>2018-06-25T08:29:04Z</time>
				</trkpt>
				<trkpt lat="45.110900" lon="2.652990">
					<ele>1272</ele>
					<time>2018-06-25T08:30:04Z</time>
				</trkpt>
				<trkpt lat="45.110940" lon="2.652950">
					<ele>1271</ele>
					<time>2018-06-25T08:31:04Z</time>
				</trkpt>
				<trkpt lat="45.110980" lon="2.652890">
					<ele>1270</ele>
					<time>2018-06-25T08:32:04Z</time>
				</trkpt>
				<trkpt lat="45.111010" lon="2.652820">
					<ele>1270</ele>
					<time>2018-06-25T08:33:04Z</time>
				</trkpt>
				<trkpt lat="45.111050" lon="2.652760">
					<ele>1269</ele>
					<time>2018-06-25T08:34:04Z</time>
				</trkpt>
				<trkpt lat="45.111080" lon="2.652660">
					<ele>1269</ele>
					<time>2018-06-25T08:35:04Z</time>
				</trkpt>
				<trkpt lat="45.111140" lon="2.652520">
					<ele>1269</ele>
					<time>2018-06-25T08:36:04Z</time>
				</trkpt>
				<trkpt lat="45.111200" lon="2.652370">
					<ele>1269</ele>
					<time>2018-06-25T08:37:04Z</time>
				</trkpt>
				<trkpt lat="45.111280" lon="2.652190">
					<ele>1269</ele>
					<time>2018-06-25T08:38:04Z</time>
				</trkpt>
				<trkpt lat="45.111410" lon="2.651930">
					<ele>1268</ele>
					<time>2018-06-25T08:39:04Z</time>
				</trkpt>
				<trkpt lat="45.111510" lon="2.651720">
					<ele>1267</ele>
					<time>2018-06-25T08:40:04Z</time>
				</trkpt>
				<trkpt lat="45.111610" lon="2.651450">
					<ele>1266</ele>
					<time>2018-06-25T08:41:04Z</time>
				</trkpt>
				<trkpt lat="45.111690" lon="2.651150">
					<ele>1265</ele>
					<time>2018-06-25T08:42:04Z</time>
				</trkpt>
				<trkpt lat="45.111800" lon="2.650860">
					<ele>1265</ele>
					<time>2018-06-25T08:43:04Z</time>
				</trkpt>
				<trkpt lat="45.111900" lon="2.650660">
					<ele>1265</ele>
					<time>2018-06-25T08:44:04Z</time>
				</trkpt>
				<trkpt lat="45.112000" lon="2.650520">
					<ele>1264</ele>
					<time>2018-06-25T08:45:04Z</time>
				</trkpt>
				<trkpt lat="45.112080" lon="2.650410">
					<ele>1263</ele>
					<time>2018-06-25T08:46:04Z</time>
				</trkpt>
				<trkpt lat="45.112210" lon="2.650280">
					<ele>1261</ele>
					<time>2018-06-25T08:47:04Z</time>
				</trkpt>
				<trkpt lat="45.112350" lon="2.650150">
					<ele>1259</ele>
					<time>2018-06-25T08:48:04Z</time>
				</trkpt>
				<trkpt lat="45.112460" lon="2.650050">
					<ele>1257</ele>
					<time>2018-06-25T08:49:04Z</time>
				</trkpt>
				<trkpt lat="45.112500" lon="2.649960">
					<ele>1258</ele>
					<time>2018-06-25T08:50:04Z</time>
				</trkpt>
				<trkpt lat="45.112560" lon="2.649880">
					<ele>1260</ele>
					<time>2018-06-25T08:51:04Z</time>
				</trkpt>
				<trkpt lat="45.112630" lon="2.649840">
					<ele>1259</ele>
					<time>2018-06-25T08:52:04Z</time>
				</trkpt>
				<trkpt lat="45.112680" lon="2.649820">
					<ele>1259</ele>
					<time>2018-06-25T08:53:04Z</time>
				</trkpt>
				<trkpt lat="45.112720" lon="2.649820">
					<ele>1258</ele>
					<time>2018-06-25T08:54:04Z</time>
				</trkpt>
				<trkpt lat="45.112740" lon="2.649820">
					<ele>1257</ele>
					<time>2018-06-25T08:55:04Z</time>
				</trkpt>
				<trkpt lat="45.112770" lon="2.649820">
					<ele>1256</ele>
					<time>2018-06-25T08:56:04Z</time>
				</trkpt>
				<trkpt lat="45.112880" lon="2.649770">
					<ele>1255</ele>
					<time>2018-06-25T08:57:04Z</time>
				</trkpt>
				<trkpt lat="45.112950" lon="2.649730">
					<ele>1255</ele>
					<time>2018-06-25T08:58:04Z</time>
				</trkpt>
				<trkpt lat="45.113070" lon="2.649650">
					<ele>1254</ele>
					<time>2018-06-25T08:59:04Z</time>
				</trkpt>
				<trkpt lat="45.113300" lon="2.649480">
					<ele>1253</ele>
					<time>2018-06-25T09:00:04Z</time>
				</trkpt>
				<trkpt lat="45.113480" lon="2.649340">
					<ele>1252</ele>
					<time>2018-06-25T09:01:04Z</time>
				</trkpt>
				<trkpt lat="45.113790" lon="2.649140">
					<ele>1249</ele>
					<time>2018-06-25T09:02:04Z</time>
				</trkpt>
				<trkpt lat="45.114000" lon="2.649080">
					<ele>1246</ele>
					<time>2018-06-25T09:03:04Z</time>
				</trkpt>
				<trkpt lat="45.114150" lon="2.649030">
					<ele>1244</ele>
					<time>2018-06-25T09:04:04Z</time>
				</trkpt>
				<trkpt lat="45.114430" lon="2.648890">
					<ele>1242</ele>
					<time>2018-06-25T09:05:04Z</time>
				</trkpt>
				<trkpt lat="45.115050" lon="2.648560">
					<ele>1238</ele>
					<time>2018-06-25T09:06:04Z</time>
				</trkpt>
				<trkpt lat="45.115590" lon="2.648220">
					<ele>1236</ele>
					<time>2018-06-25T09:07:04Z</time>
				</trkpt>
				<trkpt lat="45.115660" lon="2.648150">
					<ele>1237</ele>
					<time>2018-06-25T09:08:04Z</time>
				</trkpt>
				<trkpt lat="45.115760" lon="2.648050">
					<ele>1237</ele>
					<time>2018-06-25T09:09:04Z</time>
				</trkpt>
				<trkpt lat="45.115830" lon="2.647990">
					<ele>1237</ele>
					<time>2018-06-25T09:10:04Z</time>
				</trkpt>
				<trkpt lat="45.115900" lon="2.647930">
					<ele>1237</ele>
					<time>2018-06-25T09:11:04Z</time>
				</trkpt>
				<trkpt lat="45.116020" lon="2.647830">
					<ele>1237</ele>
					<time>2018-06-25T09:12:04Z</time>
				</trkpt>
				<trkpt lat="45.116220" lon="2.647730">
					<ele>1235</ele>
					<time>2018-06-25T09:13:04Z</time>
				</trkpt>
				<trkpt lat="45.116390" lon="2.647660">
					<ele>1233</ele>
					<time>2018-06-25T09:14:04Z</time>
				</trkpt>
				<trkpt lat="45.116690" lon="2.647500">
					<ele>1231</ele>
					<time>2018-06-25T09:15:04Z</time>
				</trkpt>
				<trkpt lat="45.116910" lon="2.647370">
					<ele>1229</ele>
					<time>2018-06-25T09:16:04Z</time>
				</trkpt>
				<trkpt lat="45.117010" lon="2.647300">
					<ele>1228</ele>
					<time>2018-06-25T09:17:04Z</time>
				</trkpt>
				<trkpt lat="45.117160" lon="2.647190">
					<ele>1228</ele>
					<time>2018-06-25T09:18:04Z</time>
				</trkpt>
				<trkpt lat="45.117270" lon="2.647110">
					<ele>1227</ele>
					<time>2018-06-25T09:19:04Z</time>
				</trkpt>
				<trkpt lat="45.117430" lon="2.647000">
					<ele>1226</ele>
					<time>2018-06-25T09:20:04Z</time>
				</trkpt>
				<trkpt lat="45.117520" lon="2.646940">
					<ele>1225</ele>
					<time>2018-06-25T09:21:04Z</time>
				</trkpt>
				<trkpt lat="45.117580" lon="2.646930">
					<ele>1224</ele>
					<time>2018-06-25T09:22:04Z</time>
				</trkpt>
				<trkpt lat="45.117630" lon="2.646910">
					<ele>1224</ele>
					<time>2018-06-25T09:23:04Z</time>
				</trkpt>
				<trkpt lat="45.117700" lon="2.646900">
					<ele>1223</ele>
					<time>2018-06-25T09:24:04Z</time>
				</trkpt>
				<trkpt lat="45.117830" lon="2.646880">
					<ele>1220</ele>
					<time>2018-06-25T09:25:04Z</time>
				</trkpt>
				<trkpt lat="45.117940" lon="2.646840">
					<ele>1219</ele>
					<time>2018-06-25T09:26:04Z</time>
				</trkpt>
				<trkpt lat="45.118060" lon="2.646780">
					<ele>1219</ele>
					<time>2018-06-25T09:27:04Z</time>
				</trkpt>
				<trkpt lat="45.118220" lon="2.646660">
					<ele>1219</ele>
					<time>2018-06-25T09:28:04Z</time>
				</trkpt>
				<trkpt lat="45.118440" lon="2.646470">
					<ele>1220</ele>
					<time>2018-06-25T09:29:04Z</time>
				</trkpt>
				<trkpt lat="45.118530" lon="2.646420">
					<ele>1220</ele>
					<time>2018-06-25T09:30:04Z</time>
				</trkpt>
				<trkpt lat="45.118670" lon="2.646360">
					<ele>1219</ele>
					<time>2018-06-25T09:31:04Z</time>
				</trkpt>
				<trkpt lat="45.118800" lon="2.646310">
					<ele>1218</ele>
					<time>2018-06-25T09:32:04Z</time>
				</trkpt>
				<trkpt lat="45.118870" lon="2.646280">
					<ele>1217</ele>
					<time>2018-06-25T09:33:04Z</time>
				</trkpt>
				<trkpt lat="45.119030" lon="2.646180">
					<ele>1217</ele>
					<time>2018-06-25T09:34:04Z</time>
				</trkpt>
				<trkpt lat="45.119080" lon="2.646130">
					<ele>1217</ele>
					<time>2018-06-25T09:35:04Z</time>
				</trkpt>
				<trkpt lat="45.119150" lon="2.646050">
					<ele>1218</ele>
					<time>2018-06-25T09:36:04Z</time>
				</trkpt>
				<trkpt lat="45.119230" lon="2.645950">
					<ele>1218</ele>
					<time>2018-06-25T09:37:04Z</time>
				</trkpt>
				<trkpt lat="45.119340" lon="2.645780">
					<ele>1220</ele>
					<time>2018-06-25T09:38:04Z</time>
				</trkpt>
				<trkpt lat="45.119380" lon="2.645710">
					<ele>1220</ele>
					<time>2018-06-25T09:39:04Z</time>
				</trkpt>
				<trkpt lat="45.119420" lon="2.645650">
					<ele>1221</ele>
					<time>2018-06-25T09:40:04Z</time>
				</trkpt>
				<trkpt lat="45.119510" lon="2.645570">
					<ele>1220</ele>
					<time>2018-06-25T09:41:04Z</time>
				</trkpt>
				<trkpt lat="45.119610" lon="2.645520">
					<ele>1218</ele>
					<time>2018-06-25T09:42:04Z</time>
				</trkpt>
				<trkpt lat="45.119820" lon="2.645370">
					<ele>1216</ele>
					<time>2018-06-25T09:43:04Z</time>
				</trkpt>
				<trkpt lat="45.119910" lon="2.645300">
					<ele>1215</ele>
					<time>2018-06-25T09:44:04Z</time>
				</trkpt>
				<trkpt lat="45.120040" lon="2.645150">
					<ele>1215</ele>
					<time>2018-06-25T09:45:04Z</time>
				</trkpt>
				<trkpt lat="45.120140" lon="2.645060">
					<ele>1214</ele>
					<time>2018-06-25T09:46:04Z</time>
				</trkpt>
				<trkpt lat="45.120440" lon="2.644850">
					<ele>1213</ele>
					<time>2018-06-25T09:47:04Z</time>
				</trkpt>
				<trkpt lat="45.120740" lon="2.644640">
					<ele>1212</ele>
					<time>2018-06-25T09:48:04Z</time>
				</trkpt>
				<trkpt lat="45.120950" lon="2.644510">
					<ele>1211</ele>
					<time>2018-06-25T09:49:04Z</time>
				</trkpt>
				<trkpt lat="45.121240" lon="2.644340">
					<ele>1207</ele>
					<time>2018-06-25T09:50:04Z</time>
				</trkpt>
				<trkpt lat="45.121550" lon="2.644200">
					<ele>1202</ele>
					<time>2018-06-25T09:51:04Z</time>
				</trkpt>
				<trkpt lat="45.121700" lon="2.644110">
					<ele>1200</ele>
					<time>2018-06-25T09:52:04Z</time>
				</trkpt>
				<trkpt lat="45.121810" lon="2.644040">
					<ele>1199</ele>
					<time>2018-06-25T09:53:04Z</time>
				</trkpt>
				<trkpt lat="45.122200" lon="2.643690">
					<ele>1200</ele>
					<time>2018-06-25T09:54:04Z</time>
				</trkpt>
				<trkpt lat="45.122530" lon="2.643410">
					<ele>1199</ele>
					<time>2018-06-25T09:55:04Z</time>
				</trkpt>
				<trkpt lat="45.122800" lon="2.643140">
					<ele>1198</ele>
					<time>2018-06-25T09:56:04Z</time>
				</trkpt>
				<trkpt lat="45.123050" lon="2.642910">
					<ele>1198</ele>
					<time>2018-06-25T09:57:04Z</time>
				</trkpt>
				<trkpt lat="45.123290" lon="2.642740">
					<ele>1197</ele>
					<time>2018-06-25T09:58:04Z</time>
				</trkpt>
				<trkpt lat="45.123570" lon="2.642540">
					<ele>1196</ele>
					<time>2018-06-25T09:59:04Z</time>
				</trkpt>
				<trkpt lat="45.123930" lon="2.642300">
					<ele>1195</ele>
					<time>2018-06-25T10:00:04Z</time>
				</trkpt>
				<trkpt lat="45.124220" lon="2.642140">
					<ele>1192</ele>
					<time>2018-06-25T10:01:04Z</time>
				</trkpt>
				<trkpt lat="45.124520" lon="2.641980">
					<ele>1190</ele>
					<time>2018-06-25T10:02:04Z</time>
				</trkpt>
				<trkpt lat="45.125000" lon="2.641720">
					<ele>1186</ele>
					<time>2018-06-25T10:03:04Z</time>
				</trkpt>
				<trkpt lat="45.125380" lon="2.641500">
					<ele>1186</ele>
					<time>2018-06-25T10:04:04Z</time>
				</trkpt>
				<trkpt lat="45.125570" lon="2.641370">
					<ele>1186</ele>
					<time>2018-06-25T10:05:04Z</time>
				</trkpt>
				<trkpt lat="45.125810" lon="2.641250">
					<ele>1182</ele>
					<time>2018-06-25T10:06:04Z</time>
				</trkpt>
				<trkpt lat="45.126010" lon="2.641160">
					<ele>1182</ele>
					<time>2018-06-25T10:07:04Z</time>
				</trkpt>
				<trkpt lat="45.126160" lon="2.641110">
					<ele>1182</ele>
					<time>2018-06-25T10:08:04Z</time>
				</trkpt>
				<trkpt lat="45.126280" lon="2.641050">
					<ele>1182</ele>
					<time>2018-06-25T10:09:04Z</time>
				</trkpt>
				<trkpt lat="45.126350" lon="2.641010">
					<ele>1182</ele>
					<time>2018-06-25T10:10:04Z</time>
				</trkpt>
				<trkpt lat="45.126380" lon="2.641010">
					<ele>1182</ele>
					<time>2018-06-25T10:11:04Z</time>
				</trkpt>
				<trkpt lat="45.126400" lon="2.641010">
					<ele>1181</ele>
					<time>2018-06-25T10:12:04Z</time>
				</trkpt>
				<trkpt lat="45.126450" lon="2.641020">
					<ele>1180</ele>
					<time>2018-06-25T10:13:04Z</time>
				</trkpt>
				<trkpt lat="45.126540" lon="2.641050">
					<ele>1177</ele>
					<time>2018-06-25T10:14:04Z</time>
				</trkpt>
				<trkpt lat="45.126670" lon="2.641090">
					<ele>1174</ele>
					<time>2018-06-25T10:15:04Z</time>
				</trkpt>
				<trkpt lat="45.126790" lon="2.641100">
					<ele>1172</ele>
					<time>2018-06-25T10:16:04Z</time>
				</trkpt>
				<trkpt lat="45.127050" lon="2.641050">
					<ele>1170</ele>
					<time>2018-06-25T10:17:04Z</time>
				</trkpt>
				<trkpt lat="45.127370" lon="2.640990">
					<ele>1167</ele>
					<time>2018-06-25T10:18:04Z</time>
				</trkpt>
				<trkpt lat="45.127560" lon="2.640950">
					<ele>1165</ele>
					<time>2018-06-25T10:19:04Z</time>
				</trkpt>
				<trkpt lat="45.127690" lon="2.640920">
					<ele>1164</ele>
					<time>2018-06-25T10:20:04Z</time>
				</trkpt>
				<trkpt lat="45.128220" lon="2.640430">
					<ele>1170</ele>
					<time>2018-06-25T10:21:04Z</time>
				</trkpt>
				<trkpt lat="45.128920" lon="2.639740">
					<ele>1177</ele>
					<time>2018-06-25T10:22:04Z</time>
				</trkpt>
				<trkpt lat="45.129190" lon="2.639480">
					<ele>1178</ele>
					<time>2018-06-25T10:23:04Z</time>
				</trkpt>
				<trkpt lat="45.129540" lon="2.639180">
					<ele>1182</ele>
					<time>2018-06-25T10:24:04Z</time>
				</trkpt>
				<trkpt lat="45.129590" lon="2.639120">
					<ele>1183</ele>
					<time>2018-06-25T10:25:04Z</time>
				</trkpt>
				<trkpt lat="45.129680" lon="2.639040">
					<ele>1184</ele>
					<time>2018-06-25T10:26:04Z</time>
				</trkpt>
				<trkpt lat="45.129760" lon="2.638970">
					<ele>1185</ele>
					<time>2018-06-25T10:27:04Z</time>
				</trkpt>
				<trkpt lat="45.129850" lon="2.638930">
					<ele>1185</ele>
					<time>2018-06-25T10:28:04Z</time>
				</trkpt>
				<trkpt lat="45.129930" lon="2.638900">
					<ele>1185</ele>
					<time>2018-06-25T10:29:04Z</time>
				</trkpt>
				<trkpt lat="45.129990" lon="2.638870">
					<ele>1185</ele>
					<time>2018-06-25T10:30:04Z</time>
				</trkpt>
				<trkpt lat="45.130040" lon="2.638870">
					<ele>1185</ele>
					<time>2018-06-25T10:31:04Z</time>
				</trkpt>
				<trkpt lat="45.130080" lon="2.638880">
					<ele>1185</ele>
					<time>2018-06-25T10:32:04Z</time>
				</trkpt>
				<trkpt lat="45.130120" lon="2.638900">
					<ele>1184</ele>
					<time>2018-06-25T10:33:04Z</time>
				</trkpt>
				<trkpt lat="45.130150" lon="2.638940">
					<ele>1183</ele>
					<time>2018-06-25T10:34:04Z</time>
				</trkpt>
				<trkpt lat="45.130220" lon="2.639010">
					<ele>1182</ele>
					<time>2018-06-25T10:35:04Z</time>
				</trkpt>
				<trkpt lat="45.130260" lon="2.639040">
					<ele>1181</ele>
					<time>2018-06-25T10:36:04Z</time>
				</trkpt>
				<trkpt lat="45.130290" lon="2.639060">
					<ele>1181</ele>
					<time>2018-06-25T10:37:04Z</time>
				</trkpt>
				<trkpt lat="45.130380" lon="2.639090">
					<ele>1181</ele>
					<time>2018-06-25T10:38:04Z</time>
				</trkpt>
				<trkpt lat="45.130490" lon="2.639100">
					<ele>1181</ele>
					<time>2018-06-25T10:39:04Z</time>
				</trkpt>
				<trkpt lat="45.130570" lon="2.639100">
					<ele>1181</ele>
					<time>2018-06-25T10:40:04Z</time>
				</trkpt>
				<trkpt lat="45.130670" lon="2.639100">
					<ele>1182</ele>
					<time>2018-06-25T10:41:04Z</time>
				</trkpt>
				<trkpt lat="45.130760" lon="2.639080">
					<ele>1183</ele>
					<time>2018-06-25T10:42:04Z</time>
				</trkpt>
				<trkpt lat="45.130850" lon="2.639040">
					<ele>1184</ele>
					<time>2018-06-25T10:43:04Z</time>
				</trkpt>
				<trkpt lat="45.130930" lon="2.639020">
					<ele>1185</ele>
					<time>2018-06-25T10:44:04Z</time>
				</trkpt>
				<trkpt lat="45.130990" lon="2.639010">
					<ele>1186</ele>
					<time>2018-06-25T10:45:04Z</time>
				</trkpt>
				<trkpt lat="45.131080" lon="2.639020">
					<ele>1186</ele>
					<time>2018-06-25T10:46:04Z</time>
				</trkpt>
				<trkpt lat="45.131220" lon="2.639010">
					<ele>1187</ele>
					<time>2018-06-25T10:47:04Z</time>
				</trkpt>
				<trkpt lat="45.131310" lon="2.638980">
					<ele>1188</ele>
					<time>2018-06-25T10:48:04Z</time>
				</trkpt>
				<trkpt lat="45.131480" lon="2.638920">
					<ele>1190</ele>
					<time>2018-06-25T10:49:04Z</time>
				</trkpt>
				<trkpt lat="45.131550" lon="2.638890">
					<ele>1191</ele>
					<time>2018-06-25T10:50:04Z</time>
				</trkpt>
				<trkpt lat="45.131660" lon="2.638850">
					<ele>1192</ele>
					<time>2018-06-25T10:51:04Z</time>
				</trkpt>
				<trkpt lat="45.131840" lon="2.638760">
					<ele>1194</ele>
					<time>2018-06-25T10:52:04Z</time>
				</trkpt>
				<trkpt lat="45.131940" lon="2.638720">
					<ele>1196</ele>
					<time>2018-06-25T10:53:04Z</time>
				</trkpt>
				<trkpt lat="45.132020" lon="2.638690">
					<ele>1196</ele>
					<time>2018-06-25T10:54:04Z</time>
				</trkpt>
				<trkpt lat="45.132130" lon="2.638670">
					<ele>1197</ele>
					<time>2018-06-25T10:55:04Z</time>
				</trkpt>
				<trkpt lat="45.132230" lon="2.638660">
					<ele>1198</ele>
					<time>2018-06-25T10:56:04Z</time>
				</trkpt>
				<trkpt lat="45.132270" lon="2.638660">
					<ele>1198</ele>
					<time>2018-06-25T10:57:04Z</time>
				</trkpt>
				<trkpt lat="45.132320" lon="2.638640">
					<ele>1199</ele>
					<time>2018-06-25T10:58:04Z</time>
				</trkpt>
				<trkpt lat="45.132420" lon="2.638600">
					<ele>1200</ele>
					<time>2018-06-25T10:59:04Z</time>
				</trkpt>
				<trkpt lat="45.132540" lon="2.638530">
					<ele>1202</ele>
					<time>2018-06-25T11:00:04Z</time>
				</trkpt>
				<trkpt lat="45.132630" lon="2.638490">
					<ele>1203</ele>
					<time>2018-06-25T11:01:04Z</time>
				</trkpt>
				<trkpt lat="45.132700" lon="2.638480">
					<ele>1203</ele>
					<time>2018-06-25T11:02:04Z</time>
				</trkpt>
				<trkpt lat="45.132770" lon="2.638470">
					<ele>1203</ele>
					<time>2018-06-25T11:03:04Z</time>
				</trkpt>
				<trkpt lat="45.132950" lon="2.638490">
					<ele>1203</ele>
					<time>2018-06-25T11:04:04Z</time>
				</trkpt>
				<trkpt lat="45.133110" lon="2.638480">
					<ele>1204</ele>
					<time>2018-06-25T11:05:04Z</time>
				</trkpt>
				<trkpt lat="45.133290" lon="2.638460">
					<ele>1204</ele>
					<time>2018-06-25T11:06:04Z</time>
				</trkpt>
				<trkpt lat="45.133400" lon="2.638460">
					<ele>1205</ele>
					<time>2018-06-25T11:07:04Z</time>
				</trkpt>
				<trkpt lat="45.133500" lon="2.638480">
					<ele>1205</ele>
					<time>2018-06-25T11:08:04Z</time>
				</trkpt>
				<trkpt lat="45.133620" lon="2.638540">
					<ele>1205</ele>
					<time>2018-06-25T11:09:04Z</time>
				</trkpt>
				<trkpt lat="45.133790" lon="2.638650">
					<ele>1203</ele>
					<time>2018-06-25T11:10:04Z</time>
				</trkpt>
				<trkpt lat="45.133890" lon="2.638700">
					<ele>1202</ele>
					<time>2018-06-25T11:11:04Z</time>
				</trkpt>
				<trkpt lat="45.134000" lon="2.638740">
					<ele>1202</ele>
					<time>2018-06-25T11:12:04Z</time>
				</trkpt>
				<trkpt lat="45.134130" lon="2.638760">
					<ele>1202</ele>
					<time>2018-06-25T11:13:04Z</time>
				</trkpt>
				<trkpt lat="45.134260" lon="2.638750">
					<ele>1202</ele>
					<time>2018-06-25T11:14:04Z</time>
				</trkpt>
				<trkpt lat="45.134420" lon="2.638740">
					<ele>1203</ele>
					<time>2018-06-25T11:15:04Z</time>
				</trkpt>
				<trkpt lat="45.134500" lon="2.638740">
					<ele>1203</ele>
					<time>2018-06-25T11:16:04Z</time>
				</trkpt>
				<trkpt lat="45.134560" lon="2.638720">
					<ele>1203</ele>
					<time>2018-06-25T11:17:04Z</time>
				</trkpt>
				<trkpt lat="45.134610" lon="2.638700">
					<ele>1204</ele>
					<time>2018-06-25T11:18:04Z</time>
				</trkpt>
				<trkpt lat="45.134750" lon="2.638630">
					<ele>1206</ele>
					<time>2018-06-25T11:19:04Z</time>
				</trkpt>
				<trkpt lat="45.134890" lon="2.638560">
					<ele>1208</ele>
					<time>2018-06-25T11:20:04Z</time>
				</trkpt>
				<trkpt lat="45.134960" lon="2.638540">
					<ele>1209</ele>
					<time>2018-06-25T11:21:04Z</time>
				</trkpt>
				<trkpt lat="45.135050" lon="2.638520">
					<ele>1210</ele>
					<time>2018-06-25T11:22:04Z</time>
				</trkpt>
				<trkpt lat="45.135240" lon="2.638500">
					<ele>1210</ele>
					<time>2018-06-25T11:23:04Z</time>
				</trkpt>
				<trkpt lat="45.135360" lon="2.638490">
					<ele>1211</ele>
					<time>2018-06-25T11:24:04Z</time>
				</trkpt>
				<trkpt lat="45.135540" lon="2.638480">
					<ele>1211</ele>
					<time>2018-06-25T11:25:04Z</time>
				</trkpt>
				<trkpt lat="45.135690" lon="2.638460">
					<ele>1212</ele>
					<time>2018-06-25T11:26:04Z</time>
				</trkpt>
				<trkpt lat="45.135880" lon="2.638420">
					<ele>1213</ele>
					<time>2018-06-25T11:27:04Z</time>
				</trkpt>
				<trkpt lat="45.135960" lon="2.638400">
					<ele>1213</ele>
					<time>2018-06-25T11:28:04Z</time>
				</trkpt>
				<trkpt lat="45.136090" lon="2.638380">
					<ele>1211</ele>
					<time>2018-06-25T11:29:04Z</time>
				</trkpt>
				<trkpt lat="45.136230" lon="2.638330">
					<ele>1211</ele>
					<time>2018-06-25T11:30:04Z</time>
				</trkpt>
				<trkpt lat="45.136310" lon="2.638310">
					<ele>1211</ele>
					<time>2018-06-25T11:31:04Z</time>
				</trkpt>
				<trkpt lat="45.136400" lon="2.638260">
					<ele>1211</ele>
					<time>2018-06-25T11:32:04Z</time>
				</trkpt>
				<trkpt lat="45.136470" lon="2.638200">
					<ele>1213</ele>
					<time>2018-06-25T11:33:04Z</time>
				</trkpt>
				<trkpt lat="45.136560" lon="2.638110">
					<ele>1215</ele>
					<time>2018-06-25T11:34:04Z</time>
				</trkpt>
				<trkpt lat="45.136670" lon="2.637990">
					<ele>1217</ele>
					<time>2018-06-25T11:35:04Z</time>
				</trkpt>
				<trkpt lat="45.136800" lon="2.637850">
					<ele>1217</ele>
					<time>2018-06-25T11:36:04Z</time>
				</trkpt>
				<trkpt lat="45.136940" lon="2.637660">
					<ele>1216</ele>
					<time>2018-06-25T11:37:04Z</time>
				</trkpt>
				<trkpt lat="45.137150" lon="2.637330">
					<ele>1214</ele>
					<time>2018-06-25T11:38:04Z</time>
				</trkpt>
				<trkpt lat="45.137240" lon="2.637180">
					<ele>1213</ele>
					<time>2018-06-25T11:39:04Z</time>
				</trkpt>
				<trkpt lat="45.137310" lon="2.637030">
					<ele>1212</ele>
					<time>2018-06-25T11:40:04Z</time>
				</trkpt>
				<trkpt lat="45.137390" lon="2.636840">
					<ele>1209</ele>
					<time>2018-06-25T11:41:04Z</time>
				</trkpt>
				<trkpt lat="45.137510" lon="2.636560">
					<ele>1204</ele>
					<time>2018-06-25T11:42:04Z</time>
				</trkpt>
				<trkpt lat="45.137560" lon="2.636430">
					<ele>1205</ele>
					<time>2018-06-25T11:43:04Z</time>
				</trkpt>
				<trkpt lat="45.137580" lon="2.636360">
					<ele>1206</ele>
					<time>2018-06-25T11:44:04Z</time>
				</trkpt>
				<trkpt lat="45.137600" lon="2.636270">
					<ele>1207</ele>
					<time>2018-06-25T11:45:04Z</time>
				</trkpt>
				<trkpt lat="45.137620" lon="2.636190">
					<ele>1208</ele>
					<time>2018-06-25T11:46:04Z</time>
				</trkpt>
				<trkpt lat="45.137650" lon="2.636050">
					<ele>1209</ele>
					<time>2018-06-25T11:47:04Z</time>
				</trkpt>
				<trkpt lat="45.137650" lon="2.635950">
					<ele>1212</ele>
					<time>2018-06-25T11:48:04Z</time>
				</trkpt>
				<trkpt lat="45.137660" lon="2.635850">
					<ele>1213</ele>
					<time>2018-06-25T11:49:04Z</time>
				</trkpt>
				<trkpt lat="45.137640" lon="2.635690">
					<ele>1216</ele>
					<time>2018-06-25T11:50:04Z</time>
				</trkpt>
				<trkpt lat="45.137630" lon="2.635560">
					<ele>1218</ele>
					<time>2018-06-25T11:51:04Z</time>
				</trkpt>
				<trkpt lat="45.137620" lon="2.635470">
					<ele>1219</ele>
					<time>2018-06-25T11:52:04Z</time>
				</trkpt>
				<trkpt lat="45.137620" lon="2.635380">
					<ele>1219</ele>
					<time>2018-06-25T11:53:04Z</time>
				</trkpt>
				<trkpt lat="45.137620" lon="2.635110">
					<ele>1221</ele>
					<time>2018-06-25T11:54:04Z</time>
				</trkpt>
				<trkpt lat="45.137600" lon="2.635010">
					<ele>1223</ele>
					<time>2018-06-25T11:55:04Z</time>
				</trkpt>
				<trkpt lat="45.137580" lon="2.634890">
					<ele>1223</ele>
					<time>2018-06-25T11:56:04Z</time>
				</trkpt>
				<trkpt lat="45.137520" lon="2.634650">
					<ele>1223</ele>
					<time>2018-06-25T11:57:04Z</time>
				</trkpt>
				<trkpt lat="45.137490" lon="2.634560">
					<ele>1224</ele>
					<time>2018-06-25T11:58:04Z</time>
				</trkpt>
				<trkpt lat="45.137450" lon="2.634430">
					<ele>1224</ele>
					<time>2018-06-25T11:59:04Z</time>
				</trkpt>
				<trkpt lat="45.137410" lon="2.634340">
					<ele>1225</ele>
					<time>2018-06-25T12:00:04Z</time>
				</trkpt>
				<trkpt lat="45.137380" lon="2.634280">
					<ele>1225</ele>
					<time>2018-06-25T12:01:04Z</time>
				</trkpt>
				<trkpt lat="45.137280" lon="2.634130">
					<ele>1227</ele>
					<time>2018-06-25T12:02:04Z</time>
				</trkpt>
				<trkpt lat="45.137170" lon="2.633950">
					<ele>1228</ele>
					<time>2018-06-25T12:03:04Z</time>
				</trkpt>
				<trkpt lat="45.137080" lon="2.633770">
					<ele>1227</ele>
					<time>2018-06-25T12:04:04Z</time>
				</trkpt>
				<trkpt lat="45.136980" lon="2.633570">
					<ele>1227</ele>
					<time>2018-06-25T12:05:04Z</time>
				</trkpt>
				<trkpt lat="45.136840" lon="2.633360">
					<ele>1228</ele>
					<time>2018-06-25T12:06:04Z</time>
				</trkpt>
				<trkpt lat="45.136790" lon="2.633270">
					<ele>1229</ele>
					<time>2018-06-25T12:07:04Z</time>
				</trkpt>
				<trkpt lat="45.136680" lon="2.633120">
					<ele>1231</ele>
					<time>2018-06-25T12:08:04Z</time>
				</trkpt>
				<trkpt lat="45.136550" lon="2.632980">
					<ele>1232</ele>
					<time>2018-06-25T12:09:04Z</time>
				</trkpt>
				<trkpt lat="45.136380" lon="2.632860">
					<ele>1234</ele>
					<time>2018-06-25T12:10:04Z</time>
				</trkpt>
				<trkpt lat="45.136260" lon="2.632770">
					<ele>1236</ele>
					<time>2018-06-25T12:11:04Z</time>
				</trkpt>
				<trkpt lat="45.136110" lon="2.632570">
					<ele>1238</ele>
					<time>2018-06-25T12:12:04Z</time>
				</trkpt>
				<trkpt lat="45.136050" lon="2.632440">
					<ele>1239</ele>
					<time>2018-06-25T12:13:04Z</time>
				</trkpt>
				<trkpt lat="45.136020" lon="2.632380">
					<ele>1240</ele>
					<time>2018-06-25T12:14:04Z</time>
				</trkpt>
				<trkpt lat="45.135960" lon="2.632300">
					<ele>1242</ele>
					<time>2018-06-25T12:15:04Z</time>
				</trkpt>
				<trkpt lat="45.135810" lon="2.632090">
					<ele>1247</ele>
					<time>2018-06-25T12:16:04Z</time>
				</trkpt>
				<trkpt lat="45.135730" lon="2.631970">
					<ele>1250</ele>
					<time>2018-06-25T12:17:04Z</time>
				</trkpt>
				<trkpt lat="45.135700" lon="2.631900">
					<ele>1252</ele>
					<time>2018-06-25T12:18:04Z</time>
				</trkpt>
				<trkpt lat="45.135690" lon="2.631860">
					<ele>1252</ele>
					<time>2018-06-25T12:19:04Z</time>
				</trkpt>
				<trkpt lat="45.135690" lon="2.631820">
					<ele>1252</ele>
					<time>2018-06-25T12:20:04Z</time>
				</trkpt>
				<trkpt lat="45.135700" lon="2.631780">
					<ele>1252</ele>
					<time>2018-06-25T12:21:04Z</time>
				</trkpt>
				<trkpt lat="45.135700" lon="2.631760">
					<ele>1252</ele>
					<time>2018-06-25T12:22:04Z</time>
				</trkpt>
				<trkpt lat="45.135710" lon="2.631730">
					<ele>1252</ele>
					<time>2018-06-25T12:23:04Z</time>
				</trkpt>
				<trkpt lat="45.135720" lon="2.631700">
					<ele>1251</ele>
					<time>2018-06-25T12:24:04Z</time>
				</trkpt>
				<trkpt lat="45.135740" lon="2.631670">
					<ele>1250</ele>
					<time>2018-06-25T12:25:04Z</time>
				</trkpt>
				<trkpt lat="45.135770" lon="2.631640">
					<ele>1250</ele>
					<time>2018-06-25T12:26:04Z</time>
				</trkpt>
				<trkpt lat="45.135790" lon="2.631610">
					<ele>1250</ele>
					<time>2018-06-25T12:27:04Z</time>
				</trkpt>
				<trkpt lat="45.135830" lon="2.631570">
					<ele>1249</ele>
					<time>2018-06-25T12:28:04Z</time>
				</trkpt>
				<trkpt lat="45.135970" lon="2.631430">
					<ele>1246</ele>
					<time>2018-06-25T12:29:04Z</time>
				</trkpt>
				<trkpt lat="45.135980" lon="2.631410">
					<ele>1246</ele>
					<time>2018-06-25T12:30:04Z</time>
				</trkpt>
				<trkpt lat="45.136070" lon="2.631330">
					<ele>1243</ele>
					<time>2018-06-25T12:31:04Z</time>
				</trkpt>
				<trkpt lat="45.136150" lon="2.631230">
					<ele>1242</ele>
					<time>2018-06-25T12:32:04Z</time>
				</trkpt>
				<trkpt lat="45.136190" lon="2.631130">
					<ele>1242</ele>
					<time>2018-06-25T12:33:04Z</time>
				</trkpt>
				<trkpt lat="45.136200" lon="2.631060">
					<ele>1242</ele>
					<time>2018-06-25T12:34:04Z</time>
				</trkpt>
				<trkpt lat="45.136210" lon="2.630990">
					<ele>1243</ele>
					<time>2018-06-25T12:35:04Z</time>
				</trkpt>
				<trkpt lat="45.136220" lon="2.630930">
					<ele>1243</ele>
					<time>2018-06-25T12:36:04Z</time>
				</trkpt>
				<trkpt lat="45.136220" lon="2.630850">
					<ele>1244</ele>
					<time>2018-06-25T12:37:04Z</time>
				</trkpt>
				<trkpt lat="45.136220" lon="2.630770">
					<ele>1245</ele>
					<time>2018-06-25T12:38:04Z</time>
				</trkpt>
				<trkpt lat="45.136220" lon="2.630660">
					<ele>1247</ele>
					<time>2018-06-25T12:39:04Z</time>
				</trkpt>
				<trkpt lat="45.136240" lon="2.630550">
					<ele>1249</ele>
					<time>2018-06-25T12:40:04Z</time>
				</trkpt>
				<trkpt lat="45.136260" lon="2.630460">
					<ele>1249</ele>
					<time>2018-06-25T12:41:04Z</time>
				</trkpt>
				<trkpt lat="45.136290" lon="2.630310">
					<ele>1251</ele>
					<time>2018-06-25T12:42:04Z</time>
				</trkpt>
				<trkpt lat="45.136330" lon="2.630190">
					<ele>1251</ele>
					<time>2018-06-25T12:43:04Z</time>
				</trkpt>
				<trkpt lat="45.136370" lon="2.630090">
					<ele>1250</ele>
					<time>2018-06-25T12:44:04Z</time>
				</trkpt>
				<trkpt lat="45.136410" lon="2.630000">
					<ele>1250</ele>
					<time>2018-06-25T12:45:04Z</time>
				</trkpt>
				<trkpt lat="45.136460" lon="2.629890">
					<ele>1250</ele>
					<time>2018-06-25T12:46:04Z</time>
				</trkpt>
				<trkpt lat="45.136530" lon="2.629780">
					<ele>1250</ele>
					<time>2018-06-25T12:47:04Z</time>
				</trkpt>
				<trkpt lat="45.136630" lon="2.629650">
					<ele>1249</ele>
					<time>2018-06-25T12:48:04Z</time>
				</trkpt>
				<trkpt lat="45.136740" lon="2.629490">
					<ele>1249</ele>
					<time>2018-06-25T12:49:04Z</time>
				</trkpt>
				<trkpt lat="45.136860" lon="2.629360">
					<ele>1249</ele>
					<time>2018-06-25T12:50:04Z</time>
				</trkpt>
				<trkpt lat="45.137000" lon="2.629210">
					<ele>1249</ele>
					<time>2018-06-25T12:51:04Z</time>
				</trkpt>
				<trkpt lat="45.137060" lon="2.629130">
					<ele>1250</ele>
					<time>2018-06-25T12:52:04Z</time>
				</trkpt>
				<trkpt lat="45.137100" lon="2.629080">
					<ele>1250</ele>
					<time>2018-06-25T12:53:04Z</time>
				</trkpt>
				<trkpt lat="45.137150" lon="2.629030">
					<ele>1250</ele>
					<time>2018-06-25T12:54:04Z</time>
				</trkpt>
				<trkpt lat="45.137200" lon="2.628980">
					<ele>1250</ele>
					<time>2018-06-25T12:55:04Z</time>
				</trkpt>
				<trkpt lat="45.137250" lon="2.628940">
					<ele>1250</ele>
					<time>2018-06-25T12:56:04Z</time>
				</trkpt>
				<trkpt lat="45.137320" lon="2.628880">
					<ele>1249</ele>
					<time>2018-06-25T12:57:04Z</time>
				</trkpt>
				<trkpt lat="45.137430" lon="2.628790">
					<ele>1249</ele>
					<time>2018-06-25T12:58:04Z</time>
				</trkpt>
				<trkpt lat="45.137540" lon="2.628700">
					<ele>1249</ele>
					<time>2018-06-25T12:59:04Z</time>
				</trkpt>
				<trkpt lat="45.137660" lon="2.628630">
					<ele>1249</ele>
					<time>2018-06-25T13:00:04Z</time>
				</trkpt>
				<trkpt lat="45.137800" lon="2.628550">
					<ele>1250</ele>
					<time>2018-06-25T13:01:04Z</time>
				</trkpt>
				<trkpt lat="45.137910" lon="2.628470">
					<ele>1251</ele>
					<time>2018-06-25T13:02:04Z</time>
				</trkpt>
				<trkpt lat="45.138000" lon="2.628420">
					<ele>1252</ele>
					<time>2018-06-25T13:03:04Z</time>
				</trkpt>
				<trkpt lat="45.138060" lon="2.628390">
					<ele>1252</ele>
					<time>2018-06-25T13:04:04Z</time>
				</trkpt>
				<trkpt lat="45.138080" lon="2.628380">
					<ele>1252</ele>
					<time>2018-06-25T13:05:04Z</time>
				</trkpt>
				<trkpt lat="45.138110" lon="2.628370">
					<ele>1252</ele>
					<time>2018-06-25T13:06:04Z</time>
				</trkpt>
				<trkpt lat="45.138180" lon="2.628370">
					<ele>1251</ele>
					<time>2018-06-25T13:07:04Z</time>
				</trkpt>
				<trkpt lat="45.138250" lon="2.628380">
					<ele>1250</ele>
					<time>2018-06-25T13:08:04Z</time>
				</trkpt>
				<trkpt lat="45.138340" lon="2.628410">
					<ele>1248</ele>
					<time>2018-06-25T13:09:04Z</time>
				</trkpt>
				<trkpt lat="45.138450" lon="2.628460">
					<ele>1247</ele>
					<time>2018-06-25T13:10:04Z</time>
				</trkpt>
				<trkpt lat="45.138560" lon="2.628520">
					<ele>1247</ele>
					<time>2018-06-25T13:11:04Z</time>
				</trkpt>
				<trkpt lat="45.138630" lon="2.628580">
					<ele>1245</ele>
					<time>2018-06-25T13:12:04Z</time>
				</trkpt>
				<trkpt lat="45.138700" lon="2.628640">
					<ele>1244</ele>
					<time>2018-06-25T13:13:04Z</time>
				</trkpt>
				<trkpt lat="45.138790" lon="2.628740">
					<ele>1242</ele>
					<time>2018-06-25T13:14:04Z</time>
				</trkpt>
				<trkpt lat="45.138910" lon="2.628850">
					<ele>1239</ele>
					<time>2018-06-25T13:15:04Z</time>
				</trkpt>
				<trkpt lat="45.138970" lon="2.628900">
					<ele>1238</ele>
					<time>2018-06-25T13:16:04Z</time>
				</trkpt>
				<trkpt lat="45.138990" lon="2.628900">
					<ele>1238</ele>
					<time>2018-06-25T13:17:04Z</time>
				</trkpt>
				<trkpt lat="45.139080" lon="2.628940">
					<ele>1238</ele>
					<time>2018-06-25T13:18:04Z</time>
				</trkpt>
				<trkpt lat="45.139140" lon="2.628950">
					<ele>1238</ele>
					<time>2018-06-25T13:19:04Z</time>
				</trkpt>
				<trkpt lat="45.139250" lon="2.628950">
					<ele>1237</ele>
					<time>2018-06-25T13:20:04Z</time>
				</trkpt>
				<trkpt lat="45.139340" lon="2.628950">
					<ele>1236</ele>
					<time>2018-06-25T13:21:04Z</time>
				</trkpt>
				<trkpt lat="45.139430" lon="2.628930">
					<ele>1236</ele>
					<time>2018-06-25T13:22:04Z</time>
				</trkpt>
				<trkpt lat="45.139550" lon="2.628890">
					<ele>1236</ele>
					<time>2018-06-25T13:23:04Z</time>
				</trkpt>
				<trkpt lat="45.139730" lon="2.628810">
					<ele>1237</ele>
					<time>2018-06-25T13:24:04Z</time>
				</trkpt>
				<trkpt lat="45.139860" lon="2.628750">
					<ele>1238</ele>
					<time>2018-06-25T13:25:04Z</time>
				</trkpt>
				<trkpt lat="45.140050" lon="2.628680">
					<ele>1238</ele>
					<time>2018-06-25T13:26:04Z</time>
				</trkpt>
				<trkpt lat="45.140340" lon="2.628600">
					<ele>1232</ele>
					<time>2018-06-25T13:27:04Z</time>
				</trkpt>
				<trkpt lat="45.140380" lon="2.628590">
					<ele>1231</ele>
					<time>2018-06-25T13:28:04Z</time>
				</trkpt>
				<trkpt lat="45.140420" lon="2.628550">
					<ele>1231</ele>
					<time>2018-06-25T13:29:04Z</time>
				</trkpt>
				<trkpt lat="45.140470" lon="2.628480">
					<ele>1233</ele>
					<time>2018-06-25T13:30:04Z</time>
				</trkpt>
				<trkpt lat="45.140490" lon="2.628460">
					<ele>1233</ele>
					<time>2018-06-25T13:31:04Z</time>
				</trkpt>
				<trkpt lat="45.140510" lon="2.628420">
					<ele>1234</ele>
					<time>2018-06-25T13:32:04Z</time>
				</trkpt>
				<trkpt lat="45.140520" lon="2.628360">
					<ele>1235</ele>
					<time>2018-06-25T13:33:04Z</time>
				</trkpt>
				<trkpt lat="45.140530" lon="2.628300">
					<ele>1237</ele>
					<time>2018-06-25T13:34:04Z</time>
				</trkpt>
				<trkpt lat="45.140530" lon="2.628230">
					<ele>1238</ele>
					<time>2018-06-25T13:35:04Z</time>
				</trkpt>
				<trkpt lat="45.140520" lon="2.628150">
					<ele>1239</ele>
					<time>2018-06-25T13:36:04Z</time>
				</trkpt>
				<trkpt lat="45.140510" lon="2.628080">
					<ele>1241</ele>
					<time>2018-06-25T13:37:04Z</time>
				</trkpt>
				<trkpt lat="45.140460" lon="2.627840">
					<ele>1247</ele>
					<time>2018-06-25T13:38:04Z</time>
				</trkpt>
				<trkpt lat="45.140440" lon="2.627630">
					<ele>1252</ele>
					<time>2018-06-25T13:39:04Z</time>
				</trkpt>
				<trkpt lat="45.140460" lon="2.627490">
					<ele>1253</ele>
					<time>2018-06-25T13:40:04Z</time>
				</trkpt>
				<trkpt lat="45.140480" lon="2.627320">
					<ele>1255</ele>
					<time>2018-06-25T13:41:04Z</time>
				</trkpt>
				<trkpt lat="45.140530" lon="2.627050">
					<ele>1255</ele>
					<time>2018-06-25T13:42:04Z</time>
				</trkpt>
				<trkpt lat="45.140550" lon="2.626870">
					<ele>1257</ele>
					<time>2018-06-25T13:43:04Z</time>
				</trkpt>
				<trkpt lat="45.140570" lon="2.626690">
					<ele>1258</ele>
					<time>2018-06-25T13:44:04Z</time>
				</trkpt>
				<trkpt lat="45.140600" lon="2.626450">
					<ele>1259</ele>
					<time>2018-06-25T13:45:04Z</time>
				</trkpt>
				<trkpt lat="45.140630" lon="2.626300">
					<ele>1258</ele>
					<time>2018-06-25T13:46:04Z</time>
				</trkpt>
				<trkpt lat="45.140670" lon="2.626060">
					<ele>1259</ele>
					<time>2018-06-25T13:47:04Z</time>
				</trkpt>
				<trkpt lat="45.140790" lon="2.625610">
					<ele>1258</ele>
					<time>2018-06-25T13:48:04Z</time>
				</trkpt>
				<trkpt lat="45.140930" lon="2.625110">
					<ele>1260</ele>
					<time>2018-06-25T13:49:04Z</time>
				</trkpt>
				<trkpt lat="45.140960" lon="2.625040">
					<ele>1260</ele>
					<time>2018-06-25T13:50:04Z</time>
				</trkpt>
				<trkpt lat="45.141000" lon="2.625010">
					<ele>1259</ele>
					<time>2018-06-25T13:51:04Z</time>
				</trkpt>
				<trkpt lat="45.141100" lon="2.624970">
					<ele>1255</ele>
					<time>2018-06-25T13:52:04Z</time>
				</trkpt>
				<trkpt lat="45.141200" lon="2.624900">
					<ele>1253</ele>
					<time>2018-06-25T13:53:04Z</time>
				</trkpt>
				<trkpt lat="45.141250" lon="2.624850">
					<ele>1252</ele>
					<time>2018-06-25T13:54:04Z</time>
				</trkpt>
				<trkpt lat="45.141300" lon="2.624780">
					<ele>1251</ele>
					<time>2018-06-25T13:55:04Z</time>
				</trkpt>
				<trkpt lat="45.141320" lon="2.624720">
					<ele>1252</ele>
					<time>2018-06-25T13:56:04Z</time>
				</trkpt>
				<trkpt lat="45.141330" lon="2.624620">
					<ele>1255</ele>
					<time>2018-06-25T13:57:04Z</time>
				</trkpt>
				<trkpt lat="45.141360" lon="2.624490">
					<ele>1257</ele>
					<time>2018-06-25T13:58:04Z</time>
				</trkpt>
				<trkpt lat="45.141380" lon="2.624340">
					<ele>1261</ele>
					<time>2018-06-25T13:59:04Z</time>
				</trkpt>
				<trkpt lat="45.141400" lon="2.624300">
					<ele>1261</ele>
					<time>2018-06-25T14:00:04Z</time>
				</trkpt>
				<trkpt lat="45.141450" lon="2.624240">
					<ele>1261</ele>
					<time>2018-06-25T14:01:04Z</time>
				</trkpt>
				<trkpt lat="45.141480" lon="2.624210">
					<ele>1260</ele>
					<time>2018-06-25T14:02:04Z</time>
				</trkpt>
				<trkpt lat="45.141510" lon="2.624190">
					<ele>1260</ele>
					<time>2018-06-25T14:03:04Z</time>
				</trkpt>
				<trkpt lat="45.141530" lon="2.624190">
					<ele>1259</ele>
					<time>2018-06-25T14:04:04Z</time>
				</trkpt>
				<trkpt lat="45.141900" lon="2.624110">
					<ele>1251</ele>
					<time>2018-06-25T14:05:04Z</time>
				</trkpt>
				<trkpt lat="45.142300" lon="2.624060">
					<ele>1244</ele>
					<time>2018-06-25T14:06:04Z</time>
				</trkpt>
				<trkpt lat="45.142570" lon="2.624040">
					<ele>1239</ele>
					<time>2018-06-25T14:07:04Z</time>
				</trkpt>
				<trkpt lat="45.142630" lon="2.624020">
					<ele>1238</ele>
					<time>2018-06-25T14:08:04Z</time>
				</trkpt>
				<trkpt lat="45.142700" lon="2.623980">
					<ele>1238</ele>
					<time>2018-06-25T14:09:04Z</time>
				</trkpt>
				<trkpt lat="45.142790" lon="2.623910">
					<ele>1237</ele>
					<time>2018-06-25T14:10:04Z</time>
				</trkpt>
				<trkpt lat="45.142860" lon="2.623830">
					<ele>1237</ele>
					<time>2018-06-25T14:11:04Z</time>
				</trkpt>
				<trkpt lat="45.142870" lon="2.623810">
					<ele>1237</ele>
					<time>2018-06-25T14:12:04Z</time>
				</trkpt>
				<trkpt lat="45.142920" lon="2.623710">
					<ele>1237</ele>
					<time>2018-06-25T14:13:04Z</time>
				</trkpt>
				<trkpt lat="45.142970" lon="2.623580">
					<ele>1238</ele>
					<time>2018-06-25T14:14:04Z</time>
				</trkpt>
				<trkpt lat="45.142970" lon="2.623550">
					<ele>1238</ele>
					<time>2018-06-25T14:15:04Z</time>
				</trkpt>
				<trkpt lat="45.142980" lon="2.623460">
					<ele>1239</ele>
					<time>2018-06-25T14:16:04Z</time>
				</trkpt>
				<trkpt lat="45.142950" lon="2.622880">
					<ele>1242</ele>
					<time>2018-06-25T14:17:04Z</time>
				</trkpt>
				<trkpt lat="45.142940" lon="2.622780">
					<ele>1243</ele>
					<time>2018-06-25T14:18:04Z</time>
				</trkpt>
				<trkpt lat="45.142910" lon="2.622650">
					<ele>1244</ele>
					<time>2018-06-25T14:19:04Z</time>
				</trkpt>
				<trkpt lat="45.142900" lon="2.622580">
					<ele>1244</ele>
					<time>2018-06-25T14:20:04Z</time>
				</trkpt>
				<trkpt lat="45.142860" lon="2.622500">
					<ele>1245</ele>
					<time>2018-06-25T14:21:04Z</time>
				</trkpt>
				<trkpt lat="45.142820" lon="2.622420">
					<ele>1247</ele>
					<time>2018-06-25T14:22:04Z</time>
				</trkpt>
				<trkpt lat="45.142760" lon="2.622330">
					<ele>1249</ele>
					<time>2018-06-25T14:23:04Z</time>
				</trkpt>
				<trkpt lat="45.142720" lon="2.622280">
					<ele>1250</ele>
					<time>2018-06-25T14:24:04Z</time>
				</trkpt>
				<trkpt lat="45.142690" lon="2.622200">
					<ele>1251</ele>
					<time>2018-06-25T14:25:04Z</time>
				</trkpt>
				<trkpt lat="45.142660" lon="2.622120">
					<ele>1252</ele>
					<time>2018-06-25T14:26:04Z</time>
				</trkpt>
				<trkpt lat="45.142640" lon="2.622030">
					<ele>1253</ele>
					<time>2018-06-25T14:27:04Z</time>
				</trkpt>
				<trkpt lat="45.142630" lon="2.621890">
					<ele>1253</ele>
					<time>2018-06-25T14:28:04Z</time>
				</trkpt>
				<trkpt lat="45.142630" lon="2.621610">
					<ele>1254</ele>
					<time>2018-06-25T14:29:04Z</time>
				</trkpt>
				<trkpt lat="45.142630" lon="2.621200">
					<ele>1257</ele>
					<time>2018-06-25T14:30:04Z</time>
				</trkpt>
				<trkpt lat="45.142640" lon="2.621020">
					<ele>1258</ele>
					<time>2018-06-25T14:31:04Z</time>
				</trkpt>
				<trkpt lat="45.142670" lon="2.620780">
					<ele>1258</ele>
					<time>2018-06-25T14:32:04Z</time>
				</trkpt>
				<trkpt lat="45.142700" lon="2.620650">
					<ele>1259</ele>
					<time>2018-06-25T14:33:04Z</time>
				</trkpt>
				<trkpt lat="45.142720" lon="2.620600">
					<ele>1258</ele>
					<time>2018-06-25T14:34:04Z</time>
				</trkpt>
				<trkpt lat="45.142830" lon="2.620310">
					<ele>1257</ele>
					<time>2018-06-25T14:35:04Z</time>
				</trkpt>
				<trkpt lat="45.142910" lon="2.620150">
					<ele>1256</ele>
					<time>2018-06-25T14:36:04Z</time>
				</trkpt>
				<trkpt lat="45.142960" lon="2.620070">
					<ele>1255</ele>
					<time>2018-06-25T14:37:04Z</time>
				</trkpt>
				<trkpt lat="45.143110" lon="2.619860">
					<ele>1253</ele>
					<time>2018-06-25T14:38:04Z</time>
				</trkpt>
				<trkpt lat="45.143390" lon="2.619550">
					<ele>1248</ele>
					<time>2018-06-25T14:39:04Z</time>
				</trkpt>
				<trkpt lat="45.143480" lon="2.619410">
					<ele>1248</ele>
					<time>2018-06-25T14:40:04Z</time>
				</trkpt>
				<trkpt lat="45.143600" lon="2.619160">
					<ele>1250</ele>
					<time>2018-06-25T14:41:04Z</time>
				</trkpt>
				<trkpt lat="45.143750" lon="2.618850">
					<ele>1250</ele>
					<time>2018-06-25T14:42:04Z</time>
				</trkpt>
				<trkpt lat="45.143990" lon="2.618380">
					<ele>1250</ele>
					<time>2018-06-25T14:43:04Z</time>
				</trkpt>
				<trkpt lat="45.144060" lon="2.618240">
					<ele>1250</ele>
					<time>2018-06-25T14:44:04Z</time>
				</trkpt>
				<trkpt lat="45.144110" lon="2.618140">
					<ele>1249</ele>
					<time>2018-06-25T14:45:04Z</time>
				</trkpt>
				<trkpt lat="45.144150" lon="2.618030">
					<ele>1249</ele>
					<time>2018-06-25T14:46:04Z</time>
				</trkpt>
				<trkpt lat="45.144200" lon="2.617930">
					<ele>1248</ele>
					<time>2018-06-25T14:47:04Z</time>
				</trkpt>
				<trkpt lat="45.144300" lon="2.617580">
					<ele>1249</ele>
					<time>2018-06-25T14:48:04Z</time>
				</trkpt>
				<trkpt lat="45.144340" lon="2.617420">
					<ele>1250</ele>
					<time>2018-06-25T14:49:04Z</time>
				</trkpt>
				<trkpt lat="45.144390" lon="2.617240">
					<ele>1251</ele>
					<time>2018-06-25T14:50:04Z</time>
				</trkpt>
				<trkpt lat="45.144480" lon="2.616940">
					<ele>1253</ele>
					<time>2018-06-25T14:51:04Z</time>
				</trkpt>
				<trkpt lat="45.144590" lon="2.616680">
					<ele>1253</ele>
					<time>2018-06-25T14:52:04Z</time>
				</trkpt>
				<trkpt lat="45.144610" lon="2.616620">
					<ele>1253</ele>
					<time>2018-06-25T14:53:04Z</time>
				</trkpt>
				<trkpt lat="45.144640" lon="2.616560">
					<ele>1253</ele>
					<time>2018-06-25T14:54:04Z</time>
				</trkpt>
				<trkpt lat="45.144700" lon="2.616430">
					<ele>1252</ele>
					<time>2018-06-25T14:55:04Z</time>
				</trkpt>
				<trkpt lat="45.144790" lon="2.616210">
					<ele>1252</ele>
					<time>2018-06-25T14:56:04Z</time>
				</trkpt>
				<trkpt lat="45.144840" lon="2.616070">
					<ele>1251</ele>
					<time>2018-06-25T14:57:04Z</time>
				</trkpt>
				<trkpt lat="45.144870" lon="2.615950">
					<ele>1251</ele>
					<time>2018-06-25T14:58:04Z</time>
				</trkpt>
				<trkpt lat="45.144890" lon="2.615840">
					<ele>1252</ele>
					<time>2018-06-25T14:59:04Z</time>
				</trkpt>
				<trkpt lat="45.144910" lon="2.615630">
					<ele>1252</ele>
					<time>2018-06-25T15:00:04Z</time>
				</trkpt>
				<trkpt lat="45.144930" lon="2.615310">
					<ele>1253</ele>
					<time>2018-06-25T15:01:04Z</time>
				</trkpt>
				<trkpt lat="45.144930" lon="2.615120">
					<ele>1254</ele>
					<time>2018-06-25T15:02:04Z</time>
				</trkpt>
				<trkpt lat="45.144930" lon="2.615000">
					<ele>1255</ele>
					<time>2018-06-25T15:03:04Z</time>
				</trkpt>
				<trkpt lat="45.144900" lon="2.614880">
					<ele>1257</ele>
					<time>2018-06-25T15:04:04Z</time>
				</trkpt>
				<trkpt lat="45.144880" lon="2.614790">
					<ele>1258</ele>
					<time>2018-06-25T15:05:04Z</time>
				</trkpt>
				<trkpt lat="45.144830" lon="2.614630">
					<ele>1262</ele>
					<time>2018-06-25T15:06:04Z</time>
				</trkpt>
				<trkpt lat="45.144810" lon="2.614540">
					<ele>1263</ele>
					<time>2018-06-25T15:07:04Z</time>
				</trkpt>
				<trkpt lat="45.144780" lon="2.614420">
					<ele>1265</ele>
					<time>2018-06-25T15:08:04Z</time>
				</trkpt>
				<trkpt lat="45.144770" lon="2.614300">
					<ele>1266</ele>
					<time>2018-06-25T15:09:04Z</time>
				</trkpt>
				<trkpt lat="45.144770" lon="2.614200">
					<ele>1267</ele>
					<time>2018-06-25T15:10:04Z</time>
				</trkpt>
				<trkpt lat="45.144770" lon="2.614130">
					<ele>1267</ele>
					<time>2018-06-25T15:11:04Z</time>
				</trkpt>
				<trkpt lat="45.144800" lon="2.613950">
					<ele>1267</ele>
					<time>2018-06-25T15:12:04Z</time>
				</trkpt>
				<trkpt lat="45.144820" lon="2.613800">
					<ele>1268</ele>
					<time>2018-06-25T15:13:04Z</time>
				</trkpt>
				<trkpt lat="45.144840" lon="2.613720">
					<ele>1267</ele>
					<time>2018-06-25T15:14:04Z</time>
				</trkpt>
				<trkpt lat="45.144860" lon="2.613560">
					<ele>1268</ele>
					<time>2018-06-25T15:15:04Z</time>
				</trkpt>
				<trkpt lat="45.144880" lon="2.613480">
					<ele>1267</ele>
					<time>2018-06-25T15:16:04Z</time>
				</trkpt>
				<trkpt lat="45.144920" lon="2.613360">
					<ele>1267</ele>
					<time>2018-06-25T15:17:04Z</time>
				</trkpt>
				<trkpt lat="45.144970" lon="2.613270">
					<ele>1266</ele>
					<time>2018-06-25T15:18:04Z</time>
				</trkpt>
				<trkpt lat="45.145020" lon="2.613190">
					<ele>1265</ele>
					<time>2018-06-25T15:19:04Z</time>
				</trkpt>
				<trkpt lat="45.145050" lon="2.613140">
					<ele>1264</ele>
					<time>2018-06-25T15:20:04Z</time>
				</trkpt>
				<trkpt lat="45.145090" lon="2.613070">
					<ele>1264</ele>
					<time>2018-06-25T15:21:04Z</time>
				</trkpt>
				<trkpt lat="45.145300" lon="2.612730">
					<ele>1261</ele>
					<time>2018-06-25T15:22:04Z</time>
				</trkpt>
				<trkpt lat="45.145380" lon="2.612600">
					<ele>1260</ele>
					<time>2018-06-25T15:23:04Z</time>
				</trkpt>
				<trkpt lat="45.145560" lon="2.612300">
					<ele>1258</ele>
					<time>2018-06-25T15:24:04Z</time>
				</trkpt>
				<trkpt lat="45.145650" lon="2.612170">
					<ele>1257</ele>
					<time>2018-06-25T15:25:04Z</time>
				</trkpt>
				<trkpt lat="45.145860" lon="2.611820">
					<ele>1255</ele>
					<time>2018-06-25T15:26:04Z</time>
				</trkpt>
				<trkpt lat="45.145990" lon="2.611530">
					<ele>1256</ele>
					<time>2018-06-25T15:27:04Z</time>
				</trkpt>
				<trkpt lat="45.146180" lon="2.611060">
					<ele>1257</ele>
					<time>2018-06-25T15:28:04Z</time>
				</trkpt>
				<trkpt lat="45.146260" lon="2.610890">
					<ele>1257</ele>
					<time>2018-06-25T15:29:04Z</time>
				</trkpt>
				<trkpt lat="45.146310" lon="2.610790">
					<ele>1257</ele>
					<time>2018-06-25T15:30:04Z</time>
				</trkpt>
				<trkpt lat="45.146360" lon="2.610720">
					<ele>1256</ele>
					<time>2018-06-25T15:31:04Z</time>
				</trkpt>
				<trkpt lat="45.146410" lon="2.610660">
					<ele>1255</ele>
					<time>2018-06-25T15:32:04Z</time>
				</trkpt>
				<trkpt lat="45.146450" lon="2.610610">
					<ele>1254</ele>
					<time>2018-06-25T15:33:04Z</time>
				</trkpt>
				<trkpt lat="45.146490" lon="2.610560">
					<ele>1253</ele>
					<time>2018-06-25T15:34:04Z</time>
				</trkpt>
				<trkpt lat="45.146540" lon="2.610520">
					<ele>1251</ele>
					<time>2018-06-25T15:35:04Z</time>
				</trkpt>
				<trkpt lat="45.146580" lon="2.610460">
					<ele>1251</ele>
					<time>2018-06-25T15:36:04Z</time>
				</trkpt>
				<trkpt lat="45.146620" lon="2.610390">
					<ele>1250</ele>
					<time>2018-06-25T15:37:04Z</time>
				</trkpt>
				<trkpt lat="45.146660" lon="2.610320">
					<ele>1250</ele>
					<time>2018-06-25T15:38:04Z</time>
				</trkpt>
				<trkpt lat="45.146700" lon="2.610230">
					<ele>1250</ele>
					<time>2018-06-25T15:39:04Z</time>
				</trkpt>
				<trkpt lat="45.146740" lon="2.610140">
					<ele>1250</ele>
					<time>2018-06-25T15:40:04Z</time>
				</trkpt>
				<trkpt lat="45.146780" lon="2.610020">
					<ele>1250</ele>
					<time>2018-06-25T15:41:04Z</time>
				</trkpt>
				<trkpt lat="45.146850" lon="2.609760">
					<ele>1250</ele>
					<time>2018-06-25T15:42:04Z</time>
				</trkpt>
				<trkpt lat="45.146880" lon="2.609650">
					<ele>1249</ele>
					<time>2018-06-25T15:43:04Z</time>
				</trkpt>
				<trkpt lat="45.146900" lon="2.609540">
					<ele>1250</ele>
					<time>2018-06-25T15:44:04Z</time>
				</trkpt>
				<trkpt lat="45.146910" lon="2.609450">
					<ele>1250</ele>
					<time>2018-06-25T15:45:04Z</time>
				</trkpt>
				<trkpt lat="45.146900" lon="2.609320">
					<ele>1252</ele>
					<time>2018-06-25T15:46:04Z</time>
				</trkpt>
				<trkpt lat="45.146890" lon="2.609200">
					<ele>1255</ele>
					<time>2018-06-25T15:47:04Z</time>
				</trkpt>
				<trkpt lat="45.146830" lon="2.608850">
					<ele>1259</ele>
					<time>2018-06-25T15:48:04Z</time>
				</trkpt>
				<trkpt lat="45.146820" lon="2.608660">
					<ele>1260</ele>
					<time>2018-06-25T15:49:04Z</time>
				</trkpt>
				<trkpt lat="45.146820" lon="2.608460">
					<ele>1260</ele>
					<time>2018-06-25T15:50:04Z</time>
				</trkpt>
				<trkpt lat="45.146830" lon="2.608310">
					<ele>1260</ele>
					<time>2018-06-25T15:51:04Z</time>
				</trkpt>
				<trkpt lat="45.146860" lon="2.608100">
					<ele>1260</ele>
					<time>2018-06-25T15:52:04Z</time>
				</trkpt>
				<trkpt lat="45.146880" lon="2.608000">
					<ele>1260</ele>
					<time>2018-06-25T15:53:04Z</time>
				</trkpt>
				<trkpt lat="45.146920" lon="2.607870">
					<ele>1259</ele>
					<time>2018-06-25T15:54:04Z</time>
				</trkpt>
				<trkpt lat="45.146930" lon="2.607820">
					<ele>1259</ele>
					<time>2018-06-25T15:55:04Z</time>
				</trkpt>
				<trkpt lat="45.146970" lon="2.607720">
					<ele>1258</ele>
					<time>2018-06-25T15:56:04Z</time>
				</trkpt>
				<trkpt lat="45.147010" lon="2.607610">
					<ele>1257</ele>
					<time>2018-06-25T15:57:04Z</time>
				</trkpt>
				<trkpt lat="45.147140" lon="2.607330">
					<ele>1255</ele>
					<time>2018-06-25T15:58:04Z</time>
				</trkpt>
				<trkpt lat="45.147290" lon="2.607020">
					<ele>1253</ele>
					<time>2018-06-25T15:59:04Z</time>
				</trkpt>
				<trkpt lat="45.147380" lon="2.606760">
					<ele>1253</ele>
					<time>2018-06-25T16:00:04Z</time>
				</trkpt>
				<trkpt lat="45.147460" lon="2.606460">
					<ele>1255</ele>
					<time>2018-06-25T16:01:04Z</time>
				</trkpt>
				<trkpt lat="45.147600" lon="2.606070">
					<ele>1255</ele>
					<time>2018-06-25T16:02:04Z</time>
				</trkpt>
				<trkpt lat="45.147640" lon="2.605950">
					<ele>1255</ele>
					<time>2018-06-25T16:03:04Z</time>
				</trkpt>
				<trkpt lat="45.147720" lon="2.605750">
					<ele>1254</ele>
					<time>2018-06-25T16:04:04Z</time>
				</trkpt>
				<trkpt lat="45.147760" lon="2.605670">
					<ele>1253</ele>
					<time>2018-06-25T16:05:04Z</time>
				</trkpt>
				<trkpt lat="45.147850" lon="2.605530">
					<ele>1252</ele>
					<time>2018-06-25T16:06:04Z</time>
				</trkpt>
				<trkpt lat="45.147900" lon="2.605480">
					<ele>1251</ele>
					<time>2018-06-25T16:07:04Z</time>
				</trkpt>
				<trkpt lat="45.147950" lon="2.605420">
					<ele>1250</ele>
					<time>2018-06-25T16:08:04Z</time>
				</trkpt>
				<trkpt lat="45.148040" lon="2.605300">
					<ele>1249</ele>
					<time>2018-06-25T16:09:04Z</time>
				</trkpt>
				<trkpt lat="45.148120" lon="2.605140">
					<ele>1250</ele>
					<time>2018-06-25T16:10:04Z</time>
				</trkpt>
				<trkpt lat="45.148190" lon="2.604990">
					<ele>1250</ele>
					<time>2018-06-25T16:11:04Z</time>
				</trkpt>
				<trkpt lat="45.148220" lon="2.604890">
					<ele>1250</ele>
					<time>2018-06-25T16:12:04Z</time>
				</trkpt>
				<trkpt lat="45.148270" lon="2.604730">
					<ele>1250</ele>
					<time>2018-06-25T16:13:04Z</time>
				</trkpt>
				<trkpt lat="45.148300" lon="2.604640">
					<ele>1251</ele>
					<time>2018-06-25T16:14:04Z</time>
				</trkpt>
				<trkpt lat="45.148340" lon="2.604550">
					<ele>1250</ele>
					<time>2018-06-25T16:15:04Z</time>
				</trkpt>
				<trkpt lat="45.148380" lon="2.604490">
					<ele>1249</ele>
					<time>2018-06-25T16:16:04Z</time>
				</trkpt>
				<trkpt lat="45.148440" lon="2.604400">
					<ele>1247</ele>
					<time>2018-06-25T16:17:04Z</time>
				</trkpt>
				<trkpt lat="45.148490" lon="2.604330">
					<ele>1246</ele>
					<time>2018-06-25T16:18:04Z</time>
				</trkpt>
				<trkpt lat="45.148540" lon="2.604230">
					<ele>1245</ele>
					<time>2018-06-25T16:19:04Z</time>
				</trkpt>
				<trkpt lat="45.148560" lon="2.604160">
					<ele>1244</ele>
					<time>2018-06-25T16:20:04Z</time>
				</trkpt>
				<trkpt lat="45.148570" lon="2.604130">
					<ele>1244</ele>
					<time>2018-06-25T16:21:04Z</time>
				</trkpt>
				<trkpt lat="45.148570" lon="2.604090">
					<ele>1244</ele>
					<time>2018-06-25T16:22:04Z</time>
				</trkpt>
				<trkpt lat="45.148570" lon="2.604050">
					<ele>1244</ele>
					<time>2018-06-25T16:23:04Z</time>
				</trkpt>
				<trkpt lat="45.148570" lon="2.604000">
					<ele>1244</ele>
					<time>2018-06-25T16:24:04Z</time>
				</trkpt>
				<trkpt lat="45.148560" lon="2.603940">
					<ele>1245</ele>
					<time>2018-06-25T16:25:04Z</time>
				</trkpt>
				<trkpt lat="45.148520" lon="2.603820">
					<ele>1246</ele>
					<time>2018-06-25T16:26:04Z</time>
				</trkpt>
				<trkpt lat="45.148500" lon="2.603750">
					<ele>1247</ele>
					<time>2018-06-25T16:27:04Z</time>
				</trkpt>
				<trkpt lat="45.148460" lon="2.603640">
					<ele>1249</ele>
					<time>2018-06-25T16:28:04Z</time>
				</trkpt>
				<trkpt lat="45.148450" lon="2.603550">
					<ele>1249</ele>
					<time>2018-06-25T16:29:04Z</time>
				</trkpt>
				<trkpt lat="45.148440" lon="2.603460">
					<ele>1250</ele>
					<time>2018-06-25T16:30:04Z</time>
				</trkpt>
				<trkpt lat="45.148450" lon="2.603400">
					<ele>1249</ele>
					<time>2018-06-25T16:31:04Z</time>
				</trkpt>
				<trkpt lat="45.148450" lon="2.603350">
					<ele>1249</ele>
					<time>2018-06-25T16:32:04Z</time>
				</trkpt>
				<trkpt lat="45.148470" lon="2.603240">
					<ele>1248</ele>
					<time>2018-06-25T16:33:04Z</time>
				</trkpt>
				<trkpt lat="45.148530" lon="2.603000">
					<ele>1246</ele>
					<time>2018-06-25T16:34:04Z</time>
				</trkpt>
				<trkpt lat="45.148580" lon="2.602820">
					<ele>1244</ele>
					<time>2018-06-25T16:35:04Z</time>
				</trkpt>
				<trkpt lat="45.148670" lon="2.602620">
					<ele>1242</ele>
					<time>2018-06-25T16:36:04Z</time>
				</trkpt>
				<trkpt lat="45.148750" lon="2.602490">
					<ele>1241</ele>
					<time>2018-06-25T16:37:04Z</time>
				</trkpt>
				<trkpt lat="45.148860" lon="2.602350">
					<ele>1239</ele>
					<time>2018-06-25T16:38:04Z</time>
				</trkpt>
				<trkpt lat="45.148960" lon="2.602230">
					<ele>1239</ele>
					<time>2018-06-25T16:39:04Z</time>
				</trkpt>
				<trkpt lat="45.149010" lon="2.602150">
					<ele>1239</ele>
					<time>2018-06-25T16:40:04Z</time>
				</trkpt>
				<trkpt lat="45.149040" lon="2.602060">
					<ele>1241</ele>
					<time>2018-06-25T16:41:04Z</time>
				</trkpt>
				<trkpt lat="45.149090" lon="2.601870">
					<ele>1244</ele>
					<time>2018-06-25T16:42:04Z</time>
				</trkpt>
				<trkpt lat="45.149140" lon="2.601730">
					<ele>1246</ele>
					<time>2018-06-25T16:43:04Z</time>
				</trkpt>
				<trkpt lat="45.149170" lon="2.601680">
					<ele>1248</ele>
					<time>2018-06-25T16:44:04Z</time>
				</trkpt>
				<trkpt lat="45.149190" lon="2.601650">
					<ele>1247</ele>
					<time>2018-06-25T16:45:04Z</time>
				</trkpt>
				<trkpt lat="45.149270" lon="2.601580">
					<ele>1245</ele>
					<time>2018-06-25T16:46:04Z</time>
				</trkpt>
				<trkpt lat="45.149410" lon="2.601480">
					<ele>1243</ele>
					<time>2018-06-25T16:47:04Z</time>
				</trkpt>
				<trkpt lat="45.149610" lon="2.601370">
					<ele>1240</ele>
					<time>2018-06-25T16:48:04Z</time>
				</trkpt>
				<trkpt lat="45.149800" lon="2.601240">
					<ele>1239</ele>
					<time>2018-06-25T16:49:04Z</time>
				</trkpt>
				<trkpt lat="45.149890" lon="2.601140">
					<ele>1240</ele>
					<time>2018-06-25T16:50:04Z</time>
				</trkpt>
				<trkpt lat="45.149940" lon="2.601070">
					<ele>1241</ele>
					<time>2018-06-25T16:51:04Z</time>
				</trkpt>
				<trkpt lat="45.149990" lon="2.600960">
					<ele>1244</ele>
					<time>2018-06-25T16:52:04Z</time>
				</trkpt>
				<trkpt lat="45.150010" lon="2.600820">
					<ele>1247</ele>
					<time>2018-06-25T16:53:04Z</time>
				</trkpt>
				<trkpt lat="45.150030" lon="2.600720">
					<ele>1247</ele>
					<time>2018-06-25T16:54:04Z</time>
				</trkpt>
				<trkpt lat="45.150060" lon="2.600490">
					<ele>1248</ele>
					<time>2018-06-25T16:55:04Z</time>
				</trkpt>
				<trkpt lat="45.150100" lon="2.600280">
					<ele>1249</ele>
					<time>2018-06-25T16:56:04Z</time>
				</trkpt>
				<trkpt lat="45.150130" lon="2.600200">
					<ele>1249</ele>
					<time>2018-06-25T16:57:04Z</time>
				</trkpt>
				<trkpt lat="45.150170" lon="2.600130">
					<ele>1248</ele>
					<time>2018-06-25T16:58:04Z</time>
				</trkpt>
				<trkpt lat="45.150270" lon="2.599980">
					<ele>1246</ele>
					<time>2018-06-25T16:59:04Z</time>
				</trkpt>
				<trkpt lat="45.150350" lon="2.599860">
					<ele>1244</ele>
					<time>2018-06-25T17:00:04Z</time>
				</trkpt>
				<trkpt lat="45.150390" lon="2.599780">
					<ele>1244</ele>
					<time>2018-06-25T17:01:04Z</time>
				</trkpt>
				<trkpt lat="45.150430" lon="2.599680">
					<ele>1244</ele>
					<time>2018-06-25T17:02:04Z</time>
				</trkpt>
				<trkpt lat="45.150440" lon="2.599610">
					<ele>1245</ele>
					<time>2018-06-25T17:03:04Z</time>
				</trkpt>
				<trkpt lat="45.150460" lon="2.599520">
					<ele>1246</ele>
					<time>2018-06-25T17:04:04Z</time>
				</trkpt>
				<trkpt lat="45.150480" lon="2.599440">
					<ele>1247</ele>
					<time>2018-06-25T17:05:04Z</time>
				</trkpt>
				<trkpt lat="45.150510" lon="2.599360">
					<ele>1248</ele>
					<time>2018-06-25T17:06:04Z</time>
				</trkpt>
				<trkpt lat="45.150530" lon="2.599320">
					<ele>1248</ele>
					<time>2018-06-25T17:07:04Z</time>
				</trkpt>
				<trkpt lat="45.150540" lon="2.599290">
					<ele>1248</ele>
					<time>2018-06-25T17:08:04Z</time>
				</trkpt>
				<trkpt lat="45.150590" lon="2.599220">
					<ele>1249</ele>
					<time>2018-06-25T17:09:04Z</time>
				</trkpt>
				<trkpt lat="45.150740" lon="2.598990">
					<ele>1251</ele>
					<time>2018-06-25T17:10:04Z</time>
				</trkpt>
				<trkpt lat="45.150900" lon="2.598800">
					<ele>1252</ele>
					<time>2018-06-25T17:11:04Z</time>
				</trkpt>
				<trkpt lat="45.150990" lon="2.598710">
					<ele>1251</ele>
					<time>2018-06-25T17:12:04Z</time>
				</trkpt>
				<trkpt lat="45.151050" lon="2.598640">
					<ele>1250</ele>
					<time>2018-06-25T17:13:04Z</time>
				</trkpt>
				<trkpt lat="45.151110" lon="2.598590">
					<ele>1249</ele>
					<time>2018-06-25T17:14:04Z</time>
				</trkpt>
				<trkpt lat="45.151160" lon="2.598530">
					<ele>1248</ele>
					<time>2018-06-25T17:15:04Z</time>
				</trkpt>
				<trkpt lat="45.151210" lon="2.598460">
					<ele>1248</ele>
					<time>2018-06-25T17:16:04Z</time>
				</trkpt>
				<trkpt lat="45.151250" lon="2.598380">
					<ele>1248</ele>
					<time>2018-06-25T17:17:04Z</time>
				</trkpt>
				<trkpt lat="45.151290" lon="2.598300">
					<ele>1248</ele>
					<time>2018-06-25T17:18:04Z</time>
				</trkpt>
				<trkpt lat="45.151320" lon="2.598230">
					<ele>1249</ele>
					<time>2018-06-25T17:19:04Z</time>
				</trkpt>
				<trkpt lat="45.151350" lon="2.598170">
					<ele>1250</ele>
					<time>2018-06-25T17:20:04Z</time>
				</trkpt>
				<trkpt lat="45.151390" lon="2.598090">
					<ele>1250</ele>
					<time>2018-06-25T17:21:04Z</time>
				</trkpt>
				<trkpt lat="45.151450" lon="2.597960">
					<ele>1252</ele>
					<time>2018-06-25T17:22:04Z</time>
				</trkpt>
				<trkpt lat="45.151580" lon="2.597740">
					<ele>1255</ele>
					<time>2018-06-25T17:23:04Z</time>
				</trkpt>
				<trkpt lat="45.151680" lon="2.597590">
					<ele>1256</ele>
					<time>2018-06-25T17:24:04Z</time>
				</trkpt>
				<trkpt lat="45.151740" lon="2.597500">
					<ele>1257</ele>
					<time>2018-06-25T17:25:04Z</time>
				</trkpt>
				<trkpt lat="45.152000" lon="2.597160">
					<ele>1258</ele>
					<time>2018-06-25T17:26:04Z</time>
				</trkpt>
				<trkpt lat="45.152250" lon="2.596860">
					<ele>1258</ele>
					<time>2018-06-25T17:27:04Z</time>
				</trkpt>
				<trkpt lat="45.152300" lon="2.596800">
					<ele>1259</ele>
					<time>2018-06-25T17:28:04Z</time>
				</trkpt>
				<trkpt lat="45.152460" lon="2.596610">
					<ele>1259</ele>
					<time>2018-06-25T17:29:04Z</time>
				</trkpt>
				<trkpt lat="45.152590" lon="2.596450">
					<ele>1259</ele>
					<time>2018-06-25T17:30:04Z</time>
				</trkpt>
				<trkpt lat="45.152790" lon="2.596200">
					<ele>1260</ele>
					<time>2018-06-25T17:31:04Z</time>
				</trkpt>
				<trkpt lat="45.152850" lon="2.596120">
					<ele>1260</ele>
					<time>2018-06-25T17:32:04Z</time>
				</trkpt>
				<trkpt lat="45.152980" lon="2.595970">
					<ele>1259</ele>
					<time>2018-06-25T17:33:04Z</time>
				</trkpt>
				<trkpt lat="45.153100" lon="2.595790">
					<ele>1258</ele>
					<time>2018-06-25T17:34:04Z</time>
				</trkpt>
				<trkpt lat="45.153200" lon="2.595620">
					<ele>1257</ele>
					<time>2018-06-25T17:35:04Z</time>
				</trkpt>
				<trkpt lat="45.153340" lon="2.595400">
					<ele>1256</ele>
					<time>2018-06-25T17:36:04Z</time>
				</trkpt>
				<trkpt lat="45.153490" lon="2.595090">
					<ele>1257</ele>
					<time>2018-06-25T17:37:04Z</time>
				</trkpt>
				<trkpt lat="45.153550" lon="2.594990">
					<ele>1256</ele>
					<time>2018-06-25T17:38:04Z</time>
				</trkpt>
				<trkpt lat="45.153740" lon="2.594670">
					<ele>1249</ele>
					<time>2018-06-25T17:39:04Z</time>
				</trkpt>
				<trkpt lat="45.153940" lon="2.594350">
					<ele>1245</ele>
					<time>2018-06-25T17:40:04Z</time>
				</trkpt>
				<trkpt lat="45.154110" lon="2.594100">
					<ele>1243</ele>
					<time>2018-06-25T17:41:04Z</time>
				</trkpt>
				<trkpt lat="45.154290" lon="2.593870">
					<ele>1239</ele>
					<time>2018-06-25T17:42:04Z</time>
				</trkpt>
				<trkpt lat="45.154390" lon="2.593720">
					<ele>1238</ele>
					<time>2018-06-25T17:43:04Z</time>
				</trkpt>
				<trkpt lat="45.154420" lon="2.593650">
					<ele>1238</ele>
					<time>2018-06-25T17:44:04Z</time>
				</trkpt>
				<trkpt lat="45.154480" lon="2.593500">
					<ele>1239</ele>
					<time>2018-06-25T17:45:04Z</time>
				</trkpt>
				<trkpt lat="45.154620" lon="2.593060">
					<ele>1240</ele>
					<time>2018-06-25T17:46:04Z</time>
				</trkpt>
				<trkpt lat="45.154680" lon="2.592830">
					<ele>1240</ele>
					<time>2018-06-25T17:47:04Z</time>
				</trkpt>
				<trkpt lat="45.154720" lon="2.592690">
					<ele>1241</ele>
					<time>2018-06-25T17:48:04Z</time>
				</trkpt>
				<trkpt lat="45.154730" lon="2.592660">
					<ele>1241</ele>
					<time>2018-06-25T17:49:04Z</time>
				</trkpt>
				<trkpt lat="45.154820" lon="2.592340">
					<ele>1242</ele>
					<time>2018-06-25T17:50:04Z</time>
				</trkpt>
				<trkpt lat="45.154840" lon="2.592250">
					<ele>1242</ele>
					<time>2018-06-25T17:51:04Z</time>
				</trkpt>
				<trkpt lat="45.154860" lon="2.592190">
					<ele>1242</ele>
					<time>2018-06-25T17:52:04Z</time>
				</trkpt>
				<trkpt lat="45.154870" lon="2.592090">
					<ele>1242</ele>
					<time>2018-06-25T17:53:04Z</time>
				</trkpt>
				<trkpt lat="45.154870" lon="2.592040">
					<ele>1242</ele>
					<time>2018-06-25T17:54:04Z</time>
				</trkpt>
				<trkpt lat="45.154890" lon="2.591870">
					<ele>1241</ele>
					<time>2018-06-25T17:55:04Z</time>
				</trkpt>
				<trkpt lat="45.154900" lon="2.591730">
					<ele>1241</ele>
					<time>2018-06-25T17:56:04Z</time>
				</trkpt>
				<trkpt lat="45.154940" lon="2.591390">
					<ele>1240</ele>
					<time>2018-06-25T17:57:04Z</time>
				</trkpt>
				<trkpt lat="45.155000" lon="2.591060">
					<ele>1240</ele>
					<time>2018-06-25T17:58:04Z</time>
				</trkpt>
				<trkpt lat="45.155100" lon="2.590750">
					<ele>1241</ele>
					<time>2018-06-25T17:59:04Z</time>
				</trkpt>
				<trkpt lat="45.155220" lon="2.590330">
					<ele>1240</ele>
					<time>2018-06-25T18:00:04Z</time>
				</trkpt>
				<trkpt lat="45.155390" lon="2.589790">
					<ele>1240</ele>
					<time>2018-06-25T18:01:04Z</time>
				</trkpt>
				<trkpt lat="45.155560" lon="2.589220">
					<ele>1240</ele>
					<time>2018-06-25T18:02:04Z</time>
				</trkpt>
				<trkpt lat="45.155700" lon="2.588790">
					<ele>1239</ele>
					<time>2018-06-25T18:03:04Z</time>
				</trkpt>
				<trkpt lat="45.155770" lon="2.588530">
					<ele>1238</ele>
					<time>2018-06-25T18:04:04Z</time>
				</trkpt>
				<trkpt lat="45.155860" lon="2.588260">
					<ele>1237</ele>
					<time>2018-06-25T18:05:04Z</time>
				</trkpt>
				<trkpt lat="45.155890" lon="2.588130">
					<ele>1236</ele>
					<time>2018-06-25T18:06:04Z</time>
				</trkpt>
				<trkpt lat="45.155970" lon="2.587850">
					<ele>1235</ele>
					<time>2018-06-25T18:07:04Z</time>
				</trkpt>
				<trkpt lat="45.156090" lon="2.587450">
					<ele>1235</ele>
					<time>2018-06-25T18:08:04Z</time>
				</trkpt>
				<trkpt lat="45.156170" lon="2.587120">
					<ele>1237</ele>
					<time>2018-06-25T18:09:04Z</time>
				</trkpt>
				<trkpt lat="45.156200" lon="2.586960">
					<ele>1237</ele>
					<time>2018-06-25T18:10:04Z</time>
				</trkpt>
				<trkpt lat="45.156210" lon="2.586780">
					<ele>1236</ele>
					<time>2018-06-25T18:11:04Z</time>
				</trkpt>
				<trkpt lat="45.156190" lon="2.586510">
					<ele>1234</ele>
					<time>2018-06-25T18:12:04Z</time>
				</trkpt>
				<trkpt lat="45.156130" lon="2.586150">
					<ele>1231</ele>
					<time>2018-06-25T18:13:04Z</time>
				</trkpt>
				<trkpt lat="45.156050" lon="2.585750">
					<ele>1226</ele>
					<time>2018-06-25T18:14:04Z</time>
				</trkpt>
				<trkpt lat="45.156030" lon="2.585570">
					<ele>1223</ele>
					<time>2018-06-25T18:15:04Z</time>
				</trkpt>
				<trkpt lat="45.156020" lon="2.585440">
					<ele>1222</ele>
					<time>2018-06-25T18:16:04Z</time>
				</trkpt>
				<trkpt lat="45.156030" lon="2.585260">
					<ele>1222</ele>
					<time>2018-06-25T18:17:04Z</time>
				</trkpt>
				<trkpt lat="45.156060" lon="2.585060">
					<ele>1222</ele>
					<time>2018-06-25T18:18:04Z</time>
				</trkpt>
				<trkpt lat="45.156130" lon="2.584840">
					<ele>1222</ele>
					<time>2018-06-25T18:19:04Z</time>
				</trkpt>
				<trkpt lat="45.156200" lon="2.584630">
					<ele>1221</ele>
					<time>2018-06-25T18:20:04Z</time>
				</trkpt>
				<trkpt lat="45.156330" lon="2.584300">
					<ele>1221</ele>
					<time>2018-06-25T18:21:04Z</time>
				</trkpt>
				<trkpt lat="45.156460" lon="2.583960">
					<ele>1220</ele>
					<time>2018-06-25T18:22:04Z</time>
				</trkpt>
				<trkpt lat="45.156610" lon="2.583640">
					<ele>1220</ele>
					<time>2018-06-25T18:23:04Z</time>
				</trkpt>
				<trkpt lat="45.156820" lon="2.583220">
					<ele>1221</ele>
					<time>2018-06-25T18:24:04Z</time>
				</trkpt>
				<trkpt lat="45.156920" lon="2.583030">
					<ele>1223</ele>
					<time>2018-06-25T18:25:04Z</time>
				</trkpt>
				<trkpt lat="45.157020" lon="2.582860">
					<ele>1226</ele>
					<time>2018-06-25T18:26:04Z</time>
				</trkpt>
				<trkpt lat="45.157100" lon="2.582710">
					<ele>1229</ele>
					<time>2018-06-25T18:27:04Z</time>
				</trkpt>
				<trkpt lat="45.157130" lon="2.582640">
					<ele>1229</ele>
					<time>2018-06-25T18:28:04Z</time>
				</trkpt>
				<trkpt lat="45.157160" lon="2.582540">
					<ele>1229</ele>
					<time>2018-06-25T18:29:04Z</time>
				</trkpt>
				<trkpt lat="45.157180" lon="2.582400">
					<ele>1231</ele>
					<time>2018-06-25T18:30:04Z</time>
				</trkpt>
				<trkpt lat="45.157170" lon="2.582260">
					<ele>1231</ele>
					<time>2018-06-25T18:31:04Z</time>
				</trkpt>
				<trkpt lat="45.157160" lon="2.582160">
					<ele>1231</ele>
					<time>2018-06-25T18:32:04Z</time>
				</trkpt>
				<trkpt lat="45.157110" lon="2.581970">
					<ele>1229</ele>
					<time>2018-06-25T18:33:04Z</time>
				</trkpt>
				<trkpt lat="45.156940" lon="2.581630">
					<ele>1220</ele>
					<time>2018-06-25T18:34:04Z</time>
				</trkpt>
				<trkpt lat="45.156880" lon="2.581540">
					<ele>1218</ele>
					<time>2018-06-25T18:35:04Z</time>
				</trkpt>
				<trkpt lat="45.156780" lon="2.581360">
					<ele>1213</ele>
					<time>2018-06-25T18:36:04Z</time>
				</trkpt>
				<trkpt lat="45.156720" lon="2.581240">
					<ele>1211</ele>
					<time>2018-06-25T18:37:04Z</time>
				</trkpt>
				<trkpt lat="45.156700" lon="2.581160">
					<ele>1211</ele>
					<time>2018-06-25T18:38:04Z</time>
				</trkpt>
				<trkpt lat="45.156660" lon="2.580970">
					<ele>1210</ele>
					<time>2018-06-25T18:39:04Z</time>
				</trkpt>
				<trkpt lat="45.156650" lon="2.580790">
					<ele>1210</ele>
					<time>2018-06-25T18:40:04Z</time>
				</trkpt>
				<trkpt lat="45.156670" lon="2.580590">
					<ele>1209</ele>
					<time>2018-06-25T18:41:04Z</time>
				</trkpt>
				<trkpt lat="45.156690" lon="2.580500">
					<ele>1209</ele>
					<time>2018-06-25T18:42:04Z</time>
				</trkpt>
				<trkpt lat="45.156720" lon="2.580400">
					<ele>1210</ele>
					<time>2018-06-25T18:43:04Z</time>
				</trkpt>
				<trkpt lat="45.156750" lon="2.580320">
					<ele>1211</ele>
					<time>2018-06-25T18:44:04Z</time>
				</trkpt>
				<trkpt lat="45.156840" lon="2.580160">
					<ele>1214</ele>
					<time>2018-06-25T18:45:04Z</time>
				</trkpt>
				<trkpt lat="45.156920" lon="2.580000">
					<ele>1217</ele>
					<time>2018-06-25T18:46:04Z</time>
				</trkpt>
				<trkpt lat="45.156950" lon="2.579920">
					<ele>1218</ele>
					<time>2018-06-25T18:47:04Z</time>
				</trkpt>
				<trkpt lat="45.156970" lon="2.579840">
					<ele>1218</ele>
					<time>2018-06-25T18:48:04Z</time>
				</trkpt>
				<trkpt lat="45.156990" lon="2.579770">
					<ele>1219</ele>
					<time>2018-06-25T18:49:04Z</time>
				</trkpt>
				<trkpt lat="45.156990" lon="2.579690">
					<ele>1218</ele>
					<time>2018-06-25T18:50:04Z</time>
				</trkpt>
				<trkpt lat="45.157000" lon="2.579590">
					<ele>1217</ele>
					<time>2018-06-25T18:51:04Z</time>
				</trkpt>
				<trkpt lat="45.156990" lon="2.579450">
					<ele>1215</ele>
					<time>2018-06-25T18:52:04Z</time>
				</trkpt>
				<trkpt lat="45.156980" lon="2.579390">
					<ele>1214</ele>
					<time>2018-06-25T18:53:04Z</time>
				</trkpt>
				<trkpt lat="45.156950" lon="2.579210">
					<ele>1210</ele>
					<time>2018-06-25T18:54:04Z</time>
				</trkpt>
				<trkpt lat="45.156940" lon="2.579090">
					<ele>1209</ele>
					<time>2018-06-25T18:55:04Z</time>
				</trkpt>
				<trkpt lat="45.156950" lon="2.578970">
					<ele>1209</ele>
					<time>2018-06-25T18:56:04Z</time>
				</trkpt>
				<trkpt lat="45.156970" lon="2.578820">
					<ele>1210</ele>
					<time>2018-06-25T18:57:04Z</time>
				</trkpt>
				<trkpt lat="45.157020" lon="2.578570">
					<ele>1212</ele>
					<time>2018-06-25T18:58:04Z</time>
				</trkpt>
				<trkpt lat="45.157050" lon="2.578400">
					<ele>1214</ele>
					<time>2018-06-25T18:59:04Z</time>
				</trkpt>
				<trkpt lat="45.157060" lon="2.578290">
					<ele>1214</ele>
					<time>2018-06-25T19:00:04Z</time>
				</trkpt>
				<trkpt lat="45.157060" lon="2.578170">
					<ele>1215</ele>
					<time>2018-06-25T19:01:04Z</time>
				</trkpt>
				<trkpt lat="45.157030" lon="2.577700">
					<ele>1213</ele>
					<time>2018-06-25T19:02:04Z</time>
				</trkpt>
				<trkpt lat="45.157020" lon="2.577180">
					<ele>1212</ele>
					<time>2018-06-25T19:03:04Z</time>
				</trkpt>
				<trkpt lat="45.157010" lon="2.577020">
					<ele>1211</ele>
					<time>2018-06-25T19:04:04Z</time>
				</trkpt>
				<trkpt lat="45.157000" lon="2.576680">
					<ele>1210</ele>
					<time>2018-06-25T19:05:04Z</time>
				</trkpt>
				<trkpt lat="45.157000" lon="2.576490">
					<ele>1210</ele>
					<time>2018-06-25T19:06:04Z</time>
				</trkpt>
				<trkpt lat="45.156980" lon="2.576300">
					<ele>1210</ele>
					<time>2018-06-25T19:07:04Z</time>
				</trkpt>
				<trkpt lat="45.156950" lon="2.575760">
					<ele>1209</ele>
					<time>2018-06-25T19:08:04Z</time>
				</trkpt>
				<trkpt lat="45.156920" lon="2.575380">
					<ele>1209</ele>
					<time>2018-06-25T19:09:04Z</time>
				</trkpt>
				<trkpt lat="45.156900" lon="2.575100">
					<ele>1210</ele>
					<time>2018-06-25T19:10:04Z</time>
				</trkpt>
				<trkpt lat="45.156890" lon="2.574960">
					<ele>1210</ele>
					<time>2018-06-25T19:11:04Z</time>
				</trkpt>
				<trkpt lat="45.156850" lon="2.574830">
					<ele>1208</ele>
					<time>2018-06-25T19:12:04Z</time>
				</trkpt>
				<trkpt lat="45.156760" lon="2.574530">
					<ele>1203</ele>
					<time>2018-06-25T19:13:04Z</time>
				</trkpt>
				<trkpt lat="45.156710" lon="2.574360">
					<ele>1201</ele>
					<time>2018-06-25T19:14:04Z</time>
				</trkpt>
				<trkpt lat="45.156680" lon="2.574220">
					<ele>1200</ele>
					<time>2018-06-25T19:15:04Z</time>
				</trkpt>
				<trkpt lat="45.156670" lon="2.574050">
					<ele>1199</ele>
					<time>2018-06-25T19:16:04Z</time>
				</trkpt>
				<trkpt lat="45.156670" lon="2.573860">
					<ele>1198</ele>
					<time>2018-06-25T19:17:04Z</time>
				</trkpt>
				<trkpt lat="45.156680" lon="2.573850">
					<ele>1199</ele>
					<time>2018-06-25T19:18:04Z</time>
				</trkpt>
				<trkpt lat="45.156700" lon="2.573660">
					<ele>1200</ele>
					<time>2018-06-25T19:19:04Z</time>
				</trkpt>
				<trkpt lat="45.156750" lon="2.573410">
					<ele>1202</ele>
					<time>2018-06-25T19:20:04Z</time>
				</trkpt>
				<trkpt lat="45.156800" lon="2.573160">
					<ele>1205</ele>
					<time>2018-06-25T19:21:04Z</time>
				</trkpt>
				<trkpt lat="45.156830" lon="2.572930">
					<ele>1206</ele>
					<time>2018-06-25T19:22:04Z</time>
				</trkpt>
				<trkpt lat="45.156830" lon="2.572740">
					<ele>1206</ele>
					<time>2018-06-25T19:23:04Z</time>
				</trkpt>
				<trkpt lat="45.156820" lon="2.572390">
					<ele>1205</ele>
					<time>2018-06-25T19:24:04Z</time>
				</trkpt>
				<trkpt lat="45.156800" lon="2.572210">
					<ele>1205</ele>
					<time>2018-06-25T19:25:04Z</time>
				</trkpt>
				<trkpt lat="45.156770" lon="2.571960">
					<ele>1205</ele>
					<time>2018-06-25T19:26:04Z</time>
				</trkpt>
				<trkpt lat="45.156750" lon="2.571890">
					<ele>1204</ele>
					<time>2018-06-25T19:27:04Z</time>
				</trkpt>
				<trkpt lat="45.156710" lon="2.571710">
					<ele>1203</ele>
					<time>2018-06-25T19:28:04Z</time>
				</trkpt>
				<trkpt lat="45.156650" lon="2.571480">
					<ele>1200</ele>
					<time>2018-06-25T19:29:04Z</time>
				</trkpt>
				<trkpt lat="45.156630" lon="2.571320">
					<ele>1199</ele>
					<time>2018-06-25T19:30:04Z</time>
				</trkpt>
				<trkpt lat="45.156620" lon="2.571170">
					<ele>1199</ele>
					<time>2018-06-25T19:31:04Z</time>
				</trkpt>
				<trkpt lat="45.156620" lon="2.571000">
					<ele>1199</ele>
					<time>2018-06-25T19:32:04Z</time>
				</trkpt>
				<trkpt lat="45.156650" lon="2.570710">
					<ele>1199</ele>
					<time>2018-06-25T19:33:04Z</time>
				</trkpt>
				<trkpt lat="45.156700" lon="2.570470">
					<ele>1199</ele>
					<time>2018-06-25T19:34:04Z</time>
				</trkpt>
				<trkpt lat="45.156720" lon="2.570380">
					<ele>1198</ele>
					<time>2018-06-25T19:35:04Z</time>
				</trkpt>
				<trkpt lat="45.156770" lon="2.570240">
					<ele>1199</ele>
					<time>2018-06-25T19:36:04Z</time>
				</trkpt>
				<trkpt lat="45.156910" lon="2.569870">
					<ele>1200</ele>
					<time>2018-06-25T19:37:04Z</time>
				</trkpt>
				<trkpt lat="45.157120" lon="2.569370">
					<ele>1200</ele>
					<time>2018-06-25T19:38:04Z</time>
				</trkpt>
				<trkpt lat="45.157200" lon="2.569160">
					<ele>1200</ele>
					<time>2018-06-25T19:39:04Z</time>
				</trkpt>
				<trkpt lat="45.157250" lon="2.568970">
					<ele>1200</ele>
					<time>2018-06-25T19:40:04Z</time>
				</trkpt>
				<trkpt lat="45.157290" lon="2.568770">
					<ele>1199</ele>
					<time>2018-06-25T19:41:04Z</time>
				</trkpt>
				<trkpt lat="45.157310" lon="2.568590">
					<ele>1198</ele>
					<time>2018-06-25T19:42:04Z</time>
				</trkpt>
				<trkpt lat="45.157320" lon="2.568350">
					<ele>1196</ele>
					<time>2018-06-25T19:43:04Z</time>
				</trkpt>
				<trkpt lat="45.157310" lon="2.568010">
					<ele>1195</ele>
					<time>2018-06-25T19:44:04Z</time>
				</trkpt>
				<trkpt lat="45.157310" lon="2.567670">
					<ele>1194</ele>
					<time>2018-06-25T19:45:04Z</time>
				</trkpt>
				<trkpt lat="45.157310" lon="2.567340">
					<ele>1195</ele>
					<time>2018-06-25T19:46:04Z</time>
				</trkpt>
				<trkpt lat="45.157300" lon="2.567140">
					<ele>1196</ele>
					<time>2018-06-25T19:47:04Z</time>
				</trkpt>
				<trkpt lat="45.157280" lon="2.566970">
					<ele>1197</ele>
					<time>2018-06-25T19:48:04Z</time>
				</trkpt>
				<trkpt lat="45.157250" lon="2.566830">
					<ele>1197</ele>
					<time>2018-06-25T19:49:04Z</time>
				</trkpt>
				<trkpt lat="45.157190" lon="2.566660">
					<ele>1196</ele>
					<time>2018-06-25T19:50:04Z</time>
				</trkpt>
				<trkpt lat="45.157130" lon="2.566470">
					<ele>1197</ele>
					<time>2018-06-25T19:51:04Z</time>
				</trkpt>
				<trkpt lat="45.156910" lon="2.566040">
					<ele>1194</ele>
					<time>2018-06-25T19:52:04Z</time>
				</trkpt>
				<trkpt lat="45.156770" lon="2.565700">
					<ele>1191</ele>
					<time>2018-06-25T19:53:04Z</time>
				</trkpt>
				<trkpt lat="45.156680" lon="2.565460">
					<ele>1188</ele>
					<time>2018-06-25T19:54:04Z</time>
				</trkpt>
				<trkpt lat="45.156640" lon="2.565310">
					<ele>1187</ele>
					<time>2018-06-25T19:55:04Z</time>
				</trkpt>
				<trkpt lat="45.156610" lon="2.565180">
					<ele>1186</ele>
					<time>2018-06-25T19:56:04Z</time>
				</trkpt>
				<trkpt lat="45.156590" lon="2.565040">
					<ele>1185</ele>
					<time>2018-06-25T19:57:04Z</time>
				</trkpt>
				<trkpt lat="45.156560" lon="2.564740">
					<ele>1184</ele>
					<time>2018-06-25T19:58:04Z</time>
				</trkpt>
				<trkpt lat="45.156540" lon="2.564520">
					<ele>1184</ele>
					<time>2018-06-25T19:59:04Z</time>
				</trkpt>
				<trkpt lat="45.156520" lon="2.564330">
					<ele>1183</ele>
					<time>2018-06-25T20:00:04Z</time>
				</trkpt>
				<trkpt lat="45.156520" lon="2.564180">
					<ele>1183</ele>
					<time>2018-06-25T20:01:04Z</time>
				</trkpt>
				<trkpt lat="45.156520" lon="2.564030">
					<ele>1183</ele>
					<time>2018-06-25T20:02:04Z</time>
				</trkpt>
				<trkpt lat="45.156530" lon="2.563870">
					<ele>1183</ele>
					<time>2018-06-25T20:03:04Z</time>
				</trkpt>
				<trkpt lat="45.156540" lon="2.563760">
					<ele>1183</ele>
					<time>2018-06-25T20:04:04Z</time>
				</trkpt>
				<trkpt lat="45.156580" lon="2.563570">
					<ele>1185</ele>
					<time>2018-06-25T20:05:04Z</time>
				</trkpt>
				<trkpt lat="45.156610" lon="2.563390">
					<ele>1186</ele>
					<time>2018-06-25T20:06:04Z</time>
				</trkpt>
				<trkpt lat="45.156610" lon="2.563280">
					<ele>1186</ele>
					<time>2018-06-25T20:07:04Z</time>
				</trkpt>
				<trkpt lat="45.156610" lon="2.563160">
					<ele>1185</ele>
					<time>2018-06-25T20:08:04Z</time>
				</trkpt>
				<trkpt lat="45.156610" lon="2.563060">
					<ele>1185</ele>
					<time>2018-06-25T20:09:04Z</time>
				</trkpt>
				<trkpt lat="45.156610" lon="2.562960">
					<ele>1185</ele>
					<time>2018-06-25T20:10:04Z</time>
				</trkpt>
				<trkpt lat="45.156620" lon="2.562850">
					<ele>1185</ele>
					<time>2018-06-25T20:11:04Z</time>
				</trkpt>
				<trkpt lat="45.156630" lon="2.562680">
					<ele>1185</ele>
					<time>2018-06-25T20:12:04Z</time>
				</trkpt>
				<trkpt lat="45.156630" lon="2.562550">
					<ele>1185</ele>
					<time>2018-06-25T20:13:04Z</time>
				</trkpt>
				<trkpt lat="45.156620" lon="2.562410">
					<ele>1184</ele>
					<time>2018-06-25T20:14:04Z</time>
				</trkpt>
				<trkpt lat="45.156610" lon="2.562290">
					<ele>1184</ele>
					<time>2018-06-25T20:15:04Z</time>
				</trkpt>
				<trkpt lat="45.156570" lon="2.561920">
					<ele>1184</ele>
					<time>2018-06-25T20:16:04Z</time>
				</trkpt>
				<trkpt lat="45.156510" lon="2.561460">
					<ele>1182</ele>
					<time>2018-06-25T20:17:04Z</time>
				</trkpt>
				<trkpt lat="45.156440" lon="2.561060">
					<ele>1179</ele>
					<time>2018-06-25T20:18:04Z</time>
				</trkpt>
				<trkpt lat="45.156370" lon="2.560630">
					<ele>1174</ele>
					<time>2018-06-25T20:19:04Z</time>
				</trkpt>
				<trkpt lat="45.156340" lon="2.560390">
					<ele>1172</ele>
					<time>2018-06-25T20:20:04Z</time>
				</trkpt>
				<trkpt lat="45.156330" lon="2.560150">
					<ele>1171</ele>
					<time>2018-06-25T20:21:04Z</time>
				</trkpt>
				<trkpt lat="45.156340" lon="2.559620">
					<ele>1171</ele>
					<time>2018-06-25T20:22:04Z</time>
				</trkpt>
				<trkpt lat="45.156370" lon="2.558980">
					<ele>1172</ele>
					<time>2018-06-25T20:23:04Z</time>
				</trkpt>
				<trkpt lat="45.156380" lon="2.558460">
					<ele>1170</ele>
					<time>2018-06-25T20:24:04Z</time>
				</trkpt>
				<trkpt lat="45.156380" lon="2.558160">
					<ele>1169</ele>
					<time>2018-06-25T20:25:04Z</time>
				</trkpt>
				<trkpt lat="45.156380" lon="2.557910">
					<ele>1168</ele>
					<time>2018-06-25T20:26:04Z</time>
				</trkpt>
				<trkpt lat="45.156390" lon="2.557890">
					<ele>1168</ele>
					<time>2018-06-25T20:27:04Z</time>
				</trkpt>
				<trkpt lat="45.156400" lon="2.557650">
					<ele>1168</ele>
					<time>2018-06-25T20:28:04Z</time>
				</trkpt>
				<trkpt lat="45.156420" lon="2.557320">
					<ele>1168</ele>
					<time>2018-06-25T20:29:04Z</time>
				</trkpt>
				<trkpt lat="45.156420" lon="2.557120">
					<ele>1167</ele>
					<time>2018-06-25T20:30:04Z</time>
				</trkpt>
				<trkpt lat="45.156420" lon="2.556660">
					<ele>1166</ele>
					<time>2018-06-25T20:31:04Z</time>
				</trkpt>
				<trkpt lat="45.156410" lon="2.556250">
					<ele>1164</ele>
					<time>2018-06-25T20:32:04Z</time>
				</trkpt>
				<trkpt lat="45.156390" lon="2.556110">
					<ele>1162</ele>
					<time>2018-06-25T20:33:04Z</time>
				</trkpt>
				<trkpt lat="45.156390" lon="2.556050">
					<ele>1162</ele>
					<time>2018-06-25T20:34:04Z</time>
				</trkpt>
				<trkpt lat="45.156370" lon="2.555830">
					<ele>1160</ele>
					<time>2018-06-25T20:35:04Z</time>
				</trkpt>
				<trkpt lat="45.156360" lon="2.555660">
					<ele>1159</ele>
					<time>2018-06-25T20:36:04Z</time>
				</trkpt>
				<trkpt lat="45.156360" lon="2.555420">
					<ele>1158</ele>
					<time>2018-06-25T20:37:04Z</time>
				</trkpt>
				<trkpt lat="45.156370" lon="2.555080">
					<ele>1157</ele>
					<time>2018-06-25T20:38:04Z</time>
				</trkpt>
				<trkpt lat="45.156380" lon="2.554910">
					<ele>1157</ele>
					<time>2018-06-25T20:39:04Z</time>
				</trkpt>
				<trkpt lat="45.156380" lon="2.554850">
					<ele>1156</ele>
					<time>2018-06-25T20:40:04Z</time>
				</trkpt>
				<trkpt lat="45.156380" lon="2.554750">
					<ele>1155</ele>
					<time>2018-06-25T20:41:04Z</time>
				</trkpt>
				<trkpt lat="45.156370" lon="2.554640">
					<ele>1153</ele>
					<time>2018-06-25T20:42:04Z</time>
				</trkpt>
				<trkpt lat="45.156370" lon="2.554580">
					<ele>1153</ele>
					<time>2018-06-25T20:43:04Z</time>
				</trkpt>
				<trkpt lat="45.156380" lon="2.554540">
					<ele>1153</ele>
					<time>2018-06-25T20:44:04Z</time>
				</trkpt>
				<trkpt lat="45.156380" lon="2.554500">
					<ele>1153</ele>
					<time>2018-06-25T20:45:04Z</time>
				</trkpt>
				<trkpt lat="45.156460" lon="2.554250">
					<ele>1156</ele>
					<time>2018-06-25T20:46:04Z</time>
				</trkpt>
				<trkpt lat="45.156510" lon="2.554100">
					<ele>1159</ele>
					<time>2018-06-25T20:47:04Z</time>
				</trkpt>
				<trkpt lat="45.156520" lon="2.554040">
					<ele>1159</ele>
					<time>2018-06-25T20:48:04Z</time>
				</trkpt>
				<trkpt lat="45.156520" lon="2.553990">
					<ele>1159</ele>
					<time>2018-06-25T20:49:04Z</time>
				</trkpt>
				<trkpt lat="45.156530" lon="2.553930">
					<ele>1159</ele>
					<time>2018-06-25T20:50:04Z</time>
				</trkpt>
				<trkpt lat="45.156520" lon="2.553860">
					<ele>1158</ele>
					<time>2018-06-25T20:51:04Z</time>
				</trkpt>
				<trkpt lat="45.156520" lon="2.553760">
					<ele>1157</ele>
					<time>2018-06-25T20:52:04Z</time>
				</trkpt>
				<trkpt lat="45.156510" lon="2.553600">
					<ele>1155</ele>
					<time>2018-06-25T20:53:04Z</time>
				</trkpt>
				<trkpt lat="45.156520" lon="2.553460">
					<ele>1155</ele>
					<time>2018-06-25T20:54:04Z</time>
				</trkpt>
				<trkpt lat="45.156520" lon="2.553310">
					<ele>1153</ele>
					<time>2018-06-25T20:55:04Z</time>
				</trkpt>
				<trkpt lat="45.156530" lon="2.553170">
					<ele>1153</ele>
					<time>2018-06-25T20:56:04Z</time>
				</trkpt>
				<trkpt lat="45.156540" lon="2.553090">
					<ele>1152</ele>
					<time>2018-06-25T20:57:04Z</time>
				</trkpt>
				<trkpt lat="45.156550" lon="2.553030">
					<ele>1153</ele>
					<time>2018-06-25T20:58:04Z</time>
				</trkpt>
				<trkpt lat="45.156570" lon="2.552940">
					<ele>1153</ele>
					<time>2018-06-25T20:59:04Z</time>
				</trkpt>
				<trkpt lat="45.156600" lon="2.552830">
					<ele>1154</ele>
					<time>2018-06-25T21:00:04Z</time>
				</trkpt>
				<trkpt lat="45.156630" lon="2.552700">
					<ele>1155</ele>
					<time>2018-06-25T21:01:04Z</time>
				</trkpt>
				<trkpt lat="45.156670" lon="2.552520">
					<ele>1156</ele>
					<time>2018-06-25T21:02:04Z</time>
				</trkpt>
				<trkpt lat="45.156690" lon="2.552260">
					<ele>1155</ele>
					<time>2018-06-25T21:03:04Z</time>
				</trkpt>
				<trkpt lat="45.156710" lon="2.551970">
					<ele>1154</ele>
					<time>2018-06-25T21:04:04Z</time>
				</trkpt>
				<trkpt lat="45.156740" lon="2.551750">
					<ele>1154</ele>
					<time>2018-06-25T21:05:04Z</time>
				</trkpt>
				<trkpt lat="45.156760" lon="2.551450">
					<ele>1153</ele>
					<time>2018-06-25T21:06:04Z</time>
				</trkpt>
				<trkpt lat="45.156760" lon="2.551080">
					<ele>1151</ele>
					<time>2018-06-25T21:07:04Z</time>
				</trkpt>
				<trkpt lat="45.156780" lon="2.550690">
					<ele>1150</ele>
					<time>2018-06-25T21:08:04Z</time>
				</trkpt>
				<trkpt lat="45.156800" lon="2.550400">
					<ele>1150</ele>
					<time>2018-06-25T21:09:04Z</time>
				</trkpt>
				<trkpt lat="45.156800" lon="2.550190">
					<ele>1149</ele>
					<time>2018-06-25T21:10:04Z</time>
				</trkpt>
				<trkpt lat="45.156810" lon="2.550050">
					<ele>1148</ele>
					<time>2018-06-25T21:11:04Z</time>
				</trkpt>
				<trkpt lat="45.156810" lon="2.549910">
					<ele>1148</ele>
					<time>2018-06-25T21:12:04Z</time>
				</trkpt>
				<trkpt lat="45.156800" lon="2.549600">
					<ele>1147</ele>
					<time>2018-06-25T21:13:04Z</time>
				</trkpt>
				<trkpt lat="45.156790" lon="2.549470">
					<ele>1147</ele>
					<time>2018-06-25T21:14:04Z</time>
				</trkpt>
				<trkpt lat="45.156790" lon="2.549330">
					<ele>1146</ele>
					<time>2018-06-25T21:15:04Z</time>
				</trkpt>
				<trkpt lat="45.156780" lon="2.549120">
					<ele>1146</ele>
					<time>2018-06-25T21:16:04Z</time>
				</trkpt>
				<trkpt lat="45.156790" lon="2.549040">
					<ele>1146</ele>
					<time>2018-06-25T21:17:04Z</time>
				</trkpt>
				<trkpt lat="45.156790" lon="2.548960">
					<ele>1146</ele>
					<time>2018-06-25T21:18:04Z</time>
				</trkpt>
				<trkpt lat="45.156800" lon="2.548890">
					<ele>1146</ele>
					<time>2018-06-25T21:19:04Z</time>
				</trkpt>
				<trkpt lat="45.156800" lon="2.548830">
					<ele>1146</ele>
					<time>2018-06-25T21:20:04Z</time>
				</trkpt>
				<trkpt lat="45.156810" lon="2.548730">
					<ele>1146</ele>
					<time>2018-06-25T21:21:04Z</time>
				</trkpt>
				<trkpt lat="45.156810" lon="2.548660">
					<ele>1146</ele>
					<time>2018-06-25T21:22:04Z</time>
				</trkpt>
				<trkpt lat="45.156820" lon="2.548570">
					<ele>1146</ele>
					<time>2018-06-25T21:23:04Z</time>
				</trkpt>
				<trkpt lat="45.156810" lon="2.548490">
					<ele>1145</ele>
					<time>2018-06-25T21:24:04Z</time>
				</trkpt>
				<trkpt lat="45.156810" lon="2.548410">
					<ele>1145</ele>
					<time>2018-06-25T21:25:04Z</time>
				</trkpt>
				<trkpt lat="45.156820" lon="2.548320">
					<ele>1145</ele>
					<time>2018-06-25T21:26:04Z</time>
				</trkpt>
				<trkpt lat="45.156830" lon="2.548260">
					<ele>1146</ele>
					<time>2018-06-25T21:27:04Z</time>
				</trkpt>
				<trkpt lat="45.156830" lon="2.548190">
					<ele>1146</ele>
					<time>2018-06-25T21:28:04Z</time>
				</trkpt>
				<trkpt lat="45.156850" lon="2.548090">
					<ele>1147</ele>
					<time>2018-06-25T21:29:04Z</time>
				</trkpt>
				<trkpt lat="45.156860" lon="2.548030">
					<ele>1148</ele>
					<time>2018-06-25T21:30:04Z</time>
				</trkpt>
				<trkpt lat="45.156860" lon="2.547990">
					<ele>1148</ele>
					<time>2018-06-25T21:31:04Z</time>
				</trkpt>
				<trkpt lat="45.156860" lon="2.547960">
					<ele>1148</ele>
					<time>2018-06-25T21:32:04Z</time>
				</trkpt>
				<trkpt lat="45.156850" lon="2.547920">
					<ele>1147</ele>
					<time>2018-06-25T21:33:04Z</time>
				</trkpt>
				<trkpt lat="45.156850" lon="2.547880">
					<ele>1147</ele>
					<time>2018-06-25T21:34:04Z</time>
				</trkpt>
				<trkpt lat="45.156840" lon="2.547850">
					<ele>1147</ele>
					<time>2018-06-25T21:35:04Z</time>
				</trkpt>
				<trkpt lat="45.156810" lon="2.547760">
					<ele>1145</ele>
					<time>2018-06-25T21:36:04Z</time>
				</trkpt>
				<trkpt lat="45.156770" lon="2.547630">
					<ele>1143</ele>
					<time>2018-06-25T21:37:04Z</time>
				</trkpt>
				<trkpt lat="45.156740" lon="2.547560">
					<ele>1141</ele>
					<time>2018-06-25T21:38:04Z</time>
				</trkpt>
				<trkpt lat="45.156730" lon="2.547490">
					<ele>1141</ele>
					<time>2018-06-25T21:39:04Z</time>
				</trkpt>
				<trkpt lat="45.156710" lon="2.547380">
					<ele>1140</ele>
					<time>2018-06-25T21:40:04Z</time>
				</trkpt>
				<trkpt lat="45.156700" lon="2.547200">
					<ele>1140</ele>
					<time>2018-06-25T21:41:04Z</time>
				</trkpt>
				<trkpt lat="45.156690" lon="2.546980">
					<ele>1140</ele>
					<time>2018-06-25T21:42:04Z</time>
				</trkpt>
				<trkpt lat="45.156690" lon="2.546820">
					<ele>1140</ele>
					<time>2018-06-25T21:43:04Z</time>
				</trkpt>
				<trkpt lat="45.156680" lon="2.546520">
					<ele>1140</ele>
					<time>2018-06-25T21:44:04Z</time>
				</trkpt>
				<trkpt lat="45.156650" lon="2.546130">
					<ele>1139</ele>
					<time>2018-06-25T21:45:04Z</time>
				</trkpt>
				<trkpt lat="45.156600" lon="2.545580">
					<ele>1138</ele>
					<time>2018-06-25T21:46:04Z</time>
				</trkpt>
				<trkpt lat="45.156520" lon="2.544950">
					<ele>1137</ele>
					<time>2018-06-25T21:47:04Z</time>
				</trkpt>
				<trkpt lat="45.156460" lon="2.544440">
					<ele>1135</ele>
					<time>2018-06-25T21:48:04Z</time>
				</trkpt>
				<trkpt lat="45.156380" lon="2.543960">
					<ele>1132</ele>
					<time>2018-06-25T21:49:04Z</time>
				</trkpt>
				<trkpt lat="45.156330" lon="2.543590">
					<ele>1131</ele>
					<time>2018-06-25T21:50:04Z</time>
				</trkpt>
				<trkpt lat="45.156290" lon="2.543250">
					<ele>1131</ele>
					<time>2018-06-25T21:51:04Z</time>
				</trkpt>
				<trkpt lat="45.156290" lon="2.542930">
					<ele>1133</ele>
					<time>2018-06-25T21:52:04Z</time>
				</trkpt>
				<trkpt lat="45.156270" lon="2.542720">
					<ele>1133</ele>
					<time>2018-06-25T21:53:04Z</time>
				</trkpt>
				<trkpt lat="45.156230" lon="2.542530">
					<ele>1133</ele>
					<time>2018-06-25T21:54:04Z</time>
				</trkpt>
				<trkpt lat="45.156150" lon="2.542330">
					<ele>1130</ele>
					<time>2018-06-25T21:55:04Z</time>
				</trkpt>
				<trkpt lat="45.156070" lon="2.542070">
					<ele>1127</ele>
					<time>2018-06-25T21:56:04Z</time>
				</trkpt>
				<trkpt lat="45.155990" lon="2.541730">
					<ele>1125</ele>
					<time>2018-06-25T21:57:04Z</time>
				</trkpt>
				<trkpt lat="45.155930" lon="2.541280">
					<ele>1125</ele>
					<time>2018-06-25T21:58:04Z</time>
				</trkpt>
				<trkpt lat="45.155780" lon="2.540250">
					<ele>1123</ele>
					<time>2018-06-25T21:59:04Z</time>
				</trkpt>
				<trkpt lat="45.155720" lon="2.539850">
					<ele>1122</ele>
					<time>2018-06-25T22:00:04Z</time>
				</trkpt>
				<trkpt lat="45.155680" lon="2.539560">
					<ele>1122</ele>
					<time>2018-06-25T22:01:04Z</time>
				</trkpt>
				<trkpt lat="45.155610" lon="2.539120">
					<ele>1122</ele>
					<time>2018-06-25T22:02:04Z</time>
				</trkpt>
				<trkpt lat="45.155570" lon="2.538850">
					<ele>1121</ele>
					<time>2018-06-25T22:03:04Z</time>
				</trkpt>
				<trkpt lat="45.155540" lon="2.538560">
					<ele>1120</ele>
					<time>2018-06-25T22:04:04Z</time>
				</trkpt>
				<trkpt lat="45.155500" lon="2.538330">
					<ele>1119</ele>
					<time>2018-06-25T22:05:04Z</time>
				</trkpt>
				<trkpt lat="45.155430" lon="2.537980">
					<ele>1119</ele>
					<time>2018-06-25T22:06:04Z</time>
				</trkpt>
				<trkpt lat="45.155350" lon="2.537640">
					<ele>1118</ele>
					<time>2018-06-25T22:07:04Z</time>
				</trkpt>
				<trkpt lat="45.155270" lon="2.537250">
					<ele>1119</ele>
					<time>2018-06-25T22:08:04Z</time>
				</trkpt>
				<trkpt lat="45.155190" lon="2.536790">
					<ele>1121</ele>
					<time>2018-06-25T22:09:04Z</time>
				</trkpt>
				<trkpt lat="45.155100" lon="2.536430">
					<ele>1122</ele>
					<time>2018-06-25T22:10:04Z</time>
				</trkpt>
				<trkpt lat="45.155010" lon="2.536040">
					<ele>1122</ele>
					<time>2018-06-25T22:11:04Z</time>
				</trkpt>
				<trkpt lat="45.154940" lon="2.535720">
					<ele>1121</ele>
					<time>2018-06-25T22:12:04Z</time>
				</trkpt>
				<trkpt lat="45.154910" lon="2.535530">
					<ele>1121</ele>
					<time>2018-06-25T22:13:04Z</time>
				</trkpt>
				<trkpt lat="45.154880" lon="2.535290">
					<ele>1120</ele>
					<time>2018-06-25T22:14:04Z</time>
				</trkpt>
				<trkpt lat="45.154870" lon="2.535260">
					<ele>1119</ele>
					<time>2018-06-25T22:15:04Z</time>
				</trkpt>
				<trkpt lat="45.154850" lon="2.535020">
					<ele>1119</ele>
					<time>2018-06-25T22:16:04Z</time>
				</trkpt>
				<trkpt lat="45.154820" lon="2.534760">
					<ele>1119</ele>
					<time>2018-06-25T22:17:04Z</time>
				</trkpt>
				<trkpt lat="45.154790" lon="2.534500">
					<ele>1119</ele>
					<time>2018-06-25T22:18:04Z</time>
				</trkpt>
				<trkpt lat="45.154760" lon="2.534210">
					<ele>1120</ele>
					<time>2018-06-25T22:19:04Z</time>
				</trkpt>
				<trkpt lat="45.154710" lon="2.533870">
					<ele>1120</ele>
					<time>2018-06-25T22:20:04Z</time>
				</trkpt>
				<trkpt lat="45.154640" lon="2.533630">
					<ele>1118</ele>
					<time>2018-06-25T22:21:04Z</time>
				</trkpt>
				<trkpt lat="45.154490" lon="2.533180">
					<ele>1115</ele>
					<time>2018-06-25T22:22:04Z</time>
				</trkpt>
				<trkpt lat="45.154270" lon="2.532590">
					<ele>1110</ele>
					<time>2018-06-25T22:23:04Z</time>
				</trkpt>
				<trkpt lat="45.154140" lon="2.532190">
					<ele>1108</ele>
					<time>2018-06-25T22:24:04Z</time>
				</trkpt>
				<trkpt lat="45.154040" lon="2.531830">
					<ele>1107</ele>
					<time>2018-06-25T22:25:04Z</time>
				</trkpt>
				<trkpt lat="45.153970" lon="2.531510">
					<ele>1106</ele>
					<time>2018-06-25T22:26:04Z</time>
				</trkpt>
				<trkpt lat="45.153950" lon="2.531420">
					<ele>1106</ele>
					<time>2018-06-25T22:27:04Z</time>
				</trkpt>
				<trkpt lat="45.153800" lon="2.530780">
					<ele>1102</ele>
					<time>2018-06-25T22:28:04Z</time>
				</trkpt>
				<trkpt lat="45.153700" lon="2.530370">
					<ele>1101</ele>
					<time>2018-06-25T22:29:04Z</time>
				</trkpt>
				<trkpt lat="45.153570" lon="2.529950">
					<ele>1098</ele>
					<time>2018-06-25T22:30:04Z</time>
				</trkpt>
				<trkpt lat="45.153420" lon="2.529490">
					<ele>1098</ele>
					<time>2018-06-25T22:31:04Z</time>
				</trkpt>
				<trkpt lat="45.153220" lon="2.528970">
					<ele>1095</ele>
					<time>2018-06-25T22:32:04Z</time>
				</trkpt>
				<trkpt lat="45.153060" lon="2.528580">
					<ele>1091</ele>
					<time>2018-06-25T22:33:04Z</time>
				</trkpt>
				<trkpt lat="45.152970" lon="2.528330">
					<ele>1089</ele>
					<time>2018-06-25T22:34:04Z</time>
				</trkpt>
				<trkpt lat="45.152910" lon="2.528130">
					<ele>1089</ele>
					<time>2018-06-25T22:35:04Z</time>
				</trkpt>
				<trkpt lat="45.152870" lon="2.527950">
					<ele>1089</ele>
					<time>2018-06-25T22:36:04Z</time>
				</trkpt>
				<trkpt lat="45.152840" lon="2.527750">
					<ele>1091</ele>
					<time>2018-06-25T22:37:04Z</time>
				</trkpt>
				<trkpt lat="45.152800" lon="2.527560">
					<ele>1091</ele>
					<time>2018-06-25T22:38:04Z</time>
				</trkpt>
				<trkpt lat="45.152760" lon="2.527390">
					<ele>1091</ele>
					<time>2018-06-25T22:39:04Z</time>
				</trkpt>
				<trkpt lat="45.152670" lon="2.527140">
					<ele>1090</ele>
					<time>2018-06-25T22:40:04Z</time>
				</trkpt>
				<trkpt lat="45.152540" lon="2.526790">
					<ele>1088</ele>
					<time>2018-06-25T22:41:04Z</time>
				</trkpt>
				<trkpt lat="45.152430" lon="2.526510">
					<ele>1086</ele>
					<time>2018-06-25T22:42:04Z</time>
				</trkpt>
				<trkpt lat="45.152340" lon="2.526260">
					<ele>1084</ele>
					<time>2018-06-25T22:43:04Z</time>
				</trkpt>
				<trkpt lat="45.152230" lon="2.525990">
					<ele>1082</ele>
					<time>2018-06-25T22:44:04Z</time>
				</trkpt>
				<trkpt lat="45.152110" lon="2.525770">
					<ele>1080</ele>
					<time>2018-06-25T22:45:04Z</time>
				</trkpt>
				<trkpt lat="45.151970" lon="2.525490">
					<ele>1078</ele>
					<time>2018-06-25T22:46:04Z</time>
				</trkpt>
				<trkpt lat="45.151830" lon="2.525230">
					<ele>1076</ele>
					<time>2018-06-25T22:47:04Z</time>
				</trkpt>
				<trkpt lat="45.151650" lon="2.524890">
					<ele>1074</ele>
					<time>2018-06-25T22:48:04Z</time>
				</trkpt>
				<trkpt lat="45.151490" lon="2.524590">
					<ele>1069</ele>
					<time>2018-06-25T22:49:04Z</time>
				</trkpt>
				<trkpt lat="45.151360" lon="2.524350">
					<ele>1066</ele>
					<time>2018-06-25T22:50:04Z</time>
				</trkpt>
				<trkpt lat="45.151240" lon="2.524130">
					<ele>1064</ele>
					<time>2018-06-25T22:51:04Z</time>
				</trkpt>
				<trkpt lat="45.151170" lon="2.523990">
					<ele>1063</ele>
					<time>2018-06-25T22:52:04Z</time>
				</trkpt>
				<trkpt lat="45.151060" lon="2.523790">
					<ele>1063</ele>
					<time>2018-06-25T22:53:04Z</time>
				</trkpt>
				<trkpt lat="45.150980" lon="2.523640">
					<ele>1063</ele>
					<time>2018-06-25T22:54:04Z</time>
				</trkpt>
				<trkpt lat="45.150880" lon="2.523410">
					<ele>1066</ele>
					<time>2018-06-25T22:55:04Z</time>
				</trkpt>
				<trkpt lat="45.150780" lon="2.523200">
					<ele>1064</ele>
					<time>2018-06-25T22:56:04Z</time>
				</trkpt>
				<trkpt lat="45.150700" lon="2.523010">
					<ele>1062</ele>
					<time>2018-06-25T22:57:04Z</time>
				</trkpt>
				<trkpt lat="45.150640" lon="2.522870">
					<ele>1061</ele>
					<time>2018-06-25T22:58:04Z</time>
				</trkpt>
				<trkpt lat="45.150570" lon="2.522650">
					<ele>1061</ele>
					<time>2018-06-25T22:59:04Z</time>
				</trkpt>
				<trkpt lat="45.150470" lon="2.522300">
					<ele>1061</ele>
					<time>2018-06-25T23:00:04Z</time>
				</trkpt>
				<trkpt lat="45.150410" lon="2.522100">
					<ele>1060</ele>
					<time>2018-06-25T23:01:04Z</time>
				</trkpt>
				<trkpt lat="45.150350" lon="2.521930">
					<ele>1060</ele>
					<time>2018-06-25T23:02:04Z</time>
				</trkpt>
				<trkpt lat="45.150300" lon="2.521810">
					<ele>1059</ele>
					<time>2018-06-25T23:03:04Z</time>
				</trkpt>
				<trkpt lat="45.150260" lon="2.521710">
					<ele>1059</ele>
					<time>2018-06-25T23:04:04Z</time>
				</trkpt>
				<trkpt lat="45.150210" lon="2.521630">
					<ele>1059</ele>
					<time>2018-06-25T23:05:04Z</time>
				</trkpt>
				<trkpt lat="45.150150" lon="2.521540">
					<ele>1058</ele>
					<time>2018-06-25T23:06:04Z</time>
				</trkpt>
				<trkpt lat="45.150050" lon="2.521410">
					<ele>1057</ele>
					<time>2018-06-25T23:07:04Z</time>
				</trkpt>
				<trkpt lat="45.149950" lon="2.521280">
					<ele>1055</ele>
					<time>2018-06-25T23:08:04Z</time>
				</trkpt>
				<trkpt lat="45.149890" lon="2.521190">
					<ele>1054</ele>
					<time>2018-06-25T23:09:04Z</time>
				</trkpt>
				<trkpt lat="45.149850" lon="2.521130">
					<ele>1053</ele>
					<time>2018-06-25T23:10:04Z</time>
				</trkpt>
				<trkpt lat="45.149790" lon="2.520990">
					<ele>1052</ele>
					<time>2018-06-25T23:11:04Z</time>
				</trkpt>
				<trkpt lat="45.149680" lon="2.520690">
					<ele>1051</ele>
					<time>2018-06-25T23:12:04Z</time>
				</trkpt>
				<trkpt lat="45.149560" lon="2.520370">
					<ele>1051</ele>
					<time>2018-06-25T23:13:04Z</time>
				</trkpt>
				<trkpt lat="45.149470" lon="2.520150">
					<ele>1051</ele>
					<time>2018-06-25T23:14:04Z</time>
				</trkpt>
				<trkpt lat="45.149430" lon="2.520050">
					<ele>1052</ele>
					<time>2018-06-25T23:15:04Z</time>
				</trkpt>
				<trkpt lat="45.149390" lon="2.519980">
					<ele>1052</ele>
					<time>2018-06-25T23:16:04Z</time>
				</trkpt>
				<trkpt lat="45.149320" lon="2.519830">
					<ele>1052</ele>
					<time>2018-06-25T23:17:04Z</time>
				</trkpt>
				<trkpt lat="45.149240" lon="2.519670">
					<ele>1052</ele>
					<time>2018-06-25T23:18:04Z</time>
				</trkpt>
				<trkpt lat="45.149140" lon="2.519500">
					<ele>1052</ele>
					<time>2018-06-25T23:19:04Z</time>
				</trkpt>
				<trkpt lat="45.149040" lon="2.519330">
					<ele>1050</ele>
					<time>2018-06-25T23:20:04Z</time>
				</trkpt>
				<trkpt lat="45.148910" lon="2.519140">
					<ele>1048</ele>
					<time>2018-06-25T23:21:04Z</time>
				</trkpt>
				<trkpt lat="45.148800" lon="2.519000">
					<ele>1046</ele>
					<time>2018-06-25T23:22:04Z</time>
				</trkpt>
				<trkpt lat="45.148670" lon="2.518850">
					<ele>1044</ele>
					<time>2018-06-25T23:23:04Z</time>
				</trkpt>
				<trkpt lat="45.148570" lon="2.518710">
					<ele>1043</ele>
					<time>2018-06-25T23:24:04Z</time>
				</trkpt>
				<trkpt lat="45.148490" lon="2.518580">
					<ele>1044</ele>
					<time>2018-06-25T23:25:04Z</time>
				</trkpt>
				<trkpt lat="45.148420" lon="2.518470">
					<ele>1044</ele>
					<time>2018-06-25T23:26:04Z</time>
				</trkpt>
				<trkpt lat="45.148340" lon="2.518330">
					<ele>1045</ele>
					<time>2018-06-25T23:27:04Z</time>
				</trkpt>
				<trkpt lat="45.148230" lon="2.518130">
					<ele>1043</ele>
					<time>2018-06-25T23:28:04Z</time>
				</trkpt>
				<trkpt lat="45.148080" lon="2.517820">
					<ele>1043</ele>
					<time>2018-06-25T23:29:04Z</time>
				</trkpt>
				<trkpt lat="45.147960" lon="2.517570">
					<ele>1043</ele>
					<time>2018-06-25T23:30:04Z</time>
				</trkpt>
				<trkpt lat="45.147820" lon="2.517270">
					<ele>1043</ele>
					<time>2018-06-25T23:31:04Z</time>
				</trkpt>
				<trkpt lat="45.147790" lon="2.517210">
					<ele>1042</ele>
					<time>2018-06-25T23:32:04Z</time>
				</trkpt>
				<trkpt lat="45.147630" lon="2.516880">
					<ele>1042</ele>
					<time>2018-06-25T23:33:04Z</time>
				</trkpt>
				<trkpt lat="45.147350" lon="2.516300">
					<ele>1037</ele>
					<time>2018-06-25T23:34:04Z</time>
				</trkpt>
				<trkpt lat="45.147170" lon="2.515920">
					<ele>1031</ele>
					<time>2018-06-25T23:35:04Z</time>
				</trkpt>
				<trkpt lat="45.147110" lon="2.515800">
					<ele>1030</ele>
					<time>2018-06-25T23:36:04Z</time>
				</trkpt>
				<trkpt lat="45.147090" lon="2.515760">
					<ele>1030</ele>
					<time>2018-06-25T23:37:04Z</time>
				</trkpt>
				<trkpt lat="45.146940" lon="2.515450">
					<ele>1028</ele>
					<time>2018-06-25T23:38:04Z</time>
				</trkpt>
				<trkpt lat="45.146860" lon="2.515280">
					<ele>1028</ele>
					<time>2018-06-25T23:39:04Z</time>
				</trkpt>
				<trkpt lat="45.146850" lon="2.515260">
					<ele>1028</ele>
					<time>2018-06-25T23:40:04Z</time>
				</trkpt>
				<trkpt lat="45.146800" lon="2.515150">
					<ele>1028</ele>
					<time>2018-06-25T23:41:04Z</time>
				</trkpt>
				<trkpt lat="45.146580" lon="2.514720">
					<ele>1026</ele>
					<time>2018-06-25T23:42:04Z</time>
				</trkpt>
				<trkpt lat="45.146410" lon="2.514370">
					<ele>1024</ele>
					<time>2018-06-25T23:43:04Z</time>
				</trkpt>
				<trkpt lat="45.146310" lon="2.514170">
					<ele>1023</ele>
					<time>2018-06-25T23:44:04Z</time>
				</trkpt>
				<trkpt lat="45.146230" lon="2.514000">
					<ele>1020</ele>
					<time>2018-06-25T23:45:04Z</time>
				</trkpt>
				<trkpt lat="45.146160" lon="2.513830">
					<ele>1019</ele>
					<time>2018-06-25T23:46:04Z</time>
				</trkpt>
				<trkpt lat="45.146100" lon="2.513680">
					<ele>1019</ele>
					<time>2018-06-25T23:47:04Z</time>
				</trkpt>
				<trkpt lat="45.146020" lon="2.513460">
					<ele>1019</ele>
					<time>2018-06-25T23:48:04Z</time>
				</trkpt>
				<trkpt lat="45.145910" lon="2.513110">
					<ele>1019</ele>
					<time>2018-06-25T23:49:04Z</time>
				</trkpt>
				<trkpt lat="45.145740" lon="2.512570">
					<ele>1017</ele>
					<time>2018-06-25T23:50:04Z</time>
				</trkpt>
				<trkpt lat="45.145690" lon="2.512420">
					<ele>1016</ele>
					<time>2018-06-25T23:51:04Z</time>
				</trkpt>
				<trkpt lat="45.145610" lon="2.512140">
					<ele>1015</ele>
					<time>2018-06-25T23:52:04Z</time>
				</trkpt>
				<trkpt lat="45.145550" lon="2.511920">
					<ele>1015</ele>
					<time>2018-06-25T23:53:04Z</time>
				</trkpt>
				<trkpt lat="45.145400" lon="2.511390">
					<ele>1014</ele>
					<time>2018-06-25T23:54:04Z</time>
				</trkpt>
				<trkpt lat="45.145320" lon="2.511120">
					<ele>1013</ele>
					<time>2018-06-25T23:55:04Z</time>
				</trkpt>
				<trkpt lat="45.145240" lon="2.510850">
					<ele>1013</ele>
					<time>2018-06-25T23:56:04Z</time>
				</trkpt>
				<trkpt lat="45.145190" lon="2.510700">
					<ele>1013</ele>
					<time>2018-06-25T23:57:04Z</time>
				</trkpt>
				<trkpt lat="45.145150" lon="2.510610">
					<ele>1013</ele>
					<time>2018-06-25T23:58:04Z</time>
				</trkpt>
				<trkpt lat="45.145070" lon="2.510460">
					<ele>1013</ele>
					<time>2018-06-25T23:59:04Z</time>
				</trkpt>
				<trkpt lat="45.144860" lon="2.510130">
					<ele>1011</ele>
					<time>2018-06-26T00:00:04Z</time>
				</trkpt>
				<trkpt lat="45.144830" lon="2.510060">
					<ele>1011</ele>
					<time>2018-06-26T00:01:04Z</time>
				</trkpt>
				<trkpt lat="45.144550" lon="2.509580">
					<ele>1006</ele>
					<time>2018-06-26T00:02:04Z</time>
				</trkpt>
				<trkpt lat="45.144440" lon="2.509360">
					<ele>1005</ele>
					<time>2018-06-26T00:03:04Z</time>
				</trkpt>
				<trkpt lat="45.144370" lon="2.509200">
					<ele>1005</ele>
					<time>2018-06-26T00:04:04Z</time>
				</trkpt>
				<trkpt lat="45.144320" lon="2.509080">
					<ele>1004</ele>
					<time>2018-06-26T00:05:04Z</time>
				</trkpt>
				<trkpt lat="45.144250" lon="2.508840">
					<ele>1003</ele>
					<time>2018-06-26T00:06:04Z</time>
				</trkpt>
				<trkpt lat="45.144230" lon="2.508720">
					<ele>1003</ele>
					<time>2018-06-26T00:07:04Z</time>
				</trkpt>
				<trkpt lat="45.144220" lon="2.508610">
					<ele>1003</ele>
					<time>2018-06-26T00:08:04Z</time>
				</trkpt>
				<trkpt lat="45.144210" lon="2.508450">
					<ele>1003</ele>
					<time>2018-06-26T00:09:04Z</time>
				</trkpt>
				<trkpt lat="45.144200" lon="2.508310">
					<ele>1003</ele>
					<time>2018-06-26T00:10:04Z</time>
				</trkpt>
				<trkpt lat="45.144200" lon="2.508110">
					<ele>1004</ele>
					<time>2018-06-26T00:11:04Z</time>
				</trkpt>
				<trkpt lat="45.144190" lon="2.507960">
					<ele>1005</ele>
					<time>2018-06-26T00:12:04Z</time>
				</trkpt>
				<trkpt lat="45.144170" lon="2.507780">
					<ele>1005</ele>
					<time>2018-06-26T00:13:04Z</time>
				</trkpt>
				<trkpt lat="45.144100" lon="2.507460">
					<ele>1004</ele>
					<time>2018-06-26T00:14:04Z</time>
				</trkpt>
				<trkpt lat="45.144050" lon="2.507160">
					<ele>1001</ele>
					<time>2018-06-26T00:15:04Z</time>
				</trkpt>
				<trkpt lat="45.144010" lon="2.506860">
					<ele>999</ele>
					<time>2018-06-26T00:16:04Z</time>
				</trkpt>
				<trkpt lat="45.144000" lon="2.506750">
					<ele>999</ele>
					<time>2018-06-26T00:17:04Z</time>
				</trkpt>
				<trkpt lat="45.143990" lon="2.506560">
					<ele>998</ele>
					<time>2018-06-26T00:18:04Z</time>
				</trkpt>
				<trkpt lat="45.143980" lon="2.506430">
					<ele>998</ele>
					<time>2018-06-26T00:19:04Z</time>
				</trkpt>
				<trkpt lat="45.143980" lon="2.506190">
					<ele>998</ele>
					<time>2018-06-26T00:20:04Z</time>
				</trkpt>
				<trkpt lat="45.143980" lon="2.505960">
					<ele>997</ele>
					<time>2018-06-26T00:21:04Z</time>
				</trkpt>
				<trkpt lat="45.143980" lon="2.505640">
					<ele>997</ele>
					<time>2018-06-26T00:22:04Z</time>
				</trkpt>
				<trkpt lat="45.143990" lon="2.505400">
					<ele>997</ele>
					<time>2018-06-26T00:23:04Z</time>
				</trkpt>
				<trkpt lat="45.144000" lon="2.505250">
					<ele>997</ele>
					<time>2018-06-26T00:24:04Z</time>
				</trkpt>
				<trkpt lat="45.144010" lon="2.505150">
					<ele>997</ele>
					<time>2018-06-26T00:25:04Z</time>
				</trkpt>
				<trkpt lat="45.144030" lon="2.505080">
					<ele>997</ele>
					<time>2018-06-26T00:26:04Z</time>
				</trkpt>
				<trkpt lat="45.144050" lon="2.505010">
					<ele>997</ele>
					<time>2018-06-26T00:27:04Z</time>
				</trkpt>
				<trkpt lat="45.144080" lon="2.504920">
					<ele>997</ele>
					<time>2018-06-26T00:28:04Z</time>
				</trkpt>
				<trkpt lat="45.144120" lon="2.504820">
					<ele>997</ele>
					<time>2018-06-26T00:29:04Z</time>
				</trkpt>
				<trkpt lat="45.144280" lon="2.504460">
					<ele>997</ele>
					<time>2018-06-26T00:30:04Z</time>
				</trkpt>
				<trkpt lat="45.144310" lon="2.504400">
					<ele>996</ele>
					<time>2018-06-26T00:31:04Z</time>
				</trkpt>
				<trkpt lat="45.144420" lon="2.504060">
					<ele>995</ele>
					<time>2018-06-26T00:32:04Z</time>
				</trkpt>
				<trkpt lat="45.144550" lon="2.503790">
					<ele>994</ele>
					<time>2018-06-26T00:33:04Z</time>
				</trkpt>
				<trkpt lat="45.144590" lon="2.503720">
					<ele>994</ele>
					<time>2018-06-26T00:34:04Z</time>
				</trkpt>
				<trkpt lat="45.144650" lon="2.503620">
					<ele>994</ele>
					<time>2018-06-26T00:35:04Z</time>
				</trkpt>
				<trkpt lat="45.144710" lon="2.503580">
					<ele>994</ele>
					<time>2018-06-26T00:36:04Z</time>
				</trkpt>
				<trkpt lat="45.144780" lon="2.503520">
					<ele>994</ele>
					<time>2018-06-26T00:37:04Z</time>
				</trkpt>
				<trkpt lat="45.144840" lon="2.503490">
					<ele>994</ele>
					<time>2018-06-26T00:38:04Z</time>
				</trkpt>
				<trkpt lat="45.144960" lon="2.503440">
					<ele>994</ele>
					<time>2018-06-26T00:39:04Z</time>
				</trkpt>
				<trkpt lat="45.145090" lon="2.503390">
					<ele>994</ele>
					<time>2018-06-26T00:40:04Z</time>
				</trkpt>
				<trkpt lat="45.145240" lon="2.503330">
					<ele>995</ele>
					<time>2018-06-26T00:41:04Z</time>
				</trkpt>
				<trkpt lat="45.145380" lon="2.503250">
					<ele>994</ele>
					<time>2018-06-26T00:42:04Z</time>
				</trkpt>
				<trkpt lat="45.145500" lon="2.503140">
					<ele>994</ele>
					<time>2018-06-26T00:43:04Z</time>
				</trkpt>
				<trkpt lat="45.145560" lon="2.503060">
					<ele>994</ele>
					<time>2018-06-26T00:44:04Z</time>
				</trkpt>
				<trkpt lat="45.145650" lon="2.502900">
					<ele>993</ele>
					<time>2018-06-26T00:45:04Z</time>
				</trkpt>
				<trkpt lat="45.145710" lon="2.502760">
					<ele>993</ele>
					<time>2018-06-26T00:46:04Z</time>
				</trkpt>
				<trkpt lat="45.145740" lon="2.502610">
					<ele>992</ele>
					<time>2018-06-26T00:47:04Z</time>
				</trkpt>
				<trkpt lat="45.145760" lon="2.502440">
					<ele>991</ele>
					<time>2018-06-26T00:48:04Z</time>
				</trkpt>
				<trkpt lat="45.145790" lon="2.502180">
					<ele>990</ele>
					<time>2018-06-26T00:49:04Z</time>
				</trkpt>
				<trkpt lat="45.145840" lon="2.501740">
					<ele>988</ele>
					<time>2018-06-26T00:50:04Z</time>
				</trkpt>
				<trkpt lat="45.145880" lon="2.501410">
					<ele>986</ele>
					<time>2018-06-26T00:51:04Z</time>
				</trkpt>
				<trkpt lat="45.145920" lon="2.501130">
					<ele>986</ele>
					<time>2018-06-26T00:52:04Z</time>
				</trkpt>
				<trkpt lat="45.145950" lon="2.501000">
					<ele>985</ele>
					<time>2018-06-26T00:53:04Z</time>
				</trkpt>
				<trkpt lat="45.145960" lon="2.500940">
					<ele>985</ele>
					<time>2018-06-26T00:54:04Z</time>
				</trkpt>
				<trkpt lat="45.145990" lon="2.500870">
					<ele>985</ele>
					<time>2018-06-26T00:55:04Z</time>
				</trkpt>
				<trkpt lat="45.146020" lon="2.500820">
					<ele>985</ele>
					<time>2018-06-26T00:56:04Z</time>
				</trkpt>
				<trkpt lat="45.146050" lon="2.500770">
					<ele>985</ele>
					<time>2018-06-26T00:57:04Z</time>
				</trkpt>
				<trkpt lat="45.146130" lon="2.500640">
					<ele>985</ele>
					<time>2018-06-26T00:58:04Z</time>
				</trkpt>
				<trkpt lat="45.146200" lon="2.500490">
					<ele>985</ele>
					<time>2018-06-26T00:59:04Z</time>
				</trkpt>
				<trkpt lat="45.146270" lon="2.500320">
					<ele>985</ele>
					<time>2018-06-26T01:00:04Z</time>
				</trkpt>
				<trkpt lat="45.146380" lon="2.500020">
					<ele>984</ele>
					<time>2018-06-26T01:01:04Z</time>
				</trkpt>
				<trkpt lat="45.146470" lon="2.499730">
					<ele>983</ele>
					<time>2018-06-26T01:02:04Z</time>
				</trkpt>
				<trkpt lat="45.146540" lon="2.499490">
					<ele>982</ele>
					<time>2018-06-26T01:03:04Z</time>
				</trkpt>
				<trkpt lat="45.146570" lon="2.499370">
					<ele>981</ele>
					<time>2018-06-26T01:04:04Z</time>
				</trkpt>
				<trkpt lat="45.146580" lon="2.499310">
					<ele>981</ele>
					<time>2018-06-26T01:05:04Z</time>
				</trkpt>
				<trkpt lat="45.146580" lon="2.499230">
					<ele>981</ele>
					<time>2018-06-26T01:06:04Z</time>
				</trkpt>
				<trkpt lat="45.146560" lon="2.499120">
					<ele>980</ele>
					<time>2018-06-26T01:07:04Z</time>
				</trkpt>
				<trkpt lat="45.146540" lon="2.499060">
					<ele>979</ele>
					<time>2018-06-26T01:08:04Z</time>
				</trkpt>
				<trkpt lat="45.146510" lon="2.499010">
					<ele>979</ele>
					<time>2018-06-26T01:09:04Z</time>
				</trkpt>
				<trkpt lat="45.146480" lon="2.498950">
					<ele>979</ele>
					<time>2018-06-26T01:10:04Z</time>
				</trkpt>
				<trkpt lat="45.146430" lon="2.498890">
					<ele>978</ele>
					<time>2018-06-26T01:11:04Z</time>
				</trkpt>
				<trkpt lat="45.146180" lon="2.498590">
					<ele>975</ele>
					<time>2018-06-26T01:12:04Z</time>
				</trkpt>
				<trkpt lat="45.145980" lon="2.498320">
					<ele>974</ele>
					<time>2018-06-26T01:13:04Z</time>
				</trkpt>
				<trkpt lat="45.145830" lon="2.498120">
					<ele>972</ele>
					<time>2018-06-26T01:14:04Z</time>
				</trkpt>
				<trkpt lat="45.145650" lon="2.497890">
					<ele>971</ele>
					<time>2018-06-26T01:15:04Z</time>
				</trkpt>
				<trkpt lat="45.145440" lon="2.497630">
					<ele>969</ele>
					<time>2018-06-26T01:16:04Z</time>
				</trkpt>
				<trkpt lat="45.145160" lon="2.497360">
					<ele>966</ele>
					<time>2018-06-26T01:17:04Z</time>
				</trkpt>
				<trkpt lat="45.144950" lon="2.497180">
					<ele>965</ele>
					<time>2018-06-26T01:18:04Z</time>
				</trkpt>
				<trkpt lat="45.144820" lon="2.497070">
					<ele>964</ele>
					<time>2018-06-26T01:19:04Z</time>
				</trkpt>
				<trkpt lat="45.144700" lon="2.497000">
					<ele>964</ele>
					<time>2018-06-26T01:20:04Z</time>
				</trkpt>
				<trkpt lat="45.144590" lon="2.496960">
					<ele>963</ele>
					<time>2018-06-26T01:21:04Z</time>
				</trkpt>
				<trkpt lat="45.144510" lon="2.496940">
					<ele>963</ele>
					<time>2018-06-26T01:22:04Z</time>
				</trkpt>
				<trkpt lat="45.144400" lon="2.496920">
					<ele>963</ele>
					<time>2018-06-26T01:23:04Z</time>
				</trkpt>
				<trkpt lat="45.144320" lon="2.496900">
					<ele>962</ele>
					<time>2018-06-26T01:24:04Z</time>
				</trkpt>
				<trkpt lat="45.144140" lon="2.496880">
					<ele>962</ele>
					<time>2018-06-26T01:25:04Z</time>
				</trkpt>
				<trkpt lat="45.143850" lon="2.496890">
					<ele>960</ele>
					<time>2018-06-26T01:26:04Z</time>
				</trkpt>
				<trkpt lat="45.143690" lon="2.496910">
					<ele>959</ele>
					<time>2018-06-26T01:27:04Z</time>
				</trkpt>
				<trkpt lat="45.143440" lon="2.496940">
					<ele>958</ele>
					<time>2018-06-26T01:28:04Z</time>
				</trkpt>
				<trkpt lat="45.143100" lon="2.496970">
					<ele>956</ele>
					<time>2018-06-26T01:29:04Z</time>
				</trkpt>
				<trkpt lat="45.142460" lon="2.497030">
					<ele>952</ele>
					<time>2018-06-26T01:30:04Z</time>
				</trkpt>
				<trkpt lat="45.142120" lon="2.497060">
					<ele>951</ele>
					<time>2018-06-26T01:31:04Z</time>
				</trkpt>
				<trkpt lat="45.141960" lon="2.497060">
					<ele>951</ele>
					<time>2018-06-26T01:32:04Z</time>
				</trkpt>
				<trkpt lat="45.141750" lon="2.497030">
					<ele>950</ele>
					<time>2018-06-26T01:33:04Z</time>
				</trkpt>
				<trkpt lat="45.141480" lon="2.496970">
					<ele>948</ele>
					<time>2018-06-26T01:34:04Z</time>
				</trkpt>
				<trkpt lat="45.141390" lon="2.496950">
					<ele>948</ele>
					<time>2018-06-26T01:35:04Z</time>
				</trkpt>
				<trkpt lat="45.141330" lon="2.496950">
					<ele>948</ele>
					<time>2018-06-26T01:36:04Z</time>
				</trkpt>
				<trkpt lat="45.141080" lon="2.497010">
					<ele>948</ele>
					<time>2018-06-26T01:37:04Z</time>
				</trkpt>
				<trkpt lat="45.140780" lon="2.497080">
					<ele>947</ele>
					<time>2018-06-26T01:38:04Z</time>
				</trkpt>
				<trkpt lat="45.140680" lon="2.497090">
					<ele>947</ele>
					<time>2018-06-26T01:39:04Z</time>
				</trkpt>
				<trkpt lat="45.140610" lon="2.497090">
					<ele>947</ele>
					<time>2018-06-26T01:40:04Z</time>
				</trkpt>
				<trkpt lat="45.140550" lon="2.497090">
					<ele>947</ele>
					<time>2018-06-26T01:41:04Z</time>
				</trkpt>
				<trkpt lat="45.140500" lon="2.497050">
					<ele>947</ele>
					<time>2018-06-26T01:42:04Z</time>
				</trkpt>
				<trkpt lat="45.140390" lon="2.496960">
					<ele>946</ele>
					<time>2018-06-26T01:43:04Z</time>
				</trkpt>
				<trkpt lat="45.140320" lon="2.496900">
					<ele>945</ele>
					<time>2018-06-26T01:44:04Z</time>
				</trkpt>
				<trkpt lat="45.140270" lon="2.496860">
					<ele>945</ele>
					<time>2018-06-26T01:45:04Z</time>
				</trkpt>
				<trkpt lat="45.140210" lon="2.496840">
					<ele>945</ele>
					<time>2018-06-26T01:46:04Z</time>
				</trkpt>
				<trkpt lat="45.140140" lon="2.496840">
					<ele>944</ele>
					<time>2018-06-26T01:47:04Z</time>
				</trkpt>
				<trkpt lat="45.140070" lon="2.496860">
					<ele>944</ele>
					<time>2018-06-26T01:48:04Z</time>
				</trkpt>
				<trkpt lat="45.139970" lon="2.496890">
					<ele>944</ele>
					<time>2018-06-26T01:49:04Z</time>
				</trkpt>
				<trkpt lat="45.139900" lon="2.496930">
					<ele>944</ele>
					<time>2018-06-26T01:50:04Z</time>
				</trkpt>
				<trkpt lat="45.139800" lon="2.496990">
					<ele>944</ele>
					<time>2018-06-26T01:51:04Z</time>
				</trkpt>
				<trkpt lat="45.139640" lon="2.497070">
					<ele>943</ele>
					<time>2018-06-26T01:52:04Z</time>
				</trkpt>
				<trkpt lat="45.139570" lon="2.497090">
					<ele>943</ele>
					<time>2018-06-26T01:53:04Z</time>
				</trkpt>
				<trkpt lat="45.139480" lon="2.497090">
					<ele>942</ele>
					<time>2018-06-26T01:54:04Z</time>
				</trkpt>
				<trkpt lat="45.139390" lon="2.497090">
					<ele>942</ele>
					<time>2018-06-26T01:55:04Z</time>
				</trkpt>
				<trkpt lat="45.139300" lon="2.497060">
					<ele>941</ele>
					<time>2018-06-26T01:56:04Z</time>
				</trkpt>
				<trkpt lat="45.139270" lon="2.497040">
					<ele>940</ele>
					<time>2018-06-26T01:57:04Z</time>
				</trkpt>
				<trkpt lat="45.139250" lon="2.497020">
					<ele>940</ele>
					<time>2018-06-26T01:58:04Z</time>
				</trkpt>
				<trkpt lat="45.139230" lon="2.497000">
					<ele>940</ele>
					<time>2018-06-26T01:59:04Z</time>
				</trkpt>
				<trkpt lat="45.139210" lon="2.496970">
					<ele>939</ele>
					<time>2018-06-26T02:00:04Z</time>
				</trkpt>
				<trkpt lat="45.139190" lon="2.496910">
					<ele>939</ele>
					<time>2018-06-26T02:01:04Z</time>
				</trkpt>
				<trkpt lat="45.139170" lon="2.496860">
					<ele>938</ele>
					<time>2018-06-26T02:02:04Z</time>
				</trkpt>
				<trkpt lat="45.139160" lon="2.496800">
					<ele>938</ele>
					<time>2018-06-26T02:03:04Z</time>
				</trkpt>
				<trkpt lat="45.139140" lon="2.496720">
					<ele>937</ele>
					<time>2018-06-26T02:04:04Z</time>
				</trkpt>
				<trkpt lat="45.139110" lon="2.496530">
					<ele>937</ele>
					<time>2018-06-26T02:05:04Z</time>
				</trkpt>
				<trkpt lat="45.139090" lon="2.496400">
					<ele>937</ele>
					<time>2018-06-26T02:06:04Z</time>
				</trkpt>
				<trkpt lat="45.139070" lon="2.496260">
					<ele>937</ele>
					<time>2018-06-26T02:07:04Z</time>
				</trkpt>
				<trkpt lat="45.139070" lon="2.496260">
					<ele>937</ele>
					<time>2018-06-26T02:08:04Z</time>
				</trkpt>
				<trkpt lat="45.139130" lon="2.496220">
					<ele>937</ele>
					<time>2018-06-26T02:09:04Z</time>
				</trkpt>
				<trkpt lat="45.139470" lon="2.496000">
					<ele>938</ele>
					<time>2018-06-26T02:10:04Z</time>
				</trkpt>
				<trkpt lat="45.139570" lon="2.495930">
					<ele>937</ele>
					<time>2018-06-26T02:11:04Z</time>
				</trkpt>
				<trkpt lat="45.139650" lon="2.495850">
					<ele>937</ele>
					<time>2018-06-26T02:12:04Z</time>
				</trkpt>
				<trkpt lat="45.139720" lon="2.495760">
					<ele>937</ele>
					<time>2018-06-26T02:13:04Z</time>
				</trkpt>
				<trkpt lat="45.139780" lon="2.495650">
					<ele>936</ele>
					<time>2018-06-26T02:14:04Z</time>
				</trkpt>
				<trkpt lat="45.139910" lon="2.495370">
					<ele>935</ele>
					<time>2018-06-26T02:15:04Z</time>
				</trkpt>
				<trkpt lat="45.140110" lon="2.494910">
					<ele>934</ele>
					<time>2018-06-26T02:16:04Z</time>
				</trkpt>
				<trkpt lat="45.140130" lon="2.494860">
					<ele>934</ele>
					<time>2018-06-26T02:17:04Z</time>
				</trkpt>
				<trkpt lat="45.140190" lon="2.494700">
					<ele>935</ele>
					<time>2018-06-26T02:18:04Z</time>
				</trkpt>
				<trkpt lat="45.140260" lon="2.494510">
					<ele>934</ele>
					<time>2018-06-26T02:19:04Z</time>
				</trkpt>
				<trkpt lat="45.140310" lon="2.494340">
					<ele>934</ele>
					<time>2018-06-26T02:20:04Z</time>
				</trkpt>
				<trkpt lat="45.140340" lon="2.494230">
					<ele>934</ele>
					<time>2018-06-26T02:21:04Z</time>
				</trkpt>
				<trkpt lat="45.140350" lon="2.494130">
					<ele>934</ele>
					<time>2018-06-26T02:22:04Z</time>
				</trkpt>
				<trkpt lat="45.140350" lon="2.494070">
					<ele>934</ele>
					<time>2018-06-26T02:23:04Z</time>
				</trkpt>
				<trkpt lat="45.140360" lon="2.494000">
					<ele>933</ele>
					<time>2018-06-26T02:24:04Z</time>
				</trkpt>
				<trkpt lat="45.140360" lon="2.493930">
					<ele>933</ele>
					<time>2018-06-26T02:25:04Z</time>
				</trkpt>
				<trkpt lat="45.140350" lon="2.493750">
					<ele>933</ele>
					<time>2018-06-26T02:26:04Z</time>
				</trkpt>
				<trkpt lat="45.140330" lon="2.493610">
					<ele>933</ele>
					<time>2018-06-26T02:27:04Z</time>
				</trkpt>
				<trkpt lat="45.140320" lon="2.493500">
					<ele>932</ele>
					<time>2018-06-26T02:28:04Z</time>
				</trkpt>
				<trkpt lat="45.140300" lon="2.493410">
					<ele>932</ele>
					<time>2018-06-26T02:29:04Z</time>
				</trkpt>
				<trkpt lat="45.140260" lon="2.493280">
					<ele>932</ele>
					<time>2018-06-26T02:30:04Z</time>
				</trkpt>
				<trkpt lat="45.140260" lon="2.493280">
					<ele>932</ele>
					<time>2018-06-26T02:31:04Z</time>
				</trkpt>
				<trkpt lat="45.140410" lon="2.493200">
					<ele>931</ele>
					<time>2018-06-26T02:32:04Z</time>
				</trkpt>
				<trkpt lat="45.140530" lon="2.493130">
					<ele>930</ele>
					<time>2018-06-26T02:33:04Z</time>
				</trkpt>
				<trkpt lat="45.140730" lon="2.493020">
					<ele>929</ele>
					<time>2018-06-26T02:34:04Z</time>
				</trkpt>
				<trkpt lat="45.140940" lon="2.492880">
					<ele>930</ele>
					<time>2018-06-26T02:35:04Z</time>
				</trkpt>
				<trkpt lat="45.140990" lon="2.492850">
					<ele>931</ele>
					<time>2018-06-26T02:36:04Z</time>
				</trkpt>
				<trkpt lat="45.141030" lon="2.492810">
					<ele>931</ele>
					<time>2018-06-26T02:37:04Z</time>
				</trkpt>
				<trkpt lat="45.141060" lon="2.492770">
					<ele>932</ele>
					<time>2018-06-26T02:38:04Z</time>
				</trkpt>
				<trkpt lat="45.141100" lon="2.492710">
					<ele>932</ele>
					<time>2018-06-26T02:39:04Z</time>
				</trkpt>
				<trkpt lat="45.141140" lon="2.492630">
					<ele>933</ele>
					<time>2018-06-26T02:40:04Z</time>
				</trkpt>
				<trkpt lat="45.141170" lon="2.492560">
					<ele>933</ele>
					<time>2018-06-26T02:41:04Z</time>
				</trkpt>
				<trkpt lat="45.141220" lon="2.492440">
					<ele>933</ele>
					<time>2018-06-26T02:42:04Z</time>
				</trkpt>
				<trkpt lat="45.141300" lon="2.492210">
					<ele>934</ele>
					<time>2018-06-26T02:43:04Z</time>
				</trkpt>
				<trkpt lat="45.141350" lon="2.492070">
					<ele>934</ele>
					<time>2018-06-26T02:44:04Z</time>
				</trkpt>
				<trkpt lat="45.141380" lon="2.491940">
					<ele>934</ele>
					<time>2018-06-26T02:45:04Z</time>
				</trkpt>
				<trkpt lat="45.141480" lon="2.491510">
					<ele>934</ele>
					<time>2018-06-26T02:46:04Z</time>
				</trkpt>
				<trkpt lat="45.141550" lon="2.491260">
					<ele>934</ele>
					<time>2018-06-26T02:47:04Z</time>
				</trkpt>
				<trkpt lat="45.141590" lon="2.491150">
					<ele>934</ele>
					<time>2018-06-26T02:48:04Z</time>
				</trkpt>
				<trkpt lat="45.141640" lon="2.491030">
					<ele>934</ele>
					<time>2018-06-26T02:49:04Z</time>
				</trkpt>
				<trkpt lat="45.141750" lon="2.490790">
					<ele>934</ele>
					<time>2018-06-26T02:50:04Z</time>
				</trkpt>
				<trkpt lat="45.141850" lon="2.490640">
					<ele>934</ele>
					<time>2018-06-26T02:51:04Z</time>
				</trkpt>
				<trkpt lat="45.141960" lon="2.490480">
					<ele>934</ele>
					<time>2018-06-26T02:52:04Z</time>
				</trkpt>
				<trkpt lat="45.142160" lon="2.490190">
					<ele>934</ele>
					<time>2018-06-26T02:53:04Z</time>
				</trkpt>
				<trkpt lat="45.142330" lon="2.489980">
					<ele>934</ele>
					<time>2018-06-26T02:54:04Z</time>
				</trkpt>
				<trkpt lat="45.142500" lon="2.489780">
					<ele>935</ele>
					<time>2018-06-26T02:55:04Z</time>
				</trkpt>
				<trkpt lat="45.142760" lon="2.489480">
					<ele>936</ele>
					<time>2018-06-26T02:56:04Z</time>
				</trkpt>
				<trkpt lat="45.142950" lon="2.489270">
					<ele>937</ele>
					<time>2018-06-26T02:57:04Z</time>
				</trkpt>
				<trkpt lat="45.143070" lon="2.489110">
					<ele>937</ele>
					<time>2018-06-26T02:58:04Z</time>
				</trkpt>
				<trkpt lat="45.143270" lon="2.488830">
					<ele>937</ele>
					<time>2018-06-26T02:59:04Z</time>
				</trkpt>
				<trkpt lat="45.143380" lon="2.488620">
					<ele>935</ele>
					<time>2018-06-26T03:00:04Z</time>
				</trkpt>
				<trkpt lat="45.143680" lon="2.488050">
					<ele>933</ele>
					<time>2018-06-26T03:01:04Z</time>
				</trkpt>
				<trkpt lat="45.143940" lon="2.487540">
					<ele>932</ele>
					<time>2018-06-26T03:02:04Z</time>
				</trkpt>
				<trkpt lat="45.144150" lon="2.487140">
					<ele>931</ele>
					<time>2018-06-26T03:03:04Z</time>
				</trkpt>
				<trkpt lat="45.144540" lon="2.486390">
					<ele>932</ele>
					<time>2018-06-26T03:04:04Z</time>
				</trkpt>
				<trkpt lat="45.144780" lon="2.485910">
					<ele>931</ele>
					<time>2018-06-26T03:05:04Z</time>
				</trkpt>
				<trkpt lat="45.144840" lon="2.485810">
					<ele>931</ele>
					<time>2018-06-26T03:06:04Z</time>
				</trkpt>
				<trkpt lat="45.144900" lon="2.485700">
					<ele>931</ele>
					<time>2018-06-26T03:07:04Z</time>
				</trkpt>
				<trkpt lat="45.144980" lon="2.485560">
					<ele>930</ele>
					<time>2018-06-26T03:08:04Z</time>
				</trkpt>
				<trkpt lat="45.145060" lon="2.485390">
					<ele>930</ele>
					<time>2018-06-26T03:09:04Z</time>
				</trkpt>
				<trkpt lat="45.145150" lon="2.485250">
					<ele>930</ele>
					<time>2018-06-26T03:10:04Z</time>
				</trkpt>
				<trkpt lat="45.145330" lon="2.485020">
					<ele>929</ele>
					<time>2018-06-26T03:11:04Z</time>
				</trkpt>
				<trkpt lat="45.145390" lon="2.484940">
					<ele>930</ele>
					<time>2018-06-26T03:12:04Z</time>
				</trkpt>
				<trkpt lat="45.145540" lon="2.484790">
					<ele>930</ele>
					<time>2018-06-26T03:13:04Z</time>
				</trkpt>
				<trkpt lat="45.145780" lon="2.484530">
					<ele>930</ele>
					<time>2018-06-26T03:14:04Z</time>
				</trkpt>
				<trkpt lat="45.145900" lon="2.484410">
					<ele>930</ele>
					<time>2018-06-26T03:15:04Z</time>
				</trkpt>
				<trkpt lat="45.146070" lon="2.484220">
					<ele>930</ele>
					<time>2018-06-26T03:16:04Z</time>
				</trkpt>
				<trkpt lat="45.146470" lon="2.483800">
					<ele>930</ele>
					<time>2018-06-26T03:17:04Z</time>
				</trkpt>
				<trkpt lat="45.146830" lon="2.483410">
					<ele>928</ele>
					<time>2018-06-26T03:18:04Z</time>
				</trkpt>
				<trkpt lat="45.146880" lon="2.483350">
					<ele>928</ele>
					<time>2018-06-26T03:19:04Z</time>
				</trkpt>
				<trkpt lat="45.147010" lon="2.483210">
					<ele>928</ele>
					<time>2018-06-26T03:20:04Z</time>
				</trkpt>
				<trkpt lat="45.147150" lon="2.483050">
					<ele>927</ele>
					<time>2018-06-26T03:21:04Z</time>
				</trkpt>
				<trkpt lat="45.147280" lon="2.482920">
					<ele>927</ele>
					<time>2018-06-26T03:22:04Z</time>
				</trkpt>
				<trkpt lat="45.147390" lon="2.482810">
					<ele>927</ele>
					<time>2018-06-26T03:23:04Z</time>
				</trkpt>
				<trkpt lat="45.147500" lon="2.482710">
					<ele>927</ele>
					<time>2018-06-26T03:24:04Z</time>
				</trkpt>
				<trkpt lat="45.147620" lon="2.482610">
					<ele>926</ele>
					<time>2018-06-26T03:25:04Z</time>
				</trkpt>
				<trkpt lat="45.147790" lon="2.482500">
					<ele>925</ele>
					<time>2018-06-26T03:26:04Z</time>
				</trkpt>
				<trkpt lat="45.147940" lon="2.482390">
					<ele>925</ele>
					<time>2018-06-26T03:27:04Z</time>
				</trkpt>
				<trkpt lat="45.148320" lon="2.482190">
					<ele>925</ele>
					<time>2018-06-26T03:28:04Z</time>
				</trkpt>
				<trkpt lat="45.148670" lon="2.482020">
					<ele>923</ele>
					<time>2018-06-26T03:29:04Z</time>
				</trkpt>
				<trkpt lat="45.149120" lon="2.481780">
					<ele>922</ele>
					<time>2018-06-26T03:30:04Z</time>
				</trkpt>
				<trkpt lat="45.149540" lon="2.481560">
					<ele>921</ele>
					<time>2018-06-26T03:31:04Z</time>
				</trkpt>
				<trkpt lat="45.150080" lon="2.481290">
					<ele>918</ele>
					<time>2018-06-26T03:32:04Z</time>
				</trkpt>
				<trkpt lat="45.150630" lon="2.481000">
					<ele>917</ele>
					<time>2018-06-26T03:33:04Z</time>
				</trkpt>
				<trkpt lat="45.150990" lon="2.480820">
					<ele>917</ele>
					<time>2018-06-26T03:34:04Z</time>
				</trkpt>
				<trkpt lat="45.151440" lon="2.480580">
					<ele>918</ele>
					<time>2018-06-26T03:35:04Z</time>
				</trkpt>
				<trkpt lat="45.151760" lon="2.480410">
					<ele>919</ele>
					<time>2018-06-26T03:36:04Z</time>
				</trkpt>
				<trkpt lat="45.152170" lon="2.480200">
					<ele>921</ele>
					<time>2018-06-26T03:37:04Z</time>
				</trkpt>
				<trkpt lat="45.152630" lon="2.479950">
					<ele>924</ele>
					<time>2018-06-26T03:38:04Z</time>
				</trkpt>
				<trkpt lat="45.153070" lon="2.479720">
					<ele>926</ele>
					<time>2018-06-26T03:39:04Z</time>
				</trkpt>
				<trkpt lat="45.153420" lon="2.479530">
					<ele>927</ele>
					<time>2018-06-26T03:40:04Z</time>
				</trkpt>
				<trkpt lat="45.153500" lon="2.479490">
					<ele>927</ele>
					<time>2018-06-26T03:41:04Z</time>
				</trkpt>
				<trkpt lat="45.153670" lon="2.479400">
					<ele>928</ele>
					<time>2018-06-26T03:42:04Z</time>
				</trkpt>
				<trkpt lat="45.153970" lon="2.479250">
					<ele>929</ele>
					<time>2018-06-26T03:43:04Z</time>
				</trkpt>
				<trkpt lat="45.154250" lon="2.479110">
					<ele>930</ele>
					<time>2018-06-26T03:44:04Z</time>
				</trkpt>
				<trkpt lat="45.154330" lon="2.479070">
					<ele>929</ele>
					<time>2018-06-26T03:45:04Z</time>
				</trkpt>
				<trkpt lat="45.154460" lon="2.479010">
					<ele>928</ele>
					<time>2018-06-26T03:46:04Z</time>
				</trkpt>
				<trkpt lat="45.154550" lon="2.478980">
					<ele>928</ele>
					<time>2018-06-26T03:47:04Z</time>
				</trkpt>
				<trkpt lat="45.154660" lon="2.478980">
					<ele>927</ele>
					<time>2018-06-26T03:48:04Z</time>
				</trkpt>
				<trkpt lat="45.154750" lon="2.479000">
					<ele>927</ele>
					<time>2018-06-26T03:49:04Z</time>
				</trkpt>
				<trkpt lat="45.154860" lon="2.479050">
					<ele>926</ele>
					<time>2018-06-26T03:50:04Z</time>
				</trkpt>
				<trkpt lat="45.155010" lon="2.479150">
					<ele>926</ele>
					<time>2018-06-26T03:51:04Z</time>
				</trkpt>
				<trkpt lat="45.155450" lon="2.479430">
					<ele>922</ele>
					<time>2018-06-26T03:52:04Z</time>
				</trkpt>
				<trkpt lat="45.155820" lon="2.479680">
					<ele>919</ele>
					<time>2018-06-26T03:53:04Z</time>
				</trkpt>
				<trkpt lat="45.156370" lon="2.480030">
					<ele>918</ele>
					<time>2018-06-26T03:54:04Z</time>
				</trkpt>
				<trkpt lat="45.156730" lon="2.480270">
					<ele>917</ele>
					<time>2018-06-26T03:55:04Z</time>
				</trkpt>
				<trkpt lat="45.157230" lon="2.480600">
					<ele>915</ele>
					<time>2018-06-26T03:56:04Z</time>
				</trkpt>
				<trkpt lat="45.157480" lon="2.480760">
					<ele>914</ele>
					<time>2018-06-26T03:57:04Z</time>
				</trkpt>
				<trkpt lat="45.157810" lon="2.481000">
					<ele>912</ele>
					<time>2018-06-26T03:58:04Z</time>
				</trkpt>
				<trkpt lat="45.157920" lon="2.481080">
					<ele>911</ele>
					<time>2018-06-26T03:59:04Z</time>
				</trkpt>
				<trkpt lat="45.158010" lon="2.481140">
					<ele>910</ele>
					<time>2018-06-26T04:00:04Z</time>
				</trkpt>
				<trkpt lat="45.158170" lon="2.481250">
					<ele>909</ele>
					<time>2018-06-26T04:01:04Z</time>
				</trkpt>
				<trkpt lat="45.158290" lon="2.481310">
					<ele>909</ele>
					<time>2018-06-26T04:02:04Z</time>
				</trkpt>
				<trkpt lat="45.158420" lon="2.481380">
					<ele>908</ele>
					<time>2018-06-26T04:03:04Z</time>
				</trkpt>
				<trkpt lat="45.158540" lon="2.481410">
					<ele>908</ele>
					<time>2018-06-26T04:04:04Z</time>
				</trkpt>
				<trkpt lat="45.158640" lon="2.481440">
					<ele>908</ele>
					<time>2018-06-26T04:05:04Z</time>
				</trkpt>
				<trkpt lat="45.158740" lon="2.481450">
					<ele>907</ele>
					<time>2018-06-26T04:06:04Z</time>
				</trkpt>
				<trkpt lat="45.158830" lon="2.481460">
					<ele>907</ele>
					<time>2018-06-26T04:07:04Z</time>
				</trkpt>
				<trkpt lat="45.158960" lon="2.481460">
					<ele>906</ele>
					<time>2018-06-26T04:08:04Z</time>
				</trkpt>
				<trkpt lat="45.159080" lon="2.481440">
					<ele>906</ele>
					<time>2018-06-26T04:09:04Z</time>
				</trkpt>
				<trkpt lat="45.159190" lon="2.481420">
					<ele>905</ele>
					<time>2018-06-26T04:10:04Z</time>
				</trkpt>
				<trkpt lat="45.159310" lon="2.481380">
					<ele>906</ele>
					<time>2018-06-26T04:11:04Z</time>
				</trkpt>
				<trkpt lat="45.159420" lon="2.481330">
					<ele>906</ele>
					<time>2018-06-26T04:12:04Z</time>
				</trkpt>
				<trkpt lat="45.159440" lon="2.481320">
					<ele>906</ele>
					<time>2018-06-26T04:13:04Z</time>
				</trkpt>
				<trkpt lat="45.159530" lon="2.481270">
					<ele>906</ele>
					<time>2018-06-26T04:14:04Z</time>
				</trkpt>
				<trkpt lat="45.159630" lon="2.481200">
					<ele>907</ele>
					<time>2018-06-26T04:15:04Z</time>
				</trkpt>
				<trkpt lat="45.159670" lon="2.481180">
					<ele>907</ele>
					<time>2018-06-26T04:16:04Z</time>
				</trkpt>
				<trkpt lat="45.159790" lon="2.481090">
					<ele>907</ele>
					<time>2018-06-26T04:17:04Z</time>
				</trkpt>
				<trkpt lat="45.159800" lon="2.481080">
					<ele>907</ele>
					<time>2018-06-26T04:18:04Z</time>
				</trkpt>
				<trkpt lat="45.159860" lon="2.481030">
					<ele>907</ele>
					<time>2018-06-26T04:19:04Z</time>
				</trkpt>
				<trkpt lat="45.159920" lon="2.480980">
					<ele>908</ele>
					<time>2018-06-26T04:20:04Z</time>
				</trkpt>
				<trkpt lat="45.159970" lon="2.480910">
					<ele>908</ele>
					<time>2018-06-26T04:21:04Z</time>
				</trkpt>
				<trkpt lat="45.160060" lon="2.480800">
					<ele>909</ele>
					<time>2018-06-26T04:22:04Z</time>
				</trkpt>
				<trkpt lat="45.160170" lon="2.480640">
					<ele>910</ele>
					<time>2018-06-26T04:23:04Z</time>
				</trkpt>
				<trkpt lat="45.160260" lon="2.480490">
					<ele>911</ele>
					<time>2018-06-26T04:24:04Z</time>
				</trkpt>
				<trkpt lat="45.160350" lon="2.480320">
					<ele>912</ele>
					<time>2018-06-26T04:25:04Z</time>
				</trkpt>
				<trkpt lat="45.160450" lon="2.480110">
					<ele>913</ele>
					<time>2018-06-26T04:26:04Z</time>
				</trkpt>
				<trkpt lat="45.160560" lon="2.479860">
					<ele>913</ele>
					<time>2018-06-26T04:27:04Z</time>
				</trkpt>
				<trkpt lat="45.160670" lon="2.479610">
					<ele>913</ele>
					<time>2018-06-26T04:28:04Z</time>
				</trkpt>
				<trkpt lat="45.160800" lon="2.479350">
					<ele>912</ele>
					<time>2018-06-26T04:29:04Z</time>
				</trkpt>
				<trkpt lat="45.160810" lon="2.479310">
					<ele>912</ele>
					<time>2018-06-26T04:30:04Z</time>
				</trkpt>
				<trkpt lat="45.160960" lon="2.478990">
					<ele>913</ele>
					<time>2018-06-26T04:31:04Z</time>
				</trkpt>
				<trkpt lat="45.161080" lon="2.478710">
					<ele>913</ele>
					<time>2018-06-26T04:32:04Z</time>
				</trkpt>
				<trkpt lat="45.161180" lon="2.478460">
					<ele>913</ele>
					<time>2018-06-26T04:33:04Z</time>
				</trkpt>
				<trkpt lat="45.161260" lon="2.478320">
					<ele>914</ele>
					<time>2018-06-26T04:34:04Z</time>
				</trkpt>
				<trkpt lat="45.161330" lon="2.478210">
					<ele>914</ele>
					<time>2018-06-26T04:35:04Z</time>
				</trkpt>
				<trkpt lat="45.161420" lon="2.478080">
					<ele>915</ele>
					<time>2018-06-26T04:36:04Z</time>
				</trkpt>
				<trkpt lat="45.161530" lon="2.477950">
					<ele>916</ele>
					<time>2018-06-26T04:37:04Z</time>
				</trkpt>
				<trkpt lat="45.161660" lon="2.477820">
					<ele>917</ele>
					<time>2018-06-26T04:38:04Z</time>
				</trkpt>
				<trkpt lat="45.161850" lon="2.477650">
					<ele>918</ele>
					<time>2018-06-26T04:39:04Z</time>
				</trkpt>
				<trkpt lat="45.162120" lon="2.477430">
					<ele>919</ele>
					<time>2018-06-26T04:40:04Z</time>
				</trkpt>
				<trkpt lat="45.162270" lon="2.477300">
					<ele>920</ele>
					<time>2018-06-26T04:41:04Z</time>
				</trkpt>
				<trkpt lat="45.162440" lon="2.477160">
					<ele>920</ele>
					<time>2018-06-26T04:42:04Z</time>
				</trkpt>
				<trkpt lat="45.162730" lon="2.476920">
					<ele>921</ele>
					<time>2018-06-26T04:43:04Z</time>
				</trkpt>
				<trkpt lat="45.162920" lon="2.476770">
					<ele>921</ele>
					<time>2018-06-26T04:44:04Z</time>
				</trkpt>
				<trkpt lat="45.163220" lon="2.476530">
					<ele>922</ele>
					<time>2018-06-26T04:45:04Z</time>
				</trkpt>
				<trkpt lat="45.163370" lon="2.476420">
					<ele>922</ele>
					<time>2018-06-26T04:46:04Z</time>
				</trkpt>
				<trkpt lat="45.163400" lon="2.476400">
					<ele>922</ele>
					<time>2018-06-26T04:47:04Z</time>
				</trkpt>
				<trkpt lat="45.163480" lon="2.476370">
					<ele>922</ele>
					<time>2018-06-26T04:48:04Z</time>
				</trkpt>
				<trkpt lat="45.163560" lon="2.476350">
					<ele>922</ele>
					<time>2018-06-26T04:49:04Z</time>
				</trkpt>
				<trkpt lat="45.163810" lon="2.476290">
					<ele>921</ele>
					<time>2018-06-26T04:50:04Z</time>
				</trkpt>
				<trkpt lat="45.163970" lon="2.476270">
					<ele>921</ele>
					<time>2018-06-26T04:51:04Z</time>
				</trkpt>
				<trkpt lat="45.164210" lon="2.476260">
					<ele>921</ele>
					<time>2018-06-26T04:52:04Z</time>
				</trkpt>
				<trkpt lat="45.164370" lon="2.476290">
					<ele>921</ele>
					<time>2018-06-26T04:53:04Z</time>
				</trkpt>
				<trkpt lat="45.164440" lon="2.476290">
					<ele>921</ele>
					<time>2018-06-26T04:54:04Z</time>
				</trkpt>
				<trkpt lat="45.164580" lon="2.476290">
					<ele>921</ele>
					<time>2018-06-26T04:55:04Z</time>
				</trkpt>
				<trkpt lat="45.164630" lon="2.476280">
					<ele>921</ele>
					<time>2018-06-26T04:56:04Z</time>
				</trkpt>
				<trkpt lat="45.164640" lon="2.476280">
					<ele>921</ele>
					<time>2018-06-26T04:57:04Z</time>
				</trkpt>
				<trkpt lat="45.164670" lon="2.476260">
					<ele>921</ele>
					<time>2018-06-26T04:58:04Z</time>
				</trkpt>
				<trkpt lat="45.164720" lon="2.476240">
					<ele>921</ele>
					<time>2018-06-26T04:59:04Z</time>
				</trkpt>
				<trkpt lat="45.164750" lon="2.476220">
					<ele>921</ele>
					<time>2018-06-26T05:00:04Z</time>
				</trkpt>
				<trkpt lat="45.164780" lon="2.476190">
					<ele>921</ele>
					<time>2018-06-26T05:01:04Z</time>
				</trkpt>
				<trkpt lat="45.164840" lon="2.476130">
					<ele>921</ele>
					<time>2018-06-26T05:02:04Z</time>
				</trkpt>
				<trkpt lat="45.164890" lon="2.476070">
					<ele>921</ele>
					<time>2018-06-26T05:03:04Z</time>
				</trkpt>
				<trkpt lat="45.164940" lon="2.476010">
					<ele>921</ele>
					<time>2018-06-26T05:04:04Z</time>
				</trkpt>
				<trkpt lat="45.165070" lon="2.475870">
					<ele>921</ele>
					<time>2018-06-26T05:05:04Z</time>
				</trkpt>
				<trkpt lat="45.165230" lon="2.475700">
					<ele>919</ele>
					<time>2018-06-26T05:06:04Z</time>
				</trkpt>
				<trkpt lat="45.165380" lon="2.475590">
					<ele>918</ele>
					<time>2018-06-26T05:07:04Z</time>
				</trkpt>
				<trkpt lat="45.165660" lon="2.475370">
					<ele>915</ele>
					<time>2018-06-26T05:08:04Z</time>
				</trkpt>
				<trkpt lat="45.165910" lon="2.475190">
					<ele>914</ele>
					<time>2018-06-26T05:09:04Z</time>
				</trkpt>
				<trkpt lat="45.166090" lon="2.475070">
					<ele>913</ele>
					<time>2018-06-26T05:10:04Z</time>
				</trkpt>
				<trkpt lat="45.166170" lon="2.475030">
					<ele>913</ele>
					<time>2018-06-26T05:11:04Z</time>
				</trkpt>
				<trkpt lat="45.166280" lon="2.474980">
					<ele>912</ele>
					<time>2018-06-26T05:12:04Z</time>
				</trkpt>
				<trkpt lat="45.166490" lon="2.474940">
					<ele>912</ele>
					<time>2018-06-26T05:13:04Z</time>
				</trkpt>
				<trkpt lat="45.166650" lon="2.474920">
					<ele>912</ele>
					<time>2018-06-26T05:14:04Z</time>
				</trkpt>
				<trkpt lat="45.166760" lon="2.474900">
					<ele>911</ele>
					<time>2018-06-26T05:15:04Z</time>
				</trkpt>
				<trkpt lat="45.166920" lon="2.474880">
					<ele>911</ele>
					<time>2018-06-26T05:16:04Z</time>
				</trkpt>
				<trkpt lat="45.167050" lon="2.474850">
					<ele>911</ele>
					<time>2018-06-26T05:17:04Z</time>
				</trkpt>
				<trkpt lat="45.167140" lon="2.474800">
					<ele>911</ele>
					<time>2018-06-26T05:18:04Z</time>
				</trkpt>
				<trkpt lat="45.167210" lon="2.474740">
					<ele>911</ele>
					<time>2018-06-26T05:19:04Z</time>
				</trkpt>
				<trkpt lat="45.167280" lon="2.474670">
					<ele>911</ele>
					<time>2018-06-26T05:20:04Z</time>
				</trkpt>
				<trkpt lat="45.167340" lon="2.474570">
					<ele>911</ele>
					<time>2018-06-26T05:21:04Z</time>
				</trkpt>
				<trkpt lat="45.167390" lon="2.474490">
					<ele>911</ele>
					<time>2018-06-26T05:22:04Z</time>
				</trkpt>
				<trkpt lat="45.167450" lon="2.474350">
					<ele>911</ele>
					<time>2018-06-26T05:23:04Z</time>
				</trkpt>
				<trkpt lat="45.167570" lon="2.474050">
					<ele>911</ele>
					<time>2018-06-26T05:24:04Z</time>
				</trkpt>
				<trkpt lat="45.167720" lon="2.473620">
					<ele>911</ele>
					<time>2018-06-26T05:25:04Z</time>
				</trkpt>
				<trkpt lat="45.167880" lon="2.473200">
					<ele>911</ele>
					<time>2018-06-26T05:26:04Z</time>
				</trkpt>
				<trkpt lat="45.168020" lon="2.472850">
					<ele>911</ele>
					<time>2018-06-26T05:27:04Z</time>
				</trkpt>
				<trkpt lat="45.168100" lon="2.472690">
					<ele>911</ele>
					<time>2018-06-26T05:28:04Z</time>
				</trkpt>
				<trkpt lat="45.168160" lon="2.472580">
					<ele>911</ele>
					<time>2018-06-26T05:29:04Z</time>
				</trkpt>
				<trkpt lat="45.168310" lon="2.472300">
					<ele>910</ele>
					<time>2018-06-26T05:30:04Z</time>
				</trkpt>
				<trkpt lat="45.168350" lon="2.472200">
					<ele>910</ele>
					<time>2018-06-26T05:31:04Z</time>
				</trkpt>
				<trkpt lat="45.168390" lon="2.472070">
					<ele>910</ele>
					<time>2018-06-26T05:32:04Z</time>
				</trkpt>
				<trkpt lat="45.168450" lon="2.471860">
					<ele>909</ele>
					<time>2018-06-26T05:33:04Z</time>
				</trkpt>
				<trkpt lat="45.168500" lon="2.471650">
					<ele>909</ele>
					<time>2018-06-26T05:34:04Z</time>
				</trkpt>
				<trkpt lat="45.168580" lon="2.471210">
					<ele>908</ele>
					<time>2018-06-26T05:35:04Z</time>
				</trkpt>
				<trkpt lat="45.168820" lon="2.469800">
					<ele>907</ele>
					<time>2018-06-26T05:36:04Z</time>
				</trkpt>
				<trkpt lat="45.168910" lon="2.469400">
					<ele>907</ele>
					<time>2018-06-26T05:37:04Z</time>
				</trkpt>
				<trkpt lat="45.169070" lon="2.468930">
					<ele>908</ele>
					<time>2018-06-26T05:38:04Z</time>
				</trkpt>
				<trkpt lat="45.169180" lon="2.468650">
					<ele>908</ele>
					<time>2018-06-26T05:39:04Z</time>
				</trkpt>
				<trkpt lat="45.169360" lon="2.468230">
					<ele>908</ele>
					<time>2018-06-26T05:40:04Z</time>
				</trkpt>
				<trkpt lat="45.169400" lon="2.468120">
					<ele>908</ele>
					<time>2018-06-26T05:41:04Z</time>
				</trkpt>
				<trkpt lat="45.169510" lon="2.467860">
					<ele>907</ele>
					<time>2018-06-26T05:42:04Z</time>
				</trkpt>
				<trkpt lat="45.169640" lon="2.467550">
					<ele>906</ele>
					<time>2018-06-26T05:43:04Z</time>
				</trkpt>
				<trkpt lat="45.169720" lon="2.467350">
					<ele>906</ele>
					<time>2018-06-26T05:44:04Z</time>
				</trkpt>
				<trkpt lat="45.169770" lon="2.467210">
					<ele>906</ele>
					<time>2018-06-26T05:45:04Z</time>
				</trkpt>
				<trkpt lat="45.169810" lon="2.467080">
					<ele>907</ele>
					<time>2018-06-26T05:46:04Z</time>
				</trkpt>
				<trkpt lat="45.169850" lon="2.466910">
					<ele>907</ele>
					<time>2018-06-26T05:47:04Z</time>
				</trkpt>
				<trkpt lat="45.169900" lon="2.466590">
					<ele>907</ele>
					<time>2018-06-26T05:48:04Z</time>
				</trkpt>
				<trkpt lat="45.169970" lon="2.466060">
					<ele>904</ele>
					<time>2018-06-26T05:49:04Z</time>
				</trkpt>
				<trkpt lat="45.170030" lon="2.465590">
					<ele>901</ele>
					<time>2018-06-26T05:50:04Z</time>
				</trkpt>
				<trkpt lat="45.170090" lon="2.465100">
					<ele>898</ele>
					<time>2018-06-26T05:51:04Z</time>
				</trkpt>
				<trkpt lat="45.170140" lon="2.464760">
					<ele>898</ele>
					<time>2018-06-26T05:52:04Z</time>
				</trkpt>
				<trkpt lat="45.170200" lon="2.464400">
					<ele>897</ele>
					<time>2018-06-26T05:53:04Z</time>
				</trkpt>
				<trkpt lat="45.170260" lon="2.464190">
					<ele>897</ele>
					<time>2018-06-26T05:54:04Z</time>
				</trkpt>
				<trkpt lat="45.170350" lon="2.463890">
					<ele>896</ele>
					<time>2018-06-26T05:55:04Z</time>
				</trkpt>
				<trkpt lat="45.170480" lon="2.463490">
					<ele>895</ele>
					<time>2018-06-26T05:56:04Z</time>
				</trkpt>
				<trkpt lat="45.170570" lon="2.463180">
					<ele>895</ele>
					<time>2018-06-26T05:57:04Z</time>
				</trkpt>
				<trkpt lat="45.170640" lon="2.462880">
					<ele>894</ele>
					<time>2018-06-26T05:58:04Z</time>
				</trkpt>
				<trkpt lat="45.170700" lon="2.462630">
					<ele>894</ele>
					<time>2018-06-26T05:59:04Z</time>
				</trkpt>
				<trkpt lat="45.170760" lon="2.462260">
					<ele>894</ele>
					<time>2018-06-26T06:00:04Z</time>
				</trkpt>
				<trkpt lat="45.170860" lon="2.461820">
					<ele>894</ele>
					<time>2018-06-26T06:01:04Z</time>
				</trkpt>
				<trkpt lat="45.170930" lon="2.461610">
					<ele>893</ele>
					<time>2018-06-26T06:02:04Z</time>
				</trkpt>
				<trkpt lat="45.171000" lon="2.461430">
					<ele>893</ele>
					<time>2018-06-26T06:03:04Z</time>
				</trkpt>
				<trkpt lat="45.171050" lon="2.461320">
					<ele>892</ele>
					<time>2018-06-26T06:04:04Z</time>
				</trkpt>
				<trkpt lat="45.171130" lon="2.461210">
					<ele>892</ele>
					<time>2018-06-26T06:05:04Z</time>
				</trkpt>
				<trkpt lat="45.171220" lon="2.461080">
					<ele>891</ele>
					<time>2018-06-26T06:06:04Z</time>
				</trkpt>
				<trkpt lat="45.171320" lon="2.460960">
					<ele>890</ele>
					<time>2018-06-26T06:07:04Z</time>
				</trkpt>
				<trkpt lat="45.171470" lon="2.460800">
					<ele>889</ele>
					<time>2018-06-26T06:08:04Z</time>
				</trkpt>
				<trkpt lat="45.171670" lon="2.460580">
					<ele>888</ele>
					<time>2018-06-26T06:09:04Z</time>
				</trkpt>
				<trkpt lat="45.171890" lon="2.460330">
					<ele>886</ele>
					<time>2018-06-26T06:10:04Z</time>
				</trkpt>
				<trkpt lat="45.171980" lon="2.460190">
					<ele>885</ele>
					<time>2018-06-26T06:11:04Z</time>
				</trkpt>
				<trkpt lat="45.172040" lon="2.460090">
					<ele>885</ele>
					<time>2018-06-26T06:12:04Z</time>
				</trkpt>
				<trkpt lat="45.172110" lon="2.459940">
					<ele>884</ele>
					<time>2018-06-26T06:13:04Z</time>
				</trkpt>
				<trkpt lat="45.172150" lon="2.459870">
					<ele>883</ele>
					<time>2018-06-26T06:14:04Z</time>
				</trkpt>
				<trkpt lat="45.172180" lon="2.459770">
					<ele>882</ele>
					<time>2018-06-26T06:15:04Z</time>
				</trkpt>
				<trkpt lat="45.172240" lon="2.459600">
					<ele>881</ele>
					<time>2018-06-26T06:16:04Z</time>
				</trkpt>
				<trkpt lat="45.172400" lon="2.459150">
					<ele>878</ele>
					<time>2018-06-26T06:17:04Z</time>
				</trkpt>
				<trkpt lat="45.172660" lon="2.458440">
					<ele>875</ele>
					<time>2018-06-26T06:18:04Z</time>
				</trkpt>
				<trkpt lat="45.172930" lon="2.457790">
					<ele>870</ele>
					<time>2018-06-26T06:19:04Z</time>
				</trkpt>
				<trkpt lat="45.173060" lon="2.457510">
					<ele>868</ele>
					<time>2018-06-26T06:20:04Z</time>
				</trkpt>
				<trkpt lat="45.173210" lon="2.457160">
					<ele>866</ele>
					<time>2018-06-26T06:21:04Z</time>
				</trkpt>
				<trkpt lat="45.173430" lon="2.456690">
					<ele>864</ele>
					<time>2018-06-26T06:22:04Z</time>
				</trkpt>
				<trkpt lat="45.173530" lon="2.456530">
					<ele>863</ele>
					<time>2018-06-26T06:23:04Z</time>
				</trkpt>
				<trkpt lat="45.173600" lon="2.456410">
					<ele>862</ele>
					<time>2018-06-26T06:24:04Z</time>
				</trkpt>
				<trkpt lat="45.173760" lon="2.456160">
					<ele>861</ele>
					<time>2018-06-26T06:25:04Z</time>
				</trkpt>
				<trkpt lat="45.173870" lon="2.456000">
					<ele>860</ele>
					<time>2018-06-26T06:26:04Z</time>
				</trkpt>
				<trkpt lat="45.174050" lon="2.455720">
					<ele>860</ele>
					<time>2018-06-26T06:27:04Z</time>
				</trkpt>
				<trkpt lat="45.174250" lon="2.455390">
					<ele>859</ele>
					<time>2018-06-26T06:28:04Z</time>
				</trkpt>
				<trkpt lat="45.174410" lon="2.455140">
					<ele>857</ele>
					<time>2018-06-26T06:29:04Z</time>
				</trkpt>
				<trkpt lat="45.174530" lon="2.454930">
					<ele>856</ele>
					<time>2018-06-26T06:30:04Z</time>
				</trkpt>
				<trkpt lat="45.174540" lon="2.454910">
					<ele>856</ele>
					<time>2018-06-26T06:31:04Z</time>
				</trkpt>
				<trkpt lat="45.174710" lon="2.454610">
					<ele>854</ele>
					<time>2018-06-26T06:32:04Z</time>
				</trkpt>
				<trkpt lat="45.174850" lon="2.454310">
					<ele>854</ele>
					<time>2018-06-26T06:33:04Z</time>
				</trkpt>
				<trkpt lat="45.174980" lon="2.453990">
					<ele>853</ele>
					<time>2018-06-26T06:34:04Z</time>
				</trkpt>
				<trkpt lat="45.175020" lon="2.453910">
					<ele>853</ele>
					<time>2018-06-26T06:35:04Z</time>
				</trkpt>
				<trkpt lat="45.175070" lon="2.453810">
					<ele>852</ele>
					<time>2018-06-26T06:36:04Z</time>
				</trkpt>
				<trkpt lat="45.175150" lon="2.453690">
					<ele>851</ele>
					<time>2018-06-26T06:37:04Z</time>
				</trkpt>
				<trkpt lat="45.175250" lon="2.453600">
					<ele>851</ele>
					<time>2018-06-26T06:38:04Z</time>
				</trkpt>
				<trkpt lat="45.175360" lon="2.453540">
					<ele>850</ele>
					<time>2018-06-26T06:39:04Z</time>
				</trkpt>
				<trkpt lat="45.175450" lon="2.453500">
					<ele>850</ele>
					<time>2018-06-26T06:40:04Z</time>
				</trkpt>
				<trkpt lat="45.175540" lon="2.453480">
					<ele>849</ele>
					<time>2018-06-26T06:41:04Z</time>
				</trkpt>
				<trkpt lat="45.175640" lon="2.453480">
					<ele>849</ele>
					<time>2018-06-26T06:42:04Z</time>
				</trkpt>
				<trkpt lat="45.175720" lon="2.453510">
					<ele>848</ele>
					<time>2018-06-26T06:43:04Z</time>
				</trkpt>
				<trkpt lat="45.175780" lon="2.453550">
					<ele>848</ele>
					<time>2018-06-26T06:44:04Z</time>
				</trkpt>
				<trkpt lat="45.175850" lon="2.453600">
					<ele>848</ele>
					<time>2018-06-26T06:45:04Z</time>
				</trkpt>
				<trkpt lat="45.175920" lon="2.453660">
					<ele>847</ele>
					<time>2018-06-26T06:46:04Z</time>
				</trkpt>
				<trkpt lat="45.175970" lon="2.453730">
					<ele>847</ele>
					<time>2018-06-26T06:47:04Z</time>
				</trkpt>
				<trkpt lat="45.176040" lon="2.453830">
					<ele>846</ele>
					<time>2018-06-26T06:48:04Z</time>
				</trkpt>
				<trkpt lat="45.176100" lon="2.453970">
					<ele>845</ele>
					<time>2018-06-26T06:49:04Z</time>
				</trkpt>
				<trkpt lat="45.176140" lon="2.454090">
					<ele>844</ele>
					<time>2018-06-26T06:50:04Z</time>
				</trkpt>
				<trkpt lat="45.176170" lon="2.454240">
					<ele>844</ele>
					<time>2018-06-26T06:51:04Z</time>
				</trkpt>
				<trkpt lat="45.176190" lon="2.454380">
					<ele>843</ele>
					<time>2018-06-26T06:52:04Z</time>
				</trkpt>
				<trkpt lat="45.176200" lon="2.454720">
					<ele>842</ele>
					<time>2018-06-26T06:53:04Z</time>
				</trkpt>
				<trkpt lat="45.176210" lon="2.455050">
					<ele>841</ele>
					<time>2018-06-26T06:54:04Z</time>
				</trkpt>
				<trkpt lat="45.176220" lon="2.455290">
					<ele>840</ele>
					<time>2018-06-26T06:55:04Z</time>
				</trkpt>
				<trkpt lat="45.176220" lon="2.455330">
					<ele>840</ele>
					<time>2018-06-26T06:56:04Z</time>
				</trkpt>
				<trkpt lat="45.176240" lon="2.455510">
					<ele>839</ele>
					<time>2018-06-26T06:57:04Z</time>
				</trkpt>
				<trkpt lat="45.176250" lon="2.455570">
					<ele>838</ele>
					<time>2018-06-26T06:58:04Z</time>
				</trkpt>
				<trkpt lat="45.176300" lon="2.455830">
					<ele>837</ele>
					<time>2018-06-26T06:59:04Z</time>
				</trkpt>
				<trkpt lat="45.176390" lon="2.456240">
					<ele>836</ele>
					<time>2018-06-26T07:00:04Z</time>
				</trkpt>
				<trkpt lat="45.176460" lon="2.456550">
					<ele>834</ele>
					<time>2018-06-26T07:01:04Z</time>
				</trkpt>
				<trkpt lat="45.176560" lon="2.457010">
					<ele>833</ele>
					<time>2018-06-26T07:02:04Z</time>
				</trkpt>
				<trkpt lat="45.176680" lon="2.457550">
					<ele>831</ele>
					<time>2018-06-26T07:03:04Z</time>
				</trkpt>
				<trkpt lat="45.176750" lon="2.457800">
					<ele>831</ele>
					<time>2018-06-26T07:04:04Z</time>
				</trkpt>
				<trkpt lat="45.176790" lon="2.457970">
					<ele>830</ele>
					<time>2018-06-26T07:05:04Z</time>
				</trkpt>
				<trkpt lat="45.176850" lon="2.458140">
					<ele>830</ele>
					<time>2018-06-26T07:06:04Z</time>
				</trkpt>
				<trkpt lat="45.176900" lon="2.458270">
					<ele>830</ele>
					<time>2018-06-26T07:07:04Z</time>
				</trkpt>
				<trkpt lat="45.176980" lon="2.458400">
					<ele>830</ele>
					<time>2018-06-26T07:08:04Z</time>
				</trkpt>
				<trkpt lat="45.177040" lon="2.458500">
					<ele>830</ele>
					<time>2018-06-26T07:09:04Z</time>
				</trkpt>
				<trkpt lat="45.177110" lon="2.458580">
					<ele>830</ele>
					<time>2018-06-26T07:10:04Z</time>
				</trkpt>
				<trkpt lat="45.177170" lon="2.458640">
					<ele>830</ele>
					<time>2018-06-26T07:11:04Z</time>
				</trkpt>
				<trkpt lat="45.177230" lon="2.458700">
					<ele>830</ele>
					<time>2018-06-26T07:12:04Z</time>
				</trkpt>
				<trkpt lat="45.177350" lon="2.458770">
					<ele>831</ele>
					<time>2018-06-26T07:13:04Z</time>
				</trkpt>
				<trkpt lat="45.177360" lon="2.458780">
					<ele>831</ele>
					<time>2018-06-26T07:14:04Z</time>
				</trkpt>
				<trkpt lat="45.177430" lon="2.458810">
					<ele>831</ele>
					<time>2018-06-26T07:15:04Z</time>
				</trkpt>
				<trkpt lat="45.177500" lon="2.458820">
					<ele>831</ele>
					<time>2018-06-26T07:16:04Z</time>
				</trkpt>
				<trkpt lat="45.177570" lon="2.458830">
					<ele>832</ele>
					<time>2018-06-26T07:17:04Z</time>
				</trkpt>
				<trkpt lat="45.177670" lon="2.458820">
					<ele>832</ele>
					<time>2018-06-26T07:18:04Z</time>
				</trkpt>
				<trkpt lat="45.177820" lon="2.458770">
					<ele>833</ele>
					<time>2018-06-26T07:19:04Z</time>
				</trkpt>
				<trkpt lat="45.178010" lon="2.458680">
					<ele>834</ele>
					<time>2018-06-26T07:20:04Z</time>
				</trkpt>
				<trkpt lat="45.178430" lon="2.458460">
					<ele>834</ele>
					<time>2018-06-26T07:21:04Z</time>
				</trkpt>
				<trkpt lat="45.178900" lon="2.458210">
					<ele>835</ele>
					<time>2018-06-26T07:22:04Z</time>
				</trkpt>
				<trkpt lat="45.178970" lon="2.458190">
					<ele>836</ele>
					<time>2018-06-26T07:23:04Z</time>
				</trkpt>
				<trkpt lat="45.179030" lon="2.458170">
					<ele>836</ele>
					<time>2018-06-26T07:24:04Z</time>
				</trkpt>
				<trkpt lat="45.179100" lon="2.458170">
					<ele>836</ele>
					<time>2018-06-26T07:25:04Z</time>
				</trkpt>
				<trkpt lat="45.179170" lon="2.458190">
					<ele>837</ele>
					<time>2018-06-26T07:26:04Z</time>
				</trkpt>
				<trkpt lat="45.179230" lon="2.458220">
					<ele>837</ele>
					<time>2018-06-26T07:27:04Z</time>
				</trkpt>
				<trkpt lat="45.179320" lon="2.458310">
					<ele>838</ele>
					<time>2018-06-26T07:28:04Z</time>
				</trkpt>
				<trkpt lat="45.179400" lon="2.458420">
					<ele>839</ele>
					<time>2018-06-26T07:29:04Z</time>
				</trkpt>
				<trkpt lat="45.179490" lon="2.458550">
					<ele>840</ele>
					<time>2018-06-26T07:30:04Z</time>
				</trkpt>
				<trkpt lat="45.179580" lon="2.458670">
					<ele>841</ele>
					<time>2018-06-26T07:31:04Z</time>
				</trkpt>
				<trkpt lat="45.179720" lon="2.458790">
					<ele>843</ele>
					<time>2018-06-26T07:32:04Z</time>
				</trkpt>
				<trkpt lat="45.179930" lon="2.458970">
					<ele>844</ele>
					<time>2018-06-26T07:33:04Z</time>
				</trkpt>
				<trkpt lat="45.180230" lon="2.459190">
					<ele>846</ele>
					<time>2018-06-26T07:34:04Z</time>
				</trkpt>
				<trkpt lat="45.180440" lon="2.459280">
					<ele>846</ele>
					<time>2018-06-26T07:35:04Z</time>
				</trkpt>
				<trkpt lat="45.180580" lon="2.459330">
					<ele>846</ele>
					<time>2018-06-26T07:36:04Z</time>
				</trkpt>
				<trkpt lat="45.180640" lon="2.459340">
					<ele>845</ele>
					<time>2018-06-26T07:37:04Z</time>
				</trkpt>
				<trkpt lat="45.180680" lon="2.459350">
					<ele>845</ele>
					<time>2018-06-26T07:38:04Z</time>
				</trkpt>
				<trkpt lat="45.180770" lon="2.459350">
					<ele>845</ele>
					<time>2018-06-26T07:39:04Z</time>
				</trkpt>
				<trkpt lat="45.180890" lon="2.459350">
					<ele>844</ele>
					<time>2018-06-26T07:40:04Z</time>
				</trkpt>
				<trkpt lat="45.181090" lon="2.459300">
					<ele>844</ele>
					<time>2018-06-26T07:41:04Z</time>
				</trkpt>
				<trkpt lat="45.181270" lon="2.459260">
					<ele>843</ele>
					<time>2018-06-26T07:42:04Z</time>
				</trkpt>
				<trkpt lat="45.181460" lon="2.459230">
					<ele>843</ele>
					<time>2018-06-26T07:43:04Z</time>
				</trkpt>
				<trkpt lat="45.181550" lon="2.459240">
					<ele>843</ele>
					<time>2018-06-26T07:44:04Z</time>
				</trkpt>
				<trkpt lat="45.181590" lon="2.459250">
					<ele>843</ele>
					<time>2018-06-26T07:45:04Z</time>
				</trkpt>
				<trkpt lat="45.181650" lon="2.459270">
					<ele>844</ele>
					<time>2018-06-26T07:46:04Z</time>
				</trkpt>
				<trkpt lat="45.181710" lon="2.459290">
					<ele>844</ele>
					<time>2018-06-26T07:47:04Z</time>
				</trkpt>
				<trkpt lat="45.181810" lon="2.459360">
					<ele>844</ele>
					<time>2018-06-26T07:48:04Z</time>
				</trkpt>
				<trkpt lat="45.181830" lon="2.459380">
					<ele>844</ele>
					<time>2018-06-26T07:49:04Z</time>
				</trkpt>
				<trkpt lat="45.181900" lon="2.459460">
					<ele>844</ele>
					<time>2018-06-26T07:50:04Z</time>
				</trkpt>
				<trkpt lat="45.181970" lon="2.459530">
					<ele>844</ele>
					<time>2018-06-26T07:51:04Z</time>
				</trkpt>
				<trkpt lat="45.182070" lon="2.459670">
					<ele>845</ele>
					<time>2018-06-26T07:52:04Z</time>
				</trkpt>
				<trkpt lat="45.182130" lon="2.459760">
					<ele>845</ele>
					<time>2018-06-26T07:53:04Z</time>
				</trkpt>
				<trkpt lat="45.182270" lon="2.459880">
					<ele>845</ele>
					<time>2018-06-26T07:54:04Z</time>
				</trkpt>
				<trkpt lat="45.182380" lon="2.459960">
					<ele>845</ele>
					<time>2018-06-26T07:55:04Z</time>
				</trkpt>
				<trkpt lat="45.182490" lon="2.460020">
					<ele>845</ele>
					<time>2018-06-26T07:56:04Z</time>
				</trkpt>
				<trkpt lat="45.182580" lon="2.460060">
					<ele>845</ele>
					<time>2018-06-26T07:57:04Z</time>
				</trkpt>
				<trkpt lat="45.182680" lon="2.460090">
					<ele>844</ele>
					<time>2018-06-26T07:58:04Z</time>
				</trkpt>
				<trkpt lat="45.182790" lon="2.460110">
					<ele>844</ele>
					<time>2018-06-26T07:59:04Z</time>
				</trkpt>
				<trkpt lat="45.182930" lon="2.460110">
					<ele>843</ele>
					<time>2018-06-26T08:00:04Z</time>
				</trkpt>
				<trkpt lat="45.183350" lon="2.460060">
					<ele>841</ele>
					<time>2018-06-26T08:01:04Z</time>
				</trkpt>
				<trkpt lat="45.183600" lon="2.460030">
					<ele>841</ele>
					<time>2018-06-26T08:02:04Z</time>
				</trkpt>
				<trkpt lat="45.183830" lon="2.459990">
					<ele>840</ele>
					<time>2018-06-26T08:03:04Z</time>
				</trkpt>
				<trkpt lat="45.183900" lon="2.459950">
					<ele>840</ele>
					<time>2018-06-26T08:04:04Z</time>
				</trkpt>
				<trkpt lat="45.183950" lon="2.459920">
					<ele>840</ele>
					<time>2018-06-26T08:05:04Z</time>
				</trkpt>
				<trkpt lat="45.184000" lon="2.459880">
					<ele>840</ele>
					<time>2018-06-26T08:06:04Z</time>
				</trkpt>
				<trkpt lat="45.184070" lon="2.459800">
					<ele>839</ele>
					<time>2018-06-26T08:07:04Z</time>
				</trkpt>
				<trkpt lat="45.184110" lon="2.459720">
					<ele>839</ele>
					<time>2018-06-26T08:08:04Z</time>
				</trkpt>
				<trkpt lat="45.184140" lon="2.459630">
					<ele>838</ele>
					<time>2018-06-26T08:09:04Z</time>
				</trkpt>
				<trkpt lat="45.184160" lon="2.459520">
					<ele>837</ele>
					<time>2018-06-26T08:10:04Z</time>
				</trkpt>
				<trkpt lat="45.184210" lon="2.459270">
					<ele>835</ele>
					<time>2018-06-26T08:11:04Z</time>
				</trkpt>
				<trkpt lat="45.184260" lon="2.459060">
					<ele>835</ele>
					<time>2018-06-26T08:12:04Z</time>
				</trkpt>
				<trkpt lat="45.184310" lon="2.458900">
					<ele>835</ele>
					<time>2018-06-26T08:13:04Z</time>
				</trkpt>
				<trkpt lat="45.184360" lon="2.458780">
					<ele>835</ele>
					<time>2018-06-26T08:14:04Z</time>
				</trkpt>
				<trkpt lat="45.184440" lon="2.458630">
					<ele>835</ele>
					<time>2018-06-26T08:15:04Z</time>
				</trkpt>
				<trkpt lat="45.184500" lon="2.458540">
					<ele>836</ele>
					<time>2018-06-26T08:16:04Z</time>
				</trkpt>
				<trkpt lat="45.184640" lon="2.458370">
					<ele>837</ele>
					<time>2018-06-26T08:17:04Z</time>
				</trkpt>
				<trkpt lat="45.184770" lon="2.458250">
					<ele>837</ele>
					<time>2018-06-26T08:18:04Z</time>
				</trkpt>
				<trkpt lat="45.184880" lon="2.458160">
					<ele>837</ele>
					<time>2018-06-26T08:19:04Z</time>
				</trkpt>
				<trkpt lat="45.185390" lon="2.457830">
					<ele>837</ele>
					<time>2018-06-26T08:20:04Z</time>
				</trkpt>
				<trkpt lat="45.185620" lon="2.457690">
					<ele>837</ele>
					<time>2018-06-26T08:21:04Z</time>
				</trkpt>
				<trkpt lat="45.185870" lon="2.457530">
					<ele>837</ele>
					<time>2018-06-26T08:22:04Z</time>
				</trkpt>
				<trkpt lat="45.186010" lon="2.457430">
					<ele>837</ele>
					<time>2018-06-26T08:23:04Z</time>
				</trkpt>
				<trkpt lat="45.186120" lon="2.457330">
					<ele>837</ele>
					<time>2018-06-26T08:24:04Z</time>
				</trkpt>
				<trkpt lat="45.186210" lon="2.457210">
					<ele>837</ele>
					<time>2018-06-26T08:25:04Z</time>
				</trkpt>
				<trkpt lat="45.186290" lon="2.457070">
					<ele>837</ele>
					<time>2018-06-26T08:26:04Z</time>
				</trkpt>
				<trkpt lat="45.186350" lon="2.456930">
					<ele>837</ele>
					<time>2018-06-26T08:27:04Z</time>
				</trkpt>
				<trkpt lat="45.186400" lon="2.456780">
					<ele>837</ele>
					<time>2018-06-26T08:28:04Z</time>
				</trkpt>
				<trkpt lat="45.186440" lon="2.456670">
					<ele>837</ele>
					<time>2018-06-26T08:29:04Z</time>
				</trkpt>
				<trkpt lat="45.186590" lon="2.456200">
					<ele>837</ele>
					<time>2018-06-26T08:30:04Z</time>
				</trkpt>
				<trkpt lat="45.186710" lon="2.455890">
					<ele>837</ele>
					<time>2018-06-26T08:31:04Z</time>
				</trkpt>
				<trkpt lat="45.186810" lon="2.455670">
					<ele>837</ele>
					<time>2018-06-26T08:32:04Z</time>
				</trkpt>
				<trkpt lat="45.186930" lon="2.455460">
					<ele>837</ele>
					<time>2018-06-26T08:33:04Z</time>
				</trkpt>
				<trkpt lat="45.187050" lon="2.455270">
					<ele>837</ele>
					<time>2018-06-26T08:34:04Z</time>
				</trkpt>
				<trkpt lat="45.187160" lon="2.455120">
					<ele>837</ele>
					<time>2018-06-26T08:35:04Z</time>
				</trkpt>
				<trkpt lat="45.187390" lon="2.454830">
					<ele>837</ele>
					<time>2018-06-26T08:36:04Z</time>
				</trkpt>
				<trkpt lat="45.187500" lon="2.454720">
					<ele>837</ele>
					<time>2018-06-26T08:37:04Z</time>
				</trkpt>
				<trkpt lat="45.187690" lon="2.454540">
					<ele>835</ele>
					<time>2018-06-26T08:38:04Z</time>
				</trkpt>
				<trkpt lat="45.187890" lon="2.454340">
					<ele>834</ele>
					<time>2018-06-26T08:39:04Z</time>
				</trkpt>
				<trkpt lat="45.188050" lon="2.454180">
					<ele>833</ele>
					<time>2018-06-26T08:40:04Z</time>
				</trkpt>
				<trkpt lat="45.188240" lon="2.453990">
					<ele>832</ele>
					<time>2018-06-26T08:41:04Z</time>
				</trkpt>
				<trkpt lat="45.188300" lon="2.453940">
					<ele>831</ele>
					<time>2018-06-26T08:42:04Z</time>
				</trkpt>
				<trkpt lat="45.188510" lon="2.453740">
					<ele>831</ele>
					<time>2018-06-26T08:43:04Z</time>
				</trkpt>
				<trkpt lat="45.189030" lon="2.453210">
					<ele>830</ele>
					<time>2018-06-26T08:44:04Z</time>
				</trkpt>
				<trkpt lat="45.189310" lon="2.452930">
					<ele>828</ele>
					<time>2018-06-26T08:45:04Z</time>
				</trkpt>
				<trkpt lat="45.189790" lon="2.452520">
					<ele>827</ele>
					<time>2018-06-26T08:46:04Z</time>
				</trkpt>
				<trkpt lat="45.190300" lon="2.452160">
					<ele>825</ele>
					<time>2018-06-26T08:47:04Z</time>
				</trkpt>
				<trkpt lat="45.190520" lon="2.451990">
					<ele>824</ele>
					<time>2018-06-26T08:48:04Z</time>
				</trkpt>
				<trkpt lat="45.190610" lon="2.451890">
					<ele>823</ele>
					<time>2018-06-26T08:49:04Z</time>
				</trkpt>
				<trkpt lat="45.190680" lon="2.451790">
					<ele>823</ele>
					<time>2018-06-26T08:50:04Z</time>
				</trkpt>
				<trkpt lat="45.190730" lon="2.451690">
					<ele>823</ele>
					<time>2018-06-26T08:51:04Z</time>
				</trkpt>
				<trkpt lat="45.190790" lon="2.451540">
					<ele>823</ele>
					<time>2018-06-26T08:52:04Z</time>
				</trkpt>
				<trkpt lat="45.190840" lon="2.451400">
					<ele>822</ele>
					<time>2018-06-26T08:53:04Z</time>
				</trkpt>
				<trkpt lat="45.190950" lon="2.451090">
					<ele>820</ele>
					<time>2018-06-26T08:54:04Z</time>
				</trkpt>
				<trkpt lat="45.191000" lon="2.450950">
					<ele>819</ele>
					<time>2018-06-26T08:55:04Z</time>
				</trkpt>
				<trkpt lat="45.191000" lon="2.450950">
					<ele>819</ele>
					<time>2018-06-26T08:56:04Z</time>
				</trkpt>
				<trkpt lat="45.191090" lon="2.450690">
					<ele>818</ele>
					<time>2018-06-26T08:57:04Z</time>
				</trkpt>
				<trkpt lat="45.191270" lon="2.450220">
					<ele>816</ele>
					<time>2018-06-26T08:58:04Z</time>
				</trkpt>
				<trkpt lat="45.191430" lon="2.449870">
					<ele>815</ele>
					<time>2018-06-26T08:59:04Z</time>
				</trkpt>
				<trkpt lat="45.191610" lon="2.449550">
					<ele>815</ele>
					<time>2018-06-26T09:00:04Z</time>
				</trkpt>
				<trkpt lat="45.191860" lon="2.449120">
					<ele>813</ele>
					<time>2018-06-26T09:01:04Z</time>
				</trkpt>
				<trkpt lat="45.192100" lon="2.448690">
					<ele>811</ele>
					<time>2018-06-26T09:02:04Z</time>
				</trkpt>
				<trkpt lat="45.192860" lon="2.447340">
					<ele>807</ele>
					<time>2018-06-26T09:03:04Z</time>
				</trkpt>
				<trkpt lat="45.193280" lon="2.446580">
					<ele>803</ele>
					<time>2018-06-26T09:04:04Z</time>
				</trkpt>
				<trkpt lat="45.193460" lon="2.446240">
					<ele>801</ele>
					<time>2018-06-26T09:05:04Z</time>
				</trkpt>
				<trkpt lat="45.193670" lon="2.445850">
					<ele>799</ele>
					<time>2018-06-26T09:06:04Z</time>
				</trkpt>
				<trkpt lat="45.193880" lon="2.445490">
					<ele>797</ele>
					<time>2018-06-26T09:07:04Z</time>
				</trkpt>
				<trkpt lat="45.194010" lon="2.445270">
					<ele>795</ele>
					<time>2018-06-26T09:08:04Z</time>
				</trkpt>
				<trkpt lat="45.194130" lon="2.445110">
					<ele>794</ele>
					<time>2018-06-26T09:09:04Z</time>
				</trkpt>
				<trkpt lat="45.194250" lon="2.444990">
					<ele>793</ele>
					<time>2018-06-26T09:10:04Z</time>
				</trkpt>
				<trkpt lat="45.194360" lon="2.444910">
					<ele>792</ele>
					<time>2018-06-26T09:11:04Z</time>
				</trkpt>
				<trkpt lat="45.194440" lon="2.444880">
					<ele>791</ele>
					<time>2018-06-26T09:12:04Z</time>
				</trkpt>
				<trkpt lat="45.194520" lon="2.444860">
					<ele>791</ele>
					<time>2018-06-26T09:13:04Z</time>
				</trkpt>
				<trkpt lat="45.194610" lon="2.444850">
					<ele>790</ele>
					<time>2018-06-26T09:14:04Z</time>
				</trkpt>
				<trkpt lat="45.194700" lon="2.444850">
					<ele>789</ele>
					<time>2018-06-26T09:15:04Z</time>
				</trkpt>
				<trkpt lat="45.194810" lon="2.444880">
					<ele>789</ele>
					<time>2018-06-26T09:16:04Z</time>
				</trkpt>
				<trkpt lat="45.194910" lon="2.444910">
					<ele>788</ele>
					<time>2018-06-26T09:17:04Z</time>
				</trkpt>
				<trkpt lat="45.195000" lon="2.444950">
					<ele>787</ele>
					<time>2018-06-26T09:18:04Z</time>
				</trkpt>
				<trkpt lat="45.195110" lon="2.445030">
					<ele>785</ele>
					<time>2018-06-26T09:19:04Z</time>
				</trkpt>
				<trkpt lat="45.195210" lon="2.445110">
					<ele>784</ele>
					<time>2018-06-26T09:20:04Z</time>
				</trkpt>
				<trkpt lat="45.195480" lon="2.445570">
					<ele>781</ele>
					<time>2018-06-26T09:21:04Z</time>
				</trkpt>
				<trkpt lat="45.195550" lon="2.445930">
					<ele>780</ele>
					<time>2018-06-26T09:22:04Z</time>
				</trkpt>
				<trkpt lat="45.195610" lon="2.446190">
					<ele>779</ele>
					<time>2018-06-26T09:23:04Z</time>
				</trkpt>
				<trkpt lat="45.195670" lon="2.446500">
					<ele>777</ele>
					<time>2018-06-26T09:24:04Z</time>
				</trkpt>
				<trkpt lat="45.195730" lon="2.446800">
					<ele>777</ele>
					<time>2018-06-26T09:25:04Z</time>
				</trkpt>
				<trkpt lat="45.195790" lon="2.446990">
					<ele>776</ele>
					<time>2018-06-26T09:26:04Z</time>
				</trkpt>
				<trkpt lat="45.195860" lon="2.447130">
					<ele>775</ele>
					<time>2018-06-26T09:27:04Z</time>
				</trkpt>
				<trkpt lat="45.195900" lon="2.447200">
					<ele>775</ele>
					<time>2018-06-26T09:28:04Z</time>
				</trkpt>
				<trkpt lat="45.195920" lon="2.447240">
					<ele>775</ele>
					<time>2018-06-26T09:29:04Z</time>
				</trkpt>
				<trkpt lat="45.195990" lon="2.447330">
					<ele>774</ele>
					<time>2018-06-26T09:30:04Z</time>
				</trkpt>
				<trkpt lat="45.196080" lon="2.447420">
					<ele>774</ele>
					<time>2018-06-26T09:31:04Z</time>
				</trkpt>
				<trkpt lat="45.196170" lon="2.447480">
					<ele>773</ele>
					<time>2018-06-26T09:32:04Z</time>
				</trkpt>
				<trkpt lat="45.196280" lon="2.447540">
					<ele>772</ele>
					<time>2018-06-26T09:33:04Z</time>
				</trkpt>
				<trkpt lat="45.196370" lon="2.447590">
					<ele>772</ele>
					<time>2018-06-26T09:34:04Z</time>
				</trkpt>
				<trkpt lat="45.196480" lon="2.447610">
					<ele>771</ele>
					<time>2018-06-26T09:35:04Z</time>
				</trkpt>
				<trkpt lat="45.196570" lon="2.447620">
					<ele>770</ele>
					<time>2018-06-26T09:36:04Z</time>
				</trkpt>
				<trkpt lat="45.196650" lon="2.447620">
					<ele>769</ele>
					<time>2018-06-26T09:37:04Z</time>
				</trkpt>
				<trkpt lat="45.196780" lon="2.447590">
					<ele>771</ele>
					<time>2018-06-26T09:38:04Z</time>
				</trkpt>
				<trkpt lat="45.196890" lon="2.447530">
					<ele>773</ele>
					<time>2018-06-26T09:39:04Z</time>
				</trkpt>
				<trkpt lat="45.197050" lon="2.447420">
					<ele>776</ele>
					<time>2018-06-26T09:40:04Z</time>
				</trkpt>
				<trkpt lat="45.197160" lon="2.447300">
					<ele>778</ele>
					<time>2018-06-26T09:41:04Z</time>
				</trkpt>
				<trkpt lat="45.197250" lon="2.447180">
					<ele>779</ele>
					<time>2018-06-26T09:42:04Z</time>
				</trkpt>
				<trkpt lat="45.197330" lon="2.447010">
					<ele>780</ele>
					<time>2018-06-26T09:43:04Z</time>
				</trkpt>
				<trkpt lat="45.197380" lon="2.446850">
					<ele>781</ele>
					<time>2018-06-26T09:44:04Z</time>
				</trkpt>
				<trkpt lat="45.197440" lon="2.446660">
					<ele>782</ele>
					<time>2018-06-26T09:45:04Z</time>
				</trkpt>
				<trkpt lat="45.197490" lon="2.446400">
					<ele>782</ele>
					<time>2018-06-26T09:46:04Z</time>
				</trkpt>
				<trkpt lat="45.197530" lon="2.446170">
					<ele>782</ele>
					<time>2018-06-26T09:47:04Z</time>
				</trkpt>
				<trkpt lat="45.197540" lon="2.446120">
					<ele>782</ele>
					<time>2018-06-26T09:48:04Z</time>
				</trkpt>
				<trkpt lat="45.197570" lon="2.445910">
					<ele>782</ele>
					<time>2018-06-26T09:49:04Z</time>
				</trkpt>
				<trkpt lat="45.197580" lon="2.445770">
					<ele>783</ele>
					<time>2018-06-26T09:50:04Z</time>
				</trkpt>
				<trkpt lat="45.197590" lon="2.445650">
					<ele>783</ele>
					<time>2018-06-26T09:51:04Z</time>
				</trkpt>
				<trkpt lat="45.197580" lon="2.445490">
					<ele>783</ele>
					<time>2018-06-26T09:52:04Z</time>
				</trkpt>
				<trkpt lat="45.197570" lon="2.445290">
					<ele>783</ele>
					<time>2018-06-26T09:53:04Z</time>
				</trkpt>
				<trkpt lat="45.197560" lon="2.445060">
					<ele>783</ele>
					<time>2018-06-26T09:54:04Z</time>
				</trkpt>
				<trkpt lat="45.197570" lon="2.444790">
					<ele>783</ele>
					<time>2018-06-26T09:55:04Z</time>
				</trkpt>
				<trkpt lat="45.197600" lon="2.444530">
					<ele>783</ele>
					<time>2018-06-26T09:56:04Z</time>
				</trkpt>
				<trkpt lat="45.197650" lon="2.444220">
					<ele>784</ele>
					<time>2018-06-26T09:57:04Z</time>
				</trkpt>
				<trkpt lat="45.197720" lon="2.443830">
					<ele>785</ele>
					<time>2018-06-26T09:58:04Z</time>
				</trkpt>
				<trkpt lat="45.197780" lon="2.443500">
					<ele>786</ele>
					<time>2018-06-26T09:59:04Z</time>
				</trkpt>
				<trkpt lat="45.197870" lon="2.443140">
					<ele>788</ele>
					<time>2018-06-26T10:00:04Z</time>
				</trkpt>
				<trkpt lat="45.197920" lon="2.442920">
					<ele>789</ele>
					<time>2018-06-26T10:01:04Z</time>
				</trkpt>
				<trkpt lat="45.198000" lon="2.442710">
					<ele>790</ele>
					<time>2018-06-26T10:02:04Z</time>
				</trkpt>
				<trkpt lat="45.198130" lon="2.442380">
					<ele>792</ele>
					<time>2018-06-26T10:03:04Z</time>
				</trkpt>
				<trkpt lat="45.198280" lon="2.442100">
					<ele>795</ele>
					<time>2018-06-26T10:04:04Z</time>
				</trkpt>
				<trkpt lat="45.198370" lon="2.441830">
					<ele>796</ele>
					<time>2018-06-26T10:05:04Z</time>
				</trkpt>
				<trkpt lat="45.198380" lon="2.441770">
					<ele>796</ele>
					<time>2018-06-26T10:06:04Z</time>
				</trkpt>
				<trkpt lat="45.198450" lon="2.441510">
					<ele>797</ele>
					<time>2018-06-26T10:07:04Z</time>
				</trkpt>
				<trkpt lat="45.198530" lon="2.441230">
					<ele>798</ele>
					<time>2018-06-26T10:08:04Z</time>
				</trkpt>
				<trkpt lat="45.198650" lon="2.440830">
					<ele>799</ele>
					<time>2018-06-26T10:09:04Z</time>
				</trkpt>
				<trkpt lat="45.198740" lon="2.440600">
					<ele>800</ele>
					<time>2018-06-26T10:10:04Z</time>
				</trkpt>
				<trkpt lat="45.198820" lon="2.440450">
					<ele>800</ele>
					<time>2018-06-26T10:11:04Z</time>
				</trkpt>
				<trkpt lat="45.198930" lon="2.440320">
					<ele>801</ele>
					<time>2018-06-26T10:12:04Z</time>
				</trkpt>
				<trkpt lat="45.199060" lon="2.440180">
					<ele>802</ele>
					<time>2018-06-26T10:13:04Z</time>
				</trkpt>
				<trkpt lat="45.199190" lon="2.440040">
					<ele>802</ele>
					<time>2018-06-26T10:14:04Z</time>
				</trkpt>
				<trkpt lat="45.199350" lon="2.439900">
					<ele>803</ele>
					<time>2018-06-26T10:15:04Z</time>
				</trkpt>
				<trkpt lat="45.199490" lon="2.439790">
					<ele>804</ele>
					<time>2018-06-26T10:16:04Z</time>
				</trkpt>
				<trkpt lat="45.199680" lon="2.439660">
					<ele>804</ele>
					<time>2018-06-26T10:17:04Z</time>
				</trkpt>
				<trkpt lat="45.199780" lon="2.439610">
					<ele>805</ele>
					<time>2018-06-26T10:18:04Z</time>
				</trkpt>
				<trkpt lat="45.199850" lon="2.439580">
					<ele>805</ele>
					<time>2018-06-26T10:19:04Z</time>
				</trkpt>
				<trkpt lat="45.199980" lon="2.439530">
					<ele>806</ele>
					<time>2018-06-26T10:20:04Z</time>
				</trkpt>
				<trkpt lat="45.200110" lon="2.439500">
					<ele>807</ele>
					<time>2018-06-26T10:21:04Z</time>
				</trkpt>
				<trkpt lat="45.200300" lon="2.439470">
					<ele>808</ele>
					<time>2018-06-26T10:22:04Z</time>
				</trkpt>
				<trkpt lat="45.200430" lon="2.439460">
					<ele>809</ele>
					<time>2018-06-26T10:23:04Z</time>
				</trkpt>
				<trkpt lat="45.200630" lon="2.439460">
					<ele>810</ele>
					<time>2018-06-26T10:24:04Z</time>
				</trkpt>
				<trkpt lat="45.200870" lon="2.439490">
					<ele>812</ele>
					<time>2018-06-26T10:25:04Z</time>
				</trkpt>
				<trkpt lat="45.201750" lon="2.439580">
					<ele>818</ele>
					<time>2018-06-26T10:26:04Z</time>
				</trkpt>
				<trkpt lat="45.202950" lon="2.439710">
					<ele>820</ele>
					<time>2018-06-26T10:27:04Z</time>
				</trkpt>
				<trkpt lat="45.203120" lon="2.439740">
					<ele>821</ele>
					<time>2018-06-26T10:28:04Z</time>
				</trkpt>
				<trkpt lat="45.203190" lon="2.439750">
					<ele>821</ele>
					<time>2018-06-26T10:29:04Z</time>
				</trkpt>
				<trkpt lat="45.203190" lon="2.439750">
					<ele>821</ele>
					<time>2018-06-26T10:30:04Z</time>
				</trkpt>
				<trkpt lat="45.203400" lon="2.439430">
					<ele>820</ele>
					<time>2018-06-26T10:31:04Z</time>
				</trkpt>
				<trkpt lat="45.203430" lon="2.439190">
					<ele>819</ele>
					<time>2018-06-26T10:32:04Z</time>
				</trkpt>
				<trkpt lat="45.203660" lon="2.437740">
					<ele>815</ele>
					<time>2018-06-26T10:33:04Z</time>
				</trkpt>
				<trkpt lat="45.203970" lon="2.435970">
					<ele>814</ele>
					<time>2018-06-26T10:34:04Z</time>
				</trkpt>
				<trkpt lat="45.204010" lon="2.435750">
					<ele>814</ele>
					<time>2018-06-26T10:35:04Z</time>
				</trkpt>
				<trkpt lat="45.204020" lon="2.435610">
					<ele>813</ele>
					<time>2018-06-26T10:36:04Z</time>
				</trkpt>
				<trkpt lat="45.204030" lon="2.435560">
					<ele>813</ele>
					<time>2018-06-26T10:37:04Z</time>
				</trkpt>
				<trkpt lat="45.204030" lon="2.435440">
					<ele>813</ele>
					<time>2018-06-26T10:38:04Z</time>
				</trkpt>
				<trkpt lat="45.204040" lon="2.435290">
					<ele>813</ele>
					<time>2018-06-26T10:39:04Z</time>
				</trkpt>
				<trkpt lat="45.204050" lon="2.435070">
					<ele>813</ele>
					<time>2018-06-26T10:40:04Z</time>
				</trkpt>
				<trkpt lat="45.204060" lon="2.434650">
					<ele>812</ele>
					<time>2018-06-26T10:41:04Z</time>
				</trkpt>
				<trkpt lat="45.204070" lon="2.434130">
					<ele>811</ele>
					<time>2018-06-26T10:42:04Z</time>
				</trkpt>
				<trkpt lat="45.204070" lon="2.434100">
					<ele>811</ele>
					<time>2018-06-26T10:43:04Z</time>
				</trkpt>
				<trkpt lat="45.204080" lon="2.433810">
					<ele>811</ele>
					<time>2018-06-26T10:44:04Z</time>
				</trkpt>
				<trkpt lat="45.204100" lon="2.433340">
					<ele>811</ele>
					<time>2018-06-26T10:45:04Z</time>
				</trkpt>
				<trkpt lat="45.204110" lon="2.432980">
					<ele>810</ele>
					<time>2018-06-26T10:46:04Z</time>
				</trkpt>
				<trkpt lat="45.204130" lon="2.432560">
					<ele>809</ele>
					<time>2018-06-26T10:47:04Z</time>
				</trkpt>
				<trkpt lat="45.204140" lon="2.432390">
					<ele>809</ele>
					<time>2018-06-26T10:48:04Z</time>
				</trkpt>
				<trkpt lat="45.204160" lon="2.432250">
					<ele>808</ele>
					<time>2018-06-26T10:49:04Z</time>
				</trkpt>
				<trkpt lat="45.204210" lon="2.431870">
					<ele>807</ele>
					<time>2018-06-26T10:50:04Z</time>
				</trkpt>
				<trkpt lat="45.204210" lon="2.431850">
					<ele>807</ele>
					<time>2018-06-26T10:51:04Z</time>
				</trkpt>
				<trkpt lat="45.204280" lon="2.431340">
					<ele>807</ele>
					<time>2018-06-26T10:52:04Z</time>
				</trkpt>
				<trkpt lat="45.204430" lon="2.430370">
					<ele>806</ele>
					<time>2018-06-26T10:53:04Z</time>
				</trkpt>
				<trkpt lat="45.204470" lon="2.430070">
					<ele>805</ele>
					<time>2018-06-26T10:54:04Z</time>
				</trkpt>
				<trkpt lat="45.204530" lon="2.429660">
					<ele>804</ele>
					<time>2018-06-26T10:55:04Z</time>
				</trkpt>
				<trkpt lat="45.204620" lon="2.429090">
					<ele>802</ele>
					<time>2018-06-26T10:56:04Z</time>
				</trkpt>
				<trkpt lat="45.204680" lon="2.428580">
					<ele>802</ele>
					<time>2018-06-26T10:57:04Z</time>
				</trkpt>
				<trkpt lat="45.204740" lon="2.428200">
					<ele>802</ele>
					<time>2018-06-26T10:58:04Z</time>
				</trkpt>
				<trkpt lat="45.204810" lon="2.427710">
					<ele>802</ele>
					<time>2018-06-26T10:59:04Z</time>
				</trkpt>
				<trkpt lat="45.204860" lon="2.427340">
					<ele>802</ele>
					<time>2018-06-26T11:00:04Z</time>
				</trkpt>
				<trkpt lat="45.204920" lon="2.426960">
					<ele>802</ele>
					<time>2018-06-26T11:01:04Z</time>
				</trkpt>
				<trkpt lat="45.204980" lon="2.426550">
					<ele>802</ele>
					<time>2018-06-26T11:02:04Z</time>
				</trkpt>
				<trkpt lat="45.205040" lon="2.426160">
					<ele>801</ele>
					<time>2018-06-26T11:03:04Z</time>
				</trkpt>
				<trkpt lat="45.205090" lon="2.425740">
					<ele>801</ele>
					<time>2018-06-26T11:04:04Z</time>
				</trkpt>
				<trkpt lat="45.205140" lon="2.425320">
					<ele>799</ele>
					<time>2018-06-26T11:05:04Z</time>
				</trkpt>
				<trkpt lat="45.205220" lon="2.424530">
					<ele>798</ele>
					<time>2018-06-26T11:06:04Z</time>
				</trkpt>
				<trkpt lat="45.205220" lon="2.424520">
					<ele>798</ele>
					<time>2018-06-26T11:07:04Z</time>
				</trkpt>
				<trkpt lat="45.205290" lon="2.423830">
					<ele>797</ele>
					<time>2018-06-26T11:08:04Z</time>
				</trkpt>
				<trkpt lat="45.205350" lon="2.423350">
					<ele>795</ele>
					<time>2018-06-26T11:09:04Z</time>
				</trkpt>
				<trkpt lat="45.205410" lon="2.422750">
					<ele>793</ele>
					<time>2018-06-26T11:10:04Z</time>
				</trkpt>
				<trkpt lat="45.205460" lon="2.422190">
					<ele>792</ele>
					<time>2018-06-26T11:11:04Z</time>
				</trkpt>
				<trkpt lat="45.205530" lon="2.421580">
					<ele>791</ele>
					<time>2018-06-26T11:12:04Z</time>
				</trkpt>
				<trkpt lat="45.205610" lon="2.420760">
					<ele>791</ele>
					<time>2018-06-26T11:13:04Z</time>
				</trkpt>
				<trkpt lat="45.205660" lon="2.420270">
					<ele>790</ele>
					<time>2018-06-26T11:14:04Z</time>
				</trkpt>
				<trkpt lat="45.205670" lon="2.420160">
					<ele>790</ele>
					<time>2018-06-26T11:15:04Z</time>
				</trkpt>
				<trkpt lat="45.205730" lon="2.419620">
					<ele>790</ele>
					<time>2018-06-26T11:16:04Z</time>
				</trkpt>
				<trkpt lat="45.205800" lon="2.418990">
					<ele>789</ele>
					<time>2018-06-26T11:17:04Z</time>
				</trkpt>
				<trkpt lat="45.205890" lon="2.418160">
					<ele>788</ele>
					<time>2018-06-26T11:18:04Z</time>
				</trkpt>
				<trkpt lat="45.205970" lon="2.417350">
					<ele>788</ele>
					<time>2018-06-26T11:19:04Z</time>
				</trkpt>
				<trkpt lat="45.206060" lon="2.416520">
					<ele>788</ele>
					<time>2018-06-26T11:20:04Z</time>
				</trkpt>
				<trkpt lat="45.206240" lon="2.414780">
					<ele>786</ele>
					<time>2018-06-26T11:21:04Z</time>
				</trkpt>
				<trkpt lat="45.206340" lon="2.413770">
					<ele>784</ele>
					<time>2018-06-26T11:22:04Z</time>
				</trkpt>
				<trkpt lat="45.206390" lon="2.413330">
					<ele>783</ele>
					<time>2018-06-26T11:23:04Z</time>
				</trkpt>
				<trkpt lat="45.206430" lon="2.413050">
					<ele>783</ele>
					<time>2018-06-26T11:24:04Z</time>
				</trkpt>
				<trkpt lat="45.206460" lon="2.412870">
					<ele>784</ele>
					<time>2018-06-26T11:25:04Z</time>
				</trkpt>
				<trkpt lat="45.206500" lon="2.412680">
					<ele>784</ele>
					<time>2018-06-26T11:26:04Z</time>
				</trkpt>
				<trkpt lat="45.206520" lon="2.412560">
					<ele>784</ele>
					<time>2018-06-26T11:27:04Z</time>
				</trkpt>
				<trkpt lat="45.206600" lon="2.412310">
					<ele>784</ele>
					<time>2018-06-26T11:28:04Z</time>
				</trkpt>
				<trkpt lat="45.207080" lon="2.410830">
					<ele>780</ele>
					<time>2018-06-26T11:29:04Z</time>
				</trkpt>
				<trkpt lat="45.207700" lon="2.408870">
					<ele>779</ele>
					<time>2018-06-26T11:30:04Z</time>
				</trkpt>
				<trkpt lat="45.207820" lon="2.408520">
					<ele>778</ele>
					<time>2018-06-26T11:31:04Z</time>
				</trkpt>
				<trkpt lat="45.207990" lon="2.407990">
					<ele>777</ele>
					<time>2018-06-26T11:32:04Z</time>
				</trkpt>
				<trkpt lat="45.208150" lon="2.407510">
					<ele>776</ele>
					<time>2018-06-26T11:33:04Z</time>
				</trkpt>
				<trkpt lat="45.208280" lon="2.407120">
					<ele>777</ele>
					<time>2018-06-26T11:34:04Z</time>
				</trkpt>
				<trkpt lat="45.208340" lon="2.406940">
					<ele>777</ele>
					<time>2018-06-26T11:35:04Z</time>
				</trkpt>
				<trkpt lat="45.208400" lon="2.406760">
					<ele>778</ele>
					<time>2018-06-26T11:36:04Z</time>
				</trkpt>
				<trkpt lat="45.208470" lon="2.406560">
					<ele>778</ele>
					<time>2018-06-26T11:37:04Z</time>
				</trkpt>
				<trkpt lat="45.208780" lon="2.405750">
					<ele>777</ele>
					<time>2018-06-26T11:38:04Z</time>
				</trkpt>
				<trkpt lat="45.209080" lon="2.404930">
					<ele>774</ele>
					<time>2018-06-26T11:39:04Z</time>
				</trkpt>
				<trkpt lat="45.209210" lon="2.404550">
					<ele>773</ele>
					<time>2018-06-26T11:40:04Z</time>
				</trkpt>
				<trkpt lat="45.209390" lon="2.404030">
					<ele>773</ele>
					<time>2018-06-26T11:41:04Z</time>
				</trkpt>
				<trkpt lat="45.209550" lon="2.403590">
					<ele>772</ele>
					<time>2018-06-26T11:42:04Z</time>
				</trkpt>
				<trkpt lat="45.209690" lon="2.403200">
					<ele>771</ele>
					<time>2018-06-26T11:43:04Z</time>
				</trkpt>
				<trkpt lat="45.209750" lon="2.403000">
					<ele>770</ele>
					<time>2018-06-26T11:44:04Z</time>
				</trkpt>
				<trkpt lat="45.209780" lon="2.402860">
					<ele>770</ele>
					<time>2018-06-26T11:45:04Z</time>
				</trkpt>
				<trkpt lat="45.209830" lon="2.402660">
					<ele>770</ele>
					<time>2018-06-26T11:46:04Z</time>
				</trkpt>
				<trkpt lat="45.209870" lon="2.402400">
					<ele>769</ele>
					<time>2018-06-26T11:47:04Z</time>
				</trkpt>
				<trkpt lat="45.209920" lon="2.402090">
					<ele>769</ele>
					<time>2018-06-26T11:48:04Z</time>
				</trkpt>
				<trkpt lat="45.209950" lon="2.401870">
					<ele>769</ele>
					<time>2018-06-26T11:49:04Z</time>
				</trkpt>
				<trkpt lat="45.209990" lon="2.401700">
					<ele>769</ele>
					<time>2018-06-26T11:50:04Z</time>
				</trkpt>
				<trkpt lat="45.210040" lon="2.401480">
					<ele>769</ele>
					<time>2018-06-26T11:51:04Z</time>
				</trkpt>
				<trkpt lat="45.210120" lon="2.401250">
					<ele>769</ele>
					<time>2018-06-26T11:52:04Z</time>
				</trkpt>
				<trkpt lat="45.210210" lon="2.400960">
					<ele>769</ele>
					<time>2018-06-26T11:53:04Z</time>
				</trkpt>
				<trkpt lat="45.210330" lon="2.400660">
					<ele>770</ele>
					<time>2018-06-26T11:54:04Z</time>
				</trkpt>
				<trkpt lat="45.210430" lon="2.400400">
					<ele>770</ele>
					<time>2018-06-26T11:55:04Z</time>
				</trkpt>
				<trkpt lat="45.210480" lon="2.400200">
					<ele>770</ele>
					<time>2018-06-26T11:56:04Z</time>
				</trkpt>
				<trkpt lat="45.210520" lon="2.400000">
					<ele>771</ele>
					<time>2018-06-26T11:57:04Z</time>
				</trkpt>
				<trkpt lat="45.210560" lon="2.399780">
					<ele>771</ele>
					<time>2018-06-26T11:58:04Z</time>
				</trkpt>
				<trkpt lat="45.210570" lon="2.399550">
					<ele>771</ele>
					<time>2018-06-26T11:59:04Z</time>
				</trkpt>
				<trkpt lat="45.210580" lon="2.399250">
					<ele>772</ele>
					<time>2018-06-26T12:00:04Z</time>
				</trkpt>
				<trkpt lat="45.210580" lon="2.398790">
					<ele>772</ele>
					<time>2018-06-26T12:01:04Z</time>
				</trkpt>
				<trkpt lat="45.210570" lon="2.398250">
					<ele>772</ele>
					<time>2018-06-26T12:02:04Z</time>
				</trkpt>
				<trkpt lat="45.210570" lon="2.398180">
					<ele>772</ele>
					<time>2018-06-26T12:03:04Z</time>
				</trkpt>
				<trkpt lat="45.210570" lon="2.398130">
					<ele>772</ele>
					<time>2018-06-26T12:04:04Z</time>
				</trkpt>
				<trkpt lat="45.210570" lon="2.397870">
					<ele>772</ele>
					<time>2018-06-26T12:05:04Z</time>
				</trkpt>
				<trkpt lat="45.210570" lon="2.397320">
					<ele>771</ele>
					<time>2018-06-26T12:06:04Z</time>
				</trkpt>
				<trkpt lat="45.210570" lon="2.396750">
					<ele>771</ele>
					<time>2018-06-26T12:07:04Z</time>
				</trkpt>
				<trkpt lat="45.210560" lon="2.396110">
					<ele>769</ele>
					<time>2018-06-26T12:08:04Z</time>
				</trkpt>
				<trkpt lat="45.210550" lon="2.395430">
					<ele>768</ele>
					<time>2018-06-26T12:09:04Z</time>
				</trkpt>
				<trkpt lat="45.210550" lon="2.394940">
					<ele>768</ele>
					<time>2018-06-26T12:10:04Z</time>
				</trkpt>
				<trkpt lat="45.210550" lon="2.394330">
					<ele>768</ele>
					<time>2018-06-26T12:11:04Z</time>
				</trkpt>
				<trkpt lat="45.210540" lon="2.393660">
					<ele>768</ele>
					<time>2018-06-26T12:12:04Z</time>
				</trkpt>
				<trkpt lat="45.210540" lon="2.393210">
					<ele>768</ele>
					<time>2018-06-26T12:13:04Z</time>
				</trkpt>
				<trkpt lat="45.210550" lon="2.392910">
					<ele>768</ele>
					<time>2018-06-26T12:14:04Z</time>
				</trkpt>
				<trkpt lat="45.210550" lon="2.392710">
					<ele>768</ele>
					<time>2018-06-26T12:15:04Z</time>
				</trkpt>
				<trkpt lat="45.210570" lon="2.392530">
					<ele>768</ele>
					<time>2018-06-26T12:16:04Z</time>
				</trkpt>
				<trkpt lat="45.210600" lon="2.392350">
					<ele>768</ele>
					<time>2018-06-26T12:17:04Z</time>
				</trkpt>
				<trkpt lat="45.210630" lon="2.392230">
					<ele>768</ele>
					<time>2018-06-26T12:18:04Z</time>
				</trkpt>
				<trkpt lat="45.210650" lon="2.392160">
					<ele>768</ele>
					<time>2018-06-26T12:19:04Z</time>
				</trkpt>
				<trkpt lat="45.210670" lon="2.392070">
					<ele>768</ele>
					<time>2018-06-26T12:20:04Z</time>
				</trkpt>
				<trkpt lat="45.210700" lon="2.391980">
					<ele>768</ele>
					<time>2018-06-26T12:21:04Z</time>
				</trkpt>
				<trkpt lat="45.210720" lon="2.391930">
					<ele>768</ele>
					<time>2018-06-26T12:22:04Z</time>
				</trkpt>
				<trkpt lat="45.210770" lon="2.391810">
					<ele>768</ele>
					<time>2018-06-26T12:23:04Z</time>
				</trkpt>
				<trkpt lat="45.210850" lon="2.391620">
					<ele>768</ele>
					<time>2018-06-26T12:24:04Z</time>
				</trkpt>
				<trkpt lat="45.210920" lon="2.391450">
					<ele>767</ele>
					<time>2018-06-26T12:25:04Z</time>
				</trkpt>
				<trkpt lat="45.211020" lon="2.391230">
					<ele>766</ele>
					<time>2018-06-26T12:26:04Z</time>
				</trkpt>
				<trkpt lat="45.211110" lon="2.391080">
					<ele>766</ele>
					<time>2018-06-26T12:27:04Z</time>
				</trkpt>
				<trkpt lat="45.211230" lon="2.390840">
					<ele>765</ele>
					<time>2018-06-26T12:28:04Z</time>
				</trkpt>
				<trkpt lat="45.211380" lon="2.390500">
					<ele>765</ele>
					<time>2018-06-26T12:29:04Z</time>
				</trkpt>
				<trkpt lat="45.211490" lon="2.390270">
					<ele>764</ele>
					<time>2018-06-26T12:30:04Z</time>
				</trkpt>
				<trkpt lat="45.211600" lon="2.390000">
					<ele>764</ele>
					<time>2018-06-26T12:31:04Z</time>
				</trkpt>
				<trkpt lat="45.211690" lon="2.389760">
					<ele>764</ele>
					<time>2018-06-26T12:32:04Z</time>
				</trkpt>
				<trkpt lat="45.211760" lon="2.389570">
					<ele>764</ele>
					<time>2018-06-26T12:33:04Z</time>
				</trkpt>
				<trkpt lat="45.211790" lon="2.389430">
					<ele>764</ele>
					<time>2018-06-26T12:34:04Z</time>
				</trkpt>
				<trkpt lat="45.211830" lon="2.389260">
					<ele>763</ele>
					<time>2018-06-26T12:35:04Z</time>
				</trkpt>
				<trkpt lat="45.211880" lon="2.389000">
					<ele>763</ele>
					<time>2018-06-26T12:36:04Z</time>
				</trkpt>
				<trkpt lat="45.211930" lon="2.388680">
					<ele>762</ele>
					<time>2018-06-26T12:37:04Z</time>
				</trkpt>
				<trkpt lat="45.211990" lon="2.388230">
					<ele>761</ele>
					<time>2018-06-26T12:38:04Z</time>
				</trkpt>
				<trkpt lat="45.212060" lon="2.387700">
					<ele>760</ele>
					<time>2018-06-26T12:39:04Z</time>
				</trkpt>
				<trkpt lat="45.212130" lon="2.387210">
					<ele>760</ele>
					<time>2018-06-26T12:40:04Z</time>
				</trkpt>
				<trkpt lat="45.212200" lon="2.386650">
					<ele>760</ele>
					<time>2018-06-26T12:41:04Z</time>
				</trkpt>
				<trkpt lat="45.212250" lon="2.386240">
					<ele>760</ele>
					<time>2018-06-26T12:42:04Z</time>
				</trkpt>
				<trkpt lat="45.212330" lon="2.385640">
					<ele>759</ele>
					<time>2018-06-26T12:43:04Z</time>
				</trkpt>
				<trkpt lat="45.212420" lon="2.384930">
					<ele>758</ele>
					<time>2018-06-26T12:44:04Z</time>
				</trkpt>
				<trkpt lat="45.212490" lon="2.384400">
					<ele>759</ele>
					<time>2018-06-26T12:45:04Z</time>
				</trkpt>
				<trkpt lat="45.212580" lon="2.383750">
					<ele>758</ele>
					<time>2018-06-26T12:46:04Z</time>
				</trkpt>
				<trkpt lat="45.212640" lon="2.383250">
					<ele>757</ele>
					<time>2018-06-26T12:47:04Z</time>
				</trkpt>
				<trkpt lat="45.212710" lon="2.382800">
					<ele>756</ele>
					<time>2018-06-26T12:48:04Z</time>
				</trkpt>
				<trkpt lat="45.212800" lon="2.382030">
					<ele>755</ele>
					<time>2018-06-26T12:49:04Z</time>
				</trkpt>
				<trkpt lat="45.212910" lon="2.381220">
					<ele>755</ele>
					<time>2018-06-26T12:50:04Z</time>
				</trkpt>
				<trkpt lat="45.212990" lon="2.380540">
					<ele>755</ele>
					<time>2018-06-26T12:51:04Z</time>
				</trkpt>
				<trkpt lat="45.213060" lon="2.379810">
					<ele>755</ele>
					<time>2018-06-26T12:52:04Z</time>
				</trkpt>
				<trkpt lat="45.213090" lon="2.379460">
					<ele>755</ele>
					<time>2018-06-26T12:53:04Z</time>
				</trkpt>
				<trkpt lat="45.213140" lon="2.379070">
					<ele>756</ele>
					<time>2018-06-26T12:54:04Z</time>
				</trkpt>
				<trkpt lat="45.213180" lon="2.378740">
					<ele>756</ele>
					<time>2018-06-26T12:55:04Z</time>
				</trkpt>
				<trkpt lat="45.213200" lon="2.378480">
					<ele>756</ele>
					<time>2018-06-26T12:56:04Z</time>
				</trkpt>
				<trkpt lat="45.213220" lon="2.378210">
					<ele>756</ele>
					<time>2018-06-26T12:57:04Z</time>
				</trkpt>
				<trkpt lat="45.213220" lon="2.378080">
					<ele>755</ele>
					<time>2018-06-26T12:58:04Z</time>
				</trkpt>
				<trkpt lat="45.213210" lon="2.377950">
					<ele>755</ele>
					<time>2018-06-26T12:59:04Z</time>
				</trkpt>
				<trkpt lat="45.213190" lon="2.377750">
					<ele>754</ele>
					<time>2018-06-26T13:00:04Z</time>
				</trkpt>
				<trkpt lat="45.213160" lon="2.377490">
					<ele>753</ele>
					<time>2018-06-26T13:01:04Z</time>
				</trkpt>
				<trkpt lat="45.213120" lon="2.377160">
					<ele>751</ele>
					<time>2018-06-26T13:02:04Z</time>
				</trkpt>
				<trkpt lat="45.213080" lon="2.376830">
					<ele>750</ele>
					<time>2018-06-26T13:03:04Z</time>
				</trkpt>
				<trkpt lat="45.213040" lon="2.376500">
					<ele>749</ele>
					<time>2018-06-26T13:04:04Z</time>
				</trkpt>
				<trkpt lat="45.213000" lon="2.376190">
					<ele>749</ele>
					<time>2018-06-26T13:05:04Z</time>
				</trkpt>
				<trkpt lat="45.212970" lon="2.375940">
					<ele>748</ele>
					<time>2018-06-26T13:06:04Z</time>
				</trkpt>
				<trkpt lat="45.212930" lon="2.375730">
					<ele>748</ele>
					<time>2018-06-26T13:07:04Z</time>
				</trkpt>
				<trkpt lat="45.212900" lon="2.375580">
					<ele>747</ele>
					<time>2018-06-26T13:08:04Z</time>
				</trkpt>
				<trkpt lat="45.212860" lon="2.375450">
					<ele>747</ele>
					<time>2018-06-26T13:09:04Z</time>
				</trkpt>
				<trkpt lat="45.212860" lon="2.375440">
					<ele>747</ele>
					<time>2018-06-26T13:10:04Z</time>
				</trkpt>
				<trkpt lat="45.212850" lon="2.375420">
					<ele>746</ele>
					<time>2018-06-26T13:11:04Z</time>
				</trkpt>
				<trkpt lat="45.212820" lon="2.375350">
					<ele>746</ele>
					<time>2018-06-26T13:12:04Z</time>
				</trkpt>
				<trkpt lat="45.212740" lon="2.375170">
					<ele>746</ele>
					<time>2018-06-26T13:13:04Z</time>
				</trkpt>
				<trkpt lat="45.212630" lon="2.374900">
					<ele>745</ele>
					<time>2018-06-26T13:14:04Z</time>
				</trkpt>
				<trkpt lat="45.212570" lon="2.374750">
					<ele>744</ele>
					<time>2018-06-26T13:15:04Z</time>
				</trkpt>
				<trkpt lat="45.212480" lon="2.374540">
					<ele>743</ele>
					<time>2018-06-26T13:16:04Z</time>
				</trkpt>
				<trkpt lat="45.212410" lon="2.374390">
					<ele>742</ele>
					<time>2018-06-26T13:17:04Z</time>
				</trkpt>
				<trkpt lat="45.212340" lon="2.374200">
					<ele>742</ele>
					<time>2018-06-26T13:18:04Z</time>
				</trkpt>
				<trkpt lat="45.212260" lon="2.373940">
					<ele>743</ele>
					<time>2018-06-26T13:19:04Z</time>
				</trkpt>
				<trkpt lat="45.212230" lon="2.373860">
					<ele>743</ele>
					<time>2018-06-26T13:20:04Z</time>
				</trkpt>
				<trkpt lat="45.212220" lon="2.373740">
					<ele>743</ele>
					<time>2018-06-26T13:21:04Z</time>
				</trkpt>
				<trkpt lat="45.212210" lon="2.373690">
					<ele>743</ele>
					<time>2018-06-26T13:22:04Z</time>
				</trkpt>
				<trkpt lat="45.212210" lon="2.373520">
					<ele>744</ele>
					<time>2018-06-26T13:23:04Z</time>
				</trkpt>
				<trkpt lat="45.212220" lon="2.373320">
					<ele>744</ele>
					<time>2018-06-26T13:24:04Z</time>
				</trkpt>
				<trkpt lat="45.212240" lon="2.373040">
					<ele>744</ele>
					<time>2018-06-26T13:25:04Z</time>
				</trkpt>
				<trkpt lat="45.212260" lon="2.372810">
					<ele>745</ele>
					<time>2018-06-26T13:26:04Z</time>
				</trkpt>
				<trkpt lat="45.212280" lon="2.372440">
					<ele>745</ele>
					<time>2018-06-26T13:27:04Z</time>
				</trkpt>
				<trkpt lat="45.212280" lon="2.372210">
					<ele>745</ele>
					<time>2018-06-26T13:28:04Z</time>
				</trkpt>
				<trkpt lat="45.212270" lon="2.372030">
					<ele>745</ele>
					<time>2018-06-26T13:29:04Z</time>
				</trkpt>
				<trkpt lat="45.212250" lon="2.371880">
					<ele>745</ele>
					<time>2018-06-26T13:30:04Z</time>
				</trkpt>
				<trkpt lat="45.212220" lon="2.371700">
					<ele>745</ele>
					<time>2018-06-26T13:31:04Z</time>
				</trkpt>
				<trkpt lat="45.212140" lon="2.371390">
					<ele>744</ele>
					<time>2018-06-26T13:32:04Z</time>
				</trkpt>
				<trkpt lat="45.212010" lon="2.370900">
					<ele>743</ele>
					<time>2018-06-26T13:33:04Z</time>
				</trkpt>
				<trkpt lat="45.211910" lon="2.370500">
					<ele>743</ele>
					<time>2018-06-26T13:34:04Z</time>
				</trkpt>
				<trkpt lat="45.211840" lon="2.370190">
					<ele>744</ele>
					<time>2018-06-26T13:35:04Z</time>
				</trkpt>
				<trkpt lat="45.211830" lon="2.370070">
					<ele>744</ele>
					<time>2018-06-26T13:36:04Z</time>
				</trkpt>
				<trkpt lat="45.211830" lon="2.369950">
					<ele>744</ele>
					<time>2018-06-26T13:37:04Z</time>
				</trkpt>
				<trkpt lat="45.211840" lon="2.369850">
					<ele>743</ele>
					<time>2018-06-26T13:38:04Z</time>
				</trkpt>
				<trkpt lat="45.211850" lon="2.369750">
					<ele>743</ele>
					<time>2018-06-26T13:39:04Z</time>
				</trkpt>
				<trkpt lat="45.211880" lon="2.369640">
					<ele>743</ele>
					<time>2018-06-26T13:40:04Z</time>
				</trkpt>
				<trkpt lat="45.211990" lon="2.369200">
					<ele>741</ele>
					<time>2018-06-26T13:41:04Z</time>
				</trkpt>
				<trkpt lat="45.212120" lon="2.368640">
					<ele>742</ele>
					<time>2018-06-26T13:42:04Z</time>
				</trkpt>
				<trkpt lat="45.212210" lon="2.368290">
					<ele>742</ele>
					<time>2018-06-26T13:43:04Z</time>
				</trkpt>
				<trkpt lat="45.212300" lon="2.367990">
					<ele>742</ele>
					<time>2018-06-26T13:44:04Z</time>
				</trkpt>
				<trkpt lat="45.212430" lon="2.367650">
					<ele>742</ele>
					<time>2018-06-26T13:45:04Z</time>
				</trkpt>
				<trkpt lat="45.212520" lon="2.367430">
					<ele>742</ele>
					<time>2018-06-26T13:46:04Z</time>
				</trkpt>
				<trkpt lat="45.212560" lon="2.367310">
					<ele>742</ele>
					<time>2018-06-26T13:47:04Z</time>
				</trkpt>
				<trkpt lat="45.212610" lon="2.367170">
					<ele>742</ele>
					<time>2018-06-26T13:48:04Z</time>
				</trkpt>
				<trkpt lat="45.212650" lon="2.367020">
					<ele>742</ele>
					<time>2018-06-26T13:49:04Z</time>
				</trkpt>
				<trkpt lat="45.212700" lon="2.366840">
					<ele>741</ele>
					<time>2018-06-26T13:50:04Z</time>
				</trkpt>
				<trkpt lat="45.212800" lon="2.366460">
					<ele>741</ele>
					<time>2018-06-26T13:51:04Z</time>
				</trkpt>
				<trkpt lat="45.212960" lon="2.365790">
					<ele>741</ele>
					<time>2018-06-26T13:52:04Z</time>
				</trkpt>
				<trkpt lat="45.213180" lon="2.364940">
					<ele>740</ele>
					<time>2018-06-26T13:53:04Z</time>
				</trkpt>
				<trkpt lat="45.213330" lon="2.364360">
					<ele>740</ele>
					<time>2018-06-26T13:54:04Z</time>
				</trkpt>
				<trkpt lat="45.213400" lon="2.363970">
					<ele>740</ele>
					<time>2018-06-26T13:55:04Z</time>
				</trkpt>
				<trkpt lat="45.213540" lon="2.363520">
					<ele>740</ele>
					<time>2018-06-26T13:56:04Z</time>
				</trkpt>
				<trkpt lat="45.213620" lon="2.363230">
					<ele>740</ele>
					<time>2018-06-26T13:57:04Z</time>
				</trkpt>
				<trkpt lat="45.213680" lon="2.362990">
					<ele>740</ele>
					<time>2018-06-26T13:58:04Z</time>
				</trkpt>
				<trkpt lat="45.213700" lon="2.362920">
					<ele>740</ele>
					<time>2018-06-26T13:59:04Z</time>
				</trkpt>
				<trkpt lat="45.213770" lon="2.362640">
					<ele>741</ele>
					<time>2018-06-26T14:00:04Z</time>
				</trkpt>
				<trkpt lat="45.213870" lon="2.362290">
					<ele>741</ele>
					<time>2018-06-26T14:01:04Z</time>
				</trkpt>
				<trkpt lat="45.213970" lon="2.361980">
					<ele>742</ele>
					<time>2018-06-26T14:02:04Z</time>
				</trkpt>
				<trkpt lat="45.214070" lon="2.361660">
					<ele>742</ele>
					<time>2018-06-26T14:03:04Z</time>
				</trkpt>
				<trkpt lat="45.214180" lon="2.361350">
					<ele>743</ele>
					<time>2018-06-26T14:04:04Z</time>
				</trkpt>
				<trkpt lat="45.214270" lon="2.361090">
					<ele>743</ele>
					<time>2018-06-26T14:05:04Z</time>
				</trkpt>
				<trkpt lat="45.214400" lon="2.360690">
					<ele>744</ele>
					<time>2018-06-26T14:06:04Z</time>
				</trkpt>
				<trkpt lat="45.214520" lon="2.360330">
					<ele>744</ele>
					<time>2018-06-26T14:07:04Z</time>
				</trkpt>
				<trkpt lat="45.214620" lon="2.360010">
					<ele>744</ele>
					<time>2018-06-26T14:08:04Z</time>
				</trkpt>
				<trkpt lat="45.214690" lon="2.359750">
					<ele>744</ele>
					<time>2018-06-26T14:09:04Z</time>
				</trkpt>
				<trkpt lat="45.214800" lon="2.359230">
					<ele>744</ele>
					<time>2018-06-26T14:10:04Z</time>
				</trkpt>
				<trkpt lat="45.214810" lon="2.359180">
					<ele>744</ele>
					<time>2018-06-26T14:11:04Z</time>
				</trkpt>
				<trkpt lat="45.214960" lon="2.358490">
					<ele>744</ele>
					<time>2018-06-26T14:12:04Z</time>
				</trkpt>
				<trkpt lat="45.215130" lon="2.357740">
					<ele>742</ele>
					<time>2018-06-26T14:13:04Z</time>
				</trkpt>
				<trkpt lat="45.215310" lon="2.356940">
					<ele>741</ele>
					<time>2018-06-26T14:14:04Z</time>
				</trkpt>
				<trkpt lat="45.215470" lon="2.356240">
					<ele>742</ele>
					<time>2018-06-26T14:15:04Z</time>
				</trkpt>
				<trkpt lat="45.215640" lon="2.355580">
					<ele>744</ele>
					<time>2018-06-26T14:16:04Z</time>
				</trkpt>
				<trkpt lat="45.215730" lon="2.355180">
					<ele>744</ele>
					<time>2018-06-26T14:17:04Z</time>
				</trkpt>
				<trkpt lat="45.215760" lon="2.354990">
					<ele>745</ele>
					<time>2018-06-26T14:18:04Z</time>
				</trkpt>
				<trkpt lat="45.215760" lon="2.354880">
					<ele>745</ele>
					<time>2018-06-26T14:19:04Z</time>
				</trkpt>
				<trkpt lat="45.215760" lon="2.354820">
					<ele>744</ele>
					<time>2018-06-26T14:20:04Z</time>
				</trkpt>
				<trkpt lat="45.215750" lon="2.354790">
					<ele>744</ele>
					<time>2018-06-26T14:21:04Z</time>
				</trkpt>
				<trkpt lat="45.215740" lon="2.354750">
					<ele>744</ele>
					<time>2018-06-26T14:22:04Z</time>
				</trkpt>
				<trkpt lat="45.215720" lon="2.354690">
					<ele>744</ele>
					<time>2018-06-26T14:23:04Z</time>
				</trkpt>
				<trkpt lat="45.215680" lon="2.354620">
					<ele>744</ele>
					<time>2018-06-26T14:24:04Z</time>
				</trkpt>
				<trkpt lat="45.215610" lon="2.354550">
					<ele>744</ele>
					<time>2018-06-26T14:25:04Z</time>
				</trkpt>
				<trkpt lat="45.215570" lon="2.354540">
					<ele>744</ele>
					<time>2018-06-26T14:26:04Z</time>
				</trkpt>
				<trkpt lat="45.215460" lon="2.354490">
					<ele>744</ele>
					<time>2018-06-26T14:27:04Z</time>
				</trkpt>
				<trkpt lat="45.215430" lon="2.354480">
					<ele>744</ele>
					<time>2018-06-26T14:28:04Z</time>
				</trkpt>
				<trkpt lat="45.215340" lon="2.354450">
					<ele>744</ele>
					<time>2018-06-26T14:29:04Z</time>
				</trkpt>
				<trkpt lat="45.215190" lon="2.354380">
					<ele>744</ele>
					<time>2018-06-26T14:30:04Z</time>
				</trkpt>
				<trkpt lat="45.215080" lon="2.354320">
					<ele>745</ele>
					<time>2018-06-26T14:31:04Z</time>
				</trkpt>
				<trkpt lat="45.215010" lon="2.354240">
					<ele>745</ele>
					<time>2018-06-26T14:32:04Z</time>
				</trkpt>
				<trkpt lat="45.214950" lon="2.354160">
					<ele>745</ele>
					<time>2018-06-26T14:33:04Z</time>
				</trkpt>
				<trkpt lat="45.214820" lon="2.353910">
					<ele>744</ele>
					<time>2018-06-26T14:34:04Z</time>
				</trkpt>
				<trkpt lat="45.214690" lon="2.353660">
					<ele>744</ele>
					<time>2018-06-26T14:35:04Z</time>
				</trkpt>
				<trkpt lat="45.214640" lon="2.353560">
					<ele>744</ele>
					<time>2018-06-26T14:36:04Z</time>
				</trkpt>
				<trkpt lat="45.214560" lon="2.353400">
					<ele>743</ele>
					<time>2018-06-26T14:37:04Z</time>
				</trkpt>
				<trkpt lat="45.214440" lon="2.353140">
					<ele>743</ele>
					<time>2018-06-26T14:38:04Z</time>
				</trkpt>
				<trkpt lat="45.214280" lon="2.352810">
					<ele>742</ele>
					<time>2018-06-26T14:39:04Z</time>
				</trkpt>
				<trkpt lat="45.214130" lon="2.352500">
					<ele>742</ele>
					<time>2018-06-26T14:40:04Z</time>
				</trkpt>
				<trkpt lat="45.213940" lon="2.352090">
					<ele>741</ele>
					<time>2018-06-26T14:41:04Z</time>
				</trkpt>
				<trkpt lat="45.213790" lon="2.351770">
					<ele>741</ele>
					<time>2018-06-26T14:42:04Z</time>
				</trkpt>
				<trkpt lat="45.213700" lon="2.351590">
					<ele>741</ele>
					<time>2018-06-26T14:43:04Z</time>
				</trkpt>
				<trkpt lat="45.213610" lon="2.351420">
					<ele>740</ele>
					<time>2018-06-26T14:44:04Z</time>
				</trkpt>
				<trkpt lat="45.213430" lon="2.351120">
					<ele>738</ele>
					<time>2018-06-26T14:45:04Z</time>
				</trkpt>
				<trkpt lat="45.213420" lon="2.351090">
					<ele>738</ele>
					<time>2018-06-26T14:46:04Z</time>
				</trkpt>
				<trkpt lat="45.213280" lon="2.350850">
					<ele>737</ele>
					<time>2018-06-26T14:47:04Z</time>
				</trkpt>
				<trkpt lat="45.213260" lon="2.350820">
					<ele>737</ele>
					<time>2018-06-26T14:48:04Z</time>
				</trkpt>
				<trkpt lat="45.213200" lon="2.350710">
					<ele>737</ele>
					<time>2018-06-26T14:49:04Z</time>
				</trkpt>
				<trkpt lat="45.213140" lon="2.350610">
					<ele>737</ele>
					<time>2018-06-26T14:50:04Z</time>
				</trkpt>
				<trkpt lat="45.213000" lon="2.350390">
					<ele>737</ele>
					<time>2018-06-26T14:51:04Z</time>
				</trkpt>
				<trkpt lat="45.212910" lon="2.350250">
					<ele>737</ele>
					<time>2018-06-26T14:52:04Z</time>
				</trkpt>
				<trkpt lat="45.212860" lon="2.350180">
					<ele>737</ele>
					<time>2018-06-26T14:53:04Z</time>
				</trkpt>
				<trkpt lat="45.212830" lon="2.350080">
					<ele>737</ele>
					<time>2018-06-26T14:54:04Z</time>
				</trkpt>
				<trkpt lat="45.212790" lon="2.350050">
					<ele>737</ele>
					<time>2018-06-26T14:55:04Z</time>
				</trkpt>
				<trkpt lat="45.212760" lon="2.350030">
					<ele>737</ele>
					<time>2018-06-26T14:56:04Z</time>
				</trkpt>
				<trkpt lat="45.212690" lon="2.350000">
					<ele>737</ele>
					<time>2018-06-26T14:57:04Z</time>
				</trkpt>
				<trkpt lat="45.212630" lon="2.349990">
					<ele>738</ele>
					<time>2018-06-26T14:58:04Z</time>
				</trkpt>
				<trkpt lat="45.212630" lon="2.349990">
					<ele>738</ele>
					<time>2018-06-26T14:59:04Z</time>
				</trkpt>
				<trkpt lat="45.212630" lon="2.349980">
					<ele>738</ele>
					<time>2018-06-26T15:00:04Z</time>
				</trkpt>
				<trkpt lat="45.212620" lon="2.349970">
					<ele>738</ele>
					<time>2018-06-26T15:01:04Z</time>
				</trkpt>
				<trkpt lat="45.212620" lon="2.349950">
					<ele>737</ele>
					<time>2018-06-26T15:02:04Z</time>
				</trkpt>
				<trkpt lat="45.212610" lon="2.349940">
					<ele>738</ele>
					<time>2018-06-26T15:03:04Z</time>
				</trkpt>
				<trkpt lat="45.212600" lon="2.349930">
					<ele>738</ele>
					<time>2018-06-26T15:04:04Z</time>
				</trkpt>
				<trkpt lat="45.212600" lon="2.349920">
					<ele>738</ele>
					<time>2018-06-26T15:05:04Z</time>
				</trkpt>
				<trkpt lat="45.212590" lon="2.349910">
					<ele>738</ele>
					<time>2018-06-26T15:06:04Z</time>
				</trkpt>
				<trkpt lat="45.212580" lon="2.349900">
					<ele>738</ele>
					<time>2018-06-26T15:07:04Z</time>
				</trkpt>
				<trkpt lat="45.212570" lon="2.349890">
					<ele>738</ele>
					<time>2018-06-26T15:08:04Z</time>
				</trkpt>
				<trkpt lat="45.212550" lon="2.349870">
					<ele>738</ele>
					<time>2018-06-26T15:09:04Z</time>
				</trkpt>
				<trkpt lat="45.212530" lon="2.349730">
					<ele>738</ele>
					<time>2018-06-26T15:10:04Z</time>
				</trkpt>
				<trkpt lat="45.212530" lon="2.349660">
					<ele>737</ele>
					<time>2018-06-26T15:11:04Z</time>
				</trkpt>
				<trkpt lat="45.212510" lon="2.349440">
					<ele>737</ele>
					<time>2018-06-26T15:12:04Z</time>
				</trkpt>
				<trkpt lat="45.212520" lon="2.349340">
					<ele>737</ele>
					<time>2018-06-26T15:13:04Z</time>
				</trkpt>
				<trkpt lat="45.212540" lon="2.349220">
					<ele>737</ele>
					<time>2018-06-26T15:14:04Z</time>
				</trkpt>
				<trkpt lat="45.212560" lon="2.349080">
					<ele>737</ele>
					<time>2018-06-26T15:15:04Z</time>
				</trkpt>
				<trkpt lat="45.212590" lon="2.348950">
					<ele>737</ele>
					<time>2018-06-26T15:16:04Z</time>
				</trkpt>
				<trkpt lat="45.212630" lon="2.348770">
					<ele>736</ele>
					<time>2018-06-26T15:17:04Z</time>
				</trkpt>
				<trkpt lat="45.212680" lon="2.348600">
					<ele>736</ele>
					<time>2018-06-26T15:18:04Z</time>
				</trkpt>
				<trkpt lat="45.212760" lon="2.348380">
					<ele>736</ele>
					<time>2018-06-26T15:19:04Z</time>
				</trkpt>
				<trkpt lat="45.212900" lon="2.348020">
					<ele>736</ele>
					<time>2018-06-26T15:20:04Z</time>
				</trkpt>
				<trkpt lat="45.213100" lon="2.347480">
					<ele>738</ele>
					<time>2018-06-26T15:21:04Z</time>
				</trkpt>
				<trkpt lat="45.213220" lon="2.347190">
					<ele>738</ele>
					<time>2018-06-26T15:22:04Z</time>
				</trkpt>
				<trkpt lat="45.213450" lon="2.346640">
					<ele>739</ele>
					<time>2018-06-26T15:23:04Z</time>
				</trkpt>
				<trkpt lat="45.213450" lon="2.346650">
					<ele>739</ele>
					<time>2018-06-26T15:24:04Z</time>
				</trkpt>
				<trkpt lat="45.213460" lon="2.346660">
					<ele>739</ele>
					<time>2018-06-26T15:25:04Z</time>
				</trkpt>
				<trkpt lat="45.213470" lon="2.346660">
					<ele>739</ele>
					<time>2018-06-26T15:26:04Z</time>
				</trkpt>
				<trkpt lat="45.213480" lon="2.346670">
					<ele>739</ele>
					<time>2018-06-26T15:27:04Z</time>
				</trkpt>
				<trkpt lat="45.213490" lon="2.346670">
					<ele>739</ele>
					<time>2018-06-26T15:28:04Z</time>
				</trkpt>
				<trkpt lat="45.213500" lon="2.346670">
					<ele>739</ele>
					<time>2018-06-26T15:29:04Z</time>
				</trkpt>
				<trkpt lat="45.213510" lon="2.346670">
					<ele>739</ele>
					<time>2018-06-26T15:30:04Z</time>
				</trkpt>
				<trkpt lat="45.213520" lon="2.346680">
					<ele>739</ele>
					<time>2018-06-26T15:31:04Z</time>
				</trkpt>
				<trkpt lat="45.213530" lon="2.346680">
					<ele>739</ele>
					<time>2018-06-26T15:32:04Z</time>
				</trkpt>
				<trkpt lat="45.213540" lon="2.346670">
					<ele>739</ele>
					<time>2018-06-26T15:33:04Z</time>
				</trkpt>
				<trkpt lat="45.213550" lon="2.346670">
					<ele>739</ele>
					<time>2018-06-26T15:34:04Z</time>
				</trkpt>
				<trkpt lat="45.213560" lon="2.346670">
					<ele>739</ele>
					<time>2018-06-26T15:35:04Z</time>
				</trkpt>
				<trkpt lat="45.213570" lon="2.346660">
					<ele>739</ele>
					<time>2018-06-26T15:36:04Z</time>
				</trkpt>
				<trkpt lat="45.213580" lon="2.346660">
					<ele>739</ele>
					<time>2018-06-26T15:37:04Z</time>
				</trkpt>
				<trkpt lat="45.213590" lon="2.346650">
					<ele>739</ele>
					<time>2018-06-26T15:38:04Z</time>
				</trkpt>
				<trkpt lat="45.213600" lon="2.346650">
					<ele>739</ele>
					<time>2018-06-26T15:39:04Z</time>
				</trkpt>
				<trkpt lat="45.213610" lon="2.346640">
					<ele>739</ele>
					<time>2018-06-26T15:40:04Z</time>
				</trkpt>
				<trkpt lat="45.213620" lon="2.346630">
					<ele>739</ele>
					<time>2018-06-26T15:41:04Z</time>
				</trkpt>
				<trkpt lat="45.213630" lon="2.346620">
					<ele>739</ele>
					<time>2018-06-26T15:42:04Z</time>
				</trkpt>
				<trkpt lat="45.213630" lon="2.346610">
					<ele>739</ele>
					<time>2018-06-26T15:43:04Z</time>
				</trkpt>
				<trkpt lat="45.213640" lon="2.346600">
					<ele>738</ele>
					<time>2018-06-26T15:44:04Z</time>
				</trkpt>
				<trkpt lat="45.213650" lon="2.346590">
					<ele>738</ele>
					<time>2018-06-26T15:45:04Z</time>
				</trkpt>
				<trkpt lat="45.213650" lon="2.346580">
					<ele>738</ele>
					<time>2018-06-26T15:46:04Z</time>
				</trkpt>
				<trkpt lat="45.213660" lon="2.346560">
					<ele>738</ele>
					<time>2018-06-26T15:47:04Z</time>
				</trkpt>
				<trkpt lat="45.213670" lon="2.346540">
					<ele>738</ele>
					<time>2018-06-26T15:48:04Z</time>
				</trkpt>
				<trkpt lat="45.213670" lon="2.346530">
					<ele>738</ele>
					<time>2018-06-26T15:49:04Z</time>
				</trkpt>
				<trkpt lat="45.213670" lon="2.346520">
					<ele>738</ele>
					<time>2018-06-26T15:50:04Z</time>
				</trkpt>
				<trkpt lat="45.213680" lon="2.346500">
					<ele>738</ele>
					<time>2018-06-26T15:51:04Z</time>
				</trkpt>
				<trkpt lat="45.213680" lon="2.346490">
					<ele>738</ele>
					<time>2018-06-26T15:52:04Z</time>
				</trkpt>
				<trkpt lat="45.213680" lon="2.346470">
					<ele>738</ele>
					<time>2018-06-26T15:53:04Z</time>
				</trkpt>
				<trkpt lat="45.213680" lon="2.346460">
					<ele>738</ele>
					<time>2018-06-26T15:54:04Z</time>
				</trkpt>
				<trkpt lat="45.213680" lon="2.346440">
					<ele>738</ele>
					<time>2018-06-26T15:55:04Z</time>
				</trkpt>
				<trkpt lat="45.213680" lon="2.346430">
					<ele>738</ele>
					<time>2018-06-26T15:56:04Z</time>
				</trkpt>
				<trkpt lat="45.213680" lon="2.346420">
					<ele>738</ele>
					<time>2018-06-26T15:57:04Z</time>
				</trkpt>
				<trkpt lat="45.213670" lon="2.346400">
					<ele>738</ele>
					<time>2018-06-26T15:58:04Z</time>
				</trkpt>
				<trkpt lat="45.213670" lon="2.346390">
					<ele>738</ele>
					<time>2018-06-26T15:59:04Z</time>
				</trkpt>
				<trkpt lat="45.213670" lon="2.346370">
					<ele>738</ele>
					<time>2018-06-26T16:00:04Z</time>
				</trkpt>
				<trkpt lat="45.213660" lon="2.346360">
					<ele>738</ele>
					<time>2018-06-26T16:01:04Z</time>
				</trkpt>
				<trkpt lat="45.213660" lon="2.346350">
					<ele>738</ele>
					<time>2018-06-26T16:02:04Z</time>
				</trkpt>
				<trkpt lat="45.213650" lon="2.346340">
					<ele>738</ele>
					<time>2018-06-26T16:03:04Z</time>
				</trkpt>
				<trkpt lat="45.213640" lon="2.346320">
					<ele>738</ele>
					<time>2018-06-26T16:04:04Z</time>
				</trkpt>
				<trkpt lat="45.213640" lon="2.346310">
					<ele>738</ele>
					<time>2018-06-26T16:05:04Z</time>
				</trkpt>
				<trkpt lat="45.213630" lon="2.346300">
					<ele>738</ele>
					<time>2018-06-26T16:06:04Z</time>
				</trkpt>
				<trkpt lat="45.213620" lon="2.346290">
					<ele>738</ele>
					<time>2018-06-26T16:07:04Z</time>
				</trkpt>
				<trkpt lat="45.213810" lon="2.345930">
					<ele>737</ele>
					<time>2018-06-26T16:08:04Z</time>
				</trkpt>
				<trkpt lat="45.214200" lon="2.345180">
					<ele>734</ele>
					<time>2018-06-26T16:09:04Z</time>
				</trkpt>
				<trkpt lat="45.214760" lon="2.344060">
					<ele>732</ele>
					<time>2018-06-26T16:10:04Z</time>
				</trkpt>
				<trkpt lat="45.214800" lon="2.344000">
					<ele>732</ele>
					<time>2018-06-26T16:11:04Z</time>
				</trkpt>
				<trkpt lat="45.214970" lon="2.343650">
					<ele>733</ele>
					<time>2018-06-26T16:12:04Z</time>
				</trkpt>
				<trkpt lat="45.215020" lon="2.343570">
					<ele>733</ele>
					<time>2018-06-26T16:13:04Z</time>
				</trkpt>
				<trkpt lat="45.215020" lon="2.343570">
					<ele>733</ele>
					<time>2018-06-26T16:14:04Z</time>
				</trkpt>
				<trkpt lat="45.214880" lon="2.343410">
					<ele>733</ele>
					<time>2018-06-26T16:15:04Z</time>
				</trkpt>
				<trkpt lat="45.214640" lon="2.343100">
					<ele>731</ele>
					<time>2018-06-26T16:16:04Z</time>
				</trkpt>
				<trkpt lat="45.214530" lon="2.342980">
					<ele>731</ele>
					<time>2018-06-26T16:17:04Z</time>
				</trkpt>
				<trkpt lat="45.214440" lon="2.342860">
					<ele>730</ele>
					<time>2018-06-26T16:18:04Z</time>
				</trkpt>
				<trkpt lat="45.214360" lon="2.342670">
					<ele>730</ele>
					<time>2018-06-26T16:19:04Z</time>
				</trkpt>
				<trkpt lat="45.214280" lon="2.342480">
					<ele>729</ele>
					<time>2018-06-26T16:20:04Z</time>
				</trkpt>
				<trkpt lat="45.214210" lon="2.342290">
					<ele>728</ele>
					<time>2018-06-26T16:21:04Z</time>
				</trkpt>
				<trkpt lat="45.214150" lon="2.342150">
					<ele>727</ele>
					<time>2018-06-26T16:22:04Z</time>
				</trkpt>
				<trkpt lat="45.214100" lon="2.342050">
					<ele>727</ele>
					<time>2018-06-26T16:23:04Z</time>
				</trkpt>
				<trkpt lat="45.214030" lon="2.341950">
					<ele>727</ele>
					<time>2018-06-26T16:24:04Z</time>
				</trkpt>
				<trkpt lat="45.213930" lon="2.341840">
					<ele>727</ele>
					<time>2018-06-26T16:25:04Z</time>
				</trkpt>
				<trkpt lat="45.213850" lon="2.341770">
					<ele>726</ele>
					<time>2018-06-26T16:26:04Z</time>
				</trkpt>
				<trkpt lat="45.213740" lon="2.341660">
					<ele>727</ele>
					<time>2018-06-26T16:27:04Z</time>
				</trkpt>
				<trkpt lat="45.213370" lon="2.341240">
					<ele>728</ele>
					<time>2018-06-26T16:28:04Z</time>
				</trkpt>
				<trkpt lat="45.212900" lon="2.340730">
					<ele>727</ele>
					<time>2018-06-26T16:29:04Z</time>
				</trkpt>
				<trkpt lat="45.212660" lon="2.340470">
					<ele>727</ele>
					<time>2018-06-26T16:30:04Z</time>
				</trkpt>
				<trkpt lat="45.212410" lon="2.340180">
					<ele>728</ele>
					<time>2018-06-26T16:31:04Z</time>
				</trkpt>
				<trkpt lat="45.212230" lon="2.339990">
					<ele>727</ele>
					<time>2018-06-26T16:32:04Z</time>
				</trkpt>
				<trkpt lat="45.212220" lon="2.339990">
					<ele>727</ele>
					<time>2018-06-26T16:33:04Z</time>
				</trkpt>
				<trkpt lat="45.212020" lon="2.339770">
					<ele>726</ele>
					<time>2018-06-26T16:34:04Z</time>
				</trkpt>
				<trkpt lat="45.211850" lon="2.339590">
					<ele>725</ele>
					<time>2018-06-26T16:35:04Z</time>
				</trkpt>
				<trkpt lat="45.211720" lon="2.339460">
					<ele>725</ele>
					<time>2018-06-26T16:36:04Z</time>
				</trkpt>
				<trkpt lat="45.211610" lon="2.339370">
					<ele>725</ele>
					<time>2018-06-26T16:37:04Z</time>
				</trkpt>
				<trkpt lat="45.211580" lon="2.339360">
					<ele>725</ele>
					<time>2018-06-26T16:38:04Z</time>
				</trkpt>
				<trkpt lat="45.211310" lon="2.339290">
					<ele>724</ele>
					<time>2018-06-26T16:39:04Z</time>
				</trkpt>
				<trkpt lat="45.210780" lon="2.339150">
					<ele>723</ele>
					<time>2018-06-26T16:40:04Z</time>
				</trkpt>
				<trkpt lat="45.210480" lon="2.339070">
					<ele>723</ele>
					<time>2018-06-26T16:41:04Z</time>
				</trkpt>
				<trkpt lat="45.210360" lon="2.339030">
					<ele>723</ele>
					<time>2018-06-26T16:42:04Z</time>
				</trkpt>
				<trkpt lat="45.210100" lon="2.338960">
					<ele>723</ele>
					<time>2018-06-26T16:43:04Z</time>
				</trkpt>
				<trkpt lat="45.209980" lon="2.338930">
					<ele>723</ele>
					<time>2018-06-26T16:44:04Z</time>
				</trkpt>
				<trkpt lat="45.209880" lon="2.338900">
					<ele>723</ele>
					<time>2018-06-26T16:45:04Z</time>
				</trkpt>
				<trkpt lat="45.209760" lon="2.338850">
					<ele>724</ele>
					<time>2018-06-26T16:46:04Z</time>
				</trkpt>
				<trkpt lat="45.209630" lon="2.338800">
					<ele>724</ele>
					<time>2018-06-26T16:47:04Z</time>
				</trkpt>
				<trkpt lat="45.209490" lon="2.338710">
					<ele>724</ele>
					<time>2018-06-26T16:48:04Z</time>
				</trkpt>
				<trkpt lat="45.209380" lon="2.338610">
					<ele>725</ele>
					<time>2018-06-26T16:49:04Z</time>
				</trkpt>
				<trkpt lat="45.209260" lon="2.338460">
					<ele>725</ele>
					<time>2018-06-26T16:50:04Z</time>
				</trkpt>
				<trkpt lat="45.209110" lon="2.338250">
					<ele>726</ele>
					<time>2018-06-26T16:51:04Z</time>
				</trkpt>
				<trkpt lat="45.208970" lon="2.338030">
					<ele>726</ele>
					<time>2018-06-26T16:52:04Z</time>
				</trkpt>
				<trkpt lat="45.208780" lon="2.337710">
					<ele>727</ele>
					<time>2018-06-26T16:53:04Z</time>
				</trkpt>
				<trkpt lat="45.208620" lon="2.337440">
					<ele>728</ele>
					<time>2018-06-26T16:54:04Z</time>
				</trkpt>
				<trkpt lat="45.208590" lon="2.337400">
					<ele>728</ele>
					<time>2018-06-26T16:55:04Z</time>
				</trkpt>
				<trkpt lat="45.208540" lon="2.337320">
					<ele>728</ele>
					<time>2018-06-26T16:56:04Z</time>
				</trkpt>
				<trkpt lat="45.208430" lon="2.337130">
					<ele>729</ele>
					<time>2018-06-26T16:57:04Z</time>
				</trkpt>
				<trkpt lat="45.208220" lon="2.336790">
					<ele>729</ele>
					<time>2018-06-26T16:58:04Z</time>
				</trkpt>
				<trkpt lat="45.208050" lon="2.336510">
					<ele>728</ele>
					<time>2018-06-26T16:59:04Z</time>
				</trkpt>
				<trkpt lat="45.207830" lon="2.336150">
					<ele>727</ele>
					<time>2018-06-26T17:00:04Z</time>
				</trkpt>
				<trkpt lat="45.207670" lon="2.335870">
					<ele>726</ele>
					<time>2018-06-26T17:01:04Z</time>
				</trkpt>
				<trkpt lat="45.207600" lon="2.335740">
					<ele>726</ele>
					<time>2018-06-26T17:02:04Z</time>
				</trkpt>
				<trkpt lat="45.207400" lon="2.335390">
					<ele>726</ele>
					<time>2018-06-26T17:03:04Z</time>
				</trkpt>
				<trkpt lat="45.207300" lon="2.335200">
					<ele>726</ele>
					<time>2018-06-26T17:04:04Z</time>
				</trkpt>
				<trkpt lat="45.207210" lon="2.335010">
					<ele>725</ele>
					<time>2018-06-26T17:05:04Z</time>
				</trkpt>
				<trkpt lat="45.207120" lon="2.334740">
					<ele>726</ele>
					<time>2018-06-26T17:06:04Z</time>
				</trkpt>
				<trkpt lat="45.207060" lon="2.334510">
					<ele>726</ele>
					<time>2018-06-26T17:07:04Z</time>
				</trkpt>
				<trkpt lat="45.207020" lon="2.334310">
					<ele>725</ele>
					<time>2018-06-26T17:08:04Z</time>
				</trkpt>
				<trkpt lat="45.207000" lon="2.334190">
					<ele>725</ele>
					<time>2018-06-26T17:09:04Z</time>
				</trkpt>
				<trkpt lat="45.207000" lon="2.334060">
					<ele>725</ele>
					<time>2018-06-26T17:10:04Z</time>
				</trkpt>
				<trkpt lat="45.207020" lon="2.333930">
					<ele>724</ele>
					<time>2018-06-26T17:11:04Z</time>
				</trkpt>
				<trkpt lat="45.207070" lon="2.333770">
					<ele>723</ele>
					<time>2018-06-26T17:12:04Z</time>
				</trkpt>
				<trkpt lat="45.207070" lon="2.333770">
					<ele>723</ele>
					<time>2018-06-26T17:13:04Z</time>
				</trkpt>
				<trkpt lat="45.207200" lon="2.333860">
					<ele>723</ele>
					<time>2018-06-26T17:14:04Z</time>
				</trkpt>
				<trkpt lat="45.207280" lon="2.333900">
					<ele>723</ele>
					<time>2018-06-26T17:15:04Z</time>
				</trkpt>
				<trkpt lat="45.207340" lon="2.333930">
					<ele>723</ele>
					<time>2018-06-26T17:16:04Z</time>
				</trkpt>
				<trkpt lat="45.207420" lon="2.333950">
					<ele>722</ele>
					<time>2018-06-26T17:17:04Z</time>
				</trkpt>
				<trkpt lat="45.207500" lon="2.333970">
					<ele>722</ele>
					<time>2018-06-26T17:18:04Z</time>
				</trkpt>
				<trkpt lat="45.207590" lon="2.333970">
					<ele>721</ele>
					<time>2018-06-26T17:19:04Z</time>
				</trkpt>
				<trkpt lat="45.207670" lon="2.333970">
					<ele>721</ele>
					<time>2018-06-26T17:20:04Z</time>
				</trkpt>
				<trkpt lat="45.207750" lon="2.333950">
					<ele>720</ele>
					<time>2018-06-26T17:21:04Z</time>
				</trkpt>		</trkseg>
	</trk>
</gpx>